<?xml version='1.0' encoding='UTF-8'?><gpx version="1.1" creator="JPX - https://github.com/jenetics/jpx" xmlns="http://www.topografix.com/GPX/1/1"><trk><trkseg><trkpt lat="44.89649519950798" lon="11.832223354023952"><ele>4.0</ele><time>2026-03-28T13:25:05Z</time></trkpt><trkpt lat="44.896474189535574" lon="11.83212932348068"><ele>3.9999999999999996</ele><time>2026-03-28T13:25:30Z</time></trkpt><trkpt lat="44.89653439850845" lon="11.832165294563538"><ele>4.0</ele><time>2026-03-28T13:27:22Z</time></trkpt><trkpt lat="44.896564901253534" lon="11.832280033605949"><ele>4.0</ele><time>2026-03-28T13:27:38Z</time></trkpt><trkpt lat="44.89662905097024" lon="11.83226769081888"><ele>3.9999999999999996</ele><time>2026-03-28T13:27:49Z</time></trkpt><trkpt lat="44.896660306612475" lon="11.832346306349663"><ele>4.0</ele><time>2026-03-28T13:27:51Z</time></trkpt><trkpt lat="44.89669002065092" lon="11.832454295075493"><ele>4.0</ele><time>2026-03-28T13:27:54Z</time></trkpt><trkpt lat="44.89672652307543" lon="11.832578030927019"><ele>3.833333333333333</ele><time>2026-03-28T13:27:56Z</time></trkpt><trkpt lat="44.89675708102859" lon="11.832665764508505"><ele>3.6666666666666665</ele><time>2026-03-28T13:27:57Z</time></trkpt><trkpt lat="44.89678980117384" lon="11.832792215580122"><ele>3.5</ele><time>2026-03-28T13:28:00Z</time></trkpt><trkpt lat="44.89681594519095" lon="11.832874794117984"><ele>3.333333333333333</ele><time>2026-03-28T13:28:04Z</time></trkpt><trkpt lat="44.896886872605215" lon="11.832857662250005"><ele>3.1666666666666665</ele><time>2026-03-28T13:28:07Z</time></trkpt><trkpt lat="44.8970020315221" lon="11.832771426100711"><ele>3.0</ele><time>2026-03-28T13:28:09Z</time></trkpt><trkpt lat="44.897078827640584" lon="11.832721639243063"><ele>3.0</ele><time>2026-03-28T13:28:10Z</time></trkpt><trkpt lat="44.8971872807493" lon="11.83269221933778"><ele>3.0</ele><time>2026-03-28T13:28:12Z</time></trkpt><trkpt lat="44.89726511814634" lon="11.832636471965998"><ele>3.0</ele><time>2026-03-28T13:28:13Z</time></trkpt><trkpt lat="44.89737022251021" lon="11.832546499061255"><ele>3.0</ele><time>2026-03-28T13:28:15Z</time></trkpt><trkpt lat="44.89743558644617" lon="11.83252753590007"><ele>3.0</ele><time>2026-03-28T13:28:17Z</time></trkpt><trkpt lat="44.89744877093454" lon="11.83227103909016"><ele>3.0</ele><time>2026-03-28T13:28:31.999Z</time></trkpt><trkpt lat="44.89742654366431" lon="11.832136868664252"><ele>3.0</ele><time>2026-03-28T13:28:32.999Z</time></trkpt><trkpt lat="44.897403773351705" lon="11.831999420255444"><ele>3.0</ele><time>2026-03-28T13:28:33.999Z</time></trkpt><trkpt lat="44.89737957242418" lon="11.831853335933532"><ele>3.0</ele><time>2026-03-28T13:28:34.999Z</time></trkpt><trkpt lat="44.89735324143764" lon="11.831684219445869"><ele>3.0</ele><time>2026-03-28T13:28:35.999Z</time></trkpt><trkpt lat="44.89732477788658" lon="11.831507596872875"><ele>3.0</ele><time>2026-03-28T13:28:36.999Z</time></trkpt><trkpt lat="44.89729539997242" lon="11.831325300441758"><ele>3.0</ele><time>2026-03-28T13:28:37.999Z</time></trkpt><trkpt lat="44.897265998073586" lon="11.831142855217605"><ele>3.0</ele><time>2026-03-28T13:28:38.999Z</time></trkpt><trkpt lat="44.897235525237164" lon="11.830953764593179"><ele>3.0</ele><time>2026-03-28T13:28:39.999Z</time></trkpt><trkpt lat="44.897202440134144" lon="11.83074846429437"><ele>3.25</ele><time>2026-03-28T13:28:40.999Z</time></trkpt><trkpt lat="44.897170444934154" lon="11.830549927095387"><ele>3.5</ele><time>2026-03-28T13:28:41.999Z</time></trkpt><trkpt lat="44.89714018528103" lon="11.83036009105599"><ele>3.75</ele><time>2026-03-28T13:28:42.999Z</time></trkpt><trkpt lat="44.89711143607578" lon="11.83017876545348"><ele>4.0</ele><time>2026-03-28T13:28:43.999Z</time></trkpt><trkpt lat="44.897084401005806" lon="11.830009231412241"><ele>4.0</ele><time>2026-03-28T13:28:44.999Z</time></trkpt><trkpt lat="44.8970572547845" lon="11.829839000352402"><ele>4.0</ele><time>2026-03-28T13:28:45.999Z</time></trkpt><trkpt lat="44.8970300440743" lon="11.829668364886727"><ele>4.0</ele><time>2026-03-28T13:28:46.999Z</time></trkpt><trkpt lat="44.897003398253794" lon="11.829501271776161"><ele>4.0</ele><time>2026-03-28T13:28:47.999Z</time></trkpt><trkpt lat="44.89698113119198" lon="11.829361536028607"><ele>3.833333333333333</ele><time>2026-03-28T13:28:48.999Z</time></trkpt><trkpt lat="44.896960689294446" lon="11.829233668516114"><ele>3.6666666666666665</ele><time>2026-03-28T13:28:49.999Z</time></trkpt><trkpt lat="44.896944392364" lon="11.829132324041693"><ele>3.5</ele><time>2026-03-28T13:28:50.999Z</time></trkpt><trkpt lat="44.896921191280015" lon="11.828988045246952"><ele>3.333333333333333</ele><time>2026-03-28T13:28:52.999Z</time></trkpt><trkpt lat="44.89690552998329" lon="11.828893273616485"><ele>3.1666666666666665</ele><time>2026-03-28T13:28:54.999Z</time></trkpt><trkpt lat="44.8968906062036" lon="11.828803111110389"><ele>3.0</ele><time>2026-03-28T13:28:56.999Z</time></trkpt><trkpt lat="44.89686650121521" lon="11.828653917717299"><ele>3.0</ele><time>2026-03-28T13:28:58.999Z</time></trkpt><trkpt lat="44.896850737016216" lon="11.828558260537545"><ele>3.0</ele><time>2026-03-28T13:28:59.999Z</time></trkpt><trkpt lat="44.89683274965799" lon="11.828449113203297"><ele>3.0</ele><time>2026-03-28T13:29:00.999Z</time></trkpt><trkpt lat="44.896797511367446" lon="11.828327731408795"><ele>3.0</ele><time>2026-03-28T13:29:01.999Z</time></trkpt><trkpt lat="44.89678327271077" lon="11.828176816648314"><ele>3.0</ele><time>2026-03-28T13:29:02.999Z</time></trkpt><trkpt lat="44.89675469157216" lon="11.828026860396138"><ele>3.2</ele><time>2026-03-28T13:29:03.999Z</time></trkpt><trkpt lat="44.89673176195312" lon="11.827878415677649"><ele>3.4</ele><time>2026-03-28T13:29:04.999Z</time></trkpt><trkpt lat="44.89670609549223" lon="11.827720567911511"><ele>3.6000000000000005</ele><time>2026-03-28T13:29:05.999Z</time></trkpt><trkpt lat="44.896677917788274" lon="11.827565392615591"><ele>3.8000000000000003</ele><time>2026-03-28T13:29:06.999Z</time></trkpt><trkpt lat="44.896650470360775" lon="11.82741888598885"><ele>4.0</ele><time>2026-03-28T13:29:07.999Z</time></trkpt><trkpt lat="44.89662686936091" lon="11.827278450730795"><ele>3.9999999999999996</ele><time>2026-03-28T13:29:08.999Z</time></trkpt><trkpt lat="44.89660123578198" lon="11.827142790756831"><ele>4.0</ele><time>2026-03-28T13:29:09.999Z</time></trkpt><trkpt lat="44.896595316754194" lon="11.827016421308702"><ele>4.0</ele><time>2026-03-28T13:29:10.999Z</time></trkpt><trkpt lat="44.89657601963317" lon="11.826899647160722"><ele>4.0</ele><time>2026-03-28T13:29:11.999Z</time></trkpt><trkpt lat="44.896556198380665" lon="11.82677993675971"><ele>3.9999999999999996</ele><time>2026-03-28T13:29:12.999Z</time></trkpt><trkpt lat="44.89653795005008" lon="11.826669879251419"><ele>4.0</ele><time>2026-03-28T13:29:13.999Z</time></trkpt><trkpt lat="44.89652090134972" lon="11.826567493277196"><ele>4.0</ele><time>2026-03-28T13:29:14.999Z</time></trkpt><trkpt lat="44.89647950907981" lon="11.826418549062137"><ele>4.0</ele><time>2026-03-28T13:29:16.999Z</time></trkpt><trkpt lat="44.896470167095735" lon="11.826319278189247"><ele>4.0</ele><time>2026-03-28T13:29:18.999Z</time></trkpt><trkpt lat="44.896451245939375" lon="11.826231210586194"><ele>4.0</ele><time>2026-03-28T13:29:20.999Z</time></trkpt><trkpt lat="44.896444646014736" lon="11.826079363150892"><ele>4.0</ele><time>2026-03-28T13:29:22.999Z</time></trkpt><trkpt lat="44.8964068756257" lon="11.825915549300861"><ele>3.9999999999999996</ele><time>2026-03-28T13:29:24.999Z</time></trkpt><trkpt lat="44.89638358589205" lon="11.825808612120603"><ele>4.0</ele><time>2026-03-28T13:29:25.999Z</time></trkpt><trkpt lat="44.89635694918815" lon="11.82568304439365"><ele>4.0</ele><time>2026-03-28T13:29:26.999Z</time></trkpt><trkpt lat="44.89633727952216" lon="11.825568186888855"><ele>4.0</ele><time>2026-03-28T13:29:27.999Z</time></trkpt><trkpt lat="44.89631830105423" lon="11.825449576786824"><ele>3.9999999999999996</ele><time>2026-03-28T13:29:28.999Z</time></trkpt><trkpt lat="44.89629565266383" lon="11.825330813084983"><ele>4.0</ele><time>2026-03-28T13:29:29.999Z</time></trkpt><trkpt lat="44.8962743148922" lon="11.825212551834019"><ele>3.9999999999999996</ele><time>2026-03-28T13:29:30.999Z</time></trkpt><trkpt lat="44.89625243239484" lon="11.825104365598827"><ele>4.0</ele><time>2026-03-28T13:29:31.999Z</time></trkpt><trkpt lat="44.89623753368932" lon="11.824988977093827"><ele>4.0</ele><time>2026-03-28T13:29:32.999Z</time></trkpt><trkpt lat="44.89621018188538" lon="11.824874973649338"><ele>4.0</ele><time>2026-03-28T13:29:33.999Z</time></trkpt><trkpt lat="44.896176517706905" lon="11.824754400182313"><ele>3.9999999999999996</ele><time>2026-03-28T13:29:34.999Z</time></trkpt><trkpt lat="44.896152531714485" lon="11.824620241823558"><ele>4.0</ele><time>2026-03-28T13:29:35.999Z</time></trkpt><trkpt lat="44.89616931466015" lon="11.824468928849514"><ele>4.0</ele><time>2026-03-28T13:29:36.999Z</time></trkpt><trkpt lat="44.89614573724418" lon="11.824324772202036"><ele>4.0</ele><time>2026-03-28T13:29:37.999Z</time></trkpt><trkpt lat="44.89612274879617" lon="11.824184216595732"><ele>4.0</ele><time>2026-03-28T13:29:38.999Z</time></trkpt><trkpt lat="44.8961018311285" lon="11.824056322033002"><ele>4.0</ele><time>2026-03-28T13:29:39.999Z</time></trkpt><trkpt lat="44.896082271917045" lon="11.82393734007737"><ele>4.0</ele><time>2026-03-28T13:29:40.999Z</time></trkpt><trkpt lat="44.89606207596424" lon="11.823814416400408"><ele>4.166666666666666</ele><time>2026-03-28T13:29:41.999Z</time></trkpt><trkpt lat="44.896042883473335" lon="11.823697600353253"><ele>4.333333333333333</ele><time>2026-03-28T13:29:42.999Z</time></trkpt><trkpt lat="44.896023411382735" lon="11.823579082495371"><ele>4.5</ele><time>2026-03-28T13:29:43.999Z</time></trkpt><trkpt lat="44.8960064850595" lon="11.823475562652947"><ele>4.666666666666667</ele><time>2026-03-28T13:29:44.999Z</time></trkpt><trkpt lat="44.89599092961638" lon="11.823380251968686"><ele>4.833333333333334</ele><time>2026-03-28T13:29:45.999Z</time></trkpt><trkpt lat="44.89596517076507" lon="11.823222423412133"><ele>5.0</ele><time>2026-03-28T13:29:47.999Z</time></trkpt><trkpt lat="44.895946247742216" lon="11.823106478886816"><ele>4.8</ele><time>2026-03-28T13:29:49.999Z</time></trkpt><trkpt lat="44.895926210849744" lon="11.822982443626845"><ele>4.6</ele><time>2026-03-28T13:29:52.999Z</time></trkpt><trkpt lat="44.89590200434057" lon="11.822833062883918"><ele>4.4</ele><time>2026-03-28T13:29:54.999Z</time></trkpt><trkpt lat="44.895881169624154" lon="11.822704489815568"><ele>4.2</ele><time>2026-03-28T13:29:55.999Z</time></trkpt><trkpt lat="44.89585671098754" lon="11.822553552932906"><ele>4.0</ele><time>2026-03-28T13:29:56.999Z</time></trkpt><trkpt lat="44.89582743397659" lon="11.822372032269204"><ele>3.6666666666666665</ele><time>2026-03-28T13:29:57.999Z</time></trkpt><trkpt lat="44.89579453852621" lon="11.822168351132884"><ele>3.333333333333333</ele><time>2026-03-28T13:29:58.999Z</time></trkpt><trkpt lat="44.89575950227878" lon="11.821951414754167"><ele>3.0</ele><time>2026-03-28T13:29:59.999Z</time></trkpt><trkpt lat="44.895723448800545" lon="11.821728179775937"><ele>3.0</ele><time>2026-03-28T13:30:00.999Z</time></trkpt><trkpt lat="44.895686727105314" lon="11.82150004017395"><ele>3.0</ele><time>2026-03-28T13:30:01.999Z</time></trkpt><trkpt lat="44.89565072496731" lon="11.821276384334409"><ele>3.0</ele><time>2026-03-28T13:30:02.999Z</time></trkpt><trkpt lat="44.895614713284814" lon="11.821052106399105"><ele>3.0</ele><time>2026-03-28T13:30:03.999Z</time></trkpt><trkpt lat="44.89557903210875" lon="11.820829886828086"><ele>3.0</ele><time>2026-03-28T13:30:04.999Z</time></trkpt><trkpt lat="44.895541599933544" lon="11.820596762178125"><ele>3.0</ele><time>2026-03-28T13:30:05.999Z</time></trkpt><trkpt lat="44.89550491219905" lon="11.820368273818287"><ele>2.3333333333333335</ele><time>2026-03-28T13:30:06.999Z</time></trkpt><trkpt lat="44.89546896334433" lon="11.820144387170277"><ele>1.6666666666666665</ele><time>2026-03-28T13:30:07.999Z</time></trkpt><trkpt lat="44.89543583187686" lon="11.819922328984678"><ele>1.0</ele><time>2026-03-28T13:30:08.999Z</time></trkpt><trkpt lat="44.89540940962858" lon="11.819703081057199"><ele>1.0</ele><time>2026-03-28T13:30:09.999Z</time></trkpt><trkpt lat="44.895377231495615" lon="11.819492569593512"><ele>1.0</ele><time>2026-03-28T13:30:10.999Z</time></trkpt><trkpt lat="44.8953372697525" lon="11.819289830012492"><ele>1.0</ele><time>2026-03-28T13:30:11.999Z</time></trkpt><trkpt lat="44.89529258574225" lon="11.819078644843163"><ele>1.3333333333333333</ele><time>2026-03-28T13:30:12.999Z</time></trkpt><trkpt lat="44.89523965553766" lon="11.818872601707316"><ele>1.6666666666666665</ele><time>2026-03-28T13:30:13.999Z</time></trkpt><trkpt lat="44.895169254973396" lon="11.818675596239363"><ele>2.0</ele><time>2026-03-28T13:30:14.999Z</time></trkpt><trkpt lat="44.89509221299067" lon="11.818486276913458"><ele>2.0</ele><time>2026-03-28T13:30:15.999Z</time></trkpt><trkpt lat="44.89497973428481" lon="11.818315750065622"><ele>2.0</ele><time>2026-03-28T13:30:16.999Z</time></trkpt><trkpt lat="44.8948512868043" lon="11.818172901243273"><ele>2.0</ele><time>2026-03-28T13:30:17.999Z</time></trkpt><trkpt lat="44.89471096220872" lon="11.818049585533263"><ele>2.0</ele><time>2026-03-28T13:30:18.999Z</time></trkpt><trkpt lat="44.89455624492783" lon="11.817954890599985"><ele>2.0</ele><time>2026-03-28T13:30:19.999Z</time></trkpt><trkpt lat="44.894415713572776" lon="11.81785905286249"><ele>2.0</ele><time>2026-03-28T13:30:20.999Z</time></trkpt><trkpt lat="44.89427987866795" lon="11.81778001839569"><ele>2.5</ele><time>2026-03-28T13:30:21.999Z</time></trkpt><trkpt lat="44.894167265222755" lon="11.817660206363394"><ele>3.0</ele><time>2026-03-28T13:30:22.999Z</time></trkpt><trkpt lat="44.894038105771905" lon="11.817567051759848"><ele>3.5</ele><time>2026-03-28T13:30:23.999Z</time></trkpt><trkpt lat="44.89390470762461" lon="11.817477204152821"><ele>4.0</ele><time>2026-03-28T13:30:24.999Z</time></trkpt><trkpt lat="44.89376823393092" lon="11.817382780520282"><ele>4.0</ele><time>2026-03-28T13:30:25.999Z</time></trkpt><trkpt lat="44.893636809312824" lon="11.81727913924435"><ele>4.0</ele><time>2026-03-28T13:30:26.999Z</time></trkpt><trkpt lat="44.89351125187181" lon="11.817160309684954"><ele>4.0</ele><time>2026-03-28T13:30:27.999Z</time></trkpt><trkpt lat="44.89337608522245" lon="11.817049119926315"><ele>4.0</ele><time>2026-03-28T13:30:28.999Z</time></trkpt><trkpt lat="44.893238200294235" lon="11.816940476842849"><ele>4.0</ele><time>2026-03-28T13:30:29.999Z</time></trkpt><trkpt lat="44.893097290534" lon="11.816834589345438"><ele>4.0</ele><time>2026-03-28T13:30:30.999Z</time></trkpt><trkpt lat="44.892955963808944" lon="11.816722295602954"><ele>4.0</ele><time>2026-03-28T13:30:31.999Z</time></trkpt><trkpt lat="44.89281301780755" lon="11.816615530181208"><ele>4.0</ele><time>2026-03-28T13:30:32.999Z</time></trkpt><trkpt lat="44.89267079708454" lon="11.816521406244044"><ele>4.0</ele><time>2026-03-28T13:30:33.999Z</time></trkpt><trkpt lat="44.89253766956576" lon="11.816413374270242"><ele>4.333333333333333</ele><time>2026-03-28T13:30:34.999Z</time></trkpt><trkpt lat="44.892411112322286" lon="11.816291699387808"><ele>4.666666666666667</ele><time>2026-03-28T13:30:35.999Z</time></trkpt><trkpt lat="44.89228036768781" lon="11.816185194536986"><ele>5.0</ele><time>2026-03-28T13:30:36.999Z</time></trkpt><trkpt lat="44.89214347264152" lon="11.81607465142066"><ele>5.0</ele><time>2026-03-28T13:30:37.999Z</time></trkpt><trkpt lat="44.89199355324019" lon="11.815998201471361"><ele>5.0</ele><time>2026-03-28T13:30:38.999Z</time></trkpt><trkpt lat="44.89185977447852" lon="11.815893386892848"><ele>5.0</ele><time>2026-03-28T13:30:39.999Z</time></trkpt><trkpt lat="44.89172839981881" lon="11.815787524702047"><ele>4.5</ele><time>2026-03-28T13:30:40.999Z</time></trkpt><trkpt lat="44.8915983071289" lon="11.815688489469794"><ele>4.0</ele><time>2026-03-28T13:30:41.999Z</time></trkpt><trkpt lat="44.89148874998476" lon="11.815553766561148"><ele>3.5</ele><time>2026-03-28T13:30:42.999Z</time></trkpt><trkpt lat="44.89136493349503" lon="11.815456331564631"><ele>3.0</ele><time>2026-03-28T13:30:43.999Z</time></trkpt><trkpt lat="44.891246464802464" lon="11.815362997098218"><ele>3.0</ele><time>2026-03-28T13:30:44.999Z</time></trkpt><trkpt lat="44.89113052707927" lon="11.81527033205513"><ele>3.0</ele><time>2026-03-28T13:30:45.999Z</time></trkpt><trkpt lat="44.89102384226142" lon="11.815185062557816"><ele>3.0</ele><time>2026-03-28T13:30:46.999Z</time></trkpt><trkpt lat="44.89092771494479" lon="11.815108042740587"><ele>3.0</ele><time>2026-03-28T13:30:47.999Z</time></trkpt><trkpt lat="44.89084689895057" lon="11.815043263956055"><ele>3.0</ele><time>2026-03-28T13:30:48.999Z</time></trkpt><trkpt lat="44.89078636057691" lon="11.814994738883394"><ele>3.0</ele><time>2026-03-28T13:30:49.999Z</time></trkpt><trkpt lat="44.89069314107013" lon="11.815009665057573"><ele>3.0</ele><time>2026-03-28T13:30:51.999Z</time></trkpt><trkpt lat="44.89062258918041" lon="11.81509158732935"><ele>3.0</ele><time>2026-03-28T13:30:55.999Z</time></trkpt><trkpt lat="44.89073509936048" lon="11.815221953722585"><ele>3.0</ele><time>2026-03-28T13:30:58.998Z</time></trkpt><trkpt lat="44.89079209100348" lon="11.815273325595726"><ele>3.0</ele><time>2026-03-28T13:31:01.998Z</time></trkpt><trkpt lat="44.89085877116054" lon="11.815230158902965"><ele>3.0</ele><time>2026-03-28T13:31:59.998Z</time></trkpt><trkpt lat="44.89077735225355" lon="11.815089453302543"><ele>3.0</ele><time>2026-03-28T13:34:10.997Z</time></trkpt><trkpt lat="44.89068956860472" lon="11.815010695824128"><ele>3.0</ele><time>2026-03-28T13:34:11.997Z</time></trkpt><trkpt lat="44.89060746310106" lon="11.814942407298867"><ele>3.0</ele><time>2026-03-28T13:34:12.997Z</time></trkpt><trkpt lat="44.89051735966676" lon="11.814869917759944"><ele>3.0</ele><time>2026-03-28T13:34:13.997Z</time></trkpt><trkpt lat="44.89041846465047" lon="11.814790889282355"><ele>3.0</ele><time>2026-03-28T13:34:14.997Z</time></trkpt><trkpt lat="44.890309606936114" lon="11.814705217043748"><ele>3.0</ele><time>2026-03-28T13:34:15.997Z</time></trkpt><trkpt lat="44.890192238253775" lon="11.814610353101013"><ele>3.0</ele><time>2026-03-28T13:34:16.997Z</time></trkpt><trkpt lat="44.89007220522576" lon="11.814515642106233"><ele>2.75</ele><time>2026-03-28T13:34:17.997Z</time></trkpt><trkpt lat="44.88995293371348" lon="11.814412022038137"><ele>2.5</ele><time>2026-03-28T13:34:18.997Z</time></trkpt><trkpt lat="44.88983420664875" lon="11.814294492764583"><ele>2.25</ele><time>2026-03-28T13:34:19.997Z</time></trkpt><trkpt lat="44.88971416159852" lon="11.81415755219007"><ele>2.0</ele><time>2026-03-28T13:34:20.997Z</time></trkpt><trkpt lat="44.889614215117774" lon="11.813996835945222"><ele>2.0</ele><time>2026-03-28T13:34:21.997Z</time></trkpt><trkpt lat="44.889544229605654" lon="11.81379977701891"><ele>2.0</ele><time>2026-03-28T13:34:22.997Z</time></trkpt><trkpt lat="44.88953266548292" lon="11.813568668300842"><ele>2.0</ele><time>2026-03-28T13:34:23.997Z</time></trkpt><trkpt lat="44.88946482032837" lon="11.813369591338665"><ele>2.25</ele><time>2026-03-28T13:34:24.997Z</time></trkpt><trkpt lat="44.889405608429904" lon="11.813177947897826"><ele>2.5</ele><time>2026-03-28T13:34:25.997Z</time></trkpt><trkpt lat="44.889352215620896" lon="11.812992557443632"><ele>2.75</ele><time>2026-03-28T13:34:26.997Z</time></trkpt><trkpt lat="44.889301972610724" lon="11.812813275262853"><ele>3.0</ele><time>2026-03-28T13:34:27.997Z</time></trkpt><trkpt lat="44.889259605291976" lon="11.812641147034567"><ele>2.8</ele><time>2026-03-28T13:34:28.997Z</time></trkpt><trkpt lat="44.8891825272497" lon="11.812505443353986"><ele>2.5999999999999996</ele><time>2026-03-28T13:34:29.997Z</time></trkpt><trkpt lat="44.88914922011006" lon="11.812370164874366"><ele>2.4000000000000004</ele><time>2026-03-28T13:34:30.997Z</time></trkpt><trkpt lat="44.88912090389342" lon="11.81224054312433"><ele>2.2</ele><time>2026-03-28T13:34:31.997Z</time></trkpt><trkpt lat="44.8891277955062" lon="11.812113323183262"><ele>2.0</ele><time>2026-03-28T13:34:32.997Z</time></trkpt><trkpt lat="44.889192410787714" lon="11.812013195283273"><ele>2.0</ele><time>2026-03-28T13:34:33.997Z</time></trkpt><trkpt lat="44.8892308264836" lon="11.811904032954748"><ele>2.0</ele><time>2026-03-28T13:34:34.997Z</time></trkpt><trkpt lat="44.88927633587425" lon="11.811788422915845"><ele>2.0</ele><time>2026-03-28T13:34:35.997Z</time></trkpt><trkpt lat="44.88935088162589" lon="11.811681570630292"><ele>2.0</ele><time>2026-03-28T13:34:36.997Z</time></trkpt><trkpt lat="44.88937513325042" lon="11.811532962693308"><ele>2.0</ele><time>2026-03-28T13:34:37.997Z</time></trkpt><trkpt lat="44.88934265402223" lon="11.811373092455911"><ele>2.2</ele><time>2026-03-28T13:34:38.997Z</time></trkpt><trkpt lat="44.88929490469989" lon="11.811252970063578"><ele>2.4000000000000004</ele><time>2026-03-28T13:34:39.997Z</time></trkpt><trkpt lat="44.889156622439444" lon="11.811230776723487"><ele>2.5999999999999996</ele><time>2026-03-28T13:34:40.997Z</time></trkpt><trkpt lat="44.88906429994587" lon="11.811199640037099"><ele>2.8</ele><time>2026-03-28T13:34:41.997Z</time></trkpt><trkpt lat="44.88897265771952" lon="11.811225323062468"><ele>3.0</ele><time>2026-03-28T13:34:42.997Z</time></trkpt><trkpt lat="44.88888966376438" lon="11.811302012201448"><ele>2.5</ele><time>2026-03-28T13:34:43.997Z</time></trkpt><trkpt lat="44.88883806944456" lon="11.811438017112652"><ele>2.0</ele><time>2026-03-28T13:34:44.997Z</time></trkpt><trkpt lat="44.888814194724624" lon="11.811584501423095"><ele>1.5</ele><time>2026-03-28T13:34:45.997Z</time></trkpt><trkpt lat="44.88868157363113" lon="11.811660593956674"><ele>1.0</ele><time>2026-03-28T13:34:46.997Z</time></trkpt><trkpt lat="44.888569987582635" lon="11.811699970223014"><ele>1.0</ele><time>2026-03-28T13:34:47.997Z</time></trkpt><trkpt lat="44.88845206420831" lon="11.811739597599093"><ele>1.0</ele><time>2026-03-28T13:34:48.997Z</time></trkpt><trkpt lat="44.88831821277233" lon="11.81181280012301"><ele>1.0</ele><time>2026-03-28T13:34:49.997Z</time></trkpt><trkpt lat="44.88815858512856" lon="11.811887641388866"><ele>1.0</ele><time>2026-03-28T13:34:50.997Z</time></trkpt><trkpt lat="44.88799236531993" lon="11.811981696634147"><ele>1.0</ele><time>2026-03-28T13:34:51.997Z</time></trkpt><trkpt lat="44.88782878990764" lon="11.812096458057388"><ele>1.0</ele><time>2026-03-28T13:34:52.997Z</time></trkpt><trkpt lat="44.88766296440066" lon="11.812215182095247"><ele>1.0</ele><time>2026-03-28T13:34:53.997Z</time></trkpt><trkpt lat="44.887491601302756" lon="11.812348229976665"><ele>1.0</ele><time>2026-03-28T13:34:54.997Z</time></trkpt><trkpt lat="44.88731897035341" lon="11.812514766953857"><ele>1.0</ele><time>2026-03-28T13:34:55.997Z</time></trkpt><trkpt lat="44.887144060496865" lon="11.81269763643355"><ele>1.0</ele><time>2026-03-28T13:34:56.997Z</time></trkpt><trkpt lat="44.88696328099502" lon="11.81287388850689"><ele>1.0</ele><time>2026-03-28T13:34:57.997Z</time></trkpt><trkpt lat="44.88678159819515" lon="11.813049719098535"><ele>1.0</ele><time>2026-03-28T13:34:58.997Z</time></trkpt><trkpt lat="44.88659716746108" lon="11.813224540413767"><ele>1.0</ele><time>2026-03-28T13:34:59.997Z</time></trkpt><trkpt lat="44.886412769985576" lon="11.813398332921755"><ele>0.6666666666666666</ele><time>2026-03-28T13:35:00.997Z</time></trkpt><trkpt lat="44.886232911343264" lon="11.81356800568966"><ele>0.3333333333333333</ele><time>2026-03-28T13:35:01.997Z</time></trkpt><trkpt lat="44.886058062644906" lon="11.813738676279838"><ele>0.0</ele><time>2026-03-28T13:35:02.997Z</time></trkpt><trkpt lat="44.88588805256293" lon="11.813901296787789"><ele>0.0</ele><time>2026-03-28T13:35:03.997Z</time></trkpt><trkpt lat="44.88572072242588" lon="11.81406081935704"><ele>0.0</ele><time>2026-03-28T13:35:04.997Z</time></trkpt><trkpt lat="44.88555275008144" lon="11.814218664856739"><ele>0.0</ele><time>2026-03-28T13:35:05.997Z</time></trkpt><trkpt lat="44.885391538016364" lon="11.814373558269857"><ele>0.3333333333333333</ele><time>2026-03-28T13:35:06.997Z</time></trkpt><trkpt lat="44.885225415422696" lon="11.814510608214508"><ele>0.6666666666666666</ele><time>2026-03-28T13:35:07.997Z</time></trkpt><trkpt lat="44.88506899788038" lon="11.814658025111042"><ele>1.0</ele><time>2026-03-28T13:35:08.997Z</time></trkpt><trkpt lat="44.88491680901904" lon="11.814801456666679"><ele>1.0</ele><time>2026-03-28T13:35:09.997Z</time></trkpt><trkpt lat="44.8847743855411" lon="11.814962998255048"><ele>1.0</ele><time>2026-03-28T13:35:10.997Z</time></trkpt><trkpt lat="44.88462204697008" lon="11.815083214493956"><ele>1.0</ele><time>2026-03-28T13:35:11.997Z</time></trkpt><trkpt lat="44.884489396856075" lon="11.815236758805145"><ele>1.0</ele><time>2026-03-28T13:35:12.997Z</time></trkpt><trkpt lat="44.88437338497271" lon="11.815426670211325"><ele>1.0</ele><time>2026-03-28T13:35:13.997Z</time></trkpt><trkpt lat="44.884267793879054" lon="11.815644843938854"><ele>1.0</ele><time>2026-03-28T13:35:14.997Z</time></trkpt><trkpt lat="44.88418489959589" lon="11.81589310207063"><ele>1.6666666666666665</ele><time>2026-03-28T13:35:15.997Z</time></trkpt><trkpt lat="44.884119955544264" lon="11.816163840927231"><ele>2.3333333333333335</ele><time>2026-03-28T13:35:16.997Z</time></trkpt><trkpt lat="44.8840858093862" lon="11.816451054327239"><ele>3.0</ele><time>2026-03-28T13:35:17.997Z</time></trkpt><trkpt lat="44.88407916765066" lon="11.816756924238573"><ele>2.5</ele><time>2026-03-28T13:35:18.997Z</time></trkpt><trkpt lat="44.88409422157992" lon="11.817074180192058"><ele>2.0</ele><time>2026-03-28T13:35:19.997Z</time></trkpt><trkpt lat="44.88411450192204" lon="11.81740521750829"><ele>3.0</ele><time>2026-03-28T13:35:20.997Z</time></trkpt><trkpt lat="44.884141279862796" lon="11.817743156837636"><ele>4.0</ele><time>2026-03-28T13:35:21.997Z</time></trkpt><trkpt lat="44.88417354116358" lon="11.818088493183371"><ele>4.0</ele><time>2026-03-28T13:35:22.997Z</time></trkpt><trkpt lat="44.88419599305457" lon="11.818436814927734"><ele>4.0</ele><time>2026-03-28T13:35:23.997Z</time></trkpt><trkpt lat="44.88421766365106" lon="11.818788850557238"><ele>4.0</ele><time>2026-03-28T13:35:24.997Z</time></trkpt><trkpt lat="44.88423724080187" lon="11.819148792123363"><ele>4.0</ele><time>2026-03-28T13:35:25.997Z</time></trkpt><trkpt lat="44.884259835863084" lon="11.819509289583289"><ele>4.0</ele><time>2026-03-28T13:35:26.997Z</time></trkpt><trkpt lat="44.88428527466415" lon="11.819872069812565"><ele>4.0</ele><time>2026-03-28T13:35:27.997Z</time></trkpt><trkpt lat="44.884303391393146" lon="11.820225401838986"><ele>3.5</ele><time>2026-03-28T13:35:28.997Z</time></trkpt><trkpt lat="44.884319136876705" lon="11.820580677418931"><ele>3.0</ele><time>2026-03-28T13:35:29.997Z</time></trkpt><trkpt lat="44.88433705196429" lon="11.820917594469723"><ele>3.0</ele><time>2026-03-28T13:35:30.997Z</time></trkpt><trkpt lat="44.88435371253554" lon="11.82123091849517"><ele>3.0</ele><time>2026-03-28T13:35:31.997Z</time></trkpt><trkpt lat="44.88436868826094" lon="11.821524628051703"><ele>3.0</ele><time>2026-03-28T13:35:32.997Z</time></trkpt><trkpt lat="44.88438418946989" lon="11.821812517578062"><ele>3.333333333333333</ele><time>2026-03-28T13:35:33.997Z</time></trkpt><trkpt lat="44.88439895504479" lon="11.822098503756816"><ele>3.6666666666666665</ele><time>2026-03-28T13:35:34.997Z</time></trkpt><trkpt lat="44.88441405615095" lon="11.822391036692144"><ele>4.0</ele><time>2026-03-28T13:35:35.997Z</time></trkpt><trkpt lat="44.88442982211831" lon="11.822701168177513"><ele>4.0</ele><time>2026-03-28T13:35:36.997Z</time></trkpt><trkpt lat="44.884446576353746" lon="11.823030940296984"><ele>4.0</ele><time>2026-03-28T13:35:37.997Z</time></trkpt><trkpt lat="44.884464056102814" lon="11.823377325229636"><ele>3.0</ele><time>2026-03-28T13:35:38.997Z</time></trkpt><trkpt lat="44.884482341764596" lon="11.823739680331958"><ele>2.0</ele><time>2026-03-28T13:35:39.997Z</time></trkpt><trkpt lat="44.88450055334052" lon="11.824100567911973"><ele>3.0</ele><time>2026-03-28T13:35:40.997Z</time></trkpt><trkpt lat="44.88451819474285" lon="11.824461105929508"><ele>4.0</ele><time>2026-03-28T13:35:41.997Z</time></trkpt><trkpt lat="44.884535441436995" lon="11.824817286677899"><ele>3.5</ele><time>2026-03-28T13:35:42.997Z</time></trkpt><trkpt lat="44.88455299857579" lon="11.825179878451474"><ele>3.0</ele><time>2026-03-28T13:35:43.997Z</time></trkpt><trkpt lat="44.884570068568024" lon="11.825532409955455"><ele>3.0</ele><time>2026-03-28T13:35:44.997Z</time></trkpt><trkpt lat="44.88458697411095" lon="11.82588154518391"><ele>3.0</ele><time>2026-03-28T13:35:45.997Z</time></trkpt><trkpt lat="44.884603675807405" lon="11.826226470431497"><ele>2.5</ele><time>2026-03-28T13:35:46.997Z</time></trkpt><trkpt lat="44.88462031830565" lon="11.826570173239077"><ele>2.0</ele><time>2026-03-28T13:35:47.997Z</time></trkpt><trkpt lat="44.88463675304516" lon="11.826909585283929"><ele>1.0</ele><time>2026-03-28T13:35:48.997Z</time></trkpt><trkpt lat="44.884655050859934" lon="11.8272409639707"><ele>0.0</ele><time>2026-03-28T13:35:49.997Z</time></trkpt><trkpt lat="44.884681748331296" lon="11.82757431042234"><ele>0.5</ele><time>2026-03-28T13:35:50.997Z</time></trkpt><trkpt lat="44.88472550040184" lon="11.82790885908947"><ele>1.0</ele><time>2026-03-28T13:35:51.997Z</time></trkpt><trkpt lat="44.884782508922775" lon="11.82824342690204"><ele>1.0</ele><time>2026-03-28T13:35:52.997Z</time></trkpt><trkpt lat="44.88484957798616" lon="11.828580698094914"><ele>1.0</ele><time>2026-03-28T13:35:53.997Z</time></trkpt><trkpt lat="44.884935589144355" lon="11.828917811176057"><ele>1.0</ele><time>2026-03-28T13:35:54.997Z</time></trkpt><trkpt lat="44.885031522205246" lon="11.829255617726966"><ele>1.0</ele><time>2026-03-28T13:35:55.997Z</time></trkpt><trkpt lat="44.88512957225328" lon="11.82958885935401"><ele>1.5</ele><time>2026-03-28T13:35:56.997Z</time></trkpt><trkpt lat="44.88522985072172" lon="11.829923483250885"><ele>2.0</ele><time>2026-03-28T13:35:57.997Z</time></trkpt><trkpt lat="44.88532912643922" lon="11.830262893260828"><ele>2.0</ele><time>2026-03-28T13:35:58.997Z</time></trkpt><trkpt lat="44.88542919400849" lon="11.830603769288263"><ele>2.0</ele><time>2026-03-28T13:35:59.997Z</time></trkpt><trkpt lat="44.8855299769245" lon="11.830947312303884"><ele>2.0</ele><time>2026-03-28T13:36:00.997Z</time></trkpt><trkpt lat="44.88563031374912" lon="11.831289334582156"><ele>2.0</ele><time>2026-03-28T13:36:01.997Z</time></trkpt><trkpt lat="44.88573156722798" lon="11.831634481349294"><ele>1.5</ele><time>2026-03-28T13:36:02.997Z</time></trkpt><trkpt lat="44.8858333893816" lon="11.831981566986876"><ele>1.0</ele><time>2026-03-28T13:36:03.997Z</time></trkpt><trkpt lat="44.88593426777693" lon="11.832328578825855"><ele>0.5</ele><time>2026-03-28T13:36:04.997Z</time></trkpt><trkpt lat="44.886036023337326" lon="11.832676081875334"><ele>0.0</ele><time>2026-03-28T13:36:05.996Z</time></trkpt><trkpt lat="44.88613795126365" lon="11.833024173468392"><ele>0.0</ele><time>2026-03-28T13:36:06.996Z</time></trkpt><trkpt lat="44.886240190342285" lon="11.833373327885118"><ele>0.0</ele><time>2026-03-28T13:36:07.996Z</time></trkpt><trkpt lat="44.88634227643773" lon="11.833721959773227"><ele>0.5</ele><time>2026-03-28T13:36:08.996Z</time></trkpt><trkpt lat="44.88644403050849" lon="11.834069457699266"><ele>1.0</ele><time>2026-03-28T13:36:09.996Z</time></trkpt><trkpt lat="44.886545983633056" lon="11.834417635535013"><ele>1.0</ele><time>2026-03-28T13:36:10.996Z</time></trkpt><trkpt lat="44.88666124539871" lon="11.834748802851509"><ele>1.0</ele><time>2026-03-28T13:36:11.996Z</time></trkpt><trkpt lat="44.88675466592287" lon="11.835070582467024"><ele>1.0</ele><time>2026-03-28T13:36:12.996Z</time></trkpt><trkpt lat="44.886827901336964" lon="11.835381371265393"><ele>1.0</ele><time>2026-03-28T13:36:13.996Z</time></trkpt><trkpt lat="44.88691886526239" lon="11.83563922154469"><ele>1.0</ele><time>2026-03-28T13:36:14.996Z</time></trkpt><trkpt lat="44.886990740582945" lon="11.835883261446002"><ele>1.0</ele><time>2026-03-28T13:36:15.996Z</time></trkpt><trkpt lat="44.88703168920447" lon="11.836108295638057"><ele>1.0</ele><time>2026-03-28T13:36:16.996Z</time></trkpt><trkpt lat="44.88708518833346" lon="11.836297997397367"><ele>1.0</ele><time>2026-03-28T13:36:17.996Z</time></trkpt><trkpt lat="44.887120540790605" lon="11.836460527981906"><ele>1.0</ele><time>2026-03-28T13:36:18.996Z</time></trkpt><trkpt lat="44.887138823180436" lon="11.836598580742875"><ele>0.9999999999999999</ele><time>2026-03-28T13:36:19.996Z</time></trkpt><trkpt lat="44.887139925354155" lon="11.836723646220204"><ele>1.0</ele><time>2026-03-28T13:36:20.996Z</time></trkpt><trkpt lat="44.88712434722947" lon="11.83683921865027"><ele>1.0</ele><time>2026-03-28T13:36:21.996Z</time></trkpt><trkpt lat="44.887093889787174" lon="11.836945706809427"><ele>1.0</ele><time>2026-03-28T13:36:22.996Z</time></trkpt><trkpt lat="44.88704201702443" lon="11.83703910007557"><ele>0.9999999999999999</ele><time>2026-03-28T13:36:23.996Z</time></trkpt><trkpt lat="44.8869545721562" lon="11.83712304376037"><ele>1.0</ele><time>2026-03-28T13:36:24.996Z</time></trkpt><trkpt lat="44.88683738772701" lon="11.837174433798523"><ele>0.3333333333333333</ele><time>2026-03-28T13:36:25.996Z</time></trkpt><trkpt lat="44.8866819557445" lon="11.837164464684696"><ele>-0.3333333333333333</ele><time>2026-03-28T13:36:26.996Z</time></trkpt><trkpt lat="44.88652127154586" lon="11.83719949379936"><ele>-1.0</ele><time>2026-03-28T13:36:27.996Z</time></trkpt><trkpt lat="44.886348339405" lon="11.837237192964489"><ele>-1.0</ele><time>2026-03-28T13:36:28.996Z</time></trkpt><trkpt lat="44.88616359736855" lon="11.837305892540314"><ele>-1.0</ele><time>2026-03-28T13:36:29.996Z</time></trkpt><trkpt lat="44.88596346093559" lon="11.837346721436692"><ele>-1.0</ele><time>2026-03-28T13:36:30.996Z</time></trkpt><trkpt lat="44.885742878753376" lon="11.837393267531857"><ele>-0.5</ele><time>2026-03-28T13:36:31.996Z</time></trkpt><trkpt lat="44.885517808230574" lon="11.837441573751688"><ele>0.0</ele><time>2026-03-28T13:36:32.996Z</time></trkpt><trkpt lat="44.885282592730135" lon="11.837493805947409"><ele>0.0</ele><time>2026-03-28T13:36:33.996Z</time></trkpt><trkpt lat="44.88504365879394" lon="11.8375465131962"><ele>0.0</ele><time>2026-03-28T13:36:34.996Z</time></trkpt><trkpt lat="44.88479134535091" lon="11.83760039952881"><ele>1.0</ele><time>2026-03-28T13:36:35.996Z</time></trkpt><trkpt lat="44.884534732237526" lon="11.83765419730705"><ele>2.0</ele><time>2026-03-28T13:36:36.996Z</time></trkpt><trkpt lat="44.88427616836128" lon="11.837714418481339"><ele>2.0</ele><time>2026-03-28T13:36:37.996Z</time></trkpt><trkpt lat="44.884011313017446" lon="11.837774881750898"><ele>2.0</ele><time>2026-03-28T13:36:38.996Z</time></trkpt><trkpt lat="44.88374633192343" lon="11.837841690205792"><ele>2.0</ele><time>2026-03-28T13:36:39.996Z</time></trkpt><trkpt lat="44.883484185625775" lon="11.837905527321917"><ele>2.0</ele><time>2026-03-28T13:36:40.996Z</time></trkpt><trkpt lat="44.883224901163125" lon="11.837987371774922"><ele>2.0</ele><time>2026-03-28T13:36:41.996Z</time></trkpt><trkpt lat="44.88297100413491" lon="11.838096529055692"><ele>2.0</ele><time>2026-03-28T13:36:42.996Z</time></trkpt><trkpt lat="44.882720383064935" lon="11.838238806359355"><ele>1.5</ele><time>2026-03-28T13:36:43.996Z</time></trkpt><trkpt lat="44.88246188112641" lon="11.838384595314153"><ele>1.0</ele><time>2026-03-28T13:36:44.996Z</time></trkpt><trkpt lat="44.88220333229089" lon="11.838519545847957"><ele>1.0</ele><time>2026-03-28T13:36:45.996Z</time></trkpt><trkpt lat="44.88194436115037" lon="11.838652863692298"><ele>1.0</ele><time>2026-03-28T13:36:46.996Z</time></trkpt><trkpt lat="44.881684097333476" lon="11.838776834294283"><ele>1.5</ele><time>2026-03-28T13:36:47.996Z</time></trkpt><trkpt lat="44.88142390440603" lon="11.83890575897779"><ele>2.0</ele><time>2026-03-28T13:36:48.996Z</time></trkpt><trkpt lat="44.88116143962169" lon="11.839041913832018"><ele>1.5</ele><time>2026-03-28T13:36:49.996Z</time></trkpt><trkpt lat="44.88090403671984" lon="11.839169782546579"><ele>1.0</ele><time>2026-03-28T13:36:50.996Z</time></trkpt><trkpt lat="44.88064815149689" lon="11.839301980409198"><ele>1.0</ele><time>2026-03-28T13:36:51.996Z</time></trkpt><trkpt lat="44.880398930994275" lon="11.839430817081372"><ele>1.0</ele><time>2026-03-28T13:36:52.996Z</time></trkpt><trkpt lat="44.88015086089809" lon="11.839554353103384"><ele>0.5</ele><time>2026-03-28T13:36:53.996Z</time></trkpt><trkpt lat="44.879892354809456" lon="11.839678258308394"><ele>0.0</ele><time>2026-03-28T13:36:54.996Z</time></trkpt><trkpt lat="44.879641050848456" lon="11.839793992396311"><ele>0.0</ele><time>2026-03-28T13:36:55.996Z</time></trkpt><trkpt lat="44.87939763965222" lon="11.839888465097987"><ele>0.0</ele><time>2026-03-28T13:36:56.996Z</time></trkpt><trkpt lat="44.87916156005238" lon="11.83996345082963"><ele>-0.5</ele><time>2026-03-28T13:36:57.996Z</time></trkpt><trkpt lat="44.878934655013126" lon="11.840022909904064"><ele>-1.0</ele><time>2026-03-28T13:36:58.996Z</time></trkpt><trkpt lat="44.878705061187645" lon="11.84005541489615"><ele>-1.0</ele><time>2026-03-28T13:36:59.996Z</time></trkpt><trkpt lat="44.87849077939958" lon="11.840024760211364"><ele>-1.0</ele><time>2026-03-28T13:37:00.996Z</time></trkpt><trkpt lat="44.878281443320375" lon="11.839966430622784"><ele>-1.0</ele><time>2026-03-28T13:37:01.996Z</time></trkpt><trkpt lat="44.8780758888418" lon="11.839874323753644"><ele>-0.3333333333333333</ele><time>2026-03-28T13:37:02.996Z</time></trkpt><trkpt lat="44.87787257108804" lon="11.83975331969551"><ele>0.3333333333333333</ele><time>2026-03-28T13:37:03.996Z</time></trkpt><trkpt lat="44.877664948119595" lon="11.839624290113466"><ele>1.0</ele><time>2026-03-28T13:37:04.996Z</time></trkpt><trkpt lat="44.877453306565684" lon="11.839492784997642"><ele>1.5</ele><time>2026-03-28T13:37:05.996Z</time></trkpt><trkpt lat="44.87722272551923" lon="11.839363626152506"><ele>2.0</ele><time>2026-03-28T13:37:06.996Z</time></trkpt><trkpt lat="44.87699756991002" lon="11.839270230327049"><ele>2.0</ele><time>2026-03-28T13:37:07.996Z</time></trkpt><trkpt lat="44.87677180605421" lon="11.83919091218513"><ele>2.0</ele><time>2026-03-28T13:37:08.996Z</time></trkpt><trkpt lat="44.876550583414705" lon="11.839116054620156"><ele>2.0</ele><time>2026-03-28T13:37:09.996Z</time></trkpt><trkpt lat="44.87634240595645" lon="11.839044194961556"><ele>2.0</ele><time>2026-03-28T13:37:10.996Z</time></trkpt><trkpt lat="44.876156044492404" lon="11.838958749519575"><ele>2.0</ele><time>2026-03-28T13:37:11.996Z</time></trkpt><trkpt lat="44.87598184630672" lon="11.838865483668396"><ele>1.3333333333333333</ele><time>2026-03-28T13:37:12.996Z</time></trkpt><trkpt lat="44.87581499518897" lon="11.83876343988642"><ele>0.6666666666666666</ele><time>2026-03-28T13:37:13.996Z</time></trkpt><trkpt lat="44.875657796539926" lon="11.838643424564602"><ele>0.0</ele><time>2026-03-28T13:37:14.996Z</time></trkpt><trkpt lat="44.87551790111287" lon="11.838501902021164"><ele>0.3333333333333333</ele><time>2026-03-28T13:37:15.996Z</time></trkpt><trkpt lat="44.875404298665664" lon="11.838339763585303"><ele>0.6666666666666666</ele><time>2026-03-28T13:37:16.996Z</time></trkpt><trkpt lat="44.8753018792214" lon="11.838167135578457"><ele>1.0</ele><time>2026-03-28T13:37:17.996Z</time></trkpt><trkpt lat="44.87518852363424" lon="11.837979621807442"><ele>1.3333333333333333</ele><time>2026-03-28T13:37:18.996Z</time></trkpt><trkpt lat="44.875055692721794" lon="11.837790444721646"><ele>1.6666666666666665</ele><time>2026-03-28T13:37:19.996Z</time></trkpt><trkpt lat="44.874903756798595" lon="11.837612458666367"><ele>2.0</ele><time>2026-03-28T13:37:20.996Z</time></trkpt><trkpt lat="44.87473993199477" lon="11.837437341998237"><ele>2.333333333333333</ele><time>2026-03-28T13:37:21.996Z</time></trkpt><trkpt lat="44.87457208122856" lon="11.837262708427563"><ele>2.6666666666666665</ele><time>2026-03-28T13:37:22.996Z</time></trkpt><trkpt lat="44.874400611393746" lon="11.837084309767729"><ele>3.0</ele><time>2026-03-28T13:37:23.996Z</time></trkpt><trkpt lat="44.87422898539074" lon="11.836906095662096"><ele>2.3333333333333335</ele><time>2026-03-28T13:37:24.996Z</time></trkpt><trkpt lat="44.874058153220595" lon="11.836728787134513"><ele>1.6666666666666665</ele><time>2026-03-28T13:37:25.996Z</time></trkpt><trkpt lat="44.8738872375765" lon="11.836551392067353"><ele>1.0</ele><time>2026-03-28T13:37:26.996Z</time></trkpt><trkpt lat="44.87371637102475" lon="11.836374049619003"><ele>1.0</ele><time>2026-03-28T13:37:27.996Z</time></trkpt><trkpt lat="44.87353877021755" lon="11.836189895619539"><ele>1.0</ele><time>2026-03-28T13:37:28.996Z</time></trkpt><trkpt lat="44.873357098420435" lon="11.836001598385117"><ele>1.0</ele><time>2026-03-28T13:37:29.996Z</time></trkpt><trkpt lat="44.87316649246829" lon="11.835804041120518"><ele>0.5</ele><time>2026-03-28T13:37:30.996Z</time></trkpt><trkpt lat="44.87297432994917" lon="11.835604870366828"><ele>0.0</ele><time>2026-03-28T13:37:31.996Z</time></trkpt><trkpt lat="44.872782376544755" lon="11.835405916353913"><ele>0.0</ele><time>2026-03-28T13:37:32.996Z</time></trkpt><trkpt lat="44.87259380422238" lon="11.835210466813335"><ele>0.0</ele><time>2026-03-28T13:37:33.996Z</time></trkpt><trkpt lat="44.87241349931694" lon="11.835023586119481"><ele>0.0</ele><time>2026-03-28T13:37:34.995Z</time></trkpt><trkpt lat="44.87224593990145" lon="11.834849915974253"><ele>0.0</ele><time>2026-03-28T13:37:35.995Z</time></trkpt><trkpt lat="44.87209368190738" lon="11.834694010616078"><ele>0.0</ele><time>2026-03-28T13:37:36.995Z</time></trkpt><trkpt lat="44.871951919006364" lon="11.834553050934893"><ele>0.0</ele><time>2026-03-28T13:37:37.995Z</time></trkpt><trkpt lat="44.8718120535525" lon="11.834451559935443"><ele>0.0</ele><time>2026-03-28T13:37:38.995Z</time></trkpt><trkpt lat="44.87168219923514" lon="11.834352827940931"><ele>0.0</ele><time>2026-03-28T13:37:39.995Z</time></trkpt><trkpt lat="44.871549725052674" lon="11.834275486839024"><ele>0.0</ele><time>2026-03-28T13:37:40.995Z</time></trkpt><trkpt lat="44.871407303751326" lon="11.834203600292277"><ele>0.6666666666666666</ele><time>2026-03-28T13:37:41.995Z</time></trkpt><trkpt lat="44.87126296156787" lon="11.834118004465212"><ele>1.3333333333333333</ele><time>2026-03-28T13:37:42.995Z</time></trkpt><trkpt lat="44.87111016449991" lon="11.834023988376293"><ele>2.0</ele><time>2026-03-28T13:37:43.995Z</time></trkpt><trkpt lat="44.87095870349812" lon="11.833911515247765"><ele>2.333333333333333</ele><time>2026-03-28T13:37:44.995Z</time></trkpt><trkpt lat="44.87080726565144" lon="11.833786677909304"><ele>2.6666666666666665</ele><time>2026-03-28T13:37:45.995Z</time></trkpt><trkpt lat="44.87065769569452" lon="11.833652499952027"><ele>3.0</ele><time>2026-03-28T13:37:46.995Z</time></trkpt><trkpt lat="44.870506679336195" lon="11.833518686860325"><ele>3.0</ele><time>2026-03-28T13:37:47.995Z</time></trkpt><trkpt lat="44.870347753886456" lon="11.833383868575506"><ele>3.0</ele><time>2026-03-28T13:37:48.995Z</time></trkpt><trkpt lat="44.870184770676815" lon="11.833247532674351"><ele>3.0</ele><time>2026-03-28T13:37:49.995Z</time></trkpt><trkpt lat="44.8700197112904" lon="11.833113230669648"><ele>3.0</ele><time>2026-03-28T13:37:50.995Z</time></trkpt><trkpt lat="44.869875301615636" lon="11.832959778637393"><ele>3.0</ele><time>2026-03-28T13:37:51.995Z</time></trkpt><trkpt lat="44.869716072889794" lon="11.832826309009228"><ele>3.0</ele><time>2026-03-28T13:37:52.995Z</time></trkpt><trkpt lat="44.86955725432434" lon="11.832694435696203"><ele>3.0</ele><time>2026-03-28T13:37:53.995Z</time></trkpt><trkpt lat="44.86940224156299" lon="11.832572535502436"><ele>3.0</ele><time>2026-03-28T13:37:54.995Z</time></trkpt><trkpt lat="44.869255920086864" lon="11.83245370617878"><ele>3.0</ele><time>2026-03-28T13:37:55.995Z</time></trkpt><trkpt lat="44.86911568988233" lon="11.832328461256692"><ele>2.6666666666666665</ele><time>2026-03-28T13:37:56.995Z</time></trkpt><trkpt lat="44.86898098862232" lon="11.832203828216095"><ele>2.333333333333333</ele><time>2026-03-28T13:37:57.995Z</time></trkpt><trkpt lat="44.8688455918066" lon="11.832076387823651"><ele>2.0</ele><time>2026-03-28T13:37:58.995Z</time></trkpt><trkpt lat="44.86872010422173" lon="11.831938318561534"><ele>2.0</ele><time>2026-03-28T13:37:59.995Z</time></trkpt><trkpt lat="44.86859257420441" lon="11.831794015980996"><ele>2.0</ele><time>2026-03-28T13:38:00.995Z</time></trkpt><trkpt lat="44.86847103682722" lon="11.83162561295988"><ele>2.0</ele><time>2026-03-28T13:38:01.995Z</time></trkpt><trkpt lat="44.86834186310533" lon="11.83146851480119"><ele>2.0</ele><time>2026-03-28T13:38:02.995Z</time></trkpt><trkpt lat="44.868210680536166" lon="11.831308973587177"><ele>2.0</ele><time>2026-03-28T13:38:03.995Z</time></trkpt><trkpt lat="44.86808425172588" lon="11.831155213792327"><ele>2.0</ele><time>2026-03-28T13:38:04.995Z</time></trkpt><trkpt lat="44.86796489248213" lon="11.831010491834093"><ele>2.0</ele><time>2026-03-28T13:38:05.995Z</time></trkpt><trkpt lat="44.86784662668654" lon="11.830875284644208"><ele>2.0</ele><time>2026-03-28T13:38:06.995Z</time></trkpt><trkpt lat="44.867735831496816" lon="11.83076285788417"><ele>2.0</ele><time>2026-03-28T13:38:07.995Z</time></trkpt><trkpt lat="44.8676199396802" lon="11.830672578072342"><ele>2.0</ele><time>2026-03-28T13:38:08.995Z</time></trkpt><trkpt lat="44.867492799314405" lon="11.830598576173799"><ele>2.0</ele><time>2026-03-28T13:38:09.995Z</time></trkpt><trkpt lat="44.8673530536913" lon="11.830534662331546"><ele>2.0</ele><time>2026-03-28T13:38:10.995Z</time></trkpt><trkpt lat="44.86720804362885" lon="11.830498313367691"><ele>2.0</ele><time>2026-03-28T13:38:11.995Z</time></trkpt><trkpt lat="44.867057472575674" lon="11.830520553200714"><ele>2.0</ele><time>2026-03-28T13:38:12.995Z</time></trkpt><trkpt lat="44.8669150659263" lon="11.830548792639702"><ele>1.6666666666666665</ele><time>2026-03-28T13:38:13.995Z</time></trkpt><trkpt lat="44.866771215363734" lon="11.830585029840444"><ele>1.3333333333333333</ele><time>2026-03-28T13:38:14.995Z</time></trkpt><trkpt lat="44.86661842617489" lon="11.8306354018235"><ele>1.0</ele><time>2026-03-28T13:38:15.995Z</time></trkpt><trkpt lat="44.86645326153781" lon="11.83067251744956"><ele>1.0</ele><time>2026-03-28T13:38:16.995Z</time></trkpt><trkpt lat="44.866291527392825" lon="11.830741463663655"><ele>1.0</ele><time>2026-03-28T13:38:17.995Z</time></trkpt><trkpt lat="44.8661273311527" lon="11.830842454420784"><ele>1.0</ele><time>2026-03-28T13:38:18.995Z</time></trkpt><trkpt lat="44.86595388909938" lon="11.83092885761515"><ele>0.6666666666666666</ele><time>2026-03-28T13:38:19.995Z</time></trkpt><trkpt lat="44.86578912630414" lon="11.831018589486156"><ele>0.3333333333333333</ele><time>2026-03-28T13:38:20.995Z</time></trkpt><trkpt lat="44.86563143904615" lon="11.831099843063269"><ele>0.0</ele><time>2026-03-28T13:38:21.995Z</time></trkpt><trkpt lat="44.86548548967693" lon="11.831162332909324"><ele>0.0</ele><time>2026-03-28T13:38:22.995Z</time></trkpt><trkpt lat="44.865346167879224" lon="11.831209513306916"><ele>0.0</ele><time>2026-03-28T13:38:23.995Z</time></trkpt><trkpt lat="44.86521748867744" lon="11.831245422802002"><ele>0.0</ele><time>2026-03-28T13:38:24.995Z</time></trkpt><trkpt lat="44.865098761635466" lon="11.831265281620066"><ele>0.0</ele><time>2026-03-28T13:38:25.995Z</time></trkpt><trkpt lat="44.864997464539236" lon="11.831267878179075"><ele>0.16666666666666666</ele><time>2026-03-28T13:38:26.995Z</time></trkpt><trkpt lat="44.86490424342971" lon="11.831278039500459"><ele>0.3333333333333333</ele><time>2026-03-28T13:38:27.995Z</time></trkpt><trkpt lat="44.86482554697817" lon="11.831271146913885"><ele>0.5</ele><time>2026-03-28T13:38:28.995Z</time></trkpt><trkpt lat="44.86475771808547" lon="11.831264423023788"><ele>0.6666666666666666</ele><time>2026-03-28T13:38:29.995Z</time></trkpt><trkpt lat="44.86467961173259" lon="11.831263494540705"><ele>0.8333333333333333</ele><time>2026-03-28T13:38:31.995Z</time></trkpt><trkpt lat="44.86459749451425" lon="11.83125506911628"><ele>1.0</ele><time>2026-03-28T13:38:41.995Z</time></trkpt><trkpt lat="44.864521768993335" lon="11.83124600059856"><ele>1.0</ele><time>2026-03-28T13:38:43.995Z</time></trkpt><trkpt lat="44.864422839146094" lon="11.831241482705199"><ele>1.0</ele><time>2026-03-28T13:38:45.995Z</time></trkpt><trkpt lat="44.86434907392816" lon="11.831249706508858"><ele>1.0</ele><time>2026-03-28T13:38:46.995Z</time></trkpt><trkpt lat="44.864247890675095" lon="11.831243691407622"><ele>1.0</ele><time>2026-03-28T13:38:47.995Z</time></trkpt><trkpt lat="44.86412484836093" lon="11.831255944259283"><ele>1.0</ele><time>2026-03-28T13:38:48.995Z</time></trkpt><trkpt lat="44.863977130987514" lon="11.831270086621972"><ele>1.0</ele><time>2026-03-28T13:38:49.995Z</time></trkpt><trkpt lat="44.86379701840914" lon="11.831258584770074"><ele>1.0</ele><time>2026-03-28T13:38:50.995Z</time></trkpt><trkpt lat="44.86360968493902" lon="11.831261113604217"><ele>1.0</ele><time>2026-03-28T13:38:51.995Z</time></trkpt><trkpt lat="44.863404109175505" lon="11.831264499505762"><ele>0.5</ele><time>2026-03-28T13:38:52.995Z</time></trkpt><trkpt lat="44.86317609234365" lon="11.831275629415313"><ele>0.0</ele><time>2026-03-28T13:38:53.995Z</time></trkpt><trkpt lat="44.86294353559091" lon="11.831285620737031"><ele>0.0</ele><time>2026-03-28T13:38:54.995Z</time></trkpt><trkpt lat="44.86270698158806" lon="11.83129491486253"><ele>0.0</ele><time>2026-03-28T13:38:55.995Z</time></trkpt><trkpt lat="44.86246105052357" lon="11.831299449951059"><ele>0.0</ele><time>2026-03-28T13:38:56.995Z</time></trkpt><trkpt lat="44.86223104052853" lon="11.831321196270387"><ele>0.0</ele><time>2026-03-28T13:38:57.995Z</time></trkpt><trkpt lat="44.861999405996414" lon="11.831342644447478"><ele>0.0</ele><time>2026-03-28T13:38:58.995Z</time></trkpt><trkpt lat="44.861783249580064" lon="11.831394290975739"><ele>0.0</ele><time>2026-03-28T13:38:59.995Z</time></trkpt><trkpt lat="44.861573762474634" lon="11.831487215410217"><ele>0.0</ele><time>2026-03-28T13:39:00.995Z</time></trkpt><trkpt lat="44.861372017197276" lon="11.831614627375716"><ele>0.0</ele><time>2026-03-28T13:39:01.995Z</time></trkpt><trkpt lat="44.86117665985593" lon="11.831780529718362"><ele>0.0</ele><time>2026-03-28T13:39:02.995Z</time></trkpt><trkpt lat="44.86099537011506" lon="11.831981382361363"><ele>0.5</ele><time>2026-03-28T13:39:03.995Z</time></trkpt><trkpt lat="44.86082052703866" lon="11.83221155502218"><ele>1.0</ele><time>2026-03-28T13:39:04.995Z</time></trkpt><trkpt lat="44.86063903177218" lon="11.832469381816457"><ele>0.5</ele><time>2026-03-28T13:39:05.995Z</time></trkpt><trkpt lat="44.86045359377854" lon="11.832721803435438"><ele>0.0</ele><time>2026-03-28T13:39:06.995Z</time></trkpt><trkpt lat="44.8602668940869" lon="11.832974846826538"><ele>1.0</ele><time>2026-03-28T13:39:07.995Z</time></trkpt><trkpt lat="44.86008827718203" lon="11.833224605118291"><ele>2.0</ele><time>2026-03-28T13:39:08.995Z</time></trkpt><trkpt lat="44.85990332778144" lon="11.833466526706239"><ele>1.5</ele><time>2026-03-28T13:39:09.995Z</time></trkpt><trkpt lat="44.85969803311579" lon="11.833697594684962"><ele>1.0</ele><time>2026-03-28T13:39:10.995Z</time></trkpt><trkpt lat="44.859481069367675" lon="11.833916502288321"><ele>1.0</ele><time>2026-03-28T13:39:11.995Z</time></trkpt><trkpt lat="44.85924863228784" lon="11.834112668116399"><ele>1.0</ele><time>2026-03-28T13:39:12.995Z</time></trkpt><trkpt lat="44.85901712686764" lon="11.834306891846202"><ele>1.0</ele><time>2026-03-28T13:39:13.995Z</time></trkpt><trkpt lat="44.8587824376263" lon="11.834513999565226"><ele>1.0</ele><time>2026-03-28T13:39:14.995Z</time></trkpt><trkpt lat="44.858557973369784" lon="11.8347043033622"><ele>2.0</ele><time>2026-03-28T13:39:15.995Z</time></trkpt><trkpt lat="44.85833108254687" lon="11.834883527144477"><ele>3.0</ele><time>2026-03-28T13:39:16.995Z</time></trkpt><trkpt lat="44.858115114736435" lon="11.835026810348829"><ele>3.0</ele><time>2026-03-28T13:39:17.995Z</time></trkpt><trkpt lat="44.857896016517714" lon="11.835132745559825"><ele>3.0</ele><time>2026-03-28T13:39:18.995Z</time></trkpt><trkpt lat="44.85766451523284" lon="11.835209732208734"><ele>3.0</ele><time>2026-03-28T13:39:19.995Z</time></trkpt><trkpt lat="44.85742883481384" lon="11.835261656699538"><ele>3.0</ele><time>2026-03-28T13:39:20.995Z</time></trkpt><trkpt lat="44.857194609542915" lon="11.835288922446416"><ele>3.0</ele><time>2026-03-28T13:39:21.995Z</time></trkpt><trkpt lat="44.856955270767415" lon="11.835278769916941"><ele>3.0</ele><time>2026-03-28T13:39:22.995Z</time></trkpt><trkpt lat="44.856725106150186" lon="11.835183539684069"><ele>1.5</ele><time>2026-03-28T13:39:23.995Z</time></trkpt><trkpt lat="44.85649137946992" lon="11.835111446112814"><ele>0.0</ele><time>2026-03-28T13:39:24.995Z</time></trkpt><trkpt lat="44.85626155638281" lon="11.83500480782004"><ele>0.0</ele><time>2026-03-28T13:39:25.995Z</time></trkpt><trkpt lat="44.85604413757266" lon="11.834856237778766"><ele>0.0</ele><time>2026-03-28T13:39:26.995Z</time></trkpt><trkpt lat="44.85582000247112" lon="11.834684614310856"><ele>0.0</ele><time>2026-03-28T13:39:27.995Z</time></trkpt><trkpt lat="44.85559318833203" lon="11.834499911163464"><ele>0.0</ele><time>2026-03-28T13:39:28.995Z</time></trkpt><trkpt lat="44.85536534452814" lon="11.83431436979054"><ele>0.5</ele><time>2026-03-28T13:39:29.995Z</time></trkpt><trkpt lat="44.855133356807904" lon="11.834123398960763"><ele>1.0</ele><time>2026-03-28T13:39:30.995Z</time></trkpt><trkpt lat="44.85490347361759" lon="11.833936851129454"><ele>1.0</ele><time>2026-03-28T13:39:31.995Z</time></trkpt><trkpt lat="44.85466930244926" lon="11.833742557147179"><ele>1.0</ele><time>2026-03-28T13:39:32.995Z</time></trkpt><trkpt lat="44.85443137179149" lon="11.833546209047544"><ele>1.5</ele><time>2026-03-28T13:39:33.995Z</time></trkpt><trkpt lat="44.85419338380438" lon="11.833349813818968"><ele>2.0</ele><time>2026-03-28T13:39:34.995Z</time></trkpt><trkpt lat="44.853951126447065" lon="11.833149895128305"><ele>2.0</ele><time>2026-03-28T13:39:35.995Z</time></trkpt><trkpt lat="44.853704084913076" lon="11.832946030280144"><ele>2.0</ele><time>2026-03-28T13:39:36.995Z</time></trkpt><trkpt lat="44.853454346624034" lon="11.832739938211397"><ele>1.5</ele><time>2026-03-28T13:39:37.995Z</time></trkpt><trkpt lat="44.8532028250254" lon="11.832532740903781"><ele>1.0</ele><time>2026-03-28T13:39:38.995Z</time></trkpt><trkpt lat="44.85294903615146" lon="11.832325401804525"><ele>1.0</ele><time>2026-03-28T13:39:39.995Z</time></trkpt><trkpt lat="44.85269762129277" lon="11.832119004542465"><ele>1.0</ele><time>2026-03-28T13:39:40.995Z</time></trkpt><trkpt lat="44.85244908242798" lon="11.831914456016005"><ele>1.0</ele><time>2026-03-28T13:39:41.995Z</time></trkpt><trkpt lat="44.85220740474156" lon="11.831715554303903"><ele>1.0</ele><time>2026-03-28T13:39:42.995Z</time></trkpt><trkpt lat="44.8519750020795" lon="11.831524285973293"><ele>1.0</ele><time>2026-03-28T13:39:43.995Z</time></trkpt><trkpt lat="44.851755613140135" lon="11.831343727975083"><ele>1.0</ele><time>2026-03-28T13:39:44.995Z</time></trkpt><trkpt lat="44.85155627864976" lon="11.831179916530134"><ele>1.0</ele><time>2026-03-28T13:39:45.995Z</time></trkpt><trkpt lat="44.85136186742258" lon="11.831029811909337"><ele>1.0</ele><time>2026-03-28T13:39:46.994Z</time></trkpt><trkpt lat="44.85116420397174" lon="11.830899305630503"><ele>1.0</ele><time>2026-03-28T13:39:47.994Z</time></trkpt><trkpt lat="44.85094680670954" lon="11.83080228137004"><ele>1.0</ele><time>2026-03-28T13:39:48.994Z</time></trkpt><trkpt lat="44.85071746081326" lon="11.830732025820557"><ele>1.0</ele><time>2026-03-28T13:39:49.994Z</time></trkpt><trkpt lat="44.850476590770896" lon="11.830721490015039"><ele>1.0</ele><time>2026-03-28T13:39:50.994Z</time></trkpt><trkpt lat="44.850236690689265" lon="11.83072388607617"><ele>1.0</ele><time>2026-03-28T13:39:51.994Z</time></trkpt><trkpt lat="44.84999394514041" lon="11.830776388853996"><ele>1.0</ele><time>2026-03-28T13:39:52.994Z</time></trkpt><trkpt lat="44.84974872043261" lon="11.830868651884048"><ele>1.0</ele><time>2026-03-28T13:39:53.994Z</time></trkpt><trkpt lat="44.84950374505943" lon="11.830979547774808"><ele>1.0</ele><time>2026-03-28T13:39:54.994Z</time></trkpt><trkpt lat="44.849254468525395" lon="11.831095915780468"><ele>1.0</ele><time>2026-03-28T13:39:55.994Z</time></trkpt><trkpt lat="44.8489955291642" lon="11.831211362288"><ele>1.0</ele><time>2026-03-28T13:39:56.994Z</time></trkpt><trkpt lat="44.84874039123229" lon="11.831322759306051"><ele>1.0</ele><time>2026-03-28T13:39:57.994Z</time></trkpt><trkpt lat="44.84848796639492" lon="11.831442823553605"><ele>1.0</ele><time>2026-03-28T13:39:58.994Z</time></trkpt><trkpt lat="44.84823752406429" lon="11.831593153672022"><ele>1.0</ele><time>2026-03-28T13:39:59.994Z</time></trkpt><trkpt lat="44.847992044412564" lon="11.831756851010134"><ele>0.5</ele><time>2026-03-28T13:40:00.994Z</time></trkpt><trkpt lat="44.84775096911575" lon="11.831942332439239"><ele>0.0</ele><time>2026-03-28T13:40:01.994Z</time></trkpt><trkpt lat="44.847517235454355" lon="11.832151180674542"><ele>1.0</ele><time>2026-03-28T13:40:02.994Z</time></trkpt><trkpt lat="44.84729716550556" lon="11.832375310278987"><ele>2.0</ele><time>2026-03-28T13:40:03.994Z</time></trkpt><trkpt lat="44.847101996711814" lon="11.832592393408907"><ele>2.0</ele><time>2026-03-28T13:40:04.994Z</time></trkpt><trkpt lat="44.846956834679204" lon="11.832770311507378"><ele>2.0</ele><time>2026-03-28T13:40:05.994Z</time></trkpt><trkpt lat="44.84683495314547" lon="11.83296442189383"><ele>2.0</ele><time>2026-03-28T13:40:06.994Z</time></trkpt><trkpt lat="44.84672203373891" lon="11.833177248757632"><ele>2.0</ele><time>2026-03-28T13:40:07.994Z</time></trkpt><trkpt lat="44.84664723146631" lon="11.83347473356539"><ele>2.0</ele><time>2026-03-28T13:40:08.994Z</time></trkpt><trkpt lat="44.846582847322836" lon="11.833812770433818"><ele>2.0</ele><time>2026-03-28T13:40:09.994Z</time></trkpt><trkpt lat="44.846521599161754" lon="11.834157952527775"><ele>2.0</ele><time>2026-03-28T13:40:10.994Z</time></trkpt><trkpt lat="44.846468965886096" lon="11.834501211635622"><ele>1.5</ele><time>2026-03-28T13:40:11.994Z</time></trkpt><trkpt lat="44.84644917470569" lon="11.834867796802634"><ele>1.0</ele><time>2026-03-28T13:40:12.994Z</time></trkpt><trkpt lat="44.84645000123813" lon="11.835252288380593"><ele>0.5</ele><time>2026-03-28T13:40:13.994Z</time></trkpt><trkpt lat="44.846474956014184" lon="11.835649204531117"><ele>0.0</ele><time>2026-03-28T13:40:14.994Z</time></trkpt><trkpt lat="44.84650003757875" lon="11.836054766637881"><ele>0.0</ele><time>2026-03-28T13:40:15.994Z</time></trkpt><trkpt lat="44.846515723154475" lon="11.83645228474457"><ele>0.0</ele><time>2026-03-28T13:40:16.994Z</time></trkpt><trkpt lat="44.84653264023987" lon="11.836850820626186"><ele>1.0</ele><time>2026-03-28T13:40:17.994Z</time></trkpt><trkpt lat="44.84654611237463" lon="11.837244332760664"><ele>2.0</ele><time>2026-03-28T13:40:18.994Z</time></trkpt><trkpt lat="44.84654708235913" lon="11.837642324466117"><ele>2.0</ele><time>2026-03-28T13:40:19.994Z</time></trkpt><trkpt lat="44.8465407199117" lon="11.838036683535622"><ele>2.0</ele><time>2026-03-28T13:40:20.994Z</time></trkpt><trkpt lat="44.84651271999738" lon="11.838435940832357"><ele>1.5</ele><time>2026-03-28T13:40:21.994Z</time></trkpt><trkpt lat="44.84648451132572" lon="11.838842189137829"><ele>1.0</ele><time>2026-03-28T13:40:22.994Z</time></trkpt><trkpt lat="44.84645634067174" lon="11.839255899022037"><ele>1.0</ele><time>2026-03-28T13:40:23.994Z</time></trkpt><trkpt lat="44.846431323541225" lon="11.839667198330634"><ele>1.0</ele><time>2026-03-28T13:40:24.994Z</time></trkpt><trkpt lat="44.84640920403304" lon="11.840076707943282"><ele>0.5</ele><time>2026-03-28T13:40:25.994Z</time></trkpt><trkpt lat="44.846390251566206" lon="11.840475060797724"><ele>0.0</ele><time>2026-03-28T13:40:26.994Z</time></trkpt><trkpt lat="44.84635702758115" lon="11.840840695956508"><ele>-1.5</ele><time>2026-03-28T13:40:27.994Z</time></trkpt><trkpt lat="44.84633802453822" lon="11.841173223292387"><ele>-3.0</ele><time>2026-03-28T13:40:28.994Z</time></trkpt><trkpt lat="44.846319088854116" lon="11.841478393566392"><ele>-3.0</ele><time>2026-03-28T13:40:29.994Z</time></trkpt><trkpt lat="44.846288446891684" lon="11.841758395630126"><ele>-3.0</ele><time>2026-03-28T13:40:30.994Z</time></trkpt><trkpt lat="44.846227686074506" lon="11.842008688997703"><ele>-3.0</ele><time>2026-03-28T13:40:31.994Z</time></trkpt><trkpt lat="44.846136051982036" lon="11.842234498618113"><ele>-3.0</ele><time>2026-03-28T13:40:32.994Z</time></trkpt><trkpt lat="44.84601004704034" lon="11.842451233036734"><ele>-3.0</ele><time>2026-03-28T13:40:33.994Z</time></trkpt><trkpt lat="44.84584841093332" lon="11.842656891659725"><ele>-3.0</ele><time>2026-03-28T13:40:34.994Z</time></trkpt><trkpt lat="44.84567106819989" lon="11.842885124906607"><ele>-3.0</ele><time>2026-03-28T13:40:35.994Z</time></trkpt><trkpt lat="44.8454764576393" lon="11.843101812406596"><ele>-3.0</ele><time>2026-03-28T13:40:36.994Z</time></trkpt><trkpt lat="44.845273088872446" lon="11.843326959880903"><ele>0.0</ele><time>2026-03-28T13:40:37.994Z</time></trkpt><trkpt lat="44.84506987479593" lon="11.843559815472616"><ele>3.0</ele><time>2026-03-28T13:40:38.994Z</time></trkpt><trkpt lat="44.844868684569946" lon="11.843784760150237"><ele>3.0</ele><time>2026-03-28T13:40:39.994Z</time></trkpt><trkpt lat="44.84466179769867" lon="11.84401574897945"><ele>3.0</ele><time>2026-03-28T13:40:40.994Z</time></trkpt><trkpt lat="44.844453468313276" lon="11.84424738454865"><ele>4.5</ele><time>2026-03-28T13:40:41.994Z</time></trkpt><trkpt lat="44.84424397095345" lon="11.844484216132066"><ele>6.0</ele><time>2026-03-28T13:40:42.994Z</time></trkpt><trkpt lat="44.84403482003068" lon="11.844724752732139"><ele>6.0</ele><time>2026-03-28T13:40:43.994Z</time></trkpt><trkpt lat="44.84382514477694" lon="11.844959648637717"><ele>6.0</ele><time>2026-03-28T13:40:44.994Z</time></trkpt><trkpt lat="44.843621131835164" lon="11.845185843983947"><ele>4.5</ele><time>2026-03-28T13:40:45.994Z</time></trkpt><trkpt lat="44.843424380911095" lon="11.84541319062129"><ele>3.0</ele><time>2026-03-28T13:40:46.994Z</time></trkpt><trkpt lat="44.843237627490915" lon="11.845626664029078"><ele>3.0</ele><time>2026-03-28T13:40:47.994Z</time></trkpt><trkpt lat="44.84306321335963" lon="11.845832369536826"><ele>3.0</ele><time>2026-03-28T13:40:48.994Z</time></trkpt><trkpt lat="44.8428947160243" lon="11.84602600963839"><ele>3.0</ele><time>2026-03-28T13:40:49.994Z</time></trkpt><trkpt lat="44.84273788932395" lon="11.846219399863136"><ele>3.0</ele><time>2026-03-28T13:40:50.994Z</time></trkpt><trkpt lat="44.842597213046126" lon="11.846434578184702"><ele>3.0</ele><time>2026-03-28T13:40:51.994Z</time></trkpt><trkpt lat="44.84248138695324" lon="11.846675444767973"><ele>3.0</ele><time>2026-03-28T13:40:52.994Z</time></trkpt><trkpt lat="44.84238197617095" lon="11.846951416745705"><ele>3.0</ele><time>2026-03-28T13:40:53.994Z</time></trkpt><trkpt lat="44.84231193589409" lon="11.847245161553191"><ele>3.0</ele><time>2026-03-28T13:40:54.994Z</time></trkpt><trkpt lat="44.842280316483084" lon="11.847551712483595"><ele>3.0</ele><time>2026-03-28T13:40:55.994Z</time></trkpt><trkpt lat="44.842276803096084" lon="11.847865048933695"><ele>3.333333333333333</ele><time>2026-03-28T13:40:56.994Z</time></trkpt><trkpt lat="44.84228764819126" lon="11.848175690868823"><ele>3.6666666666666665</ele><time>2026-03-28T13:40:57.994Z</time></trkpt><trkpt lat="44.842298093705786" lon="11.848465376832714"><ele>4.0</ele><time>2026-03-28T13:40:58.994Z</time></trkpt><trkpt lat="44.84230721648141" lon="11.848710516052435"><ele>3.25</ele><time>2026-03-28T13:40:59.994Z</time></trkpt><trkpt lat="44.842309035724234" lon="11.84890394403611"><ele>2.5</ele><time>2026-03-28T13:41:00.994Z</time></trkpt><trkpt lat="44.84230523310665" lon="11.849061144735973"><ele>1.75</ele><time>2026-03-28T13:41:01.994Z</time></trkpt><trkpt lat="44.84229901354806" lon="11.849156077898844"><ele>1.0</ele><time>2026-03-28T13:41:02.994Z</time></trkpt><trkpt lat="44.8421613765904" lon="11.849239429716658"><ele>0.8</ele><time>2026-03-28T13:41:04.994Z</time></trkpt><trkpt lat="44.84208518920732" lon="11.849325500799864"><ele>0.6000000000000001</ele><time>2026-03-28T13:41:05.994Z</time></trkpt><trkpt lat="44.84202864674" lon="11.84945780322179"><ele>0.4</ele><time>2026-03-28T13:41:06.994Z</time></trkpt><trkpt lat="44.84201742815421" lon="11.849622503689059"><ele>0.2</ele><time>2026-03-28T13:41:07.994Z</time></trkpt><trkpt lat="44.841966158062604" lon="11.84976927051591"><ele>0.0</ele><time>2026-03-28T13:41:08.994Z</time></trkpt><trkpt lat="44.84188299649832" lon="11.849905275875303"><ele>0.3333333333333333</ele><time>2026-03-28T13:41:09.994Z</time></trkpt><trkpt lat="44.841751968678956" lon="11.85002458104661"><ele>0.6666666666666666</ele><time>2026-03-28T13:41:10.994Z</time></trkpt><trkpt lat="44.84161153586207" lon="11.85017849601872"><ele>1.0</ele><time>2026-03-28T13:41:11.994Z</time></trkpt><trkpt lat="44.84144555487207" lon="11.85035991365267"><ele>0.0</ele><time>2026-03-28T13:41:12.994Z</time></trkpt><trkpt lat="44.84125642651045" lon="11.850566631332411"><ele>-1.0</ele><time>2026-03-28T13:41:13.994Z</time></trkpt><trkpt lat="44.84105092654526" lon="11.850791243255888"><ele>-1.0</ele><time>2026-03-28T13:41:14.994Z</time></trkpt><trkpt lat="44.84084620247251" lon="11.851015007140715"><ele>-1.0</ele><time>2026-03-28T13:41:15.994Z</time></trkpt><trkpt lat="44.840633143206844" lon="11.85124788111503"><ele>-1.0</ele><time>2026-03-28T13:41:16.994Z</time></trkpt><trkpt lat="44.84041077019445" lon="11.851490935548133"><ele>-1.0</ele><time>2026-03-28T13:41:17.994Z</time></trkpt><trkpt lat="44.84019179975484" lon="11.85176105040576"><ele>0.0</ele><time>2026-03-28T13:41:18.994Z</time></trkpt><trkpt lat="44.839959304984774" lon="11.852010208561786"><ele>1.0</ele><time>2026-03-28T13:41:19.994Z</time></trkpt><trkpt lat="44.839728030774836" lon="11.852257297827993"><ele>1.0</ele><time>2026-03-28T13:41:20.994Z</time></trkpt><trkpt lat="44.83950080130612" lon="11.85250791296552"><ele>1.0</ele><time>2026-03-28T13:41:21.994Z</time></trkpt><trkpt lat="44.839281924281416" lon="11.852750270799927"><ele>0.5</ele><time>2026-03-28T13:41:22.994Z</time></trkpt><trkpt lat="44.83907409631445" lon="11.852977188708993"><ele>0.0</ele><time>2026-03-28T13:41:23.994Z</time></trkpt><trkpt lat="44.83887769150808" lon="11.853198731575615"><ele>0.0</ele><time>2026-03-28T13:41:24.994Z</time></trkpt><trkpt lat="44.83869163006596" lon="11.853427314736651"><ele>0.0</ele><time>2026-03-28T13:41:25.994Z</time></trkpt><trkpt lat="44.838523938777776" lon="11.853681326205686"><ele>0.5</ele><time>2026-03-28T13:41:26.994Z</time></trkpt><trkpt lat="44.838366754022736" lon="11.853956701260552"><ele>1.0</ele><time>2026-03-28T13:41:27.994Z</time></trkpt><trkpt lat="44.83821986330953" lon="11.854255433439928"><ele>1.0</ele><time>2026-03-28T13:41:28.994Z</time></trkpt><trkpt lat="44.83808338712445" lon="11.854564565231868"><ele>1.0</ele><time>2026-03-28T13:41:29.994Z</time></trkpt><trkpt lat="44.83796160059656" lon="11.854886241744858"><ele>0.0</ele><time>2026-03-28T13:41:30.994Z</time></trkpt><trkpt lat="44.83785177131085" lon="11.855225140596545"><ele>-1.0</ele><time>2026-03-28T13:41:31.994Z</time></trkpt><trkpt lat="44.837749837626525" lon="11.855561598148329"><ele>-1.0</ele><time>2026-03-28T13:41:32.994Z</time></trkpt><trkpt lat="44.83765239210684" lon="11.855887763058641"><ele>-1.0</ele><time>2026-03-28T13:41:33.994Z</time></trkpt><trkpt lat="44.83755373650411" lon="11.856201394338049"><ele>-1.5</ele><time>2026-03-28T13:41:34.994Z</time></trkpt><trkpt lat="44.83746140551075" lon="11.856500065924712"><ele>-2.0</ele><time>2026-03-28T13:41:35.994Z</time></trkpt><trkpt lat="44.837376805267475" lon="11.856787049181547"><ele>-2.0</ele><time>2026-03-28T13:41:36.994Z</time></trkpt><trkpt lat="44.83730082947756" lon="11.857073123860983"><ele>-2.0</ele><time>2026-03-28T13:41:37.994Z</time></trkpt><trkpt lat="44.83724347611621" lon="11.857335136302682"><ele>-2.0</ele><time>2026-03-28T13:41:38.994Z</time></trkpt><trkpt lat="44.83721377711195" lon="11.857584454547178"><ele>-1.6666666666666665</ele><time>2026-03-28T13:41:39.994Z</time></trkpt><trkpt lat="44.83720069305912" lon="11.857829007317035"><ele>-1.3333333333333333</ele><time>2026-03-28T13:41:40.994Z</time></trkpt><trkpt lat="44.83720518136501" lon="11.858041749479009"><ele>-1.0</ele><time>2026-03-28T13:41:41.994Z</time></trkpt><trkpt lat="44.83721798971109" lon="11.858224372566117"><ele>-1.0</ele><time>2026-03-28T13:41:42.994Z</time></trkpt><trkpt lat="44.837220953415844" lon="11.858384203292923"><ele>-1.0</ele><time>2026-03-28T13:41:43.994Z</time></trkpt><trkpt lat="44.83720508587814" lon="11.858526242007438"><ele>-1.0</ele><time>2026-03-28T13:41:44.994Z</time></trkpt><trkpt lat="44.83714917763365" lon="11.858624237563992"><ele>-1.0</ele><time>2026-03-28T13:41:45.994Z</time></trkpt><trkpt lat="44.837112232035295" lon="11.858755164475653"><ele>-1.0</ele><time>2026-03-28T13:41:46.994Z</time></trkpt><trkpt lat="44.83706188125235" lon="11.858891389469488"><ele>-0.5</ele><time>2026-03-28T13:41:47.994Z</time></trkpt><trkpt lat="44.836961365510085" lon="11.858971834086953"><ele>0.0</ele><time>2026-03-28T13:41:48.994Z</time></trkpt><trkpt lat="44.83683211419379" lon="11.859008105078086"><ele>0.5</ele><time>2026-03-28T13:41:49.994Z</time></trkpt><trkpt lat="44.836687499682974" lon="11.859050138717274"><ele>1.0</ele><time>2026-03-28T13:41:50.994Z</time></trkpt><trkpt lat="44.83653733060753" lon="11.859094527699"><ele>1.0</ele><time>2026-03-28T13:41:51.994Z</time></trkpt><trkpt lat="44.8363641689" lon="11.859145713191115"><ele>1.0</ele><time>2026-03-28T13:41:52.994Z</time></trkpt><trkpt lat="44.836170262463796" lon="11.859203953474104"><ele>1.0</ele><time>2026-03-28T13:41:53.994Z</time></trkpt><trkpt lat="44.835963177889546" lon="11.859266738976194"><ele>0.6666666666666666</ele><time>2026-03-28T13:41:54.994Z</time></trkpt><trkpt lat="44.83575587245449" lon="11.859348368489833"><ele>0.3333333333333333</ele><time>2026-03-28T13:41:55.994Z</time></trkpt><trkpt lat="44.83556830897147" lon="11.859453773200213"><ele>0.0</ele><time>2026-03-28T13:41:56.994Z</time></trkpt><trkpt lat="44.83539309813066" lon="11.859585889095325"><ele>0.0</ele><time>2026-03-28T13:41:57.994Z</time></trkpt><trkpt lat="44.83521276442218" lon="11.859748935171377"><ele>0.0</ele><time>2026-03-28T13:41:58.994Z</time></trkpt><trkpt lat="44.83503510235076" lon="11.859925927944353"><ele>0.0</ele><time>2026-03-28T13:41:59.994Z</time></trkpt><trkpt lat="44.834856670668536" lon="11.860118988844835"><ele>0.3333333333333333</ele><time>2026-03-28T13:42:00.994Z</time></trkpt><trkpt lat="44.8346814698425" lon="11.860323176685352"><ele>0.6666666666666666</ele><time>2026-03-28T13:42:01.994Z</time></trkpt><trkpt lat="44.8345239079598" lon="11.860542649326582"><ele>1.0</ele><time>2026-03-28T13:42:02.994Z</time></trkpt><trkpt lat="44.834374836455616" lon="11.86074521077459"><ele>0.6666666666666666</ele><time>2026-03-28T13:42:03.993Z</time></trkpt><trkpt lat="44.834234756990135" lon="11.860927850525266"><ele>0.3333333333333333</ele><time>2026-03-28T13:42:04.993Z</time></trkpt><trkpt lat="44.834094308745755" lon="11.86107857836159"><ele>0.0</ele><time>2026-03-28T13:42:05.993Z</time></trkpt><trkpt lat="44.8339381901133" lon="11.861193476803654"><ele>0.0</ele><time>2026-03-28T13:42:06.993Z</time></trkpt><trkpt lat="44.83375874961251" lon="11.861266410587275"><ele>0.0</ele><time>2026-03-28T13:42:07.993Z</time></trkpt><trkpt lat="44.8335673731406" lon="11.861296136321728"><ele>0.0</ele><time>2026-03-28T13:42:08.993Z</time></trkpt><trkpt lat="44.83336221319423" lon="11.861287445075982"><ele>0.0</ele><time>2026-03-28T13:42:09.993Z</time></trkpt><trkpt lat="44.83314360584563" lon="11.86128985744308"><ele>0.0</ele><time>2026-03-28T13:42:10.993Z</time></trkpt><trkpt lat="44.832928213578946" lon="11.861349436441163"><ele>0.0</ele><time>2026-03-28T13:42:11.993Z</time></trkpt><trkpt lat="44.83269465277072" lon="11.861408893376991"><ele>0.0</ele><time>2026-03-28T13:42:12.993Z</time></trkpt><trkpt lat="44.832441392009464" lon="11.861506420912301"><ele>0.0</ele><time>2026-03-28T13:42:13.993Z</time></trkpt><trkpt lat="44.83216489933313" lon="11.861600515675724"><ele>0.0</ele><time>2026-03-28T13:42:14.993Z</time></trkpt><trkpt lat="44.83187710380716" lon="11.861640995787011"><ele>0.0</ele><time>2026-03-28T13:42:15.993Z</time></trkpt><trkpt lat="44.83159488323515" lon="11.86172742244564"><ele>-1.0</ele><time>2026-03-28T13:42:16.993Z</time></trkpt><trkpt lat="44.83131404454622" lon="11.861813345845803"><ele>-2.0</ele><time>2026-03-28T13:42:17.993Z</time></trkpt><trkpt lat="44.83104775275146" lon="11.86189243171106"><ele>-2.0</ele><time>2026-03-28T13:42:18.993Z</time></trkpt><trkpt lat="44.83077649682078" lon="11.86195703579346"><ele>-2.0</ele><time>2026-03-28T13:42:19.993Z</time></trkpt><trkpt lat="44.830497033121574" lon="11.861997357197517"><ele>-2.0</ele><time>2026-03-28T13:42:20.993Z</time></trkpt><trkpt lat="44.830218197245934" lon="11.862027274041958"><ele>-2.0</ele><time>2026-03-28T13:42:21.993Z</time></trkpt><trkpt lat="44.829934729375736" lon="11.862052609464317"><ele>-1.0</ele><time>2026-03-28T13:42:22.993Z</time></trkpt><trkpt lat="44.829652522942155" lon="11.862071585957326"><ele>0.0</ele><time>2026-03-28T13:42:23.993Z</time></trkpt><trkpt lat="44.82937076221437" lon="11.862088088212998"><ele>-0.5</ele><time>2026-03-28T13:42:24.993Z</time></trkpt><trkpt lat="44.829090763268425" lon="11.862100478894874"><ele>-1.0</ele><time>2026-03-28T13:42:25.993Z</time></trkpt><trkpt lat="44.8288118056192" lon="11.862108062439239"><ele>-1.0</ele><time>2026-03-28T13:42:26.993Z</time></trkpt><trkpt lat="44.828540988368545" lon="11.862139814662738"><ele>-1.0</ele><time>2026-03-28T13:42:27.993Z</time></trkpt><trkpt lat="44.82828120990852" lon="11.862126868216942"><ele>-1.0</ele><time>2026-03-28T13:42:28.993Z</time></trkpt><trkpt lat="44.828031919337384" lon="11.862135191877035"><ele>-1.0</ele><time>2026-03-28T13:42:29.993Z</time></trkpt><trkpt lat="44.82778649378763" lon="11.86214247833089"><ele>-0.5</ele><time>2026-03-28T13:42:30.993Z</time></trkpt><trkpt lat="44.82754731064465" lon="11.862174883855202"><ele>0.0</ele><time>2026-03-28T13:42:31.993Z</time></trkpt><trkpt lat="44.82730040616305" lon="11.862172217259934"><ele>0.0</ele><time>2026-03-28T13:42:32.993Z</time></trkpt><trkpt lat="44.827057567723124" lon="11.862223642275117"><ele>0.0</ele><time>2026-03-28T13:42:33.993Z</time></trkpt><trkpt lat="44.82681040834037" lon="11.862344708501576"><ele>-0.5</ele><time>2026-03-28T13:42:34.993Z</time></trkpt><trkpt lat="44.82655438770205" lon="11.862468726216719"><ele>-1.0</ele><time>2026-03-28T13:42:35.993Z</time></trkpt><trkpt lat="44.82630600700594" lon="11.862588645947149"><ele>-0.5</ele><time>2026-03-28T13:42:36.993Z</time></trkpt><trkpt lat="44.8260569288855" lon="11.862684028612664"><ele>0.0</ele><time>2026-03-28T13:42:37.993Z</time></trkpt><trkpt lat="44.825830525572805" lon="11.86281003580487"><ele>0.0</ele><time>2026-03-28T13:42:38.993Z</time></trkpt><trkpt lat="44.825623453753416" lon="11.862954518041985"><ele>0.0</ele><time>2026-03-28T13:42:39.993Z</time></trkpt><trkpt lat="44.82540919817105" lon="11.863047122955994"><ele>0.0</ele><time>2026-03-28T13:42:40.993Z</time></trkpt><trkpt lat="44.82520826803635" lon="11.863159265497018"><ele>0.0</ele><time>2026-03-28T13:42:41.993Z</time></trkpt><trkpt lat="44.8250667023394" lon="11.863455876429443"><ele>0.0</ele><time>2026-03-28T13:42:42.993Z</time></trkpt><trkpt lat="44.8249245704165" lon="11.863716576362739"><ele>0.0</ele><time>2026-03-28T13:42:43.993Z</time></trkpt><trkpt lat="44.82479838473964" lon="11.863993219485396"><ele>0.0</ele><time>2026-03-28T13:42:44.993Z</time></trkpt><trkpt lat="44.824676524588284" lon="11.864260545124749"><ele>0.0</ele><time>2026-03-28T13:42:45.993Z</time></trkpt><trkpt lat="44.824555166568494" lon="11.864528493853248"><ele>-0.5</ele><time>2026-03-28T13:42:46.993Z</time></trkpt><trkpt lat="44.82443025234816" lon="11.86479840200154"><ele>-1.0</ele><time>2026-03-28T13:42:47.993Z</time></trkpt><trkpt lat="44.82431054943951" lon="11.865071802598445"><ele>-0.6666666666666666</ele><time>2026-03-28T13:42:48.993Z</time></trkpt><trkpt lat="44.82419121407712" lon="11.865341165026857"><ele>-0.3333333333333333</ele><time>2026-03-28T13:42:49.993Z</time></trkpt><trkpt lat="44.82407636505023" lon="11.865601021614944"><ele>0.0</ele><time>2026-03-28T13:42:50.993Z</time></trkpt><trkpt lat="44.823966422320865" lon="11.86585113100823"><ele>0.0</ele><time>2026-03-28T13:42:51.993Z</time></trkpt><trkpt lat="44.82385994547999" lon="11.866094242179361"><ele>0.0</ele><time>2026-03-28T13:42:52.993Z</time></trkpt><trkpt lat="44.823753588115196" lon="11.866326092573386"><ele>0.0</ele><time>2026-03-28T13:42:53.993Z</time></trkpt><trkpt lat="44.82363955289191" lon="11.86653069711398"><ele>0.0</ele><time>2026-03-28T13:42:54.993Z</time></trkpt><trkpt lat="44.82350944442751" lon="11.866726065451896"><ele>0.0</ele><time>2026-03-28T13:42:55.993Z</time></trkpt><trkpt lat="44.82334934752965" lon="11.866909791241678"><ele>0.0</ele><time>2026-03-28T13:42:56.993Z</time></trkpt><trkpt lat="44.82316794772087" lon="11.86709001073162"><ele>0.5</ele><time>2026-03-28T13:42:57.993Z</time></trkpt><trkpt lat="44.82298410312299" lon="11.867286568526469"><ele>1.0</ele><time>2026-03-28T13:42:58.993Z</time></trkpt><trkpt lat="44.822785222452595" lon="11.867524546921537"><ele>1.0</ele><time>2026-03-28T13:42:59.993Z</time></trkpt><trkpt lat="44.82257238836718" lon="11.86777122233667"><ele>1.0</ele><time>2026-03-28T13:43:00.993Z</time></trkpt><trkpt lat="44.822346466593956" lon="11.868033596968049"><ele>1.0</ele><time>2026-03-28T13:43:01.993Z</time></trkpt><trkpt lat="44.82210661206697" lon="11.868297048126623"><ele>1.0</ele><time>2026-03-28T13:43:02.993Z</time></trkpt><trkpt lat="44.82186833260341" lon="11.868561680239642"><ele>0.0</ele><time>2026-03-28T13:43:03.993Z</time></trkpt><trkpt lat="44.821637977468306" lon="11.86883092816887"><ele>-1.0</ele><time>2026-03-28T13:43:04.993Z</time></trkpt><trkpt lat="44.821415224491844" lon="11.86911771056099"><ele>-1.0</ele><time>2026-03-28T13:43:05.993Z</time></trkpt><trkpt lat="44.82120824046866" lon="11.86939586141767"><ele>-1.0</ele><time>2026-03-28T13:43:06.993Z</time></trkpt><trkpt lat="44.82101388365131" lon="11.869693590873018"><ele>-1.0</ele><time>2026-03-28T13:43:07.993Z</time></trkpt><trkpt lat="44.820837628643105" lon="11.869983659992732"><ele>-1.0</ele><time>2026-03-28T13:43:08.993Z</time></trkpt><trkpt lat="44.82067608990336" lon="11.870256616822441"><ele>-1.3333333333333333</ele><time>2026-03-28T13:43:09.993Z</time></trkpt><trkpt lat="44.820531447805394" lon="11.870499278310987"><ele>-1.6666666666666665</ele><time>2026-03-28T13:43:10.993Z</time></trkpt><trkpt lat="44.820388273629234" lon="11.870716312288282"><ele>-2.0</ele><time>2026-03-28T13:43:11.993Z</time></trkpt><trkpt lat="44.820245877270274" lon="11.870909289486171"><ele>-1.6666666666666665</ele><time>2026-03-28T13:43:12.993Z</time></trkpt><trkpt lat="44.82008724771347" lon="11.87106701518338"><ele>-1.3333333333333333</ele><time>2026-03-28T13:43:13.993Z</time></trkpt><trkpt lat="44.8199068317243" lon="11.871186661395974"><ele>-1.0</ele><time>2026-03-28T13:43:14.993Z</time></trkpt><trkpt lat="44.819710123071516" lon="11.871244508796407"><ele>-1.0</ele><time>2026-03-28T13:43:15.993Z</time></trkpt><trkpt lat="44.81950965395941" lon="11.871246879404254"><ele>-1.0</ele><time>2026-03-28T13:43:16.993Z</time></trkpt><trkpt lat="44.81929943158234" lon="11.871210168656742"><ele>-1.0</ele><time>2026-03-28T13:43:17.993Z</time></trkpt><trkpt lat="44.819075583090026" lon="11.871152660146087"><ele>-1.0</ele><time>2026-03-28T13:43:18.993Z</time></trkpt><trkpt lat="44.81884727152458" lon="11.871088375732207"><ele>-1.0</ele><time>2026-03-28T13:43:19.993Z</time></trkpt><trkpt lat="44.818612853374155" lon="11.871024772446471"><ele>-1.3333333333333333</ele><time>2026-03-28T13:43:20.993Z</time></trkpt><trkpt lat="44.81838887747578" lon="11.870961175231326"><ele>-1.6666666666666665</ele><time>2026-03-28T13:43:21.993Z</time></trkpt><trkpt lat="44.81818283287309" lon="11.870903305961368"><ele>-2.0</ele><time>2026-03-28T13:43:22.993Z</time></trkpt><trkpt lat="44.81798640766885" lon="11.870864693002078"><ele>-1.3333333333333333</ele><time>2026-03-28T13:43:23.993Z</time></trkpt><trkpt lat="44.81780825473263" lon="11.87085070222843"><ele>-0.6666666666666666</ele><time>2026-03-28T13:43:24.993Z</time></trkpt><trkpt lat="44.81762665615297" lon="11.87087177805476"><ele>0.0</ele><time>2026-03-28T13:43:25.993Z</time></trkpt><trkpt lat="44.81744819072178" lon="11.870931077519652"><ele>0.0</ele><time>2026-03-28T13:43:26.993Z</time></trkpt><trkpt lat="44.81726004827099" lon="11.871037816875534"><ele>0.0</ele><time>2026-03-28T13:43:27.993Z</time></trkpt><trkpt lat="44.8170663514519" lon="11.871191728612855"><ele>0.0</ele><time>2026-03-28T13:43:28.993Z</time></trkpt><trkpt lat="44.8168708594561" lon="11.871363359466201"><ele>-0.5</ele><time>2026-03-28T13:43:29.993Z</time></trkpt><trkpt lat="44.81667118004542" lon="11.871535471509903"><ele>-1.0</ele><time>2026-03-28T13:43:30.993Z</time></trkpt><trkpt lat="44.8164649742109" lon="11.871712788700222"><ele>-1.0</ele><time>2026-03-28T13:43:31.993Z</time></trkpt><trkpt lat="44.81624598732871" lon="11.871887199017134"><ele>-1.0</ele><time>2026-03-28T13:43:32.993Z</time></trkpt><trkpt lat="44.81601577262018" lon="11.87206450325407"><ele>-0.5</ele><time>2026-03-28T13:43:33.993Z</time></trkpt><trkpt lat="44.8157749477598" lon="11.872236755045714"><ele>0.0</ele><time>2026-03-28T13:43:34.993Z</time></trkpt><trkpt lat="44.815522423192675" lon="11.872393402347631"><ele>0.0</ele><time>2026-03-28T13:43:35.993Z</time></trkpt><trkpt lat="44.815273314570106" lon="11.872594294511343"><ele>0.0</ele><time>2026-03-28T13:43:36.993Z</time></trkpt><trkpt lat="44.815015359435634" lon="11.872775799654255"><ele>0.0</ele><time>2026-03-28T13:43:37.993Z</time></trkpt><trkpt lat="44.81475122955464" lon="11.87293662243931"><ele>0.0</ele><time>2026-03-28T13:43:38.993Z</time></trkpt><trkpt lat="44.81448809600407" lon="11.87312325513608"><ele>0.5</ele><time>2026-03-28T13:43:39.993Z</time></trkpt><trkpt lat="44.814229187610344" lon="11.8733057197662"><ele>1.0</ele><time>2026-03-28T13:43:40.993Z</time></trkpt><trkpt lat="44.813973226988814" lon="11.873490196412353"><ele>1.0</ele><time>2026-03-28T13:43:41.993Z</time></trkpt><trkpt lat="44.813714075790166" lon="11.873675863816134"><ele>1.0</ele><time>2026-03-28T13:43:42.993Z</time></trkpt><trkpt lat="44.8134547347917" lon="11.8738589553884"><ele>1.0</ele><time>2026-03-28T13:43:43.993Z</time></trkpt><trkpt lat="44.813195412435725" lon="11.874043419176184"><ele>1.0</ele><time>2026-03-28T13:43:44.993Z</time></trkpt><trkpt lat="44.81293400166701" lon="11.874228918520952"><ele>1.0</ele><time>2026-03-28T13:43:45.993Z</time></trkpt><trkpt lat="44.81267109055444" lon="11.87440844089619"><ele>1.0</ele><time>2026-03-28T13:43:46.993Z</time></trkpt><trkpt lat="44.812423231320686" lon="11.874572891670525"><ele>1.0</ele><time>2026-03-28T13:43:47.993Z</time></trkpt><trkpt lat="44.812185097429165" lon="11.874729113046481"><ele>1.0</ele><time>2026-03-28T13:43:48.993Z</time></trkpt><trkpt lat="44.81196420999097" lon="11.874876721806842"><ele>1.0</ele><time>2026-03-28T13:43:49.993Z</time></trkpt><trkpt lat="44.81175738481403" lon="11.875015254129783"><ele>1.0</ele><time>2026-03-28T13:43:50.993Z</time></trkpt><trkpt lat="44.81156729819208" lon="11.875164061374518"><ele>1.0</ele><time>2026-03-28T13:43:51.993Z</time></trkpt><trkpt lat="44.811386864188805" lon="11.875283069416522"><ele>1.0</ele><time>2026-03-28T13:43:52.993Z</time></trkpt><trkpt lat="44.81121389353693" lon="11.875363426699177"><ele>1.0</ele><time>2026-03-28T13:43:53.993Z</time></trkpt><trkpt lat="44.81106467062083" lon="11.875461896825795"><ele>1.0</ele><time>2026-03-28T13:43:54.993Z</time></trkpt><trkpt lat="44.81092724392822" lon="11.87553747721585"><ele>1.5</ele><time>2026-03-28T13:43:55.993Z</time></trkpt><trkpt lat="44.81079698332664" lon="11.875591458863882"><ele>2.0</ele><time>2026-03-28T13:43:56.993Z</time></trkpt><trkpt lat="44.810676128556175" lon="11.875619364738013"><ele>2.5</ele><time>2026-03-28T13:43:57.993Z</time></trkpt><trkpt lat="44.81056378335742" lon="11.875631559314419"><ele>3.0</ele><time>2026-03-28T13:43:58.993Z</time></trkpt><trkpt lat="44.81044492958466" lon="11.87563189042084"><ele>3.0</ele><time>2026-03-28T13:43:59.993Z</time></trkpt><trkpt lat="44.81032913833691" lon="11.875608623593369"><ele>3.0</ele><time>2026-03-28T13:44:00.993Z</time></trkpt><trkpt lat="44.81021181591518" lon="11.875560454263503"><ele>3.0</ele><time>2026-03-28T13:44:01.993Z</time></trkpt><trkpt lat="44.81010446347086" lon="11.875446794308782"><ele>3.0</ele><time>2026-03-28T13:44:02.993Z</time></trkpt><trkpt lat="44.809990885919404" lon="11.875349391563205"><ele>2.75</ele><time>2026-03-28T13:44:03.993Z</time></trkpt><trkpt lat="44.80987858348065" lon="11.875236146925912"><ele>2.5</ele><time>2026-03-28T13:44:04.993Z</time></trkpt><trkpt lat="44.80978108846198" lon="11.87512086611074"><ele>2.25</ele><time>2026-03-28T13:44:05.993Z</time></trkpt><trkpt lat="44.80967633811991" lon="11.875020785046912"><ele>2.0</ele><time>2026-03-28T13:44:06.993Z</time></trkpt><trkpt lat="44.809600494479085" lon="11.874891547140793"><ele>2.0</ele><time>2026-03-28T13:44:07.993Z</time></trkpt><trkpt lat="44.809519509676925" lon="11.874781957646519"><ele>2.0</ele><time>2026-03-28T13:44:08.993Z</time></trkpt><trkpt lat="44.80943753335059" lon="11.874675133620428"><ele>2.0</ele><time>2026-03-28T13:44:09.993Z</time></trkpt><trkpt lat="44.809357692205644" lon="11.874576559288439"><ele>2.0</ele><time>2026-03-28T13:44:10.993Z</time></trkpt><trkpt lat="44.809278522441275" lon="11.874484191587856"><ele>2.0</ele><time>2026-03-28T13:44:11.993Z</time></trkpt><trkpt lat="44.809195329451924" lon="11.874397786492995"><ele>2.0</ele><time>2026-03-28T13:44:12.993Z</time></trkpt><trkpt lat="44.8091184441601" lon="11.87429670324594"><ele>2.0</ele><time>2026-03-28T13:44:13.993Z</time></trkpt><trkpt lat="44.80903167930226" lon="11.874214472295117"><ele>2.0</ele><time>2026-03-28T13:44:14.993Z</time></trkpt><trkpt lat="44.80894325859838" lon="11.874141797131355"><ele>2.0</ele><time>2026-03-28T13:44:15.993Z</time></trkpt><trkpt lat="44.8088479014834" lon="11.874079754884404"><ele>2.0</ele><time>2026-03-28T13:44:16.993Z</time></trkpt><trkpt lat="44.80875536956891" lon="11.874013941489435"><ele>2.0</ele><time>2026-03-28T13:44:17.993Z</time></trkpt><trkpt lat="44.808659697910294" lon="11.873961303545187"><ele>2.0</ele><time>2026-03-28T13:44:18.993Z</time></trkpt><trkpt lat="44.80855624598277" lon="11.873919551731968"><ele>2.0</ele><time>2026-03-28T13:44:19.993Z</time></trkpt><trkpt lat="44.80846118515287" lon="11.87387721135165"><ele>2.0</ele><time>2026-03-28T13:44:20.992Z</time></trkpt><trkpt lat="44.8083637924675" lon="11.873858673734402"><ele>2.0</ele><time>2026-03-28T13:44:21.992Z</time></trkpt><trkpt lat="44.80827603617512" lon="11.873848143886494"><ele>2.0</ele><time>2026-03-28T13:44:22.992Z</time></trkpt><trkpt lat="44.80819389936319" lon="11.873801258441848"><ele>2.0</ele><time>2026-03-28T13:44:23.992Z</time></trkpt><trkpt lat="44.80810332486102" lon="11.873796569495154"><ele>2.0</ele><time>2026-03-28T13:44:24.992Z</time></trkpt><trkpt lat="44.80801111995832" lon="11.873802348144164"><ele>2.0</ele><time>2026-03-28T13:44:25.992Z</time></trkpt><trkpt lat="44.80791995516352" lon="11.873831000366902"><ele>2.0</ele><time>2026-03-28T13:44:26.992Z</time></trkpt><trkpt lat="44.80784047488554" lon="11.873873482720327"><ele>1.9999999999999998</ele><time>2026-03-28T13:44:27.992Z</time></trkpt><trkpt lat="44.80776665163068" lon="11.87393073416106"><ele>2.0</ele><time>2026-03-28T13:44:28.992Z</time></trkpt><trkpt lat="44.80770185356314" lon="11.874010997987659"><ele>2.0</ele><time>2026-03-28T13:44:29.992Z</time></trkpt><trkpt lat="44.80765172837293" lon="11.874098352918796"><ele>2.0</ele><time>2026-03-28T13:44:30.992Z</time></trkpt><trkpt lat="44.80760536271327" lon="11.874196591060514"><ele>1.9999999999999998</ele><time>2026-03-28T13:44:31.992Z</time></trkpt><trkpt lat="44.807571293358535" lon="11.874294174887101"><ele>2.0</ele><time>2026-03-28T13:44:32.992Z</time></trkpt><trkpt lat="44.80754045453784" lon="11.874386266999831"><ele>2.333333333333333</ele><time>2026-03-28T13:44:33.992Z</time></trkpt><trkpt lat="44.8074964824948" lon="11.8744652153558"><ele>2.6666666666666665</ele><time>2026-03-28T13:44:34.992Z</time></trkpt><trkpt lat="44.80744140322169" lon="11.874532309802241"><ele>3.0</ele><time>2026-03-28T13:44:35.992Z</time></trkpt><trkpt lat="44.807376881405936" lon="11.87459965743142"><ele>3.333333333333333</ele><time>2026-03-28T13:44:36.992Z</time></trkpt><trkpt lat="44.807306049318846" lon="11.87469444788141"><ele>3.6666666666666665</ele><time>2026-03-28T13:44:37.992Z</time></trkpt><trkpt lat="44.80723425199706" lon="11.874803449804366"><ele>4.0</ele><time>2026-03-28T13:44:38.992Z</time></trkpt><trkpt lat="44.80717243593855" lon="11.874928989146069"><ele>4.0</ele><time>2026-03-28T13:44:39.992Z</time></trkpt><trkpt lat="44.807115326755316" lon="11.875052957495233"><ele>4.0</ele><time>2026-03-28T13:44:40.992Z</time></trkpt><trkpt lat="44.807061856343545" lon="11.875175924445156"><ele>4.0</ele><time>2026-03-28T13:44:41.992Z</time></trkpt><trkpt lat="44.80700853494321" lon="11.875311194744395"><ele>4.0</ele><time>2026-03-28T13:44:42.992Z</time></trkpt><trkpt lat="44.80696782479553" lon="11.875450878633545"><ele>4.0</ele><time>2026-03-28T13:44:43.992Z</time></trkpt><trkpt lat="44.8069464514662" lon="11.875615310729211"><ele>3.5</ele><time>2026-03-28T13:44:44.992Z</time></trkpt><trkpt lat="44.8069742460911" lon="11.875791967392173"><ele>3.0</ele><time>2026-03-28T13:44:45.992Z</time></trkpt><trkpt lat="44.8070303497587" lon="11.875977333169667"><ele>2.5</ele><time>2026-03-28T13:44:46.992Z</time></trkpt><trkpt lat="44.80708973089893" lon="11.876183663509545"><ele>2.0</ele><time>2026-03-28T13:44:47.992Z</time></trkpt><trkpt lat="44.807141407798476" lon="11.876404693956964"><ele>2.0</ele><time>2026-03-28T13:44:48.992Z</time></trkpt><trkpt lat="44.8071682312496" lon="11.876660951420137"><ele>2.0</ele><time>2026-03-28T13:44:49.992Z</time></trkpt><trkpt lat="44.8071852752294" lon="11.876914735237506"><ele>2.0</ele><time>2026-03-28T13:44:50.992Z</time></trkpt><trkpt lat="44.80718548877666" lon="11.877184930122796"><ele>2.0</ele><time>2026-03-28T13:44:51.992Z</time></trkpt><trkpt lat="44.80718290371235" lon="11.877473864779173"><ele>2.0</ele><time>2026-03-28T13:44:52.992Z</time></trkpt><trkpt lat="44.80718087141129" lon="11.87776714675971"><ele>2.0</ele><time>2026-03-28T13:44:53.992Z</time></trkpt><trkpt lat="44.80717657278291" lon="11.878063016800457"><ele>1.6666666666666665</ele><time>2026-03-28T13:44:54.992Z</time></trkpt><trkpt lat="44.807172854176045" lon="11.878344691564584"><ele>1.3333333333333333</ele><time>2026-03-28T13:44:55.992Z</time></trkpt><trkpt lat="44.80717058309839" lon="11.878617779112078"><ele>1.0</ele><time>2026-03-28T13:44:56.992Z</time></trkpt><trkpt lat="44.80718246065993" lon="11.878884144414416"><ele>1.0</ele><time>2026-03-28T13:44:57.992Z</time></trkpt><trkpt lat="44.80715611106965" lon="11.879152764801292"><ele>1.0</ele><time>2026-03-28T13:44:58.992Z</time></trkpt><trkpt lat="44.807143007744806" lon="11.879432498294976"><ele>1.0</ele><time>2026-03-28T13:44:59.992Z</time></trkpt><trkpt lat="44.8071151219271" lon="11.879727111505384"><ele>1.0</ele><time>2026-03-28T13:45:00.992Z</time></trkpt><trkpt lat="44.80706753105098" lon="11.880038950901014"><ele>1.0</ele><time>2026-03-28T13:45:01.992Z</time></trkpt><trkpt lat="44.807001325511315" lon="11.880358771112453"><ele>1.5</ele><time>2026-03-28T13:45:02.992Z</time></trkpt><trkpt lat="44.80693680953769" lon="11.880674669280557"><ele>2.0</ele><time>2026-03-28T13:45:03.992Z</time></trkpt><trkpt lat="44.80686837203963" lon="11.880975696018673"><ele>1.6666666666666665</ele><time>2026-03-28T13:45:04.992Z</time></trkpt><trkpt lat="44.806804664389986" lon="11.88125235680225"><ele>1.3333333333333333</ele><time>2026-03-28T13:45:05.992Z</time></trkpt><trkpt lat="44.80675239663865" lon="11.881512869227622"><ele>1.0</ele><time>2026-03-28T13:45:06.992Z</time></trkpt><trkpt lat="44.80669895759559" lon="11.881765908587338"><ele>1.0</ele><time>2026-03-28T13:45:07.992Z</time></trkpt><trkpt lat="44.80664707869532" lon="11.882022629328013"><ele>1.0</ele><time>2026-03-28T13:45:08.992Z</time></trkpt><trkpt lat="44.80659761601885" lon="11.882284524572471"><ele>1.0</ele><time>2026-03-28T13:45:09.992Z</time></trkpt><trkpt lat="44.80654266421372" lon="11.882547729535428"><ele>0.6666666666666666</ele><time>2026-03-28T13:45:10.992Z</time></trkpt><trkpt lat="44.806490442849594" lon="11.882802213020035"><ele>0.3333333333333333</ele><time>2026-03-28T13:45:11.992Z</time></trkpt><trkpt lat="44.80643646526338" lon="11.883048657993967"><ele>0.0</ele><time>2026-03-28T13:45:12.992Z</time></trkpt><trkpt lat="44.806380627715235" lon="11.883300877738105"><ele>0.0</ele><time>2026-03-28T13:45:13.992Z</time></trkpt><trkpt lat="44.80630311152437" lon="11.883558318305743"><ele>0.0</ele><time>2026-03-28T13:45:14.992Z</time></trkpt><trkpt lat="44.806178719555504" lon="11.883798708672455"><ele>0.0</ele><time>2026-03-28T13:45:15.992Z</time></trkpt><trkpt lat="44.80605486675076" lon="11.884055681448821"><ele>0.0</ele><time>2026-03-28T13:45:16.992Z</time></trkpt><trkpt lat="44.805929637697695" lon="11.88429711717524"><ele>0.0</ele><time>2026-03-28T13:45:17.992Z</time></trkpt><trkpt lat="44.80580483761085" lon="11.884518526554887"><ele>0.0</ele><time>2026-03-28T13:45:18.992Z</time></trkpt><trkpt lat="44.805682358660135" lon="11.884713608475149"><ele>0.0</ele><time>2026-03-28T13:45:19.992Z</time></trkpt><trkpt lat="44.80555346280394" lon="11.884904435284344"><ele>0.0</ele><time>2026-03-28T13:45:20.992Z</time></trkpt><trkpt lat="44.80542153403166" lon="11.885094604943282"><ele>0.0</ele><time>2026-03-28T13:45:21.992Z</time></trkpt><trkpt lat="44.80528607433028" lon="11.8852765573936"><ele>0.3333333333333333</ele><time>2026-03-28T13:45:22.992Z</time></trkpt><trkpt lat="44.805156359281526" lon="11.885453805658452"><ele>0.6666666666666666</ele><time>2026-03-28T13:45:23.992Z</time></trkpt><trkpt lat="44.80505369584701" lon="11.88566088515552"><ele>1.0</ele><time>2026-03-28T13:45:24.992Z</time></trkpt><trkpt lat="44.80496976956153" lon="11.885901918692209"><ele>0.3333333333333333</ele><time>2026-03-28T13:45:25.992Z</time></trkpt><trkpt lat="44.80488260709926" lon="11.886164138568638"><ele>-0.3333333333333333</ele><time>2026-03-28T13:45:26.992Z</time></trkpt><trkpt lat="44.80475016872718" lon="11.886410048841828"><ele>-1.0</ele><time>2026-03-28T13:45:27.992Z</time></trkpt><trkpt lat="44.804633322256905" lon="11.886681566555644"><ele>-1.0</ele><time>2026-03-28T13:45:28.992Z</time></trkpt><trkpt lat="44.804546970715" lon="11.88697560741765"><ele>-1.0</ele><time>2026-03-28T13:45:29.992Z</time></trkpt><trkpt lat="44.80445993539464" lon="11.88724673419475"><ele>-1.0</ele><time>2026-03-28T13:45:30.992Z</time></trkpt><trkpt lat="44.80438322773189" lon="11.887516968401211"><ele>0.33333333333333337</ele><time>2026-03-28T13:45:31.992Z</time></trkpt><trkpt lat="44.80431166158998" lon="11.887784081281769"><ele>1.6666666666666667</ele><time>2026-03-28T13:45:32.992Z</time></trkpt><trkpt lat="44.804238507078416" lon="11.888056770321683"><ele>3.0</ele><time>2026-03-28T13:45:33.992Z</time></trkpt><trkpt lat="44.80417756358851" lon="11.888317109066126"><ele>2.6666666666666665</ele><time>2026-03-28T13:45:34.992Z</time></trkpt><trkpt lat="44.804130190791554" lon="11.888554450725882"><ele>2.333333333333333</ele><time>2026-03-28T13:45:35.992Z</time></trkpt><trkpt lat="44.80408388469944" lon="11.888776764962497"><ele>2.0</ele><time>2026-03-28T13:45:36.992Z</time></trkpt><trkpt lat="44.804007274354234" lon="11.888979493961253"><ele>2.0</ele><time>2026-03-28T13:45:37.992Z</time></trkpt><trkpt lat="44.803957743501414" lon="11.889186992276269"><ele>2.0</ele><time>2026-03-28T13:45:38.992Z</time></trkpt><trkpt lat="44.80390380926517" lon="11.889395048754523"><ele>2.0</ele><time>2026-03-28T13:45:39.992Z</time></trkpt><trkpt lat="44.80384465441125" lon="11.889598061398784"><ele>1.6666666666666665</ele><time>2026-03-28T13:45:40.992Z</time></trkpt><trkpt lat="44.80378271038997" lon="11.889792312889897"><ele>1.3333333333333333</ele><time>2026-03-28T13:45:41.992Z</time></trkpt><trkpt lat="44.80371003258766" lon="11.889979586232338"><ele>1.0</ele><time>2026-03-28T13:45:42.992Z</time></trkpt><trkpt lat="44.80363208855086" lon="11.890155960053544"><ele>1.0</ele><time>2026-03-28T13:45:43.992Z</time></trkpt><trkpt lat="44.80355618995822" lon="11.890332497573656"><ele>1.0</ele><time>2026-03-28T13:45:44.992Z</time></trkpt><trkpt lat="44.80347456049363" lon="11.890503065129215"><ele>1.0</ele><time>2026-03-28T13:45:45.992Z</time></trkpt><trkpt lat="44.80338194697497" lon="11.890672882308301"><ele>1.0</ele><time>2026-03-28T13:45:46.992Z</time></trkpt><trkpt lat="44.80325819151035" lon="11.89085345063668"><ele>0.6666666666666666</ele><time>2026-03-28T13:45:47.992Z</time></trkpt><trkpt lat="44.80311072027858" lon="11.891048186636269"><ele>0.3333333333333333</ele><time>2026-03-28T13:45:48.992Z</time></trkpt><trkpt lat="44.80294047317701" lon="11.891259080726828"><ele>0.0</ele><time>2026-03-28T13:45:49.992Z</time></trkpt><trkpt lat="44.8027566712959" lon="11.891483832430668"><ele>0.0</ele><time>2026-03-28T13:45:50.992Z</time></trkpt><trkpt lat="44.80257701413348" lon="11.891722454371845"><ele>0.0</ele><time>2026-03-28T13:45:51.992Z</time></trkpt><trkpt lat="44.80237939038831" lon="11.891962032042567"><ele>-0.5</ele><time>2026-03-28T13:45:52.992Z</time></trkpt><trkpt lat="44.802185642965334" lon="11.892223177878336"><ele>-1.0</ele><time>2026-03-28T13:45:53.992Z</time></trkpt><trkpt lat="44.80200056678724" lon="11.892501562356136"><ele>-0.5</ele><time>2026-03-28T13:45:54.992Z</time></trkpt><trkpt lat="44.801811250106105" lon="11.892764154724475"><ele>0.0</ele><time>2026-03-28T13:45:55.992Z</time></trkpt><trkpt lat="44.80164419120102" lon="11.893003364357417"><ele>0.0</ele><time>2026-03-28T13:45:56.992Z</time></trkpt><trkpt lat="44.80149693108573" lon="11.89321522554527"><ele>0.0</ele><time>2026-03-28T13:45:57.992Z</time></trkpt><trkpt lat="44.80136651268674" lon="11.893406737733294"><ele>0.0</ele><time>2026-03-28T13:45:58.992Z</time></trkpt><trkpt lat="44.80123216216382" lon="11.893547068500089"><ele>0.0</ele><time>2026-03-28T13:45:59.992Z</time></trkpt><trkpt lat="44.801146946476926" lon="11.893679238249437"><ele>0.0</ele><time>2026-03-28T13:46:00.992Z</time></trkpt><trkpt lat="44.801080660027516" lon="11.893786496093428"><ele>0.0</ele><time>2026-03-28T13:46:01.992Z</time></trkpt><trkpt lat="44.80102133374021" lon="11.893858216484118"><ele>0.0</ele><time>2026-03-28T13:46:02.992Z</time></trkpt><trkpt lat="44.80093678924475" lon="11.89386731243482"><ele>0.0</ele><time>2026-03-28T13:46:03.992Z</time></trkpt><trkpt lat="44.80083167115449" lon="11.893738476916507"><ele>0.3333333333333333</ele><time>2026-03-28T13:46:05.992Z</time></trkpt><trkpt lat="44.800753247500595" lon="11.893597758666932"><ele>0.6666666666666666</ele><time>2026-03-28T13:46:06.992Z</time></trkpt><trkpt lat="44.80064762691557" lon="11.893417404799843"><ele>1.0</ele><time>2026-03-28T13:46:07.992Z</time></trkpt><trkpt lat="44.80052347240532" lon="11.893216278482521"><ele>1.0</ele><time>2026-03-28T13:46:08.992Z</time></trkpt><trkpt lat="44.80039924518416" lon="11.893012666558565"><ele>1.0</ele><time>2026-03-28T13:46:09.992Z</time></trkpt><trkpt lat="44.800269591511785" lon="11.89279513073132"><ele>1.0</ele><time>2026-03-28T13:46:10.992Z</time></trkpt><trkpt lat="44.800139638862426" lon="11.892577093287995"><ele>1.0</ele><time>2026-03-28T13:46:11.992Z</time></trkpt><trkpt lat="44.80000386858476" lon="11.892349294883722"><ele>1.0</ele><time>2026-03-28T13:46:12.992Z</time></trkpt><trkpt lat="44.79987153936355" lon="11.892127269972008"><ele>1.0</ele><time>2026-03-28T13:46:13.992Z</time></trkpt><trkpt lat="44.7997410052716" lon="11.891908256959203"><ele>0.6666666666666666</ele><time>2026-03-28T13:46:14.992Z</time></trkpt><trkpt lat="44.7996101771859" lon="11.891688750691399"><ele>0.3333333333333333</ele><time>2026-03-28T13:46:15.992Z</time></trkpt><trkpt lat="44.79948498752109" lon="11.891478704673718"><ele>0.0</ele><time>2026-03-28T13:46:16.992Z</time></trkpt><trkpt lat="44.79936571397017" lon="11.891279375563965"><ele>0.3333333333333333</ele><time>2026-03-28T13:46:17.992Z</time></trkpt><trkpt lat="44.79923969778784" lon="11.891090468492685"><ele>0.6666666666666666</ele><time>2026-03-28T13:46:18.992Z</time></trkpt><trkpt lat="44.79909298494042" lon="11.890952211911362"><ele>1.0</ele><time>2026-03-28T13:46:19.992Z</time></trkpt><trkpt lat="44.79893937618555" lon="11.890856422310293"><ele>1.3333333333333333</ele><time>2026-03-28T13:46:20.992Z</time></trkpt><trkpt lat="44.798770642969416" lon="11.890768226772853"><ele>1.6666666666666665</ele><time>2026-03-28T13:46:21.992Z</time></trkpt><trkpt lat="44.7985923069318" lon="11.890677153117407"><ele>2.0</ele><time>2026-03-28T13:46:22.992Z</time></trkpt><trkpt lat="44.798408288034075" lon="11.890582725215932"><ele>2.0</ele><time>2026-03-28T13:46:23.992Z</time></trkpt><trkpt lat="44.79822148936931" lon="11.89047828436276"><ele>2.0</ele><time>2026-03-28T13:46:24.992Z</time></trkpt><trkpt lat="44.79804055584972" lon="11.890364191907334"><ele>2.0</ele><time>2026-03-28T13:46:25.992Z</time></trkpt><trkpt lat="44.797872140829526" lon="11.890250244356862"><ele>2.0</ele><time>2026-03-28T13:46:27.005Z</time></trkpt><trkpt lat="44.797711623499644" lon="11.89015700652484"><ele>2.0</ele><time>2026-03-28T13:46:28.005Z</time></trkpt><trkpt lat="44.797571294173295" lon="11.890048837238332"><ele>2.0</ele><time>2026-03-28T13:46:29.005Z</time></trkpt><trkpt lat="44.797442681586844" lon="11.88994623112282"><ele>2.4000000000000004</ele><time>2026-03-28T13:46:30.005Z</time></trkpt><trkpt lat="44.797326028479894" lon="11.889849660535834"><ele>2.8000000000000003</ele><time>2026-03-28T13:46:31.005Z</time></trkpt><trkpt lat="44.7972261196606" lon="11.889777002520237"><ele>3.2</ele><time>2026-03-28T13:46:32.005Z</time></trkpt><trkpt lat="44.797142126779306" lon="11.8897020028807"><ele>3.6</ele><time>2026-03-28T13:46:33.005Z</time></trkpt><trkpt lat="44.79705608252369" lon="11.889678870782152"><ele>4.0</ele><time>2026-03-28T13:46:34.005Z</time></trkpt><trkpt lat="44.796987257967" lon="11.889727665599208"><ele>4.0</ele><time>2026-03-28T13:46:35.005Z</time></trkpt><trkpt lat="44.79690629196424" lon="11.889800688261248"><ele>4.0</ele><time>2026-03-28T13:46:36.005Z</time></trkpt><trkpt lat="44.79680840654207" lon="11.889916657976174"><ele>4.0</ele><time>2026-03-28T13:46:37.005Z</time></trkpt><trkpt lat="44.79669905858605" lon="11.89004861972811"><ele>4.0</ele><time>2026-03-28T13:46:38.005Z</time></trkpt><trkpt lat="44.79658365165846" lon="11.890213924931505"><ele>3.0</ele><time>2026-03-28T13:46:39.005Z</time></trkpt><trkpt lat="44.79646701796174" lon="11.890423558384144"><ele>2.0</ele><time>2026-03-28T13:46:40.005Z</time></trkpt><trkpt lat="44.79634697524146" lon="11.890660868651098"><ele>1.0</ele><time>2026-03-28T13:46:41.005Z</time></trkpt><trkpt lat="44.79622283553227" lon="11.890901979382015"><ele>0.6666666666666666</ele><time>2026-03-28T13:46:42.005Z</time></trkpt><trkpt lat="44.79609883978906" lon="11.891145111642642"><ele>0.3333333333333333</ele><time>2026-03-28T13:46:43.005Z</time></trkpt><trkpt lat="44.79596728853054" lon="11.891394368514971"><ele>0.0</ele><time>2026-03-28T13:46:44.005Z</time></trkpt><trkpt lat="44.795835863846335" lon="11.891630319335745"><ele>0.3333333333333333</ele><time>2026-03-28T13:46:45.005Z</time></trkpt><trkpt lat="44.79571277808373" lon="11.891845993380693"><ele>0.6666666666666666</ele><time>2026-03-28T13:46:46.005Z</time></trkpt><trkpt lat="44.79556957682781" lon="11.89204710667439"><ele>1.0</ele><time>2026-03-28T13:46:47.005Z</time></trkpt><trkpt lat="44.79545461739555" lon="11.89224353051119"><ele>1.0</ele><time>2026-03-28T13:46:48.005Z</time></trkpt><trkpt lat="44.79533316909984" lon="11.892448967734769"><ele>1.0</ele><time>2026-03-28T13:46:49.005Z</time></trkpt><trkpt lat="44.79520116074372" lon="11.892675843360603"><ele>1.0</ele><time>2026-03-28T13:46:50.005Z</time></trkpt><trkpt lat="44.795058943583086" lon="11.892915742449432"><ele>1.0</ele><time>2026-03-28T13:46:51.005Z</time></trkpt><trkpt lat="44.79491371312284" lon="11.89317780402437"><ele>1.0</ele><time>2026-03-28T13:46:52.004Z</time></trkpt><trkpt lat="44.794763645885546" lon="11.893454508809272"><ele>1.0</ele><time>2026-03-28T13:46:53.004Z</time></trkpt><trkpt lat="44.79461501847448" lon="11.89375081974715"><ele>1.0</ele><time>2026-03-28T13:46:54.004Z</time></trkpt><trkpt lat="44.79447456043667" lon="11.89406095428566"><ele>1.0</ele><time>2026-03-28T13:46:55.004Z</time></trkpt><trkpt lat="44.79433740543055" lon="11.894375239774986"><ele>1.0</ele><time>2026-03-28T13:46:56.004Z</time></trkpt><trkpt lat="44.79420571852776" lon="11.894691860514325"><ele>1.0</ele><time>2026-03-28T13:46:57.004Z</time></trkpt><trkpt lat="44.794071774305294" lon="11.89501549501928"><ele>1.0</ele><time>2026-03-28T13:46:58.004Z</time></trkpt><trkpt lat="44.79393302034027" lon="11.895335955374348"><ele>0.0</ele><time>2026-03-28T13:46:59.004Z</time></trkpt><trkpt lat="44.79379209568867" lon="11.895654161867073"><ele>-1.0</ele><time>2026-03-28T13:47:00.004Z</time></trkpt><trkpt lat="44.79365216739478" lon="11.895968715845829"><ele>-0.5</ele><time>2026-03-28T13:47:01.004Z</time></trkpt><trkpt lat="44.793501091863476" lon="11.896283645255895"><ele>0.0</ele><time>2026-03-28T13:47:02.004Z</time></trkpt><trkpt lat="44.79335518527424" lon="11.89659045121882"><ele>0.0</ele><time>2026-03-28T13:47:03.004Z</time></trkpt><trkpt lat="44.793194303482366" lon="11.896878921565591"><ele>0.0</ele><time>2026-03-28T13:47:04.004Z</time></trkpt><trkpt lat="44.79305112075552" lon="11.897174911835892"><ele>0.0</ele><time>2026-03-28T13:47:05.004Z</time></trkpt><trkpt lat="44.79291538506711" lon="11.897454481231632"><ele>0.0</ele><time>2026-03-28T13:47:06.004Z</time></trkpt><trkpt lat="44.792779328398154" lon="11.897729112262427"><ele>0.5</ele><time>2026-03-28T13:47:07.004Z</time></trkpt><trkpt lat="44.792641401128904" lon="11.897986319702271"><ele>1.0</ele><time>2026-03-28T13:47:08.004Z</time></trkpt><trkpt lat="44.79249501958612" lon="11.898234223327917"><ele>0.0</ele><time>2026-03-28T13:47:09.004Z</time></trkpt><trkpt lat="44.79232607136492" lon="11.898477030956558"><ele>-1.0</ele><time>2026-03-28T13:47:10.004Z</time></trkpt><trkpt lat="44.79216422881413" lon="11.898710095952506"><ele>-1.0</ele><time>2026-03-28T13:47:11.004Z</time></trkpt><trkpt lat="44.7919850019014" lon="11.89892522014232"><ele>-1.0</ele><time>2026-03-28T13:47:12.004Z</time></trkpt><trkpt lat="44.79178666173274" lon="11.899112449516185"><ele>-1.5</ele><time>2026-03-28T13:47:13.005Z</time></trkpt><trkpt lat="44.791569240254056" lon="11.899288206582142"><ele>-2.0</ele><time>2026-03-28T13:47:14.006Z</time></trkpt><trkpt lat="44.79134424670116" lon="11.899466609741328"><ele>-2.0</ele><time>2026-03-28T13:47:15.006Z</time></trkpt><trkpt lat="44.79112021236618" lon="11.899650444951678"><ele>-2.0</ele><time>2026-03-28T13:47:16.006Z</time></trkpt><trkpt lat="44.79090026292785" lon="11.899832935004328"><ele>-1.5</ele><time>2026-03-28T13:47:17.005Z</time></trkpt><trkpt lat="44.79068775819857" lon="11.90001049045308"><ele>-1.0</ele><time>2026-03-28T13:47:18.005Z</time></trkpt><trkpt lat="44.79048549993751" lon="11.900187849923485"><ele>-0.5</ele><time>2026-03-28T13:47:19.005Z</time></trkpt><trkpt lat="44.79029972415838" lon="11.900382336972005"><ele>0.0</ele><time>2026-03-28T13:47:20.006Z</time></trkpt><trkpt lat="44.79013015119655" lon="11.900595789040723"><ele>0.0</ele><time>2026-03-28T13:47:21.006Z</time></trkpt><trkpt lat="44.78997556162055" lon="11.900838624206267"><ele>0.0</ele><time>2026-03-28T13:47:22.006Z</time></trkpt><trkpt lat="44.78981627624554" lon="11.901120243325828"><ele>0.0</ele><time>2026-03-28T13:47:23.006Z</time></trkpt><trkpt lat="44.78965737949193" lon="11.901415510503336"><ele>0.0</ele><time>2026-03-28T13:47:24.006Z</time></trkpt><trkpt lat="44.78949299695821" lon="11.901723344280292"><ele>-0.5</ele><time>2026-03-28T13:47:25.005Z</time></trkpt><trkpt lat="44.78933311086406" lon="11.902038947900813"><ele>-1.0</ele><time>2026-03-28T13:47:26.006Z</time></trkpt><trkpt lat="44.789167273732126" lon="11.90234825117533"><ele>-0.5</ele><time>2026-03-28T13:47:27.006Z</time></trkpt><trkpt lat="44.789013970376345" lon="11.902660017307195"><ele>0.0</ele><time>2026-03-28T13:47:28.006Z</time></trkpt><trkpt lat="44.788866638829994" lon="11.902970669462599"><ele>0.0</ele><time>2026-03-28T13:47:29.006Z</time></trkpt><trkpt lat="44.788738431945795" lon="11.903290828788707"><ele>0.0</ele><time>2026-03-28T13:47:30.006Z</time></trkpt><trkpt lat="44.788617611467316" lon="11.9036219435295"><ele>0.0</ele><time>2026-03-28T13:47:31.006Z</time></trkpt><trkpt lat="44.78848759833126" lon="11.903947020705907"><ele>0.0</ele><time>2026-03-28T13:47:32.006Z</time></trkpt><trkpt lat="44.78833326905121" lon="11.904269246919535"><ele>0.0</ele><time>2026-03-28T13:47:33.006Z</time></trkpt><trkpt lat="44.788160513346355" lon="11.904584195445867"><ele>0.0</ele><time>2026-03-28T13:47:34.006Z</time></trkpt><trkpt lat="44.78798673378612" lon="11.904904509342357"><ele>0.0</ele><time>2026-03-28T13:47:35.006Z</time></trkpt><trkpt lat="44.78781024325438" lon="11.905217736280678"><ele>0.0</ele><time>2026-03-28T13:47:36.006Z</time></trkpt><trkpt lat="44.78762827870596" lon="11.905554467429338"><ele>0.0</ele><time>2026-03-28T13:47:37.006Z</time></trkpt><trkpt lat="44.78744330614409" lon="11.905900052800604"><ele>0.0</ele><time>2026-03-28T13:47:38.006Z</time></trkpt><trkpt lat="44.78725799808011" lon="11.90624767808428"><ele>0.0</ele><time>2026-03-28T13:47:39.006Z</time></trkpt><trkpt lat="44.78706941584738" lon="11.906593436362199"><ele>0.0</ele><time>2026-03-28T13:47:40.006Z</time></trkpt><trkpt lat="44.78687424403874" lon="11.906940957890564"><ele>-0.5</ele><time>2026-03-28T13:47:41.006Z</time></trkpt><trkpt lat="44.78667943406898" lon="11.907289103314405"><ele>-1.0</ele><time>2026-03-28T13:47:42.006Z</time></trkpt><trkpt lat="44.786483815369486" lon="11.90764049209183"><ele>-1.0</ele><time>2026-03-28T13:47:43.006Z</time></trkpt><trkpt lat="44.786289455138636" lon="11.907988532442033"><ele>-1.0</ele><time>2026-03-28T13:47:44.006Z</time></trkpt><trkpt lat="44.78609742472845" lon="11.908332442154341"><ele>-1.0</ele><time>2026-03-28T13:47:45.006Z</time></trkpt><trkpt lat="44.78590637772739" lon="11.908679504387036"><ele>-1.0</ele><time>2026-03-28T13:47:46.006Z</time></trkpt><trkpt lat="44.78572351405249" lon="11.909024465019574"><ele>-1.5</ele><time>2026-03-28T13:47:47.006Z</time></trkpt><trkpt lat="44.785544328619636" lon="11.909364255976593"><ele>-2.0</ele><time>2026-03-28T13:47:48.006Z</time></trkpt><trkpt lat="44.78537171901989" lon="11.909696940712639"><ele>-2.0</ele><time>2026-03-28T13:47:49.006Z</time></trkpt><trkpt lat="44.78519919088763" lon="11.910011595069658"><ele>-2.0</ele><time>2026-03-28T13:47:50.006Z</time></trkpt><trkpt lat="44.78503107452036" lon="11.910323274671404"><ele>-2.5</ele><time>2026-03-28T13:47:51.006Z</time></trkpt><trkpt lat="44.784870467859285" lon="11.910629114310769"><ele>-3.0</ele><time>2026-03-28T13:47:52.006Z</time></trkpt><trkpt lat="44.78470975957672" lon="11.910934786965976"><ele>-3.0</ele><time>2026-03-28T13:47:53.006Z</time></trkpt><trkpt lat="44.78455513521039" lon="11.911243512054112"><ele>-3.0</ele><time>2026-03-28T13:47:54.006Z</time></trkpt><trkpt lat="44.78438880670975" lon="11.911521181388487"><ele>-2.0</ele><time>2026-03-28T13:47:55.006Z</time></trkpt><trkpt lat="44.78425528145259" lon="11.911809497699377"><ele>-1.0</ele><time>2026-03-28T13:47:56.005Z</time></trkpt><trkpt lat="44.78409880418439" lon="11.91206486362216"><ele>-1.0</ele><time>2026-03-28T13:47:57.005Z</time></trkpt><trkpt lat="44.783964274025465" lon="11.912310293297647"><ele>-1.0</ele><time>2026-03-28T13:47:58.005Z</time></trkpt><trkpt lat="44.78382664434956" lon="11.912551045501663"><ele>-1.0</ele><time>2026-03-28T13:47:59.005Z</time></trkpt><trkpt lat="44.78368293000189" lon="11.91278436048069"><ele>-1.0</ele><time>2026-03-28T13:48:00.005Z</time></trkpt><trkpt lat="44.783531887381834" lon="11.91301216928081"><ele>-1.0</ele><time>2026-03-28T13:48:01.005Z</time></trkpt><trkpt lat="44.78337413842531" lon="11.913249912161891"><ele>-0.5</ele><time>2026-03-28T13:48:02.005Z</time></trkpt><trkpt lat="44.783210006637425" lon="11.913497274354231"><ele>0.0</ele><time>2026-03-28T13:48:03.005Z</time></trkpt><trkpt lat="44.78303480099918" lon="11.913761326142435"><ele>0.0</ele><time>2026-03-28T13:48:04.005Z</time></trkpt><trkpt lat="44.78284770892166" lon="11.914043915754966"><ele>0.0</ele><time>2026-03-28T13:48:05.005Z</time></trkpt><trkpt lat="44.78265717963236" lon="11.914330660172693"><ele>0.0</ele><time>2026-03-28T13:48:06.005Z</time></trkpt><trkpt lat="44.78246779889858" lon="11.91461769340109"><ele>0.0</ele><time>2026-03-28T13:48:07.005Z</time></trkpt><trkpt lat="44.782282295937776" lon="11.914910678182768"><ele>-1.0</ele><time>2026-03-28T13:48:08.005Z</time></trkpt><trkpt lat="44.78211681930186" lon="11.915237192210359"><ele>-2.0</ele><time>2026-03-28T13:48:09.005Z</time></trkpt><trkpt lat="44.78194994182715" lon="11.915572539025131"><ele>-2.0</ele><time>2026-03-28T13:48:10.005Z</time></trkpt><trkpt lat="44.781789853099916" lon="11.915917861718768"><ele>-2.0</ele><time>2026-03-28T13:48:11.005Z</time></trkpt><trkpt lat="44.78162870135071" lon="11.916274778068328"><ele>-2.0</ele><time>2026-03-28T13:48:12.005Z</time></trkpt><trkpt lat="44.7814707224916" lon="11.916627491757444"><ele>-2.0</ele><time>2026-03-28T13:48:13.005Z</time></trkpt><trkpt lat="44.781305802502175" lon="11.916975940677398"><ele>-2.0</ele><time>2026-03-28T13:48:14.005Z</time></trkpt><trkpt lat="44.78115006170891" lon="11.91731712375222"><ele>-2.0</ele><time>2026-03-28T13:48:15.005Z</time></trkpt><trkpt lat="44.78100475090812" lon="11.917640303312329"><ele>-1.0</ele><time>2026-03-28T13:48:16.005Z</time></trkpt><trkpt lat="44.780859930882805" lon="11.917965405711922"><ele>0.0</ele><time>2026-03-28T13:48:17.005Z</time></trkpt><trkpt lat="44.78073047727118" lon="11.918302269118477"><ele>-1.0</ele><time>2026-03-28T13:48:18.005Z</time></trkpt><trkpt lat="44.78061532017144" lon="11.918655744683546"><ele>-2.0</ele><time>2026-03-28T13:48:19.005Z</time></trkpt><trkpt lat="44.78051301560062" lon="11.918994154473037"><ele>-1.5</ele><time>2026-03-28T13:48:20.005Z</time></trkpt><trkpt lat="44.780408214625034" lon="11.919302376998107"><ele>-1.0</ele><time>2026-03-28T13:48:21.005Z</time></trkpt><trkpt lat="44.78031653449293" lon="11.919598360799103"><ele>-1.0</ele><time>2026-03-28T13:48:22.005Z</time></trkpt><trkpt lat="44.78023965501569" lon="11.919879882896163"><ele>-1.0</ele><time>2026-03-28T13:48:23.005Z</time></trkpt><trkpt lat="44.78017989855635" lon="11.920175257151088"><ele>-1.0</ele><time>2026-03-28T13:48:24.005Z</time></trkpt><trkpt lat="44.78014283520234" lon="11.92047614666485"><ele>-1.0</ele><time>2026-03-28T13:48:25.005Z</time></trkpt><trkpt lat="44.78012258360765" lon="11.920768412955319"><ele>-1.0</ele><time>2026-03-28T13:48:26.005Z</time></trkpt><trkpt lat="44.78012018278642" lon="11.921052376412211"><ele>-1.0</ele><time>2026-03-28T13:48:27.005Z</time></trkpt><trkpt lat="44.780136239789634" lon="11.921323892665662"><ele>-0.6666666666666666</ele><time>2026-03-28T13:48:28.005Z</time></trkpt><trkpt lat="44.780176815137196" lon="11.921592562393023"><ele>-0.3333333333333333</ele><time>2026-03-28T13:48:29.005Z</time></trkpt><trkpt lat="44.78025335940104" lon="11.921862670953999"><ele>0.0</ele><time>2026-03-28T13:48:30.005Z</time></trkpt><trkpt lat="44.780345946143065" lon="11.922139154200305"><ele>0.0</ele><time>2026-03-28T13:48:31.005Z</time></trkpt><trkpt lat="44.78044343265037" lon="11.922420713114226"><ele>0.0</ele><time>2026-03-28T13:48:32.005Z</time></trkpt><trkpt lat="44.78055167669256" lon="11.922703701089242"><ele>0.0</ele><time>2026-03-28T13:48:33.005Z</time></trkpt><trkpt lat="44.780648106293754" lon="11.92297935592031"><ele>0.0</ele><time>2026-03-28T13:48:34.005Z</time></trkpt><trkpt lat="44.78074080217667" lon="11.92324707003201"><ele>0.0</ele><time>2026-03-28T13:48:35.005Z</time></trkpt><trkpt lat="44.7808170430783" lon="11.923516964064039"><ele>-0.3333333333333333</ele><time>2026-03-28T13:48:36.005Z</time></trkpt><trkpt lat="44.780875823564024" lon="11.92379885783382"><ele>-0.6666666666666666</ele><time>2026-03-28T13:48:37.005Z</time></trkpt><trkpt lat="44.78091493132088" lon="11.924108712350462"><ele>-1.0</ele><time>2026-03-28T13:48:38.005Z</time></trkpt><trkpt lat="44.78093860434386" lon="11.924435675383613"><ele>-1.0</ele><time>2026-03-28T13:48:39.005Z</time></trkpt><trkpt lat="44.78096242230963" lon="11.924759477281732"><ele>-1.0</ele><time>2026-03-28T13:48:40.005Z</time></trkpt><trkpt lat="44.78099411033481" lon="11.925070212778483"><ele>-1.3333333333333333</ele><time>2026-03-28T13:48:41.005Z</time></trkpt><trkpt lat="44.781016958122876" lon="11.925365764087575"><ele>-1.6666666666666665</ele><time>2026-03-28T13:48:42.005Z</time></trkpt><trkpt lat="44.78103329380834" lon="11.925634937073157"><ele>-2.0</ele><time>2026-03-28T13:48:43.005Z</time></trkpt><trkpt lat="44.78104075364777" lon="11.925884829096727"><ele>-1.6666666666666665</ele><time>2026-03-28T13:48:44.005Z</time></trkpt><trkpt lat="44.781021668351094" lon="11.926109947304155"><ele>-1.3333333333333333</ele><time>2026-03-28T13:48:45.005Z</time></trkpt><trkpt lat="44.78098454065635" lon="11.926322828292943"><ele>-1.0</ele><time>2026-03-28T13:48:46.005Z</time></trkpt><trkpt lat="44.78093313509736" lon="11.926508084003787"><ele>-1.0</ele><time>2026-03-28T13:48:47.005Z</time></trkpt><trkpt lat="44.78084121697534" lon="11.926625771247197"><ele>-1.0</ele><time>2026-03-28T13:48:48.005Z</time></trkpt><trkpt lat="44.78072971238568" lon="11.926724929435919"><ele>-1.0</ele><time>2026-03-28T13:48:49.005Z</time></trkpt><trkpt lat="44.78059226678989" lon="11.92684095076564"><ele>-1.0</ele><time>2026-03-28T13:48:50.005Z</time></trkpt><trkpt lat="44.78043456129403" lon="11.92697393902045"><ele>-1.0</ele><time>2026-03-28T13:48:51.005Z</time></trkpt><trkpt lat="44.78025359077699" lon="11.927125946984622"><ele>-1.0</ele><time>2026-03-28T13:48:52.005Z</time></trkpt><trkpt lat="44.78005477058118" lon="11.927290672552777"><ele>-1.0</ele><time>2026-03-28T13:48:53.005Z</time></trkpt><trkpt lat="44.779844355040645" lon="11.927482334521013"><ele>-1.0</ele><time>2026-03-28T13:48:54.005Z</time></trkpt><trkpt lat="44.77962795839689" lon="11.927664497867271"><ele>-1.0</ele><time>2026-03-28T13:48:55.005Z</time></trkpt><trkpt lat="44.77940625649531" lon="11.927846630387698"><ele>-1.0</ele><time>2026-03-28T13:48:56.005Z</time></trkpt><trkpt lat="44.77918248037129" lon="11.928031491589783"><ele>-1.0</ele><time>2026-03-28T13:48:57.005Z</time></trkpt><trkpt lat="44.778954218409304" lon="11.928222255627457"><ele>-1.5</ele><time>2026-03-28T13:48:58.005Z</time></trkpt><trkpt lat="44.77872020472827" lon="11.928417467455299"><ele>-2.0</ele><time>2026-03-28T13:48:59.005Z</time></trkpt><trkpt lat="44.77847825200427" lon="11.928617685819532"><ele>-2.0</ele><time>2026-03-28T13:49:00.005Z</time></trkpt><trkpt lat="44.77822778284266" lon="11.928804026679895"><ele>-2.0</ele><time>2026-03-28T13:49:01.005Z</time></trkpt><trkpt lat="44.777983850747816" lon="11.9290042625365"><ele>-2.0</ele><time>2026-03-28T13:49:02.005Z</time></trkpt><trkpt lat="44.77773619544624" lon="11.929208563332814"><ele>-2.0</ele><time>2026-03-28T13:49:03.005Z</time></trkpt><trkpt lat="44.77748938343064" lon="11.929412466382827"><ele>-2.0</ele><time>2026-03-28T13:49:04.005Z</time></trkpt><trkpt lat="44.77724159092996" lon="11.929617177766056"><ele>-2.0</ele><time>2026-03-28T13:49:05.005Z</time></trkpt><trkpt lat="44.77699238209905" lon="11.929824040508008"><ele>-0.5</ele><time>2026-03-28T13:49:06.005Z</time></trkpt><trkpt lat="44.77674715738336" lon="11.93002781688344"><ele>1.0</ele><time>2026-03-28T13:49:07.005Z</time></trkpt><trkpt lat="44.77650540516826" lon="11.930228707529045"><ele>1.5</ele><time>2026-03-28T13:49:08.005Z</time></trkpt><trkpt lat="44.77626609813034" lon="11.930427566345552"><ele>2.0</ele><time>2026-03-28T13:49:09.005Z</time></trkpt><trkpt lat="44.776025603601255" lon="11.930627143201072"><ele>0.5</ele><time>2026-03-28T13:49:10.005Z</time></trkpt><trkpt lat="44.77578533615778" lon="11.930827082177233"><ele>-1.0</ele><time>2026-03-28T13:49:11.005Z</time></trkpt><trkpt lat="44.77554499819732" lon="11.931029134737123"><ele>-1.0</ele><time>2026-03-28T13:49:12.005Z</time></trkpt><trkpt lat="44.7753075720413" lon="11.931228969181065"><ele>-1.0</ele><time>2026-03-28T13:49:13.005Z</time></trkpt><trkpt lat="44.7750717631533" lon="11.93142768643989"><ele>-1.0</ele><time>2026-03-28T13:49:14.005Z</time></trkpt><trkpt lat="44.77484235908243" lon="11.931621006304331"><ele>-1.0</ele><time>2026-03-28T13:49:15.005Z</time></trkpt><trkpt lat="44.77462528382731" lon="11.931803936715726"><ele>-1.0</ele><time>2026-03-28T13:49:16.005Z</time></trkpt><trkpt lat="44.77441510299747" lon="11.931979840147262"><ele>-1.0</ele><time>2026-03-28T13:49:17.005Z</time></trkpt><trkpt lat="44.774213318580095" lon="11.93214845976899"><ele>0.0</ele><time>2026-03-28T13:49:18.005Z</time></trkpt><trkpt lat="44.77402122133347" lon="11.93230888306376"><ele>1.0</ele><time>2026-03-28T13:49:19.006Z</time></trkpt><trkpt lat="44.773850617027925" lon="11.932451357279342"><ele>2.0</ele><time>2026-03-28T13:49:20.006Z</time></trkpt><trkpt lat="44.77369222712686" lon="11.932583631063848"><ele>2.0</ele><time>2026-03-28T13:49:21.006Z</time></trkpt><trkpt lat="44.77355115790261" lon="11.932701440039484"><ele>2.0</ele><time>2026-03-28T13:49:22.006Z</time></trkpt><trkpt lat="44.77342485372195" lon="11.932808752025043"><ele>2.0</ele><time>2026-03-28T13:49:23.007Z</time></trkpt><trkpt lat="44.773324536147776" lon="11.932896051822805"><ele>2.0</ele><time>2026-03-28T13:49:24.007Z</time></trkpt><trkpt lat="44.77322900247466" lon="11.932986649823077"><ele>2.0</ele><time>2026-03-28T13:49:25.006Z</time></trkpt><trkpt lat="44.77314918404551" lon="11.933088188685943"><ele>2.0</ele><time>2026-03-28T13:49:26.007Z</time></trkpt><trkpt lat="44.773108580012206" lon="11.933222942095492"><ele>2.0</ele><time>2026-03-28T13:49:27.007Z</time></trkpt><trkpt lat="44.773079206201324" lon="11.933355621791861"><ele>2.0</ele><time>2026-03-28T13:49:28.006Z</time></trkpt><trkpt lat="44.77309398299511" lon="11.933496505316702"><ele>2.0</ele><time>2026-03-28T13:49:29.006Z</time></trkpt><trkpt lat="44.77314300130955" lon="11.933666674826274"><ele>2.0</ele><time>2026-03-28T13:49:30.006Z</time></trkpt><trkpt lat="44.77322413675388" lon="11.933855826479107"><ele>2.0</ele><time>2026-03-28T13:49:31.006Z</time></trkpt><trkpt lat="44.773313520932305" lon="11.934062827476446"><ele>2.0</ele><time>2026-03-28T13:49:32.007Z</time></trkpt><trkpt lat="44.773410969601315" lon="11.934279873971224"><ele>2.0</ele><time>2026-03-28T13:49:33.007Z</time></trkpt><trkpt lat="44.77351459338917" lon="11.934500387305686"><ele>2.0</ele><time>2026-03-28T13:49:34.007Z</time></trkpt><trkpt lat="44.77360990619664" lon="11.934700656852502"><ele>2.0</ele><time>2026-03-28T13:49:35.007Z</time></trkpt><trkpt lat="44.77370216417837" lon="11.934881780850331"><ele>2.333333333333333</ele><time>2026-03-28T13:49:36.007Z</time></trkpt><trkpt lat="44.773791875359876" lon="11.935062116308508"><ele>2.6666666666666665</ele><time>2026-03-28T13:49:37.007Z</time></trkpt><trkpt lat="44.77388904726557" lon="11.93524486195149"><ele>3.0</ele><time>2026-03-28T13:49:38.007Z</time></trkpt><trkpt lat="44.773991339798826" lon="11.935430064992936"><ele>3.0</ele><time>2026-03-28T13:49:39.007Z</time></trkpt><trkpt lat="44.7740897340728" lon="11.935617611901511"><ele>3.0</ele><time>2026-03-28T13:49:40.007Z</time></trkpt><trkpt lat="44.77419044161274" lon="11.935802230608713"><ele>3.0</ele><time>2026-03-28T13:49:41.007Z</time></trkpt><trkpt lat="44.77429915576595" lon="11.935985602227115"><ele>2.6666666666666665</ele><time>2026-03-28T13:49:42.006Z</time></trkpt><trkpt lat="44.774417313174844" lon="11.936156424311024"><ele>2.333333333333333</ele><time>2026-03-28T13:49:43.006Z</time></trkpt><trkpt lat="44.7745151557172" lon="11.936330313980884"><ele>2.0</ele><time>2026-03-28T13:49:44.006Z</time></trkpt><trkpt lat="44.77458862070237" lon="11.936501768996164"><ele>2.0</ele><time>2026-03-28T13:49:45.006Z</time></trkpt><trkpt lat="44.774659260016406" lon="11.936646840075847"><ele>2.0</ele><time>2026-03-28T13:49:46.006Z</time></trkpt><trkpt lat="44.774720728558734" lon="11.93677307651526"><ele>2.0</ele><time>2026-03-28T13:49:47.006Z</time></trkpt><trkpt lat="44.77478228222285" lon="11.936899488257408"><ele>2.0</ele><time>2026-03-28T13:49:48.006Z</time></trkpt><trkpt lat="44.77484345485441" lon="11.937025117334613"><ele>2.0</ele><time>2026-03-28T13:49:49.006Z</time></trkpt><trkpt lat="44.7748951133403" lon="11.937130606923153"><ele>2.0</ele><time>2026-03-28T13:49:50.006Z</time></trkpt><trkpt lat="44.77494151639299" lon="11.93722424662592"><ele>2.0</ele><time>2026-03-28T13:49:51.006Z</time></trkpt><trkpt lat="44.774999569066885" lon="11.937308125372084"><ele>2.0</ele><time>2026-03-28T13:49:52.006Z</time></trkpt><trkpt lat="44.77501202179257" lon="11.937419259952012"><ele>2.0</ele><time>2026-03-28T13:49:53.006Z</time></trkpt><trkpt lat="44.77494206486484" lon="11.937646899328985"><ele>2.0</ele><time>2026-03-28T13:49:55.006Z</time></trkpt><trkpt lat="44.774852090921726" lon="11.937711151694435"><ele>2.0</ele><time>2026-03-28T13:49:56.006Z</time></trkpt><trkpt lat="44.77477499649764" lon="11.937810221538514"><ele>2.0</ele><time>2026-03-28T13:49:57.006Z</time></trkpt><trkpt lat="44.77467486347597" lon="11.937898917981263"><ele>2.0</ele><time>2026-03-28T13:49:58.006Z</time></trkpt><trkpt lat="44.7745491893723" lon="11.937970788086586"><ele>2.0</ele><time>2026-03-28T13:49:59.006Z</time></trkpt><trkpt lat="44.77444074385203" lon="11.938071632653553"><ele>2.0</ele><time>2026-03-28T13:50:00.006Z</time></trkpt><trkpt lat="44.77432866719781" lon="11.938169910923593"><ele>2.0</ele><time>2026-03-28T13:50:01.006Z</time></trkpt><trkpt lat="44.774223655851884" lon="11.938263942559866"><ele>2.0</ele><time>2026-03-28T13:50:02.006Z</time></trkpt><trkpt lat="44.77412971751002" lon="11.938347565018438"><ele>2.5</ele><time>2026-03-28T13:50:03.006Z</time></trkpt><trkpt lat="44.774046289835965" lon="11.938433205751178"><ele>3.0</ele><time>2026-03-28T13:50:04.006Z</time></trkpt><trkpt lat="44.77396857672775" lon="11.93849808722522"><ele>3.5</ele><time>2026-03-28T13:50:05.006Z</time></trkpt><trkpt lat="44.77390642396583" lon="11.938554120286883"><ele>4.0</ele><time>2026-03-28T13:50:06.006Z</time></trkpt><trkpt lat="44.77383275393857" lon="11.93863378571576"><ele>4.5</ele><time>2026-03-28T13:50:08.006Z</time></trkpt><trkpt lat="44.77380191156503" lon="11.93872671347446"><ele>5.0</ele><time>2026-03-28T13:50:17.006Z</time></trkpt><trkpt lat="44.77378290529067" lon="11.93897919408642"><ele>5.0</ele><time>2026-03-28T13:50:19.006Z</time></trkpt><trkpt lat="44.77376618449099" lon="11.939104270772962"><ele>5.0</ele><time>2026-03-28T13:50:20.006Z</time></trkpt><trkpt lat="44.773746198260056" lon="11.939235018690816"><ele>5.0</ele><time>2026-03-28T13:50:21.006Z</time></trkpt><trkpt lat="44.773715500041746" lon="11.939418292466046"><ele>5.0</ele><time>2026-03-28T13:50:22.006Z</time></trkpt><trkpt lat="44.773685623215385" lon="11.939596661874411"><ele>5.0</ele><time>2026-03-28T13:50:23.006Z</time></trkpt><trkpt lat="44.77365621401958" lon="11.939772235037086"><ele>5.0</ele><time>2026-03-28T13:50:24.006Z</time></trkpt><trkpt lat="44.77362607288915" lon="11.939950167577353"><ele>5.0</ele><time>2026-03-28T13:50:25.006Z</time></trkpt><trkpt lat="44.77359661236044" lon="11.940121021852397"><ele>5.0</ele><time>2026-03-28T13:50:26.006Z</time></trkpt><trkpt lat="44.773568032246544" lon="11.940286770302722"><ele>5.0</ele><time>2026-03-28T13:50:27.006Z</time></trkpt><trkpt lat="44.77353100820795" lon="11.940458135294634"><ele>4.25</ele><time>2026-03-28T13:50:28.006Z</time></trkpt><trkpt lat="44.7734942432027" lon="11.94062307719986"><ele>3.5</ele><time>2026-03-28T13:50:29.006Z</time></trkpt><trkpt lat="44.77346809014197" lon="11.940784520825721"><ele>2.75</ele><time>2026-03-28T13:50:30.006Z</time></trkpt><trkpt lat="44.77345148809076" lon="11.940945783914408"><ele>2.0</ele><time>2026-03-28T13:50:31.006Z</time></trkpt><trkpt lat="44.77344596771174" lon="11.941093686668871"><ele>1.8333333333333333</ele><time>2026-03-28T13:50:32.006Z</time></trkpt><trkpt lat="44.773437669064116" lon="11.941227956099462"><ele>1.6666666666666665</ele><time>2026-03-28T13:50:33.006Z</time></trkpt><trkpt lat="44.77342007228644" lon="11.9413414332532"><ele>1.5</ele><time>2026-03-28T13:50:34.006Z</time></trkpt><trkpt lat="44.7733639327763" lon="11.941413675543508"><ele>1.3333333333333333</ele><time>2026-03-28T13:50:35.006Z</time></trkpt><trkpt lat="44.77332433628845" lon="11.941503721680593"><ele>1.1666666666666665</ele><time>2026-03-28T13:50:36.006Z</time></trkpt><trkpt lat="44.773297867414705" lon="11.941613116411881"><ele>1.0</ele><time>2026-03-28T13:50:37.006Z</time></trkpt><trkpt lat="44.7733237962648" lon="11.941732112436165"><ele>0.9999999999999999</ele><time>2026-03-28T13:50:38.006Z</time></trkpt><trkpt lat="44.77338741118858" lon="11.941797198476916"><ele>1.0</ele><time>2026-03-28T13:50:39.006Z</time></trkpt><trkpt lat="44.773454035574254" lon="11.94183639869145"><ele>1.0</ele><time>2026-03-28T13:50:40.006Z</time></trkpt><trkpt lat="44.77352828479743" lon="11.941853536668816"><ele>1.0</ele><time>2026-03-28T13:50:41.006Z</time></trkpt><trkpt lat="44.77360497073158" lon="11.941869857640027"><ele>0.9999999999999999</ele><time>2026-03-28T13:50:42.006Z</time></trkpt><trkpt lat="44.77368105512838" lon="11.941903048999379"><ele>1.0</ele><time>2026-03-28T13:50:43.006Z</time></trkpt><trkpt lat="44.773749485763396" lon="11.941959795281381"><ele>1.0</ele><time>2026-03-28T13:50:44.006Z</time></trkpt><trkpt lat="44.7738291873327" lon="11.942028773632021"><ele>1.0</ele><time>2026-03-28T13:50:45.006Z</time></trkpt><trkpt lat="44.77393020022257" lon="11.94210280944872"><ele>1.0</ele><time>2026-03-28T13:50:46.006Z</time></trkpt><trkpt lat="44.77404104111713" lon="11.94218867201495"><ele>1.0</ele><time>2026-03-28T13:50:47.006Z</time></trkpt><trkpt lat="44.77415040885899" lon="11.942270601031026"><ele>1.0</ele><time>2026-03-28T13:50:48.006Z</time></trkpt><trkpt lat="44.7742595015165" lon="11.942360649731457"><ele>1.0</ele><time>2026-03-28T13:50:49.006Z</time></trkpt><trkpt lat="44.77436741365449" lon="11.942452902302565"><ele>1.0</ele><time>2026-03-28T13:50:50.006Z</time></trkpt><trkpt lat="44.774477011071326" lon="11.942541941638837"><ele>1.0</ele><time>2026-03-28T13:50:51.006Z</time></trkpt><trkpt lat="44.774564584106024" lon="11.942654962339882"><ele>1.0</ele><time>2026-03-28T13:50:52.006Z</time></trkpt><trkpt lat="44.77468070443308" lon="11.942751034766369"><ele>1.0</ele><time>2026-03-28T13:50:53.006Z</time></trkpt><trkpt lat="44.77480003710044" lon="11.942850941928205"><ele>1.0</ele><time>2026-03-28T13:50:54.006Z</time></trkpt><trkpt lat="44.774929772228916" lon="11.942952038237442"><ele>1.0</ele><time>2026-03-28T13:50:55.006Z</time></trkpt><trkpt lat="44.77506253880023" lon="11.943056658642893"><ele>1.0</ele><time>2026-03-28T13:50:56.006Z</time></trkpt><trkpt lat="44.77519742873952" lon="11.943166833433907"><ele>1.0</ele><time>2026-03-28T13:50:57.006Z</time></trkpt><trkpt lat="44.77531967657883" lon="11.943287179151515"><ele>1.0</ele><time>2026-03-28T13:50:58.006Z</time></trkpt><trkpt lat="44.77542461342217" lon="11.943413423205115"><ele>1.0</ele><time>2026-03-28T13:50:59.006Z</time></trkpt><trkpt lat="44.775524636134186" lon="11.943549590935373"><ele>1.0</ele><time>2026-03-28T13:51:00.006Z</time></trkpt><trkpt lat="44.77562095697783" lon="11.943690434360335"><ele>1.0</ele><time>2026-03-28T13:51:01.006Z</time></trkpt><trkpt lat="44.77571044685091" lon="11.943845463340086"><ele>1.0</ele><time>2026-03-28T13:51:02.006Z</time></trkpt><trkpt lat="44.77580001950103" lon="11.944002578077093"><ele>1.0</ele><time>2026-03-28T13:51:03.006Z</time></trkpt><trkpt lat="44.77589296870325" lon="11.944165646569333"><ele>0.3333333333333333</ele><time>2026-03-28T13:51:04.006Z</time></trkpt><trkpt lat="44.775985799498905" lon="11.944338279044336"><ele>-0.3333333333333333</ele><time>2026-03-28T13:51:05.006Z</time></trkpt><trkpt lat="44.77608685316176" lon="11.944519034496174"><ele>-1.0</ele><time>2026-03-28T13:51:06.006Z</time></trkpt><trkpt lat="44.77616263847625" lon="11.94471581548971"><ele>0.33333333333333337</ele><time>2026-03-28T13:51:07.006Z</time></trkpt><trkpt lat="44.776260791199235" lon="11.944897786531037"><ele>1.6666666666666667</ele><time>2026-03-28T13:51:08.006Z</time></trkpt><trkpt lat="44.77636131682124" lon="11.945070275743984"><ele>3.0</ele><time>2026-03-28T13:51:09.006Z</time></trkpt><trkpt lat="44.77646815970095" lon="11.945229081520326"><ele>3.0</ele><time>2026-03-28T13:51:10.006Z</time></trkpt><trkpt lat="44.77658003374196" lon="11.945378447715008"><ele>3.0</ele><time>2026-03-28T13:51:11.006Z</time></trkpt><trkpt lat="44.776691349492346" lon="11.945523815218207"><ele>3.0</ele><time>2026-03-28T13:51:12.006Z</time></trkpt><trkpt lat="44.77680324784665" lon="11.945657687775071"><ele>2.75</ele><time>2026-03-28T13:51:13.006Z</time></trkpt><trkpt lat="44.7769212584958" lon="11.945777388699502"><ele>2.5</ele><time>2026-03-28T13:51:14.006Z</time></trkpt><trkpt lat="44.77703789250378" lon="11.945893015201529"><ele>2.25</ele><time>2026-03-28T13:51:15.006Z</time></trkpt><trkpt lat="44.777151948273115" lon="11.945997174961642"><ele>2.0</ele><time>2026-03-28T13:51:16.006Z</time></trkpt><trkpt lat="44.77727297352273" lon="11.946098398706404"><ele>2.0</ele><time>2026-03-28T13:51:17.006Z</time></trkpt><trkpt lat="44.7773972273167" lon="11.946195300694416"><ele>2.0</ele><time>2026-03-28T13:51:18.006Z</time></trkpt><trkpt lat="44.77752744660997" lon="11.946287323295675"><ele>2.0</ele><time>2026-03-28T13:51:19.006Z</time></trkpt><trkpt lat="44.77766273170023" lon="11.94638708642621"><ele>2.0</ele><time>2026-03-28T13:51:20.006Z</time></trkpt><trkpt lat="44.77780373513128" lon="11.94648801303472"><ele>2.0</ele><time>2026-03-28T13:51:21.006Z</time></trkpt><trkpt lat="44.77794482557802" lon="11.946585964015071"><ele>2.0</ele><time>2026-03-28T13:51:22.006Z</time></trkpt><trkpt lat="44.778089800472706" lon="11.946683588108206"><ele>2.0</ele><time>2026-03-28T13:51:23.006Z</time></trkpt><trkpt lat="44.77823564484893" lon="11.946780434707142"><ele>2.0</ele><time>2026-03-28T13:51:24.006Z</time></trkpt><trkpt lat="44.778383888832465" lon="11.946872096083526"><ele>2.0</ele><time>2026-03-28T13:51:25.006Z</time></trkpt><trkpt lat="44.778539400426205" lon="11.946963699497642"><ele>2.0</ele><time>2026-03-28T13:51:26.006Z</time></trkpt><trkpt lat="44.77869307623191" lon="11.947040675935204"><ele>2.0</ele><time>2026-03-28T13:51:27.006Z</time></trkpt><trkpt lat="44.77885386794606" lon="11.947116423826362"><ele>2.0</ele><time>2026-03-28T13:51:28.007Z</time></trkpt><trkpt lat="44.77901345513133" lon="11.947175375358203"><ele>2.0</ele><time>2026-03-28T13:51:29.007Z</time></trkpt><trkpt lat="44.77917729517102" lon="11.94722708570358"><ele>2.0</ele><time>2026-03-28T13:51:30.006Z</time></trkpt><trkpt lat="44.779339966568365" lon="11.947275616360077"><ele>2.0</ele><time>2026-03-28T13:51:31.006Z</time></trkpt><trkpt lat="44.77950582594252" lon="11.947304322191874"><ele>2.0</ele><time>2026-03-28T13:51:32.007Z</time></trkpt><trkpt lat="44.779673423931804" lon="11.947342851198973"><ele>2.0</ele><time>2026-03-28T13:51:33.007Z</time></trkpt><trkpt lat="44.77983991762809" lon="11.947388717126453"><ele>2.0</ele><time>2026-03-28T13:51:34.007Z</time></trkpt><trkpt lat="44.78000359387234" lon="11.947449356183878"><ele>2.0</ele><time>2026-03-28T13:51:35.007Z</time></trkpt><trkpt lat="44.780146512019485" lon="11.947563420949047"><ele>2.0</ele><time>2026-03-28T13:51:36.007Z</time></trkpt><trkpt lat="44.780290041570396" lon="11.94768420975831"><ele>2.0</ele><time>2026-03-28T13:51:37.006Z</time></trkpt><trkpt lat="44.780426743403346" lon="11.947804301147938"><ele>2.0</ele><time>2026-03-28T13:51:38.007Z</time></trkpt><trkpt lat="44.7805566705072" lon="11.947946525402418"><ele>2.0</ele><time>2026-03-28T13:51:39.007Z</time></trkpt><trkpt lat="44.780669635458395" lon="11.948079403212459"><ele>2.0</ele><time>2026-03-28T13:51:40.007Z</time></trkpt><trkpt lat="44.78078123469513" lon="11.948210801634655"><ele>2.0</ele><time>2026-03-28T13:51:41.007Z</time></trkpt><trkpt lat="44.78089828914123" lon="11.948348623170071"><ele>2.0</ele><time>2026-03-28T13:51:42.007Z</time></trkpt><trkpt lat="44.78100964798947" lon="11.948479738228698"><ele>2.25</ele><time>2026-03-28T13:51:43.007Z</time></trkpt><trkpt lat="44.78111104707289" lon="11.948599060689027"><ele>2.5</ele><time>2026-03-28T13:51:44.007Z</time></trkpt><trkpt lat="44.781210939568076" lon="11.948713493099103"><ele>2.75</ele><time>2026-03-28T13:51:45.007Z</time></trkpt><trkpt lat="44.7813046059409" lon="11.94881732460053"><ele>3.0</ele><time>2026-03-28T13:51:46.007Z</time></trkpt><trkpt lat="44.781390408005116" lon="11.948907551726034"><ele>3.0</ele><time>2026-03-28T13:51:47.007Z</time></trkpt><trkpt lat="44.78147821923893" lon="11.94899057073115"><ele>3.0</ele><time>2026-03-28T13:51:48.007Z</time></trkpt><trkpt lat="44.78157482717685" lon="11.949075481662872"><ele>3.0</ele><time>2026-03-28T13:51:49.006Z</time></trkpt><trkpt lat="44.78167144121807" lon="11.94916024623215"><ele>3.0</ele><time>2026-03-28T13:51:50.006Z</time></trkpt><trkpt lat="44.781770589078505" lon="11.949246823075446"><ele>2.75</ele><time>2026-03-28T13:51:51.006Z</time></trkpt><trkpt lat="44.78187731144363" lon="11.949338872101672"><ele>2.5</ele><time>2026-03-28T13:51:52.006Z</time></trkpt><trkpt lat="44.781993242422104" lon="11.949408910387064"><ele>2.25</ele><time>2026-03-28T13:51:53.006Z</time></trkpt><trkpt lat="44.78209577124251" lon="11.949504517604101"><ele>2.0</ele><time>2026-03-28T13:51:54.006Z</time></trkpt><trkpt lat="44.782196153527096" lon="11.949577644874024"><ele>2.0</ele><time>2026-03-28T13:51:55.006Z</time></trkpt><trkpt lat="44.782292684867926" lon="11.949664063928624"><ele>2.0</ele><time>2026-03-28T13:51:56.006Z</time></trkpt><trkpt lat="44.782531760193024" lon="11.94981527677078"><ele>2.0</ele><time>2026-03-28T13:51:58.006Z</time></trkpt><trkpt lat="44.78265058644871" lon="11.94987476869802"><ele>2.5</ele><time>2026-03-28T13:51:59.006Z</time></trkpt><trkpt lat="44.78276778920594" lon="11.949956605792009"><ele>3.0</ele><time>2026-03-28T13:52:00.006Z</time></trkpt><trkpt lat="44.78287526615764" lon="11.950045791976969"><ele>3.5</ele><time>2026-03-28T13:52:01.006Z</time></trkpt><trkpt lat="44.782966387885395" lon="11.950140829030078"><ele>4.0</ele><time>2026-03-28T13:52:02.006Z</time></trkpt><trkpt lat="44.783051552250924" lon="11.95023898789519"><ele>4.25</ele><time>2026-03-28T13:52:03.006Z</time></trkpt><trkpt lat="44.78313322526739" lon="11.950341219830765"><ele>4.5</ele><time>2026-03-28T13:52:04.006Z</time></trkpt><trkpt lat="44.783217964143546" lon="11.950447418126194"><ele>4.75</ele><time>2026-03-28T13:52:05.006Z</time></trkpt><trkpt lat="44.78330172239664" lon="11.950582070923268"><ele>5.0</ele><time>2026-03-28T13:52:06.006Z</time></trkpt><trkpt lat="44.78338988843462" lon="11.950719176821899"><ele>5.0</ele><time>2026-03-28T13:52:07.006Z</time></trkpt><trkpt lat="44.78346973013828" lon="11.950855216388238"><ele>5.0</ele><time>2026-03-28T13:52:08.006Z</time></trkpt><trkpt lat="44.78354859397435" lon="11.9509929360859"><ele>5.0</ele><time>2026-03-28T13:52:09.006Z</time></trkpt><trkpt lat="44.7836323331136" lon="11.951132028979577"><ele>5.0</ele><time>2026-03-28T13:52:10.006Z</time></trkpt><trkpt lat="44.78371342326549" lon="11.951264686730848"><ele>5.25</ele><time>2026-03-28T13:52:11.006Z</time></trkpt><trkpt lat="44.783796059066134" lon="11.951405555313245"><ele>5.5</ele><time>2026-03-28T13:52:12.006Z</time></trkpt><trkpt lat="44.78387730149205" lon="11.951542178682018"><ele>5.75</ele><time>2026-03-28T13:52:13.006Z</time></trkpt><trkpt lat="44.78395641642615" lon="11.951682057948794"><ele>6.0</ele><time>2026-03-28T13:52:14.006Z</time></trkpt><trkpt lat="44.78403024648219" lon="11.951813112447557"><ele>5.25</ele><time>2026-03-28T13:52:15.006Z</time></trkpt><trkpt lat="44.784107170028314" lon="11.951941505649621"><ele>4.5</ele><time>2026-03-28T13:52:16.006Z</time></trkpt><trkpt lat="44.78418048168355" lon="11.952061169669037"><ele>3.75</ele><time>2026-03-28T13:52:17.006Z</time></trkpt><trkpt lat="44.784257637915594" lon="11.952177778880856"><ele>3.0</ele><time>2026-03-28T13:52:18.006Z</time></trkpt><trkpt lat="44.78433334054975" lon="11.95229893467799"><ele>2.75</ele><time>2026-03-28T13:52:19.006Z</time></trkpt><trkpt lat="44.78441443518483" lon="11.952423092613374"><ele>2.5</ele><time>2026-03-28T13:52:20.006Z</time></trkpt><trkpt lat="44.78449440909852" lon="11.952558200857693"><ele>2.25</ele><time>2026-03-28T13:52:21.006Z</time></trkpt><trkpt lat="44.78458193738816" lon="11.95269000364923"><ele>2.0</ele><time>2026-03-28T13:52:22.006Z</time></trkpt><trkpt lat="44.78467284981788" lon="11.952821694186408"><ele>2.0</ele><time>2026-03-28T13:52:23.006Z</time></trkpt><trkpt lat="44.78475576999435" lon="11.952962248735304"><ele>2.0</ele><time>2026-03-28T13:52:24.006Z</time></trkpt><trkpt lat="44.7848508817859" lon="11.95308992721475"><ele>2.0</ele><time>2026-03-28T13:52:25.006Z</time></trkpt><trkpt lat="44.78493414804783" lon="11.953236345929069"><ele>2.0</ele><time>2026-03-28T13:52:26.006Z</time></trkpt><trkpt lat="44.78502257781054" lon="11.953380558638942"><ele>2.25</ele><time>2026-03-28T13:52:27.006Z</time></trkpt><trkpt lat="44.78511533048783" lon="11.95352568431821"><ele>2.5</ele><time>2026-03-28T13:52:28.006Z</time></trkpt><trkpt lat="44.785216749961506" lon="11.95366349111829"><ele>2.75</ele><time>2026-03-28T13:52:29.006Z</time></trkpt><trkpt lat="44.7852324658642" lon="11.953897242168095"><ele>3.0</ele><time>2026-03-28T13:52:30.006Z</time></trkpt><trkpt lat="44.785315980605624" lon="11.95404082940682"><ele>3.0</ele><time>2026-03-28T13:52:31.006Z</time></trkpt><trkpt lat="44.78539540124534" lon="11.954177377712401"><ele>3.0</ele><time>2026-03-28T13:52:32.006Z</time></trkpt><trkpt lat="44.78546368436261" lon="11.95429477712964"><ele>3.0</ele><time>2026-03-28T13:52:33.006Z</time></trkpt><trkpt lat="44.785548077290926" lon="11.954439874282947"><ele>3.0</ele><time>2026-03-28T13:52:34.006Z</time></trkpt><trkpt lat="44.78563908702469" lon="11.954596871339254"><ele>3.0</ele><time>2026-03-28T13:52:35.006Z</time></trkpt><trkpt lat="44.785733487218984" lon="11.954759092120865"><ele>3.0</ele><time>2026-03-28T13:52:36.006Z</time></trkpt><trkpt lat="44.78583364486398" lon="11.954933227502934"><ele>3.0</ele><time>2026-03-28T13:52:37.006Z</time></trkpt><trkpt lat="44.785928287645824" lon="11.955099280383154"><ele>2.3333333333333335</ele><time>2026-03-28T13:52:38.006Z</time></trkpt><trkpt lat="44.78602348634029" lon="11.95526748955465"><ele>1.6666666666666665</ele><time>2026-03-28T13:52:39.006Z</time></trkpt><trkpt lat="44.7861222026494" lon="11.955443496663499"><ele>1.0</ele><time>2026-03-28T13:52:40.006Z</time></trkpt><trkpt lat="44.786222170419975" lon="11.95562633788201"><ele>1.0</ele><time>2026-03-28T13:52:41.006Z</time></trkpt><trkpt lat="44.786320755550584" lon="11.95581452825831"><ele>1.0</ele><time>2026-03-28T13:52:42.006Z</time></trkpt><trkpt lat="44.78641304288533" lon="11.956000434909829"><ele>1.0</ele><time>2026-03-28T13:52:43.006Z</time></trkpt><trkpt lat="44.78649978575276" lon="11.956179535437789"><ele>1.25</ele><time>2026-03-28T13:52:44.006Z</time></trkpt><trkpt lat="44.786583089018414" lon="11.956357280099663"><ele>1.5</ele><time>2026-03-28T13:52:45.006Z</time></trkpt><trkpt lat="44.786663610819204" lon="11.95653212594973"><ele>1.75</ele><time>2026-03-28T13:52:46.006Z</time></trkpt><trkpt lat="44.78673823752134" lon="11.956714901536046"><ele>2.0</ele><time>2026-03-28T13:52:47.006Z</time></trkpt><trkpt lat="44.78681041764372" lon="11.956900132752146"><ele>1.6666666666666665</ele><time>2026-03-28T13:52:48.006Z</time></trkpt><trkpt lat="44.7868828734411" lon="11.957094640104165"><ele>1.3333333333333333</ele><time>2026-03-28T13:52:49.006Z</time></trkpt><trkpt lat="44.78695532797531" lon="11.957289119343109"><ele>1.0</ele><time>2026-03-28T13:52:50.006Z</time></trkpt><trkpt lat="44.787024980736575" lon="11.957487229478307"><ele>1.25</ele><time>2026-03-28T13:52:51.006Z</time></trkpt><trkpt lat="44.78709074213621" lon="11.957676998076309"><ele>1.5</ele><time>2026-03-28T13:52:52.006Z</time></trkpt><trkpt lat="44.78715421513275" lon="11.957862278455604"><ele>1.75</ele><time>2026-03-28T13:52:53.006Z</time></trkpt><trkpt lat="44.787218242105055" lon="11.958051999520075"><ele>2.0</ele><time>2026-03-28T13:52:54.006Z</time></trkpt><trkpt lat="44.787282314198066" lon="11.95824185425258"><ele>2.6666666666666665</ele><time>2026-03-28T13:52:55.006Z</time></trkpt><trkpt lat="44.78735002903385" lon="11.958442502989074"><ele>3.333333333333333</ele><time>2026-03-28T13:52:56.006Z</time></trkpt><trkpt lat="44.787417008279" lon="11.958640972136727"><ele>4.0</ele><time>2026-03-28T13:52:57.006Z</time></trkpt><trkpt lat="44.787486027397385" lon="11.958845486255578"><ele>4.0</ele><time>2026-03-28T13:52:58.006Z</time></trkpt><trkpt lat="44.78755706028137" lon="11.959055966185735"><ele>4.0</ele><time>2026-03-28T13:52:59.006Z</time></trkpt><trkpt lat="44.78762822869721" lon="11.959272879943095"><ele>4.0</ele><time>2026-03-28T13:53:00.006Z</time></trkpt><trkpt lat="44.78770234115026" lon="11.959501733785066"><ele>4.0</ele><time>2026-03-28T13:53:01.006Z</time></trkpt><trkpt lat="44.787775141498855" lon="11.959727855840352"><ele>4.0</ele><time>2026-03-28T13:53:02.006Z</time></trkpt><trkpt lat="44.78784781674804" lon="11.959953841840562"><ele>4.0</ele><time>2026-03-28T13:53:03.006Z</time></trkpt><trkpt lat="44.78792342652397" lon="11.960198318092102"><ele>4.0</ele><time>2026-03-28T13:53:04.006Z</time></trkpt><trkpt lat="44.78799974420408" lon="11.960445016586792"><ele>4.0</ele><time>2026-03-28T13:53:05.006Z</time></trkpt><trkpt lat="44.78807705657898" lon="11.960694930851655"><ele>4.0</ele><time>2026-03-28T13:53:06.006Z</time></trkpt><trkpt lat="44.78815394938155" lon="11.96094977191663"><ele>4.333333333333333</ele><time>2026-03-28T13:53:07.006Z</time></trkpt><trkpt lat="44.78822650845824" lon="11.961193845799677"><ele>4.666666666666667</ele><time>2026-03-28T13:53:08.006Z</time></trkpt><trkpt lat="44.78828909536718" lon="11.96142126819029"><ele>5.0</ele><time>2026-03-28T13:53:09.006Z</time></trkpt><trkpt lat="44.78834975422539" lon="11.961647793406664"><ele>4.666666666666667</ele><time>2026-03-28T13:53:10.006Z</time></trkpt><trkpt lat="44.78841447433094" lon="11.961877754872646"><ele>4.333333333333333</ele><time>2026-03-28T13:53:11.006Z</time></trkpt><trkpt lat="44.788478163778834" lon="11.962111365083489"><ele>4.0</ele><time>2026-03-28T13:53:12.006Z</time></trkpt><trkpt lat="44.788544486947394" lon="11.962349309143839"><ele>3.6666666666666665</ele><time>2026-03-28T13:53:13.006Z</time></trkpt><trkpt lat="44.788613157381945" lon="11.962592582694887"><ele>3.333333333333333</ele><time>2026-03-28T13:53:14.006Z</time></trkpt><trkpt lat="44.78868420548737" lon="11.962831729271787"><ele>3.0</ele><time>2026-03-28T13:53:15.006Z</time></trkpt><trkpt lat="44.788755784535155" lon="11.963074616177025"><ele>3.0</ele><time>2026-03-28T13:53:16.006Z</time></trkpt><trkpt lat="44.78883171686494" lon="11.963312255143224"><ele>3.0</ele><time>2026-03-28T13:53:17.006Z</time></trkpt><trkpt lat="44.788906538272734" lon="11.963553044958424"><ele>3.0</ele><time>2026-03-28T13:53:18.006Z</time></trkpt><trkpt lat="44.78898154805416" lon="11.963796818447497"><ele>2.6666666666666665</ele><time>2026-03-28T13:53:19.006Z</time></trkpt><trkpt lat="44.7890677698293" lon="11.964032499252173"><ele>2.333333333333333</ele><time>2026-03-28T13:53:20.006Z</time></trkpt><trkpt lat="44.78914937245931" lon="11.964267328654836"><ele>2.0</ele><time>2026-03-28T13:53:21.006Z</time></trkpt><trkpt lat="44.78922665349934" lon="11.964497075091568"><ele>2.0</ele><time>2026-03-28T13:53:22.006Z</time></trkpt><trkpt lat="44.78930641378892" lon="11.964717823357569"><ele>2.0</ele><time>2026-03-28T13:53:23.006Z</time></trkpt><trkpt lat="44.789387270349806" lon="11.964931625185551"><ele>2.0</ele><time>2026-03-28T13:53:24.006Z</time></trkpt><trkpt lat="44.7894671101661" lon="11.965137621435328"><ele>2.25</ele><time>2026-03-28T13:53:25.006Z</time></trkpt><trkpt lat="44.789535637731476" lon="11.965348720830496"><ele>2.5</ele><time>2026-03-28T13:53:26.006Z</time></trkpt><trkpt lat="44.78959188593172" lon="11.96551949633396"><ele>2.75</ele><time>2026-03-28T13:53:27.006Z</time></trkpt><trkpt lat="44.78964810733878" lon="11.965682379872606"><ele>3.0</ele><time>2026-03-28T13:53:28.006Z</time></trkpt><trkpt lat="44.789712727624874" lon="11.965817645497577"><ele>3.0</ele><time>2026-03-28T13:53:29.006Z</time></trkpt><trkpt lat="44.78973786848704" lon="11.96595380312483"><ele>3.0</ele><time>2026-03-28T13:53:30.006Z</time></trkpt><trkpt lat="44.78976247077481" lon="11.966084433505204"><ele>3.0</ele><time>2026-03-28T13:53:31.007Z</time></trkpt><trkpt lat="44.78976801067479" lon="11.966219399885338"><ele>3.0</ele><time>2026-03-28T13:53:32.008Z</time></trkpt><trkpt lat="44.789753550139515" lon="11.96637077614832"><ele>3.0</ele><time>2026-03-28T13:53:33.008Z</time></trkpt><trkpt lat="44.78971869058044" lon="11.966539147926095"><ele>2.3333333333333335</ele><time>2026-03-28T13:53:34.007Z</time></trkpt><trkpt lat="44.789662465051954" lon="11.96671667445635"><ele>1.6666666666666665</ele><time>2026-03-28T13:53:35.007Z</time></trkpt><trkpt lat="44.789593524701814" lon="11.966912441194065"><ele>1.0</ele><time>2026-03-28T13:53:36.007Z</time></trkpt><trkpt lat="44.78952707277114" lon="11.967124525393702"><ele>1.0</ele><time>2026-03-28T13:53:37.008Z</time></trkpt><trkpt lat="44.78946172346496" lon="11.967346350120971"><ele>1.0</ele><time>2026-03-28T13:53:38.008Z</time></trkpt><trkpt lat="44.78939287473901" lon="11.967569656680615"><ele>1.0</ele><time>2026-03-28T13:53:39.008Z</time></trkpt><trkpt lat="44.78932041552404" lon="11.96778596085212"><ele>0.0</ele><time>2026-03-28T13:53:40.007Z</time></trkpt><trkpt lat="44.7892483870343" lon="11.967998529139127"><ele>-1.0</ele><time>2026-03-28T13:53:41.008Z</time></trkpt><trkpt lat="44.78916317980361" lon="11.968191334499652"><ele>-2.0</ele><time>2026-03-28T13:53:42.008Z</time></trkpt><trkpt lat="44.78909889404592" lon="11.968373323507635"><ele>-2.0</ele><time>2026-03-28T13:53:43.008Z</time></trkpt><trkpt lat="44.78904869268351" lon="11.968537747807158"><ele>-2.0</ele><time>2026-03-28T13:53:44.007Z</time></trkpt><trkpt lat="44.78901809242644" lon="11.968711139755102"><ele>-2.0</ele><time>2026-03-28T13:53:45.007Z</time></trkpt><trkpt lat="44.788948546334346" lon="11.968900913839306"><ele>-2.0</ele><time>2026-03-28T13:53:46.007Z</time></trkpt><trkpt lat="44.78890452507282" lon="11.969112744400842"><ele>-1.6666666666666665</ele><time>2026-03-28T13:53:47.007Z</time></trkpt><trkpt lat="44.78886623211953" lon="11.969341020864377"><ele>-1.3333333333333333</ele><time>2026-03-28T13:53:48.007Z</time></trkpt><trkpt lat="44.78883537208883" lon="11.969580387072188"><ele>-1.0</ele><time>2026-03-28T13:53:49.007Z</time></trkpt><trkpt lat="44.78880652215085" lon="11.9698313656998"><ele>-1.0</ele><time>2026-03-28T13:53:50.007Z</time></trkpt><trkpt lat="44.78878645250518" lon="11.970089703968634"><ele>-1.0</ele><time>2026-03-28T13:53:51.007Z</time></trkpt><trkpt lat="44.78877459814285" lon="11.970364438554695"><ele>-1.0</ele><time>2026-03-28T13:53:52.007Z</time></trkpt><trkpt lat="44.78877485609177" lon="11.970655013308392"><ele>-1.6666666666666665</ele><time>2026-03-28T13:53:53.007Z</time></trkpt><trkpt lat="44.78878453205533" lon="11.970958501642952"><ele>-2.3333333333333335</ele><time>2026-03-28T13:53:54.007Z</time></trkpt><trkpt lat="44.78880394038963" lon="11.971273587656766"><ele>-3.0</ele><time>2026-03-28T13:53:55.007Z</time></trkpt><trkpt lat="44.78883314223451" lon="11.97159267117372"><ele>-3.0</ele><time>2026-03-28T13:53:56.007Z</time></trkpt><trkpt lat="44.78887533614652" lon="11.971913504708716"><ele>-3.0</ele><time>2026-03-28T13:53:57.007Z</time></trkpt><trkpt lat="44.78892276804035" lon="11.972228090886064"><ele>-2.5</ele><time>2026-03-28T13:53:58.007Z</time></trkpt><trkpt lat="44.78897879007076" lon="11.972534478390374"><ele>-2.0</ele><time>2026-03-28T13:53:59.007Z</time></trkpt><trkpt lat="44.789038052733645" lon="11.972841624280907"><ele>-2.0</ele><time>2026-03-28T13:54:00.007Z</time></trkpt><trkpt lat="44.78909025140723" lon="11.973147260385144"><ele>-2.0</ele><time>2026-03-28T13:54:01.007Z</time></trkpt><trkpt lat="44.789143679373844" lon="11.973439971140339"><ele>-2.0</ele><time>2026-03-28T13:54:02.007Z</time></trkpt><trkpt lat="44.7891980251048" lon="11.973732290487195"><ele>-2.0</ele><time>2026-03-28T13:54:03.007Z</time></trkpt><trkpt lat="44.789248705562315" lon="11.97402409401954"><ele>-2.0</ele><time>2026-03-28T13:54:04.007Z</time></trkpt><trkpt lat="44.7892854563431" lon="11.974317935338412"><ele>-2.0</ele><time>2026-03-28T13:54:05.007Z</time></trkpt><trkpt lat="44.78930335051169" lon="11.974590076467884"><ele>-2.0</ele><time>2026-03-28T13:54:06.007Z</time></trkpt><trkpt lat="44.78930904279615" lon="11.974846216903348"><ele>-2.0</ele><time>2026-03-28T13:54:07.007Z</time></trkpt><trkpt lat="44.789307528789045" lon="11.975082789393518"><ele>-2.0</ele><time>2026-03-28T13:54:08.007Z</time></trkpt><trkpt lat="44.78929319100974" lon="11.975307102972641"><ele>-2.333333333333333</ele><time>2026-03-28T13:54:09.007Z</time></trkpt><trkpt lat="44.78925866675584" lon="11.975521144680616"><ele>-2.6666666666666665</ele><time>2026-03-28T13:54:10.007Z</time></trkpt><trkpt lat="44.789212153551006" lon="11.975728987653838"><ele>-3.0</ele><time>2026-03-28T13:54:11.007Z</time></trkpt><trkpt lat="44.789166539210434" lon="11.975939543796395"><ele>-3.666666666666667</ele><time>2026-03-28T13:54:12.007Z</time></trkpt><trkpt lat="44.789139437131126" lon="11.976165753815806"><ele>-4.333333333333334</ele><time>2026-03-28T13:54:13.007Z</time></trkpt><trkpt lat="44.78912927449314" lon="11.97640572401021"><ele>-5.0</ele><time>2026-03-28T13:54:14.007Z</time></trkpt><trkpt lat="44.789137251259405" lon="11.976653668615581"><ele>-4.333333333333334</ele><time>2026-03-28T13:54:15.007Z</time></trkpt><trkpt lat="44.78915700586011" lon="11.97691357896067"><ele>-3.666666666666667</ele><time>2026-03-28T13:54:16.007Z</time></trkpt><trkpt lat="44.78917553616376" lon="11.977192568364943"><ele>-3.0</ele><time>2026-03-28T13:54:17.007Z</time></trkpt><trkpt lat="44.78919001670546" lon="11.977485235794788"><ele>-2.6666666666666665</ele><time>2026-03-28T13:54:18.007Z</time></trkpt><trkpt lat="44.789204957461806" lon="11.977782809602168"><ele>-2.333333333333333</ele><time>2026-03-28T13:54:19.007Z</time></trkpt><trkpt lat="44.78922031302884" lon="11.978090778390996"><ele>-2.0</ele><time>2026-03-28T13:54:20.007Z</time></trkpt><trkpt lat="44.78923376683187" lon="11.9784097186021"><ele>-2.0</ele><time>2026-03-28T13:54:21.007Z</time></trkpt><trkpt lat="44.78925156345918" lon="11.97873401335101"><ele>-2.0</ele><time>2026-03-28T13:54:22.007Z</time></trkpt><trkpt lat="44.78927345859812" lon="11.979067932361675"><ele>-2.5</ele><time>2026-03-28T13:54:23.007Z</time></trkpt><trkpt lat="44.78930461685345" lon="11.979403765607715"><ele>-3.0</ele><time>2026-03-28T13:54:24.007Z</time></trkpt><trkpt lat="44.789344184307815" lon="11.979739839794789"><ele>-1.5</ele><time>2026-03-28T13:54:25.007Z</time></trkpt><trkpt lat="44.78938844734031" lon="11.980071744998488"><ele>0.0</ele><time>2026-03-28T13:54:26.007Z</time></trkpt><trkpt lat="44.78943323250716" lon="11.980386989934646"><ele>0.0</ele><time>2026-03-28T13:54:27.007Z</time></trkpt><trkpt lat="44.78947569974148" lon="11.980677805948709"><ele>0.0</ele><time>2026-03-28T13:54:28.007Z</time></trkpt><trkpt lat="44.78951587000056" lon="11.980945871198994"><ele>0.0</ele><time>2026-03-28T13:54:29.007Z</time></trkpt><trkpt lat="44.789564763385115" lon="11.981189871776923"><ele>-0.3333333333333333</ele><time>2026-03-28T13:54:30.007Z</time></trkpt><trkpt lat="44.78962775372322" lon="11.981421213763133"><ele>-0.6666666666666666</ele><time>2026-03-28T13:54:31.007Z</time></trkpt><trkpt lat="44.78971775846007" lon="11.981657697775592"><ele>-1.0</ele><time>2026-03-28T13:54:32.007Z</time></trkpt><trkpt lat="44.789824223411564" lon="11.981889779585462"><ele>-1.0</ele><time>2026-03-28T13:54:33.007Z</time></trkpt><trkpt lat="44.789944891091864" lon="11.982101463937262"><ele>-1.0</ele><time>2026-03-28T13:54:34.007Z</time></trkpt><trkpt lat="44.79007867841503" lon="11.98230105743518"><ele>-1.0</ele><time>2026-03-28T13:54:35.007Z</time></trkpt><trkpt lat="44.79023142095021" lon="11.982478311079332"><ele>-1.3333333333333333</ele><time>2026-03-28T13:54:36.007Z</time></trkpt><trkpt lat="44.79039548758623" lon="11.982621399683103"><ele>-1.6666666666666665</ele><time>2026-03-28T13:54:37.007Z</time></trkpt><trkpt lat="44.79054830052141" lon="11.982735998140061"><ele>-2.0</ele><time>2026-03-28T13:54:38.007Z</time></trkpt><trkpt lat="44.790685339311956" lon="11.982825298418923"><ele>-2.0</ele><time>2026-03-28T13:54:39.007Z</time></trkpt><trkpt lat="44.79079564228247" lon="11.982892704718171"><ele>-2.0</ele><time>2026-03-28T13:54:40.007Z</time></trkpt><trkpt lat="44.790886198435075" lon="11.982947094690534"><ele>-2.0</ele><time>2026-03-28T13:54:41.007Z</time></trkpt><trkpt lat="44.79095265844717" lon="11.982995930284796"><ele>-2.0</ele><time>2026-03-28T13:54:42.007Z</time></trkpt><trkpt lat="44.79102871544259" lon="11.9830665682875"><ele>-2.0</ele><time>2026-03-28T13:54:44.007Z</time></trkpt><trkpt lat="44.79111328060366" lon="11.983134949677831"><ele>-2.0</ele><time>2026-03-28T13:54:47.007Z</time></trkpt><trkpt lat="44.79107353782093" lon="11.98334537629996"><ele>-2.0</ele><time>2026-03-28T13:54:49.007Z</time></trkpt><trkpt lat="44.79105082922078" lon="11.98349449729038"><ele>-2.0</ele><time>2026-03-28T13:54:50.007Z</time></trkpt><trkpt lat="44.790993427488836" lon="11.983655448399341"><ele>-2.0</ele><time>2026-03-28T13:54:51.007Z</time></trkpt><trkpt lat="44.79092403647509" lon="11.983793288570842"><ele>-2.0</ele><time>2026-03-28T13:54:52.007Z</time></trkpt><trkpt lat="44.79082824996791" lon="11.983911704010472"><ele>-2.0</ele><time>2026-03-28T13:54:53.007Z</time></trkpt><trkpt lat="44.79069500114706" lon="11.983974559142586"><ele>-2.0</ele><time>2026-03-28T13:54:54.007Z</time></trkpt><trkpt lat="44.79054213764019" lon="11.984044159184371"><ele>-2.0</ele><time>2026-03-28T13:54:55.006Z</time></trkpt><trkpt lat="44.79036745545937" lon="11.984113264869132"><ele>-2.0</ele><time>2026-03-28T13:54:56.006Z</time></trkpt><trkpt lat="44.79019044003672" lon="11.98418095512875"><ele>-2.0</ele><time>2026-03-28T13:54:57.006Z</time></trkpt><trkpt lat="44.79001617739749" lon="11.984254209954608"><ele>-2.0</ele><time>2026-03-28T13:54:58.006Z</time></trkpt><trkpt lat="44.789864748405286" lon="11.984352026999524"><ele>-1.75</ele><time>2026-03-28T13:54:59.006Z</time></trkpt><trkpt lat="44.78976411769282" lon="11.984512264172611"><ele>-1.5</ele><time>2026-03-28T13:55:00.006Z</time></trkpt><trkpt lat="44.78967621691084" lon="11.984667184478537"><ele>-1.25</ele><time>2026-03-28T13:55:01.006Z</time></trkpt><trkpt lat="44.78955835043323" lon="11.98476489810295"><ele>-1.0</ele><time>2026-03-28T13:55:02.006Z</time></trkpt><trkpt lat="44.78942965291026" lon="11.984890988211228"><ele>-1.3333333333333333</ele><time>2026-03-28T13:55:03.006Z</time></trkpt><trkpt lat="44.78927563334763" lon="11.985010321299809"><ele>-1.6666666666666665</ele><time>2026-03-28T13:55:04.006Z</time></trkpt><trkpt lat="44.789111289202665" lon="11.985147618373462"><ele>-2.0</ele><time>2026-03-28T13:55:05.006Z</time></trkpt><trkpt lat="44.78893757523706" lon="11.985292729453215"><ele>-2.0</ele><time>2026-03-28T13:55:06.006Z</time></trkpt><trkpt lat="44.78875600386581" lon="11.985438685165175"><ele>-2.0</ele><time>2026-03-28T13:55:07.006Z</time></trkpt><trkpt lat="44.78857030593669" lon="11.98558809768626"><ele>-2.0</ele><time>2026-03-28T13:55:08.006Z</time></trkpt><trkpt lat="44.78839276557592" lon="11.985742140740337"><ele>-2.0</ele><time>2026-03-28T13:55:09.006Z</time></trkpt><trkpt lat="44.78822179457755" lon="11.985887736553797"><ele>-2.0</ele><time>2026-03-28T13:55:10.006Z</time></trkpt><trkpt lat="44.788044365497015" lon="11.985989775196447"><ele>-2.0</ele><time>2026-03-28T13:55:11.006Z</time></trkpt><trkpt lat="44.78786445341635" lon="11.986080420985871"><ele>-2.0</ele><time>2026-03-28T13:55:12.006Z</time></trkpt><trkpt lat="44.78766664254616" lon="11.986137892158721"><ele>-2.0</ele><time>2026-03-28T13:55:13.006Z</time></trkpt><trkpt lat="44.78745795746191" lon="11.986167467916195"><ele>-2.0</ele><time>2026-03-28T13:55:14.006Z</time></trkpt><trkpt lat="44.787255454470305" lon="11.986181066864928"><ele>-2.0</ele><time>2026-03-28T13:55:15.006Z</time></trkpt><trkpt lat="44.78705662548349" lon="11.986168397193602"><ele>-2.0</ele><time>2026-03-28T13:55:16.006Z</time></trkpt><trkpt lat="44.78684998044389" lon="11.986123033091904"><ele>-2.0</ele><time>2026-03-28T13:55:17.006Z</time></trkpt><trkpt lat="44.786644685105536" lon="11.986066034397581"><ele>-2.0</ele><time>2026-03-28T13:55:18.006Z</time></trkpt><trkpt lat="44.786462286140534" lon="11.985986269979081"><ele>-2.0</ele><time>2026-03-28T13:55:19.006Z</time></trkpt><trkpt lat="44.7863064439088" lon="11.985870559720833"><ele>-2.0</ele><time>2026-03-28T13:55:20.006Z</time></trkpt><trkpt lat="44.78615102091561" lon="11.985727575718515"><ele>-2.0</ele><time>2026-03-28T13:55:21.006Z</time></trkpt><trkpt lat="44.785995506727424" lon="11.98558184180879"><ele>-2.0</ele><time>2026-03-28T13:55:22.006Z</time></trkpt><trkpt lat="44.785854647017565" lon="11.985449840751425"><ele>-2.0</ele><time>2026-03-28T13:55:23.006Z</time></trkpt><trkpt lat="44.78571255583886" lon="11.985318666317276"><ele>-2.0</ele><time>2026-03-28T13:55:24.006Z</time></trkpt><trkpt lat="44.785552102312586" lon="11.985217663673613"><ele>-2.0</ele><time>2026-03-28T13:55:25.006Z</time></trkpt><trkpt lat="44.78537969641139" lon="11.985168058784872"><ele>-2.0</ele><time>2026-03-28T13:55:26.006Z</time></trkpt><trkpt lat="44.78519575954722" lon="11.98513980059758"><ele>-2.0</ele><time>2026-03-28T13:55:27.006Z</time></trkpt><trkpt lat="44.78501149739452" lon="11.985135060429378"><ele>-2.0</ele><time>2026-03-28T13:55:28.006Z</time></trkpt><trkpt lat="44.784831634466755" lon="11.985195170535754"><ele>-2.0</ele><time>2026-03-28T13:55:29.006Z</time></trkpt><trkpt lat="44.78464971167087" lon="11.985286619347955"><ele>-2.0</ele><time>2026-03-28T13:55:30.006Z</time></trkpt><trkpt lat="44.78447971119718" lon="11.985419101791239"><ele>-2.0</ele><time>2026-03-28T13:55:31.006Z</time></trkpt><trkpt lat="44.78429966726098" lon="11.985580181229649"><ele>-2.0</ele><time>2026-03-28T13:55:32.006Z</time></trkpt><trkpt lat="44.78411326093657" lon="11.985739788007852"><ele>-2.0</ele><time>2026-03-28T13:55:33.006Z</time></trkpt><trkpt lat="44.78392776098153" lon="11.985887551772455"><ele>-2.0</ele><time>2026-03-28T13:55:34.006Z</time></trkpt><trkpt lat="44.78374527494695" lon="11.986033058784349"><ele>-2.0</ele><time>2026-03-28T13:55:35.006Z</time></trkpt><trkpt lat="44.78356811996949" lon="11.986175223991394"><ele>-1.6666666666666665</ele><time>2026-03-28T13:55:36.006Z</time></trkpt><trkpt lat="44.78339263523205" lon="11.9863198327001"><ele>-1.3333333333333333</ele><time>2026-03-28T13:55:37.008Z</time></trkpt><trkpt lat="44.78322428910676" lon="11.986457056736308"><ele>-1.0</ele><time>2026-03-28T13:55:38.008Z</time></trkpt><trkpt lat="44.78306351750216" lon="11.986588850449095"><ele>-0.6666666666666666</ele><time>2026-03-28T13:55:39.008Z</time></trkpt><trkpt lat="44.78291240988318" lon="11.986712940655638"><ele>-0.3333333333333333</ele><time>2026-03-28T13:55:40.008Z</time></trkpt><trkpt lat="44.78276599528398" lon="11.986832453444057"><ele>0.0</ele><time>2026-03-28T13:55:41.008Z</time></trkpt><trkpt lat="44.78262818544819" lon="11.986943239735801"><ele>0.0</ele><time>2026-03-28T13:55:42.007Z</time></trkpt><trkpt lat="44.782515802277764" lon="11.987038684252951"><ele>0.0</ele><time>2026-03-28T13:55:43.008Z</time></trkpt><trkpt lat="44.782412984305246" lon="11.987116163183739"><ele>0.0</ele><time>2026-03-28T13:55:44.008Z</time></trkpt><trkpt lat="44.78233407149724" lon="11.987168978428247"><ele>0.0</ele><time>2026-03-28T13:55:45.008Z</time></trkpt><trkpt lat="44.78227490693159" lon="11.987231114899169"><ele>0.0</ele><time>2026-03-28T13:55:46.008Z</time></trkpt><trkpt lat="44.782234930328045" lon="11.98731908035292"><ele>0.0</ele><time>2026-03-28T13:55:47.008Z</time></trkpt><trkpt lat="44.78221125949917" lon="11.987402821295092"><ele>0.0</ele><time>2026-03-28T13:55:48.008Z</time></trkpt><trkpt lat="44.78226764167845" lon="11.987533984312176"><ele>0.0</ele><time>2026-03-28T13:55:49.008Z</time></trkpt><trkpt lat="44.78233161395617" lon="11.987674770280574"><ele>0.0</ele><time>2026-03-28T13:55:50.008Z</time></trkpt><trkpt lat="44.78239081956242" lon="11.987814475579581"><ele>0.0</ele><time>2026-03-28T13:55:51.008Z</time></trkpt><trkpt lat="44.78243218596024" lon="11.98794411629435"><ele>-0.2</ele><time>2026-03-28T13:55:52.008Z</time></trkpt><trkpt lat="44.782441795906" lon="11.988066745067764"><ele>-0.4</ele><time>2026-03-28T13:55:53.008Z</time></trkpt><trkpt lat="44.78241694511712" lon="11.988177692826877"><ele>-0.6000000000000001</ele><time>2026-03-28T13:55:54.008Z</time></trkpt><trkpt lat="44.782333609001284" lon="11.9882476966271"><ele>-0.8</ele><time>2026-03-28T13:55:55.008Z</time></trkpt><trkpt lat="44.78222856901256" lon="11.988355467821744"><ele>-1.0</ele><time>2026-03-28T13:55:56.008Z</time></trkpt><trkpt lat="44.78209499721449" lon="11.988494545536486"><ele>-1.0</ele><time>2026-03-28T13:55:57.008Z</time></trkpt><trkpt lat="44.78195428042137" lon="11.988647478923063"><ele>-1.0</ele><time>2026-03-28T13:55:58.008Z</time></trkpt><trkpt lat="44.781814081940404" lon="11.988807443310577"><ele>-1.0</ele><time>2026-03-28T13:55:59.008Z</time></trkpt><trkpt lat="44.781657794081966" lon="11.988979432070233"><ele>-1.3333333333333333</ele><time>2026-03-28T13:56:00.008Z</time></trkpt><trkpt lat="44.78148428549415" lon="11.98915654797219"><ele>-1.6666666666666665</ele><time>2026-03-28T13:56:01.008Z</time></trkpt><trkpt lat="44.781308076628015" lon="11.98933954913258"><ele>-2.0</ele><time>2026-03-28T13:56:02.008Z</time></trkpt><trkpt lat="44.78112827814086" lon="11.989531795165437"><ele>-2.5</ele><time>2026-03-28T13:56:03.008Z</time></trkpt><trkpt lat="44.78094189671882" lon="11.989727430461025"><ele>-3.0</ele><time>2026-03-28T13:56:04.008Z</time></trkpt><trkpt lat="44.780753618931215" lon="11.989927222760022"><ele>-3.0</ele><time>2026-03-28T13:56:05.008Z</time></trkpt><trkpt lat="44.78056734479904" lon="11.990131215213644"><ele>-3.0</ele><time>2026-03-28T13:56:06.008Z</time></trkpt><trkpt lat="44.78038036540632" lon="11.990332824516763"><ele>-3.0</ele><time>2026-03-28T13:56:07.008Z</time></trkpt><trkpt lat="44.78019527665391" lon="11.990537871455372"><ele>-3.0</ele><time>2026-03-28T13:56:08.008Z</time></trkpt><trkpt lat="44.7800122424756" lon="11.990732039211812"><ele>-2.5</ele><time>2026-03-28T13:56:09.008Z</time></trkpt><trkpt lat="44.77982014739563" lon="11.99093489064073"><ele>-2.0</ele><time>2026-03-28T13:56:10.008Z</time></trkpt><trkpt lat="44.77962878492633" lon="11.991130455813858"><ele>-2.0</ele><time>2026-03-28T13:56:11.008Z</time></trkpt><trkpt lat="44.779440430772084" lon="11.99133319840287"><ele>-2.0</ele><time>2026-03-28T13:56:12.008Z</time></trkpt><trkpt lat="44.77924644872295" lon="11.991538451277629"><ele>-2.0</ele><time>2026-03-28T13:56:13.008Z</time></trkpt><trkpt lat="44.779050930156146" lon="11.99174804720367"><ele>-2.0</ele><time>2026-03-28T13:56:14.008Z</time></trkpt><trkpt lat="44.77885183360615" lon="11.99196565061459"><ele>-2.0</ele><time>2026-03-28T13:56:15.008Z</time></trkpt><trkpt lat="44.778657522227554" lon="11.992178305095358"><ele>-2.0</ele><time>2026-03-28T13:56:16.008Z</time></trkpt><trkpt lat="44.778450562464336" lon="11.992393276028018"><ele>-1.0</ele><time>2026-03-28T13:56:17.008Z</time></trkpt><trkpt lat="44.77824771977937" lon="11.992612176785439"><ele>0.0</ele><time>2026-03-28T13:56:18.008Z</time></trkpt><trkpt lat="44.77804943807963" lon="11.99283165184848"><ele>0.0</ele><time>2026-03-28T13:56:19.008Z</time></trkpt><trkpt lat="44.777846142967704" lon="11.993037712363561"><ele>0.0</ele><time>2026-03-28T13:56:20.008Z</time></trkpt><trkpt lat="44.777649184733825" lon="11.993245320078262"><ele>-0.5</ele><time>2026-03-28T13:56:21.008Z</time></trkpt><trkpt lat="44.777456108703284" lon="11.993453884099422"><ele>-1.0</ele><time>2026-03-28T13:56:22.008Z</time></trkpt><trkpt lat="44.77726723030548" lon="11.993654102754574"><ele>-1.0</ele><time>2026-03-28T13:56:23.008Z</time></trkpt><trkpt lat="44.777086202830354" lon="11.993848930989392"><ele>-1.0</ele><time>2026-03-28T13:56:24.008Z</time></trkpt><trkpt lat="44.77691070679966" lon="11.99404089688533"><ele>-1.3333333333333333</ele><time>2026-03-28T13:56:25.008Z</time></trkpt><trkpt lat="44.77675048760767" lon="11.994215658344931"><ele>-1.6666666666666665</ele><time>2026-03-28T13:56:26.008Z</time></trkpt><trkpt lat="44.77660179341525" lon="11.99437247632376"><ele>-2.0</ele><time>2026-03-28T13:56:27.008Z</time></trkpt><trkpt lat="44.776478167761745" lon="11.994513594632686"><ele>-2.0</ele><time>2026-03-28T13:56:28.008Z</time></trkpt><trkpt lat="44.77636091837126" lon="11.99465850941618"><ele>-2.0</ele><time>2026-03-28T13:56:29.008Z</time></trkpt><trkpt lat="44.77625142162432" lon="11.994779533551442"><ele>-2.0</ele><time>2026-03-28T13:56:30.008Z</time></trkpt><trkpt lat="44.776171663707785" lon="11.994845210877113"><ele>-2.0</ele><time>2026-03-28T13:56:31.008Z</time></trkpt><trkpt lat="44.77610075213923" lon="11.994883004277355"><ele>-2.25</ele><time>2026-03-28T13:56:32.008Z</time></trkpt><trkpt lat="44.77594848327214" lon="11.994768075130139"><ele>-2.5</ele><time>2026-03-28T13:56:34.008Z</time></trkpt><trkpt lat="44.77583946451012" lon="11.994711360817838"><ele>-2.75</ele><time>2026-03-28T13:56:35.008Z</time></trkpt><trkpt lat="44.77571272831517" lon="11.994646918431286"><ele>-3.0</ele><time>2026-03-28T13:56:36.008Z</time></trkpt><trkpt lat="44.77555992138987" lon="11.994571345165834"><ele>-3.0</ele><time>2026-03-28T13:56:37.008Z</time></trkpt><trkpt lat="44.77538340876438" lon="11.99450682279184"><ele>-3.0</ele><time>2026-03-28T13:56:38.008Z</time></trkpt><trkpt lat="44.7752107877452" lon="11.994408228981559"><ele>-3.0</ele><time>2026-03-28T13:56:39.008Z</time></trkpt><trkpt lat="44.77502719738789" lon="11.994309843813756"><ele>-3.0</ele><time>2026-03-28T13:56:40.008Z</time></trkpt><trkpt lat="44.77482814216754" lon="11.994219194823712"><ele>-3.0</ele><time>2026-03-28T13:56:41.008Z</time></trkpt><trkpt lat="44.77462277151664" lon="11.994120265000799"><ele>-3.0</ele><time>2026-03-28T13:56:42.008Z</time></trkpt><trkpt lat="44.774415887318256" lon="11.994013016024414"><ele>-3.0</ele><time>2026-03-28T13:56:43.008Z</time></trkpt><trkpt lat="44.774196728712404" lon="11.99390553519042"><ele>-3.0</ele><time>2026-03-28T13:56:44.008Z</time></trkpt><trkpt lat="44.77397597757625" lon="11.993807573386567"><ele>-3.0</ele><time>2026-03-28T13:56:45.008Z</time></trkpt><trkpt lat="44.77376814402615" lon="11.993706473681929"><ele>-3.0</ele><time>2026-03-28T13:56:46.008Z</time></trkpt><trkpt lat="44.77355940050925" lon="11.993603548019736"><ele>-3.0</ele><time>2026-03-28T13:56:47.008Z</time></trkpt><trkpt lat="44.77335735426807" lon="11.993510023778775"><ele>-3.0</ele><time>2026-03-28T13:56:48.008Z</time></trkpt><trkpt lat="44.77316115141965" lon="11.99341472927538"><ele>-3.0</ele><time>2026-03-28T13:56:49.008Z</time></trkpt><trkpt lat="44.77297427558678" lon="11.993321249494455"><ele>-3.0</ele><time>2026-03-28T13:56:50.008Z</time></trkpt><trkpt lat="44.772794342838374" lon="11.993228178312908"><ele>-2.6666666666666665</ele><time>2026-03-28T13:56:51.008Z</time></trkpt><trkpt lat="44.772618393275685" lon="11.993139648672663"><ele>-2.333333333333333</ele><time>2026-03-28T13:56:52.008Z</time></trkpt><trkpt lat="44.772449973600594" lon="11.993053529568021"><ele>-2.0</ele><time>2026-03-28T13:56:53.008Z</time></trkpt><trkpt lat="44.77227595965346" lon="11.992974596934985"><ele>-2.0</ele><time>2026-03-28T13:56:54.008Z</time></trkpt><trkpt lat="44.772109507514976" lon="11.99288789174068"><ele>-2.0</ele><time>2026-03-28T13:56:55.008Z</time></trkpt><trkpt lat="44.7719453972108" lon="11.992804756719408"><ele>-2.0</ele><time>2026-03-28T13:56:56.008Z</time></trkpt><trkpt lat="44.77178442614972" lon="11.992722016789376"><ele>-2.0</ele><time>2026-03-28T13:56:57.008Z</time></trkpt><trkpt lat="44.771627104638576" lon="11.992644451094662"><ele>-2.0</ele><time>2026-03-28T13:56:58.008Z</time></trkpt><trkpt lat="44.771467298137125" lon="11.992565221739554"><ele>-2.0</ele><time>2026-03-28T13:56:59.008Z</time></trkpt><trkpt lat="44.77130120022443" lon="11.992489875517395"><ele>-2.0</ele><time>2026-03-28T13:57:00.008Z</time></trkpt><trkpt lat="44.77112477009153" lon="11.992409104084153"><ele>-2.0</ele><time>2026-03-28T13:57:01.008Z</time></trkpt><trkpt lat="44.77093729247951" lon="11.992316274244436"><ele>-2.0</ele><time>2026-03-28T13:57:02.008Z</time></trkpt><trkpt lat="44.770738196701544" lon="11.992219599477687"><ele>-2.0</ele><time>2026-03-28T13:57:03.008Z</time></trkpt><trkpt lat="44.770535973266966" lon="11.992119568849878"><ele>-2.0</ele><time>2026-03-28T13:57:04.008Z</time></trkpt><trkpt lat="44.770333101090245" lon="11.992016640969696"><ele>-2.0</ele><time>2026-03-28T13:57:05.008Z</time></trkpt><trkpt lat="44.77011937811656" lon="11.991912887169503"><ele>-2.0</ele><time>2026-03-28T13:57:06.008Z</time></trkpt><trkpt lat="44.7699014249665" lon="11.991805895084694"><ele>-2.0</ele><time>2026-03-28T13:57:07.008Z</time></trkpt><trkpt lat="44.76968209585383" lon="11.991694851107182"><ele>-2.0</ele><time>2026-03-28T13:57:08.008Z</time></trkpt><trkpt lat="44.76945805932297" lon="11.991581593126288"><ele>-2.0</ele><time>2026-03-28T13:57:09.008Z</time></trkpt><trkpt lat="44.769232720651274" lon="11.991472722662092"><ele>-2.0</ele><time>2026-03-28T13:57:10.008Z</time></trkpt><trkpt lat="44.76901408019869" lon="11.991365428948379"><ele>-2.0</ele><time>2026-03-28T13:57:11.008Z</time></trkpt><trkpt lat="44.768794829943985" lon="11.991254460563999"><ele>-2.0</ele><time>2026-03-28T13:57:12.008Z</time></trkpt><trkpt lat="44.76858651000973" lon="11.99115576298724"><ele>-2.0</ele><time>2026-03-28T13:57:13.008Z</time></trkpt><trkpt lat="44.768387899308024" lon="11.991055247713986"><ele>-2.0</ele><time>2026-03-28T13:57:14.008Z</time></trkpt><trkpt lat="44.76819668294845" lon="11.990954710719636"><ele>-2.0</ele><time>2026-03-28T13:57:15.008Z</time></trkpt><trkpt lat="44.76801360521314" lon="11.99086583357158"><ele>-2.0</ele><time>2026-03-28T13:57:16.008Z</time></trkpt><trkpt lat="44.76783907688055" lon="11.990782068015667"><ele>-2.0</ele><time>2026-03-28T13:57:17.008Z</time></trkpt><trkpt lat="44.7676722935308" lon="11.990705401252331"><ele>-2.0</ele><time>2026-03-28T13:57:18.008Z</time></trkpt><trkpt lat="44.76751972121559" lon="11.990630563635547"><ele>-2.0</ele><time>2026-03-28T13:57:19.008Z</time></trkpt><trkpt lat="44.76737886185417" lon="11.990558606123352"><ele>-2.0</ele><time>2026-03-28T13:57:20.008Z</time></trkpt><trkpt lat="44.76725103908261" lon="11.990488653316048"><ele>-2.0</ele><time>2026-03-28T13:57:21.008Z</time></trkpt><trkpt lat="44.76713218988064" lon="11.990430255268508"><ele>-2.0</ele><time>2026-03-28T13:57:22.008Z</time></trkpt><trkpt lat="44.76702462594838" lon="11.990401557398705"><ele>-2.0</ele><time>2026-03-28T13:57:23.008Z</time></trkpt><trkpt lat="44.766921798724766" lon="11.990366375888868"><ele>-2.0</ele><time>2026-03-28T13:57:24.008Z</time></trkpt><trkpt lat="44.7668010539666" lon="11.990439710483583"><ele>-2.0</ele><time>2026-03-28T13:57:25.008Z</time></trkpt><trkpt lat="44.76667418413586" lon="11.990535032601334"><ele>-1.6666666666666665</ele><time>2026-03-28T13:57:26.008Z</time></trkpt><trkpt lat="44.76652239086043" lon="11.990662731929783"><ele>-1.3333333333333333</ele><time>2026-03-28T13:57:27.008Z</time></trkpt><trkpt lat="44.766351986190045" lon="11.99079298090757"><ele>-1.0</ele><time>2026-03-28T13:57:28.008Z</time></trkpt><trkpt lat="44.766173284344134" lon="11.990924673252394"><ele>-1.0</ele><time>2026-03-28T13:57:29.008Z</time></trkpt><trkpt lat="44.76599924791538" lon="11.991045989041828"><ele>-1.0</ele><time>2026-03-28T13:57:30.008Z</time></trkpt><trkpt lat="44.765830256898774" lon="11.991159009775478"><ele>-1.0</ele><time>2026-03-28T13:57:31.008Z</time></trkpt><trkpt lat="44.765688573574145" lon="11.991268244324472"><ele>-1.0</ele><time>2026-03-28T13:57:32.008Z</time></trkpt><trkpt lat="44.765552062750416" lon="11.991365114169312"><ele>-1.0</ele><time>2026-03-28T13:57:33.008Z</time></trkpt><trkpt lat="44.76543232119701" lon="11.991450118076699"><ele>-1.0</ele><time>2026-03-28T13:57:34.008Z</time></trkpt><trkpt lat="44.765330946937205" lon="11.991533284199477"><ele>-1.0</ele><time>2026-03-28T13:57:35.008Z</time></trkpt><trkpt lat="44.76524295110577" lon="11.991605134572655"><ele>-1.4</ele><time>2026-03-28T13:57:36.008Z</time></trkpt><trkpt lat="44.76518540582953" lon="11.991668376082744"><ele>-1.8</ele><time>2026-03-28T13:57:37.008Z</time></trkpt><trkpt lat="44.76513703014873" lon="11.991750069725512"><ele>-2.1999999999999997</ele><time>2026-03-28T13:57:38.008Z</time></trkpt><trkpt lat="44.76509451086107" lon="11.991853975235426"><ele>-2.6</ele><time>2026-03-28T13:57:39.008Z</time></trkpt><trkpt lat="44.765049768811174" lon="11.99199249235823"><ele>-3.0</ele><time>2026-03-28T13:57:40.008Z</time></trkpt><trkpt lat="44.76499487353891" lon="11.992195094363783"><ele>-3.333333333333333</ele><time>2026-03-28T13:57:41.008Z</time></trkpt><trkpt lat="44.76493769498444" lon="11.992439195039163"><ele>-3.6666666666666665</ele><time>2026-03-28T13:57:42.008Z</time></trkpt><trkpt lat="44.76487761147631" lon="11.992705875591936"><ele>-4.0</ele><time>2026-03-28T13:57:43.009Z</time></trkpt><trkpt lat="44.76481130026588" lon="11.992984929311802"><ele>-4.0</ele><time>2026-03-28T13:57:44.009Z</time></trkpt><trkpt lat="44.764736921648634" lon="11.993272154804258"><ele>-4.0</ele><time>2026-03-28T13:57:45.009Z</time></trkpt><trkpt lat="44.764661679250224" lon="11.993571488702468"><ele>-4.0</ele><time>2026-03-28T13:57:46.008Z</time></trkpt><trkpt lat="44.76458143600444" lon="11.993881860059226"><ele>-4.5</ele><time>2026-03-28T13:57:47.008Z</time></trkpt><trkpt lat="44.76450000206975" lon="11.994202559738369"><ele>-5.0</ele><time>2026-03-28T13:57:48.008Z</time></trkpt><trkpt lat="44.76441551240895" lon="11.994532797045792"><ele>-5.0</ele><time>2026-03-28T13:57:49.009Z</time></trkpt><trkpt lat="44.76432881004845" lon="11.99486449524245"><ele>-5.0</ele><time>2026-03-28T13:57:50.009Z</time></trkpt><trkpt lat="44.7642408069814" lon="11.995196847851979"><ele>-5.0</ele><time>2026-03-28T13:57:51.009Z</time></trkpt><trkpt lat="44.76415239853476" lon="11.995524717691879"><ele>-5.0</ele><time>2026-03-28T13:57:52.009Z</time></trkpt><trkpt lat="44.7640638182863" lon="11.995856355608034"><ele>-4.5</ele><time>2026-03-28T13:57:53.009Z</time></trkpt><trkpt lat="44.76397792825646" lon="11.996187065257429"><ele>-4.0</ele><time>2026-03-28T13:57:54.009Z</time></trkpt><trkpt lat="44.76389262226948" lon="11.996512931191475"><ele>-3.0</ele><time>2026-03-28T13:57:55.009Z</time></trkpt><trkpt lat="44.763808314150104" lon="11.996827625269422"><ele>-2.0</ele><time>2026-03-28T13:57:56.008Z</time></trkpt><trkpt lat="44.763727215418015" lon="11.997141300247884"><ele>-2.0</ele><time>2026-03-28T13:57:57.008Z</time></trkpt><trkpt lat="44.76364328177691" lon="11.99744940736525"><ele>-2.0</ele><time>2026-03-28T13:57:58.008Z</time></trkpt><trkpt lat="44.76356662028802" lon="11.997756777395718"><ele>-2.5</ele><time>2026-03-28T13:57:59.008Z</time></trkpt><trkpt lat="44.76348387885987" lon="11.998063496774225"><ele>-3.0</ele><time>2026-03-28T13:58:00.008Z</time></trkpt><trkpt lat="44.763400228461045" lon="11.998375682724033"><ele>-3.0</ele><time>2026-03-28T13:58:01.008Z</time></trkpt><trkpt lat="44.76331592238589" lon="11.998693604566677"><ele>-3.0</ele><time>2026-03-28T13:58:02.008Z</time></trkpt><trkpt lat="44.76323041725071" lon="11.999014043094792"><ele>-3.0</ele><time>2026-03-28T13:58:03.008Z</time></trkpt><trkpt lat="44.76314812127206" lon="11.999329338995908"><ele>-3.0</ele><time>2026-03-28T13:58:04.008Z</time></trkpt><trkpt lat="44.76306562095425" lon="11.999643330900483"><ele>-3.0</ele><time>2026-03-28T13:58:05.008Z</time></trkpt><trkpt lat="44.762983251064895" lon="11.999961738341039"><ele>-3.0</ele><time>2026-03-28T13:58:06.008Z</time></trkpt><trkpt lat="44.762905616928485" lon="12.00028221196367"><ele>-3.0</ele><time>2026-03-28T13:58:07.008Z</time></trkpt><trkpt lat="44.762821151754416" lon="12.000606336935185"><ele>-3.0</ele><time>2026-03-28T13:58:08.008Z</time></trkpt><trkpt lat="44.762730592686424" lon="12.000941713235905"><ele>-3.5</ele><time>2026-03-28T13:58:09.008Z</time></trkpt><trkpt lat="44.76264318812367" lon="12.00128448138101"><ele>-4.0</ele><time>2026-03-28T13:58:10.008Z</time></trkpt><trkpt lat="44.762555208096984" lon="12.001632004111025"><ele>-4.5</ele><time>2026-03-28T13:58:11.008Z</time></trkpt><trkpt lat="44.7624587164034" lon="12.001990414921538"><ele>-5.0</ele><time>2026-03-28T13:58:12.008Z</time></trkpt><trkpt lat="44.762369337034016" lon="12.002346300791748"><ele>-5.0</ele><time>2026-03-28T13:58:13.008Z</time></trkpt><trkpt lat="44.762271891983005" lon="12.002718629899856"><ele>-5.0</ele><time>2026-03-28T13:58:14.008Z</time></trkpt><trkpt lat="44.762177705623714" lon="12.003064617369098"><ele>-5.0</ele><time>2026-03-28T13:58:15.008Z</time></trkpt><trkpt lat="44.76208888627952" lon="12.00342208157142"><ele>-5.0</ele><time>2026-03-28T13:58:16.008Z</time></trkpt><trkpt lat="44.762000169787136" lon="12.003777654270245"><ele>-5.0</ele><time>2026-03-28T13:58:17.008Z</time></trkpt><trkpt lat="44.7618901770997" lon="12.004123960443119"><ele>-5.0</ele><time>2026-03-28T13:58:18.008Z</time></trkpt><trkpt lat="44.761801720379474" lon="12.00448151085424"><ele>-4.0</ele><time>2026-03-28T13:58:19.008Z</time></trkpt><trkpt lat="44.76171400948445" lon="12.004826408285089"><ele>-3.0</ele><time>2026-03-28T13:58:20.008Z</time></trkpt><trkpt lat="44.76163150035271" lon="12.005175395160741"><ele>-3.0</ele><time>2026-03-28T13:58:21.008Z</time></trkpt><trkpt lat="44.761539687058395" lon="12.005503748942383"><ele>-3.0</ele><time>2026-03-28T13:58:22.008Z</time></trkpt><trkpt lat="44.761457614819754" lon="12.005841503900669"><ele>-3.0</ele><time>2026-03-28T13:58:23.008Z</time></trkpt><trkpt lat="44.76136207221258" lon="12.006180048386367"><ele>-3.0</ele><time>2026-03-28T13:58:24.008Z</time></trkpt><trkpt lat="44.76127400492991" lon="12.006519474125938"><ele>-3.0</ele><time>2026-03-28T13:58:25.008Z</time></trkpt><trkpt lat="44.761207930318434" lon="12.006882481880806"><ele>-3.0</ele><time>2026-03-28T13:58:26.008Z</time></trkpt><trkpt lat="44.76110880437755" lon="12.007232182783964"><ele>-3.5</ele><time>2026-03-28T13:58:27.008Z</time></trkpt><trkpt lat="44.76100922013491" lon="12.00758749756181"><ele>-4.0</ele><time>2026-03-28T13:58:28.008Z</time></trkpt><trkpt lat="44.760912497015305" lon="12.007946641955805"><ele>-4.0</ele><time>2026-03-28T13:58:29.008Z</time></trkpt><trkpt lat="44.76082134669168" lon="12.00829420180654"><ele>-4.0</ele><time>2026-03-28T13:58:30.008Z</time></trkpt><trkpt lat="44.76074097378966" lon="12.008620147014843"><ele>-3.6666666666666665</ele><time>2026-03-28T13:58:31.008Z</time></trkpt><trkpt lat="44.76065632049769" lon="12.008919617177728"><ele>-3.333333333333333</ele><time>2026-03-28T13:58:32.008Z</time></trkpt><trkpt lat="44.76058102230018" lon="12.009189629531237"><ele>-3.0</ele><time>2026-03-28T13:58:33.008Z</time></trkpt><trkpt lat="44.7605137677197" lon="12.009444742398935"><ele>-2.6666666666666665</ele><time>2026-03-28T13:58:34.008Z</time></trkpt><trkpt lat="44.760453484651876" lon="12.009679736609181"><ele>-2.333333333333333</ele><time>2026-03-28T13:58:35.008Z</time></trkpt><trkpt lat="44.76039800562193" lon="12.009893596039474"><ele>-2.0</ele><time>2026-03-28T13:58:36.008Z</time></trkpt><trkpt lat="44.76034954631959" lon="12.010058996547166"><ele>-2.0</ele><time>2026-03-28T13:58:37.008Z</time></trkpt><trkpt lat="44.760317676961456" lon="12.010178527216468"><ele>-2.0</ele><time>2026-03-28T13:58:38.008Z</time></trkpt><trkpt lat="44.76029213268459" lon="12.010278737917583"><ele>-2.0</ele><time>2026-03-28T13:58:39.008Z</time></trkpt><trkpt lat="44.7602613087069" lon="12.010409295424207"><ele>-2.0</ele><time>2026-03-28T13:58:41.008Z</time></trkpt><trkpt lat="44.76019940862192" lon="12.010483692797242"><ele>-2.0</ele><time>2026-03-28T13:58:44.008Z</time></trkpt><trkpt lat="44.760062513513354" lon="12.010436957772678"><ele>-2.0</ele><time>2026-03-28T13:58:46.008Z</time></trkpt><trkpt lat="44.759977287467365" lon="12.010382203808796"><ele>-2.0</ele><time>2026-03-28T13:58:47.008Z</time></trkpt><trkpt lat="44.7598743719989" lon="12.010337970637876"><ele>-2.0</ele><time>2026-03-28T13:58:48.008Z</time></trkpt><trkpt lat="44.75976784399385" lon="12.010319201711148"><ele>-2.0</ele><time>2026-03-28T13:58:49.008Z</time></trkpt><trkpt lat="44.759652778731684" lon="12.01031518339087"><ele>-2.0</ele><time>2026-03-28T13:58:50.008Z</time></trkpt><trkpt lat="44.759563486243145" lon="12.010411909186082"><ele>-2.0</ele><time>2026-03-28T13:58:51.008Z</time></trkpt><trkpt lat="44.75947612313781" lon="12.010539845231857"><ele>-2.0</ele><time>2026-03-28T13:58:52.008Z</time></trkpt><trkpt lat="44.75940141463652" lon="12.01072241286547"><ele>-2.0</ele><time>2026-03-28T13:58:53.008Z</time></trkpt><trkpt lat="44.75932678047403" lon="12.010941653294411"><ele>-2.0</ele><time>2026-03-28T13:58:54.008Z</time></trkpt><trkpt lat="44.75925311725252" lon="12.011186756060976"><ele>-1.6666666666666665</ele><time>2026-03-28T13:58:55.008Z</time></trkpt><trkpt lat="44.75917695831246" lon="12.011408453966695"><ele>-1.3333333333333333</ele><time>2026-03-28T13:58:56.008Z</time></trkpt><trkpt lat="44.75910991367951" lon="12.011616632012938"><ele>-1.0</ele><time>2026-03-28T13:58:57.008Z</time></trkpt><trkpt lat="44.75903248403397" lon="12.011808360986466"><ele>-1.5</ele><time>2026-03-28T13:58:58.008Z</time></trkpt><trkpt lat="44.75895490004622" lon="12.011973479045801"><ele>-2.0</ele><time>2026-03-28T13:58:59.008Z</time></trkpt><trkpt lat="44.75885966641204" lon="12.01208471352209"><ele>-2.5</ele><time>2026-03-28T13:59:00.008Z</time></trkpt><trkpt lat="44.75875601413911" lon="12.012170313510131"><ele>-3.0</ele><time>2026-03-28T13:59:01.008Z</time></trkpt><trkpt lat="44.75863245732532" lon="12.012234419909037"><ele>-3.0</ele><time>2026-03-28T13:59:02.008Z</time></trkpt><trkpt lat="44.758480577432195" lon="12.012285521310607"><ele>-3.0</ele><time>2026-03-28T13:59:03.008Z</time></trkpt><trkpt lat="44.758305347819025" lon="12.012316984048645"><ele>-3.0</ele><time>2026-03-28T13:59:04.008Z</time></trkpt><trkpt lat="44.75811999666467" lon="12.012331899624973"><ele>-3.0</ele><time>2026-03-28T13:59:05.008Z</time></trkpt><trkpt lat="44.75794495966596" lon="12.012340832155747"><ele>-3.0</ele><time>2026-03-28T13:59:06.008Z</time></trkpt><trkpt lat="44.75778783186298" lon="12.012348656496883"><ele>-3.0</ele><time>2026-03-28T13:59:07.008Z</time></trkpt><trkpt lat="44.757649040509115" lon="12.01233990212008"><ele>-3.25</ele><time>2026-03-28T13:59:08.008Z</time></trkpt><trkpt lat="44.757525770570076" lon="12.012302693171366"><ele>-3.5</ele><time>2026-03-28T13:59:09.008Z</time></trkpt><trkpt lat="44.75737806975739" lon="12.012336668246293"><ele>-3.75</ele><time>2026-03-28T13:59:10.008Z</time></trkpt><trkpt lat="44.75725571648925" lon="12.012239974227638"><ele>-4.0</ele><time>2026-03-28T13:59:11.008Z</time></trkpt><trkpt lat="44.75713604791341" lon="12.012124263460617"><ele>-4.0</ele><time>2026-03-28T13:59:12.008Z</time></trkpt><trkpt lat="44.75702886371584" lon="12.01198950034921"><ele>-4.0</ele><time>2026-03-28T13:59:13.008Z</time></trkpt><trkpt lat="44.75691336090819" lon="12.011882839592987"><ele>-4.0</ele><time>2026-03-28T13:59:14.008Z</time></trkpt><trkpt lat="44.756821666696794" lon="12.011822223353844"><ele>-4.0</ele><time>2026-03-28T13:59:15.008Z</time></trkpt><trkpt lat="44.75673958523336" lon="12.011805175580466"><ele>-3.5</ele><time>2026-03-28T13:59:16.008Z</time></trkpt><trkpt lat="44.756644427126766" lon="12.0118654642339"><ele>-3.0</ele><time>2026-03-28T13:59:17.008Z</time></trkpt><trkpt lat="44.75653558673077" lon="12.012003738810522"><ele>-2.5</ele><time>2026-03-28T13:59:18.008Z</time></trkpt><trkpt lat="44.75643446642345" lon="12.012160314477441"><ele>-2.0</ele><time>2026-03-28T13:59:19.008Z</time></trkpt><trkpt lat="44.756346166585715" lon="12.012339911058227"><ele>-2.333333333333333</ele><time>2026-03-28T13:59:20.008Z</time></trkpt><trkpt lat="44.75625374495211" lon="12.012539521294086"><ele>-2.6666666666666665</ele><time>2026-03-28T13:59:21.008Z</time></trkpt><trkpt lat="44.75616153163133" lon="12.012733671238527"><ele>-3.0</ele><time>2026-03-28T13:59:22.008Z</time></trkpt><trkpt lat="44.75607163236628" lon="12.012892050262623"><ele>-2.75</ele><time>2026-03-28T13:59:23.008Z</time></trkpt><trkpt lat="44.75598272464886" lon="12.013026918575788"><ele>-2.5</ele><time>2026-03-28T13:59:24.008Z</time></trkpt><trkpt lat="44.75586045192675" lon="12.013106800170847"><ele>-2.25</ele><time>2026-03-28T13:59:25.008Z</time></trkpt><trkpt lat="44.75573540117566" lon="12.013191294135778"><ele>-2.0</ele><time>2026-03-28T13:59:26.008Z</time></trkpt><trkpt lat="44.75558598593506" lon="12.013289162914164"><ele>-2.333333333333333</ele><time>2026-03-28T13:59:27.008Z</time></trkpt><trkpt lat="44.75543134628705" lon="12.01338957578245"><ele>-2.6666666666666665</ele><time>2026-03-28T13:59:28.008Z</time></trkpt><trkpt lat="44.755259344905646" lon="12.013502423646234"><ele>-3.0</ele><time>2026-03-28T13:59:29.008Z</time></trkpt><trkpt lat="44.755079620506336" lon="12.013620338497592"><ele>-3.333333333333333</ele><time>2026-03-28T13:59:30.008Z</time></trkpt><trkpt lat="44.754902357333336" lon="12.013736388194445"><ele>-3.6666666666666665</ele><time>2026-03-28T13:59:31.008Z</time></trkpt><trkpt lat="44.75471413847367" lon="12.01385352181123"><ele>-4.0</ele><time>2026-03-28T13:59:32.008Z</time></trkpt><trkpt lat="44.75452444154063" lon="12.01398783562307"><ele>-4.333333333333333</ele><time>2026-03-28T13:59:33.008Z</time></trkpt><trkpt lat="44.75432522420593" lon="12.014114444469381"><ele>-4.666666666666667</ele><time>2026-03-28T13:59:34.008Z</time></trkpt><trkpt lat="44.754118819502786" lon="12.014254336043269"><ele>-5.0</ele><time>2026-03-28T13:59:35.008Z</time></trkpt><trkpt lat="44.753895758518155" lon="12.014393064522649"><ele>-4.0</ele><time>2026-03-28T13:59:36.008Z</time></trkpt><trkpt lat="44.753690386896785" lon="12.014532023606101"><ele>-3.0</ele><time>2026-03-28T13:59:37.008Z</time></trkpt><trkpt lat="44.75348156812704" lon="12.01467522866706"><ele>-3.0</ele><time>2026-03-28T13:59:38.008Z</time></trkpt><trkpt lat="44.7532676744647" lon="12.014826079826772"><ele>-3.0</ele><time>2026-03-28T13:59:39.008Z</time></trkpt><trkpt lat="44.75305288308464" lon="12.014969049782877"><ele>-2.5</ele><time>2026-03-28T13:59:40.008Z</time></trkpt><trkpt lat="44.75283892947546" lon="12.015115917445133"><ele>-2.0</ele><time>2026-03-28T13:59:41.008Z</time></trkpt><trkpt lat="44.75263061397845" lon="12.01525800270646"><ele>-2.6666666666666665</ele><time>2026-03-28T13:59:42.008Z</time></trkpt><trkpt lat="44.75242904985828" lon="12.015389554492144"><ele>-3.333333333333333</ele><time>2026-03-28T13:59:43.008Z</time></trkpt><trkpt lat="44.75223046471611" lon="12.015530395300846"><ele>-4.0</ele><time>2026-03-28T13:59:44.008Z</time></trkpt><trkpt lat="44.75203827884325" lon="12.015659083254489"><ele>-4.0</ele><time>2026-03-28T13:59:45.008Z</time></trkpt><trkpt lat="44.75184042273831" lon="12.015795148283997"><ele>-4.0</ele><time>2026-03-28T13:59:46.008Z</time></trkpt><trkpt lat="44.75163923088823" lon="12.015931519113733"><ele>-4.0</ele><time>2026-03-28T13:59:47.008Z</time></trkpt><trkpt lat="44.75143778974754" lon="12.016053970391845"><ele>-4.0</ele><time>2026-03-28T13:59:48.008Z</time></trkpt><trkpt lat="44.751234512433534" lon="12.016179006791234"><ele>-4.0</ele><time>2026-03-28T13:59:49.009Z</time></trkpt><trkpt lat="44.751021608832104" lon="12.016315857807827"><ele>-4.0</ele><time>2026-03-28T13:59:50.009Z</time></trkpt><trkpt lat="44.750806980312326" lon="12.016451753322478"><ele>-4.0</ele><time>2026-03-28T13:59:51.009Z</time></trkpt><trkpt lat="44.75059018172678" lon="12.016598691979606"><ele>-3.5</ele><time>2026-03-28T13:59:52.009Z</time></trkpt><trkpt lat="44.750366782767216" lon="12.016745176357748"><ele>-3.0</ele><time>2026-03-28T13:59:53.009Z</time></trkpt><trkpt lat="44.75014276507794" lon="12.01689546240678"><ele>-3.0</ele><time>2026-03-28T13:59:54.009Z</time></trkpt><trkpt lat="44.749919457619086" lon="12.01704600613162"><ele>-3.0</ele><time>2026-03-28T13:59:55.009Z</time></trkpt><trkpt lat="44.74968981677754" lon="12.017192239602071"><ele>-3.0</ele><time>2026-03-28T13:59:56.009Z</time></trkpt><trkpt lat="44.74945720084505" lon="12.017342649129853"><ele>-3.0</ele><time>2026-03-28T13:59:57.009Z</time></trkpt><trkpt lat="44.749222421007474" lon="12.017495112249446"><ele>-4.0</ele><time>2026-03-28T13:59:58.01Z</time></trkpt><trkpt lat="44.74898668450593" lon="12.017652825841003"><ele>-5.0</ele><time>2026-03-28T13:59:59.009Z</time></trkpt><trkpt lat="44.74875054316542" lon="12.017810252060224"><ele>-5.0</ele><time>2026-03-28T14:00:00.009Z</time></trkpt><trkpt lat="44.748513522466084" lon="12.017969837345735"><ele>-5.0</ele><time>2026-03-28T14:00:01.009Z</time></trkpt><trkpt lat="44.74827620018104" lon="12.01812084868829"><ele>-5.0</ele><time>2026-03-28T14:00:02.009Z</time></trkpt><trkpt lat="44.74803204814064" lon="12.018283113086339"><ele>-5.0</ele><time>2026-03-28T14:00:03.009Z</time></trkpt><trkpt lat="44.74779455153073" lon="12.018447294924007"><ele>-5.0</ele><time>2026-03-28T14:00:04.009Z</time></trkpt><trkpt lat="44.74757079725803" lon="12.018596127173247"><ele>-5.0</ele><time>2026-03-28T14:00:05.009Z</time></trkpt><trkpt lat="44.74733743274013" lon="12.018751304015531"><ele>-5.0</ele><time>2026-03-28T14:00:06.009Z</time></trkpt><trkpt lat="44.74710955367496" lon="12.018897418664965"><ele>-5.0</ele><time>2026-03-28T14:00:07.009Z</time></trkpt><trkpt lat="44.7468888965117" lon="12.019042012505258"><ele>-4.0</ele><time>2026-03-28T14:00:08.009Z</time></trkpt><trkpt lat="44.74668263551929" lon="12.0191783782433"><ele>-3.0</ele><time>2026-03-28T14:00:09.009Z</time></trkpt><trkpt lat="44.746473474128074" lon="12.019319064236843"><ele>-3.0</ele><time>2026-03-28T14:00:10.009Z</time></trkpt><trkpt lat="44.74628189272236" lon="12.019440004658684"><ele>-3.0</ele><time>2026-03-28T14:00:11.009Z</time></trkpt><trkpt lat="44.74610777076397" lon="12.019558847898251"><ele>-3.0</ele><time>2026-03-28T14:00:12.009Z</time></trkpt><trkpt lat="44.745932486106554" lon="12.019671565589828"><ele>-3.0</ele><time>2026-03-28T14:00:13.009Z</time></trkpt><trkpt lat="44.74576404492497" lon="12.01979996991149"><ele>-3.0</ele><time>2026-03-28T14:00:14.009Z</time></trkpt><trkpt lat="44.7455907351753" lon="12.019923134708433"><ele>-3.0</ele><time>2026-03-28T14:00:15.009Z</time></trkpt><trkpt lat="44.74540777915671" lon="12.020042962596317"><ele>-3.0</ele><time>2026-03-28T14:00:16.009Z</time></trkpt><trkpt lat="44.74522652204771" lon="12.020159886181174"><ele>-3.0</ele><time>2026-03-28T14:00:17.009Z</time></trkpt><trkpt lat="44.74505325539838" lon="12.02028802214439"><ele>-3.0</ele><time>2026-03-28T14:00:18.009Z</time></trkpt><trkpt lat="44.74488762229433" lon="12.02041524841581"><ele>-2.0</ele><time>2026-03-28T14:00:19.009Z</time></trkpt><trkpt lat="44.744712799922674" lon="12.020524704573578"><ele>-1.0</ele><time>2026-03-28T14:00:20.009Z</time></trkpt><trkpt lat="44.74453650297489" lon="12.02063689942818"><ele>0.0</ele><time>2026-03-28T14:00:21.009Z</time></trkpt><trkpt lat="44.7443598807183" lon="12.020744894424382"><ele>0.0</ele><time>2026-03-28T14:00:22.009Z</time></trkpt><trkpt lat="44.74417905354722" lon="12.020869048446423"><ele>0.0</ele><time>2026-03-28T14:00:23.009Z</time></trkpt><trkpt lat="44.74401086848838" lon="12.020976158707917"><ele>0.0</ele><time>2026-03-28T14:00:24.009Z</time></trkpt><trkpt lat="44.74385652645768" lon="12.02107861815334"><ele>0.0</ele><time>2026-03-28T14:00:25.009Z</time></trkpt><trkpt lat="44.743715872545614" lon="12.021166731489904"><ele>0.0</ele><time>2026-03-28T14:00:26.009Z</time></trkpt><trkpt lat="44.74358299700962" lon="12.021252009196557"><ele>0.0</ele><time>2026-03-28T14:00:27.009Z</time></trkpt><trkpt lat="44.743457620497345" lon="12.021335971747517"><ele>0.0</ele><time>2026-03-28T14:00:28.009Z</time></trkpt><trkpt lat="44.74334487210104" lon="12.021422667413491"><ele>-0.3333333333333333</ele><time>2026-03-28T14:00:29.009Z</time></trkpt><trkpt lat="44.74321955460117" lon="12.02152289751191"><ele>-0.6666666666666666</ele><time>2026-03-28T14:00:30.009Z</time></trkpt><trkpt lat="44.74309614137861" lon="12.021682414178743"><ele>-1.0</ele><time>2026-03-28T14:00:31.009Z</time></trkpt><trkpt lat="44.742987071336735" lon="12.021883291561188"><ele>-1.0</ele><time>2026-03-28T14:00:32.009Z</time></trkpt><trkpt lat="44.742887762513455" lon="12.02211959465336"><ele>-1.0</ele><time>2026-03-28T14:00:33.009Z</time></trkpt><trkpt lat="44.742785548025545" lon="12.022357452659959"><ele>-1.0</ele><time>2026-03-28T14:00:34.009Z</time></trkpt><trkpt lat="44.74266576293316" lon="12.022592114452541"><ele>-1.3333333333333333</ele><time>2026-03-28T14:00:35.009Z</time></trkpt><trkpt lat="44.74256024882141" lon="12.022814564312052"><ele>-1.6666666666666665</ele><time>2026-03-28T14:00:36.009Z</time></trkpt><trkpt lat="44.742451617257544" lon="12.023027165383617"><ele>-2.0</ele><time>2026-03-28T14:00:37.009Z</time></trkpt><trkpt lat="44.742358338727094" lon="12.023221034344031"><ele>-2.4000000000000004</ele><time>2026-03-28T14:00:38.009Z</time></trkpt><trkpt lat="44.742278100113964" lon="12.023354623579726"><ele>-2.8000000000000003</ele><time>2026-03-28T14:00:39.009Z</time></trkpt><trkpt lat="44.74218417383132" lon="12.023421430474677"><ele>-3.2</ele><time>2026-03-28T14:00:40.009Z</time></trkpt><trkpt lat="44.74213803985077" lon="12.023497524337147"><ele>-3.6</ele><time>2026-03-28T14:00:41.009Z</time></trkpt><trkpt lat="44.74203700102204" lon="12.02350627932206"><ele>-4.0</ele><time>2026-03-28T14:00:43.009Z</time></trkpt><trkpt lat="44.74195496162843" lon="12.02349393041382"><ele>-3.6</ele><time>2026-03-28T14:00:46.009Z</time></trkpt><trkpt lat="44.74186314553082" lon="12.023499712104542"><ele>-3.2</ele><time>2026-03-28T14:00:48.009Z</time></trkpt><trkpt lat="44.74176817318954" lon="12.02335301516496"><ele>-2.8000000000000003</ele><time>2026-03-28T14:00:50.009Z</time></trkpt><trkpt lat="44.741697611448586" lon="12.023290451032624"><ele>-2.4000000000000004</ele><time>2026-03-28T14:00:51.009Z</time></trkpt><trkpt lat="44.74163825387077" lon="12.023219096866567"><ele>-2.0</ele><time>2026-03-28T14:00:52.009Z</time></trkpt><trkpt lat="44.74158078847069" lon="12.023142821089483"><ele>-1.6</ele><time>2026-03-28T14:00:53.009Z</time></trkpt><trkpt lat="44.741499250640686" lon="12.023093416202942"><ele>-1.2000000000000002</ele><time>2026-03-28T14:00:54.009Z</time></trkpt><trkpt lat="44.74142340736656" lon="12.02305814021598"><ele>-0.8</ele><time>2026-03-28T14:00:55.009Z</time></trkpt><trkpt lat="44.74130986611919" lon="12.023120057968084"><ele>-0.4</ele><time>2026-03-28T14:00:56.009Z</time></trkpt><trkpt lat="44.74123888776366" lon="12.023205046389315"><ele>0.0</ele><time>2026-03-28T14:00:57.009Z</time></trkpt><trkpt lat="44.74119415095246" lon="12.023278500798257"><ele>-0.5</ele><time>2026-03-28T14:00:58.009Z</time></trkpt><trkpt lat="44.74115296340338" lon="12.023352488335282"><ele>-1.0</ele><time>2026-03-28T14:00:59.009Z</time></trkpt><trkpt lat="44.741130535538616" lon="12.02353605517845"><ele>-1.5</ele><time>2026-03-28T14:01:01.009Z</time></trkpt><trkpt lat="44.74117829312088" lon="12.023801754835823"><ele>-2.0</ele><time>2026-03-28T14:01:03.009Z</time></trkpt><trkpt lat="44.74124076396154" lon="12.023919285866928"><ele>-2.0</ele><time>2026-03-28T14:01:04.009Z</time></trkpt><trkpt lat="44.74132292733969" lon="12.02403629351588"><ele>-2.0</ele><time>2026-03-28T14:01:05.009Z</time></trkpt><trkpt lat="44.74142048286054" lon="12.024132313218182"><ele>-2.0</ele><time>2026-03-28T14:01:06.009Z</time></trkpt><trkpt lat="44.7415394268896" lon="12.024205868092523"><ele>-2.0</ele><time>2026-03-28T14:01:07.009Z</time></trkpt><trkpt lat="44.74163260207722" lon="12.024321627815983"><ele>-2.5</ele><time>2026-03-28T14:01:08.009Z</time></trkpt><trkpt lat="44.741734127387325" lon="12.024443737554668"><ele>-3.0</ele><time>2026-03-28T14:01:09.009Z</time></trkpt><trkpt lat="44.74183837962522" lon="12.024577065418113"><ele>-3.5</ele><time>2026-03-28T14:01:10.009Z</time></trkpt><trkpt lat="44.741920317049484" lon="12.024718909212057"><ele>-4.0</ele><time>2026-03-28T14:01:11.009Z</time></trkpt><trkpt lat="44.74201217047735" lon="12.024834905421892"><ele>-4.0</ele><time>2026-03-28T14:01:12.009Z</time></trkpt><trkpt lat="44.74206601069855" lon="12.025040316069429"><ele>-4.0</ele><time>2026-03-28T14:01:13.009Z</time></trkpt><trkpt lat="44.74212098315067" lon="12.025267357684776"><ele>-4.0</ele><time>2026-03-28T14:01:14.009Z</time></trkpt><trkpt lat="44.742206489545794" lon="12.025524626389926"><ele>-4.0</ele><time>2026-03-28T14:01:15.009Z</time></trkpt><trkpt lat="44.742300209316504" lon="12.025802079008733"><ele>-4.0</ele><time>2026-03-28T14:01:16.009Z</time></trkpt><trkpt lat="44.74239988807317" lon="12.026097135226141"><ele>-3.5</ele><time>2026-03-28T14:01:17.009Z</time></trkpt><trkpt lat="44.74249806668909" lon="12.02638977720512"><ele>-3.0</ele><time>2026-03-28T14:01:18.009Z</time></trkpt><trkpt lat="44.74259447034212" lon="12.026677830115485"><ele>-2.5</ele><time>2026-03-28T14:01:19.009Z</time></trkpt><trkpt lat="44.74269430976188" lon="12.026976531875759"><ele>-2.0</ele><time>2026-03-28T14:01:20.009Z</time></trkpt><trkpt lat="44.74279570688427" lon="12.02727969086915"><ele>-3.5</ele><time>2026-03-28T14:01:21.009Z</time></trkpt><trkpt lat="44.74289592101495" lon="12.027579512505241"><ele>-5.0</ele><time>2026-03-28T14:01:22.009Z</time></trkpt><trkpt lat="44.74300022563351" lon="12.027890467878239"><ele>-5.0</ele><time>2026-03-28T14:01:23.009Z</time></trkpt><trkpt lat="44.743105762720475" lon="12.028207070181956"><ele>-5.0</ele><time>2026-03-28T14:01:24.009Z</time></trkpt><trkpt lat="44.743210612353174" lon="12.028520669703912"><ele>-5.5</ele><time>2026-03-28T14:01:25.009Z</time></trkpt><trkpt lat="44.74331683559483" lon="12.028838377617001"><ele>-6.0</ele><time>2026-03-28T14:01:26.009Z</time></trkpt><trkpt lat="44.74343777684573" lon="12.029146031854697"><ele>-5.5</ele><time>2026-03-28T14:01:27.009Z</time></trkpt><trkpt lat="44.743544644195225" lon="12.029469555762898"><ele>-5.0</ele><time>2026-03-28T14:01:28.009Z</time></trkpt><trkpt lat="44.7436508754319" lon="12.029794305417541"><ele>-5.0</ele><time>2026-03-28T14:01:29.009Z</time></trkpt><trkpt lat="44.74375822587289" lon="12.03011543659904"><ele>-5.0</ele><time>2026-03-28T14:01:30.009Z</time></trkpt><trkpt lat="44.74386184878165" lon="12.030440074725888"><ele>-5.0</ele><time>2026-03-28T14:01:31.009Z</time></trkpt><trkpt lat="44.74396814921342" lon="12.030758611942462"><ele>-5.0</ele><time>2026-03-28T14:01:32.009Z</time></trkpt><trkpt lat="44.744074805864535" lon="12.031079362002114"><ele>-4.0</ele><time>2026-03-28T14:01:33.009Z</time></trkpt><trkpt lat="44.7441871232272" lon="12.031397059005558"><ele>-3.0</ele><time>2026-03-28T14:01:34.009Z</time></trkpt><trkpt lat="44.74429583658647" lon="12.031721019459615"><ele>-3.5</ele><time>2026-03-28T14:01:35.009Z</time></trkpt><trkpt lat="44.74440811737686" lon="12.032046902457301"><ele>-4.0</ele><time>2026-03-28T14:01:36.009Z</time></trkpt><trkpt lat="44.74451888297452" lon="12.032378715205674"><ele>-4.5</ele><time>2026-03-28T14:01:37.009Z</time></trkpt><trkpt lat="44.744618686534864" lon="12.032723725525678"><ele>-5.0</ele><time>2026-03-28T14:01:38.009Z</time></trkpt><trkpt lat="44.744747482871794" lon="12.03305488740905"><ele>-5.5</ele><time>2026-03-28T14:01:39.009Z</time></trkpt><trkpt lat="44.74486348369578" lon="12.033403635548058"><ele>-6.0</ele><time>2026-03-28T14:01:40.009Z</time></trkpt><trkpt lat="44.74498213070412" lon="12.033754104159652"><ele>-6.0</ele><time>2026-03-28T14:01:41.009Z</time></trkpt><trkpt lat="44.7451007892458" lon="12.034108029784445"><ele>-6.0</ele><time>2026-03-28T14:01:42.009Z</time></trkpt><trkpt lat="44.74520599021407" lon="12.034474828229772"><ele>-5.5</ele><time>2026-03-28T14:01:43.009Z</time></trkpt><trkpt lat="44.74532492441007" lon="12.034829442026902"><ele>-5.0</ele><time>2026-03-28T14:01:44.009Z</time></trkpt><trkpt lat="44.74544389248361" lon="12.035184156840387"><ele>-5.0</ele><time>2026-03-28T14:01:45.009Z</time></trkpt><trkpt lat="44.7455609689571" lon="12.035533231664989"><ele>-5.0</ele><time>2026-03-28T14:01:46.009Z</time></trkpt><trkpt lat="44.74568676228623" lon="12.035869352221038"><ele>-4.5</ele><time>2026-03-28T14:01:47.008Z</time></trkpt><trkpt lat="44.745797020479564" lon="12.036212239316265"><ele>-4.0</ele><time>2026-03-28T14:01:48.008Z</time></trkpt><trkpt lat="44.74591030592094" lon="12.036551443398745"><ele>-4.0</ele><time>2026-03-28T14:01:49.008Z</time></trkpt><trkpt lat="44.74602445765417" lon="12.036889827491722"><ele>-4.0</ele><time>2026-03-28T14:01:50.008Z</time></trkpt><trkpt lat="44.74613748376941" lon="12.03723138932133"><ele>-4.0</ele><time>2026-03-28T14:01:51.008Z</time></trkpt><trkpt lat="44.74625478139075" lon="12.037577320170776"><ele>-4.0</ele><time>2026-03-28T14:01:52.008Z</time></trkpt><trkpt lat="44.74637253313424" lon="12.037931568170572"><ele>-4.0</ele><time>2026-03-28T14:01:53.008Z</time></trkpt><trkpt lat="44.74649274608415" lon="12.03828718312194"><ele>-4.0</ele><time>2026-03-28T14:01:54.008Z</time></trkpt><trkpt lat="44.746610901922104" lon="12.03864923969602"><ele>-4.0</ele><time>2026-03-28T14:01:55.01Z</time></trkpt><trkpt lat="44.746727655238516" lon="12.03900815128645"><ele>-4.0</ele><time>2026-03-28T14:01:56.01Z</time></trkpt><trkpt lat="44.746847986486266" lon="12.039366398429642"><ele>-4.0</ele><time>2026-03-28T14:01:57.01Z</time></trkpt><trkpt lat="44.74696631466881" lon="12.039725166510182"><ele>-4.0</ele><time>2026-03-28T14:01:58.009Z</time></trkpt><trkpt lat="44.74708606977719" lon="12.04008571558773"><ele>-4.0</ele><time>2026-03-28T14:01:59.009Z</time></trkpt><trkpt lat="44.74720341337058" lon="12.040451705060432"><ele>-4.0</ele><time>2026-03-28T14:02:00.009Z</time></trkpt><trkpt lat="44.74731859395499" lon="12.040821057051927"><ele>-4.5</ele><time>2026-03-28T14:02:01.01Z</time></trkpt><trkpt lat="44.747438425045736" lon="12.041190434749254"><ele>-5.0</ele><time>2026-03-28T14:02:02.01Z</time></trkpt><trkpt lat="44.74755815940474" lon="12.04156449984551"><ele>-5.0</ele><time>2026-03-28T14:02:03.01Z</time></trkpt><trkpt lat="44.74767945223089" lon="12.041935842197745"><ele>-5.0</ele><time>2026-03-28T14:02:04.01Z</time></trkpt><trkpt lat="44.747801025856404" lon="12.04230383730022"><ele>-4.5</ele><time>2026-03-28T14:02:05.01Z</time></trkpt><trkpt lat="44.747922221728146" lon="12.04266795621586"><ele>-4.0</ele><time>2026-03-28T14:02:06.01Z</time></trkpt><trkpt lat="44.74804313159428" lon="12.043020030862575"><ele>-4.5</ele><time>2026-03-28T14:02:07.01Z</time></trkpt><trkpt lat="44.748160724799035" lon="12.04337161767682"><ele>-5.0</ele><time>2026-03-28T14:02:08.01Z</time></trkpt><trkpt lat="44.7482759523394" lon="12.043720102247207"><ele>-5.0</ele><time>2026-03-28T14:02:09.01Z</time></trkpt><trkpt lat="44.748391135041665" lon="12.044070027527376"><ele>-5.0</ele><time>2026-03-28T14:02:10.01Z</time></trkpt><trkpt lat="44.74850520991021" lon="12.044400919833206"><ele>-4.5</ele><time>2026-03-28T14:02:11.01Z</time></trkpt><trkpt lat="44.74861582904038" lon="12.044732457714739"><ele>-4.0</ele><time>2026-03-28T14:02:12.01Z</time></trkpt><trkpt lat="44.748727194520555" lon="12.045061706547852"><ele>-4.0</ele><time>2026-03-28T14:02:13.01Z</time></trkpt><trkpt lat="44.74883934056074" lon="12.0453916386721"><ele>-4.0</ele><time>2026-03-28T14:02:14.01Z</time></trkpt><trkpt lat="44.74894973918175" lon="12.045724904390426"><ele>-4.0</ele><time>2026-03-28T14:02:15.01Z</time></trkpt><trkpt lat="44.74906706430823" lon="12.04606469490315"><ele>-4.0</ele><time>2026-03-28T14:02:16.01Z</time></trkpt><trkpt lat="44.749183841626014" lon="12.046408284783144"><ele>-4.5</ele><time>2026-03-28T14:02:17.01Z</time></trkpt><trkpt lat="44.74930054399134" lon="12.046756678898403"><ele>-5.0</ele><time>2026-03-28T14:02:18.01Z</time></trkpt><trkpt lat="44.749420127784624" lon="12.04710434986874"><ele>-5.0</ele><time>2026-03-28T14:02:19.01Z</time></trkpt><trkpt lat="44.74953584092378" lon="12.0474498874485"><ele>-5.0</ele><time>2026-03-28T14:02:20.01Z</time></trkpt><trkpt lat="44.74964217790846" lon="12.04774787903257"><ele>-5.0</ele><time>2026-03-28T14:02:21.01Z</time></trkpt><trkpt lat="44.749747600868446" lon="12.048053238906421"><ele>-5.0</ele><time>2026-03-28T14:02:22.01Z</time></trkpt><trkpt lat="44.749850392520806" lon="12.048360745649475"><ele>-5.0</ele><time>2026-03-28T14:02:23.01Z</time></trkpt><trkpt lat="44.74995479562726" lon="12.048682454020522"><ele>-5.0</ele><time>2026-03-28T14:02:24.01Z</time></trkpt><trkpt lat="44.750061974952786" lon="12.04900874146773"><ele>-5.0</ele><time>2026-03-28T14:02:25.01Z</time></trkpt><trkpt lat="44.75016846814956" lon="12.049338700482211"><ele>-5.0</ele><time>2026-03-28T14:02:26.01Z</time></trkpt><trkpt lat="44.750268199943115" lon="12.049652709832086"><ele>-4.5</ele><time>2026-03-28T14:02:27.01Z</time></trkpt><trkpt lat="44.75037035961532" lon="12.049957282358951"><ele>-4.0</ele><time>2026-03-28T14:02:28.01Z</time></trkpt><trkpt lat="44.75047279057546" lon="12.050268190685225"><ele>-4.0</ele><time>2026-03-28T14:02:29.01Z</time></trkpt><trkpt lat="44.750584245582225" lon="12.050582676435793"><ele>-4.0</ele><time>2026-03-28T14:02:30.01Z</time></trkpt><trkpt lat="44.75069326589026" lon="12.050905303719338"><ele>-4.5</ele><time>2026-03-28T14:02:31.01Z</time></trkpt><trkpt lat="44.750795680648714" lon="12.05122388717621"><ele>-5.0</ele><time>2026-03-28T14:02:32.01Z</time></trkpt><trkpt lat="44.750905375723285" lon="12.051540546943773"><ele>-5.0</ele><time>2026-03-28T14:02:33.01Z</time></trkpt><trkpt lat="44.751013690896364" lon="12.051861945505463"><ele>-5.0</ele><time>2026-03-28T14:02:34.01Z</time></trkpt><trkpt lat="44.75112452582361" lon="12.052182065350836"><ele>-5.0</ele><time>2026-03-28T14:02:35.01Z</time></trkpt><trkpt lat="44.75123634397291" lon="12.052506857031515"><ele>-5.0</ele><time>2026-03-28T14:02:36.01Z</time></trkpt><trkpt lat="44.75134450710496" lon="12.052835160265786"><ele>-5.0</ele><time>2026-03-28T14:02:37.01Z</time></trkpt><trkpt lat="44.75145566634954" lon="12.05316293597037"><ele>-5.0</ele><time>2026-03-28T14:02:38.009Z</time></trkpt><trkpt lat="44.751564122198694" lon="12.053484366567005"><ele>-5.5</ele><time>2026-03-28T14:02:39.009Z</time></trkpt><trkpt lat="44.75167348195589" lon="12.05381132267041"><ele>-6.0</ele><time>2026-03-28T14:02:40.009Z</time></trkpt><trkpt lat="44.75178908787501" lon="12.054146518361113"><ele>-6.0</ele><time>2026-03-28T14:02:41.009Z</time></trkpt><trkpt lat="44.75190048222254" lon="12.054482579688848"><ele>-6.0</ele><time>2026-03-28T14:02:42.009Z</time></trkpt><trkpt lat="44.752008663299435" lon="12.05481718883445"><ele>-5.5</ele><time>2026-03-28T14:02:43.009Z</time></trkpt><trkpt lat="44.75211755032742" lon="12.055155224779059"><ele>-5.0</ele><time>2026-03-28T14:02:44.009Z</time></trkpt><trkpt lat="44.7522277957292" lon="12.055480388360765"><ele>-5.0</ele><time>2026-03-28T14:02:45.009Z</time></trkpt><trkpt lat="44.75233634412627" lon="12.055802532026098"><ele>-5.0</ele><time>2026-03-28T14:02:46.009Z</time></trkpt><trkpt lat="44.75244740588226" lon="12.056130054654375"><ele>-5.0</ele><time>2026-03-28T14:02:47.009Z</time></trkpt><trkpt lat="44.75255777004259" lon="12.056456487821338"><ele>-5.0</ele><time>2026-03-28T14:02:48.009Z</time></trkpt><trkpt lat="44.75266540682985" lon="12.056780957008156"><ele>-4.0</ele><time>2026-03-28T14:02:49.009Z</time></trkpt><trkpt lat="44.752772876427265" lon="12.057098350703079"><ele>-3.0</ele><time>2026-03-28T14:02:50.009Z</time></trkpt><trkpt lat="44.75287528103746" lon="12.057414416831678"><ele>-3.0</ele><time>2026-03-28T14:02:51.009Z</time></trkpt><trkpt lat="44.75298651814547" lon="12.057737038362516"><ele>-3.0</ele><time>2026-03-28T14:02:52.009Z</time></trkpt><trkpt lat="44.75310068036453" lon="12.058060179760023"><ele>-4.5</ele><time>2026-03-28T14:02:53.009Z</time></trkpt><trkpt lat="44.753207134205184" lon="12.058388128497858"><ele>-6.0</ele><time>2026-03-28T14:02:54.009Z</time></trkpt><trkpt lat="44.75331725966787" lon="12.058718882234132"><ele>-6.0</ele><time>2026-03-28T14:02:55.009Z</time></trkpt><trkpt lat="44.75342735094699" lon="12.059052821361039"><ele>-6.0</ele><time>2026-03-28T14:02:56.009Z</time></trkpt><trkpt lat="44.75354099978803" lon="12.059387705525479"><ele>-5.5</ele><time>2026-03-28T14:02:57.009Z</time></trkpt><trkpt lat="44.75365265668421" lon="12.059726197715834"><ele>-5.0</ele><time>2026-03-28T14:02:58.009Z</time></trkpt><trkpt lat="44.75377103212269" lon="12.060070985240976"><ele>-5.0</ele><time>2026-03-28T14:02:59.009Z</time></trkpt><trkpt lat="44.75388352460104" lon="12.060407442557212"><ele>-5.0</ele><time>2026-03-28T14:03:00.009Z</time></trkpt><trkpt lat="44.75399769384914" lon="12.060757470771692"><ele>-4.5</ele><time>2026-03-28T14:03:01.009Z</time></trkpt><trkpt lat="44.75411675752427" lon="12.061098791338182"><ele>-4.0</ele><time>2026-03-28T14:03:02.009Z</time></trkpt><trkpt lat="44.75423752376531" lon="12.06143827792699"><ele>-4.0</ele><time>2026-03-28T14:03:03.009Z</time></trkpt><trkpt lat="44.75435746912852" lon="12.061776494506"><ele>-4.0</ele><time>2026-03-28T14:03:04.009Z</time></trkpt><trkpt lat="44.75445688831246" lon="12.062129154122132"><ele>-3.5</ele><time>2026-03-28T14:03:05.009Z</time></trkpt><trkpt lat="44.75456855941238" lon="12.06246361834211"><ele>-3.0</ele><time>2026-03-28T14:03:06.009Z</time></trkpt><trkpt lat="44.75468297378274" lon="12.062806154991364"><ele>-3.0</ele><time>2026-03-28T14:03:07.009Z</time></trkpt><trkpt lat="44.75479464517675" lon="12.06314024461518"><ele>-3.0</ele><time>2026-03-28T14:03:08.009Z</time></trkpt><trkpt lat="44.754908117911874" lon="12.063479401117915"><ele>-4.0</ele><time>2026-03-28T14:03:09.009Z</time></trkpt><trkpt lat="44.75502130524648" lon="12.06381770451841"><ele>-5.0</ele><time>2026-03-28T14:03:10.009Z</time></trkpt><trkpt lat="44.75513412094998" lon="12.064154897214232"><ele>-5.5</ele><time>2026-03-28T14:03:11.009Z</time></trkpt><trkpt lat="44.75526203114045" lon="12.064487183297524"><ele>-6.0</ele><time>2026-03-28T14:03:12.009Z</time></trkpt><trkpt lat="44.7553740527884" lon="12.06483033384895"><ele>-6.5</ele><time>2026-03-28T14:03:13.009Z</time></trkpt><trkpt lat="44.75548849538858" lon="12.065169144223407"><ele>-7.0</ele><time>2026-03-28T14:03:14.009Z</time></trkpt><trkpt lat="44.75560135182326" lon="12.065516669151739"><ele>-6.5</ele><time>2026-03-28T14:03:15.009Z</time></trkpt><trkpt lat="44.755714569463" lon="12.065853956114102"><ele>-6.0</ele><time>2026-03-28T14:03:16.009Z</time></trkpt><trkpt lat="44.755818741294604" lon="12.06618275276918"><ele>-6.0</ele><time>2026-03-28T14:03:17.009Z</time></trkpt><trkpt lat="44.7559233113721" lon="12.066507201352643"><ele>-6.0</ele><time>2026-03-28T14:03:18.009Z</time></trkpt><trkpt lat="44.75602949466139" lon="12.066826066343513"><ele>-5.5</ele><time>2026-03-28T14:03:19.009Z</time></trkpt><trkpt lat="44.756139455850246" lon="12.067153608915767"><ele>-5.0</ele><time>2026-03-28T14:03:20.009Z</time></trkpt><trkpt lat="44.756249761964405" lon="12.06748541482524"><ele>-5.0</ele><time>2026-03-28T14:03:21.009Z</time></trkpt><trkpt lat="44.75636369721345" lon="12.067823071853075"><ele>-5.0</ele><time>2026-03-28T14:03:22.009Z</time></trkpt><trkpt lat="44.75647691606718" lon="12.068165023708112"><ele>-5.5</ele><time>2026-03-28T14:03:23.009Z</time></trkpt><trkpt lat="44.75658899494311" lon="12.068508414292968"><ele>-6.0</ele><time>2026-03-28T14:03:24.009Z</time></trkpt><trkpt lat="44.756705184857765" lon="12.068848529251044"><ele>-5.5</ele><time>2026-03-28T14:03:25.009Z</time></trkpt><trkpt lat="44.756801845200734" lon="12.069176940225512"><ele>-5.0</ele><time>2026-03-28T14:03:26.009Z</time></trkpt><trkpt lat="44.75690412922358" lon="12.069478006791897"><ele>-5.666666666666667</ele><time>2026-03-28T14:03:27.009Z</time></trkpt><trkpt lat="44.757002386477936" lon="12.06975450510887"><ele>-6.333333333333334</ele><time>2026-03-28T14:03:28.009Z</time></trkpt><trkpt lat="44.757100456598096" lon="12.070044808430513"><ele>-7.0</ele><time>2026-03-28T14:03:29.009Z</time></trkpt><trkpt lat="44.757206152526045" lon="12.070338937619091"><ele>-7.0</ele><time>2026-03-28T14:03:30.009Z</time></trkpt><trkpt lat="44.757317253227995" lon="12.070654121968218"><ele>-7.0</ele><time>2026-03-28T14:03:31.009Z</time></trkpt><trkpt lat="44.757427279739034" lon="12.070986026274788"><ele>-7.5</ele><time>2026-03-28T14:03:32.009Z</time></trkpt><trkpt lat="44.7575359804578" lon="12.071325569195134"><ele>-8.0</ele><time>2026-03-28T14:03:33.009Z</time></trkpt><trkpt lat="44.75765045829662" lon="12.071664822763832"><ele>-6.5</ele><time>2026-03-28T14:03:34.009Z</time></trkpt><trkpt lat="44.75776522090408" lon="12.072010425252724"><ele>-5.0</ele><time>2026-03-28T14:03:35.009Z</time></trkpt><trkpt lat="44.75787655138066" lon="12.072352342305987"><ele>-5.0</ele><time>2026-03-28T14:03:36.009Z</time></trkpt><trkpt lat="44.75798862616317" lon="12.072690030018988"><ele>-5.0</ele><time>2026-03-28T14:03:37.009Z</time></trkpt><trkpt lat="44.75809694359632" lon="12.073030000236363"><ele>-5.5</ele><time>2026-03-28T14:03:38.009Z</time></trkpt><trkpt lat="44.758209814524946" lon="12.073362167074258"><ele>-6.0</ele><time>2026-03-28T14:03:39.009Z</time></trkpt><trkpt lat="44.758319470490726" lon="12.07369748142656"><ele>-6.0</ele><time>2026-03-28T14:03:40.009Z</time></trkpt><trkpt lat="44.75843012109644" lon="12.074030865158818"><ele>-6.0</ele><time>2026-03-28T14:03:41.009Z</time></trkpt><trkpt lat="44.758540385488615" lon="12.074365162164701"><ele>-6.0</ele><time>2026-03-28T14:03:42.009Z</time></trkpt><trkpt lat="44.75864920844438" lon="12.074699855597832"><ele>-6.0</ele><time>2026-03-28T14:03:43.009Z</time></trkpt><trkpt lat="44.75876288737725" lon="12.07503345293803"><ele>-5.5</ele><time>2026-03-28T14:03:44.009Z</time></trkpt><trkpt lat="44.75887302930942" lon="12.07537127884621"><ele>-5.0</ele><time>2026-03-28T14:03:45.009Z</time></trkpt><trkpt lat="44.75898416506867" lon="12.07570525550138"><ele>-5.5</ele><time>2026-03-28T14:03:46.009Z</time></trkpt><trkpt lat="44.75909314702925" lon="12.076039758775973"><ele>-6.0</ele><time>2026-03-28T14:03:47.009Z</time></trkpt><trkpt lat="44.75920621152056" lon="12.076374892813867"><ele>-5.5</ele><time>2026-03-28T14:03:48.009Z</time></trkpt><trkpt lat="44.75931762461727" lon="12.076711439469534"><ele>-5.0</ele><time>2026-03-28T14:03:49.009Z</time></trkpt><trkpt lat="44.7594291819085" lon="12.077044634141759"><ele>-5.0</ele><time>2026-03-28T14:03:50.009Z</time></trkpt><trkpt lat="44.759539932659635" lon="12.077375277038326"><ele>-5.0</ele><time>2026-03-28T14:03:51.009Z</time></trkpt><trkpt lat="44.75965220554209" lon="12.077699982248538"><ele>-5.0</ele><time>2026-03-28T14:03:52.009Z</time></trkpt><trkpt lat="44.759762727949294" lon="12.078023814936746"><ele>-5.0</ele><time>2026-03-28T14:03:53.009Z</time></trkpt><trkpt lat="44.75987642674701" lon="12.078358313402111"><ele>-5.0</ele><time>2026-03-28T14:03:54.009Z</time></trkpt><trkpt lat="44.7599896282658" lon="12.078691429060187"><ele>-5.0</ele><time>2026-03-28T14:03:55.009Z</time></trkpt><trkpt lat="44.760104264035114" lon="12.079034178631606"><ele>-5.5</ele><time>2026-03-28T14:03:56.009Z</time></trkpt><trkpt lat="44.76021844461893" lon="12.07937718444091"><ele>-6.0</ele><time>2026-03-28T14:03:57.009Z</time></trkpt><trkpt lat="44.760336696439296" lon="12.079721156936415"><ele>-5.5</ele><time>2026-03-28T14:03:58.009Z</time></trkpt><trkpt lat="44.760457042132735" lon="12.080068461806185"><ele>-5.0</ele><time>2026-03-28T14:03:59.009Z</time></trkpt><trkpt lat="44.76057759143237" lon="12.080415810856897"><ele>-5.0</ele><time>2026-03-28T14:04:00.009Z</time></trkpt><trkpt lat="44.76069424579885" lon="12.080760970772792"><ele>-5.0</ele><time>2026-03-28T14:04:01.011Z</time></trkpt><trkpt lat="44.76081075772767" lon="12.081099342466379"><ele>-5.0</ele><time>2026-03-28T14:04:02.01Z</time></trkpt><trkpt lat="44.76090333412373" lon="12.081435482747153"><ele>-5.0</ele><time>2026-03-28T14:04:03.01Z</time></trkpt><trkpt lat="44.761016072665015" lon="12.081756937298904"><ele>-5.0</ele><time>2026-03-28T14:04:04.01Z</time></trkpt><trkpt lat="44.76112808844449" lon="12.082082204286007"><ele>-5.0</ele><time>2026-03-28T14:04:05.01Z</time></trkpt><trkpt lat="44.76123812015221" lon="12.082415050494413"><ele>-5.0</ele><time>2026-03-28T14:04:06.01Z</time></trkpt><trkpt lat="44.761349116473774" lon="12.08275030931737"><ele>-5.0</ele><time>2026-03-28T14:04:07.011Z</time></trkpt><trkpt lat="44.761461617964244" lon="12.083084554961271"><ele>-5.5</ele><time>2026-03-28T14:04:08.01Z</time></trkpt><trkpt lat="44.761573161280545" lon="12.083430084173804"><ele>-6.0</ele><time>2026-03-28T14:04:09.01Z</time></trkpt><trkpt lat="44.76168484270761" lon="12.083776604015263"><ele>-6.0</ele><time>2026-03-28T14:04:10.011Z</time></trkpt><trkpt lat="44.761799255712035" lon="12.084122560913398"><ele>-6.0</ele><time>2026-03-28T14:04:11.011Z</time></trkpt><trkpt lat="44.76191171451092" lon="12.084460077290709"><ele>-6.0</ele><time>2026-03-28T14:04:12.011Z</time></trkpt><trkpt lat="44.76202968536487" lon="12.0848005631059"><ele>-6.0</ele><time>2026-03-28T14:04:13.011Z</time></trkpt><trkpt lat="44.76214339187331" lon="12.08513288971071"><ele>-5.0</ele><time>2026-03-28T14:04:14.01Z</time></trkpt><trkpt lat="44.762254071499505" lon="12.08545072338151"><ele>-4.0</ele><time>2026-03-28T14:04:15.01Z</time></trkpt><trkpt lat="44.762357494992784" lon="12.085759295849375"><ele>-4.5</ele><time>2026-03-28T14:04:16.01Z</time></trkpt><trkpt lat="44.762457422497384" lon="12.08605899017977"><ele>-5.0</ele><time>2026-03-28T14:04:17.01Z</time></trkpt><trkpt lat="44.762554323807514" lon="12.086354447659213"><ele>-5.0</ele><time>2026-03-28T14:04:18.01Z</time></trkpt><trkpt lat="44.762647992314875" lon="12.086643009117722"><ele>-5.0</ele><time>2026-03-28T14:04:19.01Z</time></trkpt><trkpt lat="44.76274354805059" lon="12.086927031983596"><ele>-5.0</ele><time>2026-03-28T14:04:20.01Z</time></trkpt><trkpt lat="44.762834570715" lon="12.087208168719991"><ele>-5.333333333333334</ele><time>2026-03-28T14:04:21.01Z</time></trkpt><trkpt lat="44.76293115692663" lon="12.087483952187965"><ele>-5.666666666666667</ele><time>2026-03-28T14:04:22.01Z</time></trkpt><trkpt lat="44.76302541368705" lon="12.087755090336533"><ele>-6.0</ele><time>2026-03-28T14:04:23.01Z</time></trkpt><trkpt lat="44.76311271548987" lon="12.088016914157038"><ele>-6.0</ele><time>2026-03-28T14:04:24.01Z</time></trkpt><trkpt lat="44.76319720306252" lon="12.08825500761168"><ele>-6.0</ele><time>2026-03-28T14:04:25.01Z</time></trkpt><trkpt lat="44.76327659218252" lon="12.088478085681622"><ele>-6.0</ele><time>2026-03-28T14:04:26.01Z</time></trkpt><trkpt lat="44.763347778357506" lon="12.088687541511028"><ele>-6.25</ele><time>2026-03-28T14:04:27.01Z</time></trkpt><trkpt lat="44.76341588496731" lon="12.088887658018436"><ele>-6.5</ele><time>2026-03-28T14:04:28.01Z</time></trkpt><trkpt lat="44.763476231333115" lon="12.089065996476567"><ele>-6.75</ele><time>2026-03-28T14:04:29.01Z</time></trkpt><trkpt lat="44.76352362533656" lon="12.08922072689081"><ele>-7.0</ele><time>2026-03-28T14:04:30.01Z</time></trkpt><trkpt lat="44.76356037283746" lon="12.089357375649941"><ele>-6.6</ele><time>2026-03-28T14:04:31.01Z</time></trkpt><trkpt lat="44.763597944274416" lon="12.089476370608175"><ele>-6.199999999999999</ele><time>2026-03-28T14:04:32.01Z</time></trkpt><trkpt lat="44.7636329203797" lon="12.089571751390991"><ele>-5.8</ele><time>2026-03-28T14:04:33.01Z</time></trkpt><trkpt lat="44.76366768204658" lon="12.089715232363005"><ele>-5.4</ele><time>2026-03-28T14:04:35.01Z</time></trkpt><trkpt lat="44.7636664098261" lon="12.089844441870008"><ele>-5.0</ele><time>2026-03-28T14:04:37.01Z</time></trkpt><trkpt lat="44.763589215617515" lon="12.089983980412304"><ele>-5.25</ele><time>2026-03-28T14:04:39.01Z</time></trkpt><trkpt lat="44.76351315015933" lon="12.090038894187018"><ele>-5.5</ele><time>2026-03-28T14:04:40.01Z</time></trkpt><trkpt lat="44.763393938527884" lon="12.09009620547949"><ele>-5.75</ele><time>2026-03-28T14:04:41.01Z</time></trkpt><trkpt lat="44.763253064665655" lon="12.090163436989489"><ele>-6.0</ele><time>2026-03-28T14:04:42.01Z</time></trkpt><trkpt lat="44.76309363334302" lon="12.090233806856135"><ele>-6.0</ele><time>2026-03-28T14:04:43.01Z</time></trkpt><trkpt lat="44.76290866262703" lon="12.090313584969527"><ele>-6.0</ele><time>2026-03-28T14:04:44.01Z</time></trkpt><trkpt lat="44.76270568067128" lon="12.0904011691403"><ele>-6.0</ele><time>2026-03-28T14:04:45.01Z</time></trkpt><trkpt lat="44.76248846235075" lon="12.090499368794097"><ele>-5.5</ele><time>2026-03-28T14:04:46.01Z</time></trkpt><trkpt lat="44.762259863766594" lon="12.090598707816886"><ele>-5.0</ele><time>2026-03-28T14:04:47.01Z</time></trkpt><trkpt lat="44.762032739796545" lon="12.090701912058353"><ele>-5.5</ele><time>2026-03-28T14:04:48.01Z</time></trkpt><trkpt lat="44.76179680840823" lon="12.09080543184266"><ele>-6.0</ele><time>2026-03-28T14:04:49.01Z</time></trkpt><trkpt lat="44.761555341577484" lon="12.090908321548662"><ele>-6.0</ele><time>2026-03-28T14:04:50.01Z</time></trkpt><trkpt lat="44.76131059369855" lon="12.091015937564727"><ele>-6.0</ele><time>2026-03-28T14:04:51.01Z</time></trkpt><trkpt lat="44.761063812120355" lon="12.091129302848131"><ele>-6.0</ele><time>2026-03-28T14:04:52.01Z</time></trkpt><trkpt lat="44.760812527574274" lon="12.091238711469789"><ele>-6.0</ele><time>2026-03-28T14:04:53.01Z</time></trkpt><trkpt lat="44.76055779436053" lon="12.091348094805781"><ele>-6.0</ele><time>2026-03-28T14:04:54.01Z</time></trkpt><trkpt lat="44.76029831691829" lon="12.091462067361665"><ele>-6.0</ele><time>2026-03-28T14:04:55.01Z</time></trkpt><trkpt lat="44.76003943628525" lon="12.091574149253324"><ele>-6.5</ele><time>2026-03-28T14:04:56.01Z</time></trkpt><trkpt lat="44.75978024118828" lon="12.091683243476515"><ele>-7.0</ele><time>2026-03-28T14:04:57.01Z</time></trkpt><trkpt lat="44.759523555857896" lon="12.09179820351827"><ele>-6.5</ele><time>2026-03-28T14:04:58.01Z</time></trkpt><trkpt lat="44.759266609203856" lon="12.091913029273568"><ele>-6.0</ele><time>2026-03-28T14:04:59.01Z</time></trkpt><trkpt lat="44.75900741830556" lon="12.092021398334413"><ele>-6.0</ele><time>2026-03-28T14:05:00.01Z</time></trkpt><trkpt lat="44.758745413483666" lon="12.092129393058558"><ele>-6.0</ele><time>2026-03-28T14:05:01.01Z</time></trkpt><trkpt lat="44.758486415399304" lon="12.092241828900432"><ele>-6.0</ele><time>2026-03-28T14:05:02.01Z</time></trkpt><trkpt lat="44.758227079816635" lon="12.092349990518958"><ele>-6.0</ele><time>2026-03-28T14:05:03.01Z</time></trkpt><trkpt lat="44.75796782689912" lon="12.092462178015882"><ele>-6.0</ele><time>2026-03-28T14:05:04.01Z</time></trkpt><trkpt lat="44.75771489521284" lon="12.092575099493235"><ele>-6.0</ele><time>2026-03-28T14:05:05.01Z</time></trkpt><trkpt lat="44.75746411796389" lon="12.09268222619872"><ele>-5.5</ele><time>2026-03-28T14:05:06.01Z</time></trkpt><trkpt lat="44.75722295615386" lon="12.092796282352563"><ele>-5.0</ele><time>2026-03-28T14:05:07.01Z</time></trkpt><trkpt lat="44.75698490277484" lon="12.092906060404307"><ele>-5.0</ele><time>2026-03-28T14:05:08.01Z</time></trkpt><trkpt lat="44.756758897323465" lon="12.09300361375672"><ele>-5.0</ele><time>2026-03-28T14:05:09.01Z</time></trkpt><trkpt lat="44.75654172179645" lon="12.09309306844256"><ele>-5.0</ele><time>2026-03-28T14:05:10.01Z</time></trkpt><trkpt lat="44.75632729435839" lon="12.093168440029762"><ele>-5.0</ele><time>2026-03-28T14:05:11.01Z</time></trkpt><trkpt lat="44.75611159655952" lon="12.09326374795791"><ele>-5.0</ele><time>2026-03-28T14:05:12.01Z</time></trkpt><trkpt lat="44.7558995076268" lon="12.09337769606779"><ele>-5.0</ele><time>2026-03-28T14:05:13.01Z</time></trkpt><trkpt lat="44.755682007485014" lon="12.093463189766785"><ele>-5.0</ele><time>2026-03-28T14:05:14.01Z</time></trkpt><trkpt lat="44.755472820507656" lon="12.093556997051774"><ele>-5.0</ele><time>2026-03-28T14:05:15.01Z</time></trkpt><trkpt lat="44.75526201618546" lon="12.093641116699745"><ele>-4.666666666666667</ele><time>2026-03-28T14:05:16.01Z</time></trkpt><trkpt lat="44.75505729008058" lon="12.093735358554406"><ele>-4.333333333333333</ele><time>2026-03-28T14:05:17.01Z</time></trkpt><trkpt lat="44.75485139342698" lon="12.093829676913195"><ele>-4.0</ele><time>2026-03-28T14:05:18.01Z</time></trkpt><trkpt lat="44.75464779755263" lon="12.093942580995677"><ele>-4.0</ele><time>2026-03-28T14:05:19.01Z</time></trkpt><trkpt lat="44.75444381202955" lon="12.094084076391676"><ele>-4.0</ele><time>2026-03-28T14:05:20.01Z</time></trkpt><trkpt lat="44.75424966813401" lon="12.094261051667907"><ele>-4.0</ele><time>2026-03-28T14:05:21.01Z</time></trkpt><trkpt lat="44.75406087265796" lon="12.094443500236256"><ele>-4.0</ele><time>2026-03-28T14:05:22.01Z</time></trkpt><trkpt lat="44.75387980337729" lon="12.094641280278237"><ele>-4.0</ele><time>2026-03-28T14:05:23.01Z</time></trkpt><trkpt lat="44.75370907146513" lon="12.094844765810944"><ele>-4.0</ele><time>2026-03-28T14:05:24.01Z</time></trkpt><trkpt lat="44.753551113963454" lon="12.095066283544432"><ele>-4.0</ele><time>2026-03-28T14:05:25.01Z</time></trkpt><trkpt lat="44.75340557040264" lon="12.095297852697632"><ele>-3.5</ele><time>2026-03-28T14:05:26.01Z</time></trkpt><trkpt lat="44.75327595525409" lon="12.095547708369102"><ele>-3.0</ele><time>2026-03-28T14:05:27.01Z</time></trkpt><trkpt lat="44.75314910351643" lon="12.09582658912647"><ele>-3.0</ele><time>2026-03-28T14:05:28.01Z</time></trkpt><trkpt lat="44.753037464608816" lon="12.09610972141157"><ele>-3.0</ele><time>2026-03-28T14:05:29.01Z</time></trkpt><trkpt lat="44.75293173660967" lon="12.096403847153784"><ele>-3.5</ele><time>2026-03-28T14:05:30.01Z</time></trkpt><trkpt lat="44.75283698503172" lon="12.096704329545176"><ele>-4.0</ele><time>2026-03-28T14:05:31.01Z</time></trkpt><trkpt lat="44.75276265317124" lon="12.097043798814045"><ele>-4.0</ele><time>2026-03-28T14:05:32.01Z</time></trkpt><trkpt lat="44.75269964864626" lon="12.097399131848245"><ele>-4.0</ele><time>2026-03-28T14:05:33.01Z</time></trkpt><trkpt lat="44.75264274053557" lon="12.09776198199945"><ele>-4.0</ele><time>2026-03-28T14:05:34.01Z</time></trkpt><trkpt lat="44.7525957522206" lon="12.098125125649451"><ele>-4.0</ele><time>2026-03-28T14:05:35.01Z</time></trkpt><trkpt lat="44.7525437538168" lon="12.09849615159099"><ele>-3.0</ele><time>2026-03-28T14:05:36.01Z</time></trkpt><trkpt lat="44.75248346049401" lon="12.09887206859486"><ele>-2.0</ele><time>2026-03-28T14:05:37.01Z</time></trkpt><trkpt lat="44.75241995046142" lon="12.099256706664786"><ele>-1.5</ele><time>2026-03-28T14:05:38.01Z</time></trkpt><trkpt lat="44.752369912568334" lon="12.099641693622354"><ele>-1.0</ele><time>2026-03-28T14:05:39.01Z</time></trkpt><trkpt lat="44.75231232973578" lon="12.100026719865705"><ele>-1.0</ele><time>2026-03-28T14:05:40.01Z</time></trkpt><trkpt lat="44.752259627588835" lon="12.100404617923632"><ele>-1.0</ele><time>2026-03-28T14:05:41.01Z</time></trkpt><trkpt lat="44.752207032043785" lon="12.100774339131284"><ele>-1.0</ele><time>2026-03-28T14:05:42.01Z</time></trkpt><trkpt lat="44.75215235248231" lon="12.101136913126124"><ele>-1.0</ele><time>2026-03-28T14:05:43.01Z</time></trkpt><trkpt lat="44.75210046619904" lon="12.101491296682994"><ele>-2.0</ele><time>2026-03-28T14:05:44.01Z</time></trkpt><trkpt lat="44.75205190290097" lon="12.101844704581914"><ele>-3.0</ele><time>2026-03-28T14:05:45.01Z</time></trkpt><trkpt lat="44.75200434772583" lon="12.10220396724795"><ele>-3.5</ele><time>2026-03-28T14:05:46.01Z</time></trkpt><trkpt lat="44.75195420468969" lon="12.102561967559392"><ele>-4.0</ele><time>2026-03-28T14:05:47.01Z</time></trkpt><trkpt lat="44.75189985381611" lon="12.102929788371673"><ele>-3.5</ele><time>2026-03-28T14:05:48.01Z</time></trkpt><trkpt lat="44.75183421713919" lon="12.103295860048368"><ele>-3.0</ele><time>2026-03-28T14:05:49.01Z</time></trkpt><trkpt lat="44.75177791826554" lon="12.103669486492823"><ele>-3.0</ele><time>2026-03-28T14:05:50.01Z</time></trkpt><trkpt lat="44.75172110383862" lon="12.104037014652178"><ele>-3.0</ele><time>2026-03-28T14:05:51.01Z</time></trkpt><trkpt lat="44.75165859979794" lon="12.104409258737968"><ele>-3.0</ele><time>2026-03-28T14:05:52.01Z</time></trkpt><trkpt lat="44.75160369555881" lon="12.104780406768166"><ele>-3.0</ele><time>2026-03-28T14:05:53.01Z</time></trkpt><trkpt lat="44.75154803852493" lon="12.105155766091597"><ele>-3.5</ele><time>2026-03-28T14:05:54.01Z</time></trkpt><trkpt lat="44.751488952816715" lon="12.105534307062621"><ele>-4.0</ele><time>2026-03-28T14:05:55.01Z</time></trkpt><trkpt lat="44.751429589024845" lon="12.105918773680866"><ele>-4.0</ele><time>2026-03-28T14:05:56.01Z</time></trkpt><trkpt lat="44.751368595637246" lon="12.106298984048927"><ele>-4.0</ele><time>2026-03-28T14:05:57.01Z</time></trkpt><trkpt lat="44.75131175940077" lon="12.106683555830797"><ele>-4.5</ele><time>2026-03-28T14:05:58.01Z</time></trkpt><trkpt lat="44.75125461130978" lon="12.10706908434605"><ele>-5.0</ele><time>2026-03-28T14:05:59.01Z</time></trkpt><trkpt lat="44.75119972510292" lon="12.107449423599778"><ele>-5.0</ele><time>2026-03-28T14:06:00.01Z</time></trkpt><trkpt lat="44.751147504791234" lon="12.107831782398968"><ele>-5.0</ele><time>2026-03-28T14:06:01.01Z</time></trkpt><trkpt lat="44.75109158114681" lon="12.108213088488164"><ele>-5.5</ele><time>2026-03-28T14:06:02.01Z</time></trkpt><trkpt lat="44.751033917419036" lon="12.108596402164684"><ele>-6.0</ele><time>2026-03-28T14:06:03.01Z</time></trkpt><trkpt lat="44.75097212550106" lon="12.108982827135108"><ele>-6.0</ele><time>2026-03-28T14:06:04.01Z</time></trkpt><trkpt lat="44.75091299230883" lon="12.109372547236052"><ele>-6.0</ele><time>2026-03-28T14:06:05.01Z</time></trkpt><trkpt lat="44.750858543568256" lon="12.109759485131047"><ele>-5.0</ele><time>2026-03-28T14:06:06.01Z</time></trkpt><trkpt lat="44.750795728937184" lon="12.110149455912559"><ele>-4.0</ele><time>2026-03-28T14:06:07.011Z</time></trkpt><trkpt lat="44.750738857773094" lon="12.110546720447044"><ele>-5.0</ele><time>2026-03-28T14:06:08.011Z</time></trkpt><trkpt lat="44.750680441744244" lon="12.110947341083717"><ele>-6.0</ele><time>2026-03-28T14:06:09.011Z</time></trkpt><trkpt lat="44.750615049141466" lon="12.111343325114738"><ele>-6.0</ele><time>2026-03-28T14:06:10.011Z</time></trkpt><trkpt lat="44.7505571749462" lon="12.11173400678148"><ele>-6.0</ele><time>2026-03-28T14:06:11.011Z</time></trkpt><trkpt lat="44.75049170749435" lon="12.112127855666726"><ele>-5.5</ele><time>2026-03-28T14:06:12.011Z</time></trkpt><trkpt lat="44.7504311252851" lon="12.112515289071487"><ele>-5.0</ele><time>2026-03-28T14:06:13.011Z</time></trkpt><trkpt lat="44.75037449367487" lon="12.112901101796766"><ele>-5.0</ele><time>2026-03-28T14:06:14.011Z</time></trkpt><trkpt lat="44.75032142482451" lon="12.113290115444787"><ele>-5.0</ele><time>2026-03-28T14:06:15.011Z</time></trkpt><trkpt lat="44.750262340085975" lon="12.113657408618444"><ele>-5.0</ele><time>2026-03-28T14:06:16.011Z</time></trkpt><trkpt lat="44.75020606433948" lon="12.114025142228753"><ele>-5.0</ele><time>2026-03-28T14:06:17.011Z</time></trkpt><trkpt lat="44.750146666422616" lon="12.114369984949453"><ele>-5.0</ele><time>2026-03-28T14:06:18.011Z</time></trkpt><trkpt lat="44.750099244647785" lon="12.114693816545296"><ele>-5.0</ele><time>2026-03-28T14:06:19.011Z</time></trkpt><trkpt lat="44.75005532722362" lon="12.114996639258399"><ele>-4.666666666666667</ele><time>2026-03-28T14:06:20.011Z</time></trkpt><trkpt lat="44.750010634934874" lon="12.115279144965475"><ele>-4.333333333333333</ele><time>2026-03-28T14:06:21.011Z</time></trkpt><trkpt lat="44.749967638778635" lon="12.115543962090083"><ele>-4.0</ele><time>2026-03-28T14:06:22.011Z</time></trkpt><trkpt lat="44.74992912366589" lon="12.11579515914236"><ele>-4.5</ele><time>2026-03-28T14:06:23.011Z</time></trkpt><trkpt lat="44.74989972801822" lon="12.116015363662981"><ele>-5.0</ele><time>2026-03-28T14:06:24.011Z</time></trkpt><trkpt lat="44.749873560730435" lon="12.116220329796944"><ele>-5.5</ele><time>2026-03-28T14:06:25.011Z</time></trkpt><trkpt lat="44.749847955255014" lon="12.116414147370474"><ele>-6.0</ele><time>2026-03-28T14:06:26.011Z</time></trkpt><trkpt lat="44.74982336425579" lon="12.116603315961697"><ele>-6.25</ele><time>2026-03-28T14:06:27.011Z</time></trkpt><trkpt lat="44.74979728318126" lon="12.116784821729421"><ele>-6.5</ele><time>2026-03-28T14:06:28.011Z</time></trkpt><trkpt lat="44.749763825496636" lon="12.116955297144923"><ele>-6.75</ele><time>2026-03-28T14:06:29.011Z</time></trkpt><trkpt lat="44.74974534001223" lon="12.117103406744667"><ele>-7.0</ele><time>2026-03-28T14:06:30.011Z</time></trkpt><trkpt lat="44.74973082374108" lon="12.117252228298035"><ele>-7.000000000000001</ele><time>2026-03-28T14:06:31.011Z</time></trkpt><trkpt lat="44.749710728197236" lon="12.117368936999252"><ele>-7.0</ele><time>2026-03-28T14:06:32.011Z</time></trkpt><trkpt lat="44.749686349257665" lon="12.117488921882188"><ele>-7.0</ele><time>2026-03-28T14:06:33.011Z</time></trkpt><trkpt lat="44.74964828127568" lon="12.117600164048508"><ele>-7.0</ele><time>2026-03-28T14:06:34.011Z</time></trkpt><trkpt lat="44.74959865929843" lon="12.11769770320976"><ele>-7.000000000000001</ele><time>2026-03-28T14:06:35.011Z</time></trkpt><trkpt lat="44.749531556089444" lon="12.117773787585545"><ele>-7.0</ele><time>2026-03-28T14:06:36.011Z</time></trkpt><trkpt lat="44.74946357754334" lon="12.117857677923375"><ele>-7.0</ele><time>2026-03-28T14:06:37.011Z</time></trkpt><trkpt lat="44.749415059456155" lon="12.117968153106837"><ele>-6.999999999999999</ele><time>2026-03-28T14:06:38.011Z</time></trkpt><trkpt lat="44.749397274970796" lon="12.118115821404091"><ele>-6.999999999999999</ele><time>2026-03-28T14:06:39.011Z</time></trkpt><trkpt lat="44.74941947058002" lon="12.118251899918155"><ele>-7.0</ele><time>2026-03-28T14:06:40.011Z</time></trkpt><trkpt lat="44.74946125653321" lon="12.118392821299844"><ele>-7.0</ele><time>2026-03-28T14:06:41.011Z</time></trkpt><trkpt lat="44.749501692898264" lon="12.118534069810885"><ele>-7.25</ele><time>2026-03-28T14:06:42.011Z</time></trkpt><trkpt lat="44.74950751924771" lon="12.118679538099927"><ele>-7.5</ele><time>2026-03-28T14:06:43.011Z</time></trkpt><trkpt lat="44.7494913808952" lon="12.118860877261179"><ele>-7.75</ele><time>2026-03-28T14:06:44.011Z</time></trkpt><trkpt lat="44.74945650177438" lon="12.119083811663772"><ele>-8.0</ele><time>2026-03-28T14:06:45.011Z</time></trkpt><trkpt lat="44.74941215456534" lon="12.1193317905785"><ele>-7.0</ele><time>2026-03-28T14:06:46.011Z</time></trkpt><trkpt lat="44.74937087814176" lon="12.119607625904441"><ele>-6.0</ele><time>2026-03-28T14:06:47.011Z</time></trkpt><trkpt lat="44.7493322179881" lon="12.119875624885248"><ele>-5.0</ele><time>2026-03-28T14:06:48.011Z</time></trkpt><trkpt lat="44.74928876394134" lon="12.120159598605301"><ele>-5.0</ele><time>2026-03-28T14:06:49.011Z</time></trkpt><trkpt lat="44.74924310072919" lon="12.120453109079838"><ele>-5.0</ele><time>2026-03-28T14:06:50.011Z</time></trkpt><trkpt lat="44.74919756714552" lon="12.120753811706066"><ele>-5.0</ele><time>2026-03-28T14:06:51.011Z</time></trkpt><trkpt lat="44.74915069909773" lon="12.121061134285338"><ele>-5.0</ele><time>2026-03-28T14:06:52.011Z</time></trkpt><trkpt lat="44.749101642859415" lon="12.121373181325733"><ele>-5.0</ele><time>2026-03-28T14:06:53.011Z</time></trkpt><trkpt lat="44.74905431947391" lon="12.121688988201713"><ele>-5.0</ele><time>2026-03-28T14:06:54.011Z</time></trkpt><trkpt lat="44.74900597092505" lon="12.122006953610015"><ele>-5.0</ele><time>2026-03-28T14:06:55.011Z</time></trkpt><trkpt lat="44.748956265236394" lon="12.122327638976248"><ele>-5.0</ele><time>2026-03-28T14:06:56.011Z</time></trkpt><trkpt lat="44.748906577121545" lon="12.12264484442279"><ele>-5.0</ele><time>2026-03-28T14:06:57.011Z</time></trkpt><trkpt lat="44.74886200729342" lon="12.12296480972143"><ele>-5.0</ele><time>2026-03-28T14:06:58.011Z</time></trkpt><trkpt lat="44.74881662293608" lon="12.12328787606478"><ele>-5.0</ele><time>2026-03-28T14:06:59.011Z</time></trkpt><trkpt lat="44.74875962320112" lon="12.12360965012361"><ele>-5.0</ele><time>2026-03-28T14:07:00.011Z</time></trkpt><trkpt lat="44.74870807393188" lon="12.123935941799454"><ele>-5.0</ele><time>2026-03-28T14:07:01.011Z</time></trkpt><trkpt lat="44.748647284825694" lon="12.124261493530877"><ele>-4.5</ele><time>2026-03-28T14:07:02.011Z</time></trkpt><trkpt lat="44.74859614047739" lon="12.124592893528462"><ele>-4.0</ele><time>2026-03-28T14:07:03.011Z</time></trkpt><trkpt lat="44.74854428321196" lon="12.124923551682773"><ele>-3.0</ele><time>2026-03-28T14:07:04.011Z</time></trkpt><trkpt lat="44.748482808004326" lon="12.125255048151013"><ele>-2.0</ele><time>2026-03-28T14:07:05.011Z</time></trkpt><trkpt lat="44.74843085616453" lon="12.12559451900706"><ele>-3.0</ele><time>2026-03-28T14:07:06.011Z</time></trkpt><trkpt lat="44.74837700318853" lon="12.12592738851381"><ele>-4.0</ele><time>2026-03-28T14:07:07.011Z</time></trkpt><trkpt lat="44.74832778657527" lon="12.126263039374116"><ele>-4.0</ele><time>2026-03-28T14:07:08.011Z</time></trkpt><trkpt lat="44.74827638160954" lon="12.126594826075868"><ele>-4.0</ele><time>2026-03-28T14:07:09.011Z</time></trkpt><trkpt lat="44.74822878252148" lon="12.12692335621324"><ele>-4.0</ele><time>2026-03-28T14:07:10.011Z</time></trkpt><trkpt lat="44.74818464861475" lon="12.127257427444713"><ele>-4.0</ele><time>2026-03-28T14:07:11.011Z</time></trkpt><trkpt lat="44.748138996156825" lon="12.127598522156319"><ele>-5.0</ele><time>2026-03-28T14:07:12.011Z</time></trkpt><trkpt lat="44.74808589874583" lon="12.127928149061768"><ele>-6.0</ele><time>2026-03-28T14:07:13.011Z</time></trkpt><trkpt lat="44.74803247888997" lon="12.128264703215859"><ele>-6.0</ele><time>2026-03-28T14:07:14.011Z</time></trkpt><trkpt lat="44.747983274901024" lon="12.12860002516436"><ele>-6.0</ele><time>2026-03-28T14:07:15.011Z</time></trkpt><trkpt lat="44.74793334629622" lon="12.128942559118293"><ele>-6.0</ele><time>2026-03-28T14:07:16.011Z</time></trkpt><trkpt lat="44.747882412221784" lon="12.12928125878665"><ele>-6.0</ele><time>2026-03-28T14:07:17.011Z</time></trkpt><trkpt lat="44.74782897386852" lon="12.129614108093538"><ele>-5.0</ele><time>2026-03-28T14:07:18.011Z</time></trkpt><trkpt lat="44.747787359596416" lon="12.129944598938216"><ele>-4.0</ele><time>2026-03-28T14:07:19.011Z</time></trkpt><trkpt lat="44.74772780109358" lon="12.130280496808407"><ele>-4.5</ele><time>2026-03-28T14:07:20.011Z</time></trkpt><trkpt lat="44.747682292983036" lon="12.13061230907961"><ele>-5.0</ele><time>2026-03-28T14:07:21.011Z</time></trkpt><trkpt lat="44.7476330136947" lon="12.130937914102336"><ele>-4.0</ele><time>2026-03-28T14:07:22.011Z</time></trkpt><trkpt lat="44.74758144733201" lon="12.131264138813247"><ele>-3.0</ele><time>2026-03-28T14:07:23.011Z</time></trkpt><trkpt lat="44.74753519932535" lon="12.131581881358183"><ele>-3.0</ele><time>2026-03-28T14:07:24.011Z</time></trkpt><trkpt lat="44.747492204210424" lon="12.131890108668417"><ele>-3.0</ele><time>2026-03-28T14:07:25.011Z</time></trkpt><trkpt lat="44.74744151646192" lon="12.132188442522798"><ele>-3.0</ele><time>2026-03-28T14:07:26.011Z</time></trkpt><trkpt lat="44.74739676050323" lon="12.132471196257908"><ele>-3.333333333333333</ele><time>2026-03-28T14:07:27.011Z</time></trkpt><trkpt lat="44.74735032918288" lon="12.132755258968261"><ele>-3.6666666666666665</ele><time>2026-03-28T14:07:28.011Z</time></trkpt><trkpt lat="44.74731550497" lon="12.133042830486245"><ele>-4.0</ele><time>2026-03-28T14:07:29.011Z</time></trkpt><trkpt lat="44.74728254737949" lon="12.133312537871529"><ele>-4.0</ele><time>2026-03-28T14:07:30.011Z</time></trkpt><trkpt lat="44.747236716696875" lon="12.133568509203048"><ele>-4.0</ele><time>2026-03-28T14:07:31.011Z</time></trkpt><trkpt lat="44.74719827648041" lon="12.133840732074681"><ele>-4.0</ele><time>2026-03-28T14:07:32.011Z</time></trkpt><trkpt lat="44.74715202175605" lon="12.134124274693555"><ele>-4.0</ele><time>2026-03-28T14:07:33.011Z</time></trkpt><trkpt lat="44.747105914431465" lon="12.134382197948293"><ele>-4.0</ele><time>2026-03-28T14:07:34.011Z</time></trkpt><trkpt lat="44.74706272211135" lon="12.134642201703294"><ele>-4.0</ele><time>2026-03-28T14:07:35.011Z</time></trkpt><trkpt lat="44.7470185255441" lon="12.134888656173528"><ele>-3.333333333333333</ele><time>2026-03-28T14:07:36.011Z</time></trkpt><trkpt lat="44.7469874327516" lon="12.135125238823683"><ele>-2.6666666666666665</ele><time>2026-03-28T14:07:37.011Z</time></trkpt><trkpt lat="44.74695761291522" lon="12.135337333507362"><ele>-2.0</ele><time>2026-03-28T14:07:38.01Z</time></trkpt><trkpt lat="44.74693080866611" lon="12.135516154217726"><ele>-1.9999999999999998</ele><time>2026-03-28T14:07:39.01Z</time></trkpt><trkpt lat="44.7469054418446" lon="12.135657729853927"><ele>-2.0</ele><time>2026-03-28T14:07:40.01Z</time></trkpt><trkpt lat="44.7468923562437" lon="12.135772545679501"><ele>-2.0</ele><time>2026-03-28T14:07:41.01Z</time></trkpt><trkpt lat="44.746869959093054" lon="12.13589125782218"><ele>-2.0</ele><time>2026-03-28T14:07:42.01Z</time></trkpt><trkpt lat="44.74684087690974" lon="12.135976154704917"><ele>-1.9999999999999998</ele><time>2026-03-28T14:07:43.01Z</time></trkpt><trkpt lat="44.74680755396039" lon="12.136066224930644"><ele>-2.0</ele><time>2026-03-28T14:07:44.01Z</time></trkpt><trkpt lat="44.74674592088388" lon="12.136162158498895"><ele>-2.0</ele><time>2026-03-28T14:07:45.01Z</time></trkpt><trkpt lat="44.746671143510426" lon="12.136247836222719"><ele>-2.0</ele><time>2026-03-28T14:07:46.01Z</time></trkpt><trkpt lat="44.74660353906271" lon="12.136357204289336"><ele>-2.0</ele><time>2026-03-28T14:07:47.01Z</time></trkpt><trkpt lat="44.746580988096454" lon="12.136499419575882"><ele>-2.0</ele><time>2026-03-28T14:07:48.01Z</time></trkpt><trkpt lat="44.7465831915152" lon="12.136635922282178"><ele>-2.0</ele><time>2026-03-28T14:07:49.01Z</time></trkpt><trkpt lat="44.746637948745004" lon="12.136740621672123"><ele>-1.75</ele><time>2026-03-28T14:07:50.01Z</time></trkpt><trkpt lat="44.74665806583067" lon="12.136900324189588"><ele>-1.5</ele><time>2026-03-28T14:07:51.01Z</time></trkpt><trkpt lat="44.74669324745782" lon="12.137046605198206"><ele>-1.25</ele><time>2026-03-28T14:07:52.01Z</time></trkpt><trkpt lat="44.74669181500951" lon="12.137241620966051"><ele>-1.0</ele><time>2026-03-28T14:07:53.01Z</time></trkpt><trkpt lat="44.74665008602454" lon="12.137444773654723"><ele>-1.0</ele><time>2026-03-28T14:07:54.01Z</time></trkpt><trkpt lat="44.746618716508436" lon="12.137662309245412"><ele>-1.0</ele><time>2026-03-28T14:07:55.01Z</time></trkpt><trkpt lat="44.74658527657952" lon="12.137897881147767"><ele>-1.0</ele><time>2026-03-28T14:07:56.01Z</time></trkpt><trkpt lat="44.74654629116657" lon="12.138128093948687"><ele>-1.6666666666666665</ele><time>2026-03-28T14:07:57.01Z</time></trkpt><trkpt lat="44.746493839894576" lon="12.138349662146911"><ele>-2.3333333333333335</ele><time>2026-03-28T14:07:58.01Z</time></trkpt><trkpt lat="44.74643744209155" lon="12.138554107323055"><ele>-3.0</ele><time>2026-03-28T14:07:59.01Z</time></trkpt><trkpt lat="44.74638469706821" lon="12.138767351850994"><ele>-3.0</ele><time>2026-03-28T14:08:00.01Z</time></trkpt><trkpt lat="44.74632011857492" lon="12.138984717979184"><ele>-3.0</ele><time>2026-03-28T14:08:01.01Z</time></trkpt><trkpt lat="44.74623060257146" lon="12.139196646110841"><ele>-3.0</ele><time>2026-03-28T14:08:02.01Z</time></trkpt><trkpt lat="44.746143377171116" lon="12.13940834345041"><ele>-3.0</ele><time>2026-03-28T14:08:03.01Z</time></trkpt><trkpt lat="44.74604699345345" lon="12.139624866800004"><ele>-3.0</ele><time>2026-03-28T14:08:04.01Z</time></trkpt><trkpt lat="44.745939658805845" lon="12.139840922357154"><ele>-3.0</ele><time>2026-03-28T14:08:05.01Z</time></trkpt><trkpt lat="44.74582210322771" lon="12.14005652095491"><ele>-3.0</ele><time>2026-03-28T14:08:06.01Z</time></trkpt><trkpt lat="44.74569795527413" lon="12.14026149973113"><ele>-3.0</ele><time>2026-03-28T14:08:07.01Z</time></trkpt><trkpt lat="44.74555663852369" lon="12.14046235736793"><ele>-3.0</ele><time>2026-03-28T14:08:08.01Z</time></trkpt><trkpt lat="44.74540768591561" lon="12.14066017792465"><ele>-2.6666666666666665</ele><time>2026-03-28T14:08:09.01Z</time></trkpt><trkpt lat="44.74525416675336" lon="12.1408402621372"><ele>-2.333333333333333</ele><time>2026-03-28T14:08:10.01Z</time></trkpt><trkpt lat="44.74509775046983" lon="12.14100488857427"><ele>-2.0</ele><time>2026-03-28T14:08:11.01Z</time></trkpt><trkpt lat="44.74494981347112" lon="12.14115288632536"><ele>-2.0</ele><time>2026-03-28T14:08:12.01Z</time></trkpt><trkpt lat="44.744799929784016" lon="12.141283920369622"><ele>-2.0</ele><time>2026-03-28T14:08:13.012Z</time></trkpt><trkpt lat="44.744641556622796" lon="12.14140283221672"><ele>-2.0</ele><time>2026-03-28T14:08:14.011Z</time></trkpt><trkpt lat="44.74447417281286" lon="12.141517274259108"><ele>-2.6666666666666665</ele><time>2026-03-28T14:08:15.011Z</time></trkpt><trkpt lat="44.74428987745829" lon="12.141629933528922"><ele>-3.333333333333333</ele><time>2026-03-28T14:08:16.011Z</time></trkpt><trkpt lat="44.744100201362315" lon="12.141739936413213"><ele>-4.0</ele><time>2026-03-28T14:08:17.011Z</time></trkpt><trkpt lat="44.74391456728135" lon="12.141846043692178"><ele>-4.0</ele><time>2026-03-28T14:08:18.011Z</time></trkpt><trkpt lat="44.743728690006336" lon="12.141952109089969"><ele>-4.0</ele><time>2026-03-28T14:08:19.012Z</time></trkpt><trkpt lat="44.74355498881679" lon="12.142075883892511"><ele>-4.0</ele><time>2026-03-28T14:08:20.011Z</time></trkpt><trkpt lat="44.743365318523416" lon="12.142150199097843"><ele>-3.333333333333333</ele><time>2026-03-28T14:08:21.011Z</time></trkpt><trkpt lat="44.743183089008966" lon="12.14224829383246"><ele>-2.6666666666666665</ele><time>2026-03-28T14:08:22.012Z</time></trkpt><trkpt lat="44.742997818400696" lon="12.142353432124974"><ele>-2.0</ele><time>2026-03-28T14:08:23.012Z</time></trkpt><trkpt lat="44.74280910357465" lon="12.142460821865846"><ele>-2.0</ele><time>2026-03-28T14:08:24.012Z</time></trkpt><trkpt lat="44.742620686281285" lon="12.142576340823226"><ele>-2.0</ele><time>2026-03-28T14:08:25.012Z</time></trkpt><trkpt lat="44.742432344226714" lon="12.142690599917554"><ele>-2.0</ele><time>2026-03-28T14:08:26.012Z</time></trkpt><trkpt lat="44.74222781631267" lon="12.142807075388433"><ele>-2.0</ele><time>2026-03-28T14:08:27.012Z</time></trkpt><trkpt lat="44.74200651934973" lon="12.142927996605271"><ele>-2.0</ele><time>2026-03-28T14:08:28.012Z</time></trkpt><trkpt lat="44.74177005876739" lon="12.14308210522981"><ele>-2.5</ele><time>2026-03-28T14:08:29.012Z</time></trkpt><trkpt lat="44.74150975082067" lon="12.14324224438743"><ele>-3.0</ele><time>2026-03-28T14:08:30.012Z</time></trkpt><trkpt lat="44.74123846552271" lon="12.143402623703393"><ele>-3.0</ele><time>2026-03-28T14:08:31.012Z</time></trkpt><trkpt lat="44.7409653547665" lon="12.143561081439628"><ele>-3.0</ele><time>2026-03-28T14:08:32.012Z</time></trkpt><trkpt lat="44.740686492635014" lon="12.143718026980144"><ele>-3.0</ele><time>2026-03-28T14:08:33.012Z</time></trkpt><trkpt lat="44.74040859215785" lon="12.143868062055741"><ele>-3.0</ele><time>2026-03-28T14:08:34.012Z</time></trkpt><trkpt lat="44.740136858874884" lon="12.144021381016145"><ele>-3.5</ele><time>2026-03-28T14:08:35.012Z</time></trkpt><trkpt lat="44.739868454335515" lon="12.144168314394257"><ele>-4.0</ele><time>2026-03-28T14:08:36.012Z</time></trkpt><trkpt lat="44.739602929322864" lon="12.144330100631207"><ele>-3.5</ele><time>2026-03-28T14:08:37.012Z</time></trkpt><trkpt lat="44.73933246667616" lon="12.144480855616134"><ele>-3.0</ele><time>2026-03-28T14:08:38.012Z</time></trkpt><trkpt lat="44.73906172399629" lon="12.144636354642497"><ele>-3.0</ele><time>2026-03-28T14:08:39.012Z</time></trkpt><trkpt lat="44.73879672878869" lon="12.144794624523248"><ele>-3.0</ele><time>2026-03-28T14:08:40.012Z</time></trkpt><trkpt lat="44.73853744084002" lon="12.144941851730973"><ele>-4.5</ele><time>2026-03-28T14:08:41.012Z</time></trkpt><trkpt lat="44.73829071260461" lon="12.145083753773784"><ele>-6.0</ele><time>2026-03-28T14:08:42.012Z</time></trkpt><trkpt lat="44.738054318102286" lon="12.145226605282337"><ele>-6.0</ele><time>2026-03-28T14:08:43.012Z</time></trkpt><trkpt lat="44.73782265687252" lon="12.145315230795743"><ele>-6.0</ele><time>2026-03-28T14:08:44.012Z</time></trkpt><trkpt lat="44.737608557959796" lon="12.14543485920472"><ele>-5.0</ele><time>2026-03-28T14:08:45.012Z</time></trkpt><trkpt lat="44.737403992279845" lon="12.14555949596039"><ele>-4.0</ele><time>2026-03-28T14:08:46.012Z</time></trkpt><trkpt lat="44.73720290485358" lon="12.145678578221684"><ele>-3.0</ele><time>2026-03-28T14:08:47.012Z</time></trkpt><trkpt lat="44.73699711697517" lon="12.145797821236016"><ele>-3.0</ele><time>2026-03-28T14:08:48.012Z</time></trkpt><trkpt lat="44.73680052151654" lon="12.14592232468947"><ele>-3.0</ele><time>2026-03-28T14:08:49.012Z</time></trkpt><trkpt lat="44.73660440547002" lon="12.146038536241575"><ele>-3.0</ele><time>2026-03-28T14:08:50.012Z</time></trkpt><trkpt lat="44.7364002131955" lon="12.146141403450379"><ele>-3.0</ele><time>2026-03-28T14:08:51.012Z</time></trkpt><trkpt lat="44.736214162073836" lon="12.146257017343999"><ele>-3.0</ele><time>2026-03-28T14:08:52.012Z</time></trkpt><trkpt lat="44.736018541591186" lon="12.146376514821872"><ele>-3.0</ele><time>2026-03-28T14:08:53.012Z</time></trkpt><trkpt lat="44.73581627251902" lon="12.146504664105665"><ele>-2.0</ele><time>2026-03-28T14:08:54.012Z</time></trkpt><trkpt lat="44.73560037722106" lon="12.146632971044786"><ele>-1.0</ele><time>2026-03-28T14:08:55.012Z</time></trkpt><trkpt lat="44.73538136584155" lon="12.146758836989312"><ele>-2.0</ele><time>2026-03-28T14:08:56.012Z</time></trkpt><trkpt lat="44.73515839601556" lon="12.146885588363919"><ele>-3.0</ele><time>2026-03-28T14:08:57.012Z</time></trkpt><trkpt lat="44.73493733676596" lon="12.14702634602729"><ele>-3.0</ele><time>2026-03-28T14:08:58.012Z</time></trkpt><trkpt lat="44.73469002385747" lon="12.147185010757205"><ele>-3.0</ele><time>2026-03-28T14:08:59.012Z</time></trkpt><trkpt lat="44.734417998907354" lon="12.147333467955189"><ele>-3.0</ele><time>2026-03-28T14:09:00.012Z</time></trkpt><trkpt lat="44.734141652755305" lon="12.147471453037209"><ele>-3.0</ele><time>2026-03-28T14:09:01.012Z</time></trkpt><trkpt lat="44.733868730252716" lon="12.147623841514893"><ele>-3.0</ele><time>2026-03-28T14:09:02.012Z</time></trkpt><trkpt lat="44.73359316758517" lon="12.147776726169287"><ele>-3.0</ele><time>2026-03-28T14:09:03.012Z</time></trkpt><trkpt lat="44.733318870621055" lon="12.147944308557108"><ele>-3.5</ele><time>2026-03-28T14:09:04.012Z</time></trkpt><trkpt lat="44.73303410138682" lon="12.148107380152933"><ele>-4.0</ele><time>2026-03-28T14:09:05.012Z</time></trkpt><trkpt lat="44.732744582307085" lon="12.14826905774433"><ele>-4.0</ele><time>2026-03-28T14:09:06.012Z</time></trkpt><trkpt lat="44.73246724678933" lon="12.148424507460069"><ele>-4.0</ele><time>2026-03-28T14:09:07.012Z</time></trkpt><trkpt lat="44.73219022942058" lon="12.14857940245474"><ele>-4.0</ele><time>2026-03-28T14:09:08.012Z</time></trkpt><trkpt lat="44.73191893564844" lon="12.148732632190583"><ele>-4.0</ele><time>2026-03-28T14:09:09.012Z</time></trkpt><trkpt lat="44.73165709808928" lon="12.148890634940933"><ele>-3.5</ele><time>2026-03-28T14:09:10.012Z</time></trkpt><trkpt lat="44.73140771991657" lon="12.149033758384665"><ele>-3.0</ele><time>2026-03-28T14:09:11.012Z</time></trkpt><trkpt lat="44.73116478974342" lon="12.149167496941672"><ele>-3.5</ele><time>2026-03-28T14:09:12.012Z</time></trkpt><trkpt lat="44.73093697656275" lon="12.149298840665688"><ele>-4.0</ele><time>2026-03-28T14:09:13.012Z</time></trkpt><trkpt lat="44.730721265206654" lon="12.149416391828845"><ele>-4.0</ele><time>2026-03-28T14:09:14.012Z</time></trkpt><trkpt lat="44.73051839665915" lon="12.149538454824599"><ele>-4.0</ele><time>2026-03-28T14:09:15.012Z</time></trkpt><trkpt lat="44.7303295457087" lon="12.149650722006564"><ele>-4.0</ele><time>2026-03-28T14:09:16.012Z</time></trkpt><trkpt lat="44.73014588029371" lon="12.149751303378636"><ele>-3.6666666666666665</ele><time>2026-03-28T14:09:17.012Z</time></trkpt><trkpt lat="44.72998105261652" lon="12.149844721455695"><ele>-3.333333333333333</ele><time>2026-03-28T14:09:18.012Z</time></trkpt><trkpt lat="44.72983883058941" lon="12.149931891446371"><ele>-3.0</ele><time>2026-03-28T14:09:19.012Z</time></trkpt><trkpt lat="44.72971910037657" lon="12.150006947892738"><ele>-3.0</ele><time>2026-03-28T14:09:20.012Z</time></trkpt><trkpt lat="44.7296179458455" lon="12.150072728197832"><ele>-3.0</ele><time>2026-03-28T14:09:21.012Z</time></trkpt><trkpt lat="44.72953994376024" lon="12.150107614741078"><ele>-3.0</ele><time>2026-03-28T14:09:22.012Z</time></trkpt><trkpt lat="44.72947023169259" lon="12.150123157150716"><ele>-3.0</ele><time>2026-03-28T14:09:23.012Z</time></trkpt><trkpt lat="44.72940103339594" lon="12.150128576548882"><ele>-3.0</ele><time>2026-03-28T14:09:24.012Z</time></trkpt><trkpt lat="44.729326532382714" lon="12.150130759623162"><ele>-3.0</ele><time>2026-03-28T14:09:25.012Z</time></trkpt><trkpt lat="44.72923742023769" lon="12.150154664046367"><ele>-3.0</ele><time>2026-03-28T14:09:26.012Z</time></trkpt><trkpt lat="44.72915087269766" lon="12.15021684326114"><ele>-3.0</ele><time>2026-03-28T14:09:27.012Z</time></trkpt><trkpt lat="44.72907302048203" lon="12.150315985845278"><ele>-3.0</ele><time>2026-03-28T14:09:28.012Z</time></trkpt><trkpt lat="44.728986131235075" lon="12.150412192281557"><ele>-3.0</ele><time>2026-03-28T14:09:29.012Z</time></trkpt><trkpt lat="44.728891085254084" lon="12.150494925738151"><ele>-3.0</ele><time>2026-03-28T14:09:30.012Z</time></trkpt><trkpt lat="44.7287692181909" lon="12.150560638669006"><ele>-3.0</ele><time>2026-03-28T14:09:31.012Z</time></trkpt><trkpt lat="44.72861064822295" lon="12.150651268846959"><ele>-3.0</ele><time>2026-03-28T14:09:32.012Z</time></trkpt><trkpt lat="44.72843750465964" lon="12.150774279646633"><ele>-3.0</ele><time>2026-03-28T14:09:33.012Z</time></trkpt><trkpt lat="44.72822864855176" lon="12.150885742279415"><ele>-3.0</ele><time>2026-03-28T14:09:34.012Z</time></trkpt><trkpt lat="44.728009099989976" lon="12.151010772974187"><ele>-3.0</ele><time>2026-03-28T14:09:35.012Z</time></trkpt><trkpt lat="44.72776375729579" lon="12.151136107237237"><ele>-3.0</ele><time>2026-03-28T14:09:36.012Z</time></trkpt><trkpt lat="44.72750888058467" lon="12.151282199660898"><ele>-3.0</ele><time>2026-03-28T14:09:37.011Z</time></trkpt><trkpt lat="44.727254896179915" lon="12.151427780636737"><ele>-3.5</ele><time>2026-03-28T14:09:38.011Z</time></trkpt><trkpt lat="44.72701180092424" lon="12.151589659361655"><ele>-4.0</ele><time>2026-03-28T14:09:39.011Z</time></trkpt><trkpt lat="44.72674877278376" lon="12.151712132295614"><ele>-5.0</ele><time>2026-03-28T14:09:40.011Z</time></trkpt><trkpt lat="44.726493674856066" lon="12.151850793123247"><ele>-6.0</ele><time>2026-03-28T14:09:41.011Z</time></trkpt><trkpt lat="44.726235997087606" lon="12.152002138218608"><ele>-5.5</ele><time>2026-03-28T14:09:42.011Z</time></trkpt><trkpt lat="44.72597919891378" lon="12.152155578029735"><ele>-5.0</ele><time>2026-03-28T14:09:43.011Z</time></trkpt><trkpt lat="44.72572243497863" lon="12.152303070847582"><ele>-4.5</ele><time>2026-03-28T14:09:44.011Z</time></trkpt><trkpt lat="44.72546466810312" lon="12.152455398498574"><ele>-4.0</ele><time>2026-03-28T14:09:45.011Z</time></trkpt><trkpt lat="44.72520222350952" lon="12.152604666744008"><ele>-3.5</ele><time>2026-03-28T14:09:46.011Z</time></trkpt><trkpt lat="44.72493310084325" lon="12.152755888405563"><ele>-3.0</ele><time>2026-03-28T14:09:47.011Z</time></trkpt><trkpt lat="44.72466517495563" lon="12.152908735914806"><ele>-3.0</ele><time>2026-03-28T14:09:48.011Z</time></trkpt><trkpt lat="44.72439537407212" lon="12.153064988405534"><ele>-3.0</ele><time>2026-03-28T14:09:49.011Z</time></trkpt><trkpt lat="44.72413383146777" lon="12.153221194101441"><ele>-3.5</ele><time>2026-03-28T14:09:50.011Z</time></trkpt><trkpt lat="44.72387853992021" lon="12.15337490877925"><ele>-4.0</ele><time>2026-03-28T14:09:51.011Z</time></trkpt><trkpt lat="44.72362054468084" lon="12.153527759457441"><ele>-3.5</ele><time>2026-03-28T14:09:52.011Z</time></trkpt><trkpt lat="44.72336010871667" lon="12.153678311597483"><ele>-3.0</ele><time>2026-03-28T14:09:53.011Z</time></trkpt><trkpt lat="44.72310333216282" lon="12.15382456782851"><ele>-3.0</ele><time>2026-03-28T14:09:54.011Z</time></trkpt><trkpt lat="44.72285096973766" lon="12.153970812164722"><ele>-3.0</ele><time>2026-03-28T14:09:55.011Z</time></trkpt><trkpt lat="44.722592949115395" lon="12.154115399356794"><ele>-3.0</ele><time>2026-03-28T14:09:56.011Z</time></trkpt><trkpt lat="44.722340329369096" lon="12.154259198612197"><ele>-3.0</ele><time>2026-03-28T14:09:57.011Z</time></trkpt><trkpt lat="44.72208948063153" lon="12.154403640223421"><ele>-3.5</ele><time>2026-03-28T14:09:58.011Z</time></trkpt><trkpt lat="44.72184464585201" lon="12.15454464737452"><ele>-4.0</ele><time>2026-03-28T14:09:59.011Z</time></trkpt><trkpt lat="44.72160713091614" lon="12.154693207798719"><ele>-4.0</ele><time>2026-03-28T14:10:00.011Z</time></trkpt><trkpt lat="44.72137238243504" lon="12.154824803986914"><ele>-4.0</ele><time>2026-03-28T14:10:01.011Z</time></trkpt><trkpt lat="44.72112874024819" lon="12.154961600208956"><ele>-4.0</ele><time>2026-03-28T14:10:02.011Z</time></trkpt><trkpt lat="44.72089458834479" lon="12.155092666789443"><ele>-4.0</ele><time>2026-03-28T14:10:03.011Z</time></trkpt><trkpt lat="44.72067491054308" lon="12.15522458979151"><ele>-4.0</ele><time>2026-03-28T14:10:04.011Z</time></trkpt><trkpt lat="44.720459914507984" lon="12.155331659108867"><ele>-4.0</ele><time>2026-03-28T14:10:05.011Z</time></trkpt><trkpt lat="44.720257281326894" lon="12.155453121653409"><ele>-4.0</ele><time>2026-03-28T14:10:06.011Z</time></trkpt><trkpt lat="44.72005565268493" lon="12.155580584039123"><ele>-3.6666666666666665</ele><time>2026-03-28T14:10:07.011Z</time></trkpt><trkpt lat="44.7198658363298" lon="12.155685216495746"><ele>-3.333333333333333</ele><time>2026-03-28T14:10:08.011Z</time></trkpt><trkpt lat="44.71967695785397" lon="12.15578794970481"><ele>-3.0</ele><time>2026-03-28T14:10:09.011Z</time></trkpt><trkpt lat="44.71948576176951" lon="12.15589491022378"><ele>-3.333333333333333</ele><time>2026-03-28T14:10:10.011Z</time></trkpt><trkpt lat="44.71930813859619" lon="12.156011037713458"><ele>-3.6666666666666665</ele><time>2026-03-28T14:10:11.011Z</time></trkpt><trkpt lat="44.71912602351418" lon="12.156117961009768"><ele>-4.0</ele><time>2026-03-28T14:10:12.011Z</time></trkpt><trkpt lat="44.71894039386755" lon="12.156208055040821"><ele>-4.0</ele><time>2026-03-28T14:10:13.011Z</time></trkpt><trkpt lat="44.718771494981624" lon="12.156305174143835"><ele>-4.0</ele><time>2026-03-28T14:10:14.011Z</time></trkpt><trkpt lat="44.71861969725048" lon="12.156400572407096"><ele>-4.0</ele><time>2026-03-28T14:10:15.011Z</time></trkpt><trkpt lat="44.71847112030569" lon="12.15649448696546"><ele>-4.0</ele><time>2026-03-28T14:10:16.011Z</time></trkpt><trkpt lat="44.718312610672214" lon="12.15658637409134"><ele>-4.0</ele><time>2026-03-28T14:10:17.011Z</time></trkpt><trkpt lat="44.718141420196666" lon="12.156690923323485"><ele>-4.0</ele><time>2026-03-28T14:10:18.011Z</time></trkpt><trkpt lat="44.71795890182951" lon="12.156781379215603"><ele>-4.0</ele><time>2026-03-28T14:10:19.013Z</time></trkpt><trkpt lat="44.71778324534126" lon="12.15686922114632"><ele>-4.0</ele><time>2026-03-28T14:10:20.012Z</time></trkpt><trkpt lat="44.717621631564874" lon="12.156953237717923"><ele>-4.0</ele><time>2026-03-28T14:10:21.012Z</time></trkpt><trkpt lat="44.71746283825645" lon="12.157041769540928"><ele>-3.333333333333333</ele><time>2026-03-28T14:10:22.012Z</time></trkpt><trkpt lat="44.71730710506849" lon="12.157130546808554"><ele>-2.6666666666666665</ele><time>2026-03-28T14:10:23.013Z</time></trkpt><trkpt lat="44.71713551954318" lon="12.157228284867873"><ele>-2.0</ele><time>2026-03-28T14:10:24.013Z</time></trkpt><trkpt lat="44.716967018207555" lon="12.157316718297391"><ele>-2.6666666666666665</ele><time>2026-03-28T14:10:25.012Z</time></trkpt><trkpt lat="44.71680460621414" lon="12.157416461359"><ele>-3.333333333333333</ele><time>2026-03-28T14:10:26.012Z</time></trkpt><trkpt lat="44.71663050403884" lon="12.15751077674509"><ele>-4.0</ele><time>2026-03-28T14:10:27.012Z</time></trkpt><trkpt lat="44.716456786301066" lon="12.15760210725146"><ele>-4.0</ele><time>2026-03-28T14:10:28.012Z</time></trkpt><trkpt lat="44.71628839064197" lon="12.157705376008597"><ele>-4.0</ele><time>2026-03-28T14:10:29.012Z</time></trkpt><trkpt lat="44.71612496947716" lon="12.157806445253055"><ele>-4.0</ele><time>2026-03-28T14:10:30.012Z</time></trkpt><trkpt lat="44.71594146710213" lon="12.157913496507577"><ele>-3.6666666666666665</ele><time>2026-03-28T14:10:31.012Z</time></trkpt><trkpt lat="44.71576015758073" lon="12.15801373492193"><ele>-3.333333333333333</ele><time>2026-03-28T14:10:32.013Z</time></trkpt><trkpt lat="44.71558906342874" lon="12.15811260003142"><ele>-3.0</ele><time>2026-03-28T14:10:33.013Z</time></trkpt><trkpt lat="44.715410233121936" lon="12.158216423283374"><ele>-2.3333333333333335</ele><time>2026-03-28T14:10:34.013Z</time></trkpt><trkpt lat="44.71523283478329" lon="12.158320530287574"><ele>-1.6666666666666665</ele><time>2026-03-28T14:10:35.013Z</time></trkpt><trkpt lat="44.71505092815071" lon="12.158414910070963"><ele>-1.0</ele><time>2026-03-28T14:10:36.013Z</time></trkpt><trkpt lat="44.714865779928374" lon="12.158517977831957"><ele>-1.0</ele><time>2026-03-28T14:10:37.013Z</time></trkpt><trkpt lat="44.71468683773656" lon="12.158623522080266"><ele>-1.0</ele><time>2026-03-28T14:10:38.013Z</time></trkpt><trkpt lat="44.714503925068726" lon="12.15873042974726"><ele>-1.0</ele><time>2026-03-28T14:10:39.013Z</time></trkpt><trkpt lat="44.714327084275" lon="12.158829559601413"><ele>-2.0</ele><time>2026-03-28T14:10:40.013Z</time></trkpt><trkpt lat="44.71414992323567" lon="12.158927629296201"><ele>-3.0</ele><time>2026-03-28T14:10:41.013Z</time></trkpt><trkpt lat="44.71394996340991" lon="12.159036839941457"><ele>-4.0</ele><time>2026-03-28T14:10:42.013Z</time></trkpt><trkpt lat="44.713733643397106" lon="12.159160623659181"><ele>-4.5</ele><time>2026-03-28T14:10:43.013Z</time></trkpt><trkpt lat="44.7134982060445" lon="12.159294850309793"><ele>-5.0</ele><time>2026-03-28T14:10:44.013Z</time></trkpt><trkpt lat="44.71324353965398" lon="12.159440687479544"><ele>-5.0</ele><time>2026-03-28T14:10:45.013Z</time></trkpt><trkpt lat="44.712992625307635" lon="12.159584375904947"><ele>-5.0</ele><time>2026-03-28T14:10:46.013Z</time></trkpt><trkpt lat="44.712730529356946" lon="12.159748893558195"><ele>-5.0</ele><time>2026-03-28T14:10:47.013Z</time></trkpt><trkpt lat="44.71245938435053" lon="12.159914641285528"><ele>-5.0</ele><time>2026-03-28T14:10:48.013Z</time></trkpt><trkpt lat="44.71220812543144" lon="12.160057709885702"><ele>-5.0</ele><time>2026-03-28T14:10:49.013Z</time></trkpt><trkpt lat="44.71196410192086" lon="12.160197389230733"><ele>-5.0</ele><time>2026-03-28T14:10:50.013Z</time></trkpt><trkpt lat="44.71171585607387" lon="12.160339767738003"><ele>-4.5</ele><time>2026-03-28T14:10:51.013Z</time></trkpt><trkpt lat="44.71146111230204" lon="12.160485662689663"><ele>-4.0</ele><time>2026-03-28T14:10:52.013Z</time></trkpt><trkpt lat="44.711212166052896" lon="12.16065053009158"><ele>-4.0</ele><time>2026-03-28T14:10:53.013Z</time></trkpt><trkpt lat="44.71096052471587" lon="12.160788870924959"><ele>-4.0</ele><time>2026-03-28T14:10:54.013Z</time></trkpt><trkpt lat="44.71070908058291" lon="12.160930332417626"><ele>-4.0</ele><time>2026-03-28T14:10:55.013Z</time></trkpt><trkpt lat="44.710452835718826" lon="12.16106999764679"><ele>-4.0</ele><time>2026-03-28T14:10:56.013Z</time></trkpt><trkpt lat="44.71020529349069" lon="12.161213349082205"><ele>-5.0</ele><time>2026-03-28T14:10:57.013Z</time></trkpt><trkpt lat="44.70995793219208" lon="12.161354225276648"><ele>-6.0</ele><time>2026-03-28T14:10:58.013Z</time></trkpt><trkpt lat="44.709719402294965" lon="12.16149419803393"><ele>-5.5</ele><time>2026-03-28T14:10:59.013Z</time></trkpt><trkpt lat="44.709482420522" lon="12.161632150122404"><ele>-5.0</ele><time>2026-03-28T14:11:00.013Z</time></trkpt><trkpt lat="44.70924436683911" lon="12.161767105876967"><ele>-5.0</ele><time>2026-03-28T14:11:01.013Z</time></trkpt><trkpt lat="44.70901170166947" lon="12.161909462225287"><ele>-5.0</ele><time>2026-03-28T14:11:02.013Z</time></trkpt><trkpt lat="44.708772247559764" lon="12.16202105574089"><ele>-4.5</ele><time>2026-03-28T14:11:03.013Z</time></trkpt><trkpt lat="44.70853573399333" lon="12.162132791454962"><ele>-4.0</ele><time>2026-03-28T14:11:04.013Z</time></trkpt><trkpt lat="44.70831710574729" lon="12.162259808971692"><ele>-4.0</ele><time>2026-03-28T14:11:05.013Z</time></trkpt><trkpt lat="44.70810519625436" lon="12.162378208958177"><ele>-4.0</ele><time>2026-03-28T14:11:06.013Z</time></trkpt><trkpt lat="44.707896983011985" lon="12.162501505704054"><ele>-3.6666666666666665</ele><time>2026-03-28T14:11:07.013Z</time></trkpt><trkpt lat="44.707695905172514" lon="12.162621450259566"><ele>-3.333333333333333</ele><time>2026-03-28T14:11:08.013Z</time></trkpt><trkpt lat="44.70749742934645" lon="12.162737174840336"><ele>-3.0</ele><time>2026-03-28T14:11:09.013Z</time></trkpt><trkpt lat="44.707299670674225" lon="12.162858597457626"><ele>-3.0</ele><time>2026-03-28T14:11:10.013Z</time></trkpt><trkpt lat="44.70709958737438" lon="12.162974395621434"><ele>-3.0</ele><time>2026-03-28T14:11:11.013Z</time></trkpt><trkpt lat="44.706899696227076" lon="12.163095883010191"><ele>-3.0</ele><time>2026-03-28T14:11:12.013Z</time></trkpt><trkpt lat="44.70670861783972" lon="12.16321111828487"><ele>-3.666666666666667</ele><time>2026-03-28T14:11:13.013Z</time></trkpt><trkpt lat="44.70652029113171" lon="12.163326087978335"><ele>-4.333333333333334</ele><time>2026-03-28T14:11:14.013Z</time></trkpt><trkpt lat="44.70633515044507" lon="12.163435781594746"><ele>-5.0</ele><time>2026-03-28T14:11:15.013Z</time></trkpt><trkpt lat="44.70615098041177" lon="12.16354930293274"><ele>-4.666666666666667</ele><time>2026-03-28T14:11:16.013Z</time></trkpt><trkpt lat="44.70596566647411" lon="12.16365985439151"><ele>-4.333333333333333</ele><time>2026-03-28T14:11:17.013Z</time></trkpt><trkpt lat="44.705770458449905" lon="12.163760429398456"><ele>-4.0</ele><time>2026-03-28T14:11:18.013Z</time></trkpt><trkpt lat="44.70559421155316" lon="12.163861774413851"><ele>-4.0</ele><time>2026-03-28T14:11:19.013Z</time></trkpt><trkpt lat="44.705433718230516" lon="12.163953898094006"><ele>-4.0</ele><time>2026-03-28T14:11:20.013Z</time></trkpt><trkpt lat="44.70529320627867" lon="12.164043229346243"><ele>-4.0</ele><time>2026-03-28T14:11:21.013Z</time></trkpt><trkpt lat="44.70515692164378" lon="12.164125115438035"><ele>-3.75</ele><time>2026-03-28T14:11:22.013Z</time></trkpt><trkpt lat="44.705021481040006" lon="12.1642002470265"><ele>-3.5</ele><time>2026-03-28T14:11:23.013Z</time></trkpt><trkpt lat="44.70489354374831" lon="12.164272815623711"><ele>-3.25</ele><time>2026-03-28T14:11:24.012Z</time></trkpt><trkpt lat="44.704768446402944" lon="12.164339781156123"><ele>-3.0</ele><time>2026-03-28T14:11:25.012Z</time></trkpt><trkpt lat="44.704648281062866" lon="12.164407146355616"><ele>-3.0</ele><time>2026-03-28T14:11:26.012Z</time></trkpt><trkpt lat="44.704532488032676" lon="12.164473554996752"><ele>-3.0</ele><time>2026-03-28T14:11:27.012Z</time></trkpt><trkpt lat="44.70441747253841" lon="12.164546238396392"><ele>-3.0</ele><time>2026-03-28T14:11:28.012Z</time></trkpt><trkpt lat="44.7042973462411" lon="12.164603456480043"><ele>-3.0</ele><time>2026-03-28T14:11:29.012Z</time></trkpt><trkpt lat="44.70418684372902" lon="12.164665556346021"><ele>-3.0</ele><time>2026-03-28T14:11:30.012Z</time></trkpt><trkpt lat="44.7040799316264" lon="12.164729059051947"><ele>-3.0</ele><time>2026-03-28T14:11:31.012Z</time></trkpt><trkpt lat="44.7039715775484" lon="12.164779016489456"><ele>-3.0</ele><time>2026-03-28T14:11:32.012Z</time></trkpt><trkpt lat="44.70388961190144" lon="12.164842319764638"><ele>-3.0</ele><time>2026-03-28T14:11:33.012Z</time></trkpt><trkpt lat="44.703803910818245" lon="12.164895211691334"><ele>-3.0</ele><time>2026-03-28T14:11:34.012Z</time></trkpt><trkpt lat="44.703722480884906" lon="12.164943810512765"><ele>-3.0</ele><time>2026-03-28T14:11:35.012Z</time></trkpt><trkpt lat="44.703641868297545" lon="12.164985318541797"><ele>-3.0</ele><time>2026-03-28T14:11:36.012Z</time></trkpt><trkpt lat="44.70356421627629" lon="12.165020345650454"><ele>-3.0</ele><time>2026-03-28T14:11:37.012Z</time></trkpt><trkpt lat="44.703483919577366" lon="12.165022262449865"><ele>-3.0</ele><time>2026-03-28T14:11:38.012Z</time></trkpt><trkpt lat="44.70339286080721" lon="12.16499987880765"><ele>-3.0</ele><time>2026-03-28T14:11:39.012Z</time></trkpt><trkpt lat="44.70330959910704" lon="12.165012979928656"><ele>-3.0</ele><time>2026-03-28T14:11:40.012Z</time></trkpt><trkpt lat="44.70323969371499" lon="12.165051182738287"><ele>-2.8</ele><time>2026-03-28T14:11:41.012Z</time></trkpt><trkpt lat="44.703197693143395" lon="12.16515899349089"><ele>-2.5999999999999996</ele><time>2026-03-28T14:11:42.012Z</time></trkpt><trkpt lat="44.703195141585276" lon="12.165311809861612"><ele>-2.4000000000000004</ele><time>2026-03-28T14:11:43.012Z</time></trkpt><trkpt lat="44.703219883642696" lon="12.165452035992013"><ele>-2.2</ele><time>2026-03-28T14:11:44.012Z</time></trkpt><trkpt lat="44.70322084562825" lon="12.165584205261581"><ele>-2.0</ele><time>2026-03-28T14:11:45.012Z</time></trkpt><trkpt lat="44.70317218109689" lon="12.165728407966332"><ele>-2.0</ele><time>2026-03-28T14:11:46.012Z</time></trkpt><trkpt lat="44.70311033973346" lon="12.165886176787758"><ele>-2.0</ele><time>2026-03-28T14:11:47.012Z</time></trkpt><trkpt lat="44.70304292086728" lon="12.166057124051125"><ele>-2.0</ele><time>2026-03-28T14:11:48.012Z</time></trkpt><trkpt lat="44.70297751401244" lon="12.166222969735752"><ele>-2.0</ele><time>2026-03-28T14:11:49.012Z</time></trkpt><trkpt lat="44.70290950570542" lon="12.166395411482812"><ele>-2.0</ele><time>2026-03-28T14:11:50.012Z</time></trkpt><trkpt lat="44.702842082665924" lon="12.166567861991641"><ele>-2.0</ele><time>2026-03-28T14:11:51.012Z</time></trkpt><trkpt lat="44.70276841661551" lon="12.166757929774564"><ele>-2.0</ele><time>2026-03-28T14:11:52.012Z</time></trkpt><trkpt lat="44.70269557990084" lon="12.166945857871015"><ele>-2.0</ele><time>2026-03-28T14:11:53.012Z</time></trkpt><trkpt lat="44.70261854508492" lon="12.16714461751729"><ele>-2.333333333333333</ele><time>2026-03-28T14:11:54.012Z</time></trkpt><trkpt lat="44.70255587018646" lon="12.167349974198482"><ele>-2.6666666666666665</ele><time>2026-03-28T14:11:55.012Z</time></trkpt><trkpt lat="44.702483449853766" lon="12.167535683281667"><ele>-3.0</ele><time>2026-03-28T14:11:56.012Z</time></trkpt><trkpt lat="44.70240588970355" lon="12.167732074166288"><ele>-3.0</ele><time>2026-03-28T14:11:57.012Z</time></trkpt><trkpt lat="44.702325387970966" lon="12.167947786805948"><ele>-3.0</ele><time>2026-03-28T14:11:58.012Z</time></trkpt><trkpt lat="44.70224222352111" lon="12.168173580041804"><ele>-3.0</ele><time>2026-03-28T14:11:59.012Z</time></trkpt><trkpt lat="44.70214593574032" lon="12.168388336515175"><ele>-3.0</ele><time>2026-03-28T14:12:00.012Z</time></trkpt><trkpt lat="44.702061295324306" lon="12.168612310398457"><ele>-3.0</ele><time>2026-03-28T14:12:01.012Z</time></trkpt><trkpt lat="44.70197848442087" lon="12.168831750044909"><ele>-3.0</ele><time>2026-03-28T14:12:02.012Z</time></trkpt><trkpt lat="44.70189307837542" lon="12.169050859782995"><ele>-3.0</ele><time>2026-03-28T14:12:03.012Z</time></trkpt><trkpt lat="44.70181102333411" lon="12.169271159933539"><ele>-3.0</ele><time>2026-03-28T14:12:04.012Z</time></trkpt><trkpt lat="44.70172471351039" lon="12.169503329470842"><ele>-3.0</ele><time>2026-03-28T14:12:05.012Z</time></trkpt><trkpt lat="44.701638158790104" lon="12.16973782208011"><ele>-2.6666666666666665</ele><time>2026-03-28T14:12:06.012Z</time></trkpt><trkpt lat="44.7015470198306" lon="12.169977530719736"><ele>-2.333333333333333</ele><time>2026-03-28T14:12:07.012Z</time></trkpt><trkpt lat="44.701452345071736" lon="12.170223790179454"><ele>-2.0</ele><time>2026-03-28T14:12:08.012Z</time></trkpt><trkpt lat="44.70135635958392" lon="12.170474775664962"><ele>-2.333333333333333</ele><time>2026-03-28T14:12:09.012Z</time></trkpt><trkpt lat="44.7012599662765" lon="12.170719074597606"><ele>-2.6666666666666665</ele><time>2026-03-28T14:12:10.012Z</time></trkpt><trkpt lat="44.70116923901313" lon="12.17095305290046"><ele>-3.0</ele><time>2026-03-28T14:12:11.012Z</time></trkpt><trkpt lat="44.70107933414723" lon="12.171182551830924"><ele>-2.3333333333333335</ele><time>2026-03-28T14:12:12.012Z</time></trkpt><trkpt lat="44.70099193649993" lon="12.171403153932447"><ele>-1.6666666666666665</ele><time>2026-03-28T14:12:13.012Z</time></trkpt><trkpt lat="44.70090009261678" lon="12.171622264521595"><ele>-1.0</ele><time>2026-03-28T14:12:14.012Z</time></trkpt><trkpt lat="44.70080943770646" lon="12.171838843710367"><ele>-0.6666666666666666</ele><time>2026-03-28T14:12:15.012Z</time></trkpt><trkpt lat="44.70072424447893" lon="12.172048836636634"><ele>-0.3333333333333333</ele><time>2026-03-28T14:12:16.012Z</time></trkpt><trkpt lat="44.70064008245362" lon="12.172261238377356"><ele>0.0</ele><time>2026-03-28T14:12:17.012Z</time></trkpt><trkpt lat="44.70056157442599" lon="12.172474946288196"><ele>-0.6666666666666666</ele><time>2026-03-28T14:12:18.012Z</time></trkpt><trkpt lat="44.700486518153745" lon="12.172693984120789"><ele>-1.3333333333333333</ele><time>2026-03-28T14:12:19.012Z</time></trkpt><trkpt lat="44.700409588893606" lon="12.172915677081074"><ele>-2.0</ele><time>2026-03-28T14:12:20.012Z</time></trkpt><trkpt lat="44.700335972566414" lon="12.17312918747412"><ele>-2.333333333333333</ele><time>2026-03-28T14:12:21.012Z</time></trkpt><trkpt lat="44.700267513873605" lon="12.17333546871524"><ele>-2.6666666666666665</ele><time>2026-03-28T14:12:22.012Z</time></trkpt><trkpt lat="44.7001938789089" lon="12.173523675898275"><ele>-3.0</ele><time>2026-03-28T14:12:23.012Z</time></trkpt><trkpt lat="44.70012840068815" lon="12.173694602066835"><ele>-2.5</ele><time>2026-03-28T14:12:24.012Z</time></trkpt><trkpt lat="44.70006916093649" lon="12.173841699191527"><ele>-2.0</ele><time>2026-03-28T14:12:25.013Z</time></trkpt><trkpt lat="44.70001222718697" lon="12.173978144837974"><ele>-1.5</ele><time>2026-03-28T14:12:26.013Z</time></trkpt><trkpt lat="44.69995270828549" lon="12.174110272573415"><ele>-1.0</ele><time>2026-03-28T14:12:27.013Z</time></trkpt><trkpt lat="44.699896773739226" lon="12.174240517371633"><ele>-1.0</ele><time>2026-03-28T14:12:28.013Z</time></trkpt><trkpt lat="44.699846545019284" lon="12.174362788794934"><ele>-1.0</ele><time>2026-03-28T14:12:29.013Z</time></trkpt><trkpt lat="44.699799225824684" lon="12.174479311085236"><ele>-1.0</ele><time>2026-03-28T14:12:30.013Z</time></trkpt><trkpt lat="44.69974409440027" lon="12.174583601307665"><ele>-1.0</ele><time>2026-03-28T14:12:31.013Z</time></trkpt><trkpt lat="44.69969685129037" lon="12.174693749650881"><ele>-1.0</ele><time>2026-03-28T14:12:32.013Z</time></trkpt><trkpt lat="44.69964312804386" lon="12.1747977805639"><ele>-1.1666666666666665</ele><time>2026-03-28T14:12:33.013Z</time></trkpt><trkpt lat="44.699595896949646" lon="12.17489668480478"><ele>-1.3333333333333333</ele><time>2026-03-28T14:12:34.013Z</time></trkpt><trkpt lat="44.699546687347784" lon="12.174994353402628"><ele>-1.5</ele><time>2026-03-28T14:12:35.013Z</time></trkpt><trkpt lat="44.69950341161312" lon="12.17508753418938"><ele>-1.6666666666666665</ele><time>2026-03-28T14:12:36.013Z</time></trkpt><trkpt lat="44.699465383177085" lon="12.175167131028134"><ele>-1.8333333333333333</ele><time>2026-03-28T14:12:37.013Z</time></trkpt><trkpt lat="44.699401562957185" lon="12.175309081374417"><ele>-2.0</ele><time>2026-03-28T14:12:39.013Z</time></trkpt><trkpt lat="44.69934913313526" lon="12.175420852636842"><ele>-1.6666666666666665</ele><time>2026-03-28T14:12:41.013Z</time></trkpt><trkpt lat="44.69930942038547" lon="12.175515700597984"><ele>-1.3333333333333333</ele><time>2026-03-28T14:12:44.013Z</time></trkpt><trkpt lat="44.699266092042244" lon="12.175584928114818"><ele>-1.0</ele><time>2026-03-28T14:13:06.013Z</time></trkpt><trkpt lat="44.69922672539693" lon="12.175694220318674"><ele>-0.6666666666666666</ele><time>2026-03-28T14:13:08.013Z</time></trkpt><trkpt lat="44.69915366675408" lon="12.175841109579569"><ele>-0.3333333333333333</ele><time>2026-03-28T14:13:10.013Z</time></trkpt><trkpt lat="44.69911943855754" lon="12.175929873969135"><ele>0.0</ele><time>2026-03-28T14:13:11.013Z</time></trkpt><trkpt lat="44.69908389051467" lon="12.176023096159684"><ele>0.0</ele><time>2026-03-28T14:13:12.013Z</time></trkpt><trkpt lat="44.6990182740488" lon="12.176116076841154"><ele>0.0</ele><time>2026-03-28T14:13:13.013Z</time></trkpt><trkpt lat="44.69896213896632" lon="12.176235581425649"><ele>0.0</ele><time>2026-03-28T14:13:14.013Z</time></trkpt><trkpt lat="44.69890705604515" lon="12.176350198660298"><ele>0.0</ele><time>2026-03-28T14:13:15.013Z</time></trkpt><trkpt lat="44.69885274446794" lon="12.176469726481745"><ele>0.0</ele><time>2026-03-28T14:13:16.013Z</time></trkpt><trkpt lat="44.69879675544076" lon="12.176597163176334"><ele>-0.25</ele><time>2026-03-28T14:13:17.013Z</time></trkpt><trkpt lat="44.6987400970606" lon="12.176729698647415"><ele>-0.5</ele><time>2026-03-28T14:13:18.013Z</time></trkpt><trkpt lat="44.698673537224785" lon="12.17687619764845"><ele>-0.75</ele><time>2026-03-28T14:13:19.013Z</time></trkpt><trkpt lat="44.69859948685724" lon="12.177034886106505"><ele>-1.0</ele><time>2026-03-28T14:13:20.013Z</time></trkpt><trkpt lat="44.69852497372135" lon="12.177195291231353"><ele>-1.0</ele><time>2026-03-28T14:13:21.013Z</time></trkpt><trkpt lat="44.69845420298629" lon="12.1773474394817"><ele>-1.0</ele><time>2026-03-28T14:13:22.013Z</time></trkpt><trkpt lat="44.69838837655403" lon="12.177492649529897"><ele>-1.0</ele><time>2026-03-28T14:13:23.013Z</time></trkpt><trkpt lat="44.69832212993003" lon="12.177632178987382"><ele>-1.0</ele><time>2026-03-28T14:13:24.013Z</time></trkpt><trkpt lat="44.6982534316752" lon="12.177777283996692"><ele>-1.25</ele><time>2026-03-28T14:13:25.013Z</time></trkpt><trkpt lat="44.69819849026157" lon="12.177943107721136"><ele>-1.5</ele><time>2026-03-28T14:13:26.013Z</time></trkpt><trkpt lat="44.69813647401916" lon="12.178101010971732"><ele>-1.75</ele><time>2026-03-28T14:13:27.013Z</time></trkpt><trkpt lat="44.69807758034713" lon="12.178255177681134"><ele>-2.0</ele><time>2026-03-28T14:13:28.013Z</time></trkpt><trkpt lat="44.69801560618605" lon="12.178411609863273"><ele>-2.0</ele><time>2026-03-28T14:13:29.013Z</time></trkpt><trkpt lat="44.697952588699124" lon="12.178586087626355"><ele>-2.0</ele><time>2026-03-28T14:13:30.013Z</time></trkpt><trkpt lat="44.69789368600475" lon="12.178783820891466"><ele>-2.0</ele><time>2026-03-28T14:13:31.013Z</time></trkpt><trkpt lat="44.69782520281856" lon="12.178999441428642"><ele>-2.0</ele><time>2026-03-28T14:13:32.013Z</time></trkpt><trkpt lat="44.697762869358556" lon="12.179216244787721"><ele>-2.0</ele><time>2026-03-28T14:13:33.013Z</time></trkpt><trkpt lat="44.69770252146447" lon="12.179439618648193"><ele>-2.0</ele><time>2026-03-28T14:13:34.013Z</time></trkpt><trkpt lat="44.697641325277694" lon="12.179667252230686"><ele>-1.6666666666666665</ele><time>2026-03-28T14:13:35.013Z</time></trkpt><trkpt lat="44.69757132738668" lon="12.179902358361161"><ele>-1.3333333333333333</ele><time>2026-03-28T14:13:36.013Z</time></trkpt><trkpt lat="44.69750699727341" lon="12.180149497726264"><ele>-1.0</ele><time>2026-03-28T14:13:37.013Z</time></trkpt><trkpt lat="44.69744811578989" lon="12.18042436751229"><ele>-1.0</ele><time>2026-03-28T14:13:38.013Z</time></trkpt><trkpt lat="44.6973987201105" lon="12.180699307939058"><ele>-1.0</ele><time>2026-03-28T14:13:39.013Z</time></trkpt><trkpt lat="44.69735933492605" lon="12.180951714303982"><ele>-1.0</ele><time>2026-03-28T14:13:40.013Z</time></trkpt><trkpt lat="44.697319607006435" lon="12.18120181255238"><ele>-1.0</ele><time>2026-03-28T14:13:41.013Z</time></trkpt><trkpt lat="44.697279425120485" lon="12.181447429143969"><ele>-1.0</ele><time>2026-03-28T14:13:42.013Z</time></trkpt><trkpt lat="44.69723732420222" lon="12.181701131436377"><ele>-1.0</ele><time>2026-03-28T14:13:43.013Z</time></trkpt><trkpt lat="44.697197054913744" lon="12.181946296034662"><ele>-1.3333333333333333</ele><time>2026-03-28T14:13:44.013Z</time></trkpt><trkpt lat="44.69715822725907" lon="12.182186611286669"><ele>-1.6666666666666665</ele><time>2026-03-28T14:13:45.013Z</time></trkpt><trkpt lat="44.69712387821447" lon="12.182429597373593"><ele>-2.0</ele><time>2026-03-28T14:13:46.013Z</time></trkpt><trkpt lat="44.697087778544294" lon="12.182678300084687"><ele>-2.0</ele><time>2026-03-28T14:13:47.013Z</time></trkpt><trkpt lat="44.697046607722754" lon="12.182935946671936"><ele>-2.0</ele><time>2026-03-28T14:13:48.013Z</time></trkpt><trkpt lat="44.6970096685185" lon="12.183189276499842"><ele>-2.0</ele><time>2026-03-28T14:13:49.013Z</time></trkpt><trkpt lat="44.69697883889629" lon="12.183447218706325"><ele>-2.333333333333333</ele><time>2026-03-28T14:13:50.013Z</time></trkpt><trkpt lat="44.696962342367456" lon="12.183700539205356"><ele>-2.6666666666666665</ele><time>2026-03-28T14:13:51.013Z</time></trkpt><trkpt lat="44.696958470558705" lon="12.183952836234493"><ele>-3.0</ele><time>2026-03-28T14:13:52.013Z</time></trkpt><trkpt lat="44.6969611711408" lon="12.184196040955841"><ele>-3.0</ele><time>2026-03-28T14:13:53.013Z</time></trkpt><trkpt lat="44.69695739617149" lon="12.184426411673611"><ele>-3.0</ele><time>2026-03-28T14:13:54.013Z</time></trkpt><trkpt lat="44.69694413105722" lon="12.184650251052648"><ele>-3.0</ele><time>2026-03-28T14:13:55.013Z</time></trkpt><trkpt lat="44.69691483762437" lon="12.184864665282257"><ele>-2.3333333333333335</ele><time>2026-03-28T14:13:56.013Z</time></trkpt><trkpt lat="44.69687765314352" lon="12.18507693762232"><ele>-1.6666666666666665</ele><time>2026-03-28T14:13:57.013Z</time></trkpt><trkpt lat="44.69683461765596" lon="12.185289167095423"><ele>-1.0</ele><time>2026-03-28T14:13:58.013Z</time></trkpt><trkpt lat="44.69677758727371" lon="12.18549888565804"><ele>-1.6666666666666665</ele><time>2026-03-28T14:13:59.013Z</time></trkpt><trkpt lat="44.69670248022165" lon="12.185699431336012"><ele>-2.3333333333333335</ele><time>2026-03-28T14:14:00.013Z</time></trkpt><trkpt lat="44.69662608369472" lon="12.18589121184244"><ele>-3.0</ele><time>2026-03-28T14:14:01.013Z</time></trkpt><trkpt lat="44.6965443159456" lon="12.18607904242712"><ele>-3.0</ele><time>2026-03-28T14:14:02.013Z</time></trkpt><trkpt lat="44.69646744606028" lon="12.186250739039917"><ele>-3.0</ele><time>2026-03-28T14:14:03.013Z</time></trkpt><trkpt lat="44.69639792299849" lon="12.18640728503465"><ele>-3.0</ele><time>2026-03-28T14:14:04.013Z</time></trkpt><trkpt lat="44.69632715740335" lon="12.186555369393231"><ele>-3.0</ele><time>2026-03-28T14:14:05.013Z</time></trkpt><trkpt lat="44.69625490100321" lon="12.186719057001621"><ele>-3.5</ele><time>2026-03-28T14:14:06.013Z</time></trkpt><trkpt lat="44.696153147313254" lon="12.186877995800913"><ele>-4.0</ele><time>2026-03-28T14:14:07.013Z</time></trkpt><trkpt lat="44.69608221703692" lon="12.187046027503415"><ele>-4.5</ele><time>2026-03-28T14:14:08.013Z</time></trkpt><trkpt lat="44.69600700476381" lon="12.187210363203649"><ele>-5.0</ele><time>2026-03-28T14:14:09.013Z</time></trkpt><trkpt lat="44.69593222328598" lon="12.187369273574388"><ele>-4.0</ele><time>2026-03-28T14:14:10.013Z</time></trkpt><trkpt lat="44.6958617667531" lon="12.187525265898339"><ele>-3.0</ele><time>2026-03-28T14:14:11.013Z</time></trkpt><trkpt lat="44.69578791403362" lon="12.18768390319949"><ele>-2.0</ele><time>2026-03-28T14:14:12.013Z</time></trkpt><trkpt lat="44.69571282175255" lon="12.187852634103239"><ele>-1.0</ele><time>2026-03-28T14:14:13.013Z</time></trkpt><trkpt lat="44.69563317251446" lon="12.188029897826926"><ele>-1.25</ele><time>2026-03-28T14:14:14.013Z</time></trkpt><trkpt lat="44.695556281423364" lon="12.188207182545378"><ele>-1.5</ele><time>2026-03-28T14:14:15.013Z</time></trkpt><trkpt lat="44.695479895772685" lon="12.188374011455641"><ele>-1.75</ele><time>2026-03-28T14:14:16.013Z</time></trkpt><trkpt lat="44.695405665689755" lon="12.188540613079823"><ele>-2.0</ele><time>2026-03-28T14:14:17.013Z</time></trkpt><trkpt lat="44.69533030218814" lon="12.188703455863626"><ele>-1.25</ele><time>2026-03-28T14:14:18.013Z</time></trkpt><trkpt lat="44.69525137894456" lon="12.188876301728653"><ele>-0.5</ele><time>2026-03-28T14:14:19.013Z</time></trkpt><trkpt lat="44.69516826863442" lon="12.189053395435703"><ele>0.25</ele><time>2026-03-28T14:14:20.013Z</time></trkpt><trkpt lat="44.69508812702335" lon="12.189225551383004"><ele>1.0</ele><time>2026-03-28T14:14:21.013Z</time></trkpt><trkpt lat="44.69500915093347" lon="12.189402375608225"><ele>1.0</ele><time>2026-03-28T14:14:22.013Z</time></trkpt><trkpt lat="44.694925436453474" lon="12.189577658187032"><ele>1.0</ele><time>2026-03-28T14:14:23.013Z</time></trkpt><trkpt lat="44.69484501205547" lon="12.18976050062422"><ele>1.0</ele><time>2026-03-28T14:14:24.013Z</time></trkpt><trkpt lat="44.69476068655652" lon="12.189950721945873"><ele>1.0</ele><time>2026-03-28T14:14:25.013Z</time></trkpt><trkpt lat="44.694675299160274" lon="12.19013963380114"><ele>1.0</ele><time>2026-03-28T14:14:26.013Z</time></trkpt><trkpt lat="44.694591492478494" lon="12.190330602518605"><ele>1.0</ele><time>2026-03-28T14:14:27.013Z</time></trkpt><trkpt lat="44.69449836396711" lon="12.190494364462666"><ele>0.3333333333333333</ele><time>2026-03-28T14:14:28.013Z</time></trkpt><trkpt lat="44.694412854644575" lon="12.190679386247975"><ele>-0.3333333333333333</ele><time>2026-03-28T14:14:29.013Z</time></trkpt><trkpt lat="44.69433010575873" lon="12.190858435303943"><ele>-1.0</ele><time>2026-03-28T14:14:30.013Z</time></trkpt><trkpt lat="44.69424491782431" lon="12.19104276174646"><ele>-1.0</ele><time>2026-03-28T14:14:31.013Z</time></trkpt><trkpt lat="44.69415944913923" lon="12.19122769574459"><ele>-1.0</ele><time>2026-03-28T14:14:32.014Z</time></trkpt><trkpt lat="44.69407670630755" lon="12.191406731660143"><ele>-1.0</ele><time>2026-03-28T14:14:33.014Z</time></trkpt><trkpt lat="44.693992187872205" lon="12.191589609512402"><ele>-1.6666666666666665</ele><time>2026-03-28T14:14:34.013Z</time></trkpt><trkpt lat="44.693908408971254" lon="12.191771653872845"><ele>-2.3333333333333335</ele><time>2026-03-28T14:14:35.013Z</time></trkpt><trkpt lat="44.6938230380331" lon="12.191957536736764"><ele>-3.0</ele><time>2026-03-28T14:14:36.013Z</time></trkpt><trkpt lat="44.693737899684464" lon="12.192142913020168"><ele>-3.0</ele><time>2026-03-28T14:14:37.013Z</time></trkpt><trkpt lat="44.69365621796421" lon="12.192320762520776"><ele>-3.0</ele><time>2026-03-28T14:14:38.014Z</time></trkpt><trkpt lat="44.69357270025185" lon="12.192502479761421"><ele>-3.0</ele><time>2026-03-28T14:14:39.014Z</time></trkpt><trkpt lat="44.693495451099054" lon="12.192670569488152"><ele>-3.0</ele><time>2026-03-28T14:14:40.013Z</time></trkpt><trkpt lat="44.6934293838538" lon="12.192855485835807"><ele>-2.25</ele><time>2026-03-28T14:14:41.014Z</time></trkpt><trkpt lat="44.69333040162609" lon="12.19301025627399"><ele>-1.5</ele><time>2026-03-28T14:14:42.014Z</time></trkpt><trkpt lat="44.69325018005013" lon="12.193178123208787"><ele>-0.75</ele><time>2026-03-28T14:14:43.013Z</time></trkpt><trkpt lat="44.69316889896234" lon="12.193350945405546"><ele>0.0</ele><time>2026-03-28T14:14:44.014Z</time></trkpt><trkpt lat="44.69308690112496" lon="12.193531367459483"><ele>0.0</ele><time>2026-03-28T14:14:45.014Z</time></trkpt><trkpt lat="44.693005330424924" lon="12.193716605846072"><ele>0.0</ele><time>2026-03-28T14:14:46.014Z</time></trkpt><trkpt lat="44.69292431730136" lon="12.193902922369631"><ele>0.0</ele><time>2026-03-28T14:14:47.014Z</time></trkpt><trkpt lat="44.69283966271727" lon="12.194090620580022"><ele>0.0</ele><time>2026-03-28T14:14:48.014Z</time></trkpt><trkpt lat="44.69275107365538" lon="12.194277929139693"><ele>0.0</ele><time>2026-03-28T14:14:49.014Z</time></trkpt><trkpt lat="44.69266747586521" lon="12.194463657120867"><ele>0.0</ele><time>2026-03-28T14:14:50.014Z</time></trkpt><trkpt lat="44.692585172162644" lon="12.19464861309109"><ele>0.0</ele><time>2026-03-28T14:14:51.014Z</time></trkpt><trkpt lat="44.69249776673507" lon="12.194837570543417"><ele>0.0</ele><time>2026-03-28T14:14:52.014Z</time></trkpt><trkpt lat="44.692414800694365" lon="12.195039537487744"><ele>0.0</ele><time>2026-03-28T14:14:53.014Z</time></trkpt><trkpt lat="44.69233068546171" lon="12.195257997135714"><ele>-0.6666666666666666</ele><time>2026-03-28T14:14:54.014Z</time></trkpt><trkpt lat="44.69224494138829" lon="12.195476933229044"><ele>-1.3333333333333333</ele><time>2026-03-28T14:14:55.014Z</time></trkpt><trkpt lat="44.692169766333684" lon="12.195703259133257"><ele>-2.0</ele><time>2026-03-28T14:14:56.014Z</time></trkpt><trkpt lat="44.692113948925396" lon="12.195947452859684"><ele>-2.0</ele><time>2026-03-28T14:14:57.014Z</time></trkpt><trkpt lat="44.69205593955066" lon="12.196191442350685"><ele>-2.0</ele><time>2026-03-28T14:14:58.014Z</time></trkpt><trkpt lat="44.69200994915619" lon="12.196419659096751"><ele>-2.0</ele><time>2026-03-28T14:14:59.014Z</time></trkpt><trkpt lat="44.69195252522226" lon="12.196637865168107"><ele>-2.0</ele><time>2026-03-28T14:15:00.014Z</time></trkpt><trkpt lat="44.691901449162366" lon="12.1968600985089"><ele>-2.0</ele><time>2026-03-28T14:15:01.014Z</time></trkpt><trkpt lat="44.6918538398003" lon="12.197100286118845"><ele>-2.0</ele><time>2026-03-28T14:15:02.014Z</time></trkpt><trkpt lat="44.69180788035354" lon="12.197335520833345"><ele>-1.6666666666666665</ele><time>2026-03-28T14:15:03.014Z</time></trkpt><trkpt lat="44.69175391265042" lon="12.197562468664065"><ele>-1.3333333333333333</ele><time>2026-03-28T14:15:04.014Z</time></trkpt><trkpt lat="44.69169958100184" lon="12.197790814844348"><ele>-1.0</ele><time>2026-03-28T14:15:05.014Z</time></trkpt><trkpt lat="44.69164686066559" lon="12.198019171653563"><ele>-1.3333333333333333</ele><time>2026-03-28T14:15:06.014Z</time></trkpt><trkpt lat="44.69159495346795" lon="12.198254345296334"><ele>-1.6666666666666665</ele><time>2026-03-28T14:15:07.014Z</time></trkpt><trkpt lat="44.69154209301077" lon="12.198491980521252"><ele>-2.0</ele><time>2026-03-28T14:15:08.014Z</time></trkpt><trkpt lat="44.69148733431247" lon="12.1987390473244"><ele>-2.0</ele><time>2026-03-28T14:15:09.013Z</time></trkpt><trkpt lat="44.69142975237011" lon="12.198989846032998"><ele>-2.0</ele><time>2026-03-28T14:15:10.013Z</time></trkpt><trkpt lat="44.691372338511385" lon="12.199234539689446"><ele>-2.0</ele><time>2026-03-28T14:15:11.013Z</time></trkpt><trkpt lat="44.691314430955465" lon="12.199490909397229"><ele>-2.0</ele><time>2026-03-28T14:15:12.012Z</time></trkpt><trkpt lat="44.69125708682715" lon="12.199747673843067"><ele>-2.0</ele><time>2026-03-28T14:15:13.012Z</time></trkpt><trkpt lat="44.69119620911243" lon="12.199994053163982"><ele>-2.0</ele><time>2026-03-28T14:15:14.012Z</time></trkpt><trkpt lat="44.691139651268486" lon="12.2002487144732"><ele>-2.0</ele><time>2026-03-28T14:15:15.011Z</time></trkpt><trkpt lat="44.6910834372632" lon="12.200495488557625"><ele>-2.0</ele><time>2026-03-28T14:15:16.011Z</time></trkpt><trkpt lat="44.69102991323842" lon="12.200732750063215"><ele>-2.0</ele><time>2026-03-28T14:15:17.011Z</time></trkpt><trkpt lat="44.6909759946811" lon="12.200965224683404"><ele>-2.0</ele><time>2026-03-28T14:15:18.01Z</time></trkpt><trkpt lat="44.690917816354826" lon="12.201201311449863"><ele>-2.0</ele><time>2026-03-28T14:15:19.01Z</time></trkpt><trkpt lat="44.69086099213224" lon="12.201446524832846"><ele>-2.0</ele><time>2026-03-28T14:15:20.01Z</time></trkpt><trkpt lat="44.69080596472421" lon="12.201696922784585"><ele>-2.0</ele><time>2026-03-28T14:15:21.01Z</time></trkpt><trkpt lat="44.69075184803245" lon="12.201936807611558"><ele>-2.0</ele><time>2026-03-28T14:15:22.009Z</time></trkpt><trkpt lat="44.690697731920395" lon="12.202172726758596"><ele>-2.0</ele><time>2026-03-28T14:15:23.009Z</time></trkpt><trkpt lat="44.690644032736195" lon="12.202403372410762"><ele>-1.0</ele><time>2026-03-28T14:15:24.009Z</time></trkpt><trkpt lat="44.69059196150205" lon="12.20263613111925"><ele>0.0</ele><time>2026-03-28T14:15:25.009Z</time></trkpt><trkpt lat="44.69053668100832" lon="12.202866575971978"><ele>1.0</ele><time>2026-03-28T14:15:26.009Z</time></trkpt><trkpt lat="44.69047508121246" lon="12.203109602371976"><ele>0.0</ele><time>2026-03-28T14:15:27.009Z</time></trkpt><trkpt lat="44.69040826999853" lon="12.20335667119275"><ele>-1.0</ele><time>2026-03-28T14:15:28.008Z</time></trkpt><trkpt lat="44.69034776509981" lon="12.203598081518267"><ele>-2.0</ele><time>2026-03-28T14:15:29.008Z</time></trkpt><trkpt lat="44.69029198380464" lon="12.20383676481501"><ele>-2.0</ele><time>2026-03-28T14:15:30.008Z</time></trkpt><trkpt lat="44.690232870245865" lon="12.204081163022265"><ele>-2.0</ele><time>2026-03-28T14:15:31.008Z</time></trkpt><trkpt lat="44.690178037916574" lon="12.204326512674458"><ele>-2.0</ele><time>2026-03-28T14:15:32.008Z</time></trkpt><trkpt lat="44.6901266659306" lon="12.204578627023219"><ele>-1.6666666666666665</ele><time>2026-03-28T14:15:33.008Z</time></trkpt><trkpt lat="44.69007457939456" lon="12.204830119467365"><ele>-1.3333333333333333</ele><time>2026-03-28T14:15:34.008Z</time></trkpt><trkpt lat="44.69002850646266" lon="12.2050788185625"><ele>-1.0</ele><time>2026-03-28T14:15:35.008Z</time></trkpt><trkpt lat="44.689977597069756" lon="12.205346724348628"><ele>-1.0</ele><time>2026-03-28T14:15:36.008Z</time></trkpt><trkpt lat="44.68991643097968" lon="12.205647700809456"><ele>-1.0</ele><time>2026-03-28T14:15:37.007Z</time></trkpt><trkpt lat="44.689832378113096" lon="12.205950754465759"><ele>-1.0</ele><time>2026-03-28T14:15:38.007Z</time></trkpt><trkpt lat="44.689750355806616" lon="12.206303508123087"><ele>-1.0</ele><time>2026-03-28T14:15:39.007Z</time></trkpt><trkpt lat="44.689667994895615" lon="12.206659697397509"><ele>-2.0</ele><time>2026-03-28T14:15:40.007Z</time></trkpt><trkpt lat="44.689595696818664" lon="12.207027689487532"><ele>-3.0</ele><time>2026-03-28T14:15:41.007Z</time></trkpt><trkpt lat="44.689506732268846" lon="12.207387900834524"><ele>-3.5</ele><time>2026-03-28T14:15:42.007Z</time></trkpt><trkpt lat="44.68942265354503" lon="12.20775730104839"><ele>-4.0</ele><time>2026-03-28T14:15:43.007Z</time></trkpt><trkpt lat="44.68934414830765" lon="12.2081143065448"><ele>-3.5</ele><time>2026-03-28T14:15:44.007Z</time></trkpt><trkpt lat="44.68926439751895" lon="12.208469703423656"><ele>-3.0</ele><time>2026-03-28T14:15:45.007Z</time></trkpt><trkpt lat="44.68918244509181" lon="12.20880562666967"><ele>-3.0</ele><time>2026-03-28T14:15:46.007Z</time></trkpt><trkpt lat="44.68911334535952" lon="12.209138798408906"><ele>-3.0</ele><time>2026-03-28T14:15:47.007Z</time></trkpt><trkpt lat="44.689059767326235" lon="12.209461032333982"><ele>-3.0</ele><time>2026-03-28T14:15:48.007Z</time></trkpt><trkpt lat="44.689016942674876" lon="12.209774842716154"><ele>-3.0</ele><time>2026-03-28T14:15:49.007Z</time></trkpt><trkpt lat="44.68898148676919" lon="12.210085428317518"><ele>-2.6666666666666665</ele><time>2026-03-28T14:15:50.007Z</time></trkpt><trkpt lat="44.68895176860025" lon="12.210377314457991"><ele>-2.333333333333333</ele><time>2026-03-28T14:15:51.007Z</time></trkpt><trkpt lat="44.68892050686424" lon="12.210650900836198"><ele>-2.0</ele><time>2026-03-28T14:15:52.007Z</time></trkpt><trkpt lat="44.68889130831009" lon="12.210920161161411"><ele>-2.0</ele><time>2026-03-28T14:15:53.007Z</time></trkpt><trkpt lat="44.68886194832144" lon="12.21119418785358"><ele>-2.0</ele><time>2026-03-28T14:15:54.007Z</time></trkpt><trkpt lat="44.68883144027786" lon="12.211458799078512"><ele>-2.0</ele><time>2026-03-28T14:15:55.007Z</time></trkpt><trkpt lat="44.68879938743556" lon="12.211723735097781"><ele>-2.0</ele><time>2026-03-28T14:15:56.007Z</time></trkpt><trkpt lat="44.68876654134894" lon="12.211981303050697"><ele>-2.0</ele><time>2026-03-28T14:15:57.006Z</time></trkpt><trkpt lat="44.68873678944813" lon="12.212234562350107"><ele>-2.0</ele><time>2026-03-28T14:15:58.006Z</time></trkpt><trkpt lat="44.688709490480655" lon="12.212487342254818"><ele>-2.333333333333333</ele><time>2026-03-28T14:15:59.006Z</time></trkpt><trkpt lat="44.68868373013899" lon="12.212749449421532"><ele>-2.6666666666666665</ele><time>2026-03-28T14:16:00.006Z</time></trkpt><trkpt lat="44.688675927005" lon="12.21303685968078"><ele>-3.0</ele><time>2026-03-28T14:16:01.006Z</time></trkpt><trkpt lat="44.68867660564066" lon="12.213334663856447"><ele>-3.0</ele><time>2026-03-28T14:16:02.006Z</time></trkpt><trkpt lat="44.688688929267315" lon="12.213634523130944"><ele>-3.0</ele><time>2026-03-28T14:16:03.006Z</time></trkpt><trkpt lat="44.688698239561404" lon="12.213928341572913"><ele>-3.0</ele><time>2026-03-28T14:16:04.006Z</time></trkpt><trkpt lat="44.68870828744411" lon="12.214206710954858"><ele>-3.0</ele><time>2026-03-28T14:16:05.006Z</time></trkpt><trkpt lat="44.688710380088864" lon="12.21447483693222"><ele>-3.0</ele><time>2026-03-28T14:16:06.006Z</time></trkpt><trkpt lat="44.68871541189884" lon="12.214728395527708"><ele>-3.0</ele><time>2026-03-28T14:16:07.006Z</time></trkpt><trkpt lat="44.68872920376876" lon="12.21498996975437"><ele>-3.0</ele><time>2026-03-28T14:16:08.006Z</time></trkpt><trkpt lat="44.68874433079686" lon="12.215255329975141"><ele>-3.0</ele><time>2026-03-28T14:16:09.006Z</time></trkpt><trkpt lat="44.68875239119652" lon="12.21550958304619"><ele>-3.0</ele><time>2026-03-28T14:16:10.006Z</time></trkpt><trkpt lat="44.688755735509126" lon="12.215765700496696"><ele>-3.333333333333333</ele><time>2026-03-28T14:16:11.006Z</time></trkpt><trkpt lat="44.68876563850301" lon="12.216008758440266"><ele>-3.6666666666666665</ele><time>2026-03-28T14:16:12.006Z</time></trkpt><trkpt lat="44.6887790526897" lon="12.216249221359536"><ele>-4.0</ele><time>2026-03-28T14:16:13.006Z</time></trkpt><trkpt lat="44.68878860536849" lon="12.216490048911467"><ele>-4.0</ele><time>2026-03-28T14:16:14.006Z</time></trkpt><trkpt lat="44.68880257746331" lon="12.216729593007853"><ele>-4.0</ele><time>2026-03-28T14:16:15.006Z</time></trkpt><trkpt lat="44.68881875408498" lon="12.216981116510652"><ele>-4.0</ele><time>2026-03-28T14:16:16.006Z</time></trkpt><trkpt lat="44.68882974956552" lon="12.217226966862166"><ele>-3.6666666666666665</ele><time>2026-03-28T14:16:17.006Z</time></trkpt><trkpt lat="44.688836160823826" lon="12.217467193023499"><ele>-3.333333333333333</ele><time>2026-03-28T14:16:18.006Z</time></trkpt><trkpt lat="44.688842884068244" lon="12.217692434839442"><ele>-3.0</ele><time>2026-03-28T14:16:19.006Z</time></trkpt><trkpt lat="44.68884835378013" lon="12.21791025458411"><ele>-3.0</ele><time>2026-03-28T14:16:20.006Z</time></trkpt><trkpt lat="44.68885356193328" lon="12.218109120803373"><ele>-3.0</ele><time>2026-03-28T14:16:21.006Z</time></trkpt><trkpt lat="44.688859032786425" lon="12.218291418713573"><ele>-3.0</ele><time>2026-03-28T14:16:22.006Z</time></trkpt><trkpt lat="44.68886806532933" lon="12.21845874362862"><ele>-3.0</ele><time>2026-03-28T14:16:23.006Z</time></trkpt><trkpt lat="44.688879570600996" lon="12.218610586010314"><ele>-3.0</ele><time>2026-03-28T14:16:24.006Z</time></trkpt><trkpt lat="44.68889509104375" lon="12.21873895442027"><ele>-3.0</ele><time>2026-03-28T14:16:25.006Z</time></trkpt><trkpt lat="44.68891571814142" lon="12.218857162378464"><ele>-3.0</ele><time>2026-03-28T14:16:26.006Z</time></trkpt><trkpt lat="44.688939346608926" lon="12.218973599571088"><ele>-3.0</ele><time>2026-03-28T14:16:27.006Z</time></trkpt><trkpt lat="44.68894794213235" lon="12.219098014407853"><ele>-3.0</ele><time>2026-03-28T14:16:28.006Z</time></trkpt><trkpt lat="44.68895191541859" lon="12.219243592126901"><ele>-2.75</ele><time>2026-03-28T14:16:29.006Z</time></trkpt><trkpt lat="44.688961545645746" lon="12.219406240410413"><ele>-2.5</ele><time>2026-03-28T14:16:30.006Z</time></trkpt><trkpt lat="44.688967806115436" lon="12.219591775182947"><ele>-2.25</ele><time>2026-03-28T14:16:31.006Z</time></trkpt><trkpt lat="44.68896496438382" lon="12.219807171787357"><ele>-2.0</ele><time>2026-03-28T14:16:32.006Z</time></trkpt><trkpt lat="44.688959246274464" lon="12.220032647852754"><ele>-2.0</ele><time>2026-03-28T14:16:33.006Z</time></trkpt><trkpt lat="44.6889496574294" lon="12.220280118724974"><ele>-2.0</ele><time>2026-03-28T14:16:34.006Z</time></trkpt><trkpt lat="44.68893868225037" lon="12.220519172056585"><ele>-2.0</ele><time>2026-03-28T14:16:35.006Z</time></trkpt><trkpt lat="44.68891611290893" lon="12.220749763488373"><ele>-2.0</ele><time>2026-03-28T14:16:36.006Z</time></trkpt><trkpt lat="44.68889073703721" lon="12.220973574625802"><ele>-2.0</ele><time>2026-03-28T14:16:37.007Z</time></trkpt><trkpt lat="44.68886074825951" lon="12.221181779422304"><ele>-2.0</ele><time>2026-03-28T14:16:38.007Z</time></trkpt><trkpt lat="44.68883115612987" lon="12.221372673472262"><ele>-1.3333333333333333</ele><time>2026-03-28T14:16:39.007Z</time></trkpt><trkpt lat="44.68880548162236" lon="12.221562786680748"><ele>-0.6666666666666666</ele><time>2026-03-28T14:16:40.007Z</time></trkpt><trkpt lat="44.68878714844791" lon="12.221778758709368"><ele>0.0</ele><time>2026-03-28T14:16:41.007Z</time></trkpt><trkpt lat="44.6887714650389" lon="12.222017662189982"><ele>0.0</ele><time>2026-03-28T14:16:42.007Z</time></trkpt><trkpt lat="44.68876315195252" lon="12.222275441109739"><ele>0.0</ele><time>2026-03-28T14:16:43.007Z</time></trkpt><trkpt lat="44.68876187679565" lon="12.22254377983531"><ele>0.0</ele><time>2026-03-28T14:16:44.007Z</time></trkpt><trkpt lat="44.68876801635576" lon="12.222806526896523"><ele>0.6666666666666666</ele><time>2026-03-28T14:16:45.007Z</time></trkpt><trkpt lat="44.68877137989342" lon="12.223079992684116"><ele>1.3333333333333333</ele><time>2026-03-28T14:16:46.007Z</time></trkpt><trkpt lat="44.688766741369356" lon="12.223335749073039"><ele>2.0</ele><time>2026-03-28T14:16:47.007Z</time></trkpt><trkpt lat="44.68876613224702" lon="12.223577488240934"><ele>2.25</ele><time>2026-03-28T14:16:48.007Z</time></trkpt><trkpt lat="44.688765688726306" lon="12.223791830739481"><ele>2.5</ele><time>2026-03-28T14:16:49.007Z</time></trkpt><trkpt lat="44.6887638103518" lon="12.22399422195609"><ele>2.75</ele><time>2026-03-28T14:16:50.007Z</time></trkpt><trkpt lat="44.68876919361841" lon="12.224200125065945"><ele>3.0</ele><time>2026-03-28T14:16:51.007Z</time></trkpt><trkpt lat="44.68877188259086" lon="12.224416753347418"><ele>3.333333333333333</ele><time>2026-03-28T14:16:52.007Z</time></trkpt><trkpt lat="44.688779389767" lon="12.22465331762472"><ele>3.6666666666666665</ele><time>2026-03-28T14:16:53.007Z</time></trkpt><trkpt lat="44.68878734954204" lon="12.224903767384784"><ele>4.0</ele><time>2026-03-28T14:16:54.007Z</time></trkpt><trkpt lat="44.688795004881236" lon="12.22515698116272"><ele>3.0</ele><time>2026-03-28T14:16:55.007Z</time></trkpt><trkpt lat="44.68880538731115" lon="12.225398993240042"><ele>2.0</ele><time>2026-03-28T14:16:56.007Z</time></trkpt><trkpt lat="44.6888103696623" lon="12.225625737618886"><ele>1.0</ele><time>2026-03-28T14:16:57.007Z</time></trkpt><trkpt lat="44.68881755390252" lon="12.225852161987786"><ele>1.0</ele><time>2026-03-28T14:16:58.007Z</time></trkpt><trkpt lat="44.68881920783347" lon="12.226081018600983"><ele>1.0</ele><time>2026-03-28T14:16:59.007Z</time></trkpt><trkpt lat="44.68881845116292" lon="12.226297614278351"><ele>1.0</ele><time>2026-03-28T14:17:00.007Z</time></trkpt><trkpt lat="44.68882019024861" lon="12.22651589998663"><ele>1.0</ele><time>2026-03-28T14:17:01.007Z</time></trkpt><trkpt lat="44.68882184006699" lon="12.226743201996259"><ele>1.0</ele><time>2026-03-28T14:17:02.007Z</time></trkpt><trkpt lat="44.6888227628427" lon="12.226979358224156"><ele>1.0</ele><time>2026-03-28T14:17:03.007Z</time></trkpt><trkpt lat="44.68881943269266" lon="12.227212632439915"><ele>1.3333333333333333</ele><time>2026-03-28T14:17:04.007Z</time></trkpt><trkpt lat="44.68881770825344" lon="12.22744182424834"><ele>1.6666666666666665</ele><time>2026-03-28T14:17:05.007Z</time></trkpt><trkpt lat="44.68881666415078" lon="12.22767879992264"><ele>2.0</ele><time>2026-03-28T14:17:06.007Z</time></trkpt><trkpt lat="44.68881703188656" lon="12.227908781062629"><ele>2.0</ele><time>2026-03-28T14:17:07.007Z</time></trkpt><trkpt lat="44.68882522561395" lon="12.228129006754694"><ele>2.0</ele><time>2026-03-28T14:17:08.007Z</time></trkpt><trkpt lat="44.688825895771885" lon="12.228337832914871"><ele>2.0</ele><time>2026-03-28T14:17:09.007Z</time></trkpt><trkpt lat="44.68882110912235" lon="12.228530777196138"><ele>2.0</ele><time>2026-03-28T14:17:10.007Z</time></trkpt><trkpt lat="44.68881200787614" lon="12.228709983926533"><ele>2.0</ele><time>2026-03-28T14:17:11.007Z</time></trkpt><trkpt lat="44.68880557115197" lon="12.22887567850302"><ele>2.0</ele><time>2026-03-28T14:17:12.007Z</time></trkpt><trkpt lat="44.688795406613885" lon="12.229020198948135"><ele>2.0</ele><time>2026-03-28T14:17:13.007Z</time></trkpt><trkpt lat="44.688785877233535" lon="12.22914404075564"><ele>2.0</ele><time>2026-03-28T14:17:14.007Z</time></trkpt><trkpt lat="44.68877201225526" lon="12.229252409798264"><ele>2.0</ele><time>2026-03-28T14:17:15.007Z</time></trkpt><trkpt lat="44.68873922109877" lon="12.229381623216167"><ele>2.0</ele><time>2026-03-28T14:17:17.007Z</time></trkpt><trkpt lat="44.68871077049869" lon="12.22947032922143"><ele>2.0</ele><time>2026-03-28T14:17:19.007Z</time></trkpt><trkpt lat="44.68870566807658" lon="12.229621256297964"><ele>2.0</ele><time>2026-03-28T14:17:43.007Z</time></trkpt><trkpt lat="44.688713227212055" lon="12.229729582103117"><ele>2.0</ele><time>2026-03-28T14:17:44.007Z</time></trkpt><trkpt lat="44.68872073940995" lon="12.229866511791547"><ele>2.0</ele><time>2026-03-28T14:17:45.007Z</time></trkpt><trkpt lat="44.68872689910929" lon="12.230013309602098"><ele>2.0</ele><time>2026-03-28T14:17:46.007Z</time></trkpt><trkpt lat="44.688737646060424" lon="12.230179307596268"><ele>2.0</ele><time>2026-03-28T14:17:47.007Z</time></trkpt><trkpt lat="44.68874406909612" lon="12.23036705125401"><ele>2.0</ele><time>2026-03-28T14:17:48.007Z</time></trkpt><trkpt lat="44.688728627059916" lon="12.230570796455465"><ele>2.0</ele><time>2026-03-28T14:17:49.007Z</time></trkpt><trkpt lat="44.68874139002398" lon="12.230783401268525"><ele>1.0</ele><time>2026-03-28T14:17:50.007Z</time></trkpt><trkpt lat="44.688743395016814" lon="12.231005457736263"><ele>0.0</ele><time>2026-03-28T14:17:51.007Z</time></trkpt><trkpt lat="44.68872708542708" lon="12.231233456495001"><ele>-1.0</ele><time>2026-03-28T14:17:52.007Z</time></trkpt><trkpt lat="44.68872658367575" lon="12.231475379966984"><ele>-1.3333333333333333</ele><time>2026-03-28T14:17:53.007Z</time></trkpt><trkpt lat="44.68872662239272" lon="12.231731818077751"><ele>-1.6666666666666665</ele><time>2026-03-28T14:17:54.007Z</time></trkpt><trkpt lat="44.6887268542469" lon="12.231994765202726"><ele>-2.0</ele><time>2026-03-28T14:17:55.007Z</time></trkpt><trkpt lat="44.68872709179523" lon="12.232264172084871"><ele>-1.6666666666666665</ele><time>2026-03-28T14:17:56.007Z</time></trkpt><trkpt lat="44.68872733195484" lon="12.232536536972441"><ele>-1.3333333333333333</ele><time>2026-03-28T14:17:57.007Z</time></trkpt><trkpt lat="44.68872712839518" lon="12.232810984103677"><ele>-1.0</ele><time>2026-03-28T14:17:58.007Z</time></trkpt><trkpt lat="44.688726889048596" lon="12.233079928813641"><ele>-0.6666666666666666</ele><time>2026-03-28T14:17:59.007Z</time></trkpt><trkpt lat="44.6887266473828" lon="12.233351480143039"><ele>-0.3333333333333333</ele><time>2026-03-28T14:18:00.007Z</time></trkpt><trkpt lat="44.68872645221225" lon="12.233629503805744"><ele>0.0</ele><time>2026-03-28T14:18:01.007Z</time></trkpt><trkpt lat="44.68872645221088" lon="12.233919628466174"><ele>-0.3333333333333333</ele><time>2026-03-28T14:18:02.007Z</time></trkpt><trkpt lat="44.688726452211306" lon="12.23420236506715"><ele>-0.6666666666666666</ele><time>2026-03-28T14:18:03.007Z</time></trkpt><trkpt lat="44.6887264522091" lon="12.234476776880607"><ele>-1.0</ele><time>2026-03-28T14:18:04.007Z</time></trkpt><trkpt lat="44.688726452206176" lon="12.234742469367859"><ele>-1.0</ele><time>2026-03-28T14:18:05.007Z</time></trkpt><trkpt lat="44.68872625362725" lon="12.235005441733337"><ele>-1.0</ele><time>2026-03-28T14:18:06.007Z</time></trkpt><trkpt lat="44.688724792950694" lon="12.235258743768497"><ele>-1.0</ele><time>2026-03-28T14:18:07.007Z</time></trkpt><trkpt lat="44.688723608158064" lon="12.2355178000101"><ele>-0.6666666666666666</ele><time>2026-03-28T14:18:08.007Z</time></trkpt><trkpt lat="44.68872394262955" lon="12.235779512641864"><ele>-0.3333333333333333</ele><time>2026-03-28T14:18:09.007Z</time></trkpt><trkpt lat="44.68872426946546" lon="12.236035240858216"><ele>0.0</ele><time>2026-03-28T14:18:10.007Z</time></trkpt><trkpt lat="44.688724452200724" lon="12.236282799701812"><ele>-0.3333333333333333</ele><time>2026-03-28T14:18:11.007Z</time></trkpt><trkpt lat="44.68872475374788" lon="12.236524707149574"><ele>-0.6666666666666666</ele><time>2026-03-28T14:18:12.007Z</time></trkpt><trkpt lat="44.688725094191476" lon="12.236759850881205"><ele>-1.0</ele><time>2026-03-28T14:18:13.007Z</time></trkpt><trkpt lat="44.68872542491104" lon="12.236988279186535"><ele>-1.0</ele><time>2026-03-28T14:18:14.007Z</time></trkpt><trkpt lat="44.68872513184317" lon="12.23720601200847"><ele>-1.0</ele><time>2026-03-28T14:18:15.007Z</time></trkpt><trkpt lat="44.68872480366092" lon="12.237409812090053"><ele>-1.0</ele><time>2026-03-28T14:18:16.007Z</time></trkpt><trkpt lat="44.688724484750246" lon="12.237607854723132"><ele>-1.0</ele><time>2026-03-28T14:18:17.007Z</time></trkpt><trkpt lat="44.688722044150694" lon="12.23780690342575"><ele>-0.75</ele><time>2026-03-28T14:18:18.007Z</time></trkpt><trkpt lat="44.688711844229445" lon="12.238006429594408"><ele>-0.5</ele><time>2026-03-28T14:18:19.007Z</time></trkpt><trkpt lat="44.688690378426195" lon="12.238200457301625"><ele>-0.25</ele><time>2026-03-28T14:18:20.007Z</time></trkpt><trkpt lat="44.68865146354348" lon="12.23839648139976"><ele>0.0</ele><time>2026-03-28T14:18:21.007Z</time></trkpt><trkpt lat="44.688605831906514" lon="12.23859055155336"><ele>0.0</ele><time>2026-03-28T14:18:22.007Z</time></trkpt><trkpt lat="44.6885543918325" lon="12.23878119048756"><ele>0.0</ele><time>2026-03-28T14:18:23.007Z</time></trkpt><trkpt lat="44.68849172783415" lon="12.238964704012862"><ele>0.0</ele><time>2026-03-28T14:18:24.007Z</time></trkpt><trkpt lat="44.68841896647141" lon="12.239139450915872"><ele>0.0</ele><time>2026-03-28T14:18:25.006Z</time></trkpt><trkpt lat="44.68834094503068" lon="12.23930161568374"><ele>0.25</ele><time>2026-03-28T14:18:26.006Z</time></trkpt><trkpt lat="44.68824906765448" lon="12.239446644485941"><ele>0.5</ele><time>2026-03-28T14:18:27.006Z</time></trkpt><trkpt lat="44.68816045162833" lon="12.239576446690696"><ele>0.75</ele><time>2026-03-28T14:18:28.006Z</time></trkpt><trkpt lat="44.688071566786775" lon="12.239690127469439"><ele>1.0</ele><time>2026-03-28T14:18:29.006Z</time></trkpt><trkpt lat="44.68798530590953" lon="12.239794442468154"><ele>1.0</ele><time>2026-03-28T14:18:30.006Z</time></trkpt><trkpt lat="44.68789933432843" lon="12.23988453319352"><ele>1.0</ele><time>2026-03-28T14:18:31.006Z</time></trkpt><trkpt lat="44.68781636619443" lon="12.239985734016772"><ele>1.0</ele><time>2026-03-28T14:18:32.006Z</time></trkpt><trkpt lat="44.687709394148776" lon="12.24002916192134"><ele>1.0</ele><time>2026-03-28T14:18:33.006Z</time></trkpt><trkpt lat="44.68760236000123" lon="12.240058036645054"><ele>1.0</ele><time>2026-03-28T14:18:34.006Z</time></trkpt><trkpt lat="44.68748779099938" lon="12.240074266261061"><ele>1.0</ele><time>2026-03-28T14:18:35.006Z</time></trkpt><trkpt lat="44.68736088525834" lon="12.24009093084135"><ele>1.0</ele><time>2026-03-28T14:18:36.006Z</time></trkpt><trkpt lat="44.687231776921344" lon="12.240107184267185"><ele>1.0</ele><time>2026-03-28T14:18:37.006Z</time></trkpt><trkpt lat="44.687094574816236" lon="12.240124456650728"><ele>1.0</ele><time>2026-03-28T14:18:38.006Z</time></trkpt><trkpt lat="44.68695629329485" lon="12.240142396909736"><ele>1.5</ele><time>2026-03-28T14:18:39.006Z</time></trkpt><trkpt lat="44.68681527585862" lon="12.240160774917442"><ele>2.0</ele><time>2026-03-28T14:18:40.006Z</time></trkpt><trkpt lat="44.68667600333018" lon="12.240180324502045"><ele>2.5</ele><time>2026-03-28T14:18:41.006Z</time></trkpt><trkpt lat="44.68653668314458" lon="12.240199880741743"><ele>3.0</ele><time>2026-03-28T14:18:42.006Z</time></trkpt><trkpt lat="44.68640246596472" lon="12.24021718995226"><ele>3.0</ele><time>2026-03-28T14:18:43.007Z</time></trkpt><trkpt lat="44.686271727232175" lon="12.240241514230135"><ele>3.0</ele><time>2026-03-28T14:18:44.007Z</time></trkpt><trkpt lat="44.68614109922542" lon="12.240255276127058"><ele>3.0</ele><time>2026-03-28T14:18:45.007Z</time></trkpt><trkpt lat="44.68601633460582" lon="12.240270885582529"><ele>3.0</ele><time>2026-03-28T14:18:46.007Z</time></trkpt><trkpt lat="44.68589200941906" lon="12.240293347957088"><ele>3.0</ele><time>2026-03-28T14:18:47.007Z</time></trkpt><trkpt lat="44.685771592327846" lon="12.240312825120062"><ele>3.0</ele><time>2026-03-28T14:18:48.007Z</time></trkpt><trkpt lat="44.6856496249393" lon="12.240329064956985"><ele>3.0</ele><time>2026-03-28T14:18:49.008Z</time></trkpt><trkpt lat="44.68552609085673" lon="12.240345405473235"><ele>3.0</ele><time>2026-03-28T14:18:50.007Z</time></trkpt><trkpt lat="44.68540024519097" lon="12.24036205349893"><ele>3.0</ele><time>2026-03-28T14:18:51.007Z</time></trkpt><trkpt lat="44.68527281241258" lon="12.240378997768644"><ele>3.0</ele><time>2026-03-28T14:18:52.007Z</time></trkpt><trkpt lat="44.68514143368459" lon="12.240399711696558"><ele>3.0</ele><time>2026-03-28T14:18:53.007Z</time></trkpt><trkpt lat="44.68500871424944" lon="12.240422974001568"><ele>3.0</ele><time>2026-03-28T14:18:54.007Z</time></trkpt><trkpt lat="44.68487551036378" lon="12.240443919422574"><ele>3.0</ele><time>2026-03-28T14:18:55.007Z</time></trkpt><trkpt lat="44.68474212911763" lon="12.240460417875608"><ele>3.0</ele><time>2026-03-28T14:18:56.008Z</time></trkpt><trkpt lat="44.684609278792415" lon="12.240480329464036"><ele>3.0</ele><time>2026-03-28T14:18:57.008Z</time></trkpt><trkpt lat="44.68447818178501" lon="12.240501965985015"><ele>3.0</ele><time>2026-03-28T14:18:58.008Z</time></trkpt><trkpt lat="44.68435015986673" lon="12.240519016823367"><ele>3.0</ele><time>2026-03-28T14:18:59.008Z</time></trkpt><trkpt lat="44.68422313742871" lon="12.24053382345251"><ele>3.0</ele><time>2026-03-28T14:19:00.008Z</time></trkpt><trkpt lat="44.68410471387676" lon="12.24054906352215"><ele>3.0</ele><time>2026-03-28T14:19:01.008Z</time></trkpt><trkpt lat="44.68398759847836" lon="12.240561000205634"><ele>3.0</ele><time>2026-03-28T14:19:02.008Z</time></trkpt><trkpt lat="44.68387409292576" lon="12.240575712817236"><ele>3.0</ele><time>2026-03-28T14:19:03.008Z</time></trkpt><trkpt lat="44.68376477276715" lon="12.240586067193703"><ele>3.0</ele><time>2026-03-28T14:19:04.008Z</time></trkpt><trkpt lat="44.683654591201694" lon="12.240602143882503"><ele>3.0</ele><time>2026-03-28T14:19:05.008Z</time></trkpt><trkpt lat="44.68354103608816" lon="12.24061734846436"><ele>3.0</ele><time>2026-03-28T14:19:06.008Z</time></trkpt><trkpt lat="44.68341994988439" lon="12.240635643749679"><ele>3.25</ele><time>2026-03-28T14:19:07.008Z</time></trkpt><trkpt lat="44.68329270879946" lon="12.240649900137958"><ele>3.5</ele><time>2026-03-28T14:19:08.008Z</time></trkpt><trkpt lat="44.68316811875196" lon="12.240666538392635"><ele>3.75</ele><time>2026-03-28T14:19:09.008Z</time></trkpt><trkpt lat="44.68304348093402" lon="12.240681887499136"><ele>4.0</ele><time>2026-03-28T14:19:10.008Z</time></trkpt><trkpt lat="44.68292272950064" lon="12.240696921036676"><ele>4.0</ele><time>2026-03-28T14:19:11.008Z</time></trkpt><trkpt lat="44.682805597172525" lon="12.24071213639765"><ele>4.0</ele><time>2026-03-28T14:19:12.008Z</time></trkpt><trkpt lat="44.68268842626889" lon="12.240728851434156"><ele>4.0</ele><time>2026-03-28T14:19:13.008Z</time></trkpt><trkpt lat="44.68257060648123" lon="12.240740394103454"><ele>4.0</ele><time>2026-03-28T14:19:14.008Z</time></trkpt><trkpt lat="44.68245067027151" lon="12.240757446532834"><ele>3.5</ele><time>2026-03-28T14:19:15.008Z</time></trkpt><trkpt lat="44.68232817705889" lon="12.240773345617601"><ele>3.0</ele><time>2026-03-28T14:19:16.008Z</time></trkpt><trkpt lat="44.682204438415624" lon="12.240793235048116"><ele>2.5</ele><time>2026-03-28T14:19:17.007Z</time></trkpt><trkpt lat="44.68208274641211" lon="12.240817142336034"><ele>2.0</ele><time>2026-03-28T14:19:18.007Z</time></trkpt><trkpt lat="44.681958044644475" lon="12.240841823137204"><ele>2.0</ele><time>2026-03-28T14:19:19.007Z</time></trkpt><trkpt lat="44.68183199835912" lon="12.240860666624545"><ele>2.0</ele><time>2026-03-28T14:19:20.007Z</time></trkpt><trkpt lat="44.68170596451223" lon="12.240879890474313"><ele>2.0</ele><time>2026-03-28T14:19:21.007Z</time></trkpt><trkpt lat="44.681579899126135" lon="12.240894001274794"><ele>2.0</ele><time>2026-03-28T14:19:22.007Z</time></trkpt><trkpt lat="44.68145750859444" lon="12.24090886435413"><ele>2.0</ele><time>2026-03-28T14:19:23.007Z</time></trkpt><trkpt lat="44.68134046425561" lon="12.240922734303041"><ele>2.0</ele><time>2026-03-28T14:19:24.007Z</time></trkpt><trkpt lat="44.681222415084584" lon="12.240940884776206"><ele>2.0</ele><time>2026-03-28T14:19:25.007Z</time></trkpt><trkpt lat="44.68110980096575" lon="12.240959516094422"><ele>2.0</ele><time>2026-03-28T14:19:26.007Z</time></trkpt><trkpt lat="44.68099076995734" lon="12.240973688860798"><ele>2.5</ele><time>2026-03-28T14:19:27.007Z</time></trkpt><trkpt lat="44.6808741150827" lon="12.2409872048472"><ele>3.0</ele><time>2026-03-28T14:19:28.007Z</time></trkpt><trkpt lat="44.6807593188603" lon="12.241006640869635"><ele>3.5</ele><time>2026-03-28T14:19:29.007Z</time></trkpt><trkpt lat="44.68064873619717" lon="12.241026151008466"><ele>4.0</ele><time>2026-03-28T14:19:30.007Z</time></trkpt><trkpt lat="44.68053131572549" lon="12.241043710307864"><ele>4.0</ele><time>2026-03-28T14:19:31.007Z</time></trkpt><trkpt lat="44.680418813328956" lon="12.241064713918801"><ele>4.0</ele><time>2026-03-28T14:19:32.007Z</time></trkpt><trkpt lat="44.680298960544356" lon="12.241082829861563"><ele>4.0</ele><time>2026-03-28T14:19:33.007Z</time></trkpt><trkpt lat="44.6801750070175" lon="12.241100589210761"><ele>4.0</ele><time>2026-03-28T14:19:34.007Z</time></trkpt><trkpt lat="44.68006505369468" lon="12.241117653601579"><ele>3.9999999999999996</ele><time>2026-03-28T14:19:35.007Z</time></trkpt><trkpt lat="44.67996434484709" lon="12.241132844877477"><ele>4.0</ele><time>2026-03-28T14:19:36.007Z</time></trkpt><trkpt lat="44.67987480805927" lon="12.241144711845678"><ele>4.0</ele><time>2026-03-28T14:19:37.007Z</time></trkpt><trkpt lat="44.679801325325094" lon="12.24114996720271"><ele>4.0</ele><time>2026-03-28T14:19:38.007Z</time></trkpt><trkpt lat="44.67973366106901" lon="12.241162942466547"><ele>3.9999999999999996</ele><time>2026-03-28T14:19:39.007Z</time></trkpt><trkpt lat="44.679630484851046" lon="12.241196415770771"><ele>4.0</ele><time>2026-03-28T14:19:41.007Z</time></trkpt><trkpt lat="44.67957018902864" lon="12.24127813156687"><ele>3.9999999999999996</ele><time>2026-03-28T14:19:43.007Z</time></trkpt><trkpt lat="44.6795919754624" lon="12.241370982668416"><ele>4.0</ele><time>2026-03-28T14:19:45.007Z</time></trkpt><trkpt lat="44.67970015871764" lon="12.241319517324753"><ele>4.0</ele><time>2026-03-28T14:19:47.007Z</time></trkpt><trkpt lat="44.679764303973435" lon="12.241270284766742"><ele>4.0</ele><time>2026-03-28T14:19:48.007Z</time></trkpt><trkpt lat="44.679847152214684" lon="12.24123463806934"><ele>3.9999999999999996</ele><time>2026-03-28T14:19:49.007Z</time></trkpt><trkpt lat="44.67995018355426" lon="12.241222032080927"><ele>4.0</ele><time>2026-03-28T14:19:50.007Z</time></trkpt><trkpt lat="44.680055801510434" lon="12.241204482604406"><ele>4.0</ele><time>2026-03-28T14:19:51.007Z</time></trkpt><trkpt lat="44.680169480108404" lon="12.241183734920263"><ele>4.0</ele><time>2026-03-28T14:19:52.007Z</time></trkpt><trkpt lat="44.680277175075126" lon="12.241164881552077"><ele>4.0</ele><time>2026-03-28T14:19:53.007Z</time></trkpt><trkpt lat="44.680380847909845" lon="12.2411418790444"><ele>4.0</ele><time>2026-03-28T14:19:54.007Z</time></trkpt><trkpt lat="44.680479524768934" lon="12.24112553329749"><ele>4.0</ele><time>2026-03-28T14:19:55.007Z</time></trkpt><trkpt lat="44.68056612525605" lon="12.241115193776256"><ele>4.0</ele><time>2026-03-28T14:19:56.007Z</time></trkpt><trkpt lat="44.680651072867825" lon="12.241102958137867"><ele>4.0</ele><time>2026-03-28T14:19:57.007Z</time></trkpt><trkpt lat="44.68073505691526" lon="12.241108002901237"><ele>4.0</ele><time>2026-03-28T14:19:58.007Z</time></trkpt><trkpt lat="44.68082389291149" lon="12.24109569380245"><ele>4.0</ele><time>2026-03-28T14:19:59.007Z</time></trkpt><trkpt lat="44.68091982866226" lon="12.241082289092278"><ele>4.0</ele><time>2026-03-28T14:20:00.007Z</time></trkpt><trkpt lat="44.681016460764894" lon="12.241069355941333"><ele>3.6666666666666665</ele><time>2026-03-28T14:20:01.007Z</time></trkpt><trkpt lat="44.68111447644829" lon="12.241056284223077"><ele>3.333333333333333</ele><time>2026-03-28T14:20:02.007Z</time></trkpt><trkpt lat="44.6812022666496" lon="12.241044673235065"><ele>3.0</ele><time>2026-03-28T14:20:03.007Z</time></trkpt><trkpt lat="44.68128497341206" lon="12.241033787922811"><ele>2.6666666666666665</ele><time>2026-03-28T14:20:04.007Z</time></trkpt><trkpt lat="44.68136585333228" lon="12.241023143050201"><ele>2.333333333333333</ele><time>2026-03-28T14:20:05.007Z</time></trkpt><trkpt lat="44.68145150666092" lon="12.2410118699258"><ele>2.0</ele><time>2026-03-28T14:20:06.007Z</time></trkpt><trkpt lat="44.68154024920298" lon="12.241000415312568"><ele>1.9999999999999998</ele><time>2026-03-28T14:20:07.007Z</time></trkpt><trkpt lat="44.68162022522338" lon="12.240990497213344"><ele>2.0</ele><time>2026-03-28T14:20:08.007Z</time></trkpt><trkpt lat="44.681708591752084" lon="12.240979538560165"><ele>2.0</ele><time>2026-03-28T14:20:09.007Z</time></trkpt><trkpt lat="44.681795515896205" lon="12.24096875879259"><ele>2.0</ele><time>2026-03-28T14:20:10.007Z</time></trkpt><trkpt lat="44.681881646952824" lon="12.24095807737883"><ele>1.9999999999999998</ele><time>2026-03-28T14:20:11.007Z</time></trkpt><trkpt lat="44.68196557873937" lon="12.240947427674659"><ele>2.0</ele><time>2026-03-28T14:20:12.007Z</time></trkpt><trkpt lat="44.682048181411275" lon="12.24093610880752"><ele>1.9999999999999998</ele><time>2026-03-28T14:20:13.007Z</time></trkpt><trkpt lat="44.682126229322755" lon="12.240925157275138"><ele>2.0</ele><time>2026-03-28T14:20:14.007Z</time></trkpt><trkpt lat="44.68220433845643" lon="12.240914272818213"><ele>2.0</ele><time>2026-03-28T14:20:15.007Z</time></trkpt><trkpt lat="44.682288997647724" lon="12.24090247561963"><ele>2.0</ele><time>2026-03-28T14:20:16.007Z</time></trkpt><trkpt lat="44.68235889515826" lon="12.24089273546264"><ele>1.9999999999999998</ele><time>2026-03-28T14:20:17.007Z</time></trkpt><trkpt lat="44.682446105149985" lon="12.24088058281248"><ele>2.0</ele><time>2026-03-28T14:20:18.007Z</time></trkpt><trkpt lat="44.68252087360001" lon="12.240870163893492"><ele>1.9999999999999998</ele><time>2026-03-28T14:20:19.007Z</time></trkpt><trkpt lat="44.682596398397656" lon="12.240836891069893"><ele>2.0</ele><time>2026-03-28T14:20:20.007Z</time></trkpt><trkpt lat="44.682677080926936" lon="12.240844820514587"><ele>2.0</ele><time>2026-03-28T14:20:21.007Z</time></trkpt><trkpt lat="44.682763229039345" lon="12.240834245838132"><ele>2.0</ele><time>2026-03-28T14:20:22.007Z</time></trkpt><trkpt lat="44.68285490717651" lon="12.240820099771774"><ele>1.9999999999999998</ele><time>2026-03-28T14:20:23.007Z</time></trkpt><trkpt lat="44.682954395898946" lon="12.240805023981599"><ele>2.0</ele><time>2026-03-28T14:20:24.007Z</time></trkpt><trkpt lat="44.68305182939919" lon="12.240795617472827"><ele>2.4000000000000004</ele><time>2026-03-28T14:20:25.007Z</time></trkpt><trkpt lat="44.68314455251511" lon="12.24077945136382"><ele>2.8000000000000003</ele><time>2026-03-28T14:20:26.007Z</time></trkpt><trkpt lat="44.68323144225451" lon="12.24076969962538"><ele>3.2</ele><time>2026-03-28T14:20:27.007Z</time></trkpt><trkpt lat="44.68331773666261" lon="12.240752906186314"><ele>3.6</ele><time>2026-03-28T14:20:28.007Z</time></trkpt><trkpt lat="44.683405127481166" lon="12.240733894679966"><ele>4.0</ele><time>2026-03-28T14:20:29.007Z</time></trkpt><trkpt lat="44.68350687488005" lon="12.24074542703599"><ele>3.8000000000000003</ele><time>2026-03-28T14:20:30.007Z</time></trkpt><trkpt lat="44.683606162759176" lon="12.240724764918697"><ele>3.6000000000000005</ele><time>2026-03-28T14:20:31.007Z</time></trkpt><trkpt lat="44.68370005676644" lon="12.240706986484852"><ele>3.4</ele><time>2026-03-28T14:20:32.007Z</time></trkpt><trkpt lat="44.683780049506154" lon="12.240689352298835"><ele>3.2</ele><time>2026-03-28T14:20:33.007Z</time></trkpt><trkpt lat="44.68387782809295" lon="12.240688128103443"><ele>3.0</ele><time>2026-03-28T14:20:35.007Z</time></trkpt><trkpt lat="44.68395728005992" lon="12.240677499823802"><ele>3.0</ele><time>2026-03-28T14:21:18.008Z</time></trkpt><trkpt lat="44.684044921636215" lon="12.240665488965945"><ele>3.0</ele><time>2026-03-28T14:23:41.007Z</time></trkpt><trkpt lat="44.68412004298237" lon="12.240655071995766"><ele>3.0</ele><time>2026-03-28T14:23:42.007Z</time></trkpt><trkpt lat="44.68422670769719" lon="12.240640280966362"><ele>3.0</ele><time>2026-03-28T14:23:43.007Z</time></trkpt><trkpt lat="44.68433804061692" lon="12.240625066823167"><ele>3.0</ele><time>2026-03-28T14:23:44.007Z</time></trkpt><trkpt lat="44.68445388193656" lon="12.240609498241023"><ele>3.0</ele><time>2026-03-28T14:23:45.007Z</time></trkpt><trkpt lat="44.684567301659605" lon="12.240594328828195"><ele>3.0</ele><time>2026-03-28T14:23:46.007Z</time></trkpt><trkpt lat="44.68466609176547" lon="12.240559194761994"><ele>3.0</ele><time>2026-03-28T14:23:47.007Z</time></trkpt><trkpt lat="44.68476106834098" lon="12.240568413316582"><ele>3.0</ele><time>2026-03-28T14:23:48.007Z</time></trkpt><trkpt lat="44.68485371075012" lon="12.24055602274807"><ele>3.0</ele><time>2026-03-28T14:23:49.007Z</time></trkpt><trkpt lat="44.68496102466757" lon="12.24054166998964"><ele>3.0</ele><time>2026-03-28T14:23:50.007Z</time></trkpt><trkpt lat="44.68506812594015" lon="12.240509664913256"><ele>3.0</ele><time>2026-03-28T14:23:51.007Z</time></trkpt><trkpt lat="44.68516946651349" lon="12.240518095467216"><ele>3.0</ele><time>2026-03-28T14:23:52.007Z</time></trkpt><trkpt lat="44.685249673692596" lon="12.240510817343967"><ele>3.0</ele><time>2026-03-28T14:23:53.007Z</time></trkpt><trkpt lat="44.685361964605335" lon="12.240487586032348"><ele>3.0</ele><time>2026-03-28T14:23:55.007Z</time></trkpt><trkpt lat="44.685449643784054" lon="12.240508909822363"><ele>3.0</ele><time>2026-03-28T14:23:57.007Z</time></trkpt><trkpt lat="44.68552541224103" lon="12.24048063741819"><ele>3.0</ele><time>2026-03-28T14:23:58.007Z</time></trkpt><trkpt lat="44.68562072809929" lon="12.240450126162495"><ele>3.0</ele><time>2026-03-28T14:23:59.007Z</time></trkpt><trkpt lat="44.68571915470293" lon="12.240419462721873"><ele>3.0</ele><time>2026-03-28T14:24:00.007Z</time></trkpt><trkpt lat="44.685811317879605" lon="12.240354888530065"><ele>3.0</ele><time>2026-03-28T14:24:01.007Z</time></trkpt><trkpt lat="44.68593271728228" lon="12.240369720716203"><ele>3.0</ele><time>2026-03-28T14:24:02.007Z</time></trkpt><trkpt lat="44.686039178331086" lon="12.240347253534422"><ele>3.0</ele><time>2026-03-28T14:24:03.007Z</time></trkpt><trkpt lat="44.6861454852986" lon="12.240332382998485"><ele>3.0</ele><time>2026-03-28T14:24:04.007Z</time></trkpt><trkpt lat="44.68625185788618" lon="12.240313862846115"><ele>3.0</ele><time>2026-03-28T14:24:05.007Z</time></trkpt><trkpt lat="44.68635493986877" lon="12.24029557045162"><ele>3.0</ele><time>2026-03-28T14:24:06.007Z</time></trkpt><trkpt lat="44.68645800724991" lon="12.240275290667421"><ele>3.0</ele><time>2026-03-28T14:24:07.007Z</time></trkpt><trkpt lat="44.68656349530224" lon="12.240250272636333"><ele>3.0</ele><time>2026-03-28T14:24:08.007Z</time></trkpt><trkpt lat="44.68666923766665" lon="12.240231778692579"><ele>3.0</ele><time>2026-03-28T14:24:09.007Z</time></trkpt><trkpt lat="44.68678305965766" lon="12.240213300697988"><ele>3.0</ele><time>2026-03-28T14:24:10.007Z</time></trkpt><trkpt lat="44.68690166560551" lon="12.240192225252544"><ele>3.0</ele><time>2026-03-28T14:24:11.007Z</time></trkpt><trkpt lat="44.687012340299674" lon="12.240177673542448"><ele>2.6</ele><time>2026-03-28T14:24:12.007Z</time></trkpt><trkpt lat="44.68711811060547" lon="12.24016334420857"><ele>2.1999999999999997</ele><time>2026-03-28T14:24:13.007Z</time></trkpt><trkpt lat="44.68722011760673" lon="12.240147984509761"><ele>1.8</ele><time>2026-03-28T14:24:14.007Z</time></trkpt><trkpt lat="44.687324653738685" lon="12.24012969706958"><ele>1.4</ele><time>2026-03-28T14:24:15.007Z</time></trkpt><trkpt lat="44.68743410371706" lon="12.240117739423404"><ele>1.0</ele><time>2026-03-28T14:24:16.007Z</time></trkpt><trkpt lat="44.68754219102058" lon="12.24010055848828"><ele>1.0</ele><time>2026-03-28T14:24:17.007Z</time></trkpt><trkpt lat="44.687648859874855" lon="12.240119673110616"><ele>1.0</ele><time>2026-03-28T14:24:18.007Z</time></trkpt><trkpt lat="44.687742858987974" lon="12.24008183763347"><ele>1.0</ele><time>2026-03-28T14:24:19.007Z</time></trkpt><trkpt lat="44.687834661631065" lon="12.240021591261545"><ele>1.0</ele><time>2026-03-28T14:24:20.007Z</time></trkpt><trkpt lat="44.68792790962073" lon="12.239938444230242"><ele>1.0</ele><time>2026-03-28T14:24:21.007Z</time></trkpt><trkpt lat="44.688014054468574" lon="12.239861522079087"><ele>1.0</ele><time>2026-03-28T14:24:22.007Z</time></trkpt><trkpt lat="44.68808627876381" lon="12.239779171203658"><ele>1.0</ele><time>2026-03-28T14:24:23.007Z</time></trkpt><trkpt lat="44.68814746275846" lon="12.239694155058727"><ele>1.0</ele><time>2026-03-28T14:24:24.007Z</time></trkpt><trkpt lat="44.68821269720965" lon="12.239606428313586"><ele>1.0</ele><time>2026-03-28T14:24:25.007Z</time></trkpt><trkpt lat="44.6882861171552" lon="12.23949342222605"><ele>1.0</ele><time>2026-03-28T14:24:26.007Z</time></trkpt><trkpt lat="44.68836503011311" lon="12.239357437500466"><ele>1.0</ele><time>2026-03-28T14:24:27.007Z</time></trkpt><trkpt lat="44.68843599274963" lon="12.23921665034562"><ele>1.0</ele><time>2026-03-28T14:24:28.007Z</time></trkpt><trkpt lat="44.68849606890305" lon="12.23907917386265"><ele>1.0</ele><time>2026-03-28T14:24:29.007Z</time></trkpt><trkpt lat="44.688550961693416" lon="12.238929960632197"><ele>1.0</ele><time>2026-03-28T14:24:30.006Z</time></trkpt><trkpt lat="44.68859459946045" lon="12.23878675673369"><ele>0.75</ele><time>2026-03-28T14:24:31.006Z</time></trkpt><trkpt lat="44.688622440766615" lon="12.23864342863328"><ele>0.5</ele><time>2026-03-28T14:24:32.006Z</time></trkpt><trkpt lat="44.688684420816585" lon="12.238512110511854"><ele>0.25</ele><time>2026-03-28T14:24:33.006Z</time></trkpt><trkpt lat="44.68870996919239" lon="12.23834544793699"><ele>0.0</ele><time>2026-03-28T14:24:34.006Z</time></trkpt><trkpt lat="44.68873069929823" lon="12.23817375824842"><ele>0.2</ele><time>2026-03-28T14:24:35.006Z</time></trkpt><trkpt lat="44.68874448276033" lon="12.238001268375475"><ele>0.4</ele><time>2026-03-28T14:24:36.006Z</time></trkpt><trkpt lat="44.6887445981749" lon="12.23783110204588"><ele>0.6000000000000001</ele><time>2026-03-28T14:24:37.006Z</time></trkpt><trkpt lat="44.68874249935858" lon="12.237689416885448"><ele>0.8</ele><time>2026-03-28T14:24:38.006Z</time></trkpt><trkpt lat="44.68877089042992" lon="12.23755095919149"><ele>1.0</ele><time>2026-03-28T14:24:39.006Z</time></trkpt><trkpt lat="44.68877032952904" lon="12.23740715844753"><ele>0.6000000000000001</ele><time>2026-03-28T14:24:40.006Z</time></trkpt><trkpt lat="44.68876863315114" lon="12.237265391426261"><ele>0.20000000000000007</ele><time>2026-03-28T14:24:41.006Z</time></trkpt><trkpt lat="44.68876268743286" lon="12.2371319769381"><ele>-0.20000000000000007</ele><time>2026-03-28T14:24:42.006Z</time></trkpt><trkpt lat="44.68876616937567" lon="12.236999429557684"><ele>-0.6000000000000001</ele><time>2026-03-28T14:24:43.006Z</time></trkpt><trkpt lat="44.68876421459238" lon="12.236846957619623"><ele>-1.0</ele><time>2026-03-28T14:24:44.006Z</time></trkpt><trkpt lat="44.688765084124846" lon="12.236695517014178"><ele>-1.0</ele><time>2026-03-28T14:24:45.006Z</time></trkpt><trkpt lat="44.6887578577682" lon="12.236537503129792"><ele>-1.0</ele><time>2026-03-28T14:24:46.006Z</time></trkpt><trkpt lat="44.68874759971241" lon="12.236400164794274"><ele>-1.0</ele><time>2026-03-28T14:24:47.006Z</time></trkpt><trkpt lat="44.6887458635441" lon="12.236272216476083"><ele>-1.0</ele><time>2026-03-28T14:24:48.006Z</time></trkpt><trkpt lat="44.688757747815984" lon="12.236136586335721"><ele>-1.0</ele><time>2026-03-28T14:24:49.006Z</time></trkpt><trkpt lat="44.68875751760122" lon="12.23599804891985"><ele>-1.0</ele><time>2026-03-28T14:24:50.006Z</time></trkpt><trkpt lat="44.688757279674924" lon="12.235811885816991"><ele>-1.0</ele><time>2026-03-28T14:24:51.006Z</time></trkpt><trkpt lat="44.68875700917506" lon="12.235600234584219"><ele>-1.0</ele><time>2026-03-28T14:24:52.006Z</time></trkpt><trkpt lat="44.68875751098035" lon="12.235359092254194"><ele>-1.0</ele><time>2026-03-28T14:24:53.006Z</time></trkpt><trkpt lat="44.688758889943635" lon="12.235119961236464"><ele>-1.0</ele><time>2026-03-28T14:24:54.006Z</time></trkpt><trkpt lat="44.688759747816825" lon="12.234896466017702"><ele>-1.0</ele><time>2026-03-28T14:24:55.006Z</time></trkpt><trkpt lat="44.68875974781731" lon="12.234701830413025"><ele>-1.0</ele><time>2026-03-28T14:24:56.006Z</time></trkpt><trkpt lat="44.688759747817365" lon="12.23452573463192"><ele>-1.0</ele><time>2026-03-28T14:24:57.006Z</time></trkpt><trkpt lat="44.68875974781731" lon="12.23436171741855"><ele>-1.0</ele><time>2026-03-28T14:24:58.006Z</time></trkpt><trkpt lat="44.68875974781757" lon="12.234205876119978"><ele>-1.0</ele><time>2026-03-28T14:24:59.006Z</time></trkpt><trkpt lat="44.68875974781823" lon="12.234060787463786"><ele>-0.8</ele><time>2026-03-28T14:25:00.006Z</time></trkpt><trkpt lat="44.68875974781821" lon="12.23391542721363"><ele>-0.6000000000000001</ele><time>2026-03-28T14:25:01.008Z</time></trkpt><trkpt lat="44.688759747817926" lon="12.23377054868405"><ele>-0.4</ele><time>2026-03-28T14:25:02.008Z</time></trkpt><trkpt lat="44.688759747818374" lon="12.233624811340027"><ele>-0.2</ele><time>2026-03-28T14:25:03.008Z</time></trkpt><trkpt lat="44.688759829229625" lon="12.233479335089722"><ele>0.0</ele><time>2026-03-28T14:25:04.008Z</time></trkpt><trkpt lat="44.68875995976995" lon="12.233332650575848"><ele>0.0</ele><time>2026-03-28T14:25:05.008Z</time></trkpt><trkpt lat="44.68876008801598" lon="12.233188544133318"><ele>0.0</ele><time>2026-03-28T14:25:06.008Z</time></trkpt><trkpt lat="44.68876022119775" lon="12.233038891809905"><ele>0.0</ele><time>2026-03-28T14:25:07.008Z</time></trkpt><trkpt lat="44.68876035943326" lon="12.232883561187935"><ele>0.0</ele><time>2026-03-28T14:25:08.008Z</time></trkpt><trkpt lat="44.68875714578174" lon="12.232727224326851"><ele>0.0</ele><time>2026-03-28T14:25:09.008Z</time></trkpt><trkpt lat="44.688762698990466" lon="12.232565006742142"><ele>-0.2</ele><time>2026-03-28T14:25:10.009Z</time></trkpt><trkpt lat="44.688765527254716" lon="12.232403264291175"><ele>-0.4</ele><time>2026-03-28T14:25:11.008Z</time></trkpt><trkpt lat="44.68876581162371" lon="12.23224019671943"><ele>-0.6000000000000001</ele><time>2026-03-28T14:25:12.008Z</time></trkpt><trkpt lat="44.688765883131175" lon="12.232088721585772"><ele>-0.8</ele><time>2026-03-28T14:25:13.008Z</time></trkpt><trkpt lat="44.68876508734377" lon="12.231938589769385"><ele>-1.0</ele><time>2026-03-28T14:25:14.008Z</time></trkpt><trkpt lat="44.688768335783955" lon="12.231790523658479"><ele>-1.0</ele><time>2026-03-28T14:25:15.008Z</time></trkpt><trkpt lat="44.688769841400166" lon="12.231641385047784"><ele>-1.0</ele><time>2026-03-28T14:25:16.008Z</time></trkpt><trkpt lat="44.68876748411805" lon="12.231494489127337"><ele>-1.0</ele><time>2026-03-28T14:25:17.008Z</time></trkpt><trkpt lat="44.688764987045865" lon="12.231346007597947"><ele>-1.0</ele><time>2026-03-28T14:25:18.008Z</time></trkpt><trkpt lat="44.688764531356135" lon="12.231197705196083"><ele>-1.0</ele><time>2026-03-28T14:25:19.008Z</time></trkpt><trkpt lat="44.68876156318735" lon="12.231039795654608"><ele>-1.0</ele><time>2026-03-28T14:25:20.008Z</time></trkpt><trkpt lat="44.688752519367654" lon="12.230873823052718"><ele>-1.0</ele><time>2026-03-28T14:25:21.008Z</time></trkpt><trkpt lat="44.68875238274316" lon="12.230720899653965"><ele>-1.0</ele><time>2026-03-28T14:25:22.008Z</time></trkpt><trkpt lat="44.68878393195732" lon="12.23058472604687"><ele>-1.0</ele><time>2026-03-28T14:25:23.008Z</time></trkpt><trkpt lat="44.68878611518508" lon="12.230458429142553"><ele>-1.0</ele><time>2026-03-28T14:25:24.008Z</time></trkpt><trkpt lat="44.68878885142757" lon="12.230353929341614"><ele>-0.5714285714285714</ele><time>2026-03-28T14:25:25.008Z</time></trkpt><trkpt lat="44.68879098051343" lon="12.230219330613128"><ele>-0.1428571428571428</ele><time>2026-03-28T14:25:27.008Z</time></trkpt><trkpt lat="44.68877938486476" lon="12.230108330267983"><ele>0.2857142857142857</ele><time>2026-03-28T14:25:33.007Z</time></trkpt><trkpt lat="44.68878277047966" lon="12.230008330967502"><ele>0.7142857142857142</ele><time>2026-03-28T14:25:35.007Z</time></trkpt><trkpt lat="44.68880134865055" lon="12.229923386402453"><ele>1.1428571428571428</ele><time>2026-03-28T14:25:36.007Z</time></trkpt><trkpt lat="44.688838738432544" lon="12.229850071487936"><ele>1.5714285714285714</ele><time>2026-03-28T14:25:37.007Z</time></trkpt><trkpt lat="44.68889303841037" lon="12.229780468648556"><ele>2.0</ele><time>2026-03-28T14:25:38.007Z</time></trkpt><trkpt lat="44.68897326803639" lon="12.22972545212255"><ele>2.25</ele><time>2026-03-28T14:25:39.007Z</time></trkpt><trkpt lat="44.68906753858296" lon="12.229664753051075"><ele>2.5</ele><time>2026-03-28T14:25:40.007Z</time></trkpt><trkpt lat="44.68918923828434" lon="12.229692827937118"><ele>2.75</ele><time>2026-03-28T14:25:41.007Z</time></trkpt><trkpt lat="44.68930411344778" lon="12.229699173149786"><ele>3.0</ele><time>2026-03-28T14:25:42.007Z</time></trkpt><trkpt lat="44.68941970503194" lon="12.229700910057947"><ele>3.0</ele><time>2026-03-28T14:25:43.007Z</time></trkpt><trkpt lat="44.689530421918306" lon="12.229701209330194"><ele>3.0</ele><time>2026-03-28T14:25:44.007Z</time></trkpt><trkpt lat="44.68964222098464" lon="12.229702919260868"><ele>3.0</ele><time>2026-03-28T14:25:45.007Z</time></trkpt><trkpt lat="44.689750574709485" lon="12.229711259637622"><ele>3.0</ele><time>2026-03-28T14:25:46.007Z</time></trkpt><trkpt lat="44.689882051165405" lon="12.229715084648214"><ele>3.0</ele><time>2026-03-28T14:25:47.007Z</time></trkpt><trkpt lat="44.69004575120748" lon="12.22971340374111"><ele>3.0</ele><time>2026-03-28T14:25:48.007Z</time></trkpt><trkpt lat="44.690241517953254" lon="12.229721731590303"><ele>3.0</ele><time>2026-03-28T14:25:49.007Z</time></trkpt><trkpt lat="44.690441565222194" lon="12.229743269903539"><ele>2.6666666666666665</ele><time>2026-03-28T14:25:50.007Z</time></trkpt><trkpt lat="44.690637293646134" lon="12.229757208585475"><ele>2.333333333333333</ele><time>2026-03-28T14:25:51.007Z</time></trkpt><trkpt lat="44.69082959657457" lon="12.229755026103119"><ele>2.0</ele><time>2026-03-28T14:25:52.007Z</time></trkpt><trkpt lat="44.69105059317458" lon="12.229752053842688"><ele>1.5</ele><time>2026-03-28T14:25:53.007Z</time></trkpt><trkpt lat="44.69130444344649" lon="12.22975908993984"><ele>1.0</ele><time>2026-03-28T14:25:54.007Z</time></trkpt><trkpt lat="44.69156037963229" lon="12.229769749361644"><ele>1.0</ele><time>2026-03-28T14:25:55.007Z</time></trkpt><trkpt lat="44.69183164673006" lon="12.229782026258608"><ele>1.0</ele><time>2026-03-28T14:25:56.007Z</time></trkpt><trkpt lat="44.69209689782333" lon="12.229796579883791"><ele>1.0</ele><time>2026-03-28T14:25:57.007Z</time></trkpt><trkpt lat="44.69237386835524" lon="12.22980865553618"><ele>1.0</ele><time>2026-03-28T14:25:58.007Z</time></trkpt><trkpt lat="44.692647474848314" lon="12.229822628325328"><ele>0.5</ele><time>2026-03-28T14:25:59.007Z</time></trkpt><trkpt lat="44.69291850822824" lon="12.229838061436157"><ele>0.0</ele><time>2026-03-28T14:26:00.007Z</time></trkpt><trkpt lat="44.69318131159863" lon="12.229855831125136"><ele>0.0</ele><time>2026-03-28T14:26:01.007Z</time></trkpt><trkpt lat="44.69343975803178" lon="12.229869094879005"><ele>0.0</ele><time>2026-03-28T14:26:02.007Z</time></trkpt><trkpt lat="44.6936968489389" lon="12.229890031937368"><ele>1.0</ele><time>2026-03-28T14:26:03.007Z</time></trkpt><trkpt lat="44.69394199590152" lon="12.229939763420855"><ele>2.0</ele><time>2026-03-28T14:26:04.007Z</time></trkpt><trkpt lat="44.694188751688266" lon="12.229969341872579"><ele>2.0</ele><time>2026-03-28T14:26:05.007Z</time></trkpt><trkpt lat="44.69443439987918" lon="12.229973251691561"><ele>2.0</ele><time>2026-03-28T14:26:06.007Z</time></trkpt><trkpt lat="44.694684691981436" lon="12.22999284756097"><ele>2.0</ele><time>2026-03-28T14:26:07.007Z</time></trkpt><trkpt lat="44.694933384665404" lon="12.230009108258969"><ele>2.0</ele><time>2026-03-28T14:26:08.007Z</time></trkpt><trkpt lat="44.69519123541402" lon="12.230024973716118"><ele>2.0</ele><time>2026-03-28T14:26:09.007Z</time></trkpt><trkpt lat="44.6954407984829" lon="12.230035785378698"><ele>2.0</ele><time>2026-03-28T14:26:10.007Z</time></trkpt><trkpt lat="44.695693177884685" lon="12.230034897075388"><ele>2.0</ele><time>2026-03-28T14:26:11.007Z</time></trkpt><trkpt lat="44.69594100428763" lon="12.230025935800445"><ele>2.0</ele><time>2026-03-28T14:26:12.007Z</time></trkpt><trkpt lat="44.69619133498598" lon="12.230035029278989"><ele>2.0</ele><time>2026-03-28T14:26:13.007Z</time></trkpt><trkpt lat="44.696441825449305" lon="12.230055858184"><ele>2.0</ele><time>2026-03-28T14:26:14.007Z</time></trkpt><trkpt lat="44.696690444833386" lon="12.230066737542295"><ele>3.5</ele><time>2026-03-28T14:26:15.007Z</time></trkpt><trkpt lat="44.69693567015886" lon="12.230092645000584"><ele>5.0</ele><time>2026-03-28T14:26:16.007Z</time></trkpt><trkpt lat="44.69719202502404" lon="12.23010888168349"><ele>5.0</ele><time>2026-03-28T14:26:17.007Z</time></trkpt><trkpt lat="44.6974420144876" lon="12.230136196865478"><ele>5.0</ele><time>2026-03-28T14:26:18.007Z</time></trkpt><trkpt lat="44.697682929055055" lon="12.2301581932064"><ele>4.0</ele><time>2026-03-28T14:26:19.007Z</time></trkpt><trkpt lat="44.69792882374242" lon="12.230176394488831"><ele>3.0</ele><time>2026-03-28T14:26:20.007Z</time></trkpt><trkpt lat="44.69817212067712" lon="12.230204906235768"><ele>3.0</ele><time>2026-03-28T14:26:21.007Z</time></trkpt><trkpt lat="44.6984127953878" lon="12.230235519533977"><ele>3.0</ele><time>2026-03-28T14:26:22.007Z</time></trkpt><trkpt lat="44.698658512179954" lon="12.230256488885974"><ele>2.5</ele><time>2026-03-28T14:26:23.007Z</time></trkpt><trkpt lat="44.69891251631283" lon="12.230283558713731"><ele>2.0</ele><time>2026-03-28T14:26:24.007Z</time></trkpt><trkpt lat="44.69916349412216" lon="12.230295024816135"><ele>2.0</ele><time>2026-03-28T14:26:25.007Z</time></trkpt><trkpt lat="44.69941164238312" lon="12.230311334772814"><ele>2.0</ele><time>2026-03-28T14:26:26.007Z</time></trkpt><trkpt lat="44.69966646581536" lon="12.23033679721118"><ele>2.0</ele><time>2026-03-28T14:26:27.007Z</time></trkpt><trkpt lat="44.69992263080028" lon="12.230387470384917"><ele>2.0</ele><time>2026-03-28T14:26:28.007Z</time></trkpt><trkpt lat="44.700185664154965" lon="12.230401343731591"><ele>1.0</ele><time>2026-03-28T14:26:29.007Z</time></trkpt><trkpt lat="44.70043070834244" lon="12.230422333120975"><ele>0.0</ele><time>2026-03-28T14:26:30.007Z</time></trkpt><trkpt lat="44.70068369330723" lon="12.230458215910483"><ele>0.0</ele><time>2026-03-28T14:26:31.007Z</time></trkpt><trkpt lat="44.7009440680944" lon="12.230484246278426"><ele>0.0</ele><time>2026-03-28T14:26:32.007Z</time></trkpt><trkpt lat="44.70120410252477" lon="12.230491597445697"><ele>0.0</ele><time>2026-03-28T14:26:33.007Z</time></trkpt><trkpt lat="44.701488498841016" lon="12.230519134662215"><ele>0.0</ele><time>2026-03-28T14:26:34.007Z</time></trkpt><trkpt lat="44.701742514630915" lon="12.230562004368315"><ele>0.5</ele><time>2026-03-28T14:26:35.007Z</time></trkpt><trkpt lat="44.70200949505486" lon="12.230594307210188"><ele>1.0</ele><time>2026-03-28T14:26:36.007Z</time></trkpt><trkpt lat="44.70228293768676" lon="12.230612448600446"><ele>1.0</ele><time>2026-03-28T14:26:37.007Z</time></trkpt><trkpt lat="44.702547588563284" lon="12.230638744513604"><ele>1.0</ele><time>2026-03-28T14:26:38.007Z</time></trkpt><trkpt lat="44.70280668651876" lon="12.230661564016236"><ele>1.5</ele><time>2026-03-28T14:26:39.007Z</time></trkpt><trkpt lat="44.70306006792035" lon="12.230685114272555"><ele>2.0</ele><time>2026-03-28T14:26:40.007Z</time></trkpt><trkpt lat="44.70330853419827" lon="12.230703446390777"><ele>2.0</ele><time>2026-03-28T14:26:41.007Z</time></trkpt><trkpt lat="44.703558988229865" lon="12.230716265233756"><ele>2.0</ele><time>2026-03-28T14:26:42.007Z</time></trkpt><trkpt lat="44.70380455067228" lon="12.230734632619244"><ele>3.5</ele><time>2026-03-28T14:26:43.007Z</time></trkpt><trkpt lat="44.70405373549603" lon="12.230748864089566"><ele>5.0</ele><time>2026-03-28T14:26:44.007Z</time></trkpt><trkpt lat="44.70428789751464" lon="12.230776942322597"><ele>4.0</ele><time>2026-03-28T14:26:45.007Z</time></trkpt><trkpt lat="44.70451329774542" lon="12.23079373399268"><ele>3.0</ele><time>2026-03-28T14:26:46.007Z</time></trkpt><trkpt lat="44.70471287037673" lon="12.230796259791461"><ele>2.0</ele><time>2026-03-28T14:26:47.007Z</time></trkpt><trkpt lat="44.70492511052978" lon="12.23083132873853"><ele>2.0</ele><time>2026-03-28T14:26:48.007Z</time></trkpt><trkpt lat="44.70512441256377" lon="12.230856965922635"><ele>2.0</ele><time>2026-03-28T14:26:49.007Z</time></trkpt><trkpt lat="44.70530347361461" lon="12.230875607241435"><ele>2.0</ele><time>2026-03-28T14:26:50.007Z</time></trkpt><trkpt lat="44.70547050158783" lon="12.23089520056717"><ele>1.6666666666666665</ele><time>2026-03-28T14:26:51.007Z</time></trkpt><trkpt lat="44.70562903503807" lon="12.2309095174592"><ele>1.3333333333333333</ele><time>2026-03-28T14:26:52.007Z</time></trkpt><trkpt lat="44.705772179195435" lon="12.230926449037657"><ele>1.0</ele><time>2026-03-28T14:26:53.007Z</time></trkpt><trkpt lat="44.705920488444676" lon="12.230927447405891"><ele>1.0</ele><time>2026-03-28T14:26:54.007Z</time></trkpt><trkpt lat="44.706062710822685" lon="12.230925426408021"><ele>1.0</ele><time>2026-03-28T14:26:55.007Z</time></trkpt><trkpt lat="44.706217309462474" lon="12.230931071951922"><ele>1.0</ele><time>2026-03-28T14:26:56.007Z</time></trkpt><trkpt lat="44.706376979318605" lon="12.2309221981315"><ele>1.0</ele><time>2026-03-28T14:26:57.007Z</time></trkpt><trkpt lat="44.70652903079459" lon="12.230908352509113"><ele>1.0</ele><time>2026-03-28T14:26:58.007Z</time></trkpt><trkpt lat="44.706691701681244" lon="12.230900714284068"><ele>1.0</ele><time>2026-03-28T14:26:59.007Z</time></trkpt><trkpt lat="44.706858469427104" lon="12.230881554384329"><ele>1.3333333333333333</ele><time>2026-03-28T14:27:00.007Z</time></trkpt><trkpt lat="44.70703182540982" lon="12.230860798565496"><ele>1.6666666666666665</ele><time>2026-03-28T14:27:01.007Z</time></trkpt><trkpt lat="44.70720585855696" lon="12.230848749892505"><ele>2.0</ele><time>2026-03-28T14:27:02.007Z</time></trkpt><trkpt lat="44.707390057860955" lon="12.23085859611893"><ele>2.0</ele><time>2026-03-28T14:27:03.007Z</time></trkpt><trkpt lat="44.7075708415584" lon="12.230897321768532"><ele>2.0</ele><time>2026-03-28T14:27:04.007Z</time></trkpt><trkpt lat="44.70774742178793" lon="12.230945420711056"><ele>2.0</ele><time>2026-03-28T14:27:05.007Z</time></trkpt><trkpt lat="44.707908034676315" lon="12.231059409600316"><ele>2.0</ele><time>2026-03-28T14:27:06.007Z</time></trkpt><trkpt lat="44.70806571346611" lon="12.231141241897884"><ele>2.0</ele><time>2026-03-28T14:27:07.009Z</time></trkpt><trkpt lat="44.70820743861828" lon="12.231200022631516"><ele>2.0</ele><time>2026-03-28T14:27:08.008Z</time></trkpt><trkpt lat="44.70836004715604" lon="12.231249432841588"><ele>2.0</ele><time>2026-03-28T14:27:09.008Z</time></trkpt><trkpt lat="44.70850721485559" lon="12.231282949243932"><ele>2.0</ele><time>2026-03-28T14:27:10.009Z</time></trkpt><trkpt lat="44.708635121438505" lon="12.231302800964968"><ele>2.0</ele><time>2026-03-28T14:27:11.008Z</time></trkpt><trkpt lat="44.70879774948763" lon="12.231325226393233"><ele>2.0</ele><time>2026-03-28T14:27:12.008Z</time></trkpt><trkpt lat="44.70893948745824" lon="12.231344771194937"><ele>2.0</ele><time>2026-03-28T14:27:13.009Z</time></trkpt><trkpt lat="44.709082430876485" lon="12.231364482223386"><ele>2.0</ele><time>2026-03-28T14:27:14.008Z</time></trkpt><trkpt lat="44.709243312097875" lon="12.231386666757139"><ele>2.0</ele><time>2026-03-28T14:27:15.008Z</time></trkpt><trkpt lat="44.709391676843815" lon="12.231407125363418"><ele>1.6666666666666665</ele><time>2026-03-28T14:27:16.008Z</time></trkpt><trkpt lat="44.70955001507999" lon="12.231428959220938"><ele>1.3333333333333333</ele><time>2026-03-28T14:27:17.009Z</time></trkpt><trkpt lat="44.709715313291134" lon="12.231452131154397"><ele>1.0</ele><time>2026-03-28T14:27:18.009Z</time></trkpt><trkpt lat="44.70990893421492" lon="12.231479937249771"><ele>1.0</ele><time>2026-03-28T14:27:19.008Z</time></trkpt><trkpt lat="44.71013283188928" lon="12.231512091488963"><ele>1.0</ele><time>2026-03-28T14:27:20.008Z</time></trkpt><trkpt lat="44.710368867027384" lon="12.231528756239781"><ele>1.0</ele><time>2026-03-28T14:27:21.008Z</time></trkpt><trkpt lat="44.71061600809798" lon="12.231580514442498"><ele>1.0</ele><time>2026-03-28T14:27:22.008Z</time></trkpt><trkpt lat="44.7108575947588" lon="12.231619678282497"><ele>1.0</ele><time>2026-03-28T14:27:23.008Z</time></trkpt><trkpt lat="44.71109462417699" lon="12.231654960363723"><ele>1.0</ele><time>2026-03-28T14:27:24.008Z</time></trkpt><trkpt lat="44.71131243076966" lon="12.231691208998363"><ele>1.0</ele><time>2026-03-28T14:27:25.008Z</time></trkpt><trkpt lat="44.71152213709702" lon="12.23172138765208"><ele>1.0</ele><time>2026-03-28T14:27:26.008Z</time></trkpt><trkpt lat="44.711722061871164" lon="12.231750870547069"><ele>1.0</ele><time>2026-03-28T14:27:27.008Z</time></trkpt><trkpt lat="44.71191907899014" lon="12.231777708276471"><ele>1.0</ele><time>2026-03-28T14:27:28.008Z</time></trkpt><trkpt lat="44.712117981441274" lon="12.231787405815231"><ele>1.0</ele><time>2026-03-28T14:27:29.008Z</time></trkpt><trkpt lat="44.712317617431275" lon="12.23176046853277"><ele>1.0</ele><time>2026-03-28T14:27:30.008Z</time></trkpt><trkpt lat="44.71252873564909" lon="12.231709042928978"><ele>1.0</ele><time>2026-03-28T14:27:31.008Z</time></trkpt><trkpt lat="44.71272556232452" lon="12.231649523347055"><ele>1.0</ele><time>2026-03-28T14:27:32.008Z</time></trkpt><trkpt lat="44.71292111221902" lon="12.231599471731819"><ele>1.0</ele><time>2026-03-28T14:27:33.008Z</time></trkpt><trkpt lat="44.71312196135795" lon="12.231583643242775"><ele>1.6666666666666665</ele><time>2026-03-28T14:27:34.008Z</time></trkpt><trkpt lat="44.713323226948404" lon="12.231589203458432"><ele>2.3333333333333335</ele><time>2026-03-28T14:27:35.008Z</time></trkpt><trkpt lat="44.71351521987527" lon="12.231657893366965"><ele>3.0</ele><time>2026-03-28T14:27:36.008Z</time></trkpt><trkpt lat="44.71369316333985" lon="12.231684806451023"><ele>3.0</ele><time>2026-03-28T14:27:37.008Z</time></trkpt><trkpt lat="44.71386245647885" lon="12.23170681426462"><ele>3.0</ele><time>2026-03-28T14:27:38.008Z</time></trkpt><trkpt lat="44.71401683197298" lon="12.231732078625848"><ele>3.0</ele><time>2026-03-28T14:27:39.008Z</time></trkpt><trkpt lat="44.7141629965629" lon="12.231769866096496"><ele>3.0</ele><time>2026-03-28T14:27:40.008Z</time></trkpt><trkpt lat="44.714303736770134" lon="12.231825248782487"><ele>3.0</ele><time>2026-03-28T14:27:41.008Z</time></trkpt><trkpt lat="44.714436415000286" lon="12.231943311374588"><ele>3.0</ele><time>2026-03-28T14:27:42.008Z</time></trkpt><trkpt lat="44.7145644282283" lon="12.232066821973095"><ele>3.0</ele><time>2026-03-28T14:27:43.008Z</time></trkpt><trkpt lat="44.714688472958905" lon="12.232183903662456"><ele>3.0</ele><time>2026-03-28T14:27:44.008Z</time></trkpt><trkpt lat="44.71479595325638" lon="12.23232906577145"><ele>3.0</ele><time>2026-03-28T14:27:45.008Z</time></trkpt><trkpt lat="44.71489778907825" lon="12.232463565718867"><ele>3.0</ele><time>2026-03-28T14:27:46.008Z</time></trkpt><trkpt lat="44.71502120511448" lon="12.232586078804587"><ele>3.333333333333333</ele><time>2026-03-28T14:27:47.008Z</time></trkpt><trkpt lat="44.71515758820247" lon="12.232700136738"><ele>3.6666666666666665</ele><time>2026-03-28T14:27:48.008Z</time></trkpt><trkpt lat="44.71531057848401" lon="12.232789626878002"><ele>4.0</ele><time>2026-03-28T14:27:49.008Z</time></trkpt><trkpt lat="44.715479928815554" lon="12.23285459438927"><ele>5.333333333333333</ele><time>2026-03-28T14:27:50.008Z</time></trkpt><trkpt lat="44.71563904230141" lon="12.232895720446754"><ele>6.666666666666666</ele><time>2026-03-28T14:27:51.008Z</time></trkpt><trkpt lat="44.715804484614964" lon="12.232929873403545"><ele>8.0</ele><time>2026-03-28T14:27:52.008Z</time></trkpt><trkpt lat="44.71595671656626" lon="12.232953406797456"><ele>5.333333333333333</ele><time>2026-03-28T14:27:53.008Z</time></trkpt><trkpt lat="44.71612099660195" lon="12.232983944567998"><ele>2.6666666666666665</ele><time>2026-03-28T14:27:54.008Z</time></trkpt><trkpt lat="44.71628275585811" lon="12.233021948037376"><ele>0.0</ele><time>2026-03-28T14:27:55.008Z</time></trkpt><trkpt lat="44.71645560707347" lon="12.233069988010236"><ele>0.0</ele><time>2026-03-28T14:27:56.008Z</time></trkpt><trkpt lat="44.71662983371012" lon="12.233106552935482"><ele>0.0</ele><time>2026-03-28T14:27:57.008Z</time></trkpt><trkpt lat="44.71680824047256" lon="12.233147587117502"><ele>0.0</ele><time>2026-03-28T14:27:58.008Z</time></trkpt><trkpt lat="44.71697409727912" lon="12.23319304005667"><ele>1.6666666666666667</ele><time>2026-03-28T14:27:59.008Z</time></trkpt><trkpt lat="44.7171487388623" lon="12.23323270467329"><ele>3.3333333333333335</ele><time>2026-03-28T14:28:00.008Z</time></trkpt><trkpt lat="44.71732025482437" lon="12.233274448608572"><ele>5.0</ele><time>2026-03-28T14:28:01.008Z</time></trkpt><trkpt lat="44.71748485305935" lon="12.23331120272804"><ele>5.0</ele><time>2026-03-28T14:28:02.008Z</time></trkpt><trkpt lat="44.71764975674399" lon="12.233347312734267"><ele>5.0</ele><time>2026-03-28T14:28:03.008Z</time></trkpt><trkpt lat="44.71780849108188" lon="12.233383723044602"><ele>5.0</ele><time>2026-03-28T14:28:04.008Z</time></trkpt><trkpt lat="44.71795402450522" lon="12.233439466250362"><ele>4.0</ele><time>2026-03-28T14:28:05.008Z</time></trkpt><trkpt lat="44.718111314733854" lon="12.233475427308935"><ele>3.0</ele><time>2026-03-28T14:28:06.008Z</time></trkpt><trkpt lat="44.71826747701733" lon="12.23348770510572"><ele>2.0</ele><time>2026-03-28T14:28:07.008Z</time></trkpt><trkpt lat="44.718406397249545" lon="12.233530130394184"><ele>2.0</ele><time>2026-03-28T14:28:08.008Z</time></trkpt><trkpt lat="44.71853132694801" lon="12.233562653369653"><ele>2.0</ele><time>2026-03-28T14:28:09.008Z</time></trkpt><trkpt lat="44.71864039466174" lon="12.233588897247163"><ele>2.0</ele><time>2026-03-28T14:28:10.008Z</time></trkpt><trkpt lat="44.71873409382988" lon="12.233613565155053"><ele>2.0</ele><time>2026-03-28T14:28:11.008Z</time></trkpt><trkpt lat="44.71882540572748" lon="12.233633364944096"><ele>2.0</ele><time>2026-03-28T14:28:12.008Z</time></trkpt><trkpt lat="44.71890831540984" lon="12.233652217821765"><ele>1.9999999999999998</ele><time>2026-03-28T14:28:13.008Z</time></trkpt><trkpt lat="44.7189708419136" lon="12.233669175802861"><ele>2.0</ele><time>2026-03-28T14:28:14.008Z</time></trkpt><trkpt lat="44.71907133176549" lon="12.233692951019666"><ele>2.0</ele><time>2026-03-28T14:28:16.008Z</time></trkpt><trkpt lat="44.719138772378834" lon="12.23371564405944"><ele>2.0</ele><time>2026-03-28T14:28:18.008Z</time></trkpt><trkpt lat="44.71922164597607" lon="12.233731960881384"><ele>1.9999999999999998</ele><time>2026-03-28T14:28:22.008Z</time></trkpt><trkpt lat="44.71927874983144" lon="12.233792166296626"><ele>2.0</ele><time>2026-03-28T14:28:25.008Z</time></trkpt><trkpt lat="44.7193314789669" lon="12.233743502592528"><ele>1.8</ele><time>2026-03-28T14:28:26.008Z</time></trkpt><trkpt lat="44.71943073573656" lon="12.233765746487798"><ele>1.6</ele><time>2026-03-28T14:28:29.008Z</time></trkpt><trkpt lat="44.71955575772175" lon="12.233788022583916"><ele>1.4000000000000001</ele><time>2026-03-28T14:28:31.008Z</time></trkpt><trkpt lat="44.719639853370154" lon="12.233803597022323"><ele>1.2000000000000002</ele><time>2026-03-28T14:28:32.008Z</time></trkpt><trkpt lat="44.71975305008655" lon="12.233815253531041"><ele>1.0</ele><time>2026-03-28T14:28:33.008Z</time></trkpt><trkpt lat="44.71990458499078" lon="12.23383695063598"><ele>1.0</ele><time>2026-03-28T14:28:34.008Z</time></trkpt><trkpt lat="44.7200783795404" lon="12.233922100819617"><ele>1.0</ele><time>2026-03-28T14:28:35.008Z</time></trkpt><trkpt lat="44.72026221815587" lon="12.234046369565158"><ele>1.0</ele><time>2026-03-28T14:28:36.007Z</time></trkpt><trkpt lat="44.720466124203845" lon="12.234109507689011"><ele>1.5</ele><time>2026-03-28T14:28:37.007Z</time></trkpt><trkpt lat="44.72069218654252" lon="12.234179800718799"><ele>2.0</ele><time>2026-03-28T14:28:38.007Z</time></trkpt><trkpt lat="44.72091786108588" lon="12.234250084870645"><ele>1.5</ele><time>2026-03-28T14:28:39.007Z</time></trkpt><trkpt lat="44.72114186808251" lon="12.234319849698739"><ele>1.0</ele><time>2026-03-28T14:28:40.007Z</time></trkpt><trkpt lat="44.721371308740075" lon="12.234391316012024"><ele>1.0</ele><time>2026-03-28T14:28:41.007Z</time></trkpt><trkpt lat="44.721581945974904" lon="12.234433434933546"><ele>1.0</ele><time>2026-03-28T14:28:42.007Z</time></trkpt><trkpt lat="44.72179953126941" lon="12.234501248351757"><ele>1.0</ele><time>2026-03-28T14:28:43.007Z</time></trkpt><trkpt lat="44.72199512570082" lon="12.234565561354108"><ele>0.6666666666666666</ele><time>2026-03-28T14:28:44.007Z</time></trkpt><trkpt lat="44.72218104417799" lon="12.234633822101502"><ele>0.3333333333333333</ele><time>2026-03-28T14:28:45.007Z</time></trkpt><trkpt lat="44.72234947325298" lon="12.234693568984207"><ele>0.0</ele><time>2026-03-28T14:28:46.007Z</time></trkpt><trkpt lat="44.722519442718735" lon="12.234751115578758"><ele>1.0</ele><time>2026-03-28T14:28:47.007Z</time></trkpt><trkpt lat="44.72267633179015" lon="12.234835537100832"><ele>2.0</ele><time>2026-03-28T14:28:48.007Z</time></trkpt><trkpt lat="44.72285032925597" lon="12.234867486056745"><ele>3.0</ele><time>2026-03-28T14:28:49.007Z</time></trkpt><trkpt lat="44.723026657437764" lon="12.234868607366877"><ele>3.0</ele><time>2026-03-28T14:28:50.007Z</time></trkpt><trkpt lat="44.723205362969665" lon="12.234828182307497"><ele>3.0</ele><time>2026-03-28T14:28:51.007Z</time></trkpt><trkpt lat="44.72338703541428" lon="12.23477130018477"><ele>3.0</ele><time>2026-03-28T14:28:52.007Z</time></trkpt><trkpt lat="44.7235577377895" lon="12.234658257220723"><ele>3.666666666666667</ele><time>2026-03-28T14:28:53.007Z</time></trkpt><trkpt lat="44.7237234797645" lon="12.234521581401065"><ele>4.333333333333334</ele><time>2026-03-28T14:28:54.007Z</time></trkpt><trkpt lat="44.723879235105144" lon="12.23435438129336"><ele>5.0</ele><time>2026-03-28T14:28:55.007Z</time></trkpt><trkpt lat="44.72401668017347" lon="12.234157743926419"><ele>5.0</ele><time>2026-03-28T14:28:56.007Z</time></trkpt><trkpt lat="44.72412842685364" lon="12.233914205113495"><ele>5.0</ele><time>2026-03-28T14:28:57.007Z</time></trkpt><trkpt lat="44.724212360962376" lon="12.233647010290916"><ele>5.0</ele><time>2026-03-28T14:28:58.007Z</time></trkpt><trkpt lat="44.72428737743628" lon="12.233354879122794"><ele>4.0</ele><time>2026-03-28T14:28:59.007Z</time></trkpt><trkpt lat="44.72434995165701" lon="12.233010354645764"><ele>3.0</ele><time>2026-03-28T14:29:00.007Z</time></trkpt><trkpt lat="44.724384659092635" lon="12.232634698145636"><ele>1.5</ele><time>2026-03-28T14:29:01.007Z</time></trkpt><trkpt lat="44.724435930251495" lon="12.232274609023175"><ele>0.0</ele><time>2026-03-28T14:29:02.007Z</time></trkpt><trkpt lat="44.72449606029136" lon="12.231917636120313"><ele>0.0</ele><time>2026-03-28T14:29:03.007Z</time></trkpt><trkpt lat="44.724558108629566" lon="12.231557651207819"><ele>0.0</ele><time>2026-03-28T14:29:04.007Z</time></trkpt><trkpt lat="44.72461340091681" lon="12.23119601352229"><ele>0.0</ele><time>2026-03-28T14:29:05.007Z</time></trkpt><trkpt lat="44.72469849149401" lon="12.23083032855512"><ele>0.0</ele><time>2026-03-28T14:29:06.007Z</time></trkpt><trkpt lat="44.72476759108853" lon="12.230459053753728"><ele>-0.5</ele><time>2026-03-28T14:29:07.007Z</time></trkpt><trkpt lat="44.72483719761101" lon="12.23008496696498"><ele>-1.0</ele><time>2026-03-28T14:29:08.007Z</time></trkpt><trkpt lat="44.72490576565385" lon="12.229712936957348"><ele>-1.5</ele><time>2026-03-28T14:29:09.007Z</time></trkpt><trkpt lat="44.72497082766543" lon="12.229358435371129"><ele>-2.0</ele><time>2026-03-28T14:29:10.007Z</time></trkpt><trkpt lat="44.725032524436436" lon="12.229020319378957"><ele>-2.0</ele><time>2026-03-28T14:29:11.007Z</time></trkpt><trkpt lat="44.725090020394205" lon="12.228703156148589"><ele>-2.0</ele><time>2026-03-28T14:29:12.007Z</time></trkpt><trkpt lat="44.72514735923213" lon="12.228383003049442"><ele>-2.333333333333333</ele><time>2026-03-28T14:29:13.009Z</time></trkpt><trkpt lat="44.72520110949758" lon="12.228079052013259"><ele>-2.6666666666666665</ele><time>2026-03-28T14:29:14.009Z</time></trkpt><trkpt lat="44.72525104794905" lon="12.227798652106703"><ele>-3.0</ele><time>2026-03-28T14:29:15.009Z</time></trkpt><trkpt lat="44.7252969123769" lon="12.2275377965341"><ele>-2.0</ele><time>2026-03-28T14:29:16.008Z</time></trkpt><trkpt lat="44.725340717970454" lon="12.227303874025713"><ele>-1.0</ele><time>2026-03-28T14:29:17.008Z</time></trkpt><trkpt lat="44.725387688981776" lon="12.227070045376177"><ele>0.0</ele><time>2026-03-28T14:29:18.008Z</time></trkpt><trkpt lat="44.72538851006016" lon="12.226817165449038"><ele>0.0</ele><time>2026-03-28T14:29:19.008Z</time></trkpt><trkpt lat="44.72546121561543" lon="12.22659753791972"><ele>0.0</ele><time>2026-03-28T14:29:20.009Z</time></trkpt><trkpt lat="44.7255611415231" lon="12.226386452841828"><ele>0.0</ele><time>2026-03-28T14:29:21.009Z</time></trkpt><trkpt lat="44.72568546495758" lon="12.226191110857528"><ele>0.0</ele><time>2026-03-28T14:29:22.009Z</time></trkpt><trkpt lat="44.725846278550925" lon="12.226031552759931"><ele>0.0</ele><time>2026-03-28T14:29:23.009Z</time></trkpt><trkpt lat="44.726017985656966" lon="12.225898998865686"><ele>0.0</ele><time>2026-03-28T14:29:24.009Z</time></trkpt><trkpt lat="44.72620451070737" lon="12.225799093863936"><ele>0.0</ele><time>2026-03-28T14:29:25.009Z</time></trkpt><trkpt lat="44.72640505561622" lon="12.22571973876159"><ele>0.0</ele><time>2026-03-28T14:29:26.008Z</time></trkpt><trkpt lat="44.72661198808363" lon="12.225684328591074"><ele>0.0</ele><time>2026-03-28T14:29:27.008Z</time></trkpt><trkpt lat="44.72682317092874" lon="12.225680080477035"><ele>0.0</ele><time>2026-03-28T14:29:28.008Z</time></trkpt><trkpt lat="44.72705538887676" lon="12.225735199659928"><ele>0.0</ele><time>2026-03-28T14:29:29.008Z</time></trkpt><trkpt lat="44.7273015075912" lon="12.22582027132922"><ele>0.0</ele><time>2026-03-28T14:29:30.008Z</time></trkpt><trkpt lat="44.72755328752833" lon="12.225954019179394"><ele>0.0</ele><time>2026-03-28T14:29:31.008Z</time></trkpt><trkpt lat="44.72780840231265" lon="12.226025972154824"><ele>-0.5</ele><time>2026-03-28T14:29:32.008Z</time></trkpt><trkpt lat="44.72806738752252" lon="12.226096250063993"><ele>-1.0</ele><time>2026-03-28T14:29:33.008Z</time></trkpt><trkpt lat="44.728325378216724" lon="12.226166258125206"><ele>-0.5</ele><time>2026-03-28T14:29:34.008Z</time></trkpt><trkpt lat="44.72858582803561" lon="12.226236933511391"><ele>0.0</ele><time>2026-03-28T14:29:35.008Z</time></trkpt><trkpt lat="44.728844395477836" lon="12.226307098089142"><ele>0.0</ele><time>2026-03-28T14:29:36.008Z</time></trkpt><trkpt lat="44.72910802523013" lon="12.226378636382723"><ele>0.0</ele><time>2026-03-28T14:29:37.008Z</time></trkpt><trkpt lat="44.729374618687075" lon="12.226450978739603"><ele>0.0</ele><time>2026-03-28T14:29:38.008Z</time></trkpt><trkpt lat="44.72963906896969" lon="12.226522864432125"><ele>0.0</ele><time>2026-03-28T14:29:39.008Z</time></trkpt><trkpt lat="44.72989795250155" lon="12.226593420933929"><ele>0.0</ele><time>2026-03-28T14:29:40.008Z</time></trkpt><trkpt lat="44.73014437858529" lon="12.226660661612886"><ele>0.0</ele><time>2026-03-28T14:29:41.008Z</time></trkpt><trkpt lat="44.73038112470325" lon="12.226724944480964"><ele>1.0</ele><time>2026-03-28T14:29:42.008Z</time></trkpt><trkpt lat="44.730613275354344" lon="12.2267877590501"><ele>2.0</ele><time>2026-03-28T14:29:43.008Z</time></trkpt><trkpt lat="44.730855490818946" lon="12.22683357661891"><ele>1.5</ele><time>2026-03-28T14:29:44.008Z</time></trkpt><trkpt lat="44.73110464896918" lon="12.226922651174277"><ele>1.0</ele><time>2026-03-28T14:29:45.008Z</time></trkpt><trkpt lat="44.73133080622053" lon="12.226992327623897"><ele>1.0</ele><time>2026-03-28T14:29:46.008Z</time></trkpt><trkpt lat="44.73156157878435" lon="12.227070885935008"><ele>1.0</ele><time>2026-03-28T14:29:47.008Z</time></trkpt><trkpt lat="44.73177583659916" lon="12.22712818311263"><ele>1.0</ele><time>2026-03-28T14:29:48.008Z</time></trkpt><trkpt lat="44.73197242074657" lon="12.227199136124815"><ele>1.0</ele><time>2026-03-28T14:29:49.008Z</time></trkpt><trkpt lat="44.73216619546879" lon="12.22727364799359"><ele>1.0</ele><time>2026-03-28T14:29:50.008Z</time></trkpt><trkpt lat="44.732358728921696" lon="12.227343536833805"><ele>1.0</ele><time>2026-03-28T14:29:51.008Z</time></trkpt><trkpt lat="44.732546156835966" lon="12.227417530043615"><ele>1.0</ele><time>2026-03-28T14:29:52.008Z</time></trkpt><trkpt lat="44.732718366789875" lon="12.22750322221887"><ele>1.0</ele><time>2026-03-28T14:29:53.008Z</time></trkpt><trkpt lat="44.732892881352214" lon="12.227574521653905"><ele>1.3333333333333333</ele><time>2026-03-28T14:29:54.008Z</time></trkpt><trkpt lat="44.733066120779704" lon="12.227644149973106"><ele>1.6666666666666665</ele><time>2026-03-28T14:29:55.008Z</time></trkpt><trkpt lat="44.7332397627681" lon="12.227730585673806"><ele>2.0</ele><time>2026-03-28T14:29:56.008Z</time></trkpt><trkpt lat="44.733411130731646" lon="12.227804625267398"><ele>1.3333333333333333</ele><time>2026-03-28T14:29:57.008Z</time></trkpt><trkpt lat="44.73357604262289" lon="12.227856011274671"><ele>0.6666666666666666</ele><time>2026-03-28T14:29:58.008Z</time></trkpt><trkpt lat="44.73373632313072" lon="12.227927464031596"><ele>0.0</ele><time>2026-03-28T14:29:59.008Z</time></trkpt><trkpt lat="44.73388894825888" lon="12.22799625547566"><ele>0.0</ele><time>2026-03-28T14:30:00.008Z</time></trkpt><trkpt lat="44.73403765048405" lon="12.22806260230098"><ele>0.0</ele><time>2026-03-28T14:30:01.008Z</time></trkpt><trkpt lat="44.73419763034504" lon="12.228122847950212"><ele>0.0</ele><time>2026-03-28T14:30:02.008Z</time></trkpt><trkpt lat="44.73433508899336" lon="12.228188732696246"><ele>0.25</ele><time>2026-03-28T14:30:03.008Z</time></trkpt><trkpt lat="44.73445468820268" lon="12.228239404887375"><ele>0.5</ele><time>2026-03-28T14:30:04.008Z</time></trkpt><trkpt lat="44.73456407053776" lon="12.228325450643691"><ele>0.75</ele><time>2026-03-28T14:30:05.008Z</time></trkpt><trkpt lat="44.734675229875464" lon="12.22837216322766"><ele>1.0</ele><time>2026-03-28T14:30:06.008Z</time></trkpt><trkpt lat="44.73479638258265" lon="12.228423688476633"><ele>1.0</ele><time>2026-03-28T14:30:07.008Z</time></trkpt><trkpt lat="44.734925916596865" lon="12.228478824124112"><ele>1.0</ele><time>2026-03-28T14:30:08.008Z</time></trkpt><trkpt lat="44.73505733011637" lon="12.22853568365227"><ele>1.0</ele><time>2026-03-28T14:30:09.008Z</time></trkpt><trkpt lat="44.73521446652242" lon="12.228593756801931"><ele>1.0</ele><time>2026-03-28T14:30:10.008Z</time></trkpt><trkpt lat="44.73538604485231" lon="12.228657667746594"><ele>1.0</ele><time>2026-03-28T14:30:11.008Z</time></trkpt><trkpt lat="44.735577912869815" lon="12.22874987494736"><ele>1.0</ele><time>2026-03-28T14:30:12.008Z</time></trkpt><trkpt lat="44.735767163781176" lon="12.228839049063724"><ele>1.0</ele><time>2026-03-28T14:30:13.008Z</time></trkpt><trkpt lat="44.735966846323436" lon="12.22892368059764"><ele>0.0</ele><time>2026-03-28T14:30:14.008Z</time></trkpt><trkpt lat="44.73617879056036" lon="12.229009244277016"><ele>-1.0</ele><time>2026-03-28T14:30:15.008Z</time></trkpt><trkpt lat="44.73639759257261" lon="12.22910568918578"><ele>-1.0</ele><time>2026-03-28T14:30:16.008Z</time></trkpt><trkpt lat="44.73662923098621" lon="12.229202760665126"><ele>-1.0</ele><time>2026-03-28T14:30:17.008Z</time></trkpt><trkpt lat="44.73685955325867" lon="12.229301420850176"><ele>-1.0</ele><time>2026-03-28T14:30:18.008Z</time></trkpt><trkpt lat="44.737092605008314" lon="12.229398681809991"><ele>-1.0</ele><time>2026-03-28T14:30:19.008Z</time></trkpt><trkpt lat="44.73732375987687" lon="12.229505628403645"><ele>-1.0</ele><time>2026-03-28T14:30:20.008Z</time></trkpt><trkpt lat="44.73756245638785" lon="12.229610605429796"><ele>-1.0</ele><time>2026-03-28T14:30:21.008Z</time></trkpt><trkpt lat="44.73780025606239" lon="12.229717262656278"><ele>-0.5</ele><time>2026-03-28T14:30:22.008Z</time></trkpt><trkpt lat="44.73804415389541" lon="12.229824259440168"><ele>0.0</ele><time>2026-03-28T14:30:23.008Z</time></trkpt><trkpt lat="44.738287400089646" lon="12.229935578429629"><ele>0.0</ele><time>2026-03-28T14:30:24.008Z</time></trkpt><trkpt lat="44.738538335246524" lon="12.230046029377744"><ele>0.0</ele><time>2026-03-28T14:30:25.008Z</time></trkpt><trkpt lat="44.73879411272976" lon="12.230155964790129"><ele>-0.5</ele><time>2026-03-28T14:30:26.008Z</time></trkpt><trkpt lat="44.73904190795482" lon="12.230252151355572"><ele>-1.0</ele><time>2026-03-28T14:30:27.008Z</time></trkpt><trkpt lat="44.73927324237556" lon="12.230355439578021"><ele>-1.0</ele><time>2026-03-28T14:30:28.007Z</time></trkpt><trkpt lat="44.73947824292658" lon="12.230447644899675"><ele>-1.0</ele><time>2026-03-28T14:30:29.007Z</time></trkpt><trkpt lat="44.7396662248436" lon="12.230533311820594"><ele>-1.0</ele><time>2026-03-28T14:30:30.007Z</time></trkpt><trkpt lat="44.73985237900999" lon="12.230624611585212"><ele>-1.3333333333333333</ele><time>2026-03-28T14:30:31.007Z</time></trkpt><trkpt lat="44.740051674751946" lon="12.230725674764779"><ele>-1.6666666666666665</ele><time>2026-03-28T14:30:32.007Z</time></trkpt><trkpt lat="44.74026305412006" lon="12.230852941452211"><ele>-2.0</ele><time>2026-03-28T14:30:33.007Z</time></trkpt><trkpt lat="44.7404888959414" lon="12.230991716576195"><ele>-2.0</ele><time>2026-03-28T14:30:34.007Z</time></trkpt><trkpt lat="44.74071980755428" lon="12.23114464970846"><ele>-2.0</ele><time>2026-03-28T14:30:35.007Z</time></trkpt><trkpt lat="44.74095617967393" lon="12.23130974198531"><ele>-1.0</ele><time>2026-03-28T14:30:36.007Z</time></trkpt><trkpt lat="44.74119375232022" lon="12.231485167812123"><ele>0.0</ele><time>2026-03-28T14:30:37.007Z</time></trkpt><trkpt lat="44.741432492642765" lon="12.231655927688784"><ele>0.0</ele><time>2026-03-28T14:30:38.007Z</time></trkpt><trkpt lat="44.741671729257" lon="12.23182541769385"><ele>0.0</ele><time>2026-03-28T14:30:39.007Z</time></trkpt><trkpt lat="44.74191109334677" lon="12.231991703209548"><ele>0.5</ele><time>2026-03-28T14:30:40.007Z</time></trkpt><trkpt lat="44.74215071111555" lon="12.232162984536028"><ele>1.0</ele><time>2026-03-28T14:30:41.007Z</time></trkpt><trkpt lat="44.742404300691454" lon="12.232324455841937"><ele>1.0</ele><time>2026-03-28T14:30:42.007Z</time></trkpt><trkpt lat="44.74264744168942" lon="12.232493421531"><ele>1.0</ele><time>2026-03-28T14:30:43.007Z</time></trkpt><trkpt lat="44.74288436887884" lon="12.23266576117317"><ele>-0.5</ele><time>2026-03-28T14:30:44.007Z</time></trkpt><trkpt lat="44.743128414855335" lon="12.23282638879635"><ele>-2.0</ele><time>2026-03-28T14:30:45.007Z</time></trkpt><trkpt lat="44.74336816325095" lon="12.232988960122546"><ele>-1.5</ele><time>2026-03-28T14:30:46.007Z</time></trkpt><trkpt lat="44.74360716689683" lon="12.233154667048613"><ele>-1.0</ele><time>2026-03-28T14:30:47.007Z</time></trkpt><trkpt lat="44.74384762621982" lon="12.23332056654228"><ele>-1.0</ele><time>2026-03-28T14:30:48.007Z</time></trkpt><trkpt lat="44.74409194440854" lon="12.23348671378943"><ele>-1.0</ele><time>2026-03-28T14:30:49.007Z</time></trkpt><trkpt lat="44.7443432517164" lon="12.233651695419464"><ele>-1.5</ele><time>2026-03-28T14:30:50.007Z</time></trkpt><trkpt lat="44.744585997213065" lon="12.233824865622326"><ele>-2.0</ele><time>2026-03-28T14:30:51.007Z</time></trkpt><trkpt lat="44.74483341770238" lon="12.23398723586557"><ele>-2.0</ele><time>2026-03-28T14:30:52.007Z</time></trkpt><trkpt lat="44.745079581626186" lon="12.23415937955479"><ele>-2.0</ele><time>2026-03-28T14:30:53.007Z</time></trkpt><trkpt lat="44.74532505700132" lon="12.234330537327295"><ele>-2.0</ele><time>2026-03-28T14:30:54.007Z</time></trkpt><trkpt lat="44.74557235547848" lon="12.234501485392876"><ele>-2.0</ele><time>2026-03-28T14:30:55.007Z</time></trkpt><trkpt lat="44.74580783108851" lon="12.234674847308627"><ele>-2.0</ele><time>2026-03-28T14:30:56.007Z</time></trkpt><trkpt lat="44.746046868578226" lon="12.23483885811178"><ele>-2.0</ele><time>2026-03-28T14:30:57.007Z</time></trkpt><trkpt lat="44.74627517515175" lon="12.234996965184724"><ele>-2.0</ele><time>2026-03-28T14:30:58.007Z</time></trkpt><trkpt lat="44.74649491819432" lon="12.23515132370261"><ele>-2.0</ele><time>2026-03-28T14:30:59.007Z</time></trkpt><trkpt lat="44.74669941466767" lon="12.235298877251386"><ele>-2.0</ele><time>2026-03-28T14:31:00.007Z</time></trkpt><trkpt lat="44.746908798617724" lon="12.235441192849459"><ele>-2.0</ele><time>2026-03-28T14:31:01.007Z</time></trkpt><trkpt lat="44.747108164371234" lon="12.235582777823334"><ele>-1.0</ele><time>2026-03-28T14:31:02.007Z</time></trkpt><trkpt lat="44.747306094334434" lon="12.235718461764543"><ele>0.0</ele><time>2026-03-28T14:31:03.007Z</time></trkpt><trkpt lat="44.747508221534964" lon="12.235850804964214"><ele>1.0</ele><time>2026-03-28T14:31:04.007Z</time></trkpt><trkpt lat="44.74770655183416" lon="12.23598280633573"><ele>-0.5</ele><time>2026-03-28T14:31:05.007Z</time></trkpt><trkpt lat="44.747915568442174" lon="12.23612701377205"><ele>-2.0</ele><time>2026-03-28T14:31:06.007Z</time></trkpt><trkpt lat="44.748122526262385" lon="12.236274592333093"><ele>-2.0</ele><time>2026-03-28T14:31:07.007Z</time></trkpt><trkpt lat="44.748334791449025" lon="12.23640472924671"><ele>-2.0</ele><time>2026-03-28T14:31:08.007Z</time></trkpt><trkpt lat="44.74853281419885" lon="12.236538974244535"><ele>-1.3333333333333333</ele><time>2026-03-28T14:31:09.007Z</time></trkpt><trkpt lat="44.74872362969785" lon="12.236664286593687"><ele>-0.6666666666666666</ele><time>2026-03-28T14:31:10.007Z</time></trkpt><trkpt lat="44.74888839086431" lon="12.236773808421198"><ele>0.0</ele><time>2026-03-28T14:31:11.007Z</time></trkpt><trkpt lat="44.74904632761214" lon="12.236891604228155"><ele>0.0</ele><time>2026-03-28T14:31:12.007Z</time></trkpt><trkpt lat="44.749203591024184" lon="12.236992206051006"><ele>0.0</ele><time>2026-03-28T14:31:13.007Z</time></trkpt><trkpt lat="44.7493660146068" lon="12.237074752596806"><ele>0.0</ele><time>2026-03-28T14:31:14.007Z</time></trkpt><trkpt lat="44.749517644396555" lon="12.23712975850526"><ele>0.0</ele><time>2026-03-28T14:31:15.007Z</time></trkpt><trkpt lat="44.74966536213484" lon="12.237161096781268"><ele>0.0</ele><time>2026-03-28T14:31:16.007Z</time></trkpt><trkpt lat="44.749840617277435" lon="12.237165526535696"><ele>0.0</ele><time>2026-03-28T14:31:17.007Z</time></trkpt><trkpt lat="44.750014970726774" lon="12.2371352561722"><ele>0.0</ele><time>2026-03-28T14:31:18.007Z</time></trkpt><trkpt lat="44.75018584749954" lon="12.237070791897535"><ele>0.0</ele><time>2026-03-28T14:31:19.009Z</time></trkpt><trkpt lat="44.7503613856888" lon="12.23698330842933"><ele>0.0</ele><time>2026-03-28T14:31:20.009Z</time></trkpt><trkpt lat="44.75052312978468" lon="12.236853550000838"><ele>0.3333333333333333</ele><time>2026-03-28T14:31:21.009Z</time></trkpt><trkpt lat="44.75067302784504" lon="12.236696410946037"><ele>0.6666666666666666</ele><time>2026-03-28T14:31:22.008Z</time></trkpt><trkpt lat="44.75080946206504" lon="12.236499632574743"><ele>1.0</ele><time>2026-03-28T14:31:23.009Z</time></trkpt><trkpt lat="44.75093551421147" lon="12.236259127105056"><ele>1.0</ele><time>2026-03-28T14:31:24.009Z</time></trkpt><trkpt lat="44.75105775629759" lon="12.23599265517391"><ele>1.0</ele><time>2026-03-28T14:31:25.009Z</time></trkpt><trkpt lat="44.75118780401675" lon="12.235710082819176"><ele>0.0</ele><time>2026-03-28T14:31:26.009Z</time></trkpt><trkpt lat="44.751323288294174" lon="12.235419691519196"><ele>-1.0</ele><time>2026-03-28T14:31:27.009Z</time></trkpt><trkpt lat="44.75146700892586" lon="12.235115618325972"><ele>-1.0</ele><time>2026-03-28T14:31:28.009Z</time></trkpt><trkpt lat="44.751607141059495" lon="12.234804541341948"><ele>-1.0</ele><time>2026-03-28T14:31:29.009Z</time></trkpt><trkpt lat="44.751755248258206" lon="12.234482420484122"><ele>-0.5</ele><time>2026-03-28T14:31:30.009Z</time></trkpt><trkpt lat="44.751905306193265" lon="12.2341593409133"><ele>0.0</ele><time>2026-03-28T14:31:31.009Z</time></trkpt><trkpt lat="44.752055783761264" lon="12.233835127321992"><ele>0.0</ele><time>2026-03-28T14:31:32.009Z</time></trkpt><trkpt lat="44.75220835977816" lon="12.233507102344"><ele>0.0</ele><time>2026-03-28T14:31:33.009Z</time></trkpt><trkpt lat="44.75235382043139" lon="12.233187598210428"><ele>-0.5</ele><time>2026-03-28T14:31:34.009Z</time></trkpt><trkpt lat="44.75248730820116" lon="12.23286179228484"><ele>-1.0</ele><time>2026-03-28T14:31:35.009Z</time></trkpt><trkpt lat="44.752606857372164" lon="12.232543360019351"><ele>-0.5</ele><time>2026-03-28T14:31:36.009Z</time></trkpt><trkpt lat="44.752726683252" lon="12.23223786135371"><ele>0.0</ele><time>2026-03-28T14:31:37.009Z</time></trkpt><trkpt lat="44.75283899567184" lon="12.231930946125505"><ele>0.0</ele><time>2026-03-28T14:31:38.009Z</time></trkpt><trkpt lat="44.75294095351441" lon="12.231619958997433"><ele>0.0</ele><time>2026-03-28T14:31:39.009Z</time></trkpt><trkpt lat="44.75303996767993" lon="12.231307771480143"><ele>-0.5</ele><time>2026-03-28T14:31:40.009Z</time></trkpt><trkpt lat="44.75313955694232" lon="12.23101134971355"><ele>-1.0</ele><time>2026-03-28T14:31:41.009Z</time></trkpt><trkpt lat="44.75323214301758" lon="12.23071916759819"><ele>-1.3333333333333333</ele><time>2026-03-28T14:31:42.009Z</time></trkpt><trkpt lat="44.7533237522455" lon="12.230431358684621"><ele>-1.6666666666666665</ele><time>2026-03-28T14:31:43.009Z</time></trkpt><trkpt lat="44.7534100503575" lon="12.230155000557389"><ele>-2.0</ele><time>2026-03-28T14:31:44.009Z</time></trkpt><trkpt lat="44.753497887756474" lon="12.229888086285268"><ele>-1.0</ele><time>2026-03-28T14:31:45.009Z</time></trkpt><trkpt lat="44.7535907698952" lon="12.229641624358203"><ele>0.0</ele><time>2026-03-28T14:31:46.008Z</time></trkpt><trkpt lat="44.7536946987838" lon="12.229423124695403"><ele>1.0</ele><time>2026-03-28T14:31:47.008Z</time></trkpt><trkpt lat="44.75381214938089" lon="12.229241857569463"><ele>1.0</ele><time>2026-03-28T14:31:48.008Z</time></trkpt><trkpt lat="44.75394624423306" lon="12.22906614657824"><ele>1.0</ele><time>2026-03-28T14:31:49.008Z</time></trkpt><trkpt lat="44.75410424179192" lon="12.22892935076876"><ele>1.0</ele><time>2026-03-28T14:31:50.008Z</time></trkpt><trkpt lat="44.754281914830834" lon="12.228823173043699"><ele>1.3333333333333333</ele><time>2026-03-28T14:31:51.008Z</time></trkpt><trkpt lat="44.75446718427042" lon="12.228740715026097"><ele>1.6666666666666665</ele><time>2026-03-28T14:31:52.008Z</time></trkpt><trkpt lat="44.75465813902702" lon="12.228699581090403"><ele>2.0</ele><time>2026-03-28T14:31:53.008Z</time></trkpt><trkpt lat="44.75485702332669" lon="12.228712491882058"><ele>2.0</ele><time>2026-03-28T14:31:54.008Z</time></trkpt><trkpt lat="44.75506150740437" lon="12.228758705904335"><ele>2.0</ele><time>2026-03-28T14:31:55.008Z</time></trkpt><trkpt lat="44.755272690140245" lon="12.228844592731704"><ele>2.0</ele><time>2026-03-28T14:31:56.008Z</time></trkpt><trkpt lat="44.75547981340488" lon="12.228938188040578"><ele>2.0</ele><time>2026-03-28T14:31:57.008Z</time></trkpt><trkpt lat="44.75568697926982" lon="12.229034251630232"><ele>2.0</ele><time>2026-03-28T14:31:58.008Z</time></trkpt><trkpt lat="44.7558990191461" lon="12.229122821870565"><ele>2.0</ele><time>2026-03-28T14:31:59.008Z</time></trkpt><trkpt lat="44.75610795077365" lon="12.229209836464639"><ele>2.0</ele><time>2026-03-28T14:32:00.008Z</time></trkpt><trkpt lat="44.75630788684355" lon="12.229287939672144"><ele>2.0</ele><time>2026-03-28T14:32:01.008Z</time></trkpt><trkpt lat="44.756494087658744" lon="12.229366998722572"><ele>2.0</ele><time>2026-03-28T14:32:02.008Z</time></trkpt><trkpt lat="44.756673971344014" lon="12.229447308275496"><ele>2.0</ele><time>2026-03-28T14:32:03.008Z</time></trkpt><trkpt lat="44.75684585405908" lon="12.229526904639963"><ele>2.0</ele><time>2026-03-28T14:32:04.008Z</time></trkpt><trkpt lat="44.75701496518213" lon="12.2296007833479"><ele>2.0</ele><time>2026-03-28T14:32:05.008Z</time></trkpt><trkpt lat="44.75717563123215" lon="12.229670739660781"><ele>1.75</ele><time>2026-03-28T14:32:06.008Z</time></trkpt><trkpt lat="44.757326741145064" lon="12.22974143887269"><ele>1.5</ele><time>2026-03-28T14:32:07.008Z</time></trkpt><trkpt lat="44.75746424772421" lon="12.229810799599907"><ele>1.25</ele><time>2026-03-28T14:32:08.008Z</time></trkpt><trkpt lat="44.757589897437924" lon="12.229873954402246"><ele>1.0</ele><time>2026-03-28T14:32:09.008Z</time></trkpt><trkpt lat="44.75770535616522" lon="12.22993555780907"><ele>1.0</ele><time>2026-03-28T14:32:10.008Z</time></trkpt><trkpt lat="44.75781821425953" lon="12.229980015201841"><ele>1.0</ele><time>2026-03-28T14:32:11.008Z</time></trkpt><trkpt lat="44.757918788876175" lon="12.230018550688028"><ele>1.0</ele><time>2026-03-28T14:32:12.008Z</time></trkpt><trkpt lat="44.75800647127075" lon="12.230050553103032"><ele>1.0</ele><time>2026-03-28T14:32:13.008Z</time></trkpt><trkpt lat="44.758089350714755" lon="12.230086975008943"><ele>1.0</ele><time>2026-03-28T14:32:14.008Z</time></trkpt><trkpt lat="44.75815760396412" lon="12.230129923391814"><ele>0.9999999999999999</ele><time>2026-03-28T14:32:15.008Z</time></trkpt><trkpt lat="44.758212093453515" lon="12.230182034723223"><ele>1.0</ele><time>2026-03-28T14:32:16.008Z</time></trkpt><trkpt lat="44.7582744351469" lon="12.230328312792093"><ele>1.0</ele><time>2026-03-28T14:32:18.008Z</time></trkpt><trkpt lat="44.758268467808904" lon="12.230425809651617"><ele>1.0</ele><time>2026-03-28T14:32:19.008Z</time></trkpt><trkpt lat="44.75824494924321" lon="12.23051330276623"><ele>0.9999999999999999</ele><time>2026-03-28T14:32:20.008Z</time></trkpt><trkpt lat="44.75819163725517" lon="12.230578937881841"><ele>1.0</ele><time>2026-03-28T14:32:21.008Z</time></trkpt><trkpt lat="44.758148318885894" lon="12.23067954381794"><ele>1.0</ele><time>2026-03-28T14:32:22.008Z</time></trkpt><trkpt lat="44.757996939588864" lon="12.230652142875035"><ele>1.0</ele><time>2026-03-28T14:32:23.008Z</time></trkpt><trkpt lat="44.75788038158876" lon="12.230666462535293"><ele>1.0</ele><time>2026-03-28T14:32:24.008Z</time></trkpt><trkpt lat="44.7577491596243" lon="12.23067780856418"><ele>1.0</ele><time>2026-03-28T14:32:25.008Z</time></trkpt><trkpt lat="44.75761717943469" lon="12.230636381864022"><ele>1.0</ele><time>2026-03-28T14:32:26.008Z</time></trkpt><trkpt lat="44.75747841117419" lon="12.230590502064203"><ele>1.0</ele><time>2026-03-28T14:32:27.008Z</time></trkpt><trkpt lat="44.75733914367777" lon="12.230554003461299"><ele>1.0</ele><time>2026-03-28T14:32:28.008Z</time></trkpt><trkpt lat="44.757202233156974" lon="12.230541393399093"><ele>1.0</ele><time>2026-03-28T14:32:29.008Z</time></trkpt><trkpt lat="44.75707528343003" lon="12.230525725688894"><ele>1.0</ele><time>2026-03-28T14:32:30.008Z</time></trkpt><trkpt lat="44.756962769021904" lon="12.230510825098294"><ele>1.0</ele><time>2026-03-28T14:32:31.008Z</time></trkpt><trkpt lat="44.7568546002281" lon="12.230514095300242"><ele>1.0</ele><time>2026-03-28T14:32:32.008Z</time></trkpt><trkpt lat="44.75676114570588" lon="12.230523550251592"><ele>1.0</ele><time>2026-03-28T14:32:33.008Z</time></trkpt><trkpt lat="44.75666631269581" lon="12.230542175586304"><ele>1.0</ele><time>2026-03-28T14:32:34.008Z</time></trkpt><trkpt lat="44.75657423776154" lon="12.230564253892366"><ele>0.8</ele><time>2026-03-28T14:32:35.008Z</time></trkpt><trkpt lat="44.75647833916336" lon="12.230594933716366"><ele>0.6000000000000001</ele><time>2026-03-28T14:32:36.008Z</time></trkpt><trkpt lat="44.75638835059448" lon="12.230642258144696"><ele>0.4</ele><time>2026-03-28T14:32:37.008Z</time></trkpt><trkpt lat="44.75629694217907" lon="12.230704510020752"><ele>0.2</ele><time>2026-03-28T14:32:38.008Z</time></trkpt><trkpt lat="44.75620944743552" lon="12.230769804833356"><ele>0.0</ele><time>2026-03-28T14:32:39.008Z</time></trkpt><trkpt lat="44.75612165780808" lon="12.230846527646122"><ele>0.0</ele><time>2026-03-28T14:32:40.008Z</time></trkpt><trkpt lat="44.75604069715783" lon="12.230935316577247"><ele>0.0</ele><time>2026-03-28T14:32:41.008Z</time></trkpt><trkpt lat="44.75596937092469" lon="12.231026219199808"><ele>0.0</ele><time>2026-03-28T14:32:42.008Z</time></trkpt><trkpt lat="44.75590727163222" lon="12.23111170802193"><ele>0.0</ele><time>2026-03-28T14:32:43.008Z</time></trkpt><trkpt lat="44.75584712107764" lon="12.231188678565251"><ele>0.0</ele><time>2026-03-28T14:32:44.008Z</time></trkpt><trkpt lat="44.755799969518264" lon="12.23125703114642"><ele>0.0</ele><time>2026-03-28T14:32:45.008Z</time></trkpt><trkpt lat="44.755757328885146" lon="12.231356629595654"><ele>0.2</ele><time>2026-03-28T14:32:47.008Z</time></trkpt><trkpt lat="44.755718532967904" lon="12.23143067228742"><ele>0.4</ele><time>2026-03-28T14:32:50.008Z</time></trkpt><trkpt lat="44.755670851791905" lon="12.231513810340996"><ele>0.6000000000000001</ele><time>2026-03-28T14:32:53.008Z</time></trkpt><trkpt lat="44.755622432906115" lon="12.231619218742367"><ele>0.8</ele><time>2026-03-28T14:32:56.008Z</time></trkpt><trkpt lat="44.75555076162193" lon="12.23174412156886"><ele>1.0</ele><time>2026-03-28T14:32:58.008Z</time></trkpt><trkpt lat="44.755482682814325" lon="12.231901326927172"><ele>1.0</ele><time>2026-03-28T14:33:00.008Z</time></trkpt><trkpt lat="44.75544467286344" lon="12.231986856269106"><ele>1.0</ele><time>2026-03-28T14:33:01.008Z</time></trkpt><trkpt lat="44.755380615930825" lon="12.23212615320943"><ele>1.0</ele><time>2026-03-28T14:33:03.008Z</time></trkpt><trkpt lat="44.755326127255046" lon="12.232288508626867"><ele>1.0</ele><time>2026-03-28T14:33:05.008Z</time></trkpt><trkpt lat="44.75529745793198" lon="12.232387099412874"><ele>1.0</ele><time>2026-03-28T14:33:06.008Z</time></trkpt><trkpt lat="44.755247438290866" lon="12.23246170960819"><ele>1.0</ele><time>2026-03-28T14:33:07.008Z</time></trkpt><trkpt lat="44.75521144609485" lon="12.232547872321746"><ele>1.0</ele><time>2026-03-28T14:33:08.008Z</time></trkpt><trkpt lat="44.7551730703483" lon="12.232639741100487"><ele>1.0</ele><time>2026-03-28T14:33:09.008Z</time></trkpt><trkpt lat="44.75511710064461" lon="12.232773728560822"><ele>1.0</ele><time>2026-03-28T14:33:11.008Z</time></trkpt><trkpt lat="44.755224316846814" lon="12.232925607572474"><ele>1.0</ele><time>2026-03-28T14:33:14.008Z</time></trkpt><trkpt lat="44.755287563946716" lon="12.232895034565523"><ele>0.6000000000000001</ele><time>2026-03-28T14:33:16.008Z</time></trkpt><trkpt lat="44.75530756721762" lon="12.232979772591936"><ele>0.20000000000000007</ele><time>2026-03-28T14:33:18.008Z</time></trkpt><trkpt lat="44.75535735727026" lon="12.232732452273499"><ele>-0.20000000000000007</ele><time>2026-03-28T14:33:20.008Z</time></trkpt><trkpt lat="44.755409055647064" lon="12.232646345236724"><ele>-0.6000000000000001</ele><time>2026-03-28T14:33:23.008Z</time></trkpt><trkpt lat="44.75552105363822" lon="12.232712243845544"><ele>-1.0</ele><time>2026-03-28T14:36:30.009Z</time></trkpt><trkpt lat="44.7555757107152" lon="12.23277258268866"><ele>-1.0</ele><time>2026-03-28T14:36:38.009Z</time></trkpt><trkpt lat="44.75555244363882" lon="12.232928488867826"><ele>-1.0</ele><time>2026-03-28T14:36:40.009Z</time></trkpt><trkpt lat="44.755460957711286" lon="12.23303730280137"><ele>-1.0</ele><time>2026-03-28T14:36:42.009Z</time></trkpt><trkpt lat="44.75534603526807" lon="12.233046243775831"><ele>-1.0</ele><time>2026-03-28T14:36:44.009Z</time></trkpt><trkpt lat="44.75527413793128" lon="12.232926037326008"><ele>-0.9999999999999999</ele><time>2026-03-28T14:36:46.009Z</time></trkpt><trkpt lat="44.755211179314244" lon="12.232886677408901"><ele>-1.0</ele><time>2026-03-28T14:36:48.009Z</time></trkpt><trkpt lat="44.75515056715292" lon="12.23283641177085"><ele>-1.0</ele><time>2026-03-28T14:36:56.009Z</time></trkpt><trkpt lat="44.75519169281152" lon="12.2326761533889"><ele>-1.0</ele><time>2026-03-28T14:36:58.009Z</time></trkpt><trkpt lat="44.75522925082056" lon="12.232583869410654"><ele>-0.9999999999999999</ele><time>2026-03-28T14:36:59.009Z</time></trkpt><trkpt lat="44.755262950458345" lon="12.232480969115459"><ele>-1.0</ele><time>2026-03-28T14:37:00.009Z</time></trkpt><trkpt lat="44.755308520938414" lon="12.232373358962462"><ele>-0.6000000000000001</ele><time>2026-03-28T14:37:01.009Z</time></trkpt><trkpt lat="44.75535305048198" lon="12.232279422826762"><ele>-0.20000000000000007</ele><time>2026-03-28T14:37:02.009Z</time></trkpt><trkpt lat="44.75539512846401" lon="12.232163912065433"><ele>0.20000000000000007</ele><time>2026-03-28T14:37:03.009Z</time></trkpt><trkpt lat="44.75545817501034" lon="12.232052593371058"><ele>0.6000000000000001</ele><time>2026-03-28T14:37:04.009Z</time></trkpt><trkpt lat="44.75551025918147" lon="12.231930314074237"><ele>1.0</ele><time>2026-03-28T14:37:05.009Z</time></trkpt><trkpt lat="44.75555806486943" lon="12.231818079486423"><ele>1.0</ele><time>2026-03-28T14:37:06.009Z</time></trkpt><trkpt lat="44.75561214191008" lon="12.231697039869207"><ele>1.0</ele><time>2026-03-28T14:37:07.009Z</time></trkpt><trkpt lat="44.755663388682734" lon="12.231583310574578"><ele>1.0</ele><time>2026-03-28T14:37:08.009Z</time></trkpt><trkpt lat="44.75571977747229" lon="12.231473060088412"><ele>1.0</ele><time>2026-03-28T14:37:09.009Z</time></trkpt><trkpt lat="44.75578452022953" lon="12.231347171776688"><ele>1.0</ele><time>2026-03-28T14:37:10.009Z</time></trkpt><trkpt lat="44.75586749811986" lon="12.231231041747986"><ele>1.0</ele><time>2026-03-28T14:37:11.009Z</time></trkpt><trkpt lat="44.75596218672179" lon="12.231109329102827"><ele>1.0</ele><time>2026-03-28T14:37:12.009Z</time></trkpt><trkpt lat="44.756073067476905" lon="12.230986290904706"><ele>1.0</ele><time>2026-03-28T14:37:13.009Z</time></trkpt><trkpt lat="44.756190816619245" lon="12.230874757951625"><ele>1.0</ele><time>2026-03-28T14:37:14.009Z</time></trkpt><trkpt lat="44.756331533267456" lon="12.230765370434623"><ele>1.0</ele><time>2026-03-28T14:37:15.009Z</time></trkpt><trkpt lat="44.75646795007614" lon="12.23066967253323"><ele>1.0</ele><time>2026-03-28T14:37:16.009Z</time></trkpt><trkpt lat="44.75661322012833" lon="12.230627702649945"><ele>1.0</ele><time>2026-03-28T14:37:17.009Z</time></trkpt><trkpt lat="44.75674849605897" lon="12.230590905874125"><ele>1.0</ele><time>2026-03-28T14:37:18.009Z</time></trkpt><trkpt lat="44.756883725625556" lon="12.230567179474615"><ele>1.0</ele><time>2026-03-28T14:37:19.009Z</time></trkpt><trkpt lat="44.75702637996847" lon="12.23055886477356"><ele>1.0</ele><time>2026-03-28T14:37:20.009Z</time></trkpt><trkpt lat="44.757183323435676" lon="12.230548590809779"><ele>1.0</ele><time>2026-03-28T14:37:21.009Z</time></trkpt><trkpt lat="44.75734476318389" lon="12.230584074533743"><ele>1.0</ele><time>2026-03-28T14:37:22.009Z</time></trkpt><trkpt lat="44.75750355161196" lon="12.230624757136296"><ele>1.0</ele><time>2026-03-28T14:37:23.009Z</time></trkpt><trkpt lat="44.75764581075532" lon="12.230691466809848"><ele>1.0</ele><time>2026-03-28T14:37:24.009Z</time></trkpt><trkpt lat="44.75779516293129" lon="12.230709700016641"><ele>1.0</ele><time>2026-03-28T14:37:25.009Z</time></trkpt><trkpt lat="44.7579369107735" lon="12.230671015921526"><ele>1.0</ele><time>2026-03-28T14:37:26.009Z</time></trkpt><trkpt lat="44.75805782700406" lon="12.230660546977544"><ele>1.0</ele><time>2026-03-28T14:37:27.009Z</time></trkpt><trkpt lat="44.75815811359213" lon="12.2306541585771"><ele>1.0</ele><time>2026-03-28T14:37:28.009Z</time></trkpt><trkpt lat="44.75825038735208" lon="12.230624174776397"><ele>1.0</ele><time>2026-03-28T14:37:29.009Z</time></trkpt><trkpt lat="44.75832076336744" lon="12.23059054176221"><ele>0.9999999999999999</ele><time>2026-03-28T14:37:30.009Z</time></trkpt><trkpt lat="44.758389712162746" lon="12.230546753001715"><ele>1.0</ele><time>2026-03-28T14:37:31.009Z</time></trkpt><trkpt lat="44.758444340975636" lon="12.23049394080839"><ele>1.0</ele><time>2026-03-28T14:37:32.009Z</time></trkpt><trkpt lat="44.75850802844465" lon="12.230494436980344"><ele>0.9999999999999999</ele><time>2026-03-28T14:37:33.009Z</time></trkpt><trkpt lat="44.758511181942545" lon="12.23039926021854"><ele>1.0</ele><time>2026-03-28T14:37:34.009Z</time></trkpt><trkpt lat="44.758544552537536" lon="12.230270781504975"><ele>1.0</ele><time>2026-03-28T14:37:37.01Z</time></trkpt><trkpt lat="44.75857455790034" lon="12.230175295167488"><ele>1.0</ele><time>2026-03-28T14:37:38.009Z</time></trkpt><trkpt lat="44.75861658827978" lon="12.230052201985913"><ele>1.0</ele><time>2026-03-28T14:37:39.009Z</time></trkpt><trkpt lat="44.75864462945861" lon="12.229920094468099"><ele>1.0</ele><time>2026-03-28T14:37:40.01Z</time></trkpt><trkpt lat="44.75868660065676" lon="12.229803052786137"><ele>1.0</ele><time>2026-03-28T14:37:41.01Z</time></trkpt><trkpt lat="44.75873274469086" lon="12.22966941032549"><ele>1.0</ele><time>2026-03-28T14:37:42.01Z</time></trkpt><trkpt lat="44.7587772578699" lon="12.229518879067301"><ele>1.0</ele><time>2026-03-28T14:37:43.009Z</time></trkpt><trkpt lat="44.75883634631362" lon="12.22938000543895"><ele>1.0</ele><time>2026-03-28T14:37:44.01Z</time></trkpt><trkpt lat="44.75888326016142" lon="12.229229798009422"><ele>1.0</ele><time>2026-03-28T14:37:45.01Z</time></trkpt><trkpt lat="44.7589320950834" lon="12.229071171931144"><ele>1.0</ele><time>2026-03-28T14:37:46.01Z</time></trkpt><trkpt lat="44.758984785932" lon="12.22890258822753"><ele>1.0</ele><time>2026-03-28T14:37:47.009Z</time></trkpt><trkpt lat="44.75904047989912" lon="12.228724490288968"><ele>1.0</ele><time>2026-03-28T14:37:48.009Z</time></trkpt><trkpt lat="44.75908394085424" lon="12.228531407604065"><ele>1.0</ele><time>2026-03-28T14:37:49.009Z</time></trkpt><trkpt lat="44.759158852595654" lon="12.228336235880242"><ele>1.0</ele><time>2026-03-28T14:37:50.01Z</time></trkpt><trkpt lat="44.75922853250159" lon="12.228129903943206"><ele>-0.33333333333333337</ele><time>2026-03-28T14:37:51.01Z</time></trkpt><trkpt lat="44.75929366796635" lon="12.227919667275971"><ele>-1.6666666666666667</ele><time>2026-03-28T14:37:52.01Z</time></trkpt><trkpt lat="44.7593560537634" lon="12.227708298125"><ele>-3.0</ele><time>2026-03-28T14:37:53.01Z</time></trkpt><trkpt lat="44.75942167247694" lon="12.22749125572453"><ele>-3.666666666666667</ele><time>2026-03-28T14:37:54.01Z</time></trkpt><trkpt lat="44.75948588381784" lon="12.22728444991827"><ele>-4.333333333333334</ele><time>2026-03-28T14:37:55.01Z</time></trkpt><trkpt lat="44.7595447754145" lon="12.227090634935582"><ele>-5.0</ele><time>2026-03-28T14:37:56.01Z</time></trkpt><trkpt lat="44.75960454716853" lon="12.226906340592622"><ele>-5.0</ele><time>2026-03-28T14:37:57.01Z</time></trkpt><trkpt lat="44.75966349399161" lon="12.2267256189194"><ele>-5.0</ele><time>2026-03-28T14:37:58.01Z</time></trkpt><trkpt lat="44.75971925000125" lon="12.22654900578608"><ele>-5.0</ele><time>2026-03-28T14:37:59.01Z</time></trkpt><trkpt lat="44.75977206870759" lon="12.226359102792545"><ele>-5.0</ele><time>2026-03-28T14:38:00.01Z</time></trkpt><trkpt lat="44.75981779105851" lon="12.226160647557586"><ele>-5.0</ele><time>2026-03-28T14:38:01.01Z</time></trkpt><trkpt lat="44.75984777124843" lon="12.225918975378365"><ele>-5.0</ele><time>2026-03-28T14:38:02.01Z</time></trkpt><trkpt lat="44.759838471956336" lon="12.225607087127928"><ele>-5.0</ele><time>2026-03-28T14:38:03.01Z</time></trkpt><trkpt lat="44.75983899527784" lon="12.225305505957774"><ele>-4.333333333333334</ele><time>2026-03-28T14:38:04.01Z</time></trkpt><trkpt lat="44.75985357151013" lon="12.22501014595109"><ele>-3.666666666666667</ele><time>2026-03-28T14:38:05.01Z</time></trkpt><trkpt lat="44.759877562121154" lon="12.224742077739277"><ele>-3.0</ele><time>2026-03-28T14:38:06.01Z</time></trkpt><trkpt lat="44.75989919807656" lon="12.224489486841993"><ele>-3.0</ele><time>2026-03-28T14:38:07.01Z</time></trkpt><trkpt lat="44.75992095034073" lon="12.224247094095322"><ele>-3.0</ele><time>2026-03-28T14:38:08.01Z</time></trkpt><trkpt lat="44.75993867677458" lon="12.22402920905208"><ele>-3.0</ele><time>2026-03-28T14:38:09.01Z</time></trkpt><trkpt lat="44.75996633163485" lon="12.223832247421502"><ele>-2.6666666666666665</ele><time>2026-03-28T14:38:10.01Z</time></trkpt><trkpt lat="44.75996591855109" lon="12.223624955285791"><ele>-2.333333333333333</ele><time>2026-03-28T14:38:11.01Z</time></trkpt><trkpt lat="44.759992377073814" lon="12.223413258821315"><ele>-2.0</ele><time>2026-03-28T14:38:12.01Z</time></trkpt><trkpt lat="44.760006330228435" lon="12.223188796711927"><ele>-2.333333333333333</ele><time>2026-03-28T14:38:13.01Z</time></trkpt><trkpt lat="44.76002065430433" lon="12.222948916124297"><ele>-2.6666666666666665</ele><time>2026-03-28T14:38:14.01Z</time></trkpt><trkpt lat="44.76003605471982" lon="12.222689109517496"><ele>-3.0</ele><time>2026-03-28T14:38:15.01Z</time></trkpt><trkpt lat="44.76005209734276" lon="12.222418468909968"><ele>-2.6666666666666665</ele><time>2026-03-28T14:38:16.01Z</time></trkpt><trkpt lat="44.760068122359804" lon="12.22215188533471"><ele>-2.333333333333333</ele><time>2026-03-28T14:38:17.01Z</time></trkpt><trkpt lat="44.760067198251974" lon="12.221906371241205"><ele>-2.0</ele><time>2026-03-28T14:38:18.01Z</time></trkpt><trkpt lat="44.76009652076328" lon="12.221682479849534"><ele>-1.6666666666666665</ele><time>2026-03-28T14:38:19.01Z</time></trkpt><trkpt lat="44.76011030243632" lon="12.221456928113001"><ele>-1.3333333333333333</ele><time>2026-03-28T14:38:20.01Z</time></trkpt><trkpt lat="44.76010832491201" lon="12.221229723264432"><ele>-1.0</ele><time>2026-03-28T14:38:21.01Z</time></trkpt><trkpt lat="44.76012464124086" lon="12.220991357026106"><ele>-1.0</ele><time>2026-03-28T14:38:22.01Z</time></trkpt><trkpt lat="44.7601389412609" lon="12.220754018432386"><ele>-1.0</ele><time>2026-03-28T14:38:23.01Z</time></trkpt><trkpt lat="44.7601550433368" lon="12.220534491544434"><ele>-1.0</ele><time>2026-03-28T14:38:24.01Z</time></trkpt><trkpt lat="44.76016813274534" lon="12.220323998598513"><ele>-1.3333333333333333</ele><time>2026-03-28T14:38:25.01Z</time></trkpt><trkpt lat="44.76018243262252" lon="12.220106301274573"><ele>-1.6666666666666665</ele><time>2026-03-28T14:38:26.01Z</time></trkpt><trkpt lat="44.76019780594005" lon="12.219880892837718"><ele>-2.0</ele><time>2026-03-28T14:38:27.01Z</time></trkpt><trkpt lat="44.760211494573085" lon="12.21964337449559"><ele>-2.6666666666666665</ele><time>2026-03-28T14:38:28.01Z</time></trkpt><trkpt lat="44.76022364976714" lon="12.219395409631556"><ele>-3.333333333333333</ele><time>2026-03-28T14:38:29.01Z</time></trkpt><trkpt lat="44.76024425208075" lon="12.219134670924563"><ele>-4.0</ele><time>2026-03-28T14:38:30.01Z</time></trkpt><trkpt lat="44.760264471767215" lon="12.218863742364695"><ele>-4.0</ele><time>2026-03-28T14:38:31.01Z</time></trkpt><trkpt lat="44.760279613035785" lon="12.218607094889057"><ele>-4.0</ele><time>2026-03-28T14:38:32.01Z</time></trkpt><trkpt lat="44.760296581598766" lon="12.218371011928939"><ele>-4.0</ele><time>2026-03-28T14:38:33.01Z</time></trkpt><trkpt lat="44.760310604602566" lon="12.218140481141273"><ele>-4.0</ele><time>2026-03-28T14:38:34.009Z</time></trkpt><trkpt lat="44.760329169757924" lon="12.217912256118153"><ele>-4.0</ele><time>2026-03-28T14:38:35.009Z</time></trkpt><trkpt lat="44.76034241422209" lon="12.217679356032859"><ele>-4.0</ele><time>2026-03-28T14:38:36.009Z</time></trkpt><trkpt lat="44.76035743827264" lon="12.217439583574926"><ele>-3.6666666666666665</ele><time>2026-03-28T14:38:37.009Z</time></trkpt><trkpt lat="44.76037356922154" lon="12.217194619428312"><ele>-3.333333333333333</ele><time>2026-03-28T14:38:38.009Z</time></trkpt><trkpt lat="44.76039206297751" lon="12.216950845206284"><ele>-3.0</ele><time>2026-03-28T14:38:39.009Z</time></trkpt><trkpt lat="44.76040809847431" lon="12.216707295402829"><ele>-3.0</ele><time>2026-03-28T14:38:40.009Z</time></trkpt><trkpt lat="44.76042031598521" lon="12.216457930604262"><ele>-3.0</ele><time>2026-03-28T14:38:41.009Z</time></trkpt><trkpt lat="44.76043758576021" lon="12.216201968772216"><ele>-3.0</ele><time>2026-03-28T14:38:42.009Z</time></trkpt><trkpt lat="44.76045473804987" lon="12.21594457787027"><ele>-3.0</ele><time>2026-03-28T14:38:43.009Z</time></trkpt><trkpt lat="44.760471649508254" lon="12.21568015550921"><ele>-3.0</ele><time>2026-03-28T14:38:44.009Z</time></trkpt><trkpt lat="44.76048606055246" lon="12.215416210025206"><ele>-3.0</ele><time>2026-03-28T14:38:45.009Z</time></trkpt><trkpt lat="44.760500945889824" lon="12.215151121777822"><ele>-3.333333333333333</ele><time>2026-03-28T14:38:46.009Z</time></trkpt><trkpt lat="44.76051799879736" lon="12.214888832301005"><ele>-3.6666666666666665</ele><time>2026-03-28T14:38:47.009Z</time></trkpt><trkpt lat="44.76053567523048" lon="12.214632257111315"><ele>-4.0</ele><time>2026-03-28T14:38:48.009Z</time></trkpt><trkpt lat="44.76055239948647" lon="12.214383139090792"><ele>-4.0</ele><time>2026-03-28T14:38:49.009Z</time></trkpt><trkpt lat="44.76056774378612" lon="12.21413716055437"><ele>-4.0</ele><time>2026-03-28T14:38:50.009Z</time></trkpt><trkpt lat="44.760580497411404" lon="12.213889143101545"><ele>-4.0</ele><time>2026-03-28T14:38:51.009Z</time></trkpt><trkpt lat="44.760596549979205" lon="12.213640305278679"><ele>-3.6666666666666665</ele><time>2026-03-28T14:38:52.009Z</time></trkpt><trkpt lat="44.7606130295824" lon="12.213381799100773"><ele>-3.333333333333333</ele><time>2026-03-28T14:38:53.009Z</time></trkpt><trkpt lat="44.76063123214817" lon="12.213113563243956"><ele>-3.0</ele><time>2026-03-28T14:38:54.009Z</time></trkpt><trkpt lat="44.76064953226996" lon="12.212837070498468"><ele>-2.6666666666666665</ele><time>2026-03-28T14:38:55.009Z</time></trkpt><trkpt lat="44.76066658582993" lon="12.21255575320897"><ele>-2.333333333333333</ele><time>2026-03-28T14:38:56.009Z</time></trkpt><trkpt lat="44.760680438978305" lon="12.212275639991379"><ele>-2.0</ele><time>2026-03-28T14:38:57.009Z</time></trkpt><trkpt lat="44.76069600208301" lon="12.211997087541066"><ele>-2.0</ele><time>2026-03-28T14:38:58.009Z</time></trkpt><trkpt lat="44.76071261305451" lon="12.211730262850095"><ele>-2.0</ele><time>2026-03-28T14:38:59.009Z</time></trkpt><trkpt lat="44.76072987216737" lon="12.211469090515472"><ele>-2.0</ele><time>2026-03-28T14:39:00.009Z</time></trkpt><trkpt lat="44.76074337343354" lon="12.211210359592243"><ele>-1.6666666666666665</ele><time>2026-03-28T14:39:01.009Z</time></trkpt><trkpt lat="44.76076204190426" lon="12.210948967768005"><ele>-1.3333333333333333</ele><time>2026-03-28T14:39:02.009Z</time></trkpt><trkpt lat="44.76077801110769" lon="12.21068147080528"><ele>-1.0</ele><time>2026-03-28T14:39:03.009Z</time></trkpt><trkpt lat="44.76079563784494" lon="12.210406862626481"><ele>-1.0</ele><time>2026-03-28T14:39:04.009Z</time></trkpt><trkpt lat="44.76081273070383" lon="12.210120727417593"><ele>-1.0</ele><time>2026-03-28T14:39:05.009Z</time></trkpt><trkpt lat="44.76082901057281" lon="12.209822518217157"><ele>-1.0</ele><time>2026-03-28T14:39:06.009Z</time></trkpt><trkpt lat="44.76084733529935" lon="12.2095096151124"><ele>-1.5</ele><time>2026-03-28T14:39:07.009Z</time></trkpt><trkpt lat="44.76086941240652" lon="12.209190059864087"><ele>-2.0</ele><time>2026-03-28T14:39:08.009Z</time></trkpt><trkpt lat="44.76088865646932" lon="12.208875753538623"><ele>-2.333333333333333</ele><time>2026-03-28T14:39:09.009Z</time></trkpt><trkpt lat="44.76090584380857" lon="12.208568951749541"><ele>-2.6666666666666665</ele><time>2026-03-28T14:39:10.009Z</time></trkpt><trkpt lat="44.76093143527532" lon="12.208270151219994"><ele>-3.0</ele><time>2026-03-28T14:39:11.007Z</time></trkpt><trkpt lat="44.760949930650284" lon="12.207972271348096"><ele>-3.0</ele><time>2026-03-28T14:39:12.005Z</time></trkpt><trkpt lat="44.760969300248426" lon="12.207686100962365"><ele>-3.0</ele><time>2026-03-28T14:39:13.004Z</time></trkpt><trkpt lat="44.76098578876624" lon="12.207419874428023"><ele>-3.0</ele><time>2026-03-28T14:39:14.002Z</time></trkpt><trkpt lat="44.76100277216717" lon="12.207174924344406"><ele>-3.0</ele><time>2026-03-28T14:39:15.001Z</time></trkpt><trkpt lat="44.761018748082925" lon="12.206944352973487"><ele>-3.0</ele><time>2026-03-28T14:39:16Z</time></trkpt><trkpt lat="44.761038363154704" lon="12.206721549562436"><ele>-3.0</ele><time>2026-03-28T14:39:16.999Z</time></trkpt><trkpt lat="44.76105272241807" lon="12.206481330987254"><ele>-3.0</ele><time>2026-03-28T14:39:17.998Z</time></trkpt><trkpt lat="44.76106694234721" lon="12.206226988065058"><ele>-3.0</ele><time>2026-03-28T14:39:18.997Z</time></trkpt><trkpt lat="44.7610837793009" lon="12.205959745589634"><ele>-3.0</ele><time>2026-03-28T14:39:19.996Z</time></trkpt><trkpt lat="44.76109951819449" lon="12.205691890027174"><ele>-3.0</ele><time>2026-03-28T14:39:20.995Z</time></trkpt><trkpt lat="44.761114017061146" lon="12.205430398762221"><ele>-3.0</ele><time>2026-03-28T14:39:21.994Z</time></trkpt><trkpt lat="44.76112939026067" lon="12.205170878377082"><ele>-3.0</ele><time>2026-03-28T14:39:22.993Z</time></trkpt><trkpt lat="44.76114580884428" lon="12.204908858122899"><ele>-3.0</ele><time>2026-03-28T14:39:23.992Z</time></trkpt><trkpt lat="44.76116050631239" lon="12.204640554103632"><ele>-3.0</ele><time>2026-03-28T14:39:24.992Z</time></trkpt><trkpt lat="44.76117523989438" lon="12.204371183924993"><ele>-3.0</ele><time>2026-03-28T14:39:25.991Z</time></trkpt><trkpt lat="44.76119468507041" lon="12.204087710748801"><ele>-2.6666666666666665</ele><time>2026-03-28T14:39:26.99Z</time></trkpt><trkpt lat="44.7612118802054" lon="12.203797394719796"><ele>-2.333333333333333</ele><time>2026-03-28T14:39:27.99Z</time></trkpt><trkpt lat="44.76122912430173" lon="12.203506816856951"><ele>-2.0</ele><time>2026-03-28T14:39:28.989Z</time></trkpt><trkpt lat="44.76124834992094" lon="12.203216925565977"><ele>-2.333333333333333</ele><time>2026-03-28T14:39:29.989Z</time></trkpt><trkpt lat="44.76126481931962" lon="12.202932839274297"><ele>-2.6666666666666665</ele><time>2026-03-28T14:39:30.988Z</time></trkpt><trkpt lat="44.76128065656768" lon="12.202657402709427"><ele>-3.0</ele><time>2026-03-28T14:39:31.988Z</time></trkpt><trkpt lat="44.76129850977642" lon="12.202380260532816"><ele>-2.6666666666666665</ele><time>2026-03-28T14:39:32.987Z</time></trkpt><trkpt lat="44.76131463758527" lon="12.202099763936006"><ele>-2.333333333333333</ele><time>2026-03-28T14:39:33.987Z</time></trkpt><trkpt lat="44.76133108636382" lon="12.20181890366203"><ele>-2.0</ele><time>2026-03-28T14:39:34.987Z</time></trkpt><trkpt lat="44.761343933043975" lon="12.201538055665674"><ele>-2.333333333333333</ele><time>2026-03-28T14:39:35.986Z</time></trkpt><trkpt lat="44.761375690391205" lon="12.201269948866726"><ele>-2.6666666666666665</ele><time>2026-03-28T14:39:36.986Z</time></trkpt><trkpt lat="44.761391977525236" lon="12.20101014246595"><ele>-3.0</ele><time>2026-03-28T14:39:37.986Z</time></trkpt><trkpt lat="44.761408070294394" lon="12.20075343642229"><ele>-2.6666666666666665</ele><time>2026-03-28T14:39:38.985Z</time></trkpt><trkpt lat="44.76140877097195" lon="12.200495277178861"><ele>-2.333333333333333</ele><time>2026-03-28T14:39:39.985Z</time></trkpt><trkpt lat="44.76142590743268" lon="12.200236232022565"><ele>-2.0</ele><time>2026-03-28T14:39:40.985Z</time></trkpt><trkpt lat="44.76144229977268" lon="12.199970502476182"><ele>-1.6666666666666665</ele><time>2026-03-28T14:39:41.984Z</time></trkpt><trkpt lat="44.76145842833591" lon="12.199699508005166"><ele>-1.3333333333333333</ele><time>2026-03-28T14:39:42.985Z</time></trkpt><trkpt lat="44.761475289919126" lon="12.199443943397767"><ele>-1.0</ele><time>2026-03-28T14:39:43.985Z</time></trkpt><trkpt lat="44.76149186980668" lon="12.19921319075465"><ele>-1.3333333333333333</ele><time>2026-03-28T14:39:44.985Z</time></trkpt><trkpt lat="44.76150448745733" lon="12.198997030778393"><ele>-1.6666666666666665</ele><time>2026-03-28T14:39:45.985Z</time></trkpt><trkpt lat="44.76151632394259" lon="12.198786386542595"><ele>-2.0</ele><time>2026-03-28T14:39:46.985Z</time></trkpt><trkpt lat="44.761545264489094" lon="12.198566175031104"><ele>-2.0</ele><time>2026-03-28T14:39:47.985Z</time></trkpt><trkpt lat="44.76155985550484" lon="12.198334477125774"><ele>-2.0</ele><time>2026-03-28T14:39:48.984Z</time></trkpt><trkpt lat="44.76157508016174" lon="12.198092717215156"><ele>-2.0</ele><time>2026-03-28T14:39:49.984Z</time></trkpt><trkpt lat="44.76159124171883" lon="12.197836079973069"><ele>-2.0</ele><time>2026-03-28T14:39:50.984Z</time></trkpt><trkpt lat="44.76160809666825" lon="12.197568431864983"><ele>-2.0</ele><time>2026-03-28T14:39:51.984Z</time></trkpt><trkpt lat="44.76162573125026" lon="12.197288403687528"><ele>-2.0</ele><time>2026-03-28T14:39:52.983Z</time></trkpt><trkpt lat="44.76164390337925" lon="12.196999839452653"><ele>-2.0</ele><time>2026-03-28T14:39:53.983Z</time></trkpt><trkpt lat="44.761662387644826" lon="12.196706318666937"><ele>-2.0</ele><time>2026-03-28T14:39:54.984Z</time></trkpt><trkpt lat="44.76166494320496" lon="12.19641078720342"><ele>-2.0</ele><time>2026-03-28T14:39:55.983Z</time></trkpt><trkpt lat="44.76168589152034" lon="12.196114505355668"><ele>-2.0</ele><time>2026-03-28T14:39:56.983Z</time></trkpt><trkpt lat="44.76170443404659" lon="12.195820442947095"><ele>-2.0</ele><time>2026-03-28T14:39:57.983Z</time></trkpt><trkpt lat="44.76172260752659" lon="12.195541702981538"><ele>-2.0</ele><time>2026-03-28T14:39:58.983Z</time></trkpt><trkpt lat="44.761738397055645" lon="12.195275581394997"><ele>-2.0</ele><time>2026-03-28T14:39:59.983Z</time></trkpt><trkpt lat="44.76175282643601" lon="12.19501895917509"><ele>-2.0</ele><time>2026-03-28T14:40:00.983Z</time></trkpt><trkpt lat="44.76177044988083" lon="12.194779483377143"><ele>-2.0</ele><time>2026-03-28T14:40:01.983Z</time></trkpt><trkpt lat="44.76178411225882" lon="12.194557817278788"><ele>-2.0</ele><time>2026-03-28T14:40:02.983Z</time></trkpt><trkpt lat="44.76179702116819" lon="12.19434550763546"><ele>-2.0</ele><time>2026-03-28T14:40:03.983Z</time></trkpt><trkpt lat="44.761813863877386" lon="12.19412908511704"><ele>-2.0</ele><time>2026-03-28T14:40:04.983Z</time></trkpt><trkpt lat="44.761829009576395" lon="12.19390881112429"><ele>-2.0</ele><time>2026-03-28T14:40:05.982Z</time></trkpt><trkpt lat="44.76184072351291" lon="12.193680249204716"><ele>-2.0</ele><time>2026-03-28T14:40:06.982Z</time></trkpt><trkpt lat="44.761853917685656" lon="12.193467800027069"><ele>-2.0</ele><time>2026-03-28T14:40:07.982Z</time></trkpt><trkpt lat="44.76186445324805" lon="12.193275890581061"><ele>-1.8</ele><time>2026-03-28T14:40:08.982Z</time></trkpt><trkpt lat="44.76187256138885" lon="12.193106330707646"><ele>-1.6</ele><time>2026-03-28T14:40:09.982Z</time></trkpt><trkpt lat="44.7618844743559" lon="12.192965372677262"><ele>-1.4000000000000001</ele><time>2026-03-28T14:40:10.982Z</time></trkpt><trkpt lat="44.76189092784591" lon="12.192844308066281"><ele>-1.2000000000000002</ele><time>2026-03-28T14:40:11.982Z</time></trkpt><trkpt lat="44.76189728029927" lon="12.192746744015503"><ele>-1.0</ele><time>2026-03-28T14:40:12.982Z</time></trkpt><trkpt lat="44.76191022684099" lon="12.192600306229597"><ele>-1.0</ele><time>2026-03-28T14:40:14.982Z</time></trkpt><trkpt lat="44.76191087301179" lon="12.192504684525046"><ele>-1.0</ele><time>2026-03-28T14:40:17.982Z</time></trkpt><trkpt lat="44.7619078217551" lon="12.192399755668017"><ele>-1.0</ele><time>2026-03-28T14:40:24.982Z</time></trkpt><trkpt lat="44.761930953371746" lon="12.192261352899557"><ele>-1.0</ele><time>2026-03-28T14:40:26.982Z</time></trkpt><trkpt lat="44.76208775543291" lon="12.19214291364457"><ele>-1.0</ele><time>2026-03-28T14:40:28.981Z</time></trkpt><trkpt lat="44.762205043344515" lon="12.19208546710532"><ele>-0.3333333333333333</ele><time>2026-03-28T14:40:29.981Z</time></trkpt><trkpt lat="44.76234110178552" lon="12.192029498237721"><ele>0.3333333333333333</ele><time>2026-03-28T14:40:30.981Z</time></trkpt><trkpt lat="44.76249499766501" lon="12.191949684233277"><ele>1.0</ele><time>2026-03-28T14:40:31.981Z</time></trkpt><trkpt lat="44.76266265125933" lon="12.191863501403564"><ele>0.3333333333333333</ele><time>2026-03-28T14:40:32.981Z</time></trkpt><trkpt lat="44.76283987407237" lon="12.19177849525976"><ele>-0.3333333333333333</ele><time>2026-03-28T14:40:33.981Z</time></trkpt><trkpt lat="44.76303303749966" lon="12.191694365921498"><ele>-1.0</ele><time>2026-03-28T14:40:34.981Z</time></trkpt><trkpt lat="44.76323637072869" lon="12.191597123414304"><ele>-1.0</ele><time>2026-03-28T14:40:35.981Z</time></trkpt><trkpt lat="44.76344228150009" lon="12.191508585955155"><ele>-1.0</ele><time>2026-03-28T14:40:36.981Z</time></trkpt><trkpt lat="44.76364512066351" lon="12.19141279779957"><ele>-1.0</ele><time>2026-03-28T14:40:37.981Z</time></trkpt><trkpt lat="44.76385335720369" lon="12.191311453778649"><ele>-1.0</ele><time>2026-03-28T14:40:38.981Z</time></trkpt><trkpt lat="44.764063260521105" lon="12.191213375251984"><ele>-1.0</ele><time>2026-03-28T14:40:39.981Z</time></trkpt><trkpt lat="44.764260018894305" lon="12.191111946325444"><ele>-1.0</ele><time>2026-03-28T14:40:40.981Z</time></trkpt><trkpt lat="44.764451339622724" lon="12.191025595319665"><ele>-1.3333333333333333</ele><time>2026-03-28T14:40:41.981Z</time></trkpt><trkpt lat="44.76463245539501" lon="12.190939414201939"><ele>-1.6666666666666665</ele><time>2026-03-28T14:40:42.981Z</time></trkpt><trkpt lat="44.76480619414319" lon="12.190847761845578"><ele>-2.0</ele><time>2026-03-28T14:40:43.981Z</time></trkpt><trkpt lat="44.764973822452895" lon="12.190766455952762"><ele>-2.0</ele><time>2026-03-28T14:40:44.981Z</time></trkpt><trkpt lat="44.76513260248327" lon="12.190688771435031"><ele>-2.0</ele><time>2026-03-28T14:40:45.981Z</time></trkpt><trkpt lat="44.765288971058204" lon="12.190612117207069"><ele>-2.0</ele><time>2026-03-28T14:40:46.981Z</time></trkpt><trkpt lat="44.765446260057026" lon="12.190539689153605"><ele>-2.0</ele><time>2026-03-28T14:40:47.981Z</time></trkpt><trkpt lat="44.76560557286089" lon="12.19047102590154"><ele>-2.0</ele><time>2026-03-28T14:40:48.981Z</time></trkpt><trkpt lat="44.76576870207177" lon="12.19039631290615"><ele>-2.0</ele><time>2026-03-28T14:40:49.981Z</time></trkpt><trkpt lat="44.765952618428024" lon="12.190304203328065"><ele>-1.6666666666666665</ele><time>2026-03-28T14:40:50.981Z</time></trkpt><trkpt lat="44.766143388966775" lon="12.19020142809345"><ele>-1.3333333333333333</ele><time>2026-03-28T14:40:51.981Z</time></trkpt><trkpt lat="44.76634470799525" lon="12.190106702611184"><ele>-1.0</ele><time>2026-03-28T14:40:52.981Z</time></trkpt><trkpt lat="44.76656033632321" lon="12.190017940777134"><ele>-1.0</ele><time>2026-03-28T14:40:53.981Z</time></trkpt><trkpt lat="44.76678254882111" lon="12.189908266353942"><ele>-1.0</ele><time>2026-03-28T14:40:54.981Z</time></trkpt><trkpt lat="44.76698967445829" lon="12.18980689631248"><ele>-1.0</ele><time>2026-03-28T14:40:55.981Z</time></trkpt><trkpt lat="44.76718292952438" lon="12.18970773581555"><ele>-1.0</ele><time>2026-03-28T14:40:56.981Z</time></trkpt><trkpt lat="44.767380444179366" lon="12.189604707227318"><ele>-1.0</ele><time>2026-03-28T14:40:57.981Z</time></trkpt><trkpt lat="44.76757977913988" lon="12.189501521449353"><ele>-0.5</ele><time>2026-03-28T14:40:58.981Z</time></trkpt><trkpt lat="44.767797424869094" lon="12.18939280375107"><ele>0.0</ele><time>2026-03-28T14:40:59.981Z</time></trkpt><trkpt lat="44.768025890163536" lon="12.189293611851907"><ele>0.0</ele><time>2026-03-28T14:41:00.981Z</time></trkpt><trkpt lat="44.768258869553804" lon="12.189189938039945"><ele>0.0</ele><time>2026-03-28T14:41:01.981Z</time></trkpt><trkpt lat="44.76848834278777" lon="12.189076060682497"><ele>1.0</ele><time>2026-03-28T14:41:02.981Z</time></trkpt><trkpt lat="44.76871906300004" lon="12.188968473273718"><ele>2.0</ele><time>2026-03-28T14:41:03.981Z</time></trkpt><trkpt lat="44.7689310208822" lon="12.188865953445038"><ele>2.0</ele><time>2026-03-28T14:41:04.981Z</time></trkpt><trkpt lat="44.76913385544604" lon="12.18875777759292"><ele>2.0</ele><time>2026-03-28T14:41:05.981Z</time></trkpt><trkpt lat="44.76934428137395" lon="12.188647281853578"><ele>2.0</ele><time>2026-03-28T14:41:06.981Z</time></trkpt><trkpt lat="44.76954222722162" lon="12.188541353529487"><ele>1.3333333333333333</ele><time>2026-03-28T14:41:07.981Z</time></trkpt><trkpt lat="44.769735899097626" lon="12.18843900132764"><ele>0.6666666666666666</ele><time>2026-03-28T14:41:08.981Z</time></trkpt><trkpt lat="44.76992128776516" lon="12.188341218520714"><ele>0.0</ele><time>2026-03-28T14:41:09.981Z</time></trkpt><trkpt lat="44.770111406699215" lon="12.188305550080253"><ele>0.0</ele><time>2026-03-28T14:41:10.981Z</time></trkpt><trkpt lat="44.770297690934186" lon="12.1882199247675"><ele>0.0</ele><time>2026-03-28T14:41:11.981Z</time></trkpt><trkpt lat="44.77047092068595" lon="12.188135036858757"><ele>0.0</ele><time>2026-03-28T14:41:12.981Z</time></trkpt><trkpt lat="44.77064966708276" lon="12.18805621999415"><ele>-0.3333333333333333</ele><time>2026-03-28T14:41:13.98Z</time></trkpt><trkpt lat="44.7708371239411" lon="12.187981067165506"><ele>-0.6666666666666666</ele><time>2026-03-28T14:41:14.98Z</time></trkpt><trkpt lat="44.77103048119212" lon="12.18790390103157"><ele>-1.0</ele><time>2026-03-28T14:41:15.98Z</time></trkpt><trkpt lat="44.771225704128696" lon="12.187816411961233"><ele>-1.0</ele><time>2026-03-28T14:41:16.98Z</time></trkpt><trkpt lat="44.7714147635665" lon="12.18773000925228"><ele>-1.0</ele><time>2026-03-28T14:41:17.98Z</time></trkpt><trkpt lat="44.77160117788847" lon="12.187653415751678"><ele>-1.0</ele><time>2026-03-28T14:41:18.98Z</time></trkpt><trkpt lat="44.771791239879384" lon="12.187576646510973"><ele>-1.3333333333333333</ele><time>2026-03-28T14:41:19.98Z</time></trkpt><trkpt lat="44.771981365044645" lon="12.187495851478898"><ele>-1.6666666666666665</ele><time>2026-03-28T14:41:20.98Z</time></trkpt><trkpt lat="44.772187195141726" lon="12.18741517821671"><ele>-2.0</ele><time>2026-03-28T14:41:21.98Z</time></trkpt><trkpt lat="44.77240541696694" lon="12.18732063110779"><ele>-2.0</ele><time>2026-03-28T14:41:22.98Z</time></trkpt><trkpt lat="44.77264227420733" lon="12.18720837317573"><ele>-2.0</ele><time>2026-03-28T14:41:23.98Z</time></trkpt><trkpt lat="44.77289038480549" lon="12.187110188666434"><ele>-1.5</ele><time>2026-03-28T14:41:24.98Z</time></trkpt><trkpt lat="44.77315463056701" lon="12.187024692809151"><ele>-1.0</ele><time>2026-03-28T14:41:25.98Z</time></trkpt><trkpt lat="44.77342376524047" lon="12.186937584204886"><ele>0.0</ele><time>2026-03-28T14:41:26.98Z</time></trkpt><trkpt lat="44.77368856819453" lon="12.186862129087062"><ele>1.0</ele><time>2026-03-28T14:41:27.98Z</time></trkpt><trkpt lat="44.773946191667235" lon="12.186776457910247"><ele>1.0</ele><time>2026-03-28T14:41:28.98Z</time></trkpt><trkpt lat="44.77420038522615" lon="12.18668328530499"><ele>1.0</ele><time>2026-03-28T14:41:29.98Z</time></trkpt><trkpt lat="44.7744451133886" lon="12.186588232341133"><ele>0.0</ele><time>2026-03-28T14:41:30.98Z</time></trkpt><trkpt lat="44.77468676842291" lon="12.186501963507224"><ele>-1.0</ele><time>2026-03-28T14:41:31.98Z</time></trkpt><trkpt lat="44.77492461939622" lon="12.186422986245715"><ele>-1.0</ele><time>2026-03-28T14:41:32.98Z</time></trkpt><trkpt lat="44.77516534198757" lon="12.186341394925643"><ele>-1.0</ele><time>2026-03-28T14:41:33.98Z</time></trkpt><trkpt lat="44.77541089772801" lon="12.186253588975077"><ele>-0.5</ele><time>2026-03-28T14:41:34.98Z</time></trkpt><trkpt lat="44.77565858291728" lon="12.186172225883771"><ele>0.0</ele><time>2026-03-28T14:41:35.98Z</time></trkpt><trkpt lat="44.77590467352313" lon="12.186081639139047"><ele>0.0</ele><time>2026-03-28T14:41:36.98Z</time></trkpt><trkpt lat="44.77615290962771" lon="12.185989735991399"><ele>0.0</ele><time>2026-03-28T14:41:37.98Z</time></trkpt><trkpt lat="44.77640133914046" lon="12.18590447081024"><ele>0.0</ele><time>2026-03-28T14:41:38.98Z</time></trkpt><trkpt lat="44.77664625042718" lon="12.185819234770369"><ele>0.0</ele><time>2026-03-28T14:41:39.98Z</time></trkpt><trkpt lat="44.776897471797156" lon="12.18572473662549"><ele>-0.5</ele><time>2026-03-28T14:41:40.98Z</time></trkpt><trkpt lat="44.77714783608907" lon="12.18562494537533"><ele>-1.0</ele><time>2026-03-28T14:41:41.98Z</time></trkpt><trkpt lat="44.77739932736981" lon="12.18554354117474"><ele>-1.0</ele><time>2026-03-28T14:41:42.98Z</time></trkpt><trkpt lat="44.77765117422599" lon="12.185458051583312"><ele>-1.0</ele><time>2026-03-28T14:41:43.98Z</time></trkpt><trkpt lat="44.77790337873219" lon="12.185368138074622"><ele>0.0</ele><time>2026-03-28T14:41:44.98Z</time></trkpt><trkpt lat="44.77815047285268" lon="12.185275164015165"><ele>1.0</ele><time>2026-03-28T14:41:45.98Z</time></trkpt><trkpt lat="44.7783940891195" lon="12.185195582504065"><ele>0.0</ele><time>2026-03-28T14:41:46.98Z</time></trkpt><trkpt lat="44.77863546533153" lon="12.185112615978293"><ele>-1.0</ele><time>2026-03-28T14:41:47.98Z</time></trkpt><trkpt lat="44.77887442418041" lon="12.185022984989521"><ele>-1.0</ele><time>2026-03-28T14:41:48.982Z</time></trkpt><trkpt lat="44.779118008021484" lon="12.184944167486654"><ele>-1.0</ele><time>2026-03-28T14:41:49.982Z</time></trkpt><trkpt lat="44.77935689409068" lon="12.184857553875762"><ele>-2.0</ele><time>2026-03-28T14:41:50.982Z</time></trkpt><trkpt lat="44.779597744827136" lon="12.184770487076252"><ele>-3.0</ele><time>2026-03-28T14:41:51.982Z</time></trkpt><trkpt lat="44.779839348279644" lon="12.18468766372809"><ele>-3.0</ele><time>2026-03-28T14:41:52.981Z</time></trkpt><trkpt lat="44.780082054226206" lon="12.184607449262861"><ele>-3.0</ele><time>2026-03-28T14:41:53.981Z</time></trkpt><trkpt lat="44.78032084129566" lon="12.184524481425557"><ele>-2.5</ele><time>2026-03-28T14:41:54.981Z</time></trkpt><trkpt lat="44.78055697377497" lon="12.184435719953704"><ele>-2.0</ele><time>2026-03-28T14:41:55.981Z</time></trkpt><trkpt lat="44.78079095404195" lon="12.184345097122947"><ele>-1.5</ele><time>2026-03-28T14:41:56.981Z</time></trkpt><trkpt lat="44.781022573159305" lon="12.184254142528498"><ele>-1.0</ele><time>2026-03-28T14:41:57.981Z</time></trkpt><trkpt lat="44.78125731169967" lon="12.18416178130372"><ele>-1.0</ele><time>2026-03-28T14:41:58.982Z</time></trkpt><trkpt lat="44.78149175463857" lon="12.184068731378169"><ele>-1.0</ele><time>2026-03-28T14:41:59.982Z</time></trkpt><trkpt lat="44.781723120879136" lon="12.183962898407902"><ele>-1.0</ele><time>2026-03-28T14:42:00.981Z</time></trkpt><trkpt lat="44.78194828232161" lon="12.183846028578403"><ele>-1.0</ele><time>2026-03-28T14:42:01.982Z</time></trkpt><trkpt lat="44.78217739663442" lon="12.183737098018707"><ele>-1.0</ele><time>2026-03-28T14:42:02.982Z</time></trkpt><trkpt lat="44.78240305266597" lon="12.183627082424888"><ele>-1.0</ele><time>2026-03-28T14:42:03.982Z</time></trkpt><trkpt lat="44.78262752925671" lon="12.183499975526919"><ele>-1.5</ele><time>2026-03-28T14:42:04.982Z</time></trkpt><trkpt lat="44.78285295346785" lon="12.183382986500535"><ele>-2.0</ele><time>2026-03-28T14:42:05.982Z</time></trkpt><trkpt lat="44.783080904199736" lon="12.183263112642592"><ele>-1.5</ele><time>2026-03-28T14:42:06.982Z</time></trkpt><trkpt lat="44.7833119352144" lon="12.183147721142353"><ele>-1.0</ele><time>2026-03-28T14:42:07.982Z</time></trkpt><trkpt lat="44.78353786486019" lon="12.183028373051457"><ele>-1.0</ele><time>2026-03-28T14:42:08.982Z</time></trkpt><trkpt lat="44.78376684369672" lon="12.182921669475217"><ele>-1.0</ele><time>2026-03-28T14:42:09.982Z</time></trkpt><trkpt lat="44.783997883070235" lon="12.182819607492196"><ele>-1.0</ele><time>2026-03-28T14:42:10.982Z</time></trkpt><trkpt lat="44.78423135427638" lon="12.18272947604803"><ele>-1.0</ele><time>2026-03-28T14:42:11.982Z</time></trkpt><trkpt lat="44.7844691372474" lon="12.18263577446391"><ele>-0.5</ele><time>2026-03-28T14:42:12.982Z</time></trkpt><trkpt lat="44.784710329437786" lon="12.18254749440939"><ele>0.0</ele><time>2026-03-28T14:42:13.982Z</time></trkpt><trkpt lat="44.78495441731643" lon="12.182466390774488"><ele>0.0</ele><time>2026-03-28T14:42:14.982Z</time></trkpt><trkpt lat="44.78520738662814" lon="12.182388937748886"><ele>0.0</ele><time>2026-03-28T14:42:15.982Z</time></trkpt><trkpt lat="44.78545772054659" lon="12.182313523600863"><ele>0.5</ele><time>2026-03-28T14:42:16.981Z</time></trkpt><trkpt lat="44.7857052370646" lon="12.182245187478665"><ele>1.0</ele><time>2026-03-28T14:42:17.981Z</time></trkpt><trkpt lat="44.785945438614434" lon="12.182177702631712"><ele>1.0</ele><time>2026-03-28T14:42:18.981Z</time></trkpt><trkpt lat="44.786180428692006" lon="12.182115645064544"><ele>1.0</ele><time>2026-03-28T14:42:19.981Z</time></trkpt><trkpt lat="44.78641431128195" lon="12.18205001308606"><ele>1.0</ele><time>2026-03-28T14:42:20.981Z</time></trkpt><trkpt lat="44.78664743764235" lon="12.181984580261684"><ele>1.0</ele><time>2026-03-28T14:42:21.981Z</time></trkpt><trkpt lat="44.78687979996901" lon="12.18191989800623"><ele>1.0</ele><time>2026-03-28T14:42:22.981Z</time></trkpt><trkpt lat="44.787105771044395" lon="12.181857595961917"><ele>1.0</ele><time>2026-03-28T14:42:23.981Z</time></trkpt><trkpt lat="44.78733577546473" lon="12.181798938844214"><ele>1.0</ele><time>2026-03-28T14:42:24.981Z</time></trkpt><trkpt lat="44.78756257300706" lon="12.181738091275342"><ele>1.0</ele><time>2026-03-28T14:42:25.981Z</time></trkpt><trkpt lat="44.787790758417486" lon="12.18168456638798"><ele>-0.5</ele><time>2026-03-28T14:42:26.981Z</time></trkpt><trkpt lat="44.78802346135131" lon="12.181628933227666"><ele>-2.0</ele><time>2026-03-28T14:42:27.981Z</time></trkpt><trkpt lat="44.788256461098335" lon="12.181573581635215"><ele>-2.0</ele><time>2026-03-28T14:42:28.981Z</time></trkpt><trkpt lat="44.78849543768338" lon="12.18150600180064"><ele>-2.0</ele><time>2026-03-28T14:42:29.981Z</time></trkpt><trkpt lat="44.78873570425879" lon="12.181444332350704"><ele>-1.0</ele><time>2026-03-28T14:42:30.981Z</time></trkpt><trkpt lat="44.78897946732463" lon="12.181374445069867"><ele>0.0</ele><time>2026-03-28T14:42:31.981Z</time></trkpt><trkpt lat="44.78922394341414" lon="12.181296590581761"><ele>-0.5</ele><time>2026-03-28T14:42:32.981Z</time></trkpt><trkpt lat="44.78946594869166" lon="12.181216073882592"><ele>-1.0</ele><time>2026-03-28T14:42:33.981Z</time></trkpt><trkpt lat="44.78969651835485" lon="12.181132056607249"><ele>-1.0</ele><time>2026-03-28T14:42:34.981Z</time></trkpt><trkpt lat="44.789918776988884" lon="12.181046708001753"><ele>-1.0</ele><time>2026-03-28T14:42:35.981Z</time></trkpt><trkpt lat="44.79013078147012" lon="12.180958667105141"><ele>-0.6666666666666666</ele><time>2026-03-28T14:42:36.981Z</time></trkpt><trkpt lat="44.790334860673234" lon="12.180877010512981"><ele>-0.3333333333333333</ele><time>2026-03-28T14:42:37.981Z</time></trkpt><trkpt lat="44.79053450096171" lon="12.180794424129129"><ele>0.0</ele><time>2026-03-28T14:42:38.981Z</time></trkpt><trkpt lat="44.7907341667585" lon="12.180712047081693"><ele>0.0</ele><time>2026-03-28T14:42:39.981Z</time></trkpt><trkpt lat="44.79093809513613" lon="12.180648175721359"><ele>0.0</ele><time>2026-03-28T14:42:40.981Z</time></trkpt><trkpt lat="44.79114268491238" lon="12.180570567787953"><ele>0.0</ele><time>2026-03-28T14:42:41.981Z</time></trkpt><trkpt lat="44.79135133412048" lon="12.1804937624953"><ele>0.0</ele><time>2026-03-28T14:42:42.981Z</time></trkpt><trkpt lat="44.79157083235633" lon="12.18042411640115"><ele>0.0</ele><time>2026-03-28T14:42:43.981Z</time></trkpt><trkpt lat="44.79179518640578" lon="12.18035793358732"><ele>0.5</ele><time>2026-03-28T14:42:44.981Z</time></trkpt><trkpt lat="44.792023364416906" lon="12.180300165117824"><ele>1.0</ele><time>2026-03-28T14:42:45.981Z</time></trkpt><trkpt lat="44.79225537215959" lon="12.180249457540425"><ele>1.0</ele><time>2026-03-28T14:42:46.981Z</time></trkpt><trkpt lat="44.79248813283929" lon="12.180193462575893"><ele>1.0</ele><time>2026-03-28T14:42:47.981Z</time></trkpt><trkpt lat="44.79272628420647" lon="12.180151917335232"><ele>0.0</ele><time>2026-03-28T14:42:48.981Z</time></trkpt><trkpt lat="44.79296134494547" lon="12.18010202516945"><ele>-1.0</ele><time>2026-03-28T14:42:49.981Z</time></trkpt><trkpt lat="44.79320561965988" lon="12.180048043708712"><ele>-1.0</ele><time>2026-03-28T14:42:50.981Z</time></trkpt><trkpt lat="44.793463659574165" lon="12.179996477346558"><ele>-1.0</ele><time>2026-03-28T14:42:51.981Z</time></trkpt><trkpt lat="44.79371741051889" lon="12.179938738667206"><ele>-1.5</ele><time>2026-03-28T14:42:52.981Z</time></trkpt><trkpt lat="44.79397868967064" lon="12.179892868320579"><ele>-2.0</ele><time>2026-03-28T14:42:53.981Z</time></trkpt><trkpt lat="44.79425259420725" lon="12.179838350274597"><ele>-2.0</ele><time>2026-03-28T14:42:54.981Z</time></trkpt><trkpt lat="44.79452474775003" lon="12.179783858959668"><ele>-2.0</ele><time>2026-03-28T14:42:55.981Z</time></trkpt><trkpt lat="44.79480957461898" lon="12.179728324631661"><ele>-2.0</ele><time>2026-03-28T14:42:56.981Z</time></trkpt><trkpt lat="44.79509676072599" lon="12.179687571883685"><ele>-2.0</ele><time>2026-03-28T14:42:57.981Z</time></trkpt><trkpt lat="44.79538431330517" lon="12.179633993311048"><ele>-2.5</ele><time>2026-03-28T14:42:58.981Z</time></trkpt><trkpt lat="44.79567343330432" lon="12.179581580711632"><ele>-3.0</ele><time>2026-03-28T14:42:59.981Z</time></trkpt><trkpt lat="44.795950950847114" lon="12.179525625265502"><ele>-3.0</ele><time>2026-03-28T14:43:00.981Z</time></trkpt><trkpt lat="44.79622308885256" lon="12.179470672355393"><ele>-3.0</ele><time>2026-03-28T14:43:01.981Z</time></trkpt><trkpt lat="44.796491058304696" lon="12.179406376554498"><ele>-3.0</ele><time>2026-03-28T14:43:02.981Z</time></trkpt><trkpt lat="44.7967509203973" lon="12.17935090069457"><ele>-3.0</ele><time>2026-03-28T14:43:03.981Z</time></trkpt><trkpt lat="44.7970015378467" lon="12.179292459645694"><ele>-2.5</ele><time>2026-03-28T14:43:04.981Z</time></trkpt><trkpt lat="44.797239771102774" lon="12.179246149661603"><ele>-2.0</ele><time>2026-03-28T14:43:05.981Z</time></trkpt><trkpt lat="44.79746906288869" lon="12.17919868614754"><ele>-1.3333333333333333</ele><time>2026-03-28T14:43:06.981Z</time></trkpt><trkpt lat="44.79769016143097" lon="12.17915138380708"><ele>-0.6666666666666666</ele><time>2026-03-28T14:43:07.981Z</time></trkpt><trkpt lat="44.79789970920997" lon="12.179130794796832"><ele>0.0</ele><time>2026-03-28T14:43:08.981Z</time></trkpt><trkpt lat="44.79809791676231" lon="12.179091621987679"><ele>0.0</ele><time>2026-03-28T14:43:09.981Z</time></trkpt><trkpt lat="44.79829427306833" lon="12.179031031603003"><ele>0.0</ele><time>2026-03-28T14:43:10.981Z</time></trkpt><trkpt lat="44.79848653316405" lon="12.179014276426418"><ele>0.0</ele><time>2026-03-28T14:43:11.98Z</time></trkpt><trkpt lat="44.79867245694195" lon="12.178974878646306"><ele>0.3333333333333333</ele><time>2026-03-28T14:43:12.98Z</time></trkpt><trkpt lat="44.798862156868886" lon="12.178942912682983"><ele>0.6666666666666666</ele><time>2026-03-28T14:43:13.98Z</time></trkpt><trkpt lat="44.79904064351001" lon="12.178895221642438"><ele>1.0</ele><time>2026-03-28T14:43:14.98Z</time></trkpt><trkpt lat="44.79922961004396" lon="12.178875394503619"><ele>0.6666666666666666</ele><time>2026-03-28T14:43:15.98Z</time></trkpt><trkpt lat="44.7994132716591" lon="12.178858971598167"><ele>0.3333333333333333</ele><time>2026-03-28T14:43:16.98Z</time></trkpt><trkpt lat="44.79959434154416" lon="12.178867397462609"><ele>0.0</ele><time>2026-03-28T14:43:17.98Z</time></trkpt><trkpt lat="44.79977659072277" lon="12.17885741955592"><ele>0.0</ele><time>2026-03-28T14:43:18.98Z</time></trkpt><trkpt lat="44.799963316512375" lon="12.178847137814671"><ele>0.0</ele><time>2026-03-28T14:43:19.98Z</time></trkpt><trkpt lat="44.80013015438984" lon="12.178837951171655"><ele>0.0</ele><time>2026-03-28T14:43:20.98Z</time></trkpt><trkpt lat="44.80026898639308" lon="12.178830306712104"><ele>0.0</ele><time>2026-03-28T14:43:21.98Z</time></trkpt><trkpt lat="44.80039342790712" lon="12.178821777708265"><ele>0.0</ele><time>2026-03-28T14:43:22.98Z</time></trkpt><trkpt lat="44.80050625437427" lon="12.17881145928171"><ele>0.0</ele><time>2026-03-28T14:43:23.98Z</time></trkpt><trkpt lat="44.80060257295155" lon="12.17880102287787"><ele>0.0</ele><time>2026-03-28T14:43:24.98Z</time></trkpt><trkpt lat="44.80068858490894" lon="12.178761503370376"><ele>0.0</ele><time>2026-03-28T14:43:25.98Z</time></trkpt><trkpt lat="44.80076207956838" lon="12.178744136525712"><ele>0.0</ele><time>2026-03-28T14:43:26.98Z</time></trkpt><trkpt lat="44.80082674932293" lon="12.17869376667831"><ele>0.0</ele><time>2026-03-28T14:43:27.98Z</time></trkpt><trkpt lat="44.80089518070224" lon="12.178737811609865"><ele>0.0</ele><time>2026-03-28T14:43:29.98Z</time></trkpt><trkpt lat="44.80086612873868" lon="12.178445296970807"><ele>0.0</ele><time>2026-03-28T14:43:30.98Z</time></trkpt><trkpt lat="44.800850185780405" lon="12.1782941283432"><ele>0.0</ele><time>2026-03-28T14:43:31.98Z</time></trkpt><trkpt lat="44.80085115848799" lon="12.17811146984951"><ele>0.0</ele><time>2026-03-28T14:43:32.98Z</time></trkpt><trkpt lat="44.800855772499375" lon="12.177910343143125"><ele>0.0</ele><time>2026-03-28T14:43:33.98Z</time></trkpt><trkpt lat="44.80086985632524" lon="12.177700202288284"><ele>0.0</ele><time>2026-03-28T14:43:34.98Z</time></trkpt><trkpt lat="44.80088338409234" lon="12.177461753687655"><ele>0.0</ele><time>2026-03-28T14:43:35.98Z</time></trkpt><trkpt lat="44.800899541005315" lon="12.177200910383565"><ele>0.0</ele><time>2026-03-28T14:43:36.98Z</time></trkpt><trkpt lat="44.80092429111589" lon="12.176931407777937"><ele>0.0</ele><time>2026-03-28T14:43:37.98Z</time></trkpt><trkpt lat="44.8009527314088" lon="12.176658718425545"><ele>-0.6666666666666666</ele><time>2026-03-28T14:43:38.98Z</time></trkpt><trkpt lat="44.800979078406975" lon="12.176364526482267"><ele>-1.3333333333333333</ele><time>2026-03-28T14:43:39.98Z</time></trkpt><trkpt lat="44.800999906896806" lon="12.176062531362694"><ele>-2.0</ele><time>2026-03-28T14:43:40.98Z</time></trkpt><trkpt lat="44.80102974526483" lon="12.17574782749257"><ele>-2.0</ele><time>2026-03-28T14:43:41.98Z</time></trkpt><trkpt lat="44.801055999696494" lon="12.175427684655231"><ele>-2.0</ele><time>2026-03-28T14:43:42.98Z</time></trkpt><trkpt lat="44.80108646341398" lon="12.175097828731563"><ele>-2.5</ele><time>2026-03-28T14:43:43.98Z</time></trkpt><trkpt lat="44.80111666973059" lon="12.174769566204912"><ele>-3.0</ele><time>2026-03-28T14:43:44.98Z</time></trkpt><trkpt lat="44.80115083954611" lon="12.174445048736741"><ele>-3.0</ele><time>2026-03-28T14:43:45.98Z</time></trkpt><trkpt lat="44.801169613696885" lon="12.174110698749548"><ele>-3.0</ele><time>2026-03-28T14:43:46.98Z</time></trkpt><trkpt lat="44.801191116638584" lon="12.173771049927181"><ele>-3.0</ele><time>2026-03-28T14:43:47.98Z</time></trkpt><trkpt lat="44.80124908181437" lon="12.173440689606446"><ele>-3.0</ele><time>2026-03-28T14:43:48.98Z</time></trkpt><trkpt lat="44.801279792292256" lon="12.173096904945963"><ele>-3.5</ele><time>2026-03-28T14:43:49.98Z</time></trkpt><trkpt lat="44.801310515649135" lon="12.172758268168156"><ele>-4.0</ele><time>2026-03-28T14:43:50.98Z</time></trkpt><trkpt lat="44.801333041971915" lon="12.17240904451504"><ele>-4.0</ele><time>2026-03-28T14:43:51.98Z</time></trkpt><trkpt lat="44.80136334822951" lon="12.172062697208494"><ele>-4.0</ele><time>2026-03-28T14:43:52.98Z</time></trkpt><trkpt lat="44.801393611590115" lon="12.171710670417424"><ele>-4.0</ele><time>2026-03-28T14:43:53.98Z</time></trkpt><trkpt lat="44.80141966830048" lon="12.171354470298699"><ele>-4.0</ele><time>2026-03-28T14:43:54.98Z</time></trkpt><trkpt lat="44.801450362600846" lon="12.171004933626746"><ele>-3.5</ele><time>2026-03-28T14:43:55.981Z</time></trkpt><trkpt lat="44.80148211554699" lon="12.170652130555547"><ele>-3.0</ele><time>2026-03-28T14:43:56.981Z</time></trkpt><trkpt lat="44.80150752579665" lon="12.17030373027746"><ele>-3.0</ele><time>2026-03-28T14:43:57.981Z</time></trkpt><trkpt lat="44.80153607572873" lon="12.169957318610734"><ele>-3.0</ele><time>2026-03-28T14:43:58.981Z</time></trkpt><trkpt lat="44.801562978887226" lon="12.169618810583174"><ele>-2.5</ele><time>2026-03-28T14:43:59.981Z</time></trkpt><trkpt lat="44.80159252860632" lon="12.169295364732218"><ele>-2.0</ele><time>2026-03-28T14:44:00.981Z</time></trkpt><trkpt lat="44.80161762949797" lon="12.168981447586999"><ele>-2.0</ele><time>2026-03-28T14:44:01.981Z</time></trkpt><trkpt lat="44.801643144524476" lon="12.168684147522644"><ele>-2.0</ele><time>2026-03-28T14:44:02.981Z</time></trkpt><trkpt lat="44.8016633892468" lon="12.168392254421766"><ele>-2.0</ele><time>2026-03-28T14:44:03.981Z</time></trkpt><trkpt lat="44.80168235545893" lon="12.16811119879642"><ele>-2.0</ele><time>2026-03-28T14:44:04.98Z</time></trkpt><trkpt lat="44.80170269014281" lon="12.167840683367187"><ele>-2.0</ele><time>2026-03-28T14:44:05.98Z</time></trkpt><trkpt lat="44.80172358107892" lon="12.167581986017407"><ele>-2.0</ele><time>2026-03-28T14:44:06.98Z</time></trkpt><trkpt lat="44.80173467062876" lon="12.167349424173285"><ele>-1.75</ele><time>2026-03-28T14:44:07.981Z</time></trkpt><trkpt lat="44.801731893769634" lon="12.167134318810882"><ele>-1.5</ele><time>2026-03-28T14:44:08.981Z</time></trkpt><trkpt lat="44.801725508732716" lon="12.166935330982804"><ele>-1.25</ele><time>2026-03-28T14:44:09.981Z</time></trkpt><trkpt lat="44.80169168297324" lon="12.166735287894378"><ele>-1.0</ele><time>2026-03-28T14:44:10.981Z</time></trkpt><trkpt lat="44.80161689957418" lon="12.166535486356738"><ele>-2.0</ele><time>2026-03-28T14:44:11.981Z</time></trkpt><trkpt lat="44.80151597280045" lon="12.166342788072967"><ele>-3.0</ele><time>2026-03-28T14:44:12.981Z</time></trkpt><trkpt lat="44.80138533707925" lon="12.166188535910655"><ele>-4.0</ele><time>2026-03-28T14:44:13.981Z</time></trkpt><trkpt lat="44.801237748859315" lon="12.166077280964508"><ele>-4.0</ele><time>2026-03-28T14:44:14.981Z</time></trkpt><trkpt lat="44.80106996854042" lon="12.165983747801928"><ele>-4.0</ele><time>2026-03-28T14:44:15.981Z</time></trkpt><trkpt lat="44.800856384289666" lon="12.165942284682162"><ele>-4.0</ele><time>2026-03-28T14:44:16.981Z</time></trkpt><trkpt lat="44.800612377404036" lon="12.165917769770738"><ele>-3.5</ele><time>2026-03-28T14:44:17.981Z</time></trkpt><trkpt lat="44.80035818797374" lon="12.16590366755227"><ele>-3.0</ele><time>2026-03-28T14:44:18.981Z</time></trkpt><trkpt lat="44.80012072150971" lon="12.165875640498863"><ele>-3.0</ele><time>2026-03-28T14:44:19.98Z</time></trkpt><trkpt lat="44.79989991026369" lon="12.165855797180226"><ele>-3.0</ele><time>2026-03-28T14:44:20.98Z</time></trkpt><trkpt lat="44.79968772471497" lon="12.165833485445416"><ele>-3.0</ele><time>2026-03-28T14:44:21.98Z</time></trkpt><trkpt lat="44.799481153755536" lon="12.165873989189764"><ele>-3.0</ele><time>2026-03-28T14:44:22.98Z</time></trkpt><trkpt lat="44.79928211977895" lon="12.165911839374473"><ele>-3.0</ele><time>2026-03-28T14:44:23.98Z</time></trkpt><trkpt lat="44.799089260119565" lon="12.16594851893911"><ele>-3.0</ele><time>2026-03-28T14:44:24.98Z</time></trkpt><trkpt lat="44.79890798401049" lon="12.16597249251353"><ele>-3.0</ele><time>2026-03-28T14:44:25.98Z</time></trkpt><trkpt lat="44.79873044910451" lon="12.166015410130688"><ele>-3.0</ele><time>2026-03-28T14:44:26.98Z</time></trkpt><trkpt lat="44.79856018321151" lon="12.166066394318374"><ele>-3.0</ele><time>2026-03-28T14:44:27.98Z</time></trkpt><trkpt lat="44.79838637056401" lon="12.166085749824797"><ele>-2.6666666666666665</ele><time>2026-03-28T14:44:28.98Z</time></trkpt><trkpt lat="44.79820931961371" lon="12.1661226153738"><ele>-2.333333333333333</ele><time>2026-03-28T14:44:29.98Z</time></trkpt><trkpt lat="44.7980341924192" lon="12.166154758600124"><ele>-2.0</ele><time>2026-03-28T14:44:30.98Z</time></trkpt><trkpt lat="44.79785504039616" lon="12.166193615721372"><ele>-2.0</ele><time>2026-03-28T14:44:31.98Z</time></trkpt><trkpt lat="44.797674607910004" lon="12.16616380552803"><ele>-2.0</ele><time>2026-03-28T14:44:32.98Z</time></trkpt><trkpt lat="44.797482477285136" lon="12.166134436035192"><ele>-2.0</ele><time>2026-03-28T14:44:33.98Z</time></trkpt><trkpt lat="44.797287987232465" lon="12.166113443364617"><ele>-2.0</ele><time>2026-03-28T14:44:34.98Z</time></trkpt><trkpt lat="44.797100308143754" lon="12.166062098524277"><ele>-2.0</ele><time>2026-03-28T14:44:35.98Z</time></trkpt><trkpt lat="44.7969200352839" lon="12.166016499923913"><ele>-2.0</ele><time>2026-03-28T14:44:36.98Z</time></trkpt><trkpt lat="44.796736771564426" lon="12.165955869282149"><ele>-2.0</ele><time>2026-03-28T14:44:37.98Z</time></trkpt><trkpt lat="44.79655608114567" lon="12.165913144634482"><ele>-2.0</ele><time>2026-03-28T14:44:38.98Z</time></trkpt><trkpt lat="44.79638797023221" lon="12.165874222493542"><ele>-2.0</ele><time>2026-03-28T14:44:39.98Z</time></trkpt><trkpt lat="44.79623446463309" lon="12.165839076439287"><ele>-2.0</ele><time>2026-03-28T14:44:40.98Z</time></trkpt><trkpt lat="44.796086898596265" lon="12.16582711422021"><ele>-2.0</ele><time>2026-03-28T14:44:41.98Z</time></trkpt><trkpt lat="44.79593863812635" lon="12.165773411815826"><ele>-2.0</ele><time>2026-03-28T14:44:42.98Z</time></trkpt><trkpt lat="44.79579729462717" lon="12.165746079943064"><ele>-2.0</ele><time>2026-03-28T14:44:43.98Z</time></trkpt><trkpt lat="44.795657038798424" lon="12.165725095264955"><ele>-2.0</ele><time>2026-03-28T14:44:44.98Z</time></trkpt><trkpt lat="44.79550598586501" lon="12.165708860443072"><ele>-2.0</ele><time>2026-03-28T14:44:45.98Z</time></trkpt><trkpt lat="44.79535498995516" lon="12.165692331169947"><ele>-2.0</ele><time>2026-03-28T14:44:46.98Z</time></trkpt><trkpt lat="44.7951935664054" lon="12.165672254908664"><ele>-2.0</ele><time>2026-03-28T14:44:47.98Z</time></trkpt><trkpt lat="44.79502794611636" lon="12.165651519452956"><ele>-2.0</ele><time>2026-03-28T14:44:48.98Z</time></trkpt><trkpt lat="44.79486331041387" lon="12.165630907266133"><ele>-2.0</ele><time>2026-03-28T14:44:49.98Z</time></trkpt><trkpt lat="44.79469704777811" lon="12.165610091390754"><ele>-2.0</ele><time>2026-03-28T14:44:50.98Z</time></trkpt><trkpt lat="44.79453030990893" lon="12.165589216018356"><ele>-2.0</ele><time>2026-03-28T14:44:51.98Z</time></trkpt><trkpt lat="44.794351240102884" lon="12.165565254318484"><ele>-2.0</ele><time>2026-03-28T14:44:52.98Z</time></trkpt><trkpt lat="44.79416934048343" lon="12.165535594319302"><ele>-2.0</ele><time>2026-03-28T14:44:53.98Z</time></trkpt><trkpt lat="44.79395798902267" lon="12.165493135198068"><ele>-2.0</ele><time>2026-03-28T14:44:54.98Z</time></trkpt><trkpt lat="44.79374862951309" lon="12.16544550500855"><ele>-2.0</ele><time>2026-03-28T14:44:55.98Z</time></trkpt><trkpt lat="44.793526625142015" lon="12.165370591861553"><ele>-2.0</ele><time>2026-03-28T14:44:56.98Z</time></trkpt><trkpt lat="44.79329031715067" lon="12.165274632675168"><ele>-2.0</ele><time>2026-03-28T14:44:57.98Z</time></trkpt><trkpt lat="44.79304983860256" lon="12.165169293475545"><ele>-2.0</ele><time>2026-03-28T14:44:58.98Z</time></trkpt><trkpt lat="44.792794793341294" lon="12.165062773066966"><ele>-2.0</ele><time>2026-03-28T14:44:59.98Z</time></trkpt><trkpt lat="44.792539135362986" lon="12.164958295982364"><ele>-2.5</ele><time>2026-03-28T14:45:00.98Z</time></trkpt><trkpt lat="44.79227401352432" lon="12.164854322524022"><ele>-3.0</ele><time>2026-03-28T14:45:01.98Z</time></trkpt><trkpt lat="44.79200882416525" lon="12.164754003748575"><ele>-3.5</ele><time>2026-03-28T14:45:02.98Z</time></trkpt><trkpt lat="44.79174981575897" lon="12.164652893783074"><ele>-4.0</ele><time>2026-03-28T14:45:03.98Z</time></trkpt><trkpt lat="44.791494711286916" lon="12.164548460888744"><ele>-4.0</ele><time>2026-03-28T14:45:04.98Z</time></trkpt><trkpt lat="44.79124480123608" lon="12.164466968849737"><ele>-4.0</ele><time>2026-03-28T14:45:05.98Z</time></trkpt><trkpt lat="44.79100164939357" lon="12.1644140145661"><ele>-4.0</ele><time>2026-03-28T14:45:06.98Z</time></trkpt><trkpt lat="44.790741965447545" lon="12.164396237946095"><ele>-4.0</ele><time>2026-03-28T14:45:07.98Z</time></trkpt><trkpt lat="44.79047517280512" lon="12.164383346438688"><ele>-4.0</ele><time>2026-03-28T14:45:08.98Z</time></trkpt><trkpt lat="44.79020546671401" lon="12.164375481752524"><ele>-4.0</ele><time>2026-03-28T14:45:09.98Z</time></trkpt><trkpt lat="44.789930075598015" lon="12.164371777539056"><ele>-3.0</ele><time>2026-03-28T14:45:10.98Z</time></trkpt><trkpt lat="44.789658370803835" lon="12.164368059190718"><ele>-2.0</ele><time>2026-03-28T14:45:11.98Z</time></trkpt><trkpt lat="44.78938705741229" lon="12.164349213831642"><ele>-2.5</ele><time>2026-03-28T14:45:12.98Z</time></trkpt><trkpt lat="44.789114011291204" lon="12.164301665151767"><ele>-3.0</ele><time>2026-03-28T14:45:13.98Z</time></trkpt><trkpt lat="44.788844135802414" lon="12.164268893970453"><ele>-3.0</ele><time>2026-03-28T14:45:14.979Z</time></trkpt><trkpt lat="44.788576242744284" lon="12.164231518500582"><ele>-3.0</ele><time>2026-03-28T14:45:15.979Z</time></trkpt><trkpt lat="44.78830862152882" lon="12.164194066774645"><ele>-3.0</ele><time>2026-03-28T14:45:16.979Z</time></trkpt><trkpt lat="44.78804569391459" lon="12.164157604497225"><ele>-3.0</ele><time>2026-03-28T14:45:17.979Z</time></trkpt><trkpt lat="44.78778516672176" lon="12.164120012111734"><ele>-3.0</ele><time>2026-03-28T14:45:18.979Z</time></trkpt><trkpt lat="44.78752425221317" lon="12.164088526712721"><ele>-3.0</ele><time>2026-03-28T14:45:19.979Z</time></trkpt><trkpt lat="44.78726810673451" lon="12.164060049146086"><ele>-4.0</ele><time>2026-03-28T14:45:20.979Z</time></trkpt><trkpt lat="44.78700899884912" lon="12.164021901048319"><ele>-5.0</ele><time>2026-03-28T14:45:21.979Z</time></trkpt><trkpt lat="44.78674301047462" lon="12.163979892299597"><ele>-5.0</ele><time>2026-03-28T14:45:22.979Z</time></trkpt><trkpt lat="44.78647507648477" lon="12.163957347298616"><ele>-5.0</ele><time>2026-03-28T14:45:23.979Z</time></trkpt><trkpt lat="44.786200770997716" lon="12.163940852467615"><ele>-5.0</ele><time>2026-03-28T14:45:24.979Z</time></trkpt><trkpt lat="44.78592363547172" lon="12.163921780768714"><ele>-5.0</ele><time>2026-03-28T14:45:25.979Z</time></trkpt><trkpt lat="44.785643789069454" lon="12.163924971015241"><ele>-5.0</ele><time>2026-03-28T14:45:26.979Z</time></trkpt><trkpt lat="44.78536431992929" lon="12.163912295689471"><ele>-5.0</ele><time>2026-03-28T14:45:27.979Z</time></trkpt><trkpt lat="44.78508748043944" lon="12.163907306142901"><ele>-4.5</ele><time>2026-03-28T14:45:28.979Z</time></trkpt><trkpt lat="44.78481142581631" lon="12.163888204465714"><ele>-4.0</ele><time>2026-03-28T14:45:29.979Z</time></trkpt><trkpt lat="44.78453991611879" lon="12.16386701444888"><ele>-4.0</ele><time>2026-03-28T14:45:30.979Z</time></trkpt><trkpt lat="44.784274706922076" lon="12.163844729054475"><ele>-4.0</ele><time>2026-03-28T14:45:31.979Z</time></trkpt><trkpt lat="44.784005681139945" lon="12.163812522782694"><ele>-4.0</ele><time>2026-03-28T14:45:32.979Z</time></trkpt><trkpt lat="44.78374510531732" lon="12.16377227565879"><ele>-4.0</ele><time>2026-03-28T14:45:33.979Z</time></trkpt><trkpt lat="44.7834750410851" lon="12.163731173610907"><ele>-3.5</ele><time>2026-03-28T14:45:34.979Z</time></trkpt><trkpt lat="44.78321139469482" lon="12.163708748710084"><ele>-3.0</ele><time>2026-03-28T14:45:35.979Z</time></trkpt><trkpt lat="44.782949958089105" lon="12.163686667036593"><ele>-3.0</ele><time>2026-03-28T14:45:36.979Z</time></trkpt><trkpt lat="44.782691417960855" lon="12.163654023693095"><ele>-3.0</ele><time>2026-03-28T14:45:37.979Z</time></trkpt><trkpt lat="44.78243339100895" lon="12.163620503142631"><ele>-3.0</ele><time>2026-03-28T14:45:38.979Z</time></trkpt><trkpt lat="44.782182020035535" lon="12.163558457977516"><ele>-3.0</ele><time>2026-03-28T14:45:39.979Z</time></trkpt><trkpt lat="44.78192399993754" lon="12.163496871677637"><ele>-3.0</ele><time>2026-03-28T14:45:40.979Z</time></trkpt><trkpt lat="44.781655812225054" lon="12.163424526943276"><ele>-3.0</ele><time>2026-03-28T14:45:41.979Z</time></trkpt><trkpt lat="44.781399701084986" lon="12.163325373052066"><ele>-3.0</ele><time>2026-03-28T14:45:42.979Z</time></trkpt><trkpt lat="44.78113740675678" lon="12.163222749387675"><ele>-3.0</ele><time>2026-03-28T14:45:43.979Z</time></trkpt><trkpt lat="44.78089129575095" lon="12.163084169395166"><ele>-3.0</ele><time>2026-03-28T14:45:44.979Z</time></trkpt><trkpt lat="44.78063077350782" lon="12.16295381356577"><ele>-3.0</ele><time>2026-03-28T14:45:45.979Z</time></trkpt><trkpt lat="44.780385883641976" lon="12.162833017076503"><ele>-2.0</ele><time>2026-03-28T14:45:46.979Z</time></trkpt><trkpt lat="44.78016023961282" lon="12.162723064463178"><ele>-1.0</ele><time>2026-03-28T14:45:47.979Z</time></trkpt><trkpt lat="44.77991876330316" lon="12.162597822850095"><ele>-1.0</ele><time>2026-03-28T14:45:48.979Z</time></trkpt><trkpt lat="44.77966933720075" lon="12.162449253170537"><ele>-1.0</ele><time>2026-03-28T14:45:49.979Z</time></trkpt><trkpt lat="44.77940764587768" lon="12.162282184480908"><ele>-1.5</ele><time>2026-03-28T14:45:50.979Z</time></trkpt><trkpt lat="44.77913757947736" lon="12.162116618243063"><ele>-2.0</ele><time>2026-03-28T14:45:51.979Z</time></trkpt><trkpt lat="44.778857078488834" lon="12.161950193061424"><ele>-2.0</ele><time>2026-03-28T14:45:52.979Z</time></trkpt><trkpt lat="44.77858523840685" lon="12.161769865091774"><ele>-2.0</ele><time>2026-03-28T14:45:53.979Z</time></trkpt><trkpt lat="44.77831072774334" lon="12.161553924350258"><ele>-2.5</ele><time>2026-03-28T14:45:54.979Z</time></trkpt><trkpt lat="44.77804391754458" lon="12.161391703775918"><ele>-3.0</ele><time>2026-03-28T14:45:55.979Z</time></trkpt><trkpt lat="44.777766964727014" lon="12.161224126646314"><ele>-2.0</ele><time>2026-03-28T14:45:56.979Z</time></trkpt><trkpt lat="44.77749493668679" lon="12.16105998922732"><ele>-1.0</ele><time>2026-03-28T14:45:57.979Z</time></trkpt><trkpt lat="44.77721973482896" lon="12.160894629382833"><ele>-1.0</ele><time>2026-03-28T14:45:58.979Z</time></trkpt><trkpt lat="44.77695507403552" lon="12.160730345224392"><ele>-1.0</ele><time>2026-03-28T14:45:59.979Z</time></trkpt><trkpt lat="44.77669229716815" lon="12.16057006486106"><ele>-1.5</ele><time>2026-03-28T14:46:00.98Z</time></trkpt><trkpt lat="44.7764411310953" lon="12.16041755818559"><ele>-2.0</ele><time>2026-03-28T14:46:01.98Z</time></trkpt><trkpt lat="44.776189562031234" lon="12.160286149875152"><ele>-2.5</ele><time>2026-03-28T14:46:02.98Z</time></trkpt><trkpt lat="44.7759472960296" lon="12.160116530307915"><ele>-3.0</ele><time>2026-03-28T14:46:03.98Z</time></trkpt><trkpt lat="44.77568261659125" lon="12.15999588082962"><ele>-3.5</ele><time>2026-03-28T14:46:04.98Z</time></trkpt><trkpt lat="44.775434307143556" lon="12.159848686560434"><ele>-4.0</ele><time>2026-03-28T14:46:05.98Z</time></trkpt><trkpt lat="44.77517021787432" lon="12.15972821110281"><ele>-3.0</ele><time>2026-03-28T14:46:06.98Z</time></trkpt><trkpt lat="44.77490636780642" lon="12.159607339190924"><ele>-2.0</ele><time>2026-03-28T14:46:07.98Z</time></trkpt><trkpt lat="44.77463818624189" lon="12.159484089280493"><ele>-2.0</ele><time>2026-03-28T14:46:08.98Z</time></trkpt><trkpt lat="44.77436863633414" lon="12.159376897625766"><ele>-2.0</ele><time>2026-03-28T14:46:09.98Z</time></trkpt><trkpt lat="44.774101334864774" lon="12.159260537066405"><ele>-2.0</ele><time>2026-03-28T14:46:10.98Z</time></trkpt><trkpt lat="44.77383578221028" lon="12.15913398443801"><ele>-2.0</ele><time>2026-03-28T14:46:11.98Z</time></trkpt><trkpt lat="44.77358110557692" lon="12.158995041572588"><ele>-2.5</ele><time>2026-03-28T14:46:12.98Z</time></trkpt><trkpt lat="44.773327916699465" lon="12.158877310508526"><ele>-3.0</ele><time>2026-03-28T14:46:13.979Z</time></trkpt><trkpt lat="44.77306616211101" lon="12.158781350533355"><ele>-3.0</ele><time>2026-03-28T14:46:14.979Z</time></trkpt><trkpt lat="44.772808383477745" lon="12.158653666427817"><ele>-3.0</ele><time>2026-03-28T14:46:15.979Z</time></trkpt><trkpt lat="44.772544371046386" lon="12.158537625227135"><ele>-2.0</ele><time>2026-03-28T14:46:16.979Z</time></trkpt><trkpt lat="44.77229146799505" lon="12.158398542371959"><ele>-1.0</ele><time>2026-03-28T14:46:17.979Z</time></trkpt><trkpt lat="44.77202259062341" lon="12.158311142408712"><ele>0.0</ele><time>2026-03-28T14:46:18.979Z</time></trkpt><trkpt lat="44.771745284013946" lon="12.158221836029325"><ele>1.0</ele><time>2026-03-28T14:46:19.979Z</time></trkpt><trkpt lat="44.771469597920685" lon="12.158137396028112"><ele>-1.0</ele><time>2026-03-28T14:46:20.979Z</time></trkpt><trkpt lat="44.77119269185456" lon="12.158053031991743"><ele>-3.0</ele><time>2026-03-28T14:46:21.979Z</time></trkpt><trkpt lat="44.77091644512707" lon="12.15796725968028"><ele>-3.0</ele><time>2026-03-28T14:46:22.979Z</time></trkpt><trkpt lat="44.77064274350929" lon="12.157881507455285"><ele>-3.0</ele><time>2026-03-28T14:46:23.979Z</time></trkpt><trkpt lat="44.77037853390634" lon="12.157788669583587"><ele>-2.0</ele><time>2026-03-28T14:46:24.979Z</time></trkpt><trkpt lat="44.77012548505028" lon="12.157700849047556"><ele>-1.0</ele><time>2026-03-28T14:46:25.979Z</time></trkpt><trkpt lat="44.76988068536234" lon="12.157620707785489"><ele>-1.0</ele><time>2026-03-28T14:46:26.979Z</time></trkpt><trkpt lat="44.76963303360478" lon="12.1575404707292"><ele>-1.0</ele><time>2026-03-28T14:46:27.979Z</time></trkpt><trkpt lat="44.76939632822196" lon="12.157460250290212"><ele>-1.3333333333333333</ele><time>2026-03-28T14:46:28.979Z</time></trkpt><trkpt lat="44.769183895708665" lon="12.157352889236329"><ele>-1.6666666666666665</ele><time>2026-03-28T14:46:29.979Z</time></trkpt><trkpt lat="44.76902072953323" lon="12.157211401842883"><ele>-2.0</ele><time>2026-03-28T14:46:30.979Z</time></trkpt><trkpt lat="44.76886601235181" lon="12.157048441271089"><ele>-2.0</ele><time>2026-03-28T14:46:31.979Z</time></trkpt><trkpt lat="44.76872201375876" lon="12.1568420982404"><ele>-2.0</ele><time>2026-03-28T14:46:32.979Z</time></trkpt><trkpt lat="44.76860835351166" lon="12.156592944543739"><ele>-2.0</ele><time>2026-03-28T14:46:33.979Z</time></trkpt><trkpt lat="44.76851952475171" lon="12.156312537110162"><ele>-2.0</ele><time>2026-03-28T14:46:34.979Z</time></trkpt><trkpt lat="44.7684510175723" lon="12.15601326384444"><ele>-2.0</ele><time>2026-03-28T14:46:35.979Z</time></trkpt><trkpt lat="44.76840976814242" lon="12.15569868869927"><ele>-2.5</ele><time>2026-03-28T14:46:36.979Z</time></trkpt><trkpt lat="44.76839812898108" lon="12.155367699497617"><ele>-3.0</ele><time>2026-03-28T14:46:37.979Z</time></trkpt><trkpt lat="44.76840365262737" lon="12.155024024066577"><ele>-3.5</ele><time>2026-03-28T14:46:38.979Z</time></trkpt><trkpt lat="44.76839297304427" lon="12.154675654085834"><ele>-4.0</ele><time>2026-03-28T14:46:39.979Z</time></trkpt><trkpt lat="44.768389660436384" lon="12.154334849563687"><ele>-3.5</ele><time>2026-03-28T14:46:40.979Z</time></trkpt><trkpt lat="44.76838101275595" lon="12.153998396010751"><ele>-3.0</ele><time>2026-03-28T14:46:41.979Z</time></trkpt><trkpt lat="44.768378970900336" lon="12.153665775329804"><ele>-3.0</ele><time>2026-03-28T14:46:42.979Z</time></trkpt><trkpt lat="44.76836522751133" lon="12.153327238201925"><ele>-3.0</ele><time>2026-03-28T14:46:43.979Z</time></trkpt><trkpt lat="44.768350063412335" lon="12.153007572473308"><ele>-3.333333333333333</ele><time>2026-03-28T14:46:44.979Z</time></trkpt><trkpt lat="44.76833956173991" lon="12.152725231196627"><ele>-3.6666666666666665</ele><time>2026-03-28T14:46:45.979Z</time></trkpt><trkpt lat="44.76833355470148" lon="12.152463879664873"><ele>-4.0</ele><time>2026-03-28T14:46:46.979Z</time></trkpt><trkpt lat="44.76832841334105" lon="12.152226249591465"><ele>-2.6666666666666665</ele><time>2026-03-28T14:46:47.979Z</time></trkpt><trkpt lat="44.76831741257098" lon="12.152013318420165"><ele>-1.3333333333333333</ele><time>2026-03-28T14:46:48.979Z</time></trkpt><trkpt lat="44.76830793246092" lon="12.151793981944332"><ele>0.0</ele><time>2026-03-28T14:46:49.979Z</time></trkpt><trkpt lat="44.768303625159" lon="12.151578216507772"><ele>0.5</ele><time>2026-03-28T14:46:50.979Z</time></trkpt><trkpt lat="44.76830070861192" lon="12.151381832025585"><ele>1.0</ele><time>2026-03-28T14:46:51.979Z</time></trkpt><trkpt lat="44.76830164264718" lon="12.151222574023116"><ele>1.5</ele><time>2026-03-28T14:46:52.979Z</time></trkpt><trkpt lat="44.7683048500007" lon="12.151071877577799"><ele>2.0</ele><time>2026-03-28T14:46:53.979Z</time></trkpt><trkpt lat="44.76832166157775" lon="12.150943652227362"><ele>2.0</ele><time>2026-03-28T14:46:54.979Z</time></trkpt><trkpt lat="44.76835149785903" lon="12.150833160125526"><ele>2.0</ele><time>2026-03-28T14:46:55.979Z</time></trkpt><trkpt lat="44.76839811695053" lon="12.1507259437323"><ele>2.0</ele><time>2026-03-28T14:46:56.979Z</time></trkpt><trkpt lat="44.76845623412418" lon="12.15060499394206"><ele>2.0</ele><time>2026-03-28T14:46:57.979Z</time></trkpt><trkpt lat="44.76853942114885" lon="12.150492557126412"><ele>2.0</ele><time>2026-03-28T14:46:58.979Z</time></trkpt><trkpt lat="44.76864890945165" lon="12.15040327226227"><ele>1.6666666666666665</ele><time>2026-03-28T14:46:59.979Z</time></trkpt><trkpt lat="44.768802489517626" lon="12.150339006591846"><ele>1.3333333333333333</ele><time>2026-03-28T14:47:00.979Z</time></trkpt><trkpt lat="44.76898078294203" lon="12.150312629775291"><ele>1.0</ele><time>2026-03-28T14:47:01.979Z</time></trkpt><trkpt lat="44.76917518189787" lon="12.150277307713745"><ele>-0.33333333333333337</ele><time>2026-03-28T14:47:02.979Z</time></trkpt><trkpt lat="44.769374500573605" lon="12.150241632767782"><ele>-1.6666666666666667</ele><time>2026-03-28T14:47:03.979Z</time></trkpt><trkpt lat="44.769580076936066" lon="12.150198432495431"><ele>-3.0</ele><time>2026-03-28T14:47:04.979Z</time></trkpt><trkpt lat="44.769804069027636" lon="12.150157724336474"><ele>-3.0</ele><time>2026-03-28T14:47:05.979Z</time></trkpt><trkpt lat="44.7700188407033" lon="12.150096978740534"><ele>-3.0</ele><time>2026-03-28T14:47:06.978Z</time></trkpt><trkpt lat="44.770233032993474" lon="12.149991769358556"><ele>-3.0</ele><time>2026-03-28T14:47:07.978Z</time></trkpt><trkpt lat="44.770438175622914" lon="12.14985105855682"><ele>-3.0</ele><time>2026-03-28T14:47:08.978Z</time></trkpt><trkpt lat="44.77063255439871" lon="12.149686542372152"><ele>-3.0</ele><time>2026-03-28T14:47:09.978Z</time></trkpt><trkpt lat="44.770815311312745" lon="12.149454350961857"><ele>-3.0</ele><time>2026-03-28T14:47:10.978Z</time></trkpt><trkpt lat="44.7709909356969" lon="12.149209692841941"><ele>-3.0</ele><time>2026-03-28T14:47:11.978Z</time></trkpt><trkpt lat="44.7711574143425" lon="12.148950695122652"><ele>-3.0</ele><time>2026-03-28T14:47:12.978Z</time></trkpt><trkpt lat="44.771304736563955" lon="12.148671180798173"><ele>-3.0</ele><time>2026-03-28T14:47:13.978Z</time></trkpt><trkpt lat="44.77145410173503" lon="12.148369087918805"><ele>-2.5</ele><time>2026-03-28T14:47:14.978Z</time></trkpt><trkpt lat="44.771590885083576" lon="12.148065192349565"><ele>-2.0</ele><time>2026-03-28T14:47:15.978Z</time></trkpt><trkpt lat="44.77172867810055" lon="12.147759053605656"><ele>-2.5</ele><time>2026-03-28T14:47:16.978Z</time></trkpt><trkpt lat="44.77186517978225" lon="12.147455783867313"><ele>-3.0</ele><time>2026-03-28T14:47:17.978Z</time></trkpt><trkpt lat="44.77200076221596" lon="12.147154556500817"><ele>-3.0</ele><time>2026-03-28T14:47:18.978Z</time></trkpt><trkpt lat="44.77212942921436" lon="12.146842852605948"><ele>-3.0</ele><time>2026-03-28T14:47:19.978Z</time></trkpt><trkpt lat="44.772263059874994" lon="12.146534085776354"><ele>-2.5</ele><time>2026-03-28T14:47:20.978Z</time></trkpt><trkpt lat="44.77240299804572" lon="12.146231142523527"><ele>-2.0</ele><time>2026-03-28T14:47:21.978Z</time></trkpt><trkpt lat="44.772544092376265" lon="12.145927945009108"><ele>-2.0</ele><time>2026-03-28T14:47:22.978Z</time></trkpt><trkpt lat="44.77268067191872" lon="12.145622762018315"><ele>-2.0</ele><time>2026-03-28T14:47:23.978Z</time></trkpt><trkpt lat="44.77281781902387" lon="12.14531557776737"><ele>-2.0</ele><time>2026-03-28T14:47:24.978Z</time></trkpt><trkpt lat="44.772959151395234" lon="12.145012450826556"><ele>-2.0</ele><time>2026-03-28T14:47:25.978Z</time></trkpt><trkpt lat="44.77309593205415" lon="12.144710227097585"><ele>-2.0</ele><time>2026-03-28T14:47:26.978Z</time></trkpt><trkpt lat="44.77322759694949" lon="12.144413208738573"><ele>-2.0</ele><time>2026-03-28T14:47:27.978Z</time></trkpt><trkpt lat="44.773343725877716" lon="12.144118964577922"><ele>-2.5</ele><time>2026-03-28T14:47:28.978Z</time></trkpt><trkpt lat="44.773448351992656" lon="12.143816653040648"><ele>-3.0</ele><time>2026-03-28T14:47:29.978Z</time></trkpt><trkpt lat="44.77353877127044" lon="12.143508005299987"><ele>-3.0</ele><time>2026-03-28T14:47:30.978Z</time></trkpt><trkpt lat="44.77364953149949" lon="12.143216255294222"><ele>-3.0</ele><time>2026-03-28T14:47:31.978Z</time></trkpt><trkpt lat="44.7737087185451" lon="12.14289179177424"><ele>-3.0</ele><time>2026-03-28T14:47:32.978Z</time></trkpt><trkpt lat="44.77374966288229" lon="12.142559091188348"><ele>-3.0</ele><time>2026-03-28T14:47:33.978Z</time></trkpt><trkpt lat="44.77375883584918" lon="12.142206068614502"><ele>-2.5</ele><time>2026-03-28T14:47:34.978Z</time></trkpt><trkpt lat="44.77375260423702" lon="12.141841999669404"><ele>-2.0</ele><time>2026-03-28T14:47:35.978Z</time></trkpt><trkpt lat="44.77372361928599" lon="12.141475332995709"><ele>-2.0</ele><time>2026-03-28T14:47:36.978Z</time></trkpt><trkpt lat="44.77368868092185" lon="12.141097155758816"><ele>-2.0</ele><time>2026-03-28T14:47:37.978Z</time></trkpt><trkpt lat="44.773641669280025" lon="12.140722443261767"><ele>-1.5</ele><time>2026-03-28T14:47:38.978Z</time></trkpt><trkpt lat="44.77359648294993" lon="12.140341898297354"><ele>-1.0</ele><time>2026-03-28T14:47:39.978Z</time></trkpt><trkpt lat="44.77358081045683" lon="12.13997064674287"><ele>-1.5</ele><time>2026-03-28T14:47:40.978Z</time></trkpt><trkpt lat="44.77355436189721" lon="12.139598401802717"><ele>-2.0</ele><time>2026-03-28T14:47:41.978Z</time></trkpt><trkpt lat="44.77352710216324" lon="12.139223155966093"><ele>-2.5</ele><time>2026-03-28T14:47:42.978Z</time></trkpt><trkpt lat="44.773499545986915" lon="12.138849821683989"><ele>-3.0</ele><time>2026-03-28T14:47:43.978Z</time></trkpt><trkpt lat="44.773471242365254" lon="12.138471503071466"><ele>-2.5</ele><time>2026-03-28T14:47:44.978Z</time></trkpt><trkpt lat="44.773442667426615" lon="12.138089557906403"><ele>-2.0</ele><time>2026-03-28T14:47:45.978Z</time></trkpt><trkpt lat="44.77341428505879" lon="12.137704189733249"><ele>-2.0</ele><time>2026-03-28T14:47:46.978Z</time></trkpt><trkpt lat="44.77338634798571" lon="12.137317552019814"><ele>-2.0</ele><time>2026-03-28T14:47:47.978Z</time></trkpt><trkpt lat="44.77335883208961" lon="12.136936743250281"><ele>-2.0</ele><time>2026-03-28T14:47:48.978Z</time></trkpt><trkpt lat="44.77333139733792" lon="12.136557057462682"><ele>-2.0</ele><time>2026-03-28T14:47:49.978Z</time></trkpt><trkpt lat="44.773303880079375" lon="12.136176229815199"><ele>-2.0</ele><time>2026-03-28T14:47:50.978Z</time></trkpt><trkpt lat="44.77327633635832" lon="12.135795035925648"><ele>-2.0</ele><time>2026-03-28T14:47:51.978Z</time></trkpt><trkpt lat="44.77324911888949" lon="12.135414557339555"><ele>-2.0</ele><time>2026-03-28T14:47:52.978Z</time></trkpt><trkpt lat="44.77322256061742" lon="12.135042136893158"><ele>-2.0</ele><time>2026-03-28T14:47:53.978Z</time></trkpt><trkpt lat="44.773195403240805" lon="12.134665734392772"><ele>-2.0</ele><time>2026-03-28T14:47:54.978Z</time></trkpt><trkpt lat="44.77316807881272" lon="12.134289525862306"><ele>-2.0</ele><time>2026-03-28T14:47:55.978Z</time></trkpt><trkpt lat="44.77314187792485" lon="12.133928786487697"><ele>-3.0</ele><time>2026-03-28T14:47:56.978Z</time></trkpt><trkpt lat="44.77310187669122" lon="12.133592041550743"><ele>-4.0</ele><time>2026-03-28T14:47:57.978Z</time></trkpt><trkpt lat="44.77308339440383" lon="12.133276568197335"><ele>-4.0</ele><time>2026-03-28T14:47:58.978Z</time></trkpt><trkpt lat="44.773064867985816" lon="12.1329782526516"><ele>-4.0</ele><time>2026-03-28T14:47:59.978Z</time></trkpt><trkpt lat="44.773047448852104" lon="12.132705433319144"><ele>-4.0</ele><time>2026-03-28T14:48:00.978Z</time></trkpt><trkpt lat="44.77302798832965" lon="12.132454588747187"><ele>-4.0</ele><time>2026-03-28T14:48:01.977Z</time></trkpt><trkpt lat="44.773014389194124" lon="12.1322175602702"><ele>-4.0</ele><time>2026-03-28T14:48:02.977Z</time></trkpt><trkpt lat="44.77300475919265" lon="12.131980442142735"><ele>-4.0</ele><time>2026-03-28T14:48:03.977Z</time></trkpt><trkpt lat="44.77299394047232" lon="12.131746517918412"><ele>-3.75</ele><time>2026-03-28T14:48:04.977Z</time></trkpt><trkpt lat="44.77298434332958" lon="12.131545529846969"><ele>-3.5</ele><time>2026-03-28T14:48:05.977Z</time></trkpt><trkpt lat="44.77298692223047" lon="12.131384139904707"><ele>-3.25</ele><time>2026-03-28T14:48:06.979Z</time></trkpt><trkpt lat="44.772999729930845" lon="12.13124541721662"><ele>-3.0</ele><time>2026-03-28T14:48:07.98Z</time></trkpt><trkpt lat="44.77301867244189" lon="12.13111192493303"><ele>-3.0</ele><time>2026-03-28T14:48:08.98Z</time></trkpt><trkpt lat="44.77302912796583" lon="12.130977891201017"><ele>-3.0</ele><time>2026-03-28T14:48:09.979Z</time></trkpt><trkpt lat="44.77302987320871" lon="12.130848960711136"><ele>-3.0</ele><time>2026-03-28T14:48:10.98Z</time></trkpt><trkpt lat="44.77311786120212" lon="12.130704984071148"><ele>-3.0</ele><time>2026-03-28T14:48:11.98Z</time></trkpt><trkpt lat="44.77318814267432" lon="12.130577533196863"><ele>-3.0</ele><time>2026-03-28T14:48:12.979Z</time></trkpt><trkpt lat="44.77329963998163" lon="12.130465358992502"><ele>-3.0</ele><time>2026-03-28T14:48:13.979Z</time></trkpt><trkpt lat="44.773438986910406" lon="12.130373295360721"><ele>-3.0</ele><time>2026-03-28T14:48:14.979Z</time></trkpt><trkpt lat="44.77359288839765" lon="12.130290178134066"><ele>-3.0</ele><time>2026-03-28T14:48:15.979Z</time></trkpt><trkpt lat="44.77375798047558" lon="12.130213297807394"><ele>-3.0</ele><time>2026-03-28T14:48:16.98Z</time></trkpt><trkpt lat="44.773909813367645" lon="12.130117694807236"><ele>-3.0</ele><time>2026-03-28T14:48:17.98Z</time></trkpt><trkpt lat="44.77405881920903" lon="12.129995852959883"><ele>-3.0</ele><time>2026-03-28T14:48:18.979Z</time></trkpt><trkpt lat="44.774211989669716" lon="12.129876347052862"><ele>-2.6666666666666665</ele><time>2026-03-28T14:48:19.979Z</time></trkpt><trkpt lat="44.77437577554041" lon="12.129776269289549"><ele>-2.333333333333333</ele><time>2026-03-28T14:48:20.979Z</time></trkpt><trkpt lat="44.77455340901584" lon="12.129697122712711"><ele>-2.0</ele><time>2026-03-28T14:48:21.979Z</time></trkpt><trkpt lat="44.7747394748629" lon="12.129623241736782"><ele>-2.0</ele><time>2026-03-28T14:48:22.979Z</time></trkpt><trkpt lat="44.77492572709187" lon="12.12952189708582"><ele>-2.0</ele><time>2026-03-28T14:48:23.979Z</time></trkpt><trkpt lat="44.77511129107639" lon="12.129396626574085"><ele>-2.0</ele><time>2026-03-28T14:48:24.979Z</time></trkpt><trkpt lat="44.77530108615206" lon="12.12925121112764"><ele>-1.5</ele><time>2026-03-28T14:48:25.979Z</time></trkpt><trkpt lat="44.775496870715656" lon="12.129099517552493"><ele>-1.0</ele><time>2026-03-28T14:48:26.979Z</time></trkpt><trkpt lat="44.775696883725196" lon="12.128941983733386"><ele>-1.0</ele><time>2026-03-28T14:48:27.979Z</time></trkpt><trkpt lat="44.7758934762964" lon="12.128783117249895"><ele>-1.0</ele><time>2026-03-28T14:48:28.979Z</time></trkpt><trkpt lat="44.776088842257245" lon="12.128608945367446"><ele>-1.5</ele><time>2026-03-28T14:48:29.979Z</time></trkpt><trkpt lat="44.77627725539227" lon="12.128418707178637"><ele>-2.0</ele><time>2026-03-28T14:48:30.979Z</time></trkpt><trkpt lat="44.7764583414983" lon="12.12822645410671"><ele>-2.0</ele><time>2026-03-28T14:48:31.979Z</time></trkpt><trkpt lat="44.77662685164055" lon="12.128045431573897"><ele>-2.0</ele><time>2026-03-28T14:48:32.979Z</time></trkpt><trkpt lat="44.77677913981104" lon="12.127874924570289"><ele>-2.0</ele><time>2026-03-28T14:48:33.979Z</time></trkpt><trkpt lat="44.776915844362044" lon="12.127735186171126"><ele>-2.0</ele><time>2026-03-28T14:48:34.979Z</time></trkpt><trkpt lat="44.7770520204327" lon="12.12763704536755"><ele>-2.0</ele><time>2026-03-28T14:48:35.979Z</time></trkpt><trkpt lat="44.7772002271642" lon="12.127555037705687"><ele>-2.0</ele><time>2026-03-28T14:48:36.979Z</time></trkpt><trkpt lat="44.777361536628746" lon="12.127513894482139"><ele>-2.0</ele><time>2026-03-28T14:48:37.979Z</time></trkpt><trkpt lat="44.777545625913795" lon="12.127521744477983"><ele>-2.0</ele><time>2026-03-28T14:48:38.979Z</time></trkpt><trkpt lat="44.77774633807132" lon="12.127560580330794"><ele>-2.0</ele><time>2026-03-28T14:48:39.979Z</time></trkpt><trkpt lat="44.77795718025159" lon="12.1276116387361"><ele>-2.0</ele><time>2026-03-28T14:48:40.979Z</time></trkpt><trkpt lat="44.77816816527186" lon="12.127673449167727"><ele>-2.0</ele><time>2026-03-28T14:48:41.979Z</time></trkpt><trkpt lat="44.778373024843" lon="12.127725955829114"><ele>-2.0</ele><time>2026-03-28T14:48:42.979Z</time></trkpt><trkpt lat="44.778564630855605" lon="12.127760045591053"><ele>-2.0</ele><time>2026-03-28T14:48:43.979Z</time></trkpt><trkpt lat="44.77875118531679" lon="12.12776519773528"><ele>-2.0</ele><time>2026-03-28T14:48:44.979Z</time></trkpt><trkpt lat="44.77893583104361" lon="12.127753094449394"><ele>-2.0</ele><time>2026-03-28T14:48:45.979Z</time></trkpt><trkpt lat="44.77912008732977" lon="12.12773131419444"><ele>-2.0</ele><time>2026-03-28T14:48:46.979Z</time></trkpt><trkpt lat="44.77930873298182" lon="12.127715513359753"><ele>-2.0</ele><time>2026-03-28T14:48:47.979Z</time></trkpt><trkpt lat="44.77949693399751" lon="12.12771341274259"><ele>-2.0</ele><time>2026-03-28T14:48:48.979Z</time></trkpt><trkpt lat="44.77968364264012" lon="12.127742625845455"><ele>-2.0</ele><time>2026-03-28T14:48:49.979Z</time></trkpt><trkpt lat="44.77986524976491" lon="12.127789265087689"><ele>-2.0</ele><time>2026-03-28T14:48:50.979Z</time></trkpt><trkpt lat="44.78004769515523" lon="12.127839415392721"><ele>-2.0</ele><time>2026-03-28T14:48:51.979Z</time></trkpt><trkpt lat="44.78023163310329" lon="12.127889967165775"><ele>-1.6666666666666665</ele><time>2026-03-28T14:48:52.979Z</time></trkpt><trkpt lat="44.780413043571556" lon="12.127933399899852"><ele>-1.3333333333333333</ele><time>2026-03-28T14:48:53.979Z</time></trkpt><trkpt lat="44.78058673890584" lon="12.127960984357106"><ele>-1.0</ele><time>2026-03-28T14:48:54.979Z</time></trkpt><trkpt lat="44.780746531881626" lon="12.12797310733805"><ele>-1.0</ele><time>2026-03-28T14:48:55.979Z</time></trkpt><trkpt lat="44.78089252784775" lon="12.127963807810405"><ele>-1.0</ele><time>2026-03-28T14:48:56.979Z</time></trkpt><trkpt lat="44.78103815335927" lon="12.127928710749313"><ele>-1.0</ele><time>2026-03-28T14:48:57.979Z</time></trkpt><trkpt lat="44.78118307724939" lon="12.127877114837665"><ele>-1.0</ele><time>2026-03-28T14:48:58.979Z</time></trkpt><trkpt lat="44.78131188772151" lon="12.127793330591333"><ele>-0.75</ele><time>2026-03-28T14:48:59.979Z</time></trkpt><trkpt lat="44.78141141532633" lon="12.127714091584751"><ele>-0.5</ele><time>2026-03-28T14:49:00.979Z</time></trkpt><trkpt lat="44.78149256996443" lon="12.127612890946503"><ele>-0.25</ele><time>2026-03-28T14:49:01.979Z</time></trkpt><trkpt lat="44.7815631220429" lon="12.127472478588876"><ele>0.0</ele><time>2026-03-28T14:49:02.979Z</time></trkpt><trkpt lat="44.781618653186094" lon="12.127275863620456"><ele>-0.6666666666666666</ele><time>2026-03-28T14:49:03.979Z</time></trkpt><trkpt lat="44.78167015561853" lon="12.127050061770154"><ele>-1.3333333333333333</ele><time>2026-03-28T14:49:04.979Z</time></trkpt><trkpt lat="44.78171659159273" lon="12.126816646724038"><ele>-2.0</ele><time>2026-03-28T14:49:05.979Z</time></trkpt><trkpt lat="44.78176304622396" lon="12.126591391696053"><ele>-2.0</ele><time>2026-03-28T14:49:06.979Z</time></trkpt><trkpt lat="44.78180553094041" lon="12.126366924091739"><ele>-2.0</ele><time>2026-03-28T14:49:07.979Z</time></trkpt><trkpt lat="44.78186295628942" lon="12.126156268187716"><ele>-2.0</ele><time>2026-03-28T14:49:08.978Z</time></trkpt><trkpt lat="44.78192687855634" lon="12.125947284156418"><ele>-1.6666666666666665</ele><time>2026-03-28T14:49:09.978Z</time></trkpt><trkpt lat="44.78199923636576" lon="12.125731061738325"><ele>-1.3333333333333333</ele><time>2026-03-28T14:49:10.978Z</time></trkpt><trkpt lat="44.78207583204306" lon="12.125509906497381"><ele>-1.0</ele><time>2026-03-28T14:49:11.978Z</time></trkpt><trkpt lat="44.782175287699005" lon="12.125301234556622"><ele>-1.0</ele><time>2026-03-28T14:49:12.978Z</time></trkpt><trkpt lat="44.78226494954756" lon="12.125073941201927"><ele>-1.0</ele><time>2026-03-28T14:49:13.978Z</time></trkpt><trkpt lat="44.78235327297385" lon="12.124865393578313"><ele>-1.0</ele><time>2026-03-28T14:49:14.978Z</time></trkpt><trkpt lat="44.782485866837256" lon="12.12469842863752"><ele>-1.0</ele><time>2026-03-28T14:49:15.978Z</time></trkpt><trkpt lat="44.782575022505945" lon="12.124473880192578"><ele>-1.0</ele><time>2026-03-28T14:49:16.978Z</time></trkpt><trkpt lat="44.78265923545556" lon="12.124231980208638"><ele>-1.0</ele><time>2026-03-28T14:49:17.978Z</time></trkpt><trkpt lat="44.78274072596539" lon="12.12398226841909"><ele>-1.0</ele><time>2026-03-28T14:49:18.978Z</time></trkpt><trkpt lat="44.78281779453143" lon="12.12374066601104"><ele>-1.0</ele><time>2026-03-28T14:49:19.978Z</time></trkpt><trkpt lat="44.782897005690785" lon="12.123503068748455"><ele>-1.0</ele><time>2026-03-28T14:49:20.978Z</time></trkpt><trkpt lat="44.78298439415405" lon="12.12327928676102"><ele>-1.0</ele><time>2026-03-28T14:49:21.978Z</time></trkpt><trkpt lat="44.78308409008618" lon="12.123063396174729"><ele>-1.0</ele><time>2026-03-28T14:49:22.978Z</time></trkpt><trkpt lat="44.783195193607675" lon="12.122858587549926"><ele>-1.0</ele><time>2026-03-28T14:49:23.978Z</time></trkpt><trkpt lat="44.78331667109548" lon="12.122670216450746"><ele>-1.0</ele><time>2026-03-28T14:49:24.978Z</time></trkpt><trkpt lat="44.783437956902574" lon="12.12249764093088"><ele>-1.0</ele><time>2026-03-28T14:49:25.978Z</time></trkpt><trkpt lat="44.7835590092521" lon="12.122343360789394"><ele>-1.0</ele><time>2026-03-28T14:49:26.978Z</time></trkpt><trkpt lat="44.78367150838749" lon="12.122206941418707"><ele>-1.25</ele><time>2026-03-28T14:49:27.978Z</time></trkpt><trkpt lat="44.78377275313282" lon="12.122080210037362"><ele>-1.5</ele><time>2026-03-28T14:49:28.978Z</time></trkpt><trkpt lat="44.78386478409239" lon="12.121951689758106"><ele>-1.75</ele><time>2026-03-28T14:49:29.978Z</time></trkpt><trkpt lat="44.78394879107573" lon="12.121802860061788"><ele>-2.0</ele><time>2026-03-28T14:49:30.978Z</time></trkpt><trkpt lat="44.78402404850643" lon="12.121612088900056"><ele>-1.75</ele><time>2026-03-28T14:49:31.978Z</time></trkpt><trkpt lat="44.78407706446725" lon="12.121423858747573"><ele>-1.5</ele><time>2026-03-28T14:49:32.978Z</time></trkpt><trkpt lat="44.78411981485287" lon="12.121252363923935"><ele>-1.25</ele><time>2026-03-28T14:49:33.978Z</time></trkpt><trkpt lat="44.784140015517636" lon="12.121107124278621"><ele>-1.0</ele><time>2026-03-28T14:49:34.978Z</time></trkpt><trkpt lat="44.78418287536383" lon="12.120972715072337"><ele>-1.0</ele><time>2026-03-28T14:49:35.978Z</time></trkpt><trkpt lat="44.78424610956663" lon="12.120873635650357"><ele>-1.0</ele><time>2026-03-28T14:49:36.978Z</time></trkpt><trkpt lat="44.78431739779384" lon="12.120787531711706"><ele>-1.0</ele><time>2026-03-28T14:49:37.978Z</time></trkpt><trkpt lat="44.78438041977366" lon="12.120703432300509"><ele>-1.0</ele><time>2026-03-28T14:49:38.978Z</time></trkpt><trkpt lat="44.78446440547567" lon="12.120621275395397"><ele>-1.0</ele><time>2026-03-28T14:49:39.978Z</time></trkpt><trkpt lat="44.78455195155718" lon="12.12052083975406"><ele>-1.3333333333333333</ele><time>2026-03-28T14:49:40.978Z</time></trkpt><trkpt lat="44.784690636195464" lon="12.120450435668738"><ele>-1.6666666666666665</ele><time>2026-03-28T14:49:41.978Z</time></trkpt><trkpt lat="44.78483093943931" lon="12.120349377678279"><ele>-2.0</ele><time>2026-03-28T14:49:42.978Z</time></trkpt><trkpt lat="44.78499210977539" lon="12.1202349726684"><ele>-2.0</ele><time>2026-03-28T14:49:43.978Z</time></trkpt><trkpt lat="44.785157107403286" lon="12.120140291960887"><ele>-2.0</ele><time>2026-03-28T14:49:44.978Z</time></trkpt><trkpt lat="44.785329776201756" lon="12.12003435241651"><ele>-2.0</ele><time>2026-03-28T14:49:45.978Z</time></trkpt><trkpt lat="44.78550302123727" lon="12.119919944204977"><ele>-1.6666666666666665</ele><time>2026-03-28T14:49:46.978Z</time></trkpt><trkpt lat="44.785683256352776" lon="12.119815364815556"><ele>-1.3333333333333333</ele><time>2026-03-28T14:49:47.978Z</time></trkpt><trkpt lat="44.78583972364424" lon="12.11972907017761"><ele>-1.0</ele><time>2026-03-28T14:49:48.978Z</time></trkpt><trkpt lat="44.785975518967774" lon="12.119643890269943"><ele>-1.0</ele><time>2026-03-28T14:49:49.978Z</time></trkpt><trkpt lat="44.786127478426444" lon="12.119574592562092"><ele>-1.0</ele><time>2026-03-28T14:49:50.978Z</time></trkpt><trkpt lat="44.78627730759603" lon="12.119452053384414"><ele>-1.0</ele><time>2026-03-28T14:49:51.978Z</time></trkpt><trkpt lat="44.78644506809765" lon="12.119361879855376"><ele>-1.0</ele><time>2026-03-28T14:49:52.978Z</time></trkpt><trkpt lat="44.78661283296084" lon="12.119258319153515"><ele>-1.0</ele><time>2026-03-28T14:49:53.978Z</time></trkpt><trkpt lat="44.7867815362975" lon="12.119163646670119"><ele>-1.0</ele><time>2026-03-28T14:49:54.978Z</time></trkpt><trkpt lat="44.78697651160819" lon="12.119090558205176"><ele>-1.6666666666666665</ele><time>2026-03-28T14:49:55.978Z</time></trkpt><trkpt lat="44.78716777816526" lon="12.118962607925374"><ele>-2.3333333333333335</ele><time>2026-03-28T14:49:56.978Z</time></trkpt><trkpt lat="44.787378509352116" lon="12.118840394745224"><ele>-3.0</ele><time>2026-03-28T14:49:57.978Z</time></trkpt><trkpt lat="44.78759667391747" lon="12.118719716939813"><ele>-3.0</ele><time>2026-03-28T14:49:58.978Z</time></trkpt><trkpt lat="44.78782116527208" lon="12.118595158239643"><ele>-3.0</ele><time>2026-03-28T14:49:59.978Z</time></trkpt><trkpt lat="44.78804974628836" lon="12.118484947697965"><ele>-3.0</ele><time>2026-03-28T14:50:00.978Z</time></trkpt><trkpt lat="44.78828546888751" lon="12.11837391866226"><ele>-3.0</ele><time>2026-03-28T14:50:01.978Z</time></trkpt><trkpt lat="44.78851745266782" lon="12.118249157379093"><ele>-3.5</ele><time>2026-03-28T14:50:02.978Z</time></trkpt><trkpt lat="44.78874686386199" lon="12.118135549934589"><ele>-4.0</ele><time>2026-03-28T14:50:03.977Z</time></trkpt><trkpt lat="44.78897203077253" lon="12.11802739279027"><ele>-4.0</ele><time>2026-03-28T14:50:04.977Z</time></trkpt><trkpt lat="44.78919181732292" lon="12.117922152643434"><ele>-4.0</ele><time>2026-03-28T14:50:05.977Z</time></trkpt><trkpt lat="44.78940340858068" lon="12.117834346480365"><ele>-3.6666666666666665</ele><time>2026-03-28T14:50:06.977Z</time></trkpt><trkpt lat="44.789612612144914" lon="12.117761398485314"><ele>-3.333333333333333</ele><time>2026-03-28T14:50:07.977Z</time></trkpt><trkpt lat="44.78981294041012" lon="12.117681014008221"><ele>-3.0</ele><time>2026-03-28T14:50:08.977Z</time></trkpt><trkpt lat="44.79001450195407" lon="12.117606432681903"><ele>-2.6666666666666665</ele><time>2026-03-28T14:50:09.977Z</time></trkpt><trkpt lat="44.790220978473165" lon="12.11753454476005"><ele>-2.333333333333333</ele><time>2026-03-28T14:50:10.977Z</time></trkpt><trkpt lat="44.79043662679922" lon="12.1174665611315"><ele>-2.0</ele><time>2026-03-28T14:50:11.977Z</time></trkpt><trkpt lat="44.790658739967014" lon="12.117395571228577"><ele>-2.0</ele><time>2026-03-28T14:50:12.978Z</time></trkpt><trkpt lat="44.79087469710451" lon="12.11732348891335"><ele>-2.0</ele><time>2026-03-28T14:50:13.978Z</time></trkpt><trkpt lat="44.791101475276356" lon="12.117282030956334"><ele>-2.0</ele><time>2026-03-28T14:50:14.978Z</time></trkpt><trkpt lat="44.79132529958195" lon="12.117236848504984"><ele>-2.0</ele><time>2026-03-28T14:50:15.979Z</time></trkpt><trkpt lat="44.791546336711775" lon="12.117204184507974"><ele>-2.0</ele><time>2026-03-28T14:50:16.979Z</time></trkpt><trkpt lat="44.79176561306216" lon="12.117188934784581"><ele>-2.0</ele><time>2026-03-28T14:50:17.979Z</time></trkpt><trkpt lat="44.791985220419534" lon="12.117184398617239"><ele>-2.0</ele><time>2026-03-28T14:50:18.978Z</time></trkpt><trkpt lat="44.79221015673956" lon="12.117160598465151"><ele>-2.0</ele><time>2026-03-28T14:50:19.978Z</time></trkpt><trkpt lat="44.792426615245226" lon="12.117065507964119"><ele>-2.0</ele><time>2026-03-28T14:50:20.978Z</time></trkpt><trkpt lat="44.792650325616755" lon="12.116972192675176"><ele>-2.0</ele><time>2026-03-28T14:50:21.979Z</time></trkpt><trkpt lat="44.792883891247804" lon="12.11687492931574"><ele>-2.5</ele><time>2026-03-28T14:50:22.978Z</time></trkpt><trkpt lat="44.793128305131624" lon="12.116782672152208"><ele>-3.0</ele><time>2026-03-28T14:50:23.978Z</time></trkpt><trkpt lat="44.79337894600451" lon="12.11669846957998"><ele>-3.0</ele><time>2026-03-28T14:50:24.978Z</time></trkpt><trkpt lat="44.79363449872589" lon="12.116624251806382"><ele>-3.0</ele><time>2026-03-28T14:50:25.979Z</time></trkpt><trkpt lat="44.793893409006394" lon="12.116557108843379"><ele>-3.0</ele><time>2026-03-28T14:50:26.979Z</time></trkpt><trkpt lat="44.79415089868334" lon="12.116485868569958"><ele>-3.0</ele><time>2026-03-28T14:50:27.979Z</time></trkpt><trkpt lat="44.79440784990653" lon="12.116417689149793"><ele>-3.0</ele><time>2026-03-28T14:50:28.979Z</time></trkpt><trkpt lat="44.79466251708483" lon="12.11634794455126"><ele>-3.0</ele><time>2026-03-28T14:50:29.979Z</time></trkpt><trkpt lat="44.79491613271252" lon="12.116273496902895"><ele>-3.0</ele><time>2026-03-28T14:50:30.979Z</time></trkpt><trkpt lat="44.79516079735064" lon="12.11620203699002"><ele>-3.0</ele><time>2026-03-28T14:50:31.979Z</time></trkpt><trkpt lat="44.79537314967018" lon="12.116149658085753"><ele>-2.6666666666666665</ele><time>2026-03-28T14:50:32.978Z</time></trkpt><trkpt lat="44.795560464106096" lon="12.116148545539565"><ele>-2.333333333333333</ele><time>2026-03-28T14:50:33.978Z</time></trkpt><trkpt lat="44.79571441036433" lon="12.116119372554616"><ele>-2.0</ele><time>2026-03-28T14:50:34.978Z</time></trkpt><trkpt lat="44.795859572058" lon="12.116094135176633"><ele>-2.0</ele><time>2026-03-28T14:50:35.978Z</time></trkpt><trkpt lat="44.79601306529064" lon="12.116066061744212"><ele>-2.0</ele><time>2026-03-28T14:50:36.978Z</time></trkpt><trkpt lat="44.7961629149659" lon="12.116039727315991"><ele>-2.0</ele><time>2026-03-28T14:50:37.978Z</time></trkpt><trkpt lat="44.79633173583545" lon="12.116008152441097"><ele>-2.0</ele><time>2026-03-28T14:50:38.978Z</time></trkpt><trkpt lat="44.79651720526347" lon="12.115972130325929"><ele>-2.0</ele><time>2026-03-28T14:50:39.978Z</time></trkpt><trkpt lat="44.79671881680024" lon="12.115922268895712"><ele>-2.0</ele><time>2026-03-28T14:50:40.978Z</time></trkpt><trkpt lat="44.79692857367111" lon="12.115858752217973"><ele>-2.0</ele><time>2026-03-28T14:50:41.978Z</time></trkpt><trkpt lat="44.79715027549052" lon="12.115793427563938"><ele>-2.0</ele><time>2026-03-28T14:50:42.978Z</time></trkpt><trkpt lat="44.79737961273067" lon="12.11572017507479"><ele>-2.0</ele><time>2026-03-28T14:50:43.978Z</time></trkpt><trkpt lat="44.797621464481104" lon="12.115645671516766"><ele>-2.0</ele><time>2026-03-28T14:50:44.978Z</time></trkpt><trkpt lat="44.79786310839751" lon="12.115566816597143"><ele>-1.5</ele><time>2026-03-28T14:50:45.978Z</time></trkpt><trkpt lat="44.798107036859385" lon="12.11548221235703"><ele>-1.0</ele><time>2026-03-28T14:50:46.978Z</time></trkpt><trkpt lat="44.79835204525952" lon="12.115400882143623"><ele>-1.5</ele><time>2026-03-28T14:50:47.978Z</time></trkpt><trkpt lat="44.798596252704336" lon="12.115309634443244"><ele>-2.0</ele><time>2026-03-28T14:50:48.978Z</time></trkpt><trkpt lat="44.79883238068174" lon="12.11519935461668"><ele>-2.0</ele><time>2026-03-28T14:50:49.978Z</time></trkpt><trkpt lat="44.79905964454422" lon="12.115078148337975"><ele>-2.0</ele><time>2026-03-28T14:50:50.978Z</time></trkpt><trkpt lat="44.79928992064998" lon="12.114942642363562"><ele>-1.5</ele><time>2026-03-28T14:50:51.978Z</time></trkpt><trkpt lat="44.79950541107855" lon="12.114809251357514"><ele>-1.0</ele><time>2026-03-28T14:50:52.978Z</time></trkpt><trkpt lat="44.79971902639484" lon="12.114669006251443"><ele>-1.0</ele><time>2026-03-28T14:50:53.978Z</time></trkpt><trkpt lat="44.79991792355198" lon="12.11454544818619"><ele>-1.0</ele><time>2026-03-28T14:50:54.978Z</time></trkpt><trkpt lat="44.80012097180218" lon="12.11440672008699"><ele>-1.0</ele><time>2026-03-28T14:50:55.978Z</time></trkpt><trkpt lat="44.80031376764045" lon="12.11423599729479"><ele>-2.0</ele><time>2026-03-28T14:50:56.978Z</time></trkpt><trkpt lat="44.80050132319979" lon="12.11403809248831"><ele>-3.0</ele><time>2026-03-28T14:50:57.978Z</time></trkpt><trkpt lat="44.80068921892682" lon="12.11382386558658"><ele>-3.0</ele><time>2026-03-28T14:50:58.978Z</time></trkpt><trkpt lat="44.80088641329273" lon="12.113592232340553"><ele>-3.0</ele><time>2026-03-28T14:50:59.978Z</time></trkpt><trkpt lat="44.80108268421719" lon="12.113353345629697"><ele>-2.0</ele><time>2026-03-28T14:51:00.978Z</time></trkpt><trkpt lat="44.80128437066453" lon="12.113106989327424"><ele>-1.0</ele><time>2026-03-28T14:51:01.978Z</time></trkpt><trkpt lat="44.80148884210263" lon="12.112859132393188"><ele>-1.0</ele><time>2026-03-28T14:51:02.978Z</time></trkpt><trkpt lat="44.801693814683546" lon="12.112606331865683"><ele>-1.0</ele><time>2026-03-28T14:51:03.978Z</time></trkpt><trkpt lat="44.80190240713712" lon="12.11235663371511"><ele>-1.0</ele><time>2026-03-28T14:51:04.978Z</time></trkpt><trkpt lat="44.80211694183836" lon="12.11211991903479"><ele>-1.0</ele><time>2026-03-28T14:51:05.978Z</time></trkpt><trkpt lat="44.80233356275096" lon="12.11189717422776"><ele>-1.0</ele><time>2026-03-28T14:51:06.978Z</time></trkpt><trkpt lat="44.80255974363156" lon="12.11168230599447"><ele>-1.0</ele><time>2026-03-28T14:51:07.978Z</time></trkpt><trkpt lat="44.802782972064506" lon="12.111480769487926"><ele>-1.0</ele><time>2026-03-28T14:51:08.978Z</time></trkpt><trkpt lat="44.803005235052076" lon="12.111269026984496"><ele>-1.0</ele><time>2026-03-28T14:51:09.978Z</time></trkpt><trkpt lat="44.803223305630034" lon="12.111057655301261"><ele>-1.0</ele><time>2026-03-28T14:51:10.978Z</time></trkpt><trkpt lat="44.80343648163093" lon="12.110830719972022"><ele>-1.0</ele><time>2026-03-28T14:51:11.978Z</time></trkpt><trkpt lat="44.8036493615568" lon="12.110603977062812"><ele>-1.5</ele><time>2026-03-28T14:51:12.978Z</time></trkpt><trkpt lat="44.80385007728059" lon="12.11037374655728"><ele>-2.0</ele><time>2026-03-28T14:51:13.978Z</time></trkpt><trkpt lat="44.80404542302683" lon="12.110152001449508"><ele>-2.0</ele><time>2026-03-28T14:51:14.978Z</time></trkpt><trkpt lat="44.804232862266126" lon="12.109942031476297"><ele>-2.0</ele><time>2026-03-28T14:51:15.978Z</time></trkpt><trkpt lat="44.804415731570494" lon="12.109741428221565"><ele>-1.6666666666666665</ele><time>2026-03-28T14:51:16.978Z</time></trkpt><trkpt lat="44.80459683573239" lon="12.109558554985457"><ele>-1.3333333333333333</ele><time>2026-03-28T14:51:17.978Z</time></trkpt><trkpt lat="44.804786016476825" lon="12.109399605252495"><ele>-1.0</ele><time>2026-03-28T14:51:18.978Z</time></trkpt><trkpt lat="44.8049770679306" lon="12.109238154336396"><ele>-2.0</ele><time>2026-03-28T14:51:19.978Z</time></trkpt><trkpt lat="44.80517958883416" lon="12.109081972100318"><ele>-3.0</ele><time>2026-03-28T14:51:20.978Z</time></trkpt><trkpt lat="44.80537583685115" lon="12.108932501362483"><ele>-3.0</ele><time>2026-03-28T14:51:21.978Z</time></trkpt><trkpt lat="44.805564273354065" lon="12.108799250912341"><ele>-3.0</ele><time>2026-03-28T14:51:22.978Z</time></trkpt><trkpt lat="44.80574657232486" lon="12.108663135987012"><ele>-3.0</ele><time>2026-03-28T14:51:23.978Z</time></trkpt><trkpt lat="44.80592716400447" lon="12.108532330784303"><ele>-3.0</ele><time>2026-03-28T14:51:24.978Z</time></trkpt><trkpt lat="44.806110090887486" lon="12.108420919457963"><ele>-3.0</ele><time>2026-03-28T14:51:25.978Z</time></trkpt><trkpt lat="44.806297936439925" lon="12.108329502574426"><ele>-3.0</ele><time>2026-03-28T14:51:26.978Z</time></trkpt><trkpt lat="44.806509716383275" lon="12.108277207747186"><ele>-3.0</ele><time>2026-03-28T14:51:27.977Z</time></trkpt><trkpt lat="44.80672913993267" lon="12.108240869101234"><ele>-3.0</ele><time>2026-03-28T14:51:28.977Z</time></trkpt><trkpt lat="44.80695439719783" lon="12.108201920063546"><ele>-3.0</ele><time>2026-03-28T14:51:29.977Z</time></trkpt><trkpt lat="44.80719083710066" lon="12.108185155964698"><ele>-3.0</ele><time>2026-03-28T14:51:30.977Z</time></trkpt><trkpt lat="44.80743423109367" lon="12.108175301143886"><ele>-3.0</ele><time>2026-03-28T14:51:31.977Z</time></trkpt><trkpt lat="44.80768392078816" lon="12.108190290606457"><ele>-3.0</ele><time>2026-03-28T14:51:32.977Z</time></trkpt><trkpt lat="44.80792898343426" lon="12.10820905835804"><ele>-3.0</ele><time>2026-03-28T14:51:33.977Z</time></trkpt><trkpt lat="44.80818108973304" lon="12.108253164387609"><ele>-3.0</ele><time>2026-03-28T14:51:34.977Z</time></trkpt><trkpt lat="44.80843216359708" lon="12.108318785851981"><ele>-3.0</ele><time>2026-03-28T14:51:35.977Z</time></trkpt><trkpt lat="44.80867464942276" lon="12.108408848337838"><ele>-3.0</ele><time>2026-03-28T14:51:36.977Z</time></trkpt><trkpt lat="44.808908528521705" lon="12.108505813522033"><ele>-3.0</ele><time>2026-03-28T14:51:37.977Z</time></trkpt><trkpt lat="44.80913195420176" lon="12.108610782052386"><ele>-3.333333333333333</ele><time>2026-03-28T14:51:38.977Z</time></trkpt><trkpt lat="44.809345485047174" lon="12.108734119721861"><ele>-3.6666666666666665</ele><time>2026-03-28T14:51:39.977Z</time></trkpt><trkpt lat="44.80954336370412" lon="12.108863515504964"><ele>-4.0</ele><time>2026-03-28T14:51:40.977Z</time></trkpt><trkpt lat="44.8097210863951" lon="12.109025112767847"><ele>-3.333333333333333</ele><time>2026-03-28T14:51:41.977Z</time></trkpt><trkpt lat="44.80987598240231" lon="12.109216818145686"><ele>-2.6666666666666665</ele><time>2026-03-28T14:51:42.977Z</time></trkpt><trkpt lat="44.81001487599929" lon="12.109459294509746"><ele>-2.0</ele><time>2026-03-28T14:51:43.977Z</time></trkpt><trkpt lat="44.81014669414501" lon="12.10972861942952"><ele>-2.0</ele><time>2026-03-28T14:51:44.977Z</time></trkpt><trkpt lat="44.81027233395609" lon="12.110025381720353"><ele>-2.0</ele><time>2026-03-28T14:51:45.977Z</time></trkpt><trkpt lat="44.81040209192932" lon="12.110322552545728"><ele>-2.0</ele><time>2026-03-28T14:51:46.977Z</time></trkpt><trkpt lat="44.81053865471197" lon="12.11060549797515"><ele>-2.0</ele><time>2026-03-28T14:51:47.977Z</time></trkpt><trkpt lat="44.81067550667761" lon="12.110875382694994"><ele>-2.0</ele><time>2026-03-28T14:51:48.977Z</time></trkpt><trkpt lat="44.81081328328382" lon="12.111139989134434"><ele>-2.0</ele><time>2026-03-28T14:51:49.977Z</time></trkpt><trkpt lat="44.81093929733452" lon="12.111388876872036"><ele>-1.6666666666666665</ele><time>2026-03-28T14:51:50.977Z</time></trkpt><trkpt lat="44.811059812459234" lon="12.111635026717874"><ele>-1.3333333333333333</ele><time>2026-03-28T14:51:51.977Z</time></trkpt><trkpt lat="44.81117995767405" lon="12.111869181423222"><ele>-1.0</ele><time>2026-03-28T14:51:52.977Z</time></trkpt><trkpt lat="44.81130108324828" lon="12.112093269562887"><ele>-1.0</ele><time>2026-03-28T14:51:53.977Z</time></trkpt><trkpt lat="44.81142445641403" lon="12.11231097305457"><ele>-1.0</ele><time>2026-03-28T14:51:54.977Z</time></trkpt><trkpt lat="44.81154260956949" lon="12.112519234541868"><ele>-1.0</ele><time>2026-03-28T14:51:55.977Z</time></trkpt><trkpt lat="44.81177250051265" lon="12.112931637343198"><ele>-1.3333333333333333</ele><time>2026-03-28T14:51:57.977Z</time></trkpt><trkpt lat="44.81188961699907" lon="12.113141034171441"><ele>-1.6666666666666665</ele><time>2026-03-28T14:51:58.977Z</time></trkpt><trkpt lat="44.81200257016054" lon="12.113350303567522"><ele>-2.0</ele><time>2026-03-28T14:51:59.977Z</time></trkpt><trkpt lat="44.812120505517775" lon="12.113555368426765"><ele>-2.0</ele><time>2026-03-28T14:52:00.977Z</time></trkpt><trkpt lat="44.81223869555685" lon="12.113762283219682"><ele>-2.0</ele><time>2026-03-28T14:52:01.977Z</time></trkpt><trkpt lat="44.81235538272104" lon="12.113966154093022"><ele>-2.0</ele><time>2026-03-28T14:52:02.977Z</time></trkpt><trkpt lat="44.81247660333452" lon="12.114171106921487"><ele>-1.6666666666666665</ele><time>2026-03-28T14:52:03.977Z</time></trkpt><trkpt lat="44.81258426435433" lon="12.114367899785915"><ele>-1.3333333333333333</ele><time>2026-03-28T14:52:04.977Z</time></trkpt><trkpt lat="44.81269014684592" lon="12.114564983761245"><ele>-1.0</ele><time>2026-03-28T14:52:05.977Z</time></trkpt><trkpt lat="44.812796959061814" lon="12.114747784705697"><ele>-0.3333333333333333</ele><time>2026-03-28T14:52:06.977Z</time></trkpt><trkpt lat="44.81291367790896" lon="12.11491105019411"><ele>0.3333333333333333</ele><time>2026-03-28T14:52:07.977Z</time></trkpt><trkpt lat="44.81305354689271" lon="12.115049868040769"><ele>1.0</ele><time>2026-03-28T14:52:08.977Z</time></trkpt><trkpt lat="44.813207910683964" lon="12.115149575806058"><ele>1.0</ele><time>2026-03-28T14:52:09.977Z</time></trkpt><trkpt lat="44.813373526218264" lon="12.115243955791398"><ele>1.0</ele><time>2026-03-28T14:52:10.977Z</time></trkpt><trkpt lat="44.81355611748746" lon="12.115337399685268"><ele>1.0</ele><time>2026-03-28T14:52:11.977Z</time></trkpt><trkpt lat="44.813748812815774" lon="12.115431264619934"><ele>0.6666666666666666</ele><time>2026-03-28T14:52:12.977Z</time></trkpt><trkpt lat="44.813945614639884" lon="12.11553055150921"><ele>0.3333333333333333</ele><time>2026-03-28T14:52:13.977Z</time></trkpt><trkpt lat="44.81413712523931" lon="12.115647368129531"><ele>0.0</ele><time>2026-03-28T14:52:14.977Z</time></trkpt><trkpt lat="44.814345496579" lon="12.115696857996232"><ele>-0.3333333333333333</ele><time>2026-03-28T14:52:15.977Z</time></trkpt><trkpt lat="44.81455545795213" lon="12.11575498611365"><ele>-0.6666666666666666</ele><time>2026-03-28T14:52:16.977Z</time></trkpt><trkpt lat="44.814770034598126" lon="12.115802042845043"><ele>-1.0</ele><time>2026-03-28T14:52:17.977Z</time></trkpt><trkpt lat="44.81499794651953" lon="12.115846540844492"><ele>-0.6666666666666666</ele><time>2026-03-28T14:52:18.978Z</time></trkpt><trkpt lat="44.81521464625857" lon="12.11586451534001"><ele>-0.3333333333333333</ele><time>2026-03-28T14:52:19.978Z</time></trkpt><trkpt lat="44.81543877178171" lon="12.115851953996927"><ele>0.0</ele><time>2026-03-28T14:52:20.978Z</time></trkpt><trkpt lat="44.8156701853246" lon="12.115800924539482"><ele>-1.0</ele><time>2026-03-28T14:52:21.978Z</time></trkpt><trkpt lat="44.81590737969131" lon="12.115724903858842"><ele>-2.0</ele><time>2026-03-28T14:52:22.978Z</time></trkpt><trkpt lat="44.816152551920524" lon="12.115665667061347"><ele>-2.0</ele><time>2026-03-28T14:52:23.978Z</time></trkpt><trkpt lat="44.8163982708422" lon="12.115630227198062"><ele>-2.0</ele><time>2026-03-28T14:52:24.978Z</time></trkpt><trkpt lat="44.816644239897755" lon="12.11557445839919"><ele>-1.5</ele><time>2026-03-28T14:52:25.978Z</time></trkpt><trkpt lat="44.81688651009359" lon="12.11548617667693"><ele>-1.0</ele><time>2026-03-28T14:52:26.978Z</time></trkpt><trkpt lat="44.817131830665936" lon="12.115385030900487"><ele>-1.0</ele><time>2026-03-28T14:52:27.978Z</time></trkpt><trkpt lat="44.81737624396246" lon="12.115264927830507"><ele>-1.0</ele><time>2026-03-28T14:52:28.977Z</time></trkpt><trkpt lat="44.817615808563346" lon="12.115129041938072"><ele>-1.0</ele><time>2026-03-28T14:52:29.977Z</time></trkpt><trkpt lat="44.8178543944888" lon="12.114974581062825"><ele>-1.0</ele><time>2026-03-28T14:52:30.977Z</time></trkpt><trkpt lat="44.81809141415945" lon="12.11481028555"><ele>-1.0</ele><time>2026-03-28T14:52:31.978Z</time></trkpt><trkpt lat="44.81832312811049" lon="12.114640285568596"><ele>-1.0</ele><time>2026-03-28T14:52:32.978Z</time></trkpt><trkpt lat="44.8185508694496" lon="12.114475109275233"><ele>-1.0</ele><time>2026-03-28T14:52:33.978Z</time></trkpt><trkpt lat="44.81877494355226" lon="12.114319117975674"><ele>-1.0</ele><time>2026-03-28T14:52:34.978Z</time></trkpt><trkpt lat="44.81898648133406" lon="12.114166077569916"><ele>-1.0</ele><time>2026-03-28T14:52:35.978Z</time></trkpt><trkpt lat="44.819187129359136" lon="12.11400482673275"><ele>-1.0</ele><time>2026-03-28T14:52:36.978Z</time></trkpt><trkpt lat="44.819376439521655" lon="12.1138121866221"><ele>-1.0</ele><time>2026-03-28T14:52:37.978Z</time></trkpt><trkpt lat="44.81954717833801" lon="12.113581837474515"><ele>-1.0</ele><time>2026-03-28T14:52:38.978Z</time></trkpt><trkpt lat="44.81971905954305" lon="12.113340336845972"><ele>-1.5</ele><time>2026-03-28T14:52:39.978Z</time></trkpt><trkpt lat="44.819892278152395" lon="12.11308523170392"><ele>-2.0</ele><time>2026-03-28T14:52:40.978Z</time></trkpt><trkpt lat="44.8200655213405" lon="12.112838948885143"><ele>-1.5</ele><time>2026-03-28T14:52:41.978Z</time></trkpt><trkpt lat="44.82024702409696" lon="12.112603754886097"><ele>-1.0</ele><time>2026-03-28T14:52:42.978Z</time></trkpt><trkpt lat="44.820434643736036" lon="12.112368356842909"><ele>-0.5</ele><time>2026-03-28T14:52:43.978Z</time></trkpt><trkpt lat="44.82062737150861" lon="12.112152429266855"><ele>0.0</ele><time>2026-03-28T14:52:44.978Z</time></trkpt><trkpt lat="44.820825221527706" lon="12.111943943800139"><ele>0.0</ele><time>2026-03-28T14:52:45.978Z</time></trkpt><trkpt lat="44.82101901444332" lon="12.111737743950282"><ele>0.0</ele><time>2026-03-28T14:52:46.978Z</time></trkpt><trkpt lat="44.8212028243714" lon="12.111532412012847"><ele>0.0</ele><time>2026-03-28T14:52:47.978Z</time></trkpt><trkpt lat="44.821382573991215" lon="12.111356197700378"><ele>0.0</ele><time>2026-03-28T14:52:48.978Z</time></trkpt><trkpt lat="44.821530362019956" lon="12.111164508924576"><ele>0.0</ele><time>2026-03-28T14:52:49.978Z</time></trkpt><trkpt lat="44.82166260905318" lon="12.110986318754168"><ele>0.0</ele><time>2026-03-28T14:52:50.978Z</time></trkpt><trkpt lat="44.8217915689794" lon="12.110813435124278"><ele>0.0</ele><time>2026-03-28T14:52:51.978Z</time></trkpt><trkpt lat="44.82193808419134" lon="12.110658832671286"><ele>0.0</ele><time>2026-03-28T14:52:52.978Z</time></trkpt><trkpt lat="44.82210829163858" lon="12.110519442880717"><ele>-0.3333333333333333</ele><time>2026-03-28T14:52:53.978Z</time></trkpt><trkpt lat="44.822290090544605" lon="12.110366189590442"><ele>-0.6666666666666666</ele><time>2026-03-28T14:52:54.978Z</time></trkpt><trkpt lat="44.82251518060623" lon="12.110289424439722"><ele>-1.0</ele><time>2026-03-28T14:52:55.978Z</time></trkpt><trkpt lat="44.82273758762325" lon="12.110204601816088"><ele>-1.0</ele><time>2026-03-28T14:52:56.978Z</time></trkpt><trkpt lat="44.822949075639094" lon="12.110093289008782"><ele>-1.0</ele><time>2026-03-28T14:52:57.978Z</time></trkpt><trkpt lat="44.823153399262054" lon="12.109949769133788"><ele>-1.5</ele><time>2026-03-28T14:52:58.978Z</time></trkpt><trkpt lat="44.82335827316841" lon="12.109788942492958"><ele>-2.0</ele><time>2026-03-28T14:52:59.978Z</time></trkpt><trkpt lat="44.82357178420771" lon="12.109640845946174"><ele>-2.0</ele><time>2026-03-28T14:53:00.978Z</time></trkpt><trkpt lat="44.82378805990476" lon="12.109497724896153"><ele>-2.0</ele><time>2026-03-28T14:53:01.978Z</time></trkpt><trkpt lat="44.824003396617" lon="12.10935481058524"><ele>-2.0</ele><time>2026-03-28T14:53:02.978Z</time></trkpt><trkpt lat="44.824227617356" lon="12.1092175183784"><ele>-2.0</ele><time>2026-03-28T14:53:03.978Z</time></trkpt><trkpt lat="44.82444674501056" lon="12.109082683028769"><ele>-3.0</ele><time>2026-03-28T14:53:04.978Z</time></trkpt><trkpt lat="44.82466137896103" lon="12.108959567729476"><ele>-4.0</ele><time>2026-03-28T14:53:05.978Z</time></trkpt><trkpt lat="44.82487894958619" lon="12.108843185946913"><ele>-4.0</ele><time>2026-03-28T14:53:06.978Z</time></trkpt><trkpt lat="44.8250864583815" lon="12.108703769147839"><ele>-4.0</ele><time>2026-03-28T14:53:07.978Z</time></trkpt><trkpt lat="44.82528452674995" lon="12.108583387453853"><ele>-4.0</ele><time>2026-03-28T14:53:08.978Z</time></trkpt><trkpt lat="44.825468549881066" lon="12.108472041150309"><ele>-3.333333333333333</ele><time>2026-03-28T14:53:09.977Z</time></trkpt><trkpt lat="44.82563860136485" lon="12.108364742849847"><ele>-2.6666666666666665</ele><time>2026-03-28T14:53:10.977Z</time></trkpt><trkpt lat="44.82581610956386" lon="12.108251115989681"><ele>-2.0</ele><time>2026-03-28T14:53:11.977Z</time></trkpt><trkpt lat="44.82599388671432" lon="12.108147804671848"><ele>-2.0</ele><time>2026-03-28T14:53:12.977Z</time></trkpt><trkpt lat="44.82617162522279" lon="12.108038993126163"><ele>-2.0</ele><time>2026-03-28T14:53:13.977Z</time></trkpt><trkpt lat="44.82634083947276" lon="12.107929434991322"><ele>-2.0</ele><time>2026-03-28T14:53:14.977Z</time></trkpt><trkpt lat="44.82650790475966" lon="12.107828901464428"><ele>-2.0</ele><time>2026-03-28T14:53:15.977Z</time></trkpt><trkpt lat="44.82666705779294" lon="12.107737747546958"><ele>-2.0</ele><time>2026-03-28T14:53:16.977Z</time></trkpt><trkpt lat="44.826819309660785" lon="12.107653350462845"><ele>-2.0</ele><time>2026-03-28T14:53:17.977Z</time></trkpt><trkpt lat="44.82696859864174" lon="12.107570300931028"><ele>-2.0</ele><time>2026-03-28T14:53:18.977Z</time></trkpt><trkpt lat="44.82710933810096" lon="12.107492617441208"><ele>-2.0</ele><time>2026-03-28T14:53:19.977Z</time></trkpt><trkpt lat="44.82724764901958" lon="12.107412399989542"><ele>-2.0</ele><time>2026-03-28T14:53:20.977Z</time></trkpt><trkpt lat="44.82737393774317" lon="12.107337224414199"><ele>-2.0</ele><time>2026-03-28T14:53:21.977Z</time></trkpt><trkpt lat="44.827490290730374" lon="12.107254361860562"><ele>-2.0</ele><time>2026-03-28T14:53:22.977Z</time></trkpt><trkpt lat="44.82760264366529" lon="12.107156941519788"><ele>-2.0</ele><time>2026-03-28T14:53:23.977Z</time></trkpt><trkpt lat="44.82771353939363" lon="12.107055728585278"><ele>-2.0</ele><time>2026-03-28T14:53:24.977Z</time></trkpt><trkpt lat="44.82782649056489" lon="12.106943549200066"><ele>-2.0</ele><time>2026-03-28T14:53:25.977Z</time></trkpt><trkpt lat="44.82793856691618" lon="12.10682916805183"><ele>-1.5</ele><time>2026-03-28T14:53:26.977Z</time></trkpt><trkpt lat="44.82804480077287" lon="12.106706511656592"><ele>-1.0</ele><time>2026-03-28T14:53:27.977Z</time></trkpt><trkpt lat="44.8281494252465" lon="12.106577176465892"><ele>-0.5</ele><time>2026-03-28T14:53:28.977Z</time></trkpt><trkpt lat="44.828248534957226" lon="12.1064453812095"><ele>0.0</ele><time>2026-03-28T14:53:29.977Z</time></trkpt><trkpt lat="44.82834087212032" lon="12.106310496321559"><ele>0.0</ele><time>2026-03-28T14:53:30.977Z</time></trkpt><trkpt lat="44.828428692333134" lon="12.106180528127737"><ele>0.0</ele><time>2026-03-28T14:53:31.977Z</time></trkpt><trkpt lat="44.82850897942418" lon="12.106059597998023"><ele>0.0</ele><time>2026-03-28T14:53:32.977Z</time></trkpt><trkpt lat="44.82857677687279" lon="12.10595611536949"><ele>0.0</ele><time>2026-03-28T14:53:33.977Z</time></trkpt><trkpt lat="44.82862988006518" lon="12.105873476645698"><ele>0.0</ele><time>2026-03-28T14:53:34.977Z</time></trkpt><trkpt lat="44.82871288480652" lon="12.105783200045344"><ele>0.16666666666666666</ele><time>2026-03-28T14:53:36.977Z</time></trkpt><trkpt lat="44.82880724091473" lon="12.10580909362886"><ele>0.3333333333333333</ele><time>2026-03-28T14:53:38.977Z</time></trkpt><trkpt lat="44.82888892403999" lon="12.10589928119417"><ele>0.5</ele><time>2026-03-28T14:53:40.977Z</time></trkpt><trkpt lat="44.82894749053265" lon="12.10594952456107"><ele>0.6666666666666666</ele><time>2026-03-28T14:53:42.977Z</time></trkpt><trkpt lat="44.82899825469208" lon="12.106006108808327"><ele>0.8333333333333333</ele><time>2026-03-28T14:53:44.977Z</time></trkpt><trkpt lat="44.82905171088365" lon="12.106054212583086"><ele>1.0</ele><time>2026-03-28T14:53:46.977Z</time></trkpt><trkpt lat="44.829119141911086" lon="12.106113933257678"><ele>0.9999999999999999</ele><time>2026-03-28T14:53:49.977Z</time></trkpt><trkpt lat="44.82918566729635" lon="12.106167058085711"><ele>1.0</ele><time>2026-03-28T14:53:51.977Z</time></trkpt><trkpt lat="44.829241587543734" lon="12.106221965164178"><ele>1.0</ele><time>2026-03-28T14:53:52.977Z</time></trkpt><trkpt lat="44.82930223918515" lon="12.106307514991858"><ele>1.0</ele><time>2026-03-28T14:53:53.977Z</time></trkpt><trkpt lat="44.82937381374963" lon="12.106402499368546"><ele>0.9999999999999999</ele><time>2026-03-28T14:53:54.977Z</time></trkpt><trkpt lat="44.82942199258801" lon="12.106535479269708"><ele>1.0</ele><time>2026-03-28T14:53:55.977Z</time></trkpt><trkpt lat="44.82949666398999" lon="12.106619174142786"><ele>0.9999999999999999</ele><time>2026-03-28T14:53:56.977Z</time></trkpt><trkpt lat="44.82955961816674" lon="12.106689735849868"><ele>1.0</ele><time>2026-03-28T14:53:57.977Z</time></trkpt><trkpt lat="44.82961362515422" lon="12.106750269171124"><ele>1.0</ele><time>2026-03-28T14:53:58.977Z</time></trkpt><trkpt lat="44.829663754205804" lon="12.106806455937697"><ele>1.0</ele><time>2026-03-28T14:53:59.977Z</time></trkpt><trkpt lat="44.829713334109655" lon="12.106862027194522"><ele>0.9999999999999999</ele><time>2026-03-28T14:54:00.977Z</time></trkpt><trkpt lat="44.82980583150594" lon="12.106961473024176"><ele>1.0</ele><time>2026-03-28T14:54:02.977Z</time></trkpt><trkpt lat="44.82988885638063" lon="12.107062861494718"><ele>0.9999999999999999</ele><time>2026-03-28T14:54:04.976Z</time></trkpt><trkpt lat="44.82996972805791" lon="12.107146000958487"><ele>1.0</ele><time>2026-03-28T14:54:06.976Z</time></trkpt><trkpt lat="44.83002305609135" lon="12.107195510685612"><ele>1.0</ele><time>2026-03-28T14:54:08.976Z</time></trkpt><trkpt lat="44.83007908502138" lon="12.107271206838323"><ele>1.0</ele><time>2026-03-28T14:54:29.974Z</time></trkpt><trkpt lat="44.83015417166145" lon="12.107355635380497"><ele>0.9999999999999999</ele><time>2026-03-28T14:54:31.974Z</time></trkpt><trkpt lat="44.83021085065432" lon="12.107419597885816"><ele>1.0</ele><time>2026-03-28T14:54:32.974Z</time></trkpt><trkpt lat="44.830261006752075" lon="12.10750398370323"><ele>1.0</ele><time>2026-03-28T14:54:33.974Z</time></trkpt><trkpt lat="44.83031390371522" lon="12.107600221951289"><ele>1.0</ele><time>2026-03-28T14:54:34.974Z</time></trkpt><trkpt lat="44.830370007188314" lon="12.107714024221771"><ele>1.0</ele><time>2026-03-28T14:54:35.974Z</time></trkpt><trkpt lat="44.830432480099304" lon="12.107847929792147"><ele>1.0</ele><time>2026-03-28T14:54:36.974Z</time></trkpt><trkpt lat="44.83050733809404" lon="12.107980537430237"><ele>1.0</ele><time>2026-03-28T14:54:37.973Z</time></trkpt><trkpt lat="44.830555941035186" lon="12.108153776724974"><ele>1.0</ele><time>2026-03-28T14:54:38.973Z</time></trkpt><trkpt lat="44.83062772970764" lon="12.108289380418494"><ele>1.0</ele><time>2026-03-28T14:54:39.973Z</time></trkpt><trkpt lat="44.83070207308583" lon="12.108425899535353"><ele>1.0</ele><time>2026-03-28T14:54:40.973Z</time></trkpt><trkpt lat="44.830762430759464" lon="12.108558161143856"><ele>1.0</ele><time>2026-03-28T14:54:41.973Z</time></trkpt><trkpt lat="44.830838251890334" lon="12.108677684528242"><ele>1.0</ele><time>2026-03-28T14:54:42.973Z</time></trkpt><trkpt lat="44.83088907869424" lon="12.108813892601228"><ele>1.0</ele><time>2026-03-28T14:54:43.972Z</time></trkpt><trkpt lat="44.83095202243712" lon="12.108932073841938"><ele>1.0</ele><time>2026-03-28T14:54:44.972Z</time></trkpt><trkpt lat="44.83100932659966" lon="12.109046435919405"><ele>1.0</ele><time>2026-03-28T14:54:45.972Z</time></trkpt><trkpt lat="44.831058747073826" lon="12.109148253931357"><ele>1.0</ele><time>2026-03-28T14:54:46.972Z</time></trkpt><trkpt lat="44.831102331810236" lon="12.109239917483452"><ele>0.7142857142857142</ele><time>2026-03-28T14:54:47.972Z</time></trkpt><trkpt lat="44.83114528449771" lon="12.10931826445048"><ele>0.4285714285714285</ele><time>2026-03-28T14:54:48.972Z</time></trkpt><trkpt lat="44.83118750865989" lon="12.109395388300944"><ele>0.14285714285714285</ele><time>2026-03-28T14:54:49.972Z</time></trkpt><trkpt lat="44.831230219768265" lon="12.10946901251393"><ele>-0.14285714285714285</ele><time>2026-03-28T14:54:50.972Z</time></trkpt><trkpt lat="44.83126630517463" lon="12.109548925244832"><ele>-0.4285714285714285</ele><time>2026-03-28T14:54:51.972Z</time></trkpt><trkpt lat="44.8313044410017" lon="12.109625914644827"><ele>-0.7142857142857142</ele><time>2026-03-28T14:54:52.972Z</time></trkpt><trkpt lat="44.8313510283483" lon="12.109686789424725"><ele>-1.0</ele><time>2026-03-28T14:54:53.972Z</time></trkpt><trkpt lat="44.831428897460974" lon="12.109780335935362"><ele>-1.0</ele><time>2026-03-28T14:54:55.972Z</time></trkpt><trkpt lat="44.83148053859947" lon="12.109892640940886"><ele>-1.0</ele><time>2026-03-28T14:54:57.971Z</time></trkpt><trkpt lat="44.831533320793184" lon="12.1099595489337"><ele>-1.0</ele><time>2026-03-28T14:54:59.971Z</time></trkpt><trkpt lat="44.8316583191576" lon="12.109860687132072"><ele>-1.0</ele><time>2026-03-28T14:55:00.971Z</time></trkpt><trkpt lat="44.831730722999104" lon="12.109774477277893"><ele>-1.0</ele><time>2026-03-28T14:55:01.971Z</time></trkpt><trkpt lat="44.83180403940479" lon="12.109687158380481"><ele>-1.0</ele><time>2026-03-28T14:55:02.971Z</time></trkpt><trkpt lat="44.83187843378225" lon="12.109598555635968"><ele>-1.0</ele><time>2026-03-28T14:55:03.971Z</time></trkpt><trkpt lat="44.83196387987846" lon="12.109496790434957"><ele>-1.0</ele><time>2026-03-28T14:55:04.971Z</time></trkpt><trkpt lat="44.832037831145904" lon="12.109381233902727"><ele>-1.0</ele><time>2026-03-28T14:55:05.971Z</time></trkpt><trkpt lat="44.83213692856366" lon="12.10929916874299"><ele>-1.0</ele><time>2026-03-28T14:55:06.971Z</time></trkpt><trkpt lat="44.832222410527756" lon="12.109213454745971"><ele>-1.0</ele><time>2026-03-28T14:55:07.971Z</time></trkpt><trkpt lat="44.832311660835906" lon="12.109122335934813"><ele>-1.0</ele><time>2026-03-28T14:55:08.971Z</time></trkpt><trkpt lat="44.832395851604" lon="12.109022680724632"><ele>-1.0</ele><time>2026-03-28T14:55:09.971Z</time></trkpt><trkpt lat="44.83248409360859" lon="12.108910591615153"><ele>-1.0</ele><time>2026-03-28T14:55:10.971Z</time></trkpt><trkpt lat="44.832576254144904" lon="12.108794796392836"><ele>-1.0</ele><time>2026-03-28T14:55:11.971Z</time></trkpt><trkpt lat="44.8326635618601" lon="12.108669541177326"><ele>-1.0</ele><time>2026-03-28T14:55:12.971Z</time></trkpt><trkpt lat="44.832759185056254" lon="12.108545780097455"><ele>-1.0</ele><time>2026-03-28T14:55:13.971Z</time></trkpt><trkpt lat="44.83285707004967" lon="12.10842725733205"><ele>-1.0</ele><time>2026-03-28T14:55:14.971Z</time></trkpt><trkpt lat="44.83294866359834" lon="12.108313509389461"><ele>-0.8</ele><time>2026-03-28T14:55:15.971Z</time></trkpt><trkpt lat="44.83303524172072" lon="12.108206486319691"><ele>-0.6000000000000001</ele><time>2026-03-28T14:55:16.971Z</time></trkpt><trkpt lat="44.83312046833289" lon="12.108102269632784"><ele>-0.4</ele><time>2026-03-28T14:55:17.971Z</time></trkpt><trkpt lat="44.83321356314921" lon="12.108022725210576"><ele>-0.2</ele><time>2026-03-28T14:55:18.971Z</time></trkpt><trkpt lat="44.833290273195324" lon="12.107912160502982"><ele>0.0</ele><time>2026-03-28T14:55:19.971Z</time></trkpt><trkpt lat="44.83339087584295" lon="12.107841485954879"><ele>0.0</ele><time>2026-03-28T14:55:20.971Z</time></trkpt><trkpt lat="44.83348097529313" lon="12.107749313918061"><ele>0.0</ele><time>2026-03-28T14:55:21.971Z</time></trkpt><trkpt lat="44.83356108125222" lon="12.107641839385726"><ele>0.0</ele><time>2026-03-28T14:55:22.971Z</time></trkpt><trkpt lat="44.83362106374849" lon="12.107514599378705"><ele>0.0</ele><time>2026-03-28T14:55:23.971Z</time></trkpt><trkpt lat="44.833662453980054" lon="12.107384395573856"><ele>0.0</ele><time>2026-03-28T14:55:24.971Z</time></trkpt><trkpt lat="44.83369254765703" lon="12.107262198207158"><ele>0.0</ele><time>2026-03-28T14:55:25.971Z</time></trkpt><trkpt lat="44.833705405586095" lon="12.107158565447403"><ele>0.0</ele><time>2026-03-28T14:55:26.971Z</time></trkpt><trkpt lat="44.833742570132166" lon="12.107045848484612"><ele>0.0</ele><time>2026-03-28T14:55:28.97Z</time></trkpt><trkpt lat="44.83378621608535" lon="12.10696644195475"><ele>0.0</ele><time>2026-03-28T14:55:30.97Z</time></trkpt><trkpt lat="44.83379831324674" lon="12.106850077930316"><ele>0.0</ele><time>2026-03-28T14:56:07.97Z</time></trkpt><trkpt lat="44.833826523869284" lon="12.106768803592447"><ele>0.0</ele><time>2026-03-28T14:56:08.97Z</time></trkpt><trkpt lat="44.83386317852136" lon="12.106662228161694"><ele>0.25</ele><time>2026-03-28T14:56:09.97Z</time></trkpt><trkpt lat="44.833901399698654" lon="12.106550975423069"><ele>0.5</ele><time>2026-03-28T14:56:10.97Z</time></trkpt><trkpt lat="44.8339504987282" lon="12.106408060637909"><ele>0.75</ele><time>2026-03-28T14:56:11.97Z</time></trkpt><trkpt lat="44.83400556697034" lon="12.106248605550672"><ele>1.0</ele><time>2026-03-28T14:56:12.97Z</time></trkpt><trkpt lat="44.8340632158146" lon="12.106084988925875"><ele>1.0</ele><time>2026-03-28T14:56:13.97Z</time></trkpt><trkpt lat="44.83410313015961" lon="12.105919934686627"><ele>1.0</ele><time>2026-03-28T14:56:14.97Z</time></trkpt><trkpt lat="44.83417205381402" lon="12.105768579751071"><ele>1.0</ele><time>2026-03-28T14:56:15.97Z</time></trkpt><trkpt lat="44.83423521348535" lon="12.105600552407902"><ele>1.0</ele><time>2026-03-28T14:56:16.969Z</time></trkpt><trkpt lat="44.83429741199992" lon="12.105445606172458"><ele>0.75</ele><time>2026-03-28T14:56:17.969Z</time></trkpt><trkpt lat="44.8343560659645" lon="12.10528716774998"><ele>0.5</ele><time>2026-03-28T14:56:18.969Z</time></trkpt><trkpt lat="44.83440879270294" lon="12.10513746310774"><ele>0.25</ele><time>2026-03-28T14:56:19.969Z</time></trkpt><trkpt lat="44.834457984643734" lon="12.105002125153362"><ele>0.0</ele><time>2026-03-28T14:56:20.969Z</time></trkpt><trkpt lat="44.83450139296025" lon="12.10487404043082"><ele>-0.25</ele><time>2026-03-28T14:56:21.969Z</time></trkpt><trkpt lat="44.83453954851754" lon="12.104744297647189"><ele>-0.5</ele><time>2026-03-28T14:56:22.969Z</time></trkpt><trkpt lat="44.83457632270739" lon="12.104596719014017"><ele>-0.75</ele><time>2026-03-28T14:56:23.969Z</time></trkpt><trkpt lat="44.834620873096625" lon="12.104443401406716"><ele>-1.0</ele><time>2026-03-28T14:56:24.969Z</time></trkpt><trkpt lat="44.83467768578734" lon="12.104276593634014"><ele>-1.0</ele><time>2026-03-28T14:56:25.969Z</time></trkpt><trkpt lat="44.83473528472413" lon="12.1041065502969"><ele>-1.0</ele><time>2026-03-28T14:56:26.969Z</time></trkpt><trkpt lat="44.83479052758205" lon="12.103925666020443"><ele>-1.0</ele><time>2026-03-28T14:56:27.969Z</time></trkpt><trkpt lat="44.83484419874747" lon="12.103745464075828"><ele>-1.0</ele><time>2026-03-28T14:56:28.969Z</time></trkpt><trkpt lat="44.83490308924266" lon="12.103577079561017"><ele>-1.0</ele><time>2026-03-28T14:56:29.969Z</time></trkpt><trkpt lat="44.83496137349286" lon="12.103419988866882"><ele>-1.0</ele><time>2026-03-28T14:56:30.971Z</time></trkpt><trkpt lat="44.83501232885375" lon="12.103261149436054"><ele>-1.0</ele><time>2026-03-28T14:56:31.97Z</time></trkpt><trkpt lat="44.835059227597114" lon="12.103107101449224"><ele>-1.0</ele><time>2026-03-28T14:56:32.97Z</time></trkpt><trkpt lat="44.83510451189449" lon="12.10295608832063"><ele>-1.0</ele><time>2026-03-28T14:56:33.971Z</time></trkpt><trkpt lat="44.83514560275739" lon="12.10279439097227"><ele>-1.0</ele><time>2026-03-28T14:56:34.97Z</time></trkpt><trkpt lat="44.83518197267557" lon="12.102610235699679"><ele>-1.0</ele><time>2026-03-28T14:56:35.97Z</time></trkpt><trkpt lat="44.83521531021984" lon="12.102410665874242"><ele>-1.0</ele><time>2026-03-28T14:56:36.97Z</time></trkpt><trkpt lat="44.83524497067406" lon="12.102201568698032"><ele>-1.5</ele><time>2026-03-28T14:56:37.971Z</time></trkpt><trkpt lat="44.83526674680276" lon="12.101995721377076"><ele>-2.0</ele><time>2026-03-28T14:56:38.971Z</time></trkpt><trkpt lat="44.83529208485322" lon="12.10179698131708"><ele>-2.5</ele><time>2026-03-28T14:56:39.971Z</time></trkpt><trkpt lat="44.83531256456758" lon="12.101608998371562"><ele>-3.0</ele><time>2026-03-28T14:56:40.971Z</time></trkpt><trkpt lat="44.835327362084776" lon="12.101420366261491"><ele>-3.0</ele><time>2026-03-28T14:56:41.971Z</time></trkpt><trkpt lat="44.83534528958626" lon="12.101228032073577"><ele>-3.0</ele><time>2026-03-28T14:56:42.971Z</time></trkpt><trkpt lat="44.8353658995245" lon="12.101044004752211"><ele>-3.0</ele><time>2026-03-28T14:56:43.971Z</time></trkpt><trkpt lat="44.835407217941224" lon="12.100863955768663"><ele>-3.0</ele><time>2026-03-28T14:56:44.971Z</time></trkpt><trkpt lat="44.835425025226606" lon="12.100671045424631"><ele>-3.25</ele><time>2026-03-28T14:56:45.971Z</time></trkpt><trkpt lat="44.83544217216921" lon="12.100481351561678"><ele>-3.5</ele><time>2026-03-28T14:56:46.971Z</time></trkpt><trkpt lat="44.83545386604343" lon="12.100300287938465"><ele>-3.75</ele><time>2026-03-28T14:56:47.971Z</time></trkpt><trkpt lat="44.835456810011195" lon="12.100128937888577"><ele>-4.0</ele><time>2026-03-28T14:56:48.971Z</time></trkpt><trkpt lat="44.83543751383485" lon="12.09997979847112"><ele>-4.25</ele><time>2026-03-28T14:56:49.971Z</time></trkpt><trkpt lat="44.83538281420655" lon="12.099864209535875"><ele>-4.5</ele><time>2026-03-28T14:56:50.971Z</time></trkpt><trkpt lat="44.835301728085774" lon="12.099777115850314"><ele>-4.75</ele><time>2026-03-28T14:56:51.971Z</time></trkpt><trkpt lat="44.8351972277299" lon="12.099678947555237"><ele>-5.0</ele><time>2026-03-28T14:56:52.971Z</time></trkpt><trkpt lat="44.83506242402749" lon="12.099631764362636"><ele>-5.0</ele><time>2026-03-28T14:56:53.971Z</time></trkpt><trkpt lat="44.83492389013059" lon="12.099578001757797"><ele>-5.0</ele><time>2026-03-28T14:56:54.97Z</time></trkpt><trkpt lat="44.834785492358954" lon="12.099521162785852"><ele>-5.0</ele><time>2026-03-28T14:56:55.97Z</time></trkpt><trkpt lat="44.83465327510024" lon="12.099466862086489"><ele>-5.0</ele><time>2026-03-28T14:56:56.97Z</time></trkpt><trkpt lat="44.83453010323862" lon="12.099407219058346"><ele>-5.0</ele><time>2026-03-28T14:56:57.97Z</time></trkpt><trkpt lat="44.83440711110521" lon="12.099368968412096"><ele>-5.0</ele><time>2026-03-28T14:56:58.97Z</time></trkpt><trkpt lat="44.83429628056429" lon="12.099322377674358"><ele>-5.0</ele><time>2026-03-28T14:56:59.97Z</time></trkpt><trkpt lat="44.834183762135694" lon="12.09928910775768"><ele>-5.0</ele><time>2026-03-28T14:57:00.97Z</time></trkpt><trkpt lat="44.83407989056134" lon="12.099247900596433"><ele>-3.75</ele><time>2026-03-28T14:57:01.97Z</time></trkpt><trkpt lat="44.833975316880384" lon="12.09921143656958"><ele>-2.5</ele><time>2026-03-28T14:57:02.97Z</time></trkpt><trkpt lat="44.83386688122761" lon="12.099185641209353"><ele>-1.25</ele><time>2026-03-28T14:57:03.97Z</time></trkpt><trkpt lat="44.833752491092056" lon="12.099167283752859"><ele>0.0</ele><time>2026-03-28T14:57:04.97Z</time></trkpt><trkpt lat="44.83363469172996" lon="12.099152893072384"><ele>0.0</ele><time>2026-03-28T14:57:05.97Z</time></trkpt><trkpt lat="44.833514839235285" lon="12.09914413164263"><ele>0.0</ele><time>2026-03-28T14:57:06.97Z</time></trkpt><trkpt lat="44.83340388900804" lon="12.099131717547078"><ele>0.0</ele><time>2026-03-28T14:57:07.97Z</time></trkpt><trkpt lat="44.83330613938623" lon="12.099122230850247"><ele>0.0</ele><time>2026-03-28T14:57:08.97Z</time></trkpt><trkpt lat="44.8332119850608" lon="12.099119922210193"><ele>0.0</ele><time>2026-03-28T14:57:09.97Z</time></trkpt><trkpt lat="44.83312711211496" lon="12.099089538271622"><ele>0.0</ele><time>2026-03-28T14:57:10.97Z</time></trkpt><trkpt lat="44.83305141584092" lon="12.09909613442676"><ele>0.0</ele><time>2026-03-28T14:57:11.97Z</time></trkpt><trkpt lat="44.83297584141447" lon="12.098982017345275"><ele>0.0</ele><time>2026-03-28T14:57:13.97Z</time></trkpt><trkpt lat="44.8329665473822" lon="12.098825160367154"><ele>0.0</ele><time>2026-03-28T14:57:15.97Z</time></trkpt><trkpt lat="44.832999278748744" lon="12.098700392171972"><ele>0.0</ele><time>2026-03-28T14:57:16.97Z</time></trkpt><trkpt lat="44.83303603313977" lon="12.09852758372591"><ele>0.0</ele><time>2026-03-28T14:57:17.97Z</time></trkpt><trkpt lat="44.833083443183554" lon="12.098308881998777"><ele>0.0</ele><time>2026-03-28T14:57:18.97Z</time></trkpt><trkpt lat="44.833138114780034" lon="12.098058463135757"><ele>0.0</ele><time>2026-03-28T14:57:19.97Z</time></trkpt><trkpt lat="44.83317985211701" lon="12.097801828059929"><ele>0.0</ele><time>2026-03-28T14:57:20.97Z</time></trkpt><trkpt lat="44.83324496758068" lon="12.097542716891276"><ele>0.0</ele><time>2026-03-28T14:57:21.97Z</time></trkpt><trkpt lat="44.83330179635494" lon="12.097280141492964"><ele>0.0</ele><time>2026-03-28T14:57:22.97Z</time></trkpt><trkpt lat="44.83335716983575" lon="12.097021271069691"><ele>0.0</ele><time>2026-03-28T14:57:23.97Z</time></trkpt><trkpt lat="44.83341227552994" lon="12.096764908313503"><ele>0.0</ele><time>2026-03-28T14:57:24.97Z</time></trkpt><trkpt lat="44.83346414991457" lon="12.096519593348637"><ele>0.0</ele><time>2026-03-28T14:57:25.97Z</time></trkpt><trkpt lat="44.833501294693946" lon="12.096295163000812"><ele>0.0</ele><time>2026-03-28T14:57:26.97Z</time></trkpt><trkpt lat="44.83353098245071" lon="12.096092229797389"><ele>0.0</ele><time>2026-03-28T14:57:27.97Z</time></trkpt><trkpt lat="44.83356061510577" lon="12.095912061489665"><ele>0.0</ele><time>2026-03-28T14:57:28.97Z</time></trkpt><trkpt lat="44.833587453734005" lon="12.09574094170687"><ele>0.0</ele><time>2026-03-28T14:57:29.97Z</time></trkpt><trkpt lat="44.833613035484795" lon="12.095554294368146"><ele>0.0</ele><time>2026-03-28T14:57:30.97Z</time></trkpt><trkpt lat="44.833682294388254" lon="12.095358648508824"><ele>0.0</ele><time>2026-03-28T14:57:31.97Z</time></trkpt><trkpt lat="44.833725395873145" lon="12.09510992398373"><ele>0.0</ele><time>2026-03-28T14:57:32.97Z</time></trkpt><trkpt lat="44.83377288590629" lon="12.094819099960716"><ele>0.0</ele><time>2026-03-28T14:57:33.97Z</time></trkpt><trkpt lat="44.833822284735696" lon="12.094520151743108"><ele>0.0</ele><time>2026-03-28T14:57:34.97Z</time></trkpt><trkpt lat="44.83387060144561" lon="12.094229939790445"><ele>0.0</ele><time>2026-03-28T14:57:35.97Z</time></trkpt><trkpt lat="44.83392020835721" lon="12.093922425178881"><ele>1.0</ele><time>2026-03-28T14:57:36.97Z</time></trkpt><trkpt lat="44.83397169570555" lon="12.093599593610204"><ele>2.0</ele><time>2026-03-28T14:57:37.97Z</time></trkpt><trkpt lat="44.83402422986245" lon="12.093264301105682"><ele>2.0</ele><time>2026-03-28T14:57:38.97Z</time></trkpt><trkpt lat="44.834077949322825" lon="12.092914479614018"><ele>2.0</ele><time>2026-03-28T14:57:39.97Z</time></trkpt><trkpt lat="44.83412934872908" lon="12.092551340511235"><ele>1.0</ele><time>2026-03-28T14:57:40.97Z</time></trkpt><trkpt lat="44.83418370332485" lon="12.092182169919033"><ele>0.0</ele><time>2026-03-28T14:57:41.97Z</time></trkpt><trkpt lat="44.83424373860729" lon="12.091809598746194"><ele>0.0</ele><time>2026-03-28T14:57:42.97Z</time></trkpt><trkpt lat="44.83430161662572" lon="12.091437797194418"><ele>0.0</ele><time>2026-03-28T14:57:43.97Z</time></trkpt><trkpt lat="44.83436121328803" lon="12.091057358854485"><ele>1.0</ele><time>2026-03-28T14:57:44.97Z</time></trkpt><trkpt lat="44.83441440507953" lon="12.090688010557704"><ele>2.0</ele><time>2026-03-28T14:57:45.969Z</time></trkpt><trkpt lat="44.83447559817827" lon="12.090328339466117"><ele>2.0</ele><time>2026-03-28T14:57:46.969Z</time></trkpt><trkpt lat="44.834549167522155" lon="12.089974808552492"><ele>2.0</ele><time>2026-03-28T14:57:47.969Z</time></trkpt><trkpt lat="44.834625712084765" lon="12.08961666080324"><ele>1.5</ele><time>2026-03-28T14:57:48.969Z</time></trkpt><trkpt lat="44.83470364544385" lon="12.089258303336322"><ele>1.0</ele><time>2026-03-28T14:57:49.969Z</time></trkpt><trkpt lat="44.834775059375566" lon="12.088898285508874"><ele>-0.5</ele><time>2026-03-28T14:57:50.969Z</time></trkpt><trkpt lat="44.83486084289808" lon="12.08854370755964"><ele>-2.0</ele><time>2026-03-28T14:57:51.969Z</time></trkpt><trkpt lat="44.834934367212895" lon="12.088190334529072"><ele>-2.0</ele><time>2026-03-28T14:57:52.969Z</time></trkpt><trkpt lat="44.83499740090456" lon="12.08784573148307"><ele>-2.0</ele><time>2026-03-28T14:57:53.969Z</time></trkpt><trkpt lat="44.83504367392368" lon="12.087497138757987"><ele>-2.0</ele><time>2026-03-28T14:57:54.969Z</time></trkpt><trkpt lat="44.83506795114672" lon="12.087141011812019"><ele>-2.0</ele><time>2026-03-28T14:57:55.969Z</time></trkpt><trkpt lat="44.83506223282383" lon="12.086772129246382"><ele>-2.0</ele><time>2026-03-28T14:57:56.969Z</time></trkpt><trkpt lat="44.835087088031315" lon="12.086390349033447"><ele>-2.0</ele><time>2026-03-28T14:57:57.969Z</time></trkpt><trkpt lat="44.835097275873615" lon="12.086002458597225"><ele>-2.0</ele><time>2026-03-28T14:57:58.969Z</time></trkpt><trkpt lat="44.83510885284849" lon="12.08561388222529"><ele>-2.0</ele><time>2026-03-28T14:57:59.969Z</time></trkpt><trkpt lat="44.835120911599574" lon="12.085228580130966"><ele>-2.5</ele><time>2026-03-28T14:58:00.969Z</time></trkpt><trkpt lat="44.8351331814863" lon="12.084844555897055"><ele>-3.0</ele><time>2026-03-28T14:58:01.969Z</time></trkpt><trkpt lat="44.83514560496108" lon="12.084455728816394"><ele>-2.5</ele><time>2026-03-28T14:58:02.969Z</time></trkpt><trkpt lat="44.83514365212803" lon="12.084062749945371"><ele>-2.0</ele><time>2026-03-28T14:58:03.969Z</time></trkpt><trkpt lat="44.83516861027726" lon="12.083671427650408"><ele>-2.0</ele><time>2026-03-28T14:58:04.969Z</time></trkpt><trkpt lat="44.83518303670156" lon="12.083277341811407"><ele>-2.0</ele><time>2026-03-28T14:58:05.969Z</time></trkpt><trkpt lat="44.83519236435234" lon="12.082879667587708"><ele>-2.0</ele><time>2026-03-28T14:58:06.969Z</time></trkpt><trkpt lat="44.83520290041943" lon="12.082480591476143"><ele>-2.0</ele><time>2026-03-28T14:58:07.969Z</time></trkpt><trkpt lat="44.83521568644634" lon="12.082077153831106"><ele>-2.0</ele><time>2026-03-28T14:58:08.969Z</time></trkpt><trkpt lat="44.83522625474703" lon="12.08167369196013"><ele>-2.0</ele><time>2026-03-28T14:58:09.969Z</time></trkpt><trkpt lat="44.83523647114964" lon="12.081270378925227"><ele>-2.0</ele><time>2026-03-28T14:58:10.969Z</time></trkpt><trkpt lat="44.83524559445205" lon="12.080867906116646"><ele>-2.0</ele><time>2026-03-28T14:58:11.969Z</time></trkpt><trkpt lat="44.835254561858456" lon="12.080461363466776"><ele>-2.5</ele><time>2026-03-28T14:58:12.969Z</time></trkpt><trkpt lat="44.835262685756106" lon="12.080055452779966"><ele>-3.0</ele><time>2026-03-28T14:58:13.969Z</time></trkpt><trkpt lat="44.83526807317894" lon="12.079644946184336"><ele>-3.0</ele><time>2026-03-28T14:58:14.969Z</time></trkpt><trkpt lat="44.83527602331098" lon="12.079240049881513"><ele>-3.0</ele><time>2026-03-28T14:58:15.969Z</time></trkpt><trkpt lat="44.83528764029853" lon="12.078828947490496"><ele>-3.0</ele><time>2026-03-28T14:58:16.969Z</time></trkpt><trkpt lat="44.835290920663844" lon="12.07841831204887"><ele>-3.0</ele><time>2026-03-28T14:58:17.969Z</time></trkpt><trkpt lat="44.83529869365058" lon="12.078006402787446"><ele>-2.0</ele><time>2026-03-28T14:58:18.969Z</time></trkpt><trkpt lat="44.83530985849824" lon="12.077596746089805"><ele>-1.0</ele><time>2026-03-28T14:58:19.969Z</time></trkpt><trkpt lat="44.83531684794863" lon="12.077185803219463"><ele>-1.0</ele><time>2026-03-28T14:58:20.969Z</time></trkpt><trkpt lat="44.83532504970825" lon="12.076775301600554"><ele>-1.0</ele><time>2026-03-28T14:58:21.969Z</time></trkpt><trkpt lat="44.835338387505196" lon="12.076366836480522"><ele>-1.0</ele><time>2026-03-28T14:58:22.969Z</time></trkpt><trkpt lat="44.83534506750107" lon="12.075963614620841"><ele>-1.0</ele><time>2026-03-28T14:58:23.969Z</time></trkpt><trkpt lat="44.83534858458266" lon="12.075567776009896"><ele>-1.0</ele><time>2026-03-28T14:58:24.969Z</time></trkpt><trkpt lat="44.83535339199729" lon="12.075173365350564"><ele>-1.0</ele><time>2026-03-28T14:58:25.969Z</time></trkpt><trkpt lat="44.835356725369714" lon="12.074781694633467"><ele>0.0</ele><time>2026-03-28T14:58:26.969Z</time></trkpt><trkpt lat="44.83534314926255" lon="12.074380080368948"><ele>1.0</ele><time>2026-03-28T14:58:27.969Z</time></trkpt><trkpt lat="44.83533592659358" lon="12.073983513599451"><ele>1.5</ele><time>2026-03-28T14:58:28.969Z</time></trkpt><trkpt lat="44.835315710047645" lon="12.073584002433735"><ele>2.0</ele><time>2026-03-28T14:58:29.969Z</time></trkpt><trkpt lat="44.83529120045167" lon="12.073179648085635"><ele>2.0</ele><time>2026-03-28T14:58:30.969Z</time></trkpt><trkpt lat="44.83525479777451" lon="12.072771470056374"><ele>2.0</ele><time>2026-03-28T14:58:31.969Z</time></trkpt><trkpt lat="44.8352170483681" lon="12.072362562674861"><ele>0.5</ele><time>2026-03-28T14:58:32.969Z</time></trkpt><trkpt lat="44.83518047275392" lon="12.071959285115987"><ele>-1.0</ele><time>2026-03-28T14:58:33.969Z</time></trkpt><trkpt lat="44.83515096581232" lon="12.071587843564783"><ele>-0.5</ele><time>2026-03-28T14:58:34.969Z</time></trkpt><trkpt lat="44.83511849413381" lon="12.071244142183277"><ele>0.0</ele><time>2026-03-28T14:58:35.969Z</time></trkpt><trkpt lat="44.83508724643012" lon="12.070936529228495"><ele>0.0</ele><time>2026-03-28T14:58:36.969Z</time></trkpt><trkpt lat="44.8350630362612" lon="12.070674284442294"><ele>0.0</ele><time>2026-03-28T14:58:37.969Z</time></trkpt><trkpt lat="44.83504728186648" lon="12.070421568815672"><ele>0.0</ele><time>2026-03-28T14:58:38.969Z</time></trkpt><trkpt lat="44.835067073284314" lon="12.07017141554723"><ele>0.0</ele><time>2026-03-28T14:58:39.97Z</time></trkpt><trkpt lat="44.83511961087962" lon="12.069902287551992"><ele>0.0</ele><time>2026-03-28T14:58:40.969Z</time></trkpt><trkpt lat="44.835205982266174" lon="12.069612439768877"><ele>0.0</ele><time>2026-03-28T14:58:41.969Z</time></trkpt><trkpt lat="44.83530568841486" lon="12.069310839976735"><ele>-1.0</ele><time>2026-03-28T14:58:42.97Z</time></trkpt><trkpt lat="44.835409265069536" lon="12.068995507846946"><ele>-2.0</ele><time>2026-03-28T14:58:43.97Z</time></trkpt><trkpt lat="44.83550834756545" lon="12.068683686109596"><ele>-2.0</ele><time>2026-03-28T14:58:44.97Z</time></trkpt><trkpt lat="44.8356061254571" lon="12.068375469279061"><ele>-2.0</ele><time>2026-03-28T14:58:45.969Z</time></trkpt><trkpt lat="44.835700110309034" lon="12.068089725321753"><ele>-1.6666666666666665</ele><time>2026-03-28T14:58:46.97Z</time></trkpt><trkpt lat="44.83579163824603" lon="12.067816771264324"><ele>-1.3333333333333333</ele><time>2026-03-28T14:58:47.97Z</time></trkpt><trkpt lat="44.83587630987004" lon="12.067554003965956"><ele>-1.0</ele><time>2026-03-28T14:58:48.969Z</time></trkpt><trkpt lat="44.83595770331322" lon="12.067301534727306"><ele>-1.6666666666666665</ele><time>2026-03-28T14:58:49.97Z</time></trkpt><trkpt lat="44.836038701591804" lon="12.067058569529797"><ele>-2.3333333333333335</ele><time>2026-03-28T14:58:50.97Z</time></trkpt><trkpt lat="44.83610635850035" lon="12.066815005838519"><ele>-3.0</ele><time>2026-03-28T14:58:51.97Z</time></trkpt><trkpt lat="44.83615813153765" lon="12.066575213568228"><ele>-3.0</ele><time>2026-03-28T14:58:52.97Z</time></trkpt><trkpt lat="44.83617154274316" lon="12.066316116675702"><ele>-3.0</ele><time>2026-03-28T14:58:53.97Z</time></trkpt><trkpt lat="44.836146554576466" lon="12.066044780790486"><ele>-3.0</ele><time>2026-03-28T14:58:54.97Z</time></trkpt><trkpt lat="44.836088637486974" lon="12.06575656523585"><ele>-3.0</ele><time>2026-03-28T14:58:55.97Z</time></trkpt><trkpt lat="44.83602113257173" lon="12.065455824107412"><ele>-3.0</ele><time>2026-03-28T14:58:56.97Z</time></trkpt><trkpt lat="44.835946657557685" lon="12.065127571869734"><ele>-2.0</ele><time>2026-03-28T14:58:57.97Z</time></trkpt><trkpt lat="44.835866627299204" lon="12.064790062204082"><ele>-1.0</ele><time>2026-03-28T14:58:58.97Z</time></trkpt><trkpt lat="44.83578835679588" lon="12.064451122260575"><ele>-1.5</ele><time>2026-03-28T14:58:59.97Z</time></trkpt><trkpt lat="44.83571184941946" lon="12.064111957890074"><ele>-2.0</ele><time>2026-03-28T14:59:00.97Z</time></trkpt><trkpt lat="44.83563872761212" lon="12.063766711430574"><ele>-2.0</ele><time>2026-03-28T14:59:01.97Z</time></trkpt><trkpt lat="44.83560279872334" lon="12.063409551696019"><ele>-2.0</ele><time>2026-03-28T14:59:02.97Z</time></trkpt><trkpt lat="44.835528332279715" lon="12.063068892213996"><ele>-2.0</ele><time>2026-03-28T14:59:03.97Z</time></trkpt><trkpt lat="44.83546219828966" lon="12.062731777115173"><ele>-2.0</ele><time>2026-03-28T14:59:04.969Z</time></trkpt><trkpt lat="44.83543768711387" lon="12.062385162678476"><ele>-2.0</ele><time>2026-03-28T14:59:05.969Z</time></trkpt><trkpt lat="44.8354592228958" lon="12.06204451226613"><ele>-2.0</ele><time>2026-03-28T14:59:06.969Z</time></trkpt><trkpt lat="44.83549294665906" lon="12.061711443204079"><ele>-2.5</ele><time>2026-03-28T14:59:07.969Z</time></trkpt><trkpt lat="44.835523091199285" lon="12.061380904664635"><ele>-3.0</ele><time>2026-03-28T14:59:08.969Z</time></trkpt><trkpt lat="44.83554830474021" lon="12.061040083346102"><ele>-2.5</ele><time>2026-03-28T14:59:09.969Z</time></trkpt><trkpt lat="44.835566563569564" lon="12.06069409612971"><ele>-2.0</ele><time>2026-03-28T14:59:10.969Z</time></trkpt><trkpt lat="44.83557982879329" lon="12.060351287517303"><ele>-2.0</ele><time>2026-03-28T14:59:11.969Z</time></trkpt><trkpt lat="44.83559344212019" lon="12.059999482932263"><ele>-2.0</ele><time>2026-03-28T14:59:12.969Z</time></trkpt><trkpt lat="44.83560502140311" lon="12.059642548237429"><ele>-2.0</ele><time>2026-03-28T14:59:13.969Z</time></trkpt><trkpt lat="44.83561631842846" lon="12.059287896760283"><ele>-2.0</ele><time>2026-03-28T14:59:14.969Z</time></trkpt><trkpt lat="44.83561246599682" lon="12.058923374807984"><ele>-2.0</ele><time>2026-03-28T14:59:15.969Z</time></trkpt><trkpt lat="44.83564255829614" lon="12.058552718893049"><ele>-2.0</ele><time>2026-03-28T14:59:16.969Z</time></trkpt><trkpt lat="44.83566333673205" lon="12.058180752227402"><ele>-2.0</ele><time>2026-03-28T14:59:17.969Z</time></trkpt><trkpt lat="44.8356862223563" lon="12.057800741222362"><ele>-2.0</ele><time>2026-03-28T14:59:18.969Z</time></trkpt><trkpt lat="44.83571106148753" lon="12.057417450470535"><ele>-2.0</ele><time>2026-03-28T14:59:19.969Z</time></trkpt><trkpt lat="44.83574118440796" lon="12.057028789742938"><ele>-2.0</ele><time>2026-03-28T14:59:20.969Z</time></trkpt><trkpt lat="44.83577519429718" lon="12.056642258283468"><ele>-2.0</ele><time>2026-03-28T14:59:21.969Z</time></trkpt><trkpt lat="44.835808735986106" lon="12.056261048157284"><ele>-2.0</ele><time>2026-03-28T14:59:22.969Z</time></trkpt><trkpt lat="44.835841782964586" lon="12.055885460500669"><ele>-2.5</ele><time>2026-03-28T14:59:23.969Z</time></trkpt><trkpt lat="44.835874183230466" lon="12.055521761045082"><ele>-3.0</ele><time>2026-03-28T14:59:24.969Z</time></trkpt><trkpt lat="44.83590773579027" lon="12.055158614612765"><ele>-2.5</ele><time>2026-03-28T14:59:25.969Z</time></trkpt><trkpt lat="44.83592036026846" lon="12.054808946513795"><ele>-2.0</ele><time>2026-03-28T14:59:26.969Z</time></trkpt><trkpt lat="44.83590890120935" lon="12.054470703427848"><ele>-2.0</ele><time>2026-03-28T14:59:27.969Z</time></trkpt><trkpt lat="44.83585867469162" lon="12.054141080740026"><ele>-2.0</ele><time>2026-03-28T14:59:28.969Z</time></trkpt><trkpt lat="44.83580745586151" lon="12.053797777473397"><ele>-2.0</ele><time>2026-03-28T14:59:29.969Z</time></trkpt><trkpt lat="44.8357896862423" lon="12.053446292851344"><ele>-2.0</ele><time>2026-03-28T14:59:30.969Z</time></trkpt><trkpt lat="44.83574401111556" lon="12.053093504401103"><ele>-2.0</ele><time>2026-03-28T14:59:31.969Z</time></trkpt><trkpt lat="44.83569784556838" lon="12.052733385108214"><ele>-2.0</ele><time>2026-03-28T14:59:32.969Z</time></trkpt><trkpt lat="44.83564346046252" lon="12.052378044456653"><ele>-2.0</ele><time>2026-03-28T14:59:33.969Z</time></trkpt><trkpt lat="44.83557580792782" lon="12.052021670064248"><ele>-2.0</ele><time>2026-03-28T14:59:34.969Z</time></trkpt><trkpt lat="44.835495565362656" lon="12.051660688674932"><ele>-2.0</ele><time>2026-03-28T14:59:35.969Z</time></trkpt><trkpt lat="44.835396124166024" lon="12.0512993788025"><ele>-2.0</ele><time>2026-03-28T14:59:36.969Z</time></trkpt><trkpt lat="44.83528485361897" lon="12.05093541630173"><ele>-2.5</ele><time>2026-03-28T14:59:37.969Z</time></trkpt><trkpt lat="44.83516791254022" lon="12.050575890708176"><ele>-3.0</ele><time>2026-03-28T14:59:38.969Z</time></trkpt><trkpt lat="44.83504974325889" lon="12.050224461407737"><ele>-2.0</ele><time>2026-03-28T14:59:39.969Z</time></trkpt><trkpt lat="44.83492902342458" lon="12.049882493529488"><ele>-1.0</ele><time>2026-03-28T14:59:40.969Z</time></trkpt><trkpt lat="44.83479494764536" lon="12.04955553121414"><ele>-1.0</ele><time>2026-03-28T14:59:41.969Z</time></trkpt><trkpt lat="44.834647290466435" lon="12.049237884992726"><ele>-1.0</ele><time>2026-03-28T14:59:42.969Z</time></trkpt><trkpt lat="44.834494099074746" lon="12.048919507140193"><ele>-1.0</ele><time>2026-03-28T14:59:43.969Z</time></trkpt><trkpt lat="44.834333128549055" lon="12.04859967521832"><ele>-1.0</ele><time>2026-03-28T14:59:44.969Z</time></trkpt><trkpt lat="44.83416964892139" lon="12.048279935794312"><ele>-1.5</ele><time>2026-03-28T14:59:45.969Z</time></trkpt><trkpt lat="44.83400384125346" lon="12.047959472447902"><ele>-2.0</ele><time>2026-03-28T14:59:46.969Z</time></trkpt><trkpt lat="44.83384418450959" lon="12.047634596246656"><ele>-2.0</ele><time>2026-03-28T14:59:47.969Z</time></trkpt><trkpt lat="44.833699818343106" lon="12.04730055829482"><ele>-2.0</ele><time>2026-03-28T14:59:48.969Z</time></trkpt><trkpt lat="44.83354930155219" lon="12.046968279766782"><ele>-1.5</ele><time>2026-03-28T14:59:49.969Z</time></trkpt><trkpt lat="44.83340374694418" lon="12.046647129982945"><ele>-1.0</ele><time>2026-03-28T14:59:50.969Z</time></trkpt><trkpt lat="44.83325289326092" lon="12.046319384619668"><ele>-1.0</ele><time>2026-03-28T14:59:51.969Z</time></trkpt><trkpt lat="44.83309876586663" lon="12.046005405804713"><ele>-1.0</ele><time>2026-03-28T14:59:52.969Z</time></trkpt><trkpt lat="44.832935886919174" lon="12.045687299393345"><ele>-1.0</ele><time>2026-03-28T14:59:53.969Z</time></trkpt><trkpt lat="44.832760258542116" lon="12.045373003060732"><ele>-1.0</ele><time>2026-03-28T14:59:54.969Z</time></trkpt><trkpt lat="44.83257379933093" lon="12.045071914508732"><ele>-1.5</ele><time>2026-03-28T14:59:55.968Z</time></trkpt><trkpt lat="44.83238508983586" lon="12.04476655217269"><ele>-2.0</ele><time>2026-03-28T14:59:56.968Z</time></trkpt><trkpt lat="44.83219750747654" lon="12.044458675385467"><ele>-2.0</ele><time>2026-03-28T14:59:57.968Z</time></trkpt><trkpt lat="44.83200797540613" lon="12.044150705238065"><ele>-2.0</ele><time>2026-03-28T14:59:58.968Z</time></trkpt><trkpt lat="44.831813881292376" lon="12.043849396554531"><ele>-2.0</ele><time>2026-03-28T14:59:59.968Z</time></trkpt><trkpt lat="44.83161599097542" lon="12.04354595500685"><ele>-2.0</ele><time>2026-03-28T15:00:00.968Z</time></trkpt><trkpt lat="44.831421191603525" lon="12.043249637425832"><ele>-2.5</ele><time>2026-03-28T15:00:01.968Z</time></trkpt><trkpt lat="44.831225648955154" lon="12.042958220344987"><ele>-3.0</ele><time>2026-03-28T15:00:02.968Z</time></trkpt><trkpt lat="44.83103314837331" lon="12.042663687233588"><ele>-2.0</ele><time>2026-03-28T15:00:03.968Z</time></trkpt><trkpt lat="44.830837133512105" lon="12.04236969865333"><ele>-1.0</ele><time>2026-03-28T15:00:04.968Z</time></trkpt><trkpt lat="44.83065937639316" lon="12.042066313213333"><ele>-1.0</ele><time>2026-03-28T15:00:05.968Z</time></trkpt><trkpt lat="44.83047682201154" lon="12.041786637573775"><ele>-1.0</ele><time>2026-03-28T15:00:06.968Z</time></trkpt><trkpt lat="44.83030048742368" lon="12.04151649057527"><ele>-1.0</ele><time>2026-03-28T15:00:07.968Z</time></trkpt><trkpt lat="44.83013368228276" lon="12.041251538075663"><ele>-1.0</ele><time>2026-03-28T15:00:08.968Z</time></trkpt><trkpt lat="44.8299735701644" lon="12.040975683842307"><ele>-2.0</ele><time>2026-03-28T15:00:09.968Z</time></trkpt><trkpt lat="44.8298296814474" lon="12.04067857422382"><ele>-3.0</ele><time>2026-03-28T15:00:10.968Z</time></trkpt><trkpt lat="44.8297068996214" lon="12.04037139261631"><ele>-3.0</ele><time>2026-03-28T15:00:11.968Z</time></trkpt><trkpt lat="44.82956151595054" lon="12.040087795687933"><ele>-3.0</ele><time>2026-03-28T15:00:12.968Z</time></trkpt><trkpt lat="44.82948254339454" lon="12.039733201892282"><ele>-2.5</ele><time>2026-03-28T15:00:13.968Z</time></trkpt><trkpt lat="44.82937595105204" lon="12.03941156887339"><ele>-2.0</ele><time>2026-03-28T15:00:14.968Z</time></trkpt><trkpt lat="44.82927789171889" lon="12.039086010850424"><ele>-1.5</ele><time>2026-03-28T15:00:15.968Z</time></trkpt><trkpt lat="44.82917251131683" lon="12.038768896875958"><ele>-1.0</ele><time>2026-03-28T15:00:16.968Z</time></trkpt><trkpt lat="44.82905345308948" lon="12.038457363648035"><ele>-1.5</ele><time>2026-03-28T15:00:17.968Z</time></trkpt><trkpt lat="44.82891464726023" lon="12.038152449946384"><ele>-2.0</ele><time>2026-03-28T15:00:18.968Z</time></trkpt><trkpt lat="44.828764464383475" lon="12.037841518731552"><ele>-2.0</ele><time>2026-03-28T15:00:19.968Z</time></trkpt><trkpt lat="44.828615198953614" lon="12.037517969608226"><ele>-2.0</ele><time>2026-03-28T15:00:20.968Z</time></trkpt><trkpt lat="44.82846578179637" lon="12.037196737566434"><ele>-1.5</ele><time>2026-03-28T15:00:21.968Z</time></trkpt><trkpt lat="44.82832606959146" lon="12.036878854815189"><ele>-1.0</ele><time>2026-03-28T15:00:22.968Z</time></trkpt><trkpt lat="44.828190299370355" lon="12.036575830232906"><ele>-1.0</ele><time>2026-03-28T15:00:23.968Z</time></trkpt><trkpt lat="44.82806309884595" lon="12.036290063759639"><ele>-1.0</ele><time>2026-03-28T15:00:24.968Z</time></trkpt><trkpt lat="44.82792890357304" lon="12.036016979942682"><ele>-1.5</ele><time>2026-03-28T15:00:25.968Z</time></trkpt><trkpt lat="44.82777254639275" lon="12.035758185122369"><ele>-2.0</ele><time>2026-03-28T15:00:26.968Z</time></trkpt><trkpt lat="44.82758772409222" lon="12.035519883897187"><ele>-2.5</ele><time>2026-03-28T15:00:27.968Z</time></trkpt><trkpt lat="44.82738427555014" lon="12.035283416983935"><ele>-3.0</ele><time>2026-03-28T15:00:28.968Z</time></trkpt><trkpt lat="44.82716963045283" lon="12.035050128507361"><ele>-3.5</ele><time>2026-03-28T15:00:29.968Z</time></trkpt><trkpt lat="44.82695695656987" lon="12.034833858160285"><ele>-4.0</ele><time>2026-03-28T15:00:30.968Z</time></trkpt><trkpt lat="44.826762617306436" lon="12.03463664709096"><ele>-3.0</ele><time>2026-03-28T15:00:31.968Z</time></trkpt><trkpt lat="44.8265659170976" lon="12.034472224027262"><ele>-2.0</ele><time>2026-03-28T15:00:32.968Z</time></trkpt><trkpt lat="44.826350401474876" lon="12.034322463295853"><ele>-2.0</ele><time>2026-03-28T15:00:33.968Z</time></trkpt><trkpt lat="44.82611321718746" lon="12.034208334921965"><ele>-2.0</ele><time>2026-03-28T15:00:34.968Z</time></trkpt><trkpt lat="44.82586730665354" lon="12.034108169068995"><ele>-3.0</ele><time>2026-03-28T15:00:35.968Z</time></trkpt><trkpt lat="44.825620934432784" lon="12.034011522924045"><ele>-4.0</ele><time>2026-03-28T15:00:36.968Z</time></trkpt><trkpt lat="44.82537112584447" lon="12.033931364626863"><ele>-3.5</ele><time>2026-03-28T15:00:37.968Z</time></trkpt><trkpt lat="44.825132129328836" lon="12.033870533593355"><ele>-3.0</ele><time>2026-03-28T15:00:38.968Z</time></trkpt><trkpt lat="44.824903663560015" lon="12.033823132482633"><ele>-3.0</ele><time>2026-03-28T15:00:39.968Z</time></trkpt><trkpt lat="44.8246800408079" lon="12.033786145383788"><ele>-3.0</ele><time>2026-03-28T15:00:40.968Z</time></trkpt><trkpt lat="44.8244453031718" lon="12.033766530380987"><ele>-2.5</ele><time>2026-03-28T15:00:41.968Z</time></trkpt><trkpt lat="44.82420770858119" lon="12.033759192682647"><ele>-2.0</ele><time>2026-03-28T15:00:42.969Z</time></trkpt><trkpt lat="44.82397473517608" lon="12.033779921691897"><ele>-2.0</ele><time>2026-03-28T15:00:43.969Z</time></trkpt><trkpt lat="44.823747124145264" lon="12.03381841861917"><ele>-2.0</ele><time>2026-03-28T15:00:44.969Z</time></trkpt><trkpt lat="44.82352480649813" lon="12.033882248928425"><ele>-2.0</ele><time>2026-03-28T15:00:45.969Z</time></trkpt><trkpt lat="44.82331504674309" lon="12.033957483522574"><ele>-2.0</ele><time>2026-03-28T15:00:46.969Z</time></trkpt><trkpt lat="44.823126754872504" lon="12.03405054988749"><ele>-2.0</ele><time>2026-03-28T15:00:47.969Z</time></trkpt><trkpt lat="44.822944102933704" lon="12.034167694810847"><ele>-2.0</ele><time>2026-03-28T15:00:48.969Z</time></trkpt><trkpt lat="44.822777624679325" lon="12.034326538078416"><ele>-2.0</ele><time>2026-03-28T15:00:49.969Z</time></trkpt><trkpt lat="44.82263714996089" lon="12.03450294482364"><ele>-2.0</ele><time>2026-03-28T15:00:50.969Z</time></trkpt><trkpt lat="44.822516538991216" lon="12.034715085329072"><ele>-2.0</ele><time>2026-03-28T15:00:51.969Z</time></trkpt><trkpt lat="44.822415159814135" lon="12.034937727370723"><ele>-2.0</ele><time>2026-03-28T15:00:52.969Z</time></trkpt><trkpt lat="44.82230789096078" lon="12.035132345190265"><ele>-2.0</ele><time>2026-03-28T15:00:53.969Z</time></trkpt><trkpt lat="44.822195737563376" lon="12.035297865619109"><ele>-2.0</ele><time>2026-03-28T15:00:54.969Z</time></trkpt><trkpt lat="44.822070178493604" lon="12.035438566355559"><ele>-2.0</ele><time>2026-03-28T15:00:55.969Z</time></trkpt><trkpt lat="44.82190998666363" lon="12.035534598228319"><ele>-2.0</ele><time>2026-03-28T15:00:56.969Z</time></trkpt><trkpt lat="44.82172622333533" lon="12.035593647108616"><ele>-2.0</ele><time>2026-03-28T15:00:57.969Z</time></trkpt><trkpt lat="44.82153715280441" lon="12.035630013517583"><ele>-2.0</ele><time>2026-03-28T15:00:58.969Z</time></trkpt><trkpt lat="44.821327521187705" lon="12.035631962753639"><ele>-2.0</ele><time>2026-03-28T15:00:59.969Z</time></trkpt><trkpt lat="44.821105396877726" lon="12.035616313165416"><ele>-2.0</ele><time>2026-03-28T15:01:00.969Z</time></trkpt><trkpt lat="44.820876660491656" lon="12.035595648694636"><ele>-2.0</ele><time>2026-03-28T15:01:01.969Z</time></trkpt><trkpt lat="44.82065198087108" lon="12.035564957821867"><ele>-2.0</ele><time>2026-03-28T15:01:02.969Z</time></trkpt><trkpt lat="44.82042774474421" lon="12.0355226524943"><ele>-2.0</ele><time>2026-03-28T15:01:03.969Z</time></trkpt><trkpt lat="44.82020153592099" lon="12.035466608184393"><ele>-2.5</ele><time>2026-03-28T15:01:04.969Z</time></trkpt><trkpt lat="44.81997190007303" lon="12.035397279777058"><ele>-3.0</ele><time>2026-03-28T15:01:05.969Z</time></trkpt><trkpt lat="44.81974856910341" lon="12.035308985461228"><ele>-3.0</ele><time>2026-03-28T15:01:06.969Z</time></trkpt><trkpt lat="44.81951889850037" lon="12.035208079374875"><ele>-3.0</ele><time>2026-03-28T15:01:07.969Z</time></trkpt><trkpt lat="44.81929269907353" lon="12.0350891985765"><ele>-3.0</ele><time>2026-03-28T15:01:08.969Z</time></trkpt><trkpt lat="44.81907301099924" lon="12.034943238323583"><ele>-3.0</ele><time>2026-03-28T15:01:09.969Z</time></trkpt><trkpt lat="44.8188525121703" lon="12.034792867016373"><ele>-3.0</ele><time>2026-03-28T15:01:10.969Z</time></trkpt><trkpt lat="44.81863186309496" lon="12.034628591226662"><ele>-3.0</ele><time>2026-03-28T15:01:11.969Z</time></trkpt><trkpt lat="44.81841580663227" lon="12.034461440686814"><ele>-3.0</ele><time>2026-03-28T15:01:12.968Z</time></trkpt><trkpt lat="44.81820284460043" lon="12.034288291113313"><ele>-3.0</ele><time>2026-03-28T15:01:13.968Z</time></trkpt><trkpt lat="44.81800478116279" lon="12.034097211367582"><ele>-3.0</ele><time>2026-03-28T15:01:14.968Z</time></trkpt><trkpt lat="44.8178128031258" lon="12.033923240124253"><ele>-3.0</ele><time>2026-03-28T15:01:15.968Z</time></trkpt><trkpt lat="44.81763240085587" lon="12.033753847950665"><ele>-3.0</ele><time>2026-03-28T15:01:16.968Z</time></trkpt><trkpt lat="44.81746514444037" lon="12.033584312001373"><ele>-2.3333333333333335</ele><time>2026-03-28T15:01:17.968Z</time></trkpt><trkpt lat="44.81731754931409" lon="12.033401856418806"><ele>-1.6666666666666665</ele><time>2026-03-28T15:01:18.968Z</time></trkpt><trkpt lat="44.817181021089354" lon="12.033185519770083"><ele>-1.0</ele><time>2026-03-28T15:01:19.968Z</time></trkpt><trkpt lat="44.817051705233325" lon="12.032938206712375"><ele>-1.0</ele><time>2026-03-28T15:01:20.968Z</time></trkpt><trkpt lat="44.8169184780719" lon="12.032660661870427"><ele>-1.0</ele><time>2026-03-28T15:01:21.968Z</time></trkpt><trkpt lat="44.81677454590009" lon="12.03236868521559"><ele>-1.0</ele><time>2026-03-28T15:01:22.968Z</time></trkpt><trkpt lat="44.81662480970754" lon="12.032064934660573"><ele>-1.0</ele><time>2026-03-28T15:01:23.968Z</time></trkpt><trkpt lat="44.81647099188834" lon="12.031751037433038"><ele>-1.5</ele><time>2026-03-28T15:01:24.968Z</time></trkpt><trkpt lat="44.81632371976536" lon="12.031448701970085"><ele>-2.0</ele><time>2026-03-28T15:01:25.968Z</time></trkpt><trkpt lat="44.81618468067251" lon="12.031163268120542"><ele>-2.0</ele><time>2026-03-28T15:01:26.968Z</time></trkpt><trkpt lat="44.81605935798733" lon="12.030896927937425"><ele>-2.0</ele><time>2026-03-28T15:01:27.968Z</time></trkpt><trkpt lat="44.815961710817106" lon="12.030624487892423"><ele>-2.0</ele><time>2026-03-28T15:01:28.968Z</time></trkpt><trkpt lat="44.81588843080905" lon="12.030333199585717"><ele>-1.5</ele><time>2026-03-28T15:01:29.968Z</time></trkpt><trkpt lat="44.81583735943754" lon="12.030014966025583"><ele>-1.0</ele><time>2026-03-28T15:01:30.968Z</time></trkpt><trkpt lat="44.81580743935482" lon="12.029669888771068"><ele>-1.0</ele><time>2026-03-28T15:01:31.968Z</time></trkpt><trkpt lat="44.81578697406915" lon="12.029311224469186"><ele>-1.0</ele><time>2026-03-28T15:01:32.968Z</time></trkpt><trkpt lat="44.81576891789022" lon="12.028945637638511"><ele>-1.0</ele><time>2026-03-28T15:01:33.968Z</time></trkpt><trkpt lat="44.81575055064615" lon="12.028593986610256"><ele>-1.0</ele><time>2026-03-28T15:01:34.968Z</time></trkpt><trkpt lat="44.815733897099214" lon="12.028276674278944"><ele>-1.0</ele><time>2026-03-28T15:01:35.968Z</time></trkpt><trkpt lat="44.815717924802094" lon="12.027972342349127"><ele>-1.0</ele><time>2026-03-28T15:01:36.968Z</time></trkpt><trkpt lat="44.8157016869439" lon="12.027662950411921"><ele>-1.0</ele><time>2026-03-28T15:01:37.968Z</time></trkpt><trkpt lat="44.81568524685205" lon="12.027349705219356"><ele>-1.0</ele><time>2026-03-28T15:01:38.968Z</time></trkpt><trkpt lat="44.815668663634156" lon="12.027017995018346"><ele>-1.0</ele><time>2026-03-28T15:01:39.968Z</time></trkpt><trkpt lat="44.81565188181467" lon="12.026678292934163"><ele>-1.0</ele><time>2026-03-28T15:01:40.968Z</time></trkpt><trkpt lat="44.815635128946354" lon="12.02633917668669"><ele>-1.0</ele><time>2026-03-28T15:01:41.968Z</time></trkpt><trkpt lat="44.81561787272654" lon="12.025989871657279"><ele>-0.5</ele><time>2026-03-28T15:01:42.968Z</time></trkpt><trkpt lat="44.81560011190285" lon="12.02563187947856"><ele>0.0</ele><time>2026-03-28T15:01:43.968Z</time></trkpt><trkpt lat="44.81558080150369" lon="12.025274059687979"><ele>0.0</ele><time>2026-03-28T15:01:44.968Z</time></trkpt><trkpt lat="44.81556149722465" lon="12.024916353382721"><ele>0.0</ele><time>2026-03-28T15:01:45.968Z</time></trkpt><trkpt lat="44.81554088477375" lon="12.024557826050586"><ele>0.0</ele><time>2026-03-28T15:01:46.968Z</time></trkpt><trkpt lat="44.81551673305003" lon="12.024195392838909"><ele>0.0</ele><time>2026-03-28T15:01:47.968Z</time></trkpt><trkpt lat="44.81548699616665" lon="12.023827481954022"><ele>-0.5</ele><time>2026-03-28T15:01:48.968Z</time></trkpt><trkpt lat="44.81545613128357" lon="12.023468295644031"><ele>-1.0</ele><time>2026-03-28T15:01:49.968Z</time></trkpt><trkpt lat="44.815420937838475" lon="12.023112077913892"><ele>-1.0</ele><time>2026-03-28T15:01:50.968Z</time></trkpt><trkpt lat="44.81537851301417" lon="12.022762638225295"><ele>-1.0</ele><time>2026-03-28T15:01:51.968Z</time></trkpt><trkpt lat="44.81532614821113" lon="12.022415436909142"><ele>-1.0</ele><time>2026-03-28T15:01:52.968Z</time></trkpt><trkpt lat="44.81526071825593" lon="12.022076177691115"><ele>-1.0</ele><time>2026-03-28T15:01:53.968Z</time></trkpt><trkpt lat="44.81517552934874" lon="12.021748239302784"><ele>-1.0</ele><time>2026-03-28T15:01:54.968Z</time></trkpt><trkpt lat="44.81506801674471" lon="12.021435838942692"><ele>-1.0</ele><time>2026-03-28T15:01:55.968Z</time></trkpt><trkpt lat="44.814951579910435" lon="12.02112265829841"><ele>-0.5</ele><time>2026-03-28T15:01:56.968Z</time></trkpt><trkpt lat="44.81482754879605" lon="12.020814383288762"><ele>0.0</ele><time>2026-03-28T15:01:57.968Z</time></trkpt><trkpt lat="44.81469760654199" lon="12.020499139706258"><ele>0.0</ele><time>2026-03-28T15:01:58.968Z</time></trkpt><trkpt lat="44.81456837538304" lon="12.020187458802305"><ele>0.0</ele><time>2026-03-28T15:01:59.968Z</time></trkpt><trkpt lat="44.81444104992056" lon="12.019880374018614"><ele>0.0</ele><time>2026-03-28T15:02:00.968Z</time></trkpt><trkpt lat="44.81431139907988" lon="12.01956768091552"><ele>0.0</ele><time>2026-03-28T15:02:01.968Z</time></trkpt><trkpt lat="44.81417981321415" lon="12.019253898588556"><ele>0.0</ele><time>2026-03-28T15:02:02.968Z</time></trkpt><trkpt lat="44.814048125183184" lon="12.01894372835505"><ele>0.0</ele><time>2026-03-28T15:02:03.967Z</time></trkpt><trkpt lat="44.81391590651725" lon="12.0186418416261"><ele>0.0</ele><time>2026-03-28T15:02:04.967Z</time></trkpt><trkpt lat="44.81377995533281" lon="12.0183443364774"><ele>0.0</ele><time>2026-03-28T15:02:05.967Z</time></trkpt><trkpt lat="44.8136465317488" lon="12.018054712380016"><ele>0.0</ele><time>2026-03-28T15:02:06.967Z</time></trkpt><trkpt lat="44.81351328363485" lon="12.01776546835321"><ele>0.0</ele><time>2026-03-28T15:02:07.967Z</time></trkpt><trkpt lat="44.81338669387292" lon="12.017483265453318"><ele>0.3333333333333333</ele><time>2026-03-28T15:02:08.967Z</time></trkpt><trkpt lat="44.8132672842688" lon="12.017221442252287"><ele>0.6666666666666666</ele><time>2026-03-28T15:02:09.967Z</time></trkpt><trkpt lat="44.8131534337268" lon="12.01698218901429"><ele>1.0</ele><time>2026-03-28T15:02:10.967Z</time></trkpt><trkpt lat="44.81304479628473" lon="12.016760432847136"><ele>1.3333333333333333</ele><time>2026-03-28T15:02:11.967Z</time></trkpt><trkpt lat="44.81293036847187" lon="12.016568423421093"><ele>1.6666666666666665</ele><time>2026-03-28T15:02:12.967Z</time></trkpt><trkpt lat="44.81284818377303" lon="12.016358756609156"><ele>2.0</ele><time>2026-03-28T15:02:13.967Z</time></trkpt><trkpt lat="44.812758355690235" lon="12.016187532410239"><ele>2.0</ele><time>2026-03-28T15:02:14.967Z</time></trkpt><trkpt lat="44.81267604416124" lon="12.016029883413955"><ele>2.0</ele><time>2026-03-28T15:02:15.967Z</time></trkpt><trkpt lat="44.8125993818729" lon="12.015876084758263"><ele>2.0</ele><time>2026-03-28T15:02:16.967Z</time></trkpt><trkpt lat="44.812538492517255" lon="12.015745778313402"><ele>2.0</ele><time>2026-03-28T15:02:17.967Z</time></trkpt><trkpt lat="44.81247574438727" lon="12.015600574167495"><ele>2.0</ele><time>2026-03-28T15:02:18.967Z</time></trkpt><trkpt lat="44.812422280151324" lon="12.015446302231188"><ele>2.0</ele><time>2026-03-28T15:02:19.967Z</time></trkpt><trkpt lat="44.812371240668156" lon="12.015285686498874"><ele>2.0</ele><time>2026-03-28T15:02:20.967Z</time></trkpt><trkpt lat="44.81231058528636" lon="12.015120688751544"><ele>2.0</ele><time>2026-03-28T15:02:21.967Z</time></trkpt><trkpt lat="44.812262939714635" lon="12.014929642507903"><ele>2.25</ele><time>2026-03-28T15:02:22.967Z</time></trkpt><trkpt lat="44.8122215732771" lon="12.014744931536626"><ele>2.5</ele><time>2026-03-28T15:02:23.967Z</time></trkpt><trkpt lat="44.812190667511935" lon="12.014580874395858"><ele>2.75</ele><time>2026-03-28T15:02:24.967Z</time></trkpt><trkpt lat="44.812158021478474" lon="12.014426099106123"><ele>3.0</ele><time>2026-03-28T15:02:25.967Z</time></trkpt><trkpt lat="44.812124855269495" lon="12.014259476640401"><ele>2.5</ele><time>2026-03-28T15:02:26.967Z</time></trkpt><trkpt lat="44.812096380449354" lon="12.014069329061362"><ele>2.0</ele><time>2026-03-28T15:02:27.967Z</time></trkpt><trkpt lat="44.81207176441992" lon="12.013865269270719"><ele>1.5</ele><time>2026-03-28T15:02:28.967Z</time></trkpt><trkpt lat="44.81206095339328" lon="12.013642879710781"><ele>1.0</ele><time>2026-03-28T15:02:29.967Z</time></trkpt><trkpt lat="44.81206416118983" lon="12.013411946409551"><ele>1.0</ele><time>2026-03-28T15:02:30.967Z</time></trkpt><trkpt lat="44.81208228005292" lon="12.013176188000067"><ele>1.0</ele><time>2026-03-28T15:02:31.967Z</time></trkpt><trkpt lat="44.81210481816625" lon="12.012922090863325"><ele>1.0</ele><time>2026-03-28T15:02:32.967Z</time></trkpt><trkpt lat="44.8121879398745" lon="12.012656650043265"><ele>1.0</ele><time>2026-03-28T15:02:33.967Z</time></trkpt><trkpt lat="44.812262203605535" lon="12.012402714420212"><ele>1.0</ele><time>2026-03-28T15:02:34.967Z</time></trkpt><trkpt lat="44.81234750537011" lon="12.012129165683511"><ele>1.0</ele><time>2026-03-28T15:02:35.967Z</time></trkpt><trkpt lat="44.81243704346256" lon="12.01184926851467"><ele>1.0</ele><time>2026-03-28T15:02:36.967Z</time></trkpt><trkpt lat="44.81253796512918" lon="12.011556744234644"><ele>1.0</ele><time>2026-03-28T15:02:37.967Z</time></trkpt><trkpt lat="44.812639835098466" lon="12.011258706542334"><ele>0.6666666666666666</ele><time>2026-03-28T15:02:38.967Z</time></trkpt><trkpt lat="44.81273893468531" lon="12.010963859995252"><ele>0.3333333333333333</ele><time>2026-03-28T15:02:39.967Z</time></trkpt><trkpt lat="44.81283435422377" lon="12.010698381728016"><ele>0.0</ele><time>2026-03-28T15:02:40.967Z</time></trkpt><trkpt lat="44.81293903206536" lon="12.010442229727984"><ele>0.0</ele><time>2026-03-28T15:02:41.967Z</time></trkpt><trkpt lat="44.81305428853811" lon="12.010191372539868"><ele>0.0</ele><time>2026-03-28T15:02:42.967Z</time></trkpt><trkpt lat="44.813187878262674" lon="12.00994749048652"><ele>0.0</ele><time>2026-03-28T15:02:43.967Z</time></trkpt><trkpt lat="44.813364714160755" lon="12.009728009655682"><ele>0.0</ele><time>2026-03-28T15:02:44.967Z</time></trkpt><trkpt lat="44.81354733535387" lon="12.009520799486456"><ele>0.0</ele><time>2026-03-28T15:02:45.967Z</time></trkpt><trkpt lat="44.81373422622554" lon="12.009324448961783"><ele>0.3333333333333333</ele><time>2026-03-28T15:02:46.967Z</time></trkpt><trkpt lat="44.81391395825541" lon="12.009128269494957"><ele>0.6666666666666666</ele><time>2026-03-28T15:02:47.967Z</time></trkpt><trkpt lat="44.81409582282119" lon="12.008950797565776"><ele>1.0</ele><time>2026-03-28T15:02:48.968Z</time></trkpt><trkpt lat="44.81431025887441" lon="12.008845339271684"><ele>0.6666666666666666</ele><time>2026-03-28T15:02:49.968Z</time></trkpt><trkpt lat="44.81448290016663" lon="12.008645921828434"><ele>0.3333333333333333</ele><time>2026-03-28T15:02:50.968Z</time></trkpt><trkpt lat="44.814640062703376" lon="12.008427128964996"><ele>0.0</ele><time>2026-03-28T15:02:51.968Z</time></trkpt><trkpt lat="44.8147864000974" lon="12.00818344108508"><ele>0.0</ele><time>2026-03-28T15:02:52.968Z</time></trkpt><trkpt lat="44.814924673230294" lon="12.007915078704782"><ele>0.0</ele><time>2026-03-28T15:02:53.968Z</time></trkpt><trkpt lat="44.81504809306586" lon="12.007636778696988"><ele>-1.0</ele><time>2026-03-28T15:02:54.968Z</time></trkpt><trkpt lat="44.81516268537875" lon="12.00734044747425"><ele>-2.0</ele><time>2026-03-28T15:02:55.968Z</time></trkpt><trkpt lat="44.81527357899337" lon="12.007031904387906"><ele>-2.0</ele><time>2026-03-28T15:02:56.968Z</time></trkpt><trkpt lat="44.815385025756264" lon="12.00671793175312"><ele>-2.0</ele><time>2026-03-28T15:02:57.968Z</time></trkpt><trkpt lat="44.815489834354786" lon="12.006403340242601"><ele>-1.5</ele><time>2026-03-28T15:02:58.968Z</time></trkpt><trkpt lat="44.81558690066134" lon="12.006086359513908"><ele>-1.0</ele><time>2026-03-28T15:02:59.968Z</time></trkpt><trkpt lat="44.815674772792235" lon="12.005770199226333"><ele>0.5</ele><time>2026-03-28T15:03:00.968Z</time></trkpt><trkpt lat="44.815756111942456" lon="12.005450627534486"><ele>2.0</ele><time>2026-03-28T15:03:01.968Z</time></trkpt><trkpt lat="44.81582833163376" lon="12.005132949074726"><ele>2.0</ele><time>2026-03-28T15:03:02.968Z</time></trkpt><trkpt lat="44.81589977054604" lon="12.00480006982256"><ele>2.0</ele><time>2026-03-28T15:03:03.968Z</time></trkpt><trkpt lat="44.815963624928074" lon="12.0044552668611"><ele>0.5</ele><time>2026-03-28T15:03:04.968Z</time></trkpt><trkpt lat="44.81602558778634" lon="12.004101873043535"><ele>-1.0</ele><time>2026-03-28T15:03:05.968Z</time></trkpt><trkpt lat="44.81608436568871" lon="12.003754605543763"><ele>-1.0</ele><time>2026-03-28T15:03:06.968Z</time></trkpt><trkpt lat="44.81614192621411" lon="12.003407374078934"><ele>-1.0</ele><time>2026-03-28T15:03:07.968Z</time></trkpt><trkpt lat="44.81619835550374" lon="12.00306860960259"><ele>-1.0</ele><time>2026-03-28T15:03:08.968Z</time></trkpt><trkpt lat="44.81625377335434" lon="12.00273860862343"><ele>-1.0</ele><time>2026-03-28T15:03:09.968Z</time></trkpt><trkpt lat="44.81630745019735" lon="12.002418974970272"><ele>-1.0</ele><time>2026-03-28T15:03:10.968Z</time></trkpt><trkpt lat="44.81636040942113" lon="12.002106452847862"><ele>-1.0</ele><time>2026-03-28T15:03:11.968Z</time></trkpt><trkpt lat="44.81641397455056" lon="12.001793283530326"><ele>0.0</ele><time>2026-03-28T15:03:12.968Z</time></trkpt><trkpt lat="44.81646626933995" lon="12.001487541275278"><ele>1.0</ele><time>2026-03-28T15:03:13.968Z</time></trkpt><trkpt lat="44.816516127330544" lon="12.001196046016604"><ele>2.0</ele><time>2026-03-28T15:03:14.968Z</time></trkpt><trkpt lat="44.81656234393492" lon="12.000925840047573"><ele>2.333333333333333</ele><time>2026-03-28T15:03:15.968Z</time></trkpt><trkpt lat="44.81660433444638" lon="12.000680341984332"><ele>2.6666666666666665</ele><time>2026-03-28T15:03:16.968Z</time></trkpt><trkpt lat="44.81664326397247" lon="12.000452739959773"><ele>3.0</ele><time>2026-03-28T15:03:17.968Z</time></trkpt><trkpt lat="44.81668064615135" lon="12.000234184611742"><ele>3.0</ele><time>2026-03-28T15:03:18.968Z</time></trkpt><trkpt lat="44.81671540318419" lon="12.000030977045888"><ele>3.0</ele><time>2026-03-28T15:03:19.968Z</time></trkpt><trkpt lat="44.816746261458675" lon="11.999850582031758"><ele>3.0</ele><time>2026-03-28T15:03:20.968Z</time></trkpt><trkpt lat="44.816776022782264" lon="11.99967669243295"><ele>3.0</ele><time>2026-03-28T15:03:21.968Z</time></trkpt><trkpt lat="44.81680613880969" lon="11.99950073045084"><ele>2.6666666666666665</ele><time>2026-03-28T15:03:22.968Z</time></trkpt><trkpt lat="44.81683768966095" lon="11.999316385030019"><ele>2.333333333333333</ele><time>2026-03-28T15:03:23.968Z</time></trkpt><trkpt lat="44.81677701011679" lon="11.9990664652561"><ele>2.0</ele><time>2026-03-28T15:03:24.968Z</time></trkpt><trkpt lat="44.816761019406705" lon="11.998811099924747"><ele>2.0</ele><time>2026-03-28T15:03:25.968Z</time></trkpt><trkpt lat="44.816743780656296" lon="11.998535186327503"><ele>2.0</ele><time>2026-03-28T15:03:26.968Z</time></trkpt><trkpt lat="44.81671614091832" lon="11.99824443910459"><ele>2.0</ele><time>2026-03-28T15:03:27.968Z</time></trkpt><trkpt lat="44.816677444467715" lon="11.997946104001567"><ele>1.5</ele><time>2026-03-28T15:03:28.968Z</time></trkpt><trkpt lat="44.81662797665184" lon="11.99763873950665"><ele>1.0</ele><time>2026-03-28T15:03:29.968Z</time></trkpt><trkpt lat="44.816574481840284" lon="11.997320494275638"><ele>1.0</ele><time>2026-03-28T15:03:30.968Z</time></trkpt><trkpt lat="44.816517310463865" lon="11.99699459164137"><ele>1.0</ele><time>2026-03-28T15:03:31.968Z</time></trkpt><trkpt lat="44.81645448018008" lon="11.996672211748034"><ele>0.5</ele><time>2026-03-28T15:03:32.968Z</time></trkpt><trkpt lat="44.816371240567356" lon="11.99636340142989"><ele>0.0</ele><time>2026-03-28T15:03:33.968Z</time></trkpt><trkpt lat="44.81627141933062" lon="11.996058250647758"><ele>-1.0</ele><time>2026-03-28T15:03:34.968Z</time></trkpt><trkpt lat="44.816163728687194" lon="11.995749152050937"><ele>-2.0</ele><time>2026-03-28T15:03:35.968Z</time></trkpt><trkpt lat="44.81605245308794" lon="11.995439676807099"><ele>-2.0</ele><time>2026-03-28T15:03:36.968Z</time></trkpt><trkpt lat="44.815941449999634" lon="11.995133763599643"><ele>-2.0</ele><time>2026-03-28T15:03:37.968Z</time></trkpt><trkpt lat="44.81583425808683" lon="11.994834572434707"><ele>-0.5</ele><time>2026-03-28T15:03:38.968Z</time></trkpt><trkpt lat="44.81572747749053" lon="11.99453345409174"><ele>1.0</ele><time>2026-03-28T15:03:39.968Z</time></trkpt><trkpt lat="44.815619486273604" lon="11.994233627537465"><ele>0.0</ele><time>2026-03-28T15:03:40.968Z</time></trkpt><trkpt lat="44.81550575774514" lon="11.993948137419292"><ele>-1.0</ele><time>2026-03-28T15:03:41.968Z</time></trkpt><trkpt lat="44.81536585898641" lon="11.993688348889899"><ele>-1.0</ele><time>2026-03-28T15:03:42.968Z</time></trkpt><trkpt lat="44.815225689770244" lon="11.993419955047433"><ele>-1.0</ele><time>2026-03-28T15:03:43.968Z</time></trkpt><trkpt lat="44.81507966180046" lon="11.993151331815323"><ele>-0.5</ele><time>2026-03-28T15:03:44.968Z</time></trkpt><trkpt lat="44.814943615290865" lon="11.992878730903449"><ele>0.0</ele><time>2026-03-28T15:03:45.968Z</time></trkpt><trkpt lat="44.81480694143235" lon="11.992610528171891"><ele>-0.3333333333333333</ele><time>2026-03-28T15:03:46.967Z</time></trkpt><trkpt lat="44.81468063287393" lon="11.992346926695845"><ele>-0.6666666666666666</ele><time>2026-03-28T15:03:47.967Z</time></trkpt><trkpt lat="44.81455460920234" lon="11.992095615890046"><ele>-1.0</ele><time>2026-03-28T15:03:48.967Z</time></trkpt><trkpt lat="44.814418888022864" lon="11.991864258425887"><ele>-1.0</ele><time>2026-03-28T15:03:49.967Z</time></trkpt><trkpt lat="44.81427770168222" lon="11.991650170663458"><ele>-1.0</ele><time>2026-03-28T15:03:50.967Z</time></trkpt><trkpt lat="44.814134690889645" lon="11.991461560657209"><ele>-1.0</ele><time>2026-03-28T15:03:51.967Z</time></trkpt><trkpt lat="44.81398693893562" lon="11.991308388166425"><ele>-1.0</ele><time>2026-03-28T15:03:52.967Z</time></trkpt><trkpt lat="44.813835764346564" lon="11.991188887796964"><ele>-1.0</ele><time>2026-03-28T15:03:53.967Z</time></trkpt><trkpt lat="44.81370459823001" lon="11.9910763162045"><ele>-1.0</ele><time>2026-03-28T15:03:54.967Z</time></trkpt><trkpt lat="44.81360327811181" lon="11.990919321901705"><ele>-1.0</ele><time>2026-03-28T15:03:55.967Z</time></trkpt><trkpt lat="44.81355639079053" lon="11.990718405935818"><ele>-1.0</ele><time>2026-03-28T15:03:56.967Z</time></trkpt><trkpt lat="44.81348979913988" lon="11.990494537364459"><ele>-1.0</ele><time>2026-03-28T15:03:57.967Z</time></trkpt><trkpt lat="44.81340193929621" lon="11.990252404642131"><ele>-1.3333333333333333</ele><time>2026-03-28T15:03:58.967Z</time></trkpt><trkpt lat="44.81333323799531" lon="11.989970640213167"><ele>-1.6666666666666665</ele><time>2026-03-28T15:03:59.967Z</time></trkpt><trkpt lat="44.81324356479357" lon="11.989677021540263"><ele>-2.0</ele><time>2026-03-28T15:04:00.967Z</time></trkpt><trkpt lat="44.81314994756238" lon="11.989370488750396"><ele>-2.5</ele><time>2026-03-28T15:04:01.967Z</time></trkpt><trkpt lat="44.81305622550973" lon="11.989061123648327"><ele>-3.0</ele><time>2026-03-28T15:04:02.967Z</time></trkpt><trkpt lat="44.812964545492065" lon="11.988755110639232"><ele>-3.0</ele><time>2026-03-28T15:04:03.967Z</time></trkpt><trkpt lat="44.81286661659013" lon="11.988487073278522"><ele>-3.0</ele><time>2026-03-28T15:04:04.967Z</time></trkpt><trkpt lat="44.81279847521665" lon="11.988227466840941"><ele>-3.0</ele><time>2026-03-28T15:04:05.967Z</time></trkpt><trkpt lat="44.81272934284981" lon="11.987962211447499"><ele>-2.6666666666666665</ele><time>2026-03-28T15:04:06.967Z</time></trkpt><trkpt lat="44.81265734086431" lon="11.987688422998833"><ele>-2.333333333333333</ele><time>2026-03-28T15:04:07.967Z</time></trkpt><trkpt lat="44.81258056166095" lon="11.987403325093542"><ele>-2.0</ele><time>2026-03-28T15:04:08.967Z</time></trkpt><trkpt lat="44.81248961935338" lon="11.987113225549985"><ele>-1.5</ele><time>2026-03-28T15:04:09.967Z</time></trkpt><trkpt lat="44.81240979287507" lon="11.986809648346757"><ele>-1.0</ele><time>2026-03-28T15:04:10.967Z</time></trkpt><trkpt lat="44.812323968665" lon="11.986498777412242"><ele>-0.5</ele><time>2026-03-28T15:04:11.967Z</time></trkpt><trkpt lat="44.812197887093895" lon="11.98621815454714"><ele>0.0</ele><time>2026-03-28T15:04:12.967Z</time></trkpt><trkpt lat="44.812084726236215" lon="11.985918395554515"><ele>-0.5</ele><time>2026-03-28T15:04:13.967Z</time></trkpt><trkpt lat="44.81197708007766" lon="11.98562967068514"><ele>-1.0</ele><time>2026-03-28T15:04:14.967Z</time></trkpt><trkpt lat="44.81186654409773" lon="11.985358905693527"><ele>-0.3333333333333333</ele><time>2026-03-28T15:04:15.967Z</time></trkpt><trkpt lat="44.81174874270235" lon="11.985127088092764"><ele>0.3333333333333333</ele><time>2026-03-28T15:04:16.967Z</time></trkpt><trkpt lat="44.81162203436943" lon="11.984927859672714"><ele>1.0</ele><time>2026-03-28T15:04:17.967Z</time></trkpt><trkpt lat="44.811498168191044" lon="11.984733763949784"><ele>1.0</ele><time>2026-03-28T15:04:18.967Z</time></trkpt><trkpt lat="44.81137863880082" lon="11.984512263253816"><ele>1.0</ele><time>2026-03-28T15:04:19.967Z</time></trkpt><trkpt lat="44.81127964853473" lon="11.984269932471241"><ele>1.0</ele><time>2026-03-28T15:04:20.967Z</time></trkpt><trkpt lat="44.811173683040764" lon="11.983999614984354"><ele>0.5</ele><time>2026-03-28T15:04:21.967Z</time></trkpt><trkpt lat="44.81104449031008" lon="11.983733393039449"><ele>0.0</ele><time>2026-03-28T15:04:22.967Z</time></trkpt><trkpt lat="44.81090749494892" lon="11.983456994211402"><ele>-1.0</ele><time>2026-03-28T15:04:23.967Z</time></trkpt><trkpt lat="44.81076695731778" lon="11.983168999394927"><ele>-2.0</ele><time>2026-03-28T15:04:24.967Z</time></trkpt><trkpt lat="44.81062079364923" lon="11.982881589763858"><ele>-2.0</ele><time>2026-03-28T15:04:25.967Z</time></trkpt><trkpt lat="44.81046970008166" lon="11.982603766900283"><ele>-2.0</ele><time>2026-03-28T15:04:26.967Z</time></trkpt><trkpt lat="44.81030943055003" lon="11.982331926368339"><ele>-1.0</ele><time>2026-03-28T15:04:27.967Z</time></trkpt><trkpt lat="44.810145264356215" lon="11.982064198321991"><ele>0.0</ele><time>2026-03-28T15:04:28.967Z</time></trkpt><trkpt lat="44.80997650993812" lon="11.981801017454362"><ele>-0.5</ele><time>2026-03-28T15:04:29.967Z</time></trkpt><trkpt lat="44.80979379224365" lon="11.981542852248502"><ele>-1.0</ele><time>2026-03-28T15:04:30.967Z</time></trkpt><trkpt lat="44.80960133402177" lon="11.98127892738377"><ele>-1.0</ele><time>2026-03-28T15:04:31.967Z</time></trkpt><trkpt lat="44.80940182884422" lon="11.981025256740622"><ele>-1.0</ele><time>2026-03-28T15:04:32.967Z</time></trkpt><trkpt lat="44.809195458069624" lon="11.980771544368286"><ele>-0.5</ele><time>2026-03-28T15:04:33.967Z</time></trkpt><trkpt lat="44.808993951464274" lon="11.98051985095983"><ele>0.0</ele><time>2026-03-28T15:04:34.967Z</time></trkpt><trkpt lat="44.80879366415553" lon="11.98026091776956"><ele>-0.5</ele><time>2026-03-28T15:04:35.967Z</time></trkpt><trkpt lat="44.80859914364979" lon="11.980014691290247"><ele>-1.0</ele><time>2026-03-28T15:04:36.967Z</time></trkpt><trkpt lat="44.80841038580852" lon="11.979779810358929"><ele>-1.0</ele><time>2026-03-28T15:04:37.967Z</time></trkpt><trkpt lat="44.80822910520015" lon="11.979543886561974"><ele>-1.0</ele><time>2026-03-28T15:04:38.966Z</time></trkpt><trkpt lat="44.80805138054489" lon="11.97929378077953"><ele>-2.0</ele><time>2026-03-28T15:04:39.966Z</time></trkpt><trkpt lat="44.80788417989552" lon="11.979014759912957"><ele>-3.0</ele><time>2026-03-28T15:04:40.966Z</time></trkpt><trkpt lat="44.80772071472209" lon="11.978726056771233"><ele>-2.0</ele><time>2026-03-28T15:04:41.966Z</time></trkpt><trkpt lat="44.80755951389733" lon="11.978439100002007"><ele>-1.0</ele><time>2026-03-28T15:04:42.966Z</time></trkpt><trkpt lat="44.80741252378957" lon="11.978165110383276"><ele>-1.0</ele><time>2026-03-28T15:04:43.966Z</time></trkpt><trkpt lat="44.807272469089064" lon="11.977892831157186"><ele>-1.0</ele><time>2026-03-28T15:04:44.966Z</time></trkpt><trkpt lat="44.80714213147003" lon="11.977599189361666"><ele>-1.0</ele><time>2026-03-28T15:04:45.966Z</time></trkpt><trkpt lat="44.807018578845906" lon="11.97729658172535"><ele>-1.0</ele><time>2026-03-28T15:04:46.966Z</time></trkpt><trkpt lat="44.80689790230434" lon="11.976978479342511"><ele>-1.0</ele><time>2026-03-28T15:04:47.966Z</time></trkpt><trkpt lat="44.80678235302762" lon="11.976642411562404"><ele>-1.0</ele><time>2026-03-28T15:04:48.966Z</time></trkpt><trkpt lat="44.80666788418328" lon="11.97631779494215"><ele>-1.0</ele><time>2026-03-28T15:04:49.966Z</time></trkpt><trkpt lat="44.80654969714784" lon="11.976000386341303"><ele>-1.0</ele><time>2026-03-28T15:04:50.966Z</time></trkpt><trkpt lat="44.80642598799931" lon="11.97569452402965"><ele>-1.0</ele><time>2026-03-28T15:04:51.966Z</time></trkpt><trkpt lat="44.80628794803225" lon="11.97540421829401"><ele>-1.0</ele><time>2026-03-28T15:04:52.966Z</time></trkpt><trkpt lat="44.80613901291374" lon="11.97511179059752"><ele>0.0</ele><time>2026-03-28T15:04:53.966Z</time></trkpt><trkpt lat="44.805987752970935" lon="11.974817941190828"><ele>1.0</ele><time>2026-03-28T15:04:54.968Z</time></trkpt><trkpt lat="44.80583655735688" lon="11.974527205094168"><ele>1.0</ele><time>2026-03-28T15:04:55.967Z</time></trkpt><trkpt lat="44.80567295261105" lon="11.974244021620077"><ele>1.0</ele><time>2026-03-28T15:04:56.967Z</time></trkpt><trkpt lat="44.805507604521495" lon="11.973965618344826"><ele>0.0</ele><time>2026-03-28T15:04:57.967Z</time></trkpt><trkpt lat="44.80534330246606" lon="11.97368548380518"><ele>-1.0</ele><time>2026-03-28T15:04:58.967Z</time></trkpt><trkpt lat="44.805189797777736" lon="11.973407342489585"><ele>-1.0</ele><time>2026-03-28T15:04:59.967Z</time></trkpt><trkpt lat="44.80503550731037" lon="11.973130197047848"><ele>-1.0</ele><time>2026-03-28T15:05:00.967Z</time></trkpt><trkpt lat="44.80488805076032" lon="11.9728701675345"><ele>-1.0</ele><time>2026-03-28T15:05:01.967Z</time></trkpt><trkpt lat="44.8047487858833" lon="11.972638800542352"><ele>-1.0</ele><time>2026-03-28T15:05:02.967Z</time></trkpt><trkpt lat="44.804612780952176" lon="11.972437474312848"><ele>-1.0</ele><time>2026-03-28T15:05:03.967Z</time></trkpt><trkpt lat="44.804456635520744" lon="11.97224451412496"><ele>-1.5</ele><time>2026-03-28T15:05:04.967Z</time></trkpt><trkpt lat="44.80428476027154" lon="11.972048780782183"><ele>-2.0</ele><time>2026-03-28T15:05:05.967Z</time></trkpt><trkpt lat="44.80410506522943" lon="11.971842426563317"><ele>-2.5</ele><time>2026-03-28T15:05:06.967Z</time></trkpt><trkpt lat="44.80391694708852" lon="11.971638858141452"><ele>-3.0</ele><time>2026-03-28T15:05:07.967Z</time></trkpt><trkpt lat="44.803728677234865" lon="11.97143814078944"><ele>-3.0</ele><time>2026-03-28T15:05:08.967Z</time></trkpt><trkpt lat="44.80353093695197" lon="11.971247145616369"><ele>-3.0</ele><time>2026-03-28T15:05:09.967Z</time></trkpt><trkpt lat="44.80332465457053" lon="11.97107179335178"><ele>-3.0</ele><time>2026-03-28T15:05:10.967Z</time></trkpt><trkpt lat="44.80311494510576" lon="11.970906646355903"><ele>-3.0</ele><time>2026-03-28T15:05:11.967Z</time></trkpt><trkpt lat="44.80291190515885" lon="11.97076623866549"><ele>-3.0</ele><time>2026-03-28T15:05:12.967Z</time></trkpt><trkpt lat="44.802703657603445" lon="11.97064588233891"><ele>-3.0</ele><time>2026-03-28T15:05:13.967Z</time></trkpt><trkpt lat="44.80249423061608" lon="11.970529445707538"><ele>-2.5</ele><time>2026-03-28T15:05:14.967Z</time></trkpt><trkpt lat="44.80227430434779" lon="11.970431524486692"><ele>-2.0</ele><time>2026-03-28T15:05:15.967Z</time></trkpt><trkpt lat="44.80204764827014" lon="11.970336688378612"><ele>-1.0</ele><time>2026-03-28T15:05:16.967Z</time></trkpt><trkpt lat="44.80181337724664" lon="11.970243108524722"><ele>0.0</ele><time>2026-03-28T15:05:17.967Z</time></trkpt><trkpt lat="44.8015790065276" lon="11.970139290938814"><ele>0.0</ele><time>2026-03-28T15:05:18.967Z</time></trkpt><trkpt lat="44.801339293493086" lon="11.970038423705939"><ele>0.0</ele><time>2026-03-28T15:05:19.967Z</time></trkpt><trkpt lat="44.80109770020172" lon="11.96994818196994"><ele>-2.0</ele><time>2026-03-28T15:05:20.967Z</time></trkpt><trkpt lat="44.80084688599782" lon="11.969878087285611"><ele>-4.0</ele><time>2026-03-28T15:05:21.967Z</time></trkpt><trkpt lat="44.80059211843766" lon="11.969819747547692"><ele>-4.0</ele><time>2026-03-28T15:05:22.967Z</time></trkpt><trkpt lat="44.800334250748115" lon="11.969770672242271"><ele>-4.0</ele><time>2026-03-28T15:05:23.967Z</time></trkpt><trkpt lat="44.80008486875543" lon="11.969699678563995"><ele>-2.5</ele><time>2026-03-28T15:05:24.967Z</time></trkpt><trkpt lat="44.79984243138566" lon="11.969648483836256"><ele>-1.0</ele><time>2026-03-28T15:05:25.967Z</time></trkpt><trkpt lat="44.79963605144534" lon="11.969604903242397"><ele>-1.0</ele><time>2026-03-28T15:05:26.967Z</time></trkpt><trkpt lat="44.79947304588476" lon="11.969570800095768"><ele>-1.0</ele><time>2026-03-28T15:05:27.967Z</time></trkpt><trkpt lat="44.79934847604775" lon="11.96954489383175"><ele>-1.0</ele><time>2026-03-28T15:05:28.966Z</time></trkpt><trkpt lat="44.79926080958201" lon="11.969526662200078"><ele>-1.0</ele><time>2026-03-28T15:05:29.966Z</time></trkpt><trkpt lat="44.79919027254411" lon="11.969512152547281"><ele>-0.8</ele><time>2026-03-28T15:05:30.966Z</time></trkpt><trkpt lat="44.79907882029839" lon="11.96949121219282"><ele>-0.6000000000000001</ele><time>2026-03-28T15:05:32.966Z</time></trkpt><trkpt lat="44.79901350693992" lon="11.969478940715414"><ele>-0.4</ele><time>2026-03-28T15:05:33.966Z</time></trkpt><trkpt lat="44.79891726319449" lon="11.969461600520269"><ele>-0.2</ele><time>2026-03-28T15:05:34.966Z</time></trkpt><trkpt lat="44.79879465064237" lon="11.969440660760672"><ele>0.0</ele><time>2026-03-28T15:05:35.966Z</time></trkpt><trkpt lat="44.79868275202627" lon="11.96942643086872"><ele>0.0</ele><time>2026-03-28T15:05:36.966Z</time></trkpt><trkpt lat="44.79856412564946" lon="11.969411345395814"><ele>0.0</ele><time>2026-03-28T15:05:37.966Z</time></trkpt><trkpt lat="44.79843758802103" lon="11.969395231485851"><ele>0.0</ele><time>2026-03-28T15:05:38.966Z</time></trkpt><trkpt lat="44.798309455964024" lon="11.96937891917788"><ele>0.0</ele><time>2026-03-28T15:05:39.966Z</time></trkpt><trkpt lat="44.798179858047455" lon="11.969362420253093"><ele>0.4</ele><time>2026-03-28T15:05:40.966Z</time></trkpt><trkpt lat="44.79806083494204" lon="11.969347267585546"><ele>0.8</ele><time>2026-03-28T15:05:41.966Z</time></trkpt><trkpt lat="44.797950538136895" lon="11.969331144933342"><ele>1.2000000000000002</ele><time>2026-03-28T15:05:42.966Z</time></trkpt><trkpt lat="44.79784926556944" lon="11.969307854127017"><ele>1.6</ele><time>2026-03-28T15:05:43.966Z</time></trkpt><trkpt lat="44.797758656249925" lon="11.96929129148862"><ele>2.0</ele><time>2026-03-28T15:05:44.966Z</time></trkpt><trkpt lat="44.7976772853367" lon="11.969275989168425"><ele>2.2</ele><time>2026-03-28T15:05:45.966Z</time></trkpt><trkpt lat="44.797608570329" lon="11.969260302950689"><ele>2.4000000000000004</ele><time>2026-03-28T15:05:46.966Z</time></trkpt><trkpt lat="44.79750001873672" lon="11.969289040732331"><ele>2.5999999999999996</ele><time>2026-03-28T15:05:48.966Z</time></trkpt><trkpt lat="44.79747374885079" lon="11.96945173697356"><ele>2.8</ele><time>2026-03-28T15:05:50.966Z</time></trkpt><trkpt lat="44.79745689610535" lon="11.969555052376002"><ele>3.0</ele><time>2026-03-28T15:05:51.966Z</time></trkpt><trkpt lat="44.79745916585314" lon="11.969685440482065"><ele>3.0</ele><time>2026-03-28T15:05:52.966Z</time></trkpt><trkpt lat="44.797465450436434" lon="11.969817754032068"><ele>3.0</ele><time>2026-03-28T15:05:53.966Z</time></trkpt><trkpt lat="44.79747562994828" lon="11.969942416630337"><ele>3.0</ele><time>2026-03-28T15:05:54.966Z</time></trkpt><trkpt lat="44.797483665287906" lon="11.970052950536436"><ele>3.0</ele><time>2026-03-28T15:05:55.966Z</time></trkpt><trkpt lat="44.797497294618076" lon="11.970232531880882"><ele>3.0</ele><time>2026-03-28T15:05:57.966Z</time></trkpt><trkpt lat="44.79750196049714" lon="11.970322206552092"><ele>2.5</ele><time>2026-03-28T15:05:58.966Z</time></trkpt><trkpt lat="44.797522273132174" lon="11.97047999931907"><ele>2.0</ele><time>2026-03-28T15:06:00.966Z</time></trkpt><trkpt lat="44.79749088397102" lon="11.970602263807848"><ele>1.5</ele><time>2026-03-28T15:06:02.966Z</time></trkpt><trkpt lat="44.79734246812534" lon="11.970700982169147"><ele>1.0</ele><time>2026-03-28T15:06:05.966Z</time></trkpt><trkpt lat="44.79725647382306" lon="11.970684803784962"><ele>1.0</ele><time>2026-03-28T15:06:06.966Z</time></trkpt><trkpt lat="44.79715877615065" lon="11.97066495096883"><ele>1.0</ele><time>2026-03-28T15:06:07.966Z</time></trkpt><trkpt lat="44.797031691425424" lon="11.970635879516086"><ele>1.0</ele><time>2026-03-28T15:06:08.966Z</time></trkpt><trkpt lat="44.796893055309724" lon="11.97060946183498"><ele>1.0</ele><time>2026-03-28T15:06:09.966Z</time></trkpt><trkpt lat="44.79673969744248" lon="11.970585052239956"><ele>1.0</ele><time>2026-03-28T15:06:10.966Z</time></trkpt><trkpt lat="44.7965711317592" lon="11.970554806073183"><ele>1.0</ele><time>2026-03-28T15:06:11.966Z</time></trkpt><trkpt lat="44.79638576904644" lon="11.970532153136961"><ele>1.0</ele><time>2026-03-28T15:06:12.966Z</time></trkpt><trkpt lat="44.796198618025166" lon="11.970521375219242"><ele>1.0</ele><time>2026-03-28T15:06:13.966Z</time></trkpt><trkpt lat="44.79599920091575" lon="11.970514142665547"><ele>1.0</ele><time>2026-03-28T15:06:14.966Z</time></trkpt><trkpt lat="44.795793254135106" lon="11.970496971937338"><ele>1.0</ele><time>2026-03-28T15:06:15.966Z</time></trkpt><trkpt lat="44.79558270918336" lon="11.970463471857363"><ele>1.0</ele><time>2026-03-28T15:06:16.966Z</time></trkpt><trkpt lat="44.79536396170508" lon="11.970410311320249"><ele>1.0</ele><time>2026-03-28T15:06:17.966Z</time></trkpt><trkpt lat="44.79514383612031" lon="11.970354728931811"><ele>1.0</ele><time>2026-03-28T15:06:18.966Z</time></trkpt><trkpt lat="44.79491619545851" lon="11.970302763112121"><ele>0.0</ele><time>2026-03-28T15:06:19.965Z</time></trkpt><trkpt lat="44.794688573602436" lon="11.970243410213936"><ele>-1.0</ele><time>2026-03-28T15:06:20.965Z</time></trkpt><trkpt lat="44.79446041407793" lon="11.970189974553232"><ele>-0.5</ele><time>2026-03-28T15:06:21.965Z</time></trkpt><trkpt lat="44.79423393472544" lon="11.970136715582758"><ele>0.0</ele><time>2026-03-28T15:06:22.965Z</time></trkpt><trkpt lat="44.79401564238545" lon="11.970090118244345"><ele>0.0</ele><time>2026-03-28T15:06:23.965Z</time></trkpt><trkpt lat="44.793802938938384" lon="11.970033669325794"><ele>0.0</ele><time>2026-03-28T15:06:24.965Z</time></trkpt><trkpt lat="44.79359388725491" lon="11.969973525627044"><ele>0.0</ele><time>2026-03-28T15:06:25.965Z</time></trkpt><trkpt lat="44.79339475305643" lon="11.96991254048379"><ele>0.3333333333333333</ele><time>2026-03-28T15:06:26.965Z</time></trkpt><trkpt lat="44.79320193667345" lon="11.969837551847702"><ele>0.6666666666666666</ele><time>2026-03-28T15:06:27.965Z</time></trkpt><trkpt lat="44.793010165911355" lon="11.969722935900606"><ele>1.0</ele><time>2026-03-28T15:06:28.965Z</time></trkpt><trkpt lat="44.792831168764955" lon="11.969563338437082"><ele>1.0</ele><time>2026-03-28T15:06:29.965Z</time></trkpt><trkpt lat="44.79264352610563" lon="11.969407805434658"><ele>1.0</ele><time>2026-03-28T15:06:30.965Z</time></trkpt><trkpt lat="44.79244484317415" lon="11.969274609918191"><ele>1.0</ele><time>2026-03-28T15:06:31.965Z</time></trkpt><trkpt lat="44.79225730135192" lon="11.969130846670907"><ele>1.0</ele><time>2026-03-28T15:06:32.965Z</time></trkpt><trkpt lat="44.79207485962123" lon="11.969007316783513"><ele>1.0</ele><time>2026-03-28T15:06:33.965Z</time></trkpt><trkpt lat="44.791904147800764" lon="11.968888219299885"><ele>1.0</ele><time>2026-03-28T15:06:34.965Z</time></trkpt><trkpt lat="44.7917447384746" lon="11.968775668184023"><ele>0.0</ele><time>2026-03-28T15:06:35.965Z</time></trkpt><trkpt lat="44.79159019813855" lon="11.968670337741532"><ele>-1.0</ele><time>2026-03-28T15:06:36.965Z</time></trkpt><trkpt lat="44.79144412219594" lon="11.968539151871095"><ele>-2.0</ele><time>2026-03-28T15:06:37.965Z</time></trkpt><trkpt lat="44.791292056912404" lon="11.9684073767414"><ele>-1.6666666666666665</ele><time>2026-03-28T15:06:38.965Z</time></trkpt><trkpt lat="44.791146065549725" lon="11.968266810370993"><ele>-1.3333333333333333</ele><time>2026-03-28T15:06:39.965Z</time></trkpt><trkpt lat="44.791004178675436" lon="11.968116289462323"><ele>-1.0</ele><time>2026-03-28T15:06:40.965Z</time></trkpt><trkpt lat="44.790869048871144" lon="11.967963179050983"><ele>-1.0</ele><time>2026-03-28T15:06:41.965Z</time></trkpt><trkpt lat="44.790740020316775" lon="11.967801693950909"><ele>-1.0</ele><time>2026-03-28T15:06:42.965Z</time></trkpt><trkpt lat="44.79061523522382" lon="11.967625093089438"><ele>-1.0</ele><time>2026-03-28T15:06:43.965Z</time></trkpt><trkpt lat="44.790485269479106" lon="11.96746016092528"><ele>-0.6666666666666666</ele><time>2026-03-28T15:06:44.965Z</time></trkpt><trkpt lat="44.79037326466446" lon="11.967274254298125"><ele>-0.3333333333333333</ele><time>2026-03-28T15:06:45.965Z</time></trkpt><trkpt lat="44.790265249040445" lon="11.96707556632452"><ele>0.0</ele><time>2026-03-28T15:06:46.965Z</time></trkpt><trkpt lat="44.79018027050386" lon="11.966851248916749"><ele>1.0</ele><time>2026-03-28T15:06:47.965Z</time></trkpt><trkpt lat="44.790088819633205" lon="11.966616156722742"><ele>2.0</ele><time>2026-03-28T15:06:48.965Z</time></trkpt><trkpt lat="44.789983739031285" lon="11.96634084402531"><ele>3.0</ele><time>2026-03-28T15:06:49.965Z</time></trkpt><trkpt lat="44.78986580596224" lon="11.966033061569087"><ele>3.0</ele><time>2026-03-28T15:06:50.965Z</time></trkpt><trkpt lat="44.789741527671666" lon="11.965709188522103"><ele>3.0</ele><time>2026-03-28T15:06:51.965Z</time></trkpt><trkpt lat="44.78960620218246" lon="11.965384147477145"><ele>3.0</ele><time>2026-03-28T15:06:52.965Z</time></trkpt><trkpt lat="44.78948327313011" lon="11.965041098931502"><ele>3.0</ele><time>2026-03-28T15:06:53.965Z</time></trkpt><trkpt lat="44.78936091777726" lon="11.96470079767301"><ele>2.5</ele><time>2026-03-28T15:06:54.965Z</time></trkpt><trkpt lat="44.78923762887923" lon="11.964377494220415"><ele>2.0</ele><time>2026-03-28T15:06:55.965Z</time></trkpt><trkpt lat="44.789124006858884" lon="11.964067896316863"><ele>1.5</ele><time>2026-03-28T15:06:56.965Z</time></trkpt><trkpt lat="44.789013044035045" lon="11.963745530203711"><ele>1.0</ele><time>2026-03-28T15:06:57.965Z</time></trkpt><trkpt lat="44.78890430222783" lon="11.963425681599585"><ele>2.0</ele><time>2026-03-28T15:06:58.965Z</time></trkpt><trkpt lat="44.788816969205676" lon="11.96311043030429"><ele>3.0</ele><time>2026-03-28T15:06:59.965Z</time></trkpt><trkpt lat="44.78872767545928" lon="11.962788492036387"><ele>3.5</ele><time>2026-03-28T15:07:00.966Z</time></trkpt><trkpt lat="44.78864442196819" lon="11.962477976209646"><ele>4.0</ele><time>2026-03-28T15:07:01.967Z</time></trkpt><trkpt lat="44.788550355374916" lon="11.962163970984678"><ele>4.5</ele><time>2026-03-28T15:07:02.967Z</time></trkpt><trkpt lat="44.7884568847249" lon="11.961848232273715"><ele>5.0</ele><time>2026-03-28T15:07:03.966Z</time></trkpt><trkpt lat="44.7883675810706" lon="11.961538918215725"><ele>5.0</ele><time>2026-03-28T15:07:04.966Z</time></trkpt><trkpt lat="44.788274606041355" lon="11.96122380622542"><ele>5.0</ele><time>2026-03-28T15:07:05.966Z</time></trkpt><trkpt lat="44.788176547995825" lon="11.96090734310789"><ele>4.5</ele><time>2026-03-28T15:07:06.966Z</time></trkpt><trkpt lat="44.78808215429034" lon="11.960589894209047"><ele>4.0</ele><time>2026-03-28T15:07:07.967Z</time></trkpt><trkpt lat="44.78798624779666" lon="11.960271376938179"><ele>2.5</ele><time>2026-03-28T15:07:08.967Z</time></trkpt><trkpt lat="44.78788812788384" lon="11.959958766769406"><ele>1.0</ele><time>2026-03-28T15:07:09.966Z</time></trkpt><trkpt lat="44.787792340870965" lon="11.959654160987187"><ele>1.0</ele><time>2026-03-28T15:07:10.966Z</time></trkpt><trkpt lat="44.78769128603447" lon="11.959350551679128"><ele>1.0</ele><time>2026-03-28T15:07:11.966Z</time></trkpt><trkpt lat="44.787583526579695" lon="11.959040819237487"><ele>2.5</ele><time>2026-03-28T15:07:12.967Z</time></trkpt><trkpt lat="44.787484493789094" lon="11.958726560363369"><ele>4.0</ele><time>2026-03-28T15:07:13.966Z</time></trkpt><trkpt lat="44.78737693495469" lon="11.958403116890947"><ele>3.0</ele><time>2026-03-28T15:07:14.966Z</time></trkpt><trkpt lat="44.78726193528182" lon="11.958084277141472"><ele>2.0</ele><time>2026-03-28T15:07:15.966Z</time></trkpt><trkpt lat="44.78714689672032" lon="11.957766131327"><ele>1.5</ele><time>2026-03-28T15:07:16.966Z</time></trkpt><trkpt lat="44.787035540385475" lon="11.957445549714203"><ele>1.0</ele><time>2026-03-28T15:07:17.966Z</time></trkpt><trkpt lat="44.78692356743384" lon="11.957122797363802"><ele>1.5</ele><time>2026-03-28T15:07:18.966Z</time></trkpt><trkpt lat="44.7868057964766" lon="11.956815962598826"><ele>2.0</ele><time>2026-03-28T15:07:19.966Z</time></trkpt><trkpt lat="44.78669248828444" lon="11.956517472043265"><ele>2.0</ele><time>2026-03-28T15:07:20.966Z</time></trkpt><trkpt lat="44.786572211859436" lon="11.956237993352106"><ele>2.0</ele><time>2026-03-28T15:07:21.966Z</time></trkpt><trkpt lat="44.78643835329628" lon="11.955973479770584"><ele>1.5</ele><time>2026-03-28T15:07:22.966Z</time></trkpt><trkpt lat="44.786301795901345" lon="11.955710007126228"><ele>1.0</ele><time>2026-03-28T15:07:23.966Z</time></trkpt><trkpt lat="44.78616051059425" lon="11.955440148285813"><ele>1.0</ele><time>2026-03-28T15:07:24.966Z</time></trkpt><trkpt lat="44.7860201696579" lon="11.955171929373133"><ele>1.0</ele><time>2026-03-28T15:07:25.966Z</time></trkpt><trkpt lat="44.78587658894477" lon="11.954910897165469"><ele>1.6666666666666665</ele><time>2026-03-28T15:07:26.966Z</time></trkpt><trkpt lat="44.785745570691624" lon="11.95467245347716"><ele>2.3333333333333335</ele><time>2026-03-28T15:07:27.966Z</time></trkpt><trkpt lat="44.785623232955004" lon="11.954452873443472"><ele>3.0</ele><time>2026-03-28T15:07:28.966Z</time></trkpt><trkpt lat="44.785486977081256" lon="11.954231315576289"><ele>3.0</ele><time>2026-03-28T15:07:29.966Z</time></trkpt><trkpt lat="44.7853378093355" lon="11.953998331404009"><ele>3.0</ele><time>2026-03-28T15:07:30.966Z</time></trkpt><trkpt lat="44.78519004188269" lon="11.953751840813247"><ele>3.5</ele><time>2026-03-28T15:07:31.966Z</time></trkpt><trkpt lat="44.78503849088845" lon="11.95349311803575"><ele>4.0</ele><time>2026-03-28T15:07:32.966Z</time></trkpt><trkpt lat="44.784883616297485" lon="11.95322516305464"><ele>3.0</ele><time>2026-03-28T15:07:33.966Z</time></trkpt><trkpt lat="44.7847238386492" lon="11.952963764533969"><ele>2.0</ele><time>2026-03-28T15:07:34.966Z</time></trkpt><trkpt lat="44.78456956966748" lon="11.95270640188452"><ele>2.0</ele><time>2026-03-28T15:07:35.966Z</time></trkpt><trkpt lat="44.784414053773354" lon="11.952449667039714"><ele>2.0</ele><time>2026-03-28T15:07:36.965Z</time></trkpt><trkpt lat="44.784281672975425" lon="11.952181794402803"><ele>2.5</ele><time>2026-03-28T15:07:37.965Z</time></trkpt><trkpt lat="44.78413745583954" lon="11.95193071666954"><ele>3.0</ele><time>2026-03-28T15:07:38.965Z</time></trkpt><trkpt lat="44.783994156553106" lon="11.951683394585135"><ele>4.0</ele><time>2026-03-28T15:07:39.965Z</time></trkpt><trkpt lat="44.78385393812906" lon="11.951441395424427"><ele>5.0</ele><time>2026-03-28T15:07:40.965Z</time></trkpt><trkpt lat="44.783717929156424" lon="11.951207491473488"><ele>6.0</ele><time>2026-03-28T15:07:41.965Z</time></trkpt><trkpt lat="44.78358484423545" lon="11.950978674767782"><ele>5.666666666666667</ele><time>2026-03-28T15:07:42.965Z</time></trkpt><trkpt lat="44.78345364135972" lon="11.950757320274706"><ele>5.333333333333334</ele><time>2026-03-28T15:07:43.965Z</time></trkpt><trkpt lat="44.78331506903288" lon="11.950538526913325"><ele>5.0</ele><time>2026-03-28T15:07:44.965Z</time></trkpt><trkpt lat="44.78317245743893" lon="11.950339100048966"><ele>5.0</ele><time>2026-03-28T15:07:45.965Z</time></trkpt><trkpt lat="44.78301522744032" lon="11.950149335176201"><ele>5.0</ele><time>2026-03-28T15:07:46.965Z</time></trkpt><trkpt lat="44.782849820350215" lon="11.949980074198198"><ele>5.0</ele><time>2026-03-28T15:07:47.965Z</time></trkpt><trkpt lat="44.78266260751509" lon="11.949842091172206"><ele>4.0</ele><time>2026-03-28T15:07:48.965Z</time></trkpt><trkpt lat="44.782469668019615" lon="11.949722992431894"><ele>3.0</ele><time>2026-03-28T15:07:49.965Z</time></trkpt><trkpt lat="44.78228086653972" lon="11.94960067400088"><ele>2.0</ele><time>2026-03-28T15:07:50.965Z</time></trkpt><trkpt lat="44.78209018888819" lon="11.949458214720497"><ele>2.0</ele><time>2026-03-28T15:07:51.965Z</time></trkpt><trkpt lat="44.78190104327671" lon="11.949304476173126"><ele>2.0</ele><time>2026-03-28T15:07:52.965Z</time></trkpt><trkpt lat="44.7817162701436" lon="11.949144451836775"><ele>2.0</ele><time>2026-03-28T15:07:53.965Z</time></trkpt><trkpt lat="44.781543520751384" lon="11.948992890054944"><ele>2.333333333333333</ele><time>2026-03-28T15:07:54.965Z</time></trkpt><trkpt lat="44.78138514106885" lon="11.94884407187601"><ele>2.6666666666666665</ele><time>2026-03-28T15:07:55.965Z</time></trkpt><trkpt lat="44.78121030627468" lon="11.948722274315381"><ele>3.0</ele><time>2026-03-28T15:07:56.965Z</time></trkpt><trkpt lat="44.78106281117671" lon="11.948551553246638"><ele>2.6666666666666665</ele><time>2026-03-28T15:07:57.965Z</time></trkpt><trkpt lat="44.78091319441323" lon="11.948375092769327"><ele>2.333333333333333</ele><time>2026-03-28T15:07:58.965Z</time></trkpt><trkpt lat="44.780769908979686" lon="11.948199597883956"><ele>2.0</ele><time>2026-03-28T15:07:59.965Z</time></trkpt><trkpt lat="44.78064686464832" lon="11.947991582244697"><ele>2.0</ele><time>2026-03-28T15:08:00.965Z</time></trkpt><trkpt lat="44.78051474684882" lon="11.9478382256694"><ele>2.0</ele><time>2026-03-28T15:08:01.965Z</time></trkpt><trkpt lat="44.78038325737696" lon="11.947716064011946"><ele>2.0</ele><time>2026-03-28T15:08:02.965Z</time></trkpt><trkpt lat="44.7802613599269" lon="11.947595235379362"><ele>1.6666666666666665</ele><time>2026-03-28T15:08:03.965Z</time></trkpt><trkpt lat="44.780120349239205" lon="11.947488704645465"><ele>1.3333333333333333</ele><time>2026-03-28T15:08:04.965Z</time></trkpt><trkpt lat="44.77996734923854" lon="11.947398403033603"><ele>1.0</ele><time>2026-03-28T15:08:05.965Z</time></trkpt><trkpt lat="44.779788683672834" lon="11.947320063681685"><ele>1.0</ele><time>2026-03-28T15:08:06.965Z</time></trkpt><trkpt lat="44.779597116891146" lon="11.947257282268286"><ele>1.0</ele><time>2026-03-28T15:08:07.965Z</time></trkpt><trkpt lat="44.77939641835311" lon="11.94720866004508"><ele>1.0</ele><time>2026-03-28T15:08:08.965Z</time></trkpt><trkpt lat="44.77918779753899" lon="11.947157292280336"><ele>1.3333333333333333</ele><time>2026-03-28T15:08:09.965Z</time></trkpt><trkpt lat="44.778986283524375" lon="11.947096968169818"><ele>1.6666666666666665</ele><time>2026-03-28T15:08:10.965Z</time></trkpt><trkpt lat="44.778788718909944" lon="11.947015273915508"><ele>2.0</ele><time>2026-03-28T15:08:11.965Z</time></trkpt><trkpt lat="44.77859065571323" lon="11.946921309602054"><ele>2.0</ele><time>2026-03-28T15:08:12.965Z</time></trkpt><trkpt lat="44.77839639137342" lon="11.946812664879213"><ele>2.0</ele><time>2026-03-28T15:08:13.965Z</time></trkpt><trkpt lat="44.77819836263008" lon="11.946695269027698"><ele>2.0</ele><time>2026-03-28T15:08:14.965Z</time></trkpt><trkpt lat="44.77800734244397" lon="11.946573621418848"><ele>2.0</ele><time>2026-03-28T15:08:15.965Z</time></trkpt><trkpt lat="44.77783012434853" lon="11.946420154767544"><ele>2.0</ele><time>2026-03-28T15:08:16.965Z</time></trkpt><trkpt lat="44.77764532065743" lon="11.946283470769345"><ele>2.0</ele><time>2026-03-28T15:08:17.965Z</time></trkpt><trkpt lat="44.77745906164978" lon="11.946147375979027"><ele>2.0</ele><time>2026-03-28T15:08:18.965Z</time></trkpt><trkpt lat="44.77727576180505" lon="11.946010095852396"><ele>2.0</ele><time>2026-03-28T15:08:19.965Z</time></trkpt><trkpt lat="44.7771057943539" lon="11.945862894766567"><ele>2.0</ele><time>2026-03-28T15:08:20.965Z</time></trkpt><trkpt lat="44.776944000341054" lon="11.94570684857148"><ele>2.333333333333333</ele><time>2026-03-28T15:08:21.965Z</time></trkpt><trkpt lat="44.77678619498809" lon="11.945538495587202"><ele>2.6666666666666665</ele><time>2026-03-28T15:08:22.965Z</time></trkpt><trkpt lat="44.77663181863491" lon="11.945346178865229"><ele>3.0</ele><time>2026-03-28T15:08:23.965Z</time></trkpt><trkpt lat="44.77647629681417" lon="11.94513266422394"><ele>3.0</ele><time>2026-03-28T15:08:24.965Z</time></trkpt><trkpt lat="44.77632267548553" lon="11.944893891184394"><ele>3.0</ele><time>2026-03-28T15:08:25.965Z</time></trkpt><trkpt lat="44.77617828544259" lon="11.944640408211765"><ele>3.0</ele><time>2026-03-28T15:08:26.965Z</time></trkpt><trkpt lat="44.776040292881724" lon="11.944375622020381"><ele>3.0</ele><time>2026-03-28T15:08:27.964Z</time></trkpt><trkpt lat="44.77590384154063" lon="11.944114692432661"><ele>2.3333333333333335</ele><time>2026-03-28T15:08:28.964Z</time></trkpt><trkpt lat="44.77577270461451" lon="11.94386447071881"><ele>1.6666666666666665</ele><time>2026-03-28T15:08:29.964Z</time></trkpt><trkpt lat="44.775641716678436" lon="11.943635539117555"><ele>1.0</ele><time>2026-03-28T15:08:30.964Z</time></trkpt><trkpt lat="44.7754993806353" lon="11.943438468621556"><ele>1.0</ele><time>2026-03-28T15:08:31.964Z</time></trkpt><trkpt lat="44.775376418892215" lon="11.943239406375252"><ele>1.0</ele><time>2026-03-28T15:08:32.964Z</time></trkpt><trkpt lat="44.77522886743425" lon="11.94307546513996"><ele>1.0</ele><time>2026-03-28T15:08:33.964Z</time></trkpt><trkpt lat="44.775068370276166" lon="11.94293660085749"><ele>1.0</ele><time>2026-03-28T15:08:34.964Z</time></trkpt><trkpt lat="44.77490110680255" lon="11.942810943743515"><ele>1.0</ele><time>2026-03-28T15:08:35.964Z</time></trkpt><trkpt lat="44.774732968301855" lon="11.94268360718103"><ele>1.0</ele><time>2026-03-28T15:08:36.964Z</time></trkpt><trkpt lat="44.774569706449086" lon="11.942556529621365"><ele>1.0</ele><time>2026-03-28T15:08:37.964Z</time></trkpt><trkpt lat="44.77443429217604" lon="11.94244232316269"><ele>1.0</ele><time>2026-03-28T15:08:38.964Z</time></trkpt><trkpt lat="44.77430265007383" lon="11.942334401772555"><ele>1.0</ele><time>2026-03-28T15:08:39.964Z</time></trkpt><trkpt lat="44.774180165807415" lon="11.942229053664235"><ele>1.0</ele><time>2026-03-28T15:08:40.964Z</time></trkpt><trkpt lat="44.7740672272772" lon="11.942137148596661"><ele>1.0</ele><time>2026-03-28T15:08:41.964Z</time></trkpt><trkpt lat="44.7739637359945" lon="11.942057672508364"><ele>1.0</ele><time>2026-03-28T15:08:42.964Z</time></trkpt><trkpt lat="44.77386893532886" lon="11.94198279845037"><ele>1.0</ele><time>2026-03-28T15:08:43.964Z</time></trkpt><trkpt lat="44.773785758606024" lon="11.94192113682363"><ele>1.0</ele><time>2026-03-28T15:08:44.964Z</time></trkpt><trkpt lat="44.773717865166496" lon="11.941857253630143"><ele>0.9999999999999999</ele><time>2026-03-28T15:08:45.964Z</time></trkpt><trkpt lat="44.7736671362708" lon="11.941783513561575"><ele>1.0</ele><time>2026-03-28T15:08:46.964Z</time></trkpt><trkpt lat="44.773634922704" lon="11.941698719413838"><ele>1.0</ele><time>2026-03-28T15:08:47.964Z</time></trkpt><trkpt lat="44.77361338380196" lon="11.941611839692248"><ele>0.9999999999999999</ele><time>2026-03-28T15:08:48.964Z</time></trkpt><trkpt lat="44.77358315227139" lon="11.941519855662483"><ele>1.0</ele><time>2026-03-28T15:08:49.964Z</time></trkpt><trkpt lat="44.773528666822244" lon="11.941449722611635"><ele>1.0</ele><time>2026-03-28T15:08:50.964Z</time></trkpt><trkpt lat="44.773500982625045" lon="11.941356102135188"><ele>1.0</ele><time>2026-03-28T15:08:51.964Z</time></trkpt><trkpt lat="44.773386843672334" lon="11.941404577217437"><ele>1.0</ele><time>2026-03-28T15:08:52.964Z</time></trkpt><trkpt lat="44.773312097341204" lon="11.94147506598043"><ele>1.0</ele><time>2026-03-28T15:08:53.964Z</time></trkpt><trkpt lat="44.77326305734065" lon="11.941572099201464"><ele>1.0</ele><time>2026-03-28T15:08:54.964Z</time></trkpt><trkpt lat="44.77314562457799" lon="11.941598874841878"><ele>1.0</ele><time>2026-03-28T15:08:55.964Z</time></trkpt><trkpt lat="44.77303003617888" lon="11.94161581012172"><ele>1.0</ele><time>2026-03-28T15:08:56.964Z</time></trkpt><trkpt lat="44.77289908631912" lon="11.941586091422657"><ele>1.0</ele><time>2026-03-28T15:08:57.964Z</time></trkpt><trkpt lat="44.772765943455994" lon="11.94153947854271"><ele>1.0</ele><time>2026-03-28T15:08:58.964Z</time></trkpt><trkpt lat="44.77262001973991" lon="11.941473277861846"><ele>1.0</ele><time>2026-03-28T15:08:59.964Z</time></trkpt><trkpt lat="44.7724671674445" lon="11.941388455562796"><ele>0.3333333333333333</ele><time>2026-03-28T15:09:00.964Z</time></trkpt><trkpt lat="44.77230385861041" lon="11.941298906985688"><ele>-0.3333333333333333</ele><time>2026-03-28T15:09:01.964Z</time></trkpt><trkpt lat="44.772131842372545" lon="11.941226730927955"><ele>-1.0</ele><time>2026-03-28T15:09:02.964Z</time></trkpt><trkpt lat="44.771955701338" lon="11.941170824095373"><ele>-1.3333333333333333</ele><time>2026-03-28T15:09:03.964Z</time></trkpt><trkpt lat="44.77178053721607" lon="11.941126653892805"><ele>-1.6666666666666665</ele><time>2026-03-28T15:09:04.964Z</time></trkpt><trkpt lat="44.771611747969416" lon="11.941099200670974"><ele>-2.0</ele><time>2026-03-28T15:09:05.964Z</time></trkpt><trkpt lat="44.771429870506545" lon="11.941084535045333"><ele>-2.0</ele><time>2026-03-28T15:09:06.966Z</time></trkpt><trkpt lat="44.77123661497413" lon="11.94109224626026"><ele>-2.0</ele><time>2026-03-28T15:09:07.966Z</time></trkpt><trkpt lat="44.771032863692284" lon="11.941107192944857"><ele>-2.0</ele><time>2026-03-28T15:09:08.966Z</time></trkpt><trkpt lat="44.7708230998185" lon="11.941145309889341"><ele>-2.0</ele><time>2026-03-28T15:09:09.965Z</time></trkpt><trkpt lat="44.77060757282692" lon="11.941182001089636"><ele>-2.0</ele><time>2026-03-28T15:09:10.965Z</time></trkpt><trkpt lat="44.77039129730789" lon="11.941219245379653"><ele>-2.0</ele><time>2026-03-28T15:09:11.965Z</time></trkpt><trkpt lat="44.77017427335334" lon="11.941247592526885"><ele>-1.6666666666666665</ele><time>2026-03-28T15:09:12.965Z</time></trkpt><trkpt lat="44.76996534256781" lon="11.941287254963703"><ele>-1.3333333333333333</ele><time>2026-03-28T15:09:13.965Z</time></trkpt><trkpt lat="44.76976456167379" lon="11.941312402315987"><ele>-1.0</ele><time>2026-03-28T15:09:14.965Z</time></trkpt><trkpt lat="44.769569848140414" lon="11.941349108471522"><ele>-1.0</ele><time>2026-03-28T15:09:15.965Z</time></trkpt><trkpt lat="44.769372783078936" lon="11.941390676496757"><ele>-1.0</ele><time>2026-03-28T15:09:16.965Z</time></trkpt><trkpt lat="44.76917554769797" lon="11.941427173636027"><ele>-1.0</ele><time>2026-03-28T15:09:17.965Z</time></trkpt><trkpt lat="44.768970524686694" lon="11.94145945637922"><ele>-1.3333333333333333</ele><time>2026-03-28T15:09:18.965Z</time></trkpt><trkpt lat="44.768768271466946" lon="11.941501723973017"><ele>-1.6666666666666665</ele><time>2026-03-28T15:09:19.965Z</time></trkpt><trkpt lat="44.768578846991254" lon="11.941539444442622"><ele>-2.0</ele><time>2026-03-28T15:09:20.965Z</time></trkpt><trkpt lat="44.76840431743337" lon="11.941576988066204"><ele>-2.0</ele><time>2026-03-28T15:09:21.965Z</time></trkpt><trkpt lat="44.768246577508556" lon="11.941612266143945"><ele>-2.0</ele><time>2026-03-28T15:09:22.965Z</time></trkpt><trkpt lat="44.76810227731232" lon="11.941639791039258"><ele>-2.0</ele><time>2026-03-28T15:09:23.965Z</time></trkpt><trkpt lat="44.76798324395003" lon="11.941652355466234"><ele>-2.0</ele><time>2026-03-28T15:09:24.965Z</time></trkpt><trkpt lat="44.767877190215415" lon="11.941666521597496"><ele>-2.0</ele><time>2026-03-28T15:09:25.965Z</time></trkpt><trkpt lat="44.76779197847705" lon="11.941675049252796"><ele>-2.0</ele><time>2026-03-28T15:09:26.965Z</time></trkpt><trkpt lat="44.76772246343733" lon="11.941671108674795"><ele>-2.0</ele><time>2026-03-28T15:09:27.965Z</time></trkpt><trkpt lat="44.76766575769334" lon="11.94157197218897"><ele>-2.0</ele><time>2026-03-28T15:09:28.965Z</time></trkpt><trkpt lat="44.76757190919104" lon="11.941516501792206"><ele>-2.0</ele><time>2026-03-28T15:09:29.965Z</time></trkpt><trkpt lat="44.767455015119396" lon="11.94153693233128"><ele>-1.75</ele><time>2026-03-28T15:09:30.965Z</time></trkpt><trkpt lat="44.767366933530845" lon="11.941637940751198"><ele>-1.5</ele><time>2026-03-28T15:09:31.965Z</time></trkpt><trkpt lat="44.76728429695437" lon="11.941718739775954"><ele>-1.25</ele><time>2026-03-28T15:09:32.965Z</time></trkpt><trkpt lat="44.76718049659599" lon="11.941774883060814"><ele>-1.0</ele><time>2026-03-28T15:09:33.965Z</time></trkpt><trkpt lat="44.76705610299533" lon="11.941799708441822"><ele>-1.0</ele><time>2026-03-28T15:09:34.966Z</time></trkpt><trkpt lat="44.766904017590726" lon="11.941817490292163"><ele>-1.0</ele><time>2026-03-28T15:09:35.966Z</time></trkpt><trkpt lat="44.76674029374114" lon="11.941845660191868"><ele>-1.0</ele><time>2026-03-28T15:09:36.966Z</time></trkpt><trkpt lat="44.76655663225287" lon="11.941865666945382"><ele>-1.3333333333333333</ele><time>2026-03-28T15:09:37.966Z</time></trkpt><trkpt lat="44.76636139653372" lon="11.94183852939147"><ele>-1.6666666666666665</ele><time>2026-03-28T15:09:38.966Z</time></trkpt><trkpt lat="44.76615905343693" lon="11.94180500349352"><ele>-2.0</ele><time>2026-03-28T15:09:39.966Z</time></trkpt><trkpt lat="44.76595391042341" lon="11.94174416481812"><ele>-1.0</ele><time>2026-03-28T15:09:40.966Z</time></trkpt><trkpt lat="44.765743585831906" lon="11.941658890021566"><ele>0.0</ele><time>2026-03-28T15:09:41.966Z</time></trkpt><trkpt lat="44.76552747442133" lon="11.941543557060776"><ele>0.0</ele><time>2026-03-28T15:09:42.966Z</time></trkpt><trkpt lat="44.76531334446035" lon="11.941393244109875"><ele>0.0</ele><time>2026-03-28T15:09:43.966Z</time></trkpt><trkpt lat="44.7651051798092" lon="11.941220515671901"><ele>-0.5</ele><time>2026-03-28T15:09:44.966Z</time></trkpt><trkpt lat="44.76491150006609" lon="11.94102052043032"><ele>-1.0</ele><time>2026-03-28T15:09:45.966Z</time></trkpt><trkpt lat="44.76473457525933" lon="11.940804771290338"><ele>-2.0</ele><time>2026-03-28T15:09:46.966Z</time></trkpt><trkpt lat="44.76457465585436" lon="11.940565980414544"><ele>-3.0</ele><time>2026-03-28T15:09:47.966Z</time></trkpt><trkpt lat="44.76442987792484" lon="11.940312494628294"><ele>-2.0</ele><time>2026-03-28T15:09:48.966Z</time></trkpt><trkpt lat="44.76430331051112" lon="11.94004582137687"><ele>-1.0</ele><time>2026-03-28T15:09:49.966Z</time></trkpt><trkpt lat="44.76419309656181" lon="11.939768643327351"><ele>-1.0</ele><time>2026-03-28T15:09:50.966Z</time></trkpt><trkpt lat="44.76410115376145" lon="11.939477714813878"><ele>-1.0</ele><time>2026-03-28T15:09:51.966Z</time></trkpt><trkpt lat="44.764027777138956" lon="11.939179971570487"><ele>-0.6666666666666666</ele><time>2026-03-28T15:09:52.966Z</time></trkpt><trkpt lat="44.76396671325826" lon="11.938873995287674"><ele>-0.3333333333333333</ele><time>2026-03-28T15:09:53.965Z</time></trkpt><trkpt lat="44.76391289663133" lon="11.93859289803637"><ele>0.0</ele><time>2026-03-28T15:09:54.965Z</time></trkpt><trkpt lat="44.76386566793092" lon="11.938346463134977"><ele>0.0</ele><time>2026-03-28T15:09:55.965Z</time></trkpt><trkpt lat="44.763826181156205" lon="11.93814053715474"><ele>0.0</ele><time>2026-03-28T15:09:56.965Z</time></trkpt><trkpt lat="44.76379379549347" lon="11.937971643901701"><ele>0.0</ele><time>2026-03-28T15:09:57.965Z</time></trkpt><trkpt lat="44.76376557824892" lon="11.937824489212455"><ele>0.0</ele><time>2026-03-28T15:09:58.965Z</time></trkpt><trkpt lat="44.763736453092804" lon="11.937696474091469"><ele>0.0</ele><time>2026-03-28T15:09:59.965Z</time></trkpt><trkpt lat="44.76376351566638" lon="11.937555918068727"><ele>0.0</ele><time>2026-03-28T15:10:00.965Z</time></trkpt><trkpt lat="44.76378760858861" lon="11.937404399728724"><ele>0.0</ele><time>2026-03-28T15:10:01.965Z</time></trkpt><trkpt lat="44.76381887837617" lon="11.937252777387632"><ele>0.0</ele><time>2026-03-28T15:10:02.965Z</time></trkpt><trkpt lat="44.763773490320396" lon="11.937104496716557"><ele>0.0</ele><time>2026-03-28T15:10:03.965Z</time></trkpt><trkpt lat="44.76368141440631" lon="11.937017641413437"><ele>-0.3333333333333333</ele><time>2026-03-28T15:10:04.965Z</time></trkpt><trkpt lat="44.763598143096516" lon="11.936874282912031"><ele>-0.6666666666666666</ele><time>2026-03-28T15:10:05.965Z</time></trkpt><trkpt lat="44.763506069740025" lon="11.93670687748967"><ele>-1.0</ele><time>2026-03-28T15:10:06.965Z</time></trkpt><trkpt lat="44.7634997372248" lon="11.936448854601606"><ele>-1.0</ele><time>2026-03-28T15:10:07.965Z</time></trkpt><trkpt lat="44.76345232932218" lon="11.936201633795879"><ele>-1.0</ele><time>2026-03-28T15:10:08.965Z</time></trkpt><trkpt lat="44.76339971745249" lon="11.93592703831796"><ele>-1.0</ele><time>2026-03-28T15:10:09.965Z</time></trkpt><trkpt lat="44.76334608523225" lon="11.935646876406391"><ele>-1.3333333333333333</ele><time>2026-03-28T15:10:10.965Z</time></trkpt><trkpt lat="44.76328945735118" lon="11.935351065864115"><ele>-1.6666666666666665</ele><time>2026-03-28T15:10:11.965Z</time></trkpt><trkpt lat="44.76323034531875" lon="11.935042784960485"><ele>-2.0</ele><time>2026-03-28T15:10:12.965Z</time></trkpt><trkpt lat="44.763168662943784" lon="11.934724456284355"><ele>-2.0</ele><time>2026-03-28T15:10:13.965Z</time></trkpt><trkpt lat="44.76310520924035" lon="11.93440254619774"><ele>-2.0</ele><time>2026-03-28T15:10:14.965Z</time></trkpt><trkpt lat="44.7630411820152" lon="11.93407985460249"><ele>-2.0</ele><time>2026-03-28T15:10:15.965Z</time></trkpt><trkpt lat="44.76297953196672" lon="11.933762578743996"><ele>-2.0</ele><time>2026-03-28T15:10:16.965Z</time></trkpt><trkpt lat="44.76292009732571" lon="11.933456282035431"><ele>-1.6666666666666665</ele><time>2026-03-28T15:10:17.965Z</time></trkpt><trkpt lat="44.76286199720267" lon="11.933167717490083"><ele>-1.3333333333333333</ele><time>2026-03-28T15:10:18.965Z</time></trkpt><trkpt lat="44.762802111588066" lon="11.932894200547254"><ele>-1.0</ele><time>2026-03-28T15:10:19.965Z</time></trkpt><trkpt lat="44.762738736459205" lon="11.932621860520932"><ele>-0.6666666666666666</ele><time>2026-03-28T15:10:20.965Z</time></trkpt><trkpt lat="44.76267086345614" lon="11.932345986147972"><ele>-0.3333333333333333</ele><time>2026-03-28T15:10:21.965Z</time></trkpt><trkpt lat="44.76259943347129" lon="11.93207108094684"><ele>0.0</ele><time>2026-03-28T15:10:22.965Z</time></trkpt><trkpt lat="44.7625236424043" lon="11.931792558288054"><ele>0.0</ele><time>2026-03-28T15:10:23.965Z</time></trkpt><trkpt lat="44.76244238587756" lon="11.931513412932127"><ele>0.0</ele><time>2026-03-28T15:10:24.965Z</time></trkpt><trkpt lat="44.762358072826224" lon="11.931240543747922"><ele>0.0</ele><time>2026-03-28T15:10:25.965Z</time></trkpt><trkpt lat="44.76227241094162" lon="11.930972330786373"><ele>-0.6666666666666666</ele><time>2026-03-28T15:10:26.965Z</time></trkpt><trkpt lat="44.76218882222523" lon="11.93071182639244"><ele>-1.3333333333333333</ele><time>2026-03-28T15:10:27.965Z</time></trkpt><trkpt lat="44.76210725032318" lon="11.930457607376734"><ele>-2.0</ele><time>2026-03-28T15:10:28.965Z</time></trkpt><trkpt lat="44.76203045785588" lon="11.93021828356645"><ele>-2.0</ele><time>2026-03-28T15:10:29.965Z</time></trkpt><trkpt lat="44.76195848166059" lon="11.929994706817585"><ele>-2.0</ele><time>2026-03-28T15:10:30.965Z</time></trkpt><trkpt lat="44.76189172681287" lon="11.929784599972676"><ele>-2.0</ele><time>2026-03-28T15:10:31.965Z</time></trkpt><trkpt lat="44.761827775535814" lon="11.929583483656511"><ele>-2.0</ele><time>2026-03-28T15:10:32.965Z</time></trkpt><trkpt lat="44.76176713407313" lon="11.929394971790318"><ele>-2.0</ele><time>2026-03-28T15:10:33.965Z</time></trkpt><trkpt lat="44.76170787013557" lon="11.929210742139427"><ele>-2.0</ele><time>2026-03-28T15:10:34.965Z</time></trkpt><trkpt lat="44.76165038947953" lon="11.929030712489675"><ele>-2.0</ele><time>2026-03-28T15:10:35.965Z</time></trkpt><trkpt lat="44.76159585987892" lon="11.928859094811438"><ele>-2.0</ele><time>2026-03-28T15:10:36.965Z</time></trkpt><trkpt lat="44.76154386784413" lon="11.928697049463667"><ele>-2.0</ele><time>2026-03-28T15:10:37.965Z</time></trkpt><trkpt lat="44.761494092077534" lon="11.928547652556762"><ele>-2.0</ele><time>2026-03-28T15:10:38.965Z</time></trkpt><trkpt lat="44.7614472418523" lon="11.928404092888602"><ele>-2.0</ele><time>2026-03-28T15:10:39.965Z</time></trkpt><trkpt lat="44.761398666171154" lon="11.928273924883703"><ele>-1.9999999999999998</ele><time>2026-03-28T15:10:40.965Z</time></trkpt><trkpt lat="44.761363947552674" lon="11.928147011982354"><ele>-2.0</ele><time>2026-03-28T15:10:41.965Z</time></trkpt><trkpt lat="44.76134003116061" lon="11.928028737689145"><ele>-2.0</ele><time>2026-03-28T15:10:42.965Z</time></trkpt><trkpt lat="44.76133067337543" lon="11.927915415850624"><ele>-2.0</ele><time>2026-03-28T15:10:43.965Z</time></trkpt><trkpt lat="44.76132752877641" lon="11.927808650812144"><ele>-1.9999999999999998</ele><time>2026-03-28T15:10:44.965Z</time></trkpt><trkpt lat="44.761336660013754" lon="11.927709925495611"><ele>-2.0</ele><time>2026-03-28T15:10:45.965Z</time></trkpt><trkpt lat="44.761349147785346" lon="11.927611809758925"><ele>-2.0</ele><time>2026-03-28T15:10:46.965Z</time></trkpt><trkpt lat="44.761335527170914" lon="11.927503337904417"><ele>-2.0</ele><time>2026-03-28T15:10:47.965Z</time></trkpt><trkpt lat="44.761297862791125" lon="11.92741699823276"><ele>-2.0</ele><time>2026-03-28T15:10:48.965Z</time></trkpt><trkpt lat="44.76121683367476" lon="11.927360254258167"><ele>-2.0</ele><time>2026-03-28T15:10:49.965Z</time></trkpt><trkpt lat="44.761132517715396" lon="11.927275887192401"><ele>-2.0</ele><time>2026-03-28T15:10:50.965Z</time></trkpt><trkpt lat="44.761043279679065" lon="11.927154021429645"><ele>-2.6666666666666665</ele><time>2026-03-28T15:10:51.965Z</time></trkpt><trkpt lat="44.760981530678734" lon="11.926952056154349"><ele>-3.333333333333333</ele><time>2026-03-28T15:10:52.964Z</time></trkpt><trkpt lat="44.760910330961615" lon="11.926740874957224"><ele>-4.0</ele><time>2026-03-28T15:10:53.964Z</time></trkpt><trkpt lat="44.76083308886925" lon="11.926508691618372"><ele>-2.6666666666666665</ele><time>2026-03-28T15:10:54.964Z</time></trkpt><trkpt lat="44.760748256400056" lon="11.926246017516664"><ele>-1.3333333333333333</ele><time>2026-03-28T15:10:55.964Z</time></trkpt><trkpt lat="44.7606565963994" lon="11.925957928907186"><ele>0.0</ele><time>2026-03-28T15:10:56.964Z</time></trkpt><trkpt lat="44.760567035993965" lon="11.925670614138111"><ele>0.0</ele><time>2026-03-28T15:10:57.964Z</time></trkpt><trkpt lat="44.76047444988182" lon="11.925367041847498"><ele>0.0</ele><time>2026-03-28T15:10:58.964Z</time></trkpt><trkpt lat="44.76038291954099" lon="11.925066292209271"><ele>0.0</ele><time>2026-03-28T15:10:59.964Z</time></trkpt><trkpt lat="44.760292410978806" lon="11.924767325778252"><ele>0.0</ele><time>2026-03-28T15:11:00.964Z</time></trkpt><trkpt lat="44.76020430253334" lon="11.924476108389737"><ele>0.6666666666666666</ele><time>2026-03-28T15:11:01.964Z</time></trkpt><trkpt lat="44.76011843840804" lon="11.92419230897849"><ele>1.3333333333333333</ele><time>2026-03-28T15:11:02.964Z</time></trkpt><trkpt lat="44.76004148990175" lon="11.923917050433797"><ele>2.0</ele><time>2026-03-28T15:11:03.964Z</time></trkpt><trkpt lat="44.75996147438998" lon="11.923626647157898"><ele>2.333333333333333</ele><time>2026-03-28T15:11:04.964Z</time></trkpt><trkpt lat="44.75987932636766" lon="11.923336498611908"><ele>2.6666666666666665</ele><time>2026-03-28T15:11:05.964Z</time></trkpt><trkpt lat="44.759793865396304" lon="11.923049020580798"><ele>3.0</ele><time>2026-03-28T15:11:06.964Z</time></trkpt><trkpt lat="44.75970829532927" lon="11.922764272382363"><ele>1.5</ele><time>2026-03-28T15:11:07.964Z</time></trkpt><trkpt lat="44.75963104860273" lon="11.922465634608221"><ele>0.0</ele><time>2026-03-28T15:11:08.964Z</time></trkpt><trkpt lat="44.75954914007265" lon="11.92216552646471"><ele>0.0</ele><time>2026-03-28T15:11:09.964Z</time></trkpt><trkpt lat="44.75947698869629" lon="11.92186601624247"><ele>0.0</ele><time>2026-03-28T15:11:10.964Z</time></trkpt><trkpt lat="44.75940233515759" lon="11.921576916928169"><ele>0.0</ele><time>2026-03-28T15:11:11.964Z</time></trkpt><trkpt lat="44.75933097981592" lon="11.921291478975157"><ele>0.3333333333333333</ele><time>2026-03-28T15:11:12.965Z</time></trkpt><trkpt lat="44.759263985918274" lon="11.921030548012165"><ele>0.6666666666666666</ele><time>2026-03-28T15:11:13.965Z</time></trkpt><trkpt lat="44.75919600230915" lon="11.920771973591046"><ele>1.0</ele><time>2026-03-28T15:11:14.965Z</time></trkpt><trkpt lat="44.759111425988195" lon="11.92051251429232"><ele>1.0</ele><time>2026-03-28T15:11:15.966Z</time></trkpt><trkpt lat="44.759026998865146" lon="11.920260179163915"><ele>1.0</ele><time>2026-03-28T15:11:16.965Z</time></trkpt><trkpt lat="44.75891975251292" lon="11.920016956921584"><ele>1.0</ele><time>2026-03-28T15:11:17.965Z</time></trkpt><trkpt lat="44.75879477918264" lon="11.919784145066448"><ele>1.0</ele><time>2026-03-28T15:11:18.965Z</time></trkpt><trkpt lat="44.758648969807794" lon="11.919560510613833"><ele>1.0</ele><time>2026-03-28T15:11:19.965Z</time></trkpt><trkpt lat="44.758504632845025" lon="11.919360342791549"><ele>1.0</ele><time>2026-03-28T15:11:20.965Z</time></trkpt><trkpt lat="44.75835809289449" lon="11.91917108640809"><ele>1.0</ele><time>2026-03-28T15:11:21.966Z</time></trkpt><trkpt lat="44.75818903433426" lon="11.918995428800681"><ele>1.0</ele><time>2026-03-28T15:11:22.965Z</time></trkpt><trkpt lat="44.75801104545203" lon="11.91881642100021"><ele>1.0</ele><time>2026-03-28T15:11:23.965Z</time></trkpt><trkpt lat="44.7578072020008" lon="11.918629497890095"><ele>0.5</ele><time>2026-03-28T15:11:24.965Z</time></trkpt><trkpt lat="44.75758519389146" lon="11.918451617355057"><ele>0.0</ele><time>2026-03-28T15:11:25.966Z</time></trkpt><trkpt lat="44.75737214852503" lon="11.918268590510777"><ele>0.0</ele><time>2026-03-28T15:11:26.966Z</time></trkpt><trkpt lat="44.75715660772906" lon="11.91808246735778"><ele>0.0</ele><time>2026-03-28T15:11:27.966Z</time></trkpt><trkpt lat="44.75694750948318" lon="11.91789988512062"><ele>0.0</ele><time>2026-03-28T15:11:28.966Z</time></trkpt><trkpt lat="44.75674443533551" lon="11.917710871012916"><ele>0.0</ele><time>2026-03-28T15:11:29.966Z</time></trkpt><trkpt lat="44.756541088511604" lon="11.917524572735001"><ele>0.0</ele><time>2026-03-28T15:11:30.966Z</time></trkpt><trkpt lat="44.75633688054885" lon="11.917339783836383"><ele>0.0</ele><time>2026-03-28T15:11:31.966Z</time></trkpt><trkpt lat="44.756131820744116" lon="11.91716531534593"><ele>0.5</ele><time>2026-03-28T15:11:32.966Z</time></trkpt><trkpt lat="44.75593545426585" lon="11.916991425857532"><ele>1.0</ele><time>2026-03-28T15:11:33.966Z</time></trkpt><trkpt lat="44.75574149338377" lon="11.916808624440291"><ele>1.5</ele><time>2026-03-28T15:11:34.966Z</time></trkpt><trkpt lat="44.75554214445506" lon="11.916629861080624"><ele>2.0</ele><time>2026-03-28T15:11:35.966Z</time></trkpt><trkpt lat="44.755354249006785" lon="11.91642978243041"><ele>1.5</ele><time>2026-03-28T15:11:36.966Z</time></trkpt><trkpt lat="44.7551581967209" lon="11.916247611249222"><ele>1.0</ele><time>2026-03-28T15:11:37.966Z</time></trkpt><trkpt lat="44.754948970714395" lon="11.91607801051901"><ele>1.0</ele><time>2026-03-28T15:11:38.966Z</time></trkpt><trkpt lat="44.754747190742066" lon="11.915888710979944"><ele>1.0</ele><time>2026-03-28T15:11:39.965Z</time></trkpt><trkpt lat="44.75455681887431" lon="11.915672408885122"><ele>1.5</ele><time>2026-03-28T15:11:40.965Z</time></trkpt><trkpt lat="44.75435267092085" lon="11.915470930508759"><ele>2.0</ele><time>2026-03-28T15:11:41.965Z</time></trkpt><trkpt lat="44.75414714026722" lon="11.91527728736233"><ele>2.0</ele><time>2026-03-28T15:11:42.965Z</time></trkpt><trkpt lat="44.75394393596591" lon="11.915091203892384"><ele>2.0</ele><time>2026-03-28T15:11:43.965Z</time></trkpt><trkpt lat="44.75374615298266" lon="11.914908936734953"><ele>2.0</ele><time>2026-03-28T15:11:44.965Z</time></trkpt><trkpt lat="44.753550448373325" lon="11.914733801772377"><ele>2.0</ele><time>2026-03-28T15:11:45.965Z</time></trkpt><trkpt lat="44.75336256573645" lon="11.914558588502393"><ele>2.0</ele><time>2026-03-28T15:11:46.965Z</time></trkpt><trkpt lat="44.75318046984826" lon="11.914391216022265"><ele>2.0</ele><time>2026-03-28T15:11:47.965Z</time></trkpt><trkpt lat="44.75300274002722" lon="11.914230882774847"><ele>2.0</ele><time>2026-03-28T15:11:48.965Z</time></trkpt><trkpt lat="44.75281821317556" lon="11.914089727715828"><ele>1.0</ele><time>2026-03-28T15:11:49.965Z</time></trkpt><trkpt lat="44.752624196810885" lon="11.91397286187286"><ele>0.0</ele><time>2026-03-28T15:11:50.965Z</time></trkpt><trkpt lat="44.75242319676965" lon="11.91388678603213"><ele>-1.0</ele><time>2026-03-28T15:11:51.965Z</time></trkpt><trkpt lat="44.752224360673196" lon="11.913817874168197"><ele>-1.0</ele><time>2026-03-28T15:11:52.965Z</time></trkpt><trkpt lat="44.75201444487331" lon="11.913771064494679"><ele>-1.0</ele><time>2026-03-28T15:11:53.965Z</time></trkpt><trkpt lat="44.751786564882536" lon="11.91374534154138"><ele>-1.0</ele><time>2026-03-28T15:11:54.965Z</time></trkpt><trkpt lat="44.75155717763155" lon="11.913683877430111"><ele>-1.0</ele><time>2026-03-28T15:11:55.965Z</time></trkpt><trkpt lat="44.751328153926636" lon="11.913619097314786"><ele>-1.0</ele><time>2026-03-28T15:11:56.965Z</time></trkpt><trkpt lat="44.75109850806607" lon="11.913561938262434"><ele>-0.6666666666666666</ele><time>2026-03-28T15:11:57.965Z</time></trkpt><trkpt lat="44.750873380852525" lon="11.913508547179342"><ele>-0.3333333333333333</ele><time>2026-03-28T15:11:58.965Z</time></trkpt><trkpt lat="44.75066114383791" lon="11.913460433752448"><ele>0.0</ele><time>2026-03-28T15:11:59.965Z</time></trkpt><trkpt lat="44.75045806051742" lon="11.91342668826191"><ele>0.3333333333333333</ele><time>2026-03-28T15:12:00.965Z</time></trkpt><trkpt lat="44.750265233223054" lon="11.913404439335682"><ele>0.6666666666666666</ele><time>2026-03-28T15:12:01.965Z</time></trkpt><trkpt lat="44.750078694976" lon="11.913392237336195"><ele>1.0</ele><time>2026-03-28T15:12:02.965Z</time></trkpt><trkpt lat="44.74989552716234" lon="11.913388454127121"><ele>1.0</ele><time>2026-03-28T15:12:03.965Z</time></trkpt><trkpt lat="44.74972825654133" lon="11.913393309151182"><ele>1.0</ele><time>2026-03-28T15:12:04.965Z</time></trkpt><trkpt lat="44.74957409538188" lon="11.913390083308254"><ele>1.0</ele><time>2026-03-28T15:12:05.965Z</time></trkpt><trkpt lat="44.749424837696154" lon="11.913365321979096"><ele>1.0</ele><time>2026-03-28T15:12:06.965Z</time></trkpt><trkpt lat="44.749283990755764" lon="11.913290061701712"><ele>1.0</ele><time>2026-03-28T15:12:07.965Z</time></trkpt><trkpt lat="44.749149089035235" lon="11.913214157901113"><ele>1.0</ele><time>2026-03-28T15:12:08.965Z</time></trkpt><trkpt lat="44.74900905904792" lon="11.913143163625318"><ele>1.0</ele><time>2026-03-28T15:12:09.965Z</time></trkpt><trkpt lat="44.74890370409263" lon="11.913033211995069"><ele>1.0</ele><time>2026-03-28T15:12:10.965Z</time></trkpt><trkpt lat="44.748818796415435" lon="11.912940442369699"><ele>1.0</ele><time>2026-03-28T15:12:11.965Z</time></trkpt><trkpt lat="44.74878021620502" lon="11.912783929623174"><ele>1.0</ele><time>2026-03-28T15:12:12.965Z</time></trkpt><trkpt lat="44.748770648122175" lon="11.91259843412532"><ele>1.0</ele><time>2026-03-28T15:12:13.965Z</time></trkpt><trkpt lat="44.74875915308369" lon="11.912391124526415"><ele>0.6666666666666666</ele><time>2026-03-28T15:12:14.965Z</time></trkpt><trkpt lat="44.74873573545762" lon="11.912154710180396"><ele>0.3333333333333333</ele><time>2026-03-28T15:12:15.965Z</time></trkpt><trkpt lat="44.74871381272043" lon="11.911893637889637"><ele>0.0</ele><time>2026-03-28T15:12:16.965Z</time></trkpt><trkpt lat="44.748703765627006" lon="11.911612897451274"><ele>0.0</ele><time>2026-03-28T15:12:17.965Z</time></trkpt><trkpt lat="44.74869319664523" lon="11.911336214778661"><ele>0.0</ele><time>2026-03-28T15:12:18.965Z</time></trkpt><trkpt lat="44.748687412820196" lon="11.911077931127915"><ele>0.0</ele><time>2026-03-28T15:12:19.965Z</time></trkpt><trkpt lat="44.748678410420744" lon="11.910833007230604"><ele>0.0</ele><time>2026-03-28T15:12:20.965Z</time></trkpt><trkpt lat="44.74866792710549" lon="11.910607678535765"><ele>0.0</ele><time>2026-03-28T15:12:21.965Z</time></trkpt><trkpt lat="44.74866233620148" lon="11.910395230243605"><ele>0.0</ele><time>2026-03-28T15:12:22.965Z</time></trkpt><trkpt lat="44.7486538949519" lon="11.91019913785078"><ele>0.0</ele><time>2026-03-28T15:12:23.965Z</time></trkpt><trkpt lat="44.748651723114136" lon="11.910011637902343"><ele>0.0</ele><time>2026-03-28T15:12:24.965Z</time></trkpt><trkpt lat="44.748643623541355" lon="11.909823520306814"><ele>0.0</ele><time>2026-03-28T15:12:25.965Z</time></trkpt><trkpt lat="44.74862764233168" lon="11.909639763423925"><ele>0.0</ele><time>2026-03-28T15:12:26.965Z</time></trkpt><trkpt lat="44.74861199781187" lon="11.909441798372043"><ele>0.0</ele><time>2026-03-28T15:12:27.965Z</time></trkpt><trkpt lat="44.74858049815171" lon="11.90924075086426"><ele>0.0</ele><time>2026-03-28T15:12:28.965Z</time></trkpt><trkpt lat="44.74854631704795" lon="11.909054775198545"><ele>0.0</ele><time>2026-03-28T15:12:29.965Z</time></trkpt><trkpt lat="44.74850905654167" lon="11.908876272711717"><ele>0.0</ele><time>2026-03-28T15:12:30.965Z</time></trkpt><trkpt lat="44.748467596360406" lon="11.908698844021819"><ele>0.0</ele><time>2026-03-28T15:12:31.964Z</time></trkpt><trkpt lat="44.74843523227479" lon="11.908528101989386"><ele>0.0</ele><time>2026-03-28T15:12:32.964Z</time></trkpt><trkpt lat="44.748401020140626" lon="11.908350177914642"><ele>0.0</ele><time>2026-03-28T15:12:33.964Z</time></trkpt><trkpt lat="44.74836352171995" lon="11.908177590233835"><ele>0.0</ele><time>2026-03-28T15:12:34.964Z</time></trkpt><trkpt lat="44.74832926289319" lon="11.907994556926273"><ele>0.0</ele><time>2026-03-28T15:12:35.964Z</time></trkpt><trkpt lat="44.748309654663295" lon="11.907821014859122"><ele>0.0</ele><time>2026-03-28T15:12:36.964Z</time></trkpt><trkpt lat="44.748297149758315" lon="11.90764294977057"><ele>0.0</ele><time>2026-03-28T15:12:37.964Z</time></trkpt><trkpt lat="44.748299141253604" lon="11.907442853683698"><ele>0.0</ele><time>2026-03-28T15:12:38.964Z</time></trkpt><trkpt lat="44.74831136937025" lon="11.907188292865413"><ele>0.0</ele><time>2026-03-28T15:12:39.964Z</time></trkpt><trkpt lat="44.74834675640589" lon="11.90689128348474"><ele>0.0</ele><time>2026-03-28T15:12:40.964Z</time></trkpt><trkpt lat="44.74840010876634" lon="11.906562372878678"><ele>0.0</ele><time>2026-03-28T15:12:41.964Z</time></trkpt><trkpt lat="44.748455395154714" lon="11.90622407968107"><ele>0.0</ele><time>2026-03-28T15:12:42.964Z</time></trkpt><trkpt lat="44.74850537259088" lon="11.905886074557527"><ele>-1.5</ele><time>2026-03-28T15:12:43.964Z</time></trkpt><trkpt lat="44.74856372103979" lon="11.905546019369872"><ele>-3.0</ele><time>2026-03-28T15:12:44.964Z</time></trkpt><trkpt lat="44.74861539948946" lon="11.905205526181252"><ele>-2.5</ele><time>2026-03-28T15:12:45.964Z</time></trkpt><trkpt lat="44.74865820141862" lon="11.90486933378245"><ele>-2.0</ele><time>2026-03-28T15:12:46.964Z</time></trkpt><trkpt lat="44.74869778555067" lon="11.904551246532456"><ele>-2.0</ele><time>2026-03-28T15:12:47.964Z</time></trkpt><trkpt lat="44.7487165278594" lon="11.904237216758334"><ele>-2.0</ele><time>2026-03-28T15:12:48.964Z</time></trkpt><trkpt lat="44.74871971287189" lon="11.90392985040027"><ele>-2.0</ele><time>2026-03-28T15:12:49.964Z</time></trkpt><trkpt lat="44.74872216143191" lon="11.903605551318758"><ele>-2.0</ele><time>2026-03-28T15:12:50.964Z</time></trkpt><trkpt lat="44.748739923307355" lon="11.903281518734282"><ele>-2.0</ele><time>2026-03-28T15:12:51.964Z</time></trkpt><trkpt lat="44.74877889691488" lon="11.902948699442588"><ele>-2.0</ele><time>2026-03-28T15:12:52.964Z</time></trkpt><trkpt lat="44.74882372204107" lon="11.902615528728488"><ele>-2.0</ele><time>2026-03-28T15:12:53.964Z</time></trkpt><trkpt lat="44.74887798513968" lon="11.902285835680981"><ele>-2.0</ele><time>2026-03-28T15:12:54.964Z</time></trkpt><trkpt lat="44.748927765444556" lon="11.901968625166932"><ele>-2.0</ele><time>2026-03-28T15:12:55.964Z</time></trkpt><trkpt lat="44.74898529916102" lon="11.901658620274715"><ele>-1.3333333333333333</ele><time>2026-03-28T15:12:56.964Z</time></trkpt><trkpt lat="44.74904501059571" lon="11.901355828570525"><ele>-0.6666666666666666</ele><time>2026-03-28T15:12:57.964Z</time></trkpt><trkpt lat="44.74909932342749" lon="11.901052454521084"><ele>0.0</ele><time>2026-03-28T15:12:58.964Z</time></trkpt><trkpt lat="44.74914776326382" lon="11.900759666563808"><ele>0.3333333333333333</ele><time>2026-03-28T15:12:59.964Z</time></trkpt><trkpt lat="44.749196551410634" lon="11.900475332063843"><ele>0.6666666666666666</ele><time>2026-03-28T15:13:00.964Z</time></trkpt><trkpt lat="44.74924687014115" lon="11.900203329053795"><ele>1.0</ele><time>2026-03-28T15:13:01.964Z</time></trkpt><trkpt lat="44.749304851692145" lon="11.89994660763874"><ele>1.3333333333333333</ele><time>2026-03-28T15:13:02.964Z</time></trkpt><trkpt lat="44.749378878276126" lon="11.899706610830656"><ele>1.6666666666666665</ele><time>2026-03-28T15:13:03.964Z</time></trkpt><trkpt lat="44.74947213926271" lon="11.89947095786312"><ele>2.0</ele><time>2026-03-28T15:13:04.964Z</time></trkpt><trkpt lat="44.74957093613726" lon="11.899236615413578"><ele>2.0</ele><time>2026-03-28T15:13:05.964Z</time></trkpt><trkpt lat="44.74967259440143" lon="11.899016215752539"><ele>2.0</ele><time>2026-03-28T15:13:06.964Z</time></trkpt><trkpt lat="44.749766153161005" lon="11.89879451409773"><ele>2.0</ele><time>2026-03-28T15:13:07.964Z</time></trkpt><trkpt lat="44.749853375518875" lon="11.898592651088274"><ele>2.0</ele><time>2026-03-28T15:13:08.964Z</time></trkpt><trkpt lat="44.749937453985574" lon="11.898408969503652"><ele>2.0</ele><time>2026-03-28T15:13:09.964Z</time></trkpt><trkpt lat="44.75000223443182" lon="11.898241388370774"><ele>2.0</ele><time>2026-03-28T15:13:10.964Z</time></trkpt><trkpt lat="44.75003982717775" lon="11.898066853719538"><ele>2.0</ele><time>2026-03-28T15:13:11.964Z</time></trkpt><trkpt lat="44.75005352991008" lon="11.89789943020231"><ele>2.0</ele><time>2026-03-28T15:13:12.964Z</time></trkpt><trkpt lat="44.75003654543" lon="11.897728858776675"><ele>2.0</ele><time>2026-03-28T15:13:13.964Z</time></trkpt><trkpt lat="44.75000122426021" lon="11.897548374134042"><ele>2.0</ele><time>2026-03-28T15:13:14.964Z</time></trkpt><trkpt lat="44.74996289994274" lon="11.897350980801605"><ele>2.0</ele><time>2026-03-28T15:13:15.964Z</time></trkpt><trkpt lat="44.74987155994808" lon="11.897185885214279"><ele>2.0</ele><time>2026-03-28T15:13:16.964Z</time></trkpt><trkpt lat="44.74977721668345" lon="11.897026077752074"><ele>2.0</ele><time>2026-03-28T15:13:17.964Z</time></trkpt><trkpt lat="44.74968774659552" lon="11.896878853988667"><ele>2.0</ele><time>2026-03-28T15:13:18.965Z</time></trkpt><trkpt lat="44.74960211199054" lon="11.896724118713271"><ele>2.0</ele><time>2026-03-28T15:13:19.964Z</time></trkpt><trkpt lat="44.749544232594" lon="11.896567075157717"><ele>1.75</ele><time>2026-03-28T15:13:20.964Z</time></trkpt><trkpt lat="44.74951607256045" lon="11.896395273340172"><ele>1.5</ele><time>2026-03-28T15:13:21.965Z</time></trkpt><trkpt lat="44.749512532356434" lon="11.896214529641723"><ele>1.25</ele><time>2026-03-28T15:13:22.965Z</time></trkpt><trkpt lat="44.74954263393647" lon="11.896030752984574"><ele>1.0</ele><time>2026-03-28T15:13:23.965Z</time></trkpt><trkpt lat="44.74959322340626" lon="11.895833745080635"><ele>1.0</ele><time>2026-03-28T15:13:24.964Z</time></trkpt><trkpt lat="44.749670875348606" lon="11.895637454764017"><ele>1.0</ele><time>2026-03-28T15:13:25.964Z</time></trkpt><trkpt lat="44.74973931957241" lon="11.895422391693579"><ele>1.0</ele><time>2026-03-28T15:13:26.964Z</time></trkpt><trkpt lat="44.74981073517097" lon="11.895197813300442"><ele>1.0</ele><time>2026-03-28T15:13:27.965Z</time></trkpt><trkpt lat="44.74988238055117" lon="11.894972404049001"><ele>1.0</ele><time>2026-03-28T15:13:28.964Z</time></trkpt><trkpt lat="44.74992834796834" lon="11.894735350550159"><ele>1.0</ele><time>2026-03-28T15:13:29.964Z</time></trkpt><trkpt lat="44.749992841334894" lon="11.894515715867225"><ele>1.0</ele><time>2026-03-28T15:13:30.965Z</time></trkpt><trkpt lat="44.75005224146514" lon="11.894300196369114"><ele>1.0</ele><time>2026-03-28T15:13:31.964Z</time></trkpt><trkpt lat="44.75011117994414" lon="11.894089245678423"><ele>1.0</ele><time>2026-03-28T15:13:32.964Z</time></trkpt><trkpt lat="44.75017078937734" lon="11.893886998301916"><ele>0.6666666666666666</ele><time>2026-03-28T15:13:33.964Z</time></trkpt><trkpt lat="44.75022564096403" lon="11.893688929888162"><ele>0.3333333333333333</ele><time>2026-03-28T15:13:34.964Z</time></trkpt><trkpt lat="44.75033235291365" lon="11.893517026148002"><ele>0.0</ele><time>2026-03-28T15:13:35.964Z</time></trkpt><trkpt lat="44.75037845544923" lon="11.893310784915215"><ele>0.0</ele><time>2026-03-28T15:13:36.964Z</time></trkpt><trkpt lat="44.750412451434805" lon="11.893099628085226"><ele>0.0</ele><time>2026-03-28T15:13:37.964Z</time></trkpt><trkpt lat="44.75043443453265" lon="11.892885337064948"><ele>0.0</ele><time>2026-03-28T15:13:38.964Z</time></trkpt><trkpt lat="44.750438014953936" lon="11.892663059318762"><ele>0.3333333333333333</ele><time>2026-03-28T15:13:39.964Z</time></trkpt><trkpt lat="44.750442897871345" lon="11.892446005770353"><ele>0.6666666666666666</ele><time>2026-03-28T15:13:40.964Z</time></trkpt><trkpt lat="44.75044763572627" lon="11.892235400419334"><ele>1.0</ele><time>2026-03-28T15:13:41.964Z</time></trkpt><trkpt lat="44.75045172138962" lon="11.892027682103755"><ele>1.0</ele><time>2026-03-28T15:13:42.964Z</time></trkpt><trkpt lat="44.75045532768714" lon="11.891822126249581"><ele>1.0</ele><time>2026-03-28T15:13:43.964Z</time></trkpt><trkpt lat="44.75046535810868" lon="11.891626834295748"><ele>1.0</ele><time>2026-03-28T15:13:44.964Z</time></trkpt><trkpt lat="44.75048296846055" lon="11.891448690983303"><ele>1.0</ele><time>2026-03-28T15:13:45.964Z</time></trkpt><trkpt lat="44.7505128461769" lon="11.891278772093491"><ele>1.0</ele><time>2026-03-28T15:13:46.964Z</time></trkpt><trkpt lat="44.75055587482504" lon="11.891093485489364"><ele>1.0</ele><time>2026-03-28T15:13:47.964Z</time></trkpt><trkpt lat="44.750602387734936" lon="11.890900259686301"><ele>1.0</ele><time>2026-03-28T15:13:48.964Z</time></trkpt><trkpt lat="44.75063629863526" lon="11.890695698994747"><ele>1.0</ele><time>2026-03-28T15:13:49.964Z</time></trkpt><trkpt lat="44.75064394761834" lon="11.890487390262273"><ele>1.0</ele><time>2026-03-28T15:13:50.964Z</time></trkpt><trkpt lat="44.75064063243344" lon="11.890283330964268"><ele>1.0</ele><time>2026-03-28T15:13:51.964Z</time></trkpt><trkpt lat="44.75063394129634" lon="11.890080227951563"><ele>1.0</ele><time>2026-03-28T15:13:52.964Z</time></trkpt><trkpt lat="44.75061335152361" lon="11.889871185382423"><ele>1.0</ele><time>2026-03-28T15:13:53.964Z</time></trkpt><trkpt lat="44.75063396578382" lon="11.889655900362255"><ele>1.0</ele><time>2026-03-28T15:13:54.964Z</time></trkpt><trkpt lat="44.75063116831999" lon="11.889440794302056"><ele>1.0</ele><time>2026-03-28T15:13:55.964Z</time></trkpt><trkpt lat="44.75062386241968" lon="11.88922987810102"><ele>1.0</ele><time>2026-03-28T15:13:56.964Z</time></trkpt><trkpt lat="44.750615226417445" lon="11.889022955859932"><ele>1.0</ele><time>2026-03-28T15:13:57.964Z</time></trkpt><trkpt lat="44.75060461357824" lon="11.888822344911318"><ele>1.0</ele><time>2026-03-28T15:13:58.964Z</time></trkpt><trkpt lat="44.75059441689672" lon="11.888622848489838"><ele>1.0</ele><time>2026-03-28T15:13:59.964Z</time></trkpt><trkpt lat="44.7505803262649" lon="11.888422967264352"><ele>1.0</ele><time>2026-03-28T15:14:00.964Z</time></trkpt><trkpt lat="44.75056853963643" lon="11.888219171577816"><ele>0.75</ele><time>2026-03-28T15:14:01.964Z</time></trkpt><trkpt lat="44.75055395913464" lon="11.888014976882786"><ele>0.5</ele><time>2026-03-28T15:14:02.963Z</time></trkpt><trkpt lat="44.75054531463559" lon="11.887806394303878"><ele>0.25</ele><time>2026-03-28T15:14:03.963Z</time></trkpt><trkpt lat="44.750536463109306" lon="11.887591926265417"><ele>0.0</ele><time>2026-03-28T15:14:04.963Z</time></trkpt><trkpt lat="44.75052801388209" lon="11.887374920521738"><ele>0.0</ele><time>2026-03-28T15:14:05.963Z</time></trkpt><trkpt lat="44.75052368409808" lon="11.887163620030805"><ele>0.0</ele><time>2026-03-28T15:14:06.963Z</time></trkpt><trkpt lat="44.75052397731384" lon="11.886947977231559"><ele>0.0</ele><time>2026-03-28T15:14:07.963Z</time></trkpt><trkpt lat="44.750531989735464" lon="11.886719405093594"><ele>0.0</ele><time>2026-03-28T15:14:08.963Z</time></trkpt><trkpt lat="44.75054761403397" lon="11.886470091307078"><ele>0.0</ele><time>2026-03-28T15:14:09.963Z</time></trkpt><trkpt lat="44.75056440102397" lon="11.886200520561715"><ele>0.0</ele><time>2026-03-28T15:14:10.963Z</time></trkpt><trkpt lat="44.75057577050113" lon="11.885927630550798"><ele>0.3333333333333333</ele><time>2026-03-28T15:14:11.963Z</time></trkpt><trkpt lat="44.750582834773724" lon="11.885661706520185"><ele>0.6666666666666666</ele><time>2026-03-28T15:14:12.963Z</time></trkpt><trkpt lat="44.75059767726945" lon="11.885405220294048"><ele>1.0</ele><time>2026-03-28T15:14:13.963Z</time></trkpt><trkpt lat="44.7506102484246" lon="11.885156915874585"><ele>1.0</ele><time>2026-03-28T15:14:14.963Z</time></trkpt><trkpt lat="44.75062551800488" lon="11.884917014118574"><ele>1.0</ele><time>2026-03-28T15:14:15.963Z</time></trkpt><trkpt lat="44.75063645716871" lon="11.884686737410618"><ele>1.0</ele><time>2026-03-28T15:14:16.963Z</time></trkpt><trkpt lat="44.75063955672589" lon="11.884456807261087"><ele>0.6666666666666666</ele><time>2026-03-28T15:14:17.963Z</time></trkpt><trkpt lat="44.75064438117881" lon="11.884213623297459"><ele>0.3333333333333333</ele><time>2026-03-28T15:14:18.963Z</time></trkpt><trkpt lat="44.75064504584433" lon="11.883936229132662"><ele>0.0</ele><time>2026-03-28T15:14:19.963Z</time></trkpt><trkpt lat="44.750643058756026" lon="11.883645151522185"><ele>0.3333333333333333</ele><time>2026-03-28T15:14:20.963Z</time></trkpt><trkpt lat="44.750641672901615" lon="11.8833472941007"><ele>0.6666666666666666</ele><time>2026-03-28T15:14:21.963Z</time></trkpt><trkpt lat="44.75064348630282" lon="11.883041177522111"><ele>1.0</ele><time>2026-03-28T15:14:22.963Z</time></trkpt><trkpt lat="44.75064788746675" lon="11.882732581906938"><ele>1.0</ele><time>2026-03-28T15:14:23.963Z</time></trkpt><trkpt lat="44.75066026275082" lon="11.882423748496429"><ele>1.0</ele><time>2026-03-28T15:14:24.963Z</time></trkpt><trkpt lat="44.75067257017923" lon="11.882121685012907"><ele>1.0</ele><time>2026-03-28T15:14:25.963Z</time></trkpt><trkpt lat="44.75068780422297" lon="11.881823303762141"><ele>1.0</ele><time>2026-03-28T15:14:26.963Z</time></trkpt><trkpt lat="44.75070988703116" lon="11.88153592672704"><ele>1.0</ele><time>2026-03-28T15:14:27.963Z</time></trkpt><trkpt lat="44.75073744138946" lon="11.8812680584909"><ele>1.0</ele><time>2026-03-28T15:14:28.963Z</time></trkpt><trkpt lat="44.75076411399621" lon="11.881012321354705"><ele>1.3333333333333333</ele><time>2026-03-28T15:14:29.963Z</time></trkpt><trkpt lat="44.75079006790865" lon="11.880775232988537"><ele>1.6666666666666665</ele><time>2026-03-28T15:14:30.963Z</time></trkpt><trkpt lat="44.75083182040986" lon="11.880558658683183"><ele>2.0</ele><time>2026-03-28T15:14:31.963Z</time></trkpt><trkpt lat="44.7508561201194" lon="11.880355583538748"><ele>2.0</ele><time>2026-03-28T15:14:32.963Z</time></trkpt><trkpt lat="44.750865627151505" lon="11.880159045312004"><ele>2.0</ele><time>2026-03-28T15:14:33.963Z</time></trkpt><trkpt lat="44.75089564476024" lon="11.879966342506332"><ele>2.0</ele><time>2026-03-28T15:14:34.963Z</time></trkpt><trkpt lat="44.75092972567378" lon="11.879780025136427"><ele>2.0</ele><time>2026-03-28T15:14:35.963Z</time></trkpt><trkpt lat="44.75098672848561" lon="11.879607674498978"><ele>1.75</ele><time>2026-03-28T15:14:36.963Z</time></trkpt><trkpt lat="44.75103439982669" lon="11.879439307563722"><ele>1.5</ele><time>2026-03-28T15:14:37.963Z</time></trkpt><trkpt lat="44.751081467959644" lon="11.87928561345317"><ele>1.25</ele><time>2026-03-28T15:14:38.963Z</time></trkpt><trkpt lat="44.751128128555315" lon="11.879135885537554"><ele>1.0</ele><time>2026-03-28T15:14:39.963Z</time></trkpt><trkpt lat="44.751172800039996" lon="11.878986743640052"><ele>0.5</ele><time>2026-03-28T15:14:40.963Z</time></trkpt><trkpt lat="44.75121739264712" lon="11.878834697349811"><ele>0.0</ele><time>2026-03-28T15:14:41.963Z</time></trkpt><trkpt lat="44.751255714077146" lon="11.878678182732815"><ele>-0.5</ele><time>2026-03-28T15:14:42.963Z</time></trkpt><trkpt lat="44.75128325002525" lon="11.878526466791346"><ele>-1.0</ele><time>2026-03-28T15:14:43.963Z</time></trkpt><trkpt lat="44.75129983318277" lon="11.878378010004605"><ele>-1.0</ele><time>2026-03-28T15:14:44.963Z</time></trkpt><trkpt lat="44.7512977200352" lon="11.878218946710982"><ele>-1.0</ele><time>2026-03-28T15:14:45.963Z</time></trkpt><trkpt lat="44.7513030803732" lon="11.878070167132204"><ele>-1.0</ele><time>2026-03-28T15:14:46.963Z</time></trkpt><trkpt lat="44.751304733754985" lon="11.87793428806407"><ele>-1.0</ele><time>2026-03-28T15:14:47.963Z</time></trkpt><trkpt lat="44.751295363660816" lon="11.877807483627517"><ele>-1.0</ele><time>2026-03-28T15:14:48.963Z</time></trkpt><trkpt lat="44.75128501683031" lon="11.877690088503938"><ele>-0.6666666666666666</ele><time>2026-03-28T15:14:49.963Z</time></trkpt><trkpt lat="44.75127884014786" lon="11.877577686855576"><ele>-0.3333333333333333</ele><time>2026-03-28T15:14:50.963Z</time></trkpt><trkpt lat="44.75127498114794" lon="11.877474086566108"><ele>0.0</ele><time>2026-03-28T15:14:51.963Z</time></trkpt><trkpt lat="44.75128563984725" lon="11.877371934083154"><ele>0.3333333333333333</ele><time>2026-03-28T15:14:52.963Z</time></trkpt><trkpt lat="44.751311067090136" lon="11.877270287461178"><ele>0.6666666666666666</ele><time>2026-03-28T15:14:53.963Z</time></trkpt><trkpt lat="44.75135064810648" lon="11.877192127369389"><ele>1.0</ele><time>2026-03-28T15:14:54.962Z</time></trkpt><trkpt lat="44.75141574455118" lon="11.877125244307232"><ele>0.9999999999999999</ele><time>2026-03-28T15:14:55.962Z</time></trkpt><trkpt lat="44.751482044822744" lon="11.877066681758512"><ele>1.0</ele><time>2026-03-28T15:14:56.962Z</time></trkpt><trkpt lat="44.75155509739521" lon="11.877021106278063"><ele>1.0</ele><time>2026-03-28T15:14:57.962Z</time></trkpt><trkpt lat="44.75163326248441" lon="11.876966649463617"><ele>1.0</ele><time>2026-03-28T15:14:58.962Z</time></trkpt><trkpt lat="44.7517157020289" lon="11.87690575874361"><ele>0.9999999999999999</ele><time>2026-03-28T15:14:59.962Z</time></trkpt><trkpt lat="44.75179683153376" lon="11.876840461484122"><ele>1.0</ele><time>2026-03-28T15:15:00.962Z</time></trkpt><trkpt lat="44.75188176408405" lon="11.87677082884866"><ele>0.8</ele><time>2026-03-28T15:15:01.962Z</time></trkpt><trkpt lat="44.75195587479969" lon="11.876682193064399"><ele>0.6000000000000001</ele><time>2026-03-28T15:15:02.962Z</time></trkpt><trkpt lat="44.75202870412735" lon="11.876588294886245"><ele>0.4</ele><time>2026-03-28T15:15:03.962Z</time></trkpt><trkpt lat="44.75209809781771" lon="11.876485553234785"><ele>0.2</ele><time>2026-03-28T15:15:04.962Z</time></trkpt><trkpt lat="44.75216896466338" lon="11.876357822381832"><ele>0.0</ele><time>2026-03-28T15:15:05.962Z</time></trkpt><trkpt lat="44.7522432161224" lon="11.876200836672933"><ele>0.0</ele><time>2026-03-28T15:15:06.962Z</time></trkpt><trkpt lat="44.75233148046608" lon="11.8760155524424"><ele>0.0</ele><time>2026-03-28T15:15:07.962Z</time></trkpt><trkpt lat="44.752448828663425" lon="11.875817540926116"><ele>0.0</ele><time>2026-03-28T15:15:08.962Z</time></trkpt><trkpt lat="44.75257730659632" lon="11.875617986126072"><ele>0.0</ele><time>2026-03-28T15:15:09.962Z</time></trkpt><trkpt lat="44.75269425627348" lon="11.8754126630012"><ele>0.0</ele><time>2026-03-28T15:15:10.962Z</time></trkpt><trkpt lat="44.75279835939294" lon="11.875227680915225"><ele>0.0</ele><time>2026-03-28T15:15:11.962Z</time></trkpt><trkpt lat="44.75289753600339" lon="11.875058327545785"><ele>0.0</ele><time>2026-03-28T15:15:12.962Z</time></trkpt><trkpt lat="44.752993573062" lon="11.874929512301463"><ele>0.0</ele><time>2026-03-28T15:15:13.962Z</time></trkpt><trkpt lat="44.75309905821682" lon="11.874827260158991"><ele>0.0</ele><time>2026-03-28T15:15:14.962Z</time></trkpt><trkpt lat="44.75319310824074" lon="11.874741060882288"><ele>0.0</ele><time>2026-03-28T15:15:15.962Z</time></trkpt><trkpt lat="44.75328750803117" lon="11.874674678267631"><ele>0.0</ele><time>2026-03-28T15:15:16.962Z</time></trkpt><trkpt lat="44.753381576543504" lon="11.874596668792607"><ele>0.0</ele><time>2026-03-28T15:15:17.962Z</time></trkpt><trkpt lat="44.75349701166535" lon="11.874561948159213"><ele>0.0</ele><time>2026-03-28T15:15:18.962Z</time></trkpt><trkpt lat="44.753633879095176" lon="11.874520262504216"><ele>0.0</ele><time>2026-03-28T15:15:19.962Z</time></trkpt><trkpt lat="44.75377343869757" lon="11.874465488635513"><ele>0.6666666666666666</ele><time>2026-03-28T15:15:20.962Z</time></trkpt><trkpt lat="44.753932926851945" lon="11.874423377914386"><ele>1.3333333333333333</ele><time>2026-03-28T15:15:21.962Z</time></trkpt><trkpt lat="44.754097757490094" lon="11.874424311696508"><ele>2.0</ele><time>2026-03-28T15:15:22.962Z</time></trkpt><trkpt lat="44.754265957924794" lon="11.874445802708017"><ele>2.0</ele><time>2026-03-28T15:15:23.962Z</time></trkpt><trkpt lat="44.75443354901013" lon="11.874484829001169"><ele>2.0</ele><time>2026-03-28T15:15:24.963Z</time></trkpt><trkpt lat="44.75460671249704" lon="11.87453130109632"><ele>2.0</ele><time>2026-03-28T15:15:25.964Z</time></trkpt><trkpt lat="44.75478137523429" lon="11.87458151487044"><ele>2.0</ele><time>2026-03-28T15:15:26.964Z</time></trkpt><trkpt lat="44.75495351725399" lon="11.87463097532065"><ele>2.0</ele><time>2026-03-28T15:15:27.963Z</time></trkpt><trkpt lat="44.75511667816707" lon="11.874680184704534"><ele>2.0</ele><time>2026-03-28T15:15:28.964Z</time></trkpt><trkpt lat="44.755270721651144" lon="11.874722381420307"><ele>1.75</ele><time>2026-03-28T15:15:29.964Z</time></trkpt><trkpt lat="44.75540979442219" lon="11.874760264968314"><ele>1.5</ele><time>2026-03-28T15:15:30.964Z</time></trkpt><trkpt lat="44.75553367776063" lon="11.874794101683953"><ele>1.25</ele><time>2026-03-28T15:15:31.963Z</time></trkpt><trkpt lat="44.75565698602884" lon="11.874819066421521"><ele>1.0</ele><time>2026-03-28T15:15:32.963Z</time></trkpt><trkpt lat="44.75576776872402" lon="11.874889371189436"><ele>1.0</ele><time>2026-03-28T15:15:33.963Z</time></trkpt><trkpt lat="44.7558845722343" lon="11.874917185158937"><ele>1.0</ele><time>2026-03-28T15:15:34.964Z</time></trkpt><trkpt lat="44.75600584206966" lon="11.874950978218186"><ele>1.0</ele><time>2026-03-28T15:15:35.964Z</time></trkpt><trkpt lat="44.75614817574186" lon="11.874992863001394"><ele>1.0</ele><time>2026-03-28T15:15:36.963Z</time></trkpt><trkpt lat="44.75631948254485" lon="11.875058903519841"><ele>0.6666666666666666</ele><time>2026-03-28T15:15:37.964Z</time></trkpt><trkpt lat="44.75650937932872" lon="11.875106282745836"><ele>0.3333333333333333</ele><time>2026-03-28T15:15:38.964Z</time></trkpt><trkpt lat="44.75670647693978" lon="11.875148806825937"><ele>0.0</ele><time>2026-03-28T15:15:39.964Z</time></trkpt><trkpt lat="44.75690248390078" lon="11.87518901622008"><ele>0.0</ele><time>2026-03-28T15:15:40.964Z</time></trkpt><trkpt lat="44.75711022707276" lon="11.875232492130221"><ele>0.0</ele><time>2026-03-28T15:15:41.964Z</time></trkpt><trkpt lat="44.75731904512881" lon="11.875290244529888"><ele>0.0</ele><time>2026-03-28T15:15:42.964Z</time></trkpt><trkpt lat="44.75752708037015" lon="11.875372598158084"><ele>0.6666666666666666</ele><time>2026-03-28T15:15:43.964Z</time></trkpt><trkpt lat="44.75774411107987" lon="11.87543520315375"><ele>1.3333333333333333</ele><time>2026-03-28T15:15:44.964Z</time></trkpt><trkpt lat="44.75795440360974" lon="11.875494184576251"><ele>2.0</ele><time>2026-03-28T15:15:45.964Z</time></trkpt><trkpt lat="44.758158290367746" lon="11.875551085539692"><ele>2.0</ele><time>2026-03-28T15:15:46.964Z</time></trkpt><trkpt lat="44.75835978137116" lon="11.875607317890696"><ele>2.0</ele><time>2026-03-28T15:15:47.964Z</time></trkpt><trkpt lat="44.758554009558004" lon="11.875657613833848"><ele>2.0</ele><time>2026-03-28T15:15:48.964Z</time></trkpt><trkpt lat="44.75874613441713" lon="11.875698496258337"><ele>2.0</ele><time>2026-03-28T15:15:49.964Z</time></trkpt><trkpt lat="44.758931372033075" lon="11.875732906117664"><ele>2.0</ele><time>2026-03-28T15:15:50.964Z</time></trkpt><trkpt lat="44.75912927571137" lon="11.875753500104347"><ele>2.0</ele><time>2026-03-28T15:15:51.964Z</time></trkpt><trkpt lat="44.759326034088126" lon="11.875767030472074"><ele>1.6666666666666665</ele><time>2026-03-28T15:15:52.964Z</time></trkpt><trkpt lat="44.75953112103268" lon="11.875771841541647"><ele>1.3333333333333333</ele><time>2026-03-28T15:15:53.964Z</time></trkpt><trkpt lat="44.75972243991788" lon="11.8757555964776"><ele>1.0</ele><time>2026-03-28T15:15:54.963Z</time></trkpt><trkpt lat="44.75992361054307" lon="11.875704825840296"><ele>1.0</ele><time>2026-03-28T15:15:55.963Z</time></trkpt><trkpt lat="44.76011012431269" lon="11.875674334829396"><ele>1.0</ele><time>2026-03-28T15:15:56.963Z</time></trkpt><trkpt lat="44.76028999209248" lon="11.875600073010709"><ele>1.0</ele><time>2026-03-28T15:15:57.963Z</time></trkpt><trkpt lat="44.76045857615304" lon="11.875500589746808"><ele>0.6666666666666666</ele><time>2026-03-28T15:15:58.963Z</time></trkpt><trkpt lat="44.76062701263973" lon="11.875389343762345"><ele>0.3333333333333333</ele><time>2026-03-28T15:15:59.963Z</time></trkpt><trkpt lat="44.76078293316763" lon="11.875264813959916"><ele>0.0</ele><time>2026-03-28T15:16:00.963Z</time></trkpt><trkpt lat="44.76093064098274" lon="11.875126941888267"><ele>0.0</ele><time>2026-03-28T15:16:01.963Z</time></trkpt><trkpt lat="44.761038273021704" lon="11.874946589045777"><ele>0.0</ele><time>2026-03-28T15:16:02.963Z</time></trkpt><trkpt lat="44.76114353026082" lon="11.874719560899731"><ele>0.0</ele><time>2026-03-28T15:16:03.963Z</time></trkpt><trkpt lat="44.76123410814335" lon="11.874468943597076"><ele>0.3333333333333333</ele><time>2026-03-28T15:16:04.963Z</time></trkpt><trkpt lat="44.761333049907904" lon="11.874219835693811"><ele>0.6666666666666666</ele><time>2026-03-28T15:16:05.963Z</time></trkpt><trkpt lat="44.76142997640574" lon="11.873966725933865"><ele>1.0</ele><time>2026-03-28T15:16:06.963Z</time></trkpt><trkpt lat="44.76153528218961" lon="11.873728315656981"><ele>1.0</ele><time>2026-03-28T15:16:07.963Z</time></trkpt><trkpt lat="44.76165435960309" lon="11.873516040084798"><ele>1.0</ele><time>2026-03-28T15:16:08.963Z</time></trkpt><trkpt lat="44.76178091535622" lon="11.873327073430968"><ele>1.0</ele><time>2026-03-28T15:16:09.963Z</time></trkpt><trkpt lat="44.76192174214605" lon="11.873141089331165"><ele>1.3333333333333333</ele><time>2026-03-28T15:16:10.963Z</time></trkpt><trkpt lat="44.76208440609077" lon="11.872992714204795"><ele>1.6666666666666665</ele><time>2026-03-28T15:16:11.963Z</time></trkpt><trkpt lat="44.7622535860398" lon="11.872860765410023"><ele>2.0</ele><time>2026-03-28T15:16:12.963Z</time></trkpt><trkpt lat="44.76242359985319" lon="11.872750130342446"><ele>2.0</ele><time>2026-03-28T15:16:13.963Z</time></trkpt><trkpt lat="44.76259881065762" lon="11.872657636322359"><ele>2.0</ele><time>2026-03-28T15:16:14.963Z</time></trkpt><trkpt lat="44.76277648660383" lon="11.872580524390905"><ele>2.0</ele><time>2026-03-28T15:16:15.963Z</time></trkpt><trkpt lat="44.76295317514241" lon="11.872504978879064"><ele>1.3333333333333333</ele><time>2026-03-28T15:16:16.963Z</time></trkpt><trkpt lat="44.76312898408409" lon="11.872428607349654"><ele>0.6666666666666666</ele><time>2026-03-28T15:16:17.963Z</time></trkpt><trkpt lat="44.76329973842863" lon="11.872331892252738"><ele>0.0</ele><time>2026-03-28T15:16:18.963Z</time></trkpt><trkpt lat="44.76346101886056" lon="11.872206139018418"><ele>0.0</ele><time>2026-03-28T15:16:19.963Z</time></trkpt><trkpt lat="44.763609808949795" lon="11.872061510147898"><ele>0.0</ele><time>2026-03-28T15:16:20.963Z</time></trkpt><trkpt lat="44.763752009738255" lon="11.87190036107233"><ele>0.0</ele><time>2026-03-28T15:16:21.963Z</time></trkpt><trkpt lat="44.763875794796185" lon="11.871724134641852"><ele>0.25</ele><time>2026-03-28T15:16:22.963Z</time></trkpt><trkpt lat="44.763989098285066" lon="11.871573096103052"><ele>0.5</ele><time>2026-03-28T15:16:23.963Z</time></trkpt><trkpt lat="44.76409832064484" lon="11.871427801596955"><ele>0.75</ele><time>2026-03-28T15:16:24.963Z</time></trkpt><trkpt lat="44.764204745844154" lon="11.871308951254209"><ele>1.0</ele><time>2026-03-28T15:16:25.963Z</time></trkpt><trkpt lat="44.764310640024306" lon="11.871200308615338"><ele>1.0</ele><time>2026-03-28T15:16:26.963Z</time></trkpt><trkpt lat="44.76441878468402" lon="11.871088131424285"><ele>1.0</ele><time>2026-03-28T15:16:27.963Z</time></trkpt><trkpt lat="44.76453234696466" lon="11.870995940825726"><ele>1.0</ele><time>2026-03-28T15:16:28.963Z</time></trkpt><trkpt lat="44.76463189900831" lon="11.870924356747665"><ele>1.0</ele><time>2026-03-28T15:16:29.963Z</time></trkpt><trkpt lat="44.76472853443861" lon="11.87087049999624"><ele>1.4</ele><time>2026-03-28T15:16:30.963Z</time></trkpt><trkpt lat="44.76483069928289" lon="11.870813475991666"><ele>1.8</ele><time>2026-03-28T15:16:31.963Z</time></trkpt><trkpt lat="44.76493223800824" lon="11.87076421195603"><ele>2.1999999999999997</ele><time>2026-03-28T15:16:32.963Z</time></trkpt><trkpt lat="44.76502186955323" lon="11.870725797286516"><ele>2.6</ele><time>2026-03-28T15:16:33.963Z</time></trkpt><trkpt lat="44.76509899605596" lon="11.870690412795978"><ele>3.0</ele><time>2026-03-28T15:16:34.963Z</time></trkpt><trkpt lat="44.76517347285012" lon="11.870671795346356"><ele>2.8</ele><time>2026-03-28T15:16:35.963Z</time></trkpt><trkpt lat="44.76524869551187" lon="11.870649749769834"><ele>2.5999999999999996</ele><time>2026-03-28T15:16:36.963Z</time></trkpt><trkpt lat="44.765315318405385" lon="11.870606178539557"><ele>2.4000000000000004</ele><time>2026-03-28T15:16:37.963Z</time></trkpt><trkpt lat="44.7653852820985" lon="11.87053672752719"><ele>2.2</ele><time>2026-03-28T15:16:38.963Z</time></trkpt><trkpt lat="44.76537996408332" lon="11.870365800058371"><ele>2.0</ele><time>2026-03-28T15:16:39.963Z</time></trkpt><trkpt lat="44.76542236442357" lon="11.870197102917052"><ele>2.333333333333333</ele><time>2026-03-28T15:16:40.963Z</time></trkpt><trkpt lat="44.76549339701592" lon="11.87000755081558"><ele>2.6666666666666665</ele><time>2026-03-28T15:16:41.963Z</time></trkpt><trkpt lat="44.76552393647885" lon="11.869781759306168"><ele>3.0</ele><time>2026-03-28T15:16:42.963Z</time></trkpt><trkpt lat="44.76556340970105" lon="11.869540262894505"><ele>3.0</ele><time>2026-03-28T15:16:43.963Z</time></trkpt><trkpt lat="44.7655999504435" lon="11.869271807503836"><ele>3.0</ele><time>2026-03-28T15:16:44.963Z</time></trkpt><trkpt lat="44.76562899403864" lon="11.86897435392746"><ele>3.0</ele><time>2026-03-28T15:16:45.963Z</time></trkpt><trkpt lat="44.7656623106612" lon="11.868663049481656"><ele>2.3333333333333335</ele><time>2026-03-28T15:16:46.962Z</time></trkpt><trkpt lat="44.765701478381615" lon="11.868359060729508"><ele>1.6666666666666665</ele><time>2026-03-28T15:16:47.962Z</time></trkpt><trkpt lat="44.76573848525469" lon="11.868045395516646"><ele>1.0</ele><time>2026-03-28T15:16:48.962Z</time></trkpt><trkpt lat="44.76577769108141" lon="11.86771143797545"><ele>0.5</ele><time>2026-03-28T15:16:49.962Z</time></trkpt><trkpt lat="44.7658220743218" lon="11.86738326933924"><ele>0.0</ele><time>2026-03-28T15:16:50.962Z</time></trkpt><trkpt lat="44.76590882474147" lon="11.867056113129255"><ele>1.0</ele><time>2026-03-28T15:16:51.962Z</time></trkpt><trkpt lat="44.76595992256163" lon="11.866701475328831"><ele>2.0</ele><time>2026-03-28T15:16:52.962Z</time></trkpt><trkpt lat="44.76601069055121" lon="11.866341712621669"><ele>1.0</ele><time>2026-03-28T15:16:53.962Z</time></trkpt><trkpt lat="44.76606561965634" lon="11.865972440986958"><ele>0.0</ele><time>2026-03-28T15:16:54.962Z</time></trkpt><trkpt lat="44.76612138271755" lon="11.86559756311709"><ele>0.0</ele><time>2026-03-28T15:16:55.962Z</time></trkpt><trkpt lat="44.76617617059352" lon="11.865228417980113"><ele>0.0</ele><time>2026-03-28T15:16:56.962Z</time></trkpt><trkpt lat="44.766230018348814" lon="11.864860462507815"><ele>0.0</ele><time>2026-03-28T15:16:57.962Z</time></trkpt><trkpt lat="44.766284376803114" lon="11.864489017212483"><ele>0.0</ele><time>2026-03-28T15:16:58.962Z</time></trkpt><trkpt lat="44.766337780282086" lon="11.864124097630679"><ele>0.0</ele><time>2026-03-28T15:16:59.962Z</time></trkpt><trkpt lat="44.76639174453186" lon="11.863755342966638"><ele>0.0</ele><time>2026-03-28T15:17:00.962Z</time></trkpt><trkpt lat="44.76644318644041" lon="11.86339901364941"><ele>0.0</ele><time>2026-03-28T15:17:01.962Z</time></trkpt><trkpt lat="44.76649110049965" lon="11.863067216812253"><ele>0.0</ele><time>2026-03-28T15:17:02.962Z</time></trkpt><trkpt lat="44.76653669444619" lon="11.862752250920934"><ele>0.0</ele><time>2026-03-28T15:17:03.962Z</time></trkpt><trkpt lat="44.766578565561936" lon="11.862463003054382"><ele>0.0</ele><time>2026-03-28T15:17:04.962Z</time></trkpt><trkpt lat="44.76661885911796" lon="11.86218465090654"><ele>0.0</ele><time>2026-03-28T15:17:05.962Z</time></trkpt><trkpt lat="44.766631606316636" lon="11.861884892894807"><ele>0.0</ele><time>2026-03-28T15:17:06.962Z</time></trkpt><trkpt lat="44.76666630635186" lon="11.861602995816302"><ele>0.0</ele><time>2026-03-28T15:17:07.962Z</time></trkpt><trkpt lat="44.76669184463732" lon="11.861313662746563"><ele>0.0</ele><time>2026-03-28T15:17:08.962Z</time></trkpt><trkpt lat="44.766707703295786" lon="11.861025088338433"><ele>0.6666666666666666</ele><time>2026-03-28T15:17:09.962Z</time></trkpt><trkpt lat="44.76673718063973" lon="11.86073946685857"><ele>1.3333333333333333</ele><time>2026-03-28T15:17:10.962Z</time></trkpt><trkpt lat="44.76673874758776" lon="11.860452139987803"><ele>2.0</ele><time>2026-03-28T15:17:11.962Z</time></trkpt><trkpt lat="44.76673891389001" lon="11.860178739944985"><ele>3.0</ele><time>2026-03-28T15:17:12.962Z</time></trkpt><trkpt lat="44.76673939804237" lon="11.859919667602773"><ele>4.0</ele><time>2026-03-28T15:17:13.962Z</time></trkpt><trkpt lat="44.76674043807036" lon="11.859670718989364"><ele>5.0</ele><time>2026-03-28T15:17:14.962Z</time></trkpt><trkpt lat="44.76674202347915" lon="11.859439080243657"><ele>4.333333333333334</ele><time>2026-03-28T15:17:15.962Z</time></trkpt><trkpt lat="44.76674469750688" lon="11.859214696084345"><ele>3.666666666666667</ele><time>2026-03-28T15:17:16.962Z</time></trkpt><trkpt lat="44.766750294499005" lon="11.858982489552227"><ele>3.0</ele><time>2026-03-28T15:17:17.962Z</time></trkpt><trkpt lat="44.76676122860935" lon="11.85874583117299"><ele>3.0</ele><time>2026-03-28T15:17:18.962Z</time></trkpt><trkpt lat="44.76678629691535" lon="11.858535582331932"><ele>3.0</ele><time>2026-03-28T15:17:19.962Z</time></trkpt><trkpt lat="44.76683707346095" lon="11.858356964980485"><ele>3.0</ele><time>2026-03-28T15:17:20.962Z</time></trkpt><trkpt lat="44.76690780185506" lon="11.858176863731828"><ele>3.0</ele><time>2026-03-28T15:17:21.962Z</time></trkpt><trkpt lat="44.76694445564805" lon="11.857926885885787"><ele>3.0</ele><time>2026-03-28T15:17:22.962Z</time></trkpt><trkpt lat="44.76708082005447" lon="11.857742342084936"><ele>3.0</ele><time>2026-03-28T15:17:23.962Z</time></trkpt><trkpt lat="44.76723574657717" lon="11.857569843208958"><ele>3.0</ele><time>2026-03-28T15:17:24.962Z</time></trkpt><trkpt lat="44.76740366141092" lon="11.85740177498609"><ele>3.0</ele><time>2026-03-28T15:17:25.962Z</time></trkpt><trkpt lat="44.76763528903758" lon="11.857323702540421"><ele>3.0</ele><time>2026-03-28T15:17:26.962Z</time></trkpt><trkpt lat="44.76782766900821" lon="11.857139050495501"><ele>1.5</ele><time>2026-03-28T15:17:27.962Z</time></trkpt><trkpt lat="44.76802631543586" lon="11.856948383723669"><ele>0.0</ele><time>2026-03-28T15:17:28.962Z</time></trkpt><trkpt lat="44.76823185213589" lon="11.856759385102375"><ele>-1.0</ele><time>2026-03-28T15:17:29.962Z</time></trkpt><trkpt lat="44.768440328727706" lon="11.856584557487707"><ele>-2.0</ele><time>2026-03-28T15:17:30.963Z</time></trkpt><trkpt lat="44.768660041681535" lon="11.856444466834075"><ele>-2.0</ele><time>2026-03-28T15:17:31.963Z</time></trkpt><trkpt lat="44.76889313470663" lon="11.856316917760408"><ele>-2.0</ele><time>2026-03-28T15:17:32.963Z</time></trkpt><trkpt lat="44.769126571921525" lon="11.856198974742444"><ele>-2.0</ele><time>2026-03-28T15:17:33.963Z</time></trkpt><trkpt lat="44.76936146663038" lon="11.856083086097597"><ele>-2.0</ele><time>2026-03-28T15:17:34.962Z</time></trkpt><trkpt lat="44.76958100142233" lon="11.855974990095673"><ele>-1.3333333333333333</ele><time>2026-03-28T15:17:35.962Z</time></trkpt><trkpt lat="44.76977712053073" lon="11.855872225575123"><ele>-0.6666666666666666</ele><time>2026-03-28T15:17:36.962Z</time></trkpt><trkpt lat="44.7699637498457" lon="11.855730743589563"><ele>0.0</ele><time>2026-03-28T15:17:37.963Z</time></trkpt><trkpt lat="44.77013707169065" lon="11.8555398381927"><ele>0.0</ele><time>2026-03-28T15:17:38.963Z</time></trkpt><trkpt lat="44.77030270486246" lon="11.855334660756899"><ele>0.0</ele><time>2026-03-28T15:17:39.963Z</time></trkpt><trkpt lat="44.77048763105272" lon="11.855165527371225"><ele>0.0</ele><time>2026-03-28T15:17:40.963Z</time></trkpt><trkpt lat="44.77065220175541" lon="11.854984001864016"><ele>0.0</ele><time>2026-03-28T15:17:41.963Z</time></trkpt><trkpt lat="44.77080125315446" lon="11.854814198985277"><ele>0.0</ele><time>2026-03-28T15:17:42.963Z</time></trkpt><trkpt lat="44.770940865739135" lon="11.85465688591579"><ele>0.0</ele><time>2026-03-28T15:17:43.963Z</time></trkpt><trkpt lat="44.771072379647194" lon="11.854502352528467"><ele>0.0</ele><time>2026-03-28T15:17:44.963Z</time></trkpt><trkpt lat="44.771187560410425" lon="11.854357501236557"><ele>0.0</ele><time>2026-03-28T15:17:45.963Z</time></trkpt><trkpt lat="44.771308289716686" lon="11.854214347611705"><ele>0.0</ele><time>2026-03-28T15:17:46.963Z</time></trkpt><trkpt lat="44.77143536881878" lon="11.854062989947765"><ele>0.0</ele><time>2026-03-28T15:17:47.963Z</time></trkpt><trkpt lat="44.771555211117615" lon="11.85390495357681"><ele>0.0</ele><time>2026-03-28T15:17:48.963Z</time></trkpt><trkpt lat="44.77165861824831" lon="11.85374296849053"><ele>0.0</ele><time>2026-03-28T15:17:49.963Z</time></trkpt><trkpt lat="44.771747619208256" lon="11.853565452611685"><ele>0.3333333333333333</ele><time>2026-03-28T15:17:50.963Z</time></trkpt><trkpt lat="44.771826447949444" lon="11.853343364912378"><ele>0.6666666666666666</ele><time>2026-03-28T15:17:51.963Z</time></trkpt><trkpt lat="44.77190295455592" lon="11.853087961181446"><ele>1.0</ele><time>2026-03-28T15:17:52.963Z</time></trkpt><trkpt lat="44.771973485009745" lon="11.852791363659898"><ele>1.0</ele><time>2026-03-28T15:17:53.963Z</time></trkpt><trkpt lat="44.77205101315987" lon="11.852476917815707"><ele>1.0</ele><time>2026-03-28T15:17:54.962Z</time></trkpt><trkpt lat="44.772139740352124" lon="11.852159216821898"><ele>1.0</ele><time>2026-03-28T15:17:55.962Z</time></trkpt><trkpt lat="44.772229346793075" lon="11.85183598960475"><ele>1.0</ele><time>2026-03-28T15:17:56.962Z</time></trkpt><trkpt lat="44.7723180968235" lon="11.851502227502165"><ele>1.0</ele><time>2026-03-28T15:17:57.962Z</time></trkpt><trkpt lat="44.77241568064785" lon="11.851170262610328"><ele>1.0</ele><time>2026-03-28T15:17:58.962Z</time></trkpt><trkpt lat="44.77250706334943" lon="11.85083442991558"><ele>1.0</ele><time>2026-03-28T15:17:59.962Z</time></trkpt><trkpt lat="44.77260069766476" lon="11.850501404133814"><ele>1.0</ele><time>2026-03-28T15:18:00.962Z</time></trkpt><trkpt lat="44.77269689135103" lon="11.850167938762901"><ele>0.0</ele><time>2026-03-28T15:18:01.962Z</time></trkpt><trkpt lat="44.7727899266511" lon="11.849840407540155"><ele>-1.0</ele><time>2026-03-28T15:18:02.962Z</time></trkpt><trkpt lat="44.772880288549494" lon="11.84951013796152"><ele>-0.5</ele><time>2026-03-28T15:18:03.962Z</time></trkpt><trkpt lat="44.77297308715002" lon="11.849179002776383"><ele>0.0</ele><time>2026-03-28T15:18:04.962Z</time></trkpt><trkpt lat="44.773070330718625" lon="11.848861907740709"><ele>0.0</ele><time>2026-03-28T15:18:05.962Z</time></trkpt><trkpt lat="44.77316873536889" lon="11.848547949047068"><ele>0.0</ele><time>2026-03-28T15:18:06.962Z</time></trkpt><trkpt lat="44.77327943851938" lon="11.848240419453738"><ele>-0.5</ele><time>2026-03-28T15:18:07.962Z</time></trkpt><trkpt lat="44.77340123698005" lon="11.84794435594322"><ele>-1.0</ele><time>2026-03-28T15:18:08.962Z</time></trkpt><trkpt lat="44.77352733692737" lon="11.847651061343415"><ele>-0.5</ele><time>2026-03-28T15:18:09.962Z</time></trkpt><trkpt lat="44.7736556893796" lon="11.8473586113854"><ele>0.0</ele><time>2026-03-28T15:18:10.962Z</time></trkpt><trkpt lat="44.77378517069575" lon="11.847065017594192"><ele>1.0</ele><time>2026-03-28T15:18:11.962Z</time></trkpt><trkpt lat="44.773910922608785" lon="11.846772918313512"><ele>2.0</ele><time>2026-03-28T15:18:12.962Z</time></trkpt><trkpt lat="44.774032349849264" lon="11.846488558685971"><ele>2.0</ele><time>2026-03-28T15:18:13.962Z</time></trkpt><trkpt lat="44.77415854384493" lon="11.84622111730268"><ele>2.0</ele><time>2026-03-28T15:18:14.962Z</time></trkpt><trkpt lat="44.77427690539181" lon="11.84596154305832"><ele>2.0</ele><time>2026-03-28T15:18:15.962Z</time></trkpt><trkpt lat="44.77438983529125" lon="11.845688925485762"><ele>1.0</ele><time>2026-03-28T15:18:16.962Z</time></trkpt><trkpt lat="44.774506858224065" lon="11.845414156339173"><ele>0.0</ele><time>2026-03-28T15:18:17.962Z</time></trkpt><trkpt lat="44.77462998909059" lon="11.845149721463567"><ele>0.3333333333333333</ele><time>2026-03-28T15:18:18.962Z</time></trkpt><trkpt lat="44.77476014248602" lon="11.844886644755933"><ele>0.6666666666666666</ele><time>2026-03-28T15:18:19.962Z</time></trkpt><trkpt lat="44.77489914102606" lon="11.844643421022878"><ele>1.0</ele><time>2026-03-28T15:18:20.962Z</time></trkpt><trkpt lat="44.775051100556524" lon="11.844420743289037"><ele>1.0</ele><time>2026-03-28T15:18:21.962Z</time></trkpt><trkpt lat="44.77521257895606" lon="11.844209654406846"><ele>1.0</ele><time>2026-03-28T15:18:22.962Z</time></trkpt><trkpt lat="44.775367458969875" lon="11.844031753299076"><ele>1.0</ele><time>2026-03-28T15:18:23.962Z</time></trkpt><trkpt lat="44.77551029635526" lon="11.843874440062931"><ele>1.0</ele><time>2026-03-28T15:18:24.962Z</time></trkpt><trkpt lat="44.775641070545056" lon="11.843735121171564"><ele>1.0</ele><time>2026-03-28T15:18:25.962Z</time></trkpt><trkpt lat="44.775756662174054" lon="11.84359699768537"><ele>1.0</ele><time>2026-03-28T15:18:26.962Z</time></trkpt><trkpt lat="44.775862232448915" lon="11.843469819331899"><ele>1.0</ele><time>2026-03-28T15:18:27.962Z</time></trkpt><trkpt lat="44.7759662348086" lon="11.84333356275001"><ele>1.0</ele><time>2026-03-28T15:18:28.962Z</time></trkpt><trkpt lat="44.77607837508122" lon="11.843148561453834"><ele>1.0</ele><time>2026-03-28T15:18:29.962Z</time></trkpt><trkpt lat="44.776185393708175" lon="11.84293271779264"><ele>1.0</ele><time>2026-03-28T15:18:30.962Z</time></trkpt><trkpt lat="44.77629018220389" lon="11.842673940733812"><ele>1.0</ele><time>2026-03-28T15:18:31.962Z</time></trkpt><trkpt lat="44.77639572071383" lon="11.842405558559516"><ele>1.0</ele><time>2026-03-28T15:18:32.962Z</time></trkpt><trkpt lat="44.776504987646526" lon="11.842132198236945"><ele>1.0</ele><time>2026-03-28T15:18:33.962Z</time></trkpt><trkpt lat="44.77664175873149" lon="11.841894173697668"><ele>1.0</ele><time>2026-03-28T15:18:34.962Z</time></trkpt><trkpt lat="44.77674474794112" lon="11.841651409490982"><ele>1.0</ele><time>2026-03-28T15:18:35.962Z</time></trkpt><trkpt lat="44.776856676239625" lon="11.841438934652725"><ele>1.0</ele><time>2026-03-28T15:18:36.962Z</time></trkpt><trkpt lat="44.77697969325193" lon="11.841245541740134"><ele>1.0</ele><time>2026-03-28T15:18:37.962Z</time></trkpt><trkpt lat="44.777121550930865" lon="11.841065473910835"><ele>1.0</ele><time>2026-03-28T15:18:38.962Z</time></trkpt><trkpt lat="44.77726886306874" lon="11.840904048967651"><ele>1.3333333333333333</ele><time>2026-03-28T15:18:39.962Z</time></trkpt><trkpt lat="44.7774319133183" lon="11.840749881246813"><ele>1.6666666666666665</ele><time>2026-03-28T15:18:40.962Z</time></trkpt><trkpt lat="44.777621374349074" lon="11.840617229944884"><ele>2.0</ele><time>2026-03-28T15:18:41.962Z</time></trkpt><trkpt lat="44.777833470253626" lon="11.84050212296392"><ele>1.0</ele><time>2026-03-28T15:18:42.962Z</time></trkpt><trkpt lat="44.77806573136205" lon="11.84039739560207"><ele>0.0</ele><time>2026-03-28T15:18:43.962Z</time></trkpt><trkpt lat="44.77829615238071" lon="11.840295508315073"><ele>0.5</ele><time>2026-03-28T15:18:44.962Z</time></trkpt><trkpt lat="44.77852192685877" lon="11.840199439962102"><ele>1.0</ele><time>2026-03-28T15:18:45.962Z</time></trkpt><trkpt lat="44.77873224439268" lon="11.840107268764951"><ele>2.0</ele><time>2026-03-28T15:18:46.961Z</time></trkpt><trkpt lat="44.778920430380175" lon="11.840015195248892"><ele>3.0</ele><time>2026-03-28T15:18:47.961Z</time></trkpt><trkpt lat="44.779091188754805" lon="11.839915029252456"><ele>4.0</ele><time>2026-03-28T15:18:48.961Z</time></trkpt><trkpt lat="44.77924205848434" lon="11.839793244875677"><ele>3.0</ele><time>2026-03-28T15:18:49.961Z</time></trkpt><trkpt lat="44.77939550947162" lon="11.839645356834449"><ele>2.0</ele><time>2026-03-28T15:18:50.961Z</time></trkpt><trkpt lat="44.779542179394646" lon="11.83946551863392"><ele>1.0</ele><time>2026-03-28T15:18:51.961Z</time></trkpt><trkpt lat="44.77966415377716" lon="11.839237021024825"><ele>1.0</ele><time>2026-03-28T15:18:52.961Z</time></trkpt><trkpt lat="44.77976943434832" lon="11.838988138964991"><ele>1.0</ele><time>2026-03-28T15:18:53.961Z</time></trkpt><trkpt lat="44.77988514977459" lon="11.83874376743074"><ele>1.0</ele><time>2026-03-28T15:18:54.961Z</time></trkpt><trkpt lat="44.77999634877446" lon="11.838502992886703"><ele>1.0</ele><time>2026-03-28T15:18:55.961Z</time></trkpt><trkpt lat="44.78010479492743" lon="11.838266697390646"><ele>1.0</ele><time>2026-03-28T15:18:56.961Z</time></trkpt><trkpt lat="44.78020637651389" lon="11.838034737533905"><ele>1.0</ele><time>2026-03-28T15:18:57.961Z</time></trkpt><trkpt lat="44.78030190411392" lon="11.83781413210311"><ele>1.0</ele><time>2026-03-28T15:18:58.961Z</time></trkpt><trkpt lat="44.78038958493332" lon="11.83757937218732"><ele>1.0</ele><time>2026-03-28T15:18:59.961Z</time></trkpt><trkpt lat="44.780468901225106" lon="11.837329322791394"><ele>1.0</ele><time>2026-03-28T15:19:00.961Z</time></trkpt><trkpt lat="44.780543682463104" lon="11.837073392244726"><ele>1.0</ele><time>2026-03-28T15:19:01.961Z</time></trkpt><trkpt lat="44.780609224180665" lon="11.836824211384942"><ele>1.0</ele><time>2026-03-28T15:19:02.961Z</time></trkpt><trkpt lat="44.78066244423839" lon="11.83655475913101"><ele>1.0</ele><time>2026-03-28T15:19:03.961Z</time></trkpt><trkpt lat="44.780708102768536" lon="11.83626175617913"><ele>1.3333333333333333</ele><time>2026-03-28T15:19:04.961Z</time></trkpt><trkpt lat="44.78073749696986" lon="11.835947486678288"><ele>1.6666666666666665</ele><time>2026-03-28T15:19:05.961Z</time></trkpt><trkpt lat="44.780767418064904" lon="11.835635043083068"><ele>2.0</ele><time>2026-03-28T15:19:06.961Z</time></trkpt><trkpt lat="44.78078002976428" lon="11.835317155964562"><ele>2.0</ele><time>2026-03-28T15:19:07.961Z</time></trkpt><trkpt lat="44.78079653768757" lon="11.835009957100374"><ele>2.0</ele><time>2026-03-28T15:19:08.961Z</time></trkpt><trkpt lat="44.78080979997719" lon="11.834714562088736"><ele>2.0</ele><time>2026-03-28T15:19:09.961Z</time></trkpt><trkpt lat="44.780832035179714" lon="11.834417485944124"><ele>2.6666666666666665</ele><time>2026-03-28T15:19:10.961Z</time></trkpt><trkpt lat="44.78085883970657" lon="11.834114930679645"><ele>3.333333333333333</ele><time>2026-03-28T15:19:11.961Z</time></trkpt><trkpt lat="44.78092161744576" lon="11.833816470333439"><ele>4.0</ele><time>2026-03-28T15:19:12.961Z</time></trkpt><trkpt lat="44.78099401689606" lon="11.833526482485118"><ele>2.0</ele><time>2026-03-28T15:19:13.961Z</time></trkpt><trkpt lat="44.781068452818886" lon="11.833236102943289"><ele>0.0</ele><time>2026-03-28T15:19:14.961Z</time></trkpt><trkpt lat="44.78114258428231" lon="11.83294636587218"><ele>-2.0</ele><time>2026-03-28T15:19:15.961Z</time></trkpt><trkpt lat="44.78121802438594" lon="11.83266170567168"><ele>-1.6666666666666665</ele><time>2026-03-28T15:19:16.961Z</time></trkpt><trkpt lat="44.781292633935855" lon="11.832391748644087"><ele>-1.3333333333333333</ele><time>2026-03-28T15:19:17.961Z</time></trkpt><trkpt lat="44.781376535521304" lon="11.832126104252916"><ele>-1.0</ele><time>2026-03-28T15:19:18.961Z</time></trkpt><trkpt lat="44.78147357023422" lon="11.831872892509065"><ele>-1.0</ele><time>2026-03-28T15:19:19.961Z</time></trkpt><trkpt lat="44.78158474501419" lon="11.83162608074195"><ele>-1.0</ele><time>2026-03-28T15:19:20.961Z</time></trkpt><trkpt lat="44.781711554841195" lon="11.831394407011489"><ele>-1.0</ele><time>2026-03-28T15:19:21.961Z</time></trkpt><trkpt lat="44.781854389968544" lon="11.831171987468693"><ele>-0.6666666666666666</ele><time>2026-03-28T15:19:22.961Z</time></trkpt><trkpt lat="44.78201092968383" lon="11.830959564036657"><ele>-0.3333333333333333</ele><time>2026-03-28T15:19:23.961Z</time></trkpt><trkpt lat="44.78218097428943" lon="11.830769340274758"><ele>0.0</ele><time>2026-03-28T15:19:24.961Z</time></trkpt><trkpt lat="44.78236292018618" lon="11.83059469292242"><ele>0.0</ele><time>2026-03-28T15:19:25.961Z</time></trkpt><trkpt lat="44.78254055142682" lon="11.83044498521769"><ele>0.0</ele><time>2026-03-28T15:19:26.961Z</time></trkpt><trkpt lat="44.78270106923974" lon="11.83030958619723"><ele>0.0</ele><time>2026-03-28T15:19:27.961Z</time></trkpt><trkpt lat="44.78284465253762" lon="11.830165796838381"><ele>0.0</ele><time>2026-03-28T15:19:28.961Z</time></trkpt><trkpt lat="44.782997809143986" lon="11.82998677724923"><ele>0.0</ele><time>2026-03-28T15:19:29.961Z</time></trkpt><trkpt lat="44.78314840199773" lon="11.829772942264844"><ele>0.0</ele><time>2026-03-28T15:19:30.961Z</time></trkpt><trkpt lat="44.78327540220984" lon="11.82954054651132"><ele>0.0</ele><time>2026-03-28T15:19:31.961Z</time></trkpt><trkpt lat="44.78343241262168" lon="11.829318845638111"><ele>0.0</ele><time>2026-03-28T15:19:32.961Z</time></trkpt><trkpt lat="44.78357769539874" lon="11.829081595179787"><ele>0.0</ele><time>2026-03-28T15:19:33.961Z</time></trkpt><trkpt lat="44.78372576079976" lon="11.82883635166603"><ele>0.0</ele><time>2026-03-28T15:19:34.961Z</time></trkpt><trkpt lat="44.78387497369172" lon="11.828587769954442"><ele>0.0</ele><time>2026-03-28T15:19:35.961Z</time></trkpt><trkpt lat="44.78402319296061" lon="11.828334683388869"><ele>0.5</ele><time>2026-03-28T15:19:36.962Z</time></trkpt><trkpt lat="44.784165214716495" lon="11.828078449885842"><ele>1.0</ele><time>2026-03-28T15:19:37.962Z</time></trkpt><trkpt lat="44.78430363519045" lon="11.827823922234462"><ele>0.5</ele><time>2026-03-28T15:19:38.962Z</time></trkpt><trkpt lat="44.784443244804386" lon="11.82756101472254"><ele>0.0</ele><time>2026-03-28T15:19:39.962Z</time></trkpt><trkpt lat="44.78458786809379" lon="11.827303915654877"><ele>0.0</ele><time>2026-03-28T15:19:40.962Z</time></trkpt><trkpt lat="44.7847399423486" lon="11.827046402015428"><ele>0.0</ele><time>2026-03-28T15:19:41.962Z</time></trkpt><trkpt lat="44.78489154548489" lon="11.826785855941678"><ele>0.0</ele><time>2026-03-28T15:19:42.961Z</time></trkpt><trkpt lat="44.78503339902253" lon="11.826544309178573"><ele>0.0</ele><time>2026-03-28T15:19:43.962Z</time></trkpt><trkpt lat="44.78515567588368" lon="11.826300908521842"><ele>0.0</ele><time>2026-03-28T15:19:44.962Z</time></trkpt><trkpt lat="44.78527160880692" lon="11.826038703119758"><ele>0.0</ele><time>2026-03-28T15:19:45.962Z</time></trkpt><trkpt lat="44.78540815400695" lon="11.825772214303237"><ele>0.0</ele><time>2026-03-28T15:19:46.962Z</time></trkpt><trkpt lat="44.78556931840249" lon="11.825510838273823"><ele>0.0</ele><time>2026-03-28T15:19:47.962Z</time></trkpt><trkpt lat="44.7857331649828" lon="11.825240046149625"><ele>0.0</ele><time>2026-03-28T15:19:48.962Z</time></trkpt><trkpt lat="44.78589113556841" lon="11.824962889852417"><ele>-1.0</ele><time>2026-03-28T15:19:49.961Z</time></trkpt><trkpt lat="44.78605194444161" lon="11.824682495491182"><ele>-2.0</ele><time>2026-03-28T15:19:50.961Z</time></trkpt><trkpt lat="44.78621338822859" lon="11.82440040143583"><ele>-1.5</ele><time>2026-03-28T15:19:51.961Z</time></trkpt><trkpt lat="44.78637187391075" lon="11.82411042208053"><ele>-1.0</ele><time>2026-03-28T15:19:52.961Z</time></trkpt><trkpt lat="44.78652971527736" lon="11.82383226215544"><ele>-1.0</ele><time>2026-03-28T15:19:53.961Z</time></trkpt><trkpt lat="44.786687410133" lon="11.823564092908226"><ele>-1.0</ele><time>2026-03-28T15:19:54.961Z</time></trkpt><trkpt lat="44.78683307879612" lon="11.823306199983833"><ele>-0.3333333333333333</ele><time>2026-03-28T15:19:55.961Z</time></trkpt><trkpt lat="44.78697498239007" lon="11.823060625239435"><ele>0.3333333333333333</ele><time>2026-03-28T15:19:56.961Z</time></trkpt><trkpt lat="44.787121452356416" lon="11.822822584295729"><ele>1.0</ele><time>2026-03-28T15:19:57.961Z</time></trkpt><trkpt lat="44.78728336252542" lon="11.82259205819806"><ele>1.0</ele><time>2026-03-28T15:19:58.961Z</time></trkpt><trkpt lat="44.78744866796991" lon="11.82234863485154"><ele>1.0</ele><time>2026-03-28T15:19:59.961Z</time></trkpt><trkpt lat="44.787629150663555" lon="11.822113486828332"><ele>0.0</ele><time>2026-03-28T15:20:00.961Z</time></trkpt><trkpt lat="44.787817510448136" lon="11.821870887150688"><ele>-1.0</ele><time>2026-03-28T15:20:01.961Z</time></trkpt><trkpt lat="44.78801303374477" lon="11.821631070049069"><ele>-1.0</ele><time>2026-03-28T15:20:02.961Z</time></trkpt><trkpt lat="44.788210035094615" lon="11.8213911681395"><ele>-1.0</ele><time>2026-03-28T15:20:03.961Z</time></trkpt><trkpt lat="44.78840288889205" lon="11.821139341680558"><ele>-0.5</ele><time>2026-03-28T15:20:04.961Z</time></trkpt><trkpt lat="44.788597814012334" lon="11.820890634145064"><ele>0.0</ele><time>2026-03-28T15:20:05.961Z</time></trkpt><trkpt lat="44.788795921453065" lon="11.820650686858139"><ele>0.0</ele><time>2026-03-28T15:20:06.961Z</time></trkpt><trkpt lat="44.78898565891505" lon="11.820404308598736"><ele>0.0</ele><time>2026-03-28T15:20:07.961Z</time></trkpt><trkpt lat="44.789166895514455" lon="11.820142970487728"><ele>0.0</ele><time>2026-03-28T15:20:08.961Z</time></trkpt><trkpt lat="44.789334482763415" lon="11.819877225918185"><ele>0.0</ele><time>2026-03-28T15:20:09.961Z</time></trkpt><trkpt lat="44.78949571597931" lon="11.819612465307785"><ele>0.0</ele><time>2026-03-28T15:20:10.961Z</time></trkpt><trkpt lat="44.789652742636115" lon="11.819354417153853"><ele>0.0</ele><time>2026-03-28T15:20:11.961Z</time></trkpt><trkpt lat="44.789805476089185" lon="11.819105521760045"><ele>0.3333333333333333</ele><time>2026-03-28T15:20:12.961Z</time></trkpt><trkpt lat="44.78995366249367" lon="11.818869711192223"><ele>0.6666666666666666</ele><time>2026-03-28T15:20:13.961Z</time></trkpt><trkpt lat="44.7900991281228" lon="11.818645456656661"><ele>1.0</ele><time>2026-03-28T15:20:14.961Z</time></trkpt><trkpt lat="44.79024328141738" lon="11.818417778037949"><ele>0.0</ele><time>2026-03-28T15:20:15.961Z</time></trkpt><trkpt lat="44.79041112192649" lon="11.818215257493959"><ele>-1.0</ele><time>2026-03-28T15:20:16.961Z</time></trkpt><trkpt lat="44.79059029182747" lon="11.818004065190685"><ele>-1.0</ele><time>2026-03-28T15:20:17.961Z</time></trkpt><trkpt lat="44.79078588559649" lon="11.817777760849268"><ele>-1.0</ele><time>2026-03-28T15:20:18.961Z</time></trkpt><trkpt lat="44.790993248592706" lon="11.8175513005487"><ele>0.0</ele><time>2026-03-28T15:20:19.961Z</time></trkpt><trkpt lat="44.791204572754495" lon="11.817322886657424"><ele>1.0</ele><time>2026-03-28T15:20:20.961Z</time></trkpt><trkpt lat="44.791412311970774" lon="11.817100653187065"><ele>1.0</ele><time>2026-03-28T15:20:21.961Z</time></trkpt><trkpt lat="44.79161200129776" lon="11.81687667760695"><ele>1.0</ele><time>2026-03-28T15:20:22.961Z</time></trkpt><trkpt lat="44.791798775521926" lon="11.816651924653174"><ele>0.0</ele><time>2026-03-28T15:20:23.961Z</time></trkpt><trkpt lat="44.79198013639041" lon="11.816422820426608"><ele>-1.0</ele><time>2026-03-28T15:20:24.961Z</time></trkpt><trkpt lat="44.79215462697" lon="11.81620319813503"><ele>-1.0</ele><time>2026-03-28T15:20:25.961Z</time></trkpt><trkpt lat="44.79233269564793" lon="11.816014366300983"><ele>-1.0</ele><time>2026-03-28T15:20:26.961Z</time></trkpt><trkpt lat="44.7925158631505" lon="11.815839611172441"><ele>-1.0</ele><time>2026-03-28T15:20:27.961Z</time></trkpt><trkpt lat="44.79272416572778" lon="11.815694807046834"><ele>-0.5</ele><time>2026-03-28T15:20:28.961Z</time></trkpt><trkpt lat="44.79294786195923" lon="11.815585559016"><ele>0.0</ele><time>2026-03-28T15:20:29.961Z</time></trkpt><trkpt lat="44.79316549017967" lon="11.815490976541536"><ele>0.0</ele><time>2026-03-28T15:20:30.961Z</time></trkpt><trkpt lat="44.79336757432133" lon="11.815385440324324"><ele>0.0</ele><time>2026-03-28T15:20:31.961Z</time></trkpt><trkpt lat="44.79355574898184" lon="11.815262226351402"><ele>0.0</ele><time>2026-03-28T15:20:32.961Z</time></trkpt><trkpt lat="44.793729199853544" lon="11.81510454917122"><ele>-0.5</ele><time>2026-03-28T15:20:33.961Z</time></trkpt><trkpt lat="44.793895854190126" lon="11.814904321087818"><ele>-1.0</ele><time>2026-03-28T15:20:34.961Z</time></trkpt><trkpt lat="44.79406001395854" lon="11.81466839111584"><ele>-1.0</ele><time>2026-03-28T15:20:35.961Z</time></trkpt><trkpt lat="44.79421062300989" lon="11.814422888519497"><ele>-1.0</ele><time>2026-03-28T15:20:36.961Z</time></trkpt><trkpt lat="44.79434847754833" lon="11.81416047654301"><ele>-1.0</ele><time>2026-03-28T15:20:37.961Z</time></trkpt><trkpt lat="44.79447090282158" lon="11.813873557604788"><ele>-1.0</ele><time>2026-03-28T15:20:38.96Z</time></trkpt><trkpt lat="44.7945928325032" lon="11.813581293441638"><ele>-0.6666666666666666</ele><time>2026-03-28T15:20:39.96Z</time></trkpt><trkpt lat="44.79469889898651" lon="11.813312670821597"><ele>-0.3333333333333333</ele><time>2026-03-28T15:20:40.96Z</time></trkpt><trkpt lat="44.794787576705815" lon="11.813065626388024"><ele>0.0</ele><time>2026-03-28T15:20:41.96Z</time></trkpt><trkpt lat="44.794860489673965" lon="11.812811913941717"><ele>0.0</ele><time>2026-03-28T15:20:42.96Z</time></trkpt><trkpt lat="44.79490781789271" lon="11.812534198859202"><ele>0.0</ele><time>2026-03-28T15:20:43.96Z</time></trkpt><trkpt lat="44.79492955549053" lon="11.812244958322486"><ele>0.0</ele><time>2026-03-28T15:20:44.96Z</time></trkpt><trkpt lat="44.79497367815289" lon="11.81195933630443"><ele>0.6666666666666666</ele><time>2026-03-28T15:20:45.96Z</time></trkpt><trkpt lat="44.7950000840237" lon="11.811675320983872"><ele>1.3333333333333333</ele><time>2026-03-28T15:20:46.96Z</time></trkpt><trkpt lat="44.795007647496526" lon="11.81141002245703"><ele>2.0</ele><time>2026-03-28T15:20:47.96Z</time></trkpt><trkpt lat="44.79498817381895" lon="11.811168993140576"><ele>2.0</ele><time>2026-03-28T15:20:48.96Z</time></trkpt><trkpt lat="44.79497955242217" lon="11.810954782404012"><ele>2.0</ele><time>2026-03-28T15:20:49.96Z</time></trkpt><trkpt lat="44.794966514148776" lon="11.810730614109456"><ele>2.0</ele><time>2026-03-28T15:20:50.96Z</time></trkpt><trkpt lat="44.79496620973058" lon="11.810530110659116"><ele>2.0</ele><time>2026-03-28T15:20:51.96Z</time></trkpt><trkpt lat="44.79496051821367" lon="11.810329937655444"><ele>2.0</ele><time>2026-03-28T15:20:52.96Z</time></trkpt><trkpt lat="44.794951926539085" lon="11.810133371312885"><ele>2.0</ele><time>2026-03-28T15:20:53.96Z</time></trkpt><trkpt lat="44.79493625083316" lon="11.809936768726477"><ele>2.0</ele><time>2026-03-28T15:20:54.96Z</time></trkpt><trkpt lat="44.79492665815602" lon="11.809748822313468"><ele>2.0</ele><time>2026-03-28T15:20:55.96Z</time></trkpt><trkpt lat="44.79491755602328" lon="11.809539791517306"><ele>2.0</ele><time>2026-03-28T15:20:56.96Z</time></trkpt><trkpt lat="44.79490667546136" lon="11.809334067914731"><ele>2.0</ele><time>2026-03-28T15:20:57.96Z</time></trkpt><trkpt lat="44.79488896751501" lon="11.809118621107416"><ele>2.0</ele><time>2026-03-28T15:20:58.96Z</time></trkpt><trkpt lat="44.79487569763357" lon="11.808908784416499"><ele>2.25</ele><time>2026-03-28T15:20:59.96Z</time></trkpt><trkpt lat="44.794865087520776" lon="11.808699910762153"><ele>2.5</ele><time>2026-03-28T15:21:00.96Z</time></trkpt><trkpt lat="44.794853414304804" lon="11.808492829311643"><ele>2.75</ele><time>2026-03-28T15:21:01.96Z</time></trkpt><trkpt lat="44.79484012687301" lon="11.808284904470371"><ele>3.0</ele><time>2026-03-28T15:21:02.96Z</time></trkpt><trkpt lat="44.794823134068366" lon="11.808075489315941"><ele>3.0</ele><time>2026-03-28T15:21:03.96Z</time></trkpt><trkpt lat="44.79481037469349" lon="11.807864204979317"><ele>3.0</ele><time>2026-03-28T15:21:04.96Z</time></trkpt><trkpt lat="44.79479944558315" lon="11.807660254693419"><ele>3.0</ele><time>2026-03-28T15:21:05.96Z</time></trkpt><trkpt lat="44.79479924828863" lon="11.807457140069095"><ele>3.0</ele><time>2026-03-28T15:21:06.96Z</time></trkpt><trkpt lat="44.79479569689158" lon="11.807253033166521"><ele>3.0</ele><time>2026-03-28T15:21:07.96Z</time></trkpt><trkpt lat="44.7947894129414" lon="11.807047816967803"><ele>3.0</ele><time>2026-03-28T15:21:08.96Z</time></trkpt><trkpt lat="44.79478190568567" lon="11.806842886143679"><ele>3.0</ele><time>2026-03-28T15:21:09.96Z</time></trkpt><trkpt lat="44.79476612470034" lon="11.80663008876958"><ele>3.0</ele><time>2026-03-28T15:21:10.96Z</time></trkpt><trkpt lat="44.794751912556805" lon="11.806426688595698"><ele>3.0</ele><time>2026-03-28T15:21:11.96Z</time></trkpt><trkpt lat="44.7947382762395" lon="11.806212681909583"><ele>3.0</ele><time>2026-03-28T15:21:12.96Z</time></trkpt><trkpt lat="44.79472526184518" lon="11.80601444236014"><ele>3.0</ele><time>2026-03-28T15:21:13.96Z</time></trkpt><trkpt lat="44.79471228350129" lon="11.80581318851892"><ele>3.0</ele><time>2026-03-28T15:21:14.96Z</time></trkpt><trkpt lat="44.794699036851874" lon="11.805613979459672"><ele>2.5</ele><time>2026-03-28T15:21:15.96Z</time></trkpt><trkpt lat="44.79468507147339" lon="11.805411108191437"><ele>2.0</ele><time>2026-03-28T15:21:16.96Z</time></trkpt><trkpt lat="44.794671971752095" lon="11.805206800900244"><ele>1.5</ele><time>2026-03-28T15:21:17.96Z</time></trkpt><trkpt lat="44.79465938338263" lon="11.804999657928018"><ele>1.0</ele><time>2026-03-28T15:21:18.96Z</time></trkpt><trkpt lat="44.794636630421024" lon="11.804789353118316"><ele>1.0</ele><time>2026-03-28T15:21:19.96Z</time></trkpt><trkpt lat="44.79462294614609" lon="11.804584846843865"><ele>1.0</ele><time>2026-03-28T15:21:20.96Z</time></trkpt><trkpt lat="44.79460767879266" lon="11.804378255416212"><ele>1.0</ele><time>2026-03-28T15:21:21.96Z</time></trkpt><trkpt lat="44.7945956918849" lon="11.804174135029953"><ele>1.0</ele><time>2026-03-28T15:21:22.96Z</time></trkpt><trkpt lat="44.79458365627994" lon="11.80397376433534"><ele>1.0</ele><time>2026-03-28T15:21:23.96Z</time></trkpt><trkpt lat="44.79456951808622" lon="11.803768427565009"><ele>1.0</ele><time>2026-03-28T15:21:24.96Z</time></trkpt><trkpt lat="44.794557166823914" lon="11.803570805684227"><ele>1.0</ele><time>2026-03-28T15:21:25.96Z</time></trkpt><trkpt lat="44.794546093668345" lon="11.803377158083213"><ele>1.0</ele><time>2026-03-28T15:21:26.96Z</time></trkpt><trkpt lat="44.7945373755997" lon="11.8032013741224"><ele>1.0</ele><time>2026-03-28T15:21:27.96Z</time></trkpt><trkpt lat="44.79452395120575" lon="11.80301881399703"><ele>1.0</ele><time>2026-03-28T15:21:28.96Z</time></trkpt><trkpt lat="44.794508468899316" lon="11.802841440549969"><ele>1.0</ele><time>2026-03-28T15:21:29.96Z</time></trkpt><trkpt lat="44.794526267972635" lon="11.802656842129863"><ele>1.0</ele><time>2026-03-28T15:21:30.959Z</time></trkpt><trkpt lat="44.79451308030526" lon="11.802468192934796"><ele>0.75</ele><time>2026-03-28T15:21:31.959Z</time></trkpt><trkpt lat="44.79449832489848" lon="11.802278745538203"><ele>0.5</ele><time>2026-03-28T15:21:32.959Z</time></trkpt><trkpt lat="44.79448290257183" lon="11.80208383439501"><ele>0.25</ele><time>2026-03-28T15:21:33.959Z</time></trkpt><trkpt lat="44.79447031443186" lon="11.801882926852043"><ele>0.0</ele><time>2026-03-28T15:21:34.959Z</time></trkpt><trkpt lat="44.79445538246517" lon="11.801672593429911"><ele>0.75</ele><time>2026-03-28T15:21:35.959Z</time></trkpt><trkpt lat="44.794441476046444" lon="11.80147797329201"><ele>1.5</ele><time>2026-03-28T15:21:36.959Z</time></trkpt><trkpt lat="44.79442553680673" lon="11.801271851431224"><ele>2.25</ele><time>2026-03-28T15:21:37.959Z</time></trkpt><trkpt lat="44.79440906773321" lon="11.80107247291322"><ele>3.0</ele><time>2026-03-28T15:21:38.959Z</time></trkpt><trkpt lat="44.794397809502236" lon="11.800872952337146"><ele>3.25</ele><time>2026-03-28T15:21:39.959Z</time></trkpt><trkpt lat="44.79438762719872" lon="11.800672612945611"><ele>3.5</ele><time>2026-03-28T15:21:40.959Z</time></trkpt><trkpt lat="44.794374349855346" lon="11.800464706983105"><ele>3.75</ele><time>2026-03-28T15:21:41.959Z</time></trkpt><trkpt lat="44.79435800194195" lon="11.800245366747962"><ele>4.0</ele><time>2026-03-28T15:21:42.961Z</time></trkpt><trkpt lat="44.794342650812204" lon="11.800034947687845"><ele>4.0</ele><time>2026-03-28T15:21:43.961Z</time></trkpt><trkpt lat="44.794346198836806" lon="11.799825077582915"><ele>4.0</ele><time>2026-03-28T15:21:44.961Z</time></trkpt><trkpt lat="44.79433426458501" lon="11.799618918759867"><ele>4.0</ele><time>2026-03-28T15:21:45.961Z</time></trkpt><trkpt lat="44.79432436933637" lon="11.79941769050562"><ele>4.0</ele><time>2026-03-28T15:21:46.961Z</time></trkpt><trkpt lat="44.794313506843245" lon="11.799214767094128"><ele>4.0</ele><time>2026-03-28T15:21:47.961Z</time></trkpt><trkpt lat="44.79430206916309" lon="11.79901291755765"><ele>4.0</ele><time>2026-03-28T15:21:48.961Z</time></trkpt><trkpt lat="44.79429050606991" lon="11.798810644256406"><ele>4.0</ele><time>2026-03-28T15:21:49.961Z</time></trkpt><trkpt lat="44.79426294115049" lon="11.798597252473023"><ele>4.0</ele><time>2026-03-28T15:21:50.961Z</time></trkpt><trkpt lat="44.79425760020375" lon="11.798388949544998"><ele>3.75</ele><time>2026-03-28T15:21:51.961Z</time></trkpt><trkpt lat="44.79425038082834" lon="11.798193618753206"><ele>3.5</ele><time>2026-03-28T15:21:52.961Z</time></trkpt><trkpt lat="44.794242342917265" lon="11.798005362265144"><ele>3.25</ele><time>2026-03-28T15:21:53.961Z</time></trkpt><trkpt lat="44.79423415485204" lon="11.797813972910154"><ele>3.0</ele><time>2026-03-28T15:21:54.961Z</time></trkpt><trkpt lat="44.79421909295265" lon="11.797616571403799"><ele>3.0</ele><time>2026-03-28T15:21:55.961Z</time></trkpt><trkpt lat="44.7941981344667" lon="11.79722133462319"><ele>3.0</ele><time>2026-03-28T15:21:57.961Z</time></trkpt><trkpt lat="44.79418813845985" lon="11.797029456888733"><ele>3.0</ele><time>2026-03-28T15:21:58.961Z</time></trkpt><trkpt lat="44.794181191897835" lon="11.796840029449823"><ele>3.25</ele><time>2026-03-28T15:21:59.961Z</time></trkpt><trkpt lat="44.79417862251556" lon="11.796649619521176"><ele>3.5</ele><time>2026-03-28T15:22:00.961Z</time></trkpt><trkpt lat="44.79418233022694" lon="11.796456938880201"><ele>3.75</ele><time>2026-03-28T15:22:01.961Z</time></trkpt><trkpt lat="44.794188930020766" lon="11.796267526922403"><ele>4.0</ele><time>2026-03-28T15:22:02.961Z</time></trkpt><trkpt lat="44.79419365081362" lon="11.796075492270724"><ele>4.0</ele><time>2026-03-28T15:22:03.961Z</time></trkpt><trkpt lat="44.79420258825499" lon="11.795895079945627"><ele>4.0</ele><time>2026-03-28T15:22:04.961Z</time></trkpt><trkpt lat="44.7942129229275" lon="11.795719900887867"><ele>4.0</ele><time>2026-03-28T15:22:05.961Z</time></trkpt><trkpt lat="44.794233663065086" lon="11.795555523210368"><ele>4.0</ele><time>2026-03-28T15:22:06.961Z</time></trkpt><trkpt lat="44.794257827046835" lon="11.795392436538346"><ele>4.0</ele><time>2026-03-28T15:22:07.961Z</time></trkpt><trkpt lat="44.79428980082543" lon="11.795225546583383"><ele>4.0</ele><time>2026-03-28T15:22:08.961Z</time></trkpt><trkpt lat="44.794331035146996" lon="11.795055156600995"><ele>4.0</ele><time>2026-03-28T15:22:09.961Z</time></trkpt><trkpt lat="44.79437431344663" lon="11.794883486081103"><ele>4.0</ele><time>2026-03-28T15:22:10.961Z</time></trkpt><trkpt lat="44.794426822206525" lon="11.794701717669618"><ele>3.5</ele><time>2026-03-28T15:22:11.961Z</time></trkpt><trkpt lat="44.79449055706798" lon="11.794525597668638"><ele>3.0</ele><time>2026-03-28T15:22:12.961Z</time></trkpt><trkpt lat="44.794567691190004" lon="11.794357485173409"><ele>2.5</ele><time>2026-03-28T15:22:13.961Z</time></trkpt><trkpt lat="44.79465072311447" lon="11.794191113931358"><ele>2.0</ele><time>2026-03-28T15:22:14.961Z</time></trkpt><trkpt lat="44.794748007626055" lon="11.794032219980028"><ele>2.0</ele><time>2026-03-28T15:22:15.961Z</time></trkpt><trkpt lat="44.794851516064604" lon="11.793873285231054"><ele>2.0</ele><time>2026-03-28T15:22:16.961Z</time></trkpt><trkpt lat="44.79497115672249" lon="11.793725847934226"><ele>2.0</ele><time>2026-03-28T15:22:17.961Z</time></trkpt><trkpt lat="44.7950998023292" lon="11.793584702445841"><ele>2.0</ele><time>2026-03-28T15:22:18.961Z</time></trkpt><trkpt lat="44.795227571155685" lon="11.793447062088374"><ele>2.0</ele><time>2026-03-28T15:22:19.961Z</time></trkpt><trkpt lat="44.79535207406115" lon="11.793321473563712"><ele>2.0</ele><time>2026-03-28T15:22:20.961Z</time></trkpt><trkpt lat="44.79546995975283" lon="11.793191810689407"><ele>2.0</ele><time>2026-03-28T15:22:21.961Z</time></trkpt><trkpt lat="44.79558389649695" lon="11.793061988848727"><ele>2.0</ele><time>2026-03-28T15:22:22.961Z</time></trkpt><trkpt lat="44.79568897246307" lon="11.792946682491634"><ele>2.0</ele><time>2026-03-28T15:22:23.961Z</time></trkpt><trkpt lat="44.79578920545655" lon="11.79282342493555"><ele>2.0</ele><time>2026-03-28T15:22:24.961Z</time></trkpt><trkpt lat="44.795889120487274" lon="11.792703236332587"><ele>2.0</ele><time>2026-03-28T15:22:25.961Z</time></trkpt><trkpt lat="44.79599049331581" lon="11.792583937433958"><ele>2.0</ele><time>2026-03-28T15:22:26.961Z</time></trkpt><trkpt lat="44.796096343029284" lon="11.79246797446229"><ele>2.0</ele><time>2026-03-28T15:22:27.961Z</time></trkpt><trkpt lat="44.79621221257179" lon="11.792349260136639"><ele>2.0</ele><time>2026-03-28T15:22:28.961Z</time></trkpt><trkpt lat="44.79632819774063" lon="11.792200279869137"><ele>2.0</ele><time>2026-03-28T15:22:29.961Z</time></trkpt><trkpt lat="44.79646507567559" lon="11.792053210210213"><ele>2.0</ele><time>2026-03-28T15:22:30.961Z</time></trkpt><trkpt lat="44.796608762398435" lon="11.791899218629844"><ele>2.0</ele><time>2026-03-28T15:22:31.96Z</time></trkpt><trkpt lat="44.79674474401784" lon="11.791741035636724"><ele>2.0</ele><time>2026-03-28T15:22:32.96Z</time></trkpt><trkpt lat="44.796865954493754" lon="11.79159004010641"><ele>2.0</ele><time>2026-03-28T15:22:33.96Z</time></trkpt><trkpt lat="44.79697760554496" lon="11.791436711782742"><ele>2.0</ele><time>2026-03-28T15:22:34.96Z</time></trkpt><trkpt lat="44.797087812328854" lon="11.791269925505793"><ele>2.0</ele><time>2026-03-28T15:22:35.96Z</time></trkpt><trkpt lat="44.79719149112388" lon="11.791096188333256"><ele>2.0</ele><time>2026-03-28T15:22:36.96Z</time></trkpt><trkpt lat="44.79729486590276" lon="11.790925540530088"><ele>2.0</ele><time>2026-03-28T15:22:37.96Z</time></trkpt><trkpt lat="44.79739927763539" lon="11.790740701444406"><ele>2.0</ele><time>2026-03-28T15:22:38.96Z</time></trkpt><trkpt lat="44.797503883609984" lon="11.790548761150685"><ele>2.0</ele><time>2026-03-28T15:22:39.96Z</time></trkpt><trkpt lat="44.79760243922025" lon="11.790355036440518"><ele>2.0</ele><time>2026-03-28T15:22:40.96Z</time></trkpt><trkpt lat="44.79769544451543" lon="11.790169426565644"><ele>2.0</ele><time>2026-03-28T15:22:41.96Z</time></trkpt><trkpt lat="44.79778392744063" lon="11.789988689067917"><ele>2.0</ele><time>2026-03-28T15:22:42.96Z</time></trkpt><trkpt lat="44.797874454042926" lon="11.789800593344014"><ele>2.0</ele><time>2026-03-28T15:22:43.96Z</time></trkpt><trkpt lat="44.79797043955512" lon="11.789601583418154"><ele>2.0</ele><time>2026-03-28T15:22:44.96Z</time></trkpt><trkpt lat="44.79807606316213" lon="11.789390030635916"><ele>2.0</ele><time>2026-03-28T15:22:45.96Z</time></trkpt><trkpt lat="44.79819206024562" lon="11.789150074834225"><ele>2.0</ele><time>2026-03-28T15:22:46.96Z</time></trkpt><trkpt lat="44.7983135069856" lon="11.788890315373772"><ele>2.0</ele><time>2026-03-28T15:22:47.96Z</time></trkpt><trkpt lat="44.79848441720616" lon="11.788657195854059"><ele>2.0</ele><time>2026-03-28T15:22:48.96Z</time></trkpt><trkpt lat="44.798670998213055" lon="11.788400072136906"><ele>2.0</ele><time>2026-03-28T15:22:49.96Z</time></trkpt><trkpt lat="44.79885949709567" lon="11.78813134937217"><ele>2.0</ele><time>2026-03-28T15:22:50.96Z</time></trkpt><trkpt lat="44.799049011498454" lon="11.78785115611897"><ele>2.0</ele><time>2026-03-28T15:22:51.96Z</time></trkpt><trkpt lat="44.79924097378738" lon="11.787556694392935"><ele>2.0</ele><time>2026-03-28T15:22:52.96Z</time></trkpt><trkpt lat="44.79942262305226" lon="11.787259084819652"><ele>2.0</ele><time>2026-03-28T15:22:53.96Z</time></trkpt><trkpt lat="44.799603330842025" lon="11.786953702028747"><ele>2.0</ele><time>2026-03-28T15:22:54.96Z</time></trkpt><trkpt lat="44.79977818440727" lon="11.786649013412921"><ele>2.5</ele><time>2026-03-28T15:22:55.96Z</time></trkpt><trkpt lat="44.79994521154261" lon="11.786345799600143"><ele>3.0</ele><time>2026-03-28T15:22:56.96Z</time></trkpt><trkpt lat="44.80009539579979" lon="11.786032218086705"><ele>2.5</ele><time>2026-03-28T15:22:57.96Z</time></trkpt><trkpt lat="44.80022429611887" lon="11.785717680483616"><ele>2.0</ele><time>2026-03-28T15:22:58.96Z</time></trkpt><trkpt lat="44.80033627448896" lon="11.785395989789459"><ele>2.5</ele><time>2026-03-28T15:22:59.96Z</time></trkpt><trkpt lat="44.80043250810953" lon="11.78507642650991"><ele>3.0</ele><time>2026-03-28T15:23:00.96Z</time></trkpt><trkpt lat="44.800518354084396" lon="11.784718367943272"><ele>3.0</ele><time>2026-03-28T15:23:01.96Z</time></trkpt><trkpt lat="44.80059280626912" lon="11.784365422151415"><ele>3.0</ele><time>2026-03-28T15:23:02.96Z</time></trkpt><trkpt lat="44.80066529552767" lon="11.784006795577923"><ele>3.0</ele><time>2026-03-28T15:23:03.96Z</time></trkpt><trkpt lat="44.80074073032319" lon="11.783633596519248"><ele>3.0</ele><time>2026-03-28T15:23:04.96Z</time></trkpt><trkpt lat="44.80081739955616" lon="11.783254290312057"><ele>3.0</ele><time>2026-03-28T15:23:05.96Z</time></trkpt><trkpt lat="44.80089614558408" lon="11.782864709592314"><ele>3.0</ele><time>2026-03-28T15:23:06.96Z</time></trkpt><trkpt lat="44.80097151712111" lon="11.782492456034197"><ele>2.5</ele><time>2026-03-28T15:23:07.96Z</time></trkpt><trkpt lat="44.801035938469774" lon="11.782128543565948"><ele>2.0</ele><time>2026-03-28T15:23:08.96Z</time></trkpt><trkpt lat="44.80111661670819" lon="11.781780397358219"><ele>1.5</ele><time>2026-03-28T15:23:09.96Z</time></trkpt><trkpt lat="44.801188320374486" lon="11.781471864492657"><ele>1.0</ele><time>2026-03-28T15:23:10.96Z</time></trkpt><trkpt lat="44.80124238015681" lon="11.781162376969997"><ele>1.0</ele><time>2026-03-28T15:23:11.96Z</time></trkpt><trkpt lat="44.801312033035906" lon="11.780847406778136"><ele>1.0</ele><time>2026-03-28T15:23:12.96Z</time></trkpt><trkpt lat="44.80137751632597" lon="11.780560091896815"><ele>1.0</ele><time>2026-03-28T15:23:13.96Z</time></trkpt><trkpt lat="44.80143141232708" lon="11.780253011399031"><ele>1.6666666666666665</ele><time>2026-03-28T15:23:14.96Z</time></trkpt><trkpt lat="44.801489180647785" lon="11.779967681393698"><ele>2.3333333333333335</ele><time>2026-03-28T15:23:15.96Z</time></trkpt><trkpt lat="44.8015411688642" lon="11.77969480351731"><ele>3.0</ele><time>2026-03-28T15:23:16.96Z</time></trkpt><trkpt lat="44.8015965963478" lon="11.77942139854873"><ele>3.333333333333333</ele><time>2026-03-28T15:23:17.96Z</time></trkpt><trkpt lat="44.80164812040336" lon="11.779150356762623"><ele>3.6666666666666665</ele><time>2026-03-28T15:23:18.96Z</time></trkpt><trkpt lat="44.801707588091446" lon="11.778897132349185"><ele>4.0</ele><time>2026-03-28T15:23:19.96Z</time></trkpt><trkpt lat="44.80176437654638" lon="11.778656821316709"><ele>4.333333333333333</ele><time>2026-03-28T15:23:20.96Z</time></trkpt><trkpt lat="44.80180134394598" lon="11.77841269951564"><ele>4.666666666666667</ele><time>2026-03-28T15:23:21.96Z</time></trkpt><trkpt lat="44.801807056135786" lon="11.778158621434528"><ele>5.0</ele><time>2026-03-28T15:23:22.959Z</time></trkpt><trkpt lat="44.80176810233106" lon="11.777878764101558"><ele>5.0</ele><time>2026-03-28T15:23:23.959Z</time></trkpt><trkpt lat="44.80170970836207" lon="11.777602154038208"><ele>5.0</ele><time>2026-03-28T15:23:24.959Z</time></trkpt><trkpt lat="44.80163238440137" lon="11.777325704455228"><ele>5.0</ele><time>2026-03-28T15:23:25.959Z</time></trkpt><trkpt lat="44.80156975136171" lon="11.777036096816937"><ele>5.0</ele><time>2026-03-28T15:23:26.959Z</time></trkpt><trkpt lat="44.801526781669835" lon="11.776737407752718"><ele>5.0</ele><time>2026-03-28T15:23:27.959Z</time></trkpt><trkpt lat="44.80150198818604" lon="11.776429792629003"><ele>5.0</ele><time>2026-03-28T15:23:28.959Z</time></trkpt><trkpt lat="44.80149482750611" lon="11.776102323809061"><ele>5.5</ele><time>2026-03-28T15:23:29.959Z</time></trkpt><trkpt lat="44.80152519984302" lon="11.775757088907048"><ele>6.0</ele><time>2026-03-28T15:23:30.959Z</time></trkpt><trkpt lat="44.801569812628806" lon="11.775410135291988"><ele>6.0</ele><time>2026-03-28T15:23:31.959Z</time></trkpt><trkpt lat="44.80162043494522" lon="11.775067772282398"><ele>6.0</ele><time>2026-03-28T15:23:32.959Z</time></trkpt><trkpt lat="44.80168019607163" lon="11.774747002603872"><ele>6.0</ele><time>2026-03-28T15:23:33.959Z</time></trkpt><trkpt lat="44.80174565068336" lon="11.77445699348515"><ele>6.0</ele><time>2026-03-28T15:23:34.959Z</time></trkpt><trkpt lat="44.80182558938599" lon="11.774199087997424"><ele>6.0</ele><time>2026-03-28T15:23:35.959Z</time></trkpt><trkpt lat="44.801940216444976" lon="11.773942162133697"><ele>5.0</ele><time>2026-03-28T15:23:36.959Z</time></trkpt><trkpt lat="44.80208483274881" lon="11.773696216336889"><ele>4.0</ele><time>2026-03-28T15:23:37.959Z</time></trkpt><trkpt lat="44.802236108231156" lon="11.77347505087634"><ele>3.0</ele><time>2026-03-28T15:23:38.959Z</time></trkpt><trkpt lat="44.80237235175318" lon="11.77327618639779"><ele>3.0</ele><time>2026-03-28T15:23:39.959Z</time></trkpt><trkpt lat="44.80249512721803" lon="11.773095784849218"><ele>3.0</ele><time>2026-03-28T15:23:40.959Z</time></trkpt><trkpt lat="44.802617885302006" lon="11.772934010324626"><ele>3.0</ele><time>2026-03-28T15:23:41.959Z</time></trkpt><trkpt lat="44.802737137691594" lon="11.772756840021232"><ele>3.0</ele><time>2026-03-28T15:23:42.959Z</time></trkpt><trkpt lat="44.80285701265542" lon="11.772571550795371"><ele>3.0</ele><time>2026-03-28T15:23:43.959Z</time></trkpt><trkpt lat="44.80297661244785" lon="11.772399331239304"><ele>3.0</ele><time>2026-03-28T15:23:44.959Z</time></trkpt><trkpt lat="44.80309180578225" lon="11.772246539602756"><ele>3.0</ele><time>2026-03-28T15:23:45.959Z</time></trkpt><trkpt lat="44.803200911252354" lon="11.772107213640107"><ele>3.0</ele><time>2026-03-28T15:23:46.959Z</time></trkpt><trkpt lat="44.8033171002252" lon="11.77195641490102"><ele>3.0</ele><time>2026-03-28T15:23:47.959Z</time></trkpt><trkpt lat="44.8034205227173" lon="11.771769543893056"><ele>3.0</ele><time>2026-03-28T15:23:48.961Z</time></trkpt><trkpt lat="44.80352899479557" lon="11.771582632561396"><ele>3.0</ele><time>2026-03-28T15:23:49.96Z</time></trkpt><trkpt lat="44.803640399123225" lon="11.771364604245383"><ele>3.0</ele><time>2026-03-28T15:23:50.96Z</time></trkpt><trkpt lat="44.803751456991385" lon="11.771126350196198"><ele>3.0</ele><time>2026-03-28T15:23:51.961Z</time></trkpt><trkpt lat="44.803853572882886" lon="11.770867983598551"><ele>3.0</ele><time>2026-03-28T15:23:52.96Z</time></trkpt><trkpt lat="44.80395192408989" lon="11.770599012826573"><ele>3.0</ele><time>2026-03-28T15:23:53.96Z</time></trkpt><trkpt lat="44.80405152086198" lon="11.770288167032048"><ele>3.0</ele><time>2026-03-28T15:23:54.96Z</time></trkpt><trkpt lat="44.80416099067261" lon="11.769964960708942"><ele>3.0</ele><time>2026-03-28T15:23:55.96Z</time></trkpt><trkpt lat="44.804270112046915" lon="11.769629266220269"><ele>3.0</ele><time>2026-03-28T15:23:56.96Z</time></trkpt><trkpt lat="44.80437106976966" lon="11.769278538223192"><ele>3.0</ele><time>2026-03-28T15:23:57.96Z</time></trkpt><trkpt lat="44.80446488798052" lon="11.768931882493755"><ele>3.0</ele><time>2026-03-28T15:23:58.96Z</time></trkpt><trkpt lat="44.80454761706706" lon="11.768606669438471"><ele>3.0</ele><time>2026-03-28T15:23:59.96Z</time></trkpt><trkpt lat="44.804621412138005" lon="11.768305017722026"><ele>3.0</ele><time>2026-03-28T15:24:00.96Z</time></trkpt><trkpt lat="44.8046866581513" lon="11.768028262015113"><ele>3.0</ele><time>2026-03-28T15:24:01.96Z</time></trkpt><trkpt lat="44.804752305046264" lon="11.767774437195202"><ele>3.0</ele><time>2026-03-28T15:24:02.96Z</time></trkpt><trkpt lat="44.80482797698493" lon="11.76751989693434"><ele>3.0</ele><time>2026-03-28T15:24:03.96Z</time></trkpt><trkpt lat="44.8049325824249" lon="11.767259317691286"><ele>3.0</ele><time>2026-03-28T15:24:04.96Z</time></trkpt><trkpt lat="44.80506599378186" lon="11.767016557820472"><ele>3.0</ele><time>2026-03-28T15:24:05.96Z</time></trkpt><trkpt lat="44.80520408207807" lon="11.7667779174636"><ele>3.0</ele><time>2026-03-28T15:24:06.96Z</time></trkpt><trkpt lat="44.80532476794842" lon="11.76654288713843"><ele>3.0</ele><time>2026-03-28T15:24:07.96Z</time></trkpt><trkpt lat="44.80542743496397" lon="11.76631643981328"><ele>3.0</ele><time>2026-03-28T15:24:08.96Z</time></trkpt><trkpt lat="44.80549381684976" lon="11.766096675254753"><ele>3.666666666666667</ele><time>2026-03-28T15:24:09.96Z</time></trkpt><trkpt lat="44.80552463072301" lon="11.76584269001162"><ele>4.333333333333334</ele><time>2026-03-28T15:24:10.96Z</time></trkpt><trkpt lat="44.80551397809103" lon="11.76553937886357"><ele>5.0</ele><time>2026-03-28T15:24:11.96Z</time></trkpt><trkpt lat="44.80549654381943" lon="11.76522219945875"><ele>5.0</ele><time>2026-03-28T15:24:12.96Z</time></trkpt><trkpt lat="44.80547461283924" lon="11.764912036000375"><ele>5.0</ele><time>2026-03-28T15:24:13.96Z</time></trkpt><trkpt lat="44.805443663183816" lon="11.764607094814318"><ele>5.0</ele><time>2026-03-28T15:24:14.96Z</time></trkpt><trkpt lat="44.80538877598146" lon="11.76430984334705"><ele>4.666666666666667</ele><time>2026-03-28T15:24:15.959Z</time></trkpt><trkpt lat="44.805305687834" lon="11.764018553834177"><ele>4.333333333333333</ele><time>2026-03-28T15:24:16.959Z</time></trkpt><trkpt lat="44.80520855174375" lon="11.76373782716472"><ele>4.0</ele><time>2026-03-28T15:24:17.959Z</time></trkpt><trkpt lat="44.80511315322114" lon="11.763476910381296"><ele>4.0</ele><time>2026-03-28T15:24:18.959Z</time></trkpt><trkpt lat="44.80503685170274" lon="11.763230384171017"><ele>4.0</ele><time>2026-03-28T15:24:19.959Z</time></trkpt><trkpt lat="44.804971750159616" lon="11.762985469269434"><ele>4.0</ele><time>2026-03-28T15:24:20.959Z</time></trkpt><trkpt lat="44.804935929754166" lon="11.762737553378958"><ele>3.6666666666666665</ele><time>2026-03-28T15:24:21.959Z</time></trkpt><trkpt lat="44.804918984572964" lon="11.762480870828282"><ele>3.333333333333333</ele><time>2026-03-28T15:24:22.959Z</time></trkpt><trkpt lat="44.80493904862688" lon="11.76220600083398"><ele>3.0</ele><time>2026-03-28T15:24:23.958Z</time></trkpt><trkpt lat="44.80500251001443" lon="11.761909171859864"><ele>3.0</ele><time>2026-03-28T15:24:24.957Z</time></trkpt><trkpt lat="44.80509165090085" lon="11.761604328667614"><ele>3.0</ele><time>2026-03-28T15:24:25.956Z</time></trkpt><trkpt lat="44.805178749241044" lon="11.761280714907322"><ele>3.0</ele><time>2026-03-28T15:24:26.955Z</time></trkpt><trkpt lat="44.80526358050715" lon="11.76094444049131"><ele>3.0</ele><time>2026-03-28T15:24:27.954Z</time></trkpt><trkpt lat="44.80535164160529" lon="11.760604797157724"><ele>3.0</ele><time>2026-03-28T15:24:28.953Z</time></trkpt><trkpt lat="44.80544234822038" lon="11.760271356197947"><ele>3.0</ele><time>2026-03-28T15:24:29.953Z</time></trkpt><trkpt lat="44.80553733060984" lon="11.75994317963863"><ele>3.0</ele><time>2026-03-28T15:24:30.952Z</time></trkpt><trkpt lat="44.80564161736456" lon="11.759623201512081"><ele>3.0</ele><time>2026-03-28T15:24:31.951Z</time></trkpt><trkpt lat="44.80575915754456" lon="11.75930528483625"><ele>3.0</ele><time>2026-03-28T15:24:32.95Z</time></trkpt><trkpt lat="44.80589146608524" lon="11.758984395335744"><ele>3.0</ele><time>2026-03-28T15:24:33.95Z</time></trkpt><trkpt lat="44.80602915032539" lon="11.7586620852102"><ele>3.0</ele><time>2026-03-28T15:24:34.949Z</time></trkpt><trkpt lat="44.80617676575793" lon="11.758350669303024"><ele>3.0</ele><time>2026-03-28T15:24:35.949Z</time></trkpt><trkpt lat="44.80632287502186" lon="11.758039060585746"><ele>3.0</ele><time>2026-03-28T15:24:36.948Z</time></trkpt><trkpt lat="44.80646003190324" lon="11.757735191402517"><ele>3.0</ele><time>2026-03-28T15:24:37.948Z</time></trkpt><trkpt lat="44.806596539105136" lon="11.757455614701923"><ele>3.0</ele><time>2026-03-28T15:24:38.947Z</time></trkpt><trkpt lat="44.806725131683535" lon="11.757165791504464"><ele>3.0</ele><time>2026-03-28T15:24:39.947Z</time></trkpt><trkpt lat="44.8068399183072" lon="11.756881214247114"><ele>3.0</ele><time>2026-03-28T15:24:40.946Z</time></trkpt><trkpt lat="44.80693727041499" lon="11.756589597061746"><ele>3.0</ele><time>2026-03-28T15:24:41.946Z</time></trkpt><trkpt lat="44.80699996802329" lon="11.756267435587326"><ele>2.5</ele><time>2026-03-28T15:24:42.946Z</time></trkpt><trkpt lat="44.80703594735033" lon="11.755945818369518"><ele>2.0</ele><time>2026-03-28T15:24:43.945Z</time></trkpt><trkpt lat="44.80702594152512" lon="11.755604608400745"><ele>2.0</ele><time>2026-03-28T15:24:44.945Z</time></trkpt><trkpt lat="44.80700841057464" lon="11.75525137073596"><ele>2.0</ele><time>2026-03-28T15:24:45.945Z</time></trkpt><trkpt lat="44.80698217537522" lon="11.7548584389128"><ele>2.5</ele><time>2026-03-28T15:24:46.944Z</time></trkpt><trkpt lat="44.80695575296925" lon="11.754464160408435"><ele>3.0</ele><time>2026-03-28T15:24:47.944Z</time></trkpt><trkpt lat="44.80692942651309" lon="11.754081261996216"><ele>3.0</ele><time>2026-03-28T15:24:48.944Z</time></trkpt><trkpt lat="44.80691557488642" lon="11.753717322022718"><ele>3.0</ele><time>2026-03-28T15:24:49.944Z</time></trkpt><trkpt lat="44.80688871413428" lon="11.753361439600045"><ele>2.5</ele><time>2026-03-28T15:24:50.943Z</time></trkpt><trkpt lat="44.806857507182215" lon="11.753001569640482"><ele>2.0</ele><time>2026-03-28T15:24:51.943Z</time></trkpt><trkpt lat="44.806836168986834" lon="11.752658122692772"><ele>3.0</ele><time>2026-03-28T15:24:52.943Z</time></trkpt><trkpt lat="44.80681554540145" lon="11.752328364175236"><ele>4.0</ele><time>2026-03-28T15:24:53.943Z</time></trkpt><trkpt lat="44.80679405408567" lon="11.752005990762203"><ele>4.333333333333333</ele><time>2026-03-28T15:24:54.943Z</time></trkpt><trkpt lat="44.80677054476485" lon="11.751692969251472"><ele>4.666666666666667</ele><time>2026-03-28T15:24:55.942Z</time></trkpt><trkpt lat="44.80675017977115" lon="11.75138452235216"><ele>5.0</ele><time>2026-03-28T15:24:56.942Z</time></trkpt><trkpt lat="44.80672735936395" lon="11.751065020188214"><ele>5.5</ele><time>2026-03-28T15:24:57.942Z</time></trkpt><trkpt lat="44.80670347841724" lon="11.75074539577631"><ele>6.0</ele><time>2026-03-28T15:24:58.942Z</time></trkpt><trkpt lat="44.80667889905793" lon="11.750418007670735"><ele>5.0</ele><time>2026-03-28T15:24:59.942Z</time></trkpt><trkpt lat="44.80665717142108" lon="11.750092084984992"><ele>4.0</ele><time>2026-03-28T15:25:00.942Z</time></trkpt><trkpt lat="44.80663932315745" lon="11.74976340065049"><ele>4.0</ele><time>2026-03-28T15:25:01.942Z</time></trkpt><trkpt lat="44.806615636925265" lon="11.74942886512203"><ele>4.0</ele><time>2026-03-28T15:25:02.941Z</time></trkpt><trkpt lat="44.80659626108575" lon="11.749106120712428"><ele>4.333333333333333</ele><time>2026-03-28T15:25:03.941Z</time></trkpt><trkpt lat="44.806571597668956" lon="11.748803671320834"><ele>4.666666666666667</ele><time>2026-03-28T15:25:04.941Z</time></trkpt><trkpt lat="44.806548645982" lon="11.748511076578838"><ele>5.0</ele><time>2026-03-28T15:25:05.941Z</time></trkpt><trkpt lat="44.80653355419919" lon="11.748219998409144"><ele>5.0</ele><time>2026-03-28T15:25:06.941Z</time></trkpt><trkpt lat="44.80651626463612" lon="11.747926313662363"><ele>5.0</ele><time>2026-03-28T15:25:07.941Z</time></trkpt><trkpt lat="44.80649483916707" lon="11.74763625669684"><ele>5.0</ele><time>2026-03-28T15:25:08.941Z</time></trkpt><trkpt lat="44.80647149854659" lon="11.747352272777944"><ele>5.0</ele><time>2026-03-28T15:25:09.941Z</time></trkpt><trkpt lat="44.80645348459201" lon="11.747073346763917"><ele>5.0</ele><time>2026-03-28T15:25:10.941Z</time></trkpt><trkpt lat="44.80643271923065" lon="11.746789968873372"><ele>5.0</ele><time>2026-03-28T15:25:11.941Z</time></trkpt><trkpt lat="44.80641309036445" lon="11.74649426906432"><ele>5.0</ele><time>2026-03-28T15:25:12.941Z</time></trkpt><trkpt lat="44.80639391433671" lon="11.746189371539367"><ele>5.0</ele><time>2026-03-28T15:25:13.94Z</time></trkpt><trkpt lat="44.80636453034548" lon="11.745887587213668"><ele>5.0</ele><time>2026-03-28T15:25:14.94Z</time></trkpt><trkpt lat="44.806345261794576" lon="11.745604983616484"><ele>5.0</ele><time>2026-03-28T15:25:15.94Z</time></trkpt><trkpt lat="44.8063265495145" lon="11.74532874605322"><ele>5.0</ele><time>2026-03-28T15:25:16.94Z</time></trkpt><trkpt lat="44.8063107512299" lon="11.74504629722746"><ele>5.0</ele><time>2026-03-28T15:25:17.94Z</time></trkpt><trkpt lat="44.80628573449919" lon="11.744760496280897"><ele>4.666666666666667</ele><time>2026-03-28T15:25:18.94Z</time></trkpt><trkpt lat="44.806263094856064" lon="11.744474063007441"><ele>4.333333333333333</ele><time>2026-03-28T15:25:19.94Z</time></trkpt><trkpt lat="44.806235344848275" lon="11.744190140826214"><ele>4.0</ele><time>2026-03-28T15:25:20.94Z</time></trkpt><trkpt lat="44.80620950282021" lon="11.743908703574224"><ele>4.0</ele><time>2026-03-28T15:25:21.94Z</time></trkpt><trkpt lat="44.80618914184472" lon="11.743619824424398"><ele>4.0</ele><time>2026-03-28T15:25:22.94Z</time></trkpt><trkpt lat="44.806168693023956" lon="11.743327165104215"><ele>4.0</ele><time>2026-03-28T15:25:23.94Z</time></trkpt><trkpt lat="44.806146745128146" lon="11.743037153756678"><ele>3.6666666666666665</ele><time>2026-03-28T15:25:24.94Z</time></trkpt><trkpt lat="44.80612455798259" lon="11.74275131308988"><ele>3.333333333333333</ele><time>2026-03-28T15:25:25.94Z</time></trkpt><trkpt lat="44.8061049398292" lon="11.742475219410567"><ele>3.0</ele><time>2026-03-28T15:25:26.94Z</time></trkpt><trkpt lat="44.80608119047635" lon="11.742219450134613"><ele>3.0</ele><time>2026-03-28T15:25:27.94Z</time></trkpt><trkpt lat="44.806058715682596" lon="11.741965984072333"><ele>3.0</ele><time>2026-03-28T15:25:28.94Z</time></trkpt><trkpt lat="44.80603379851416" lon="11.741709012183774"><ele>3.0</ele><time>2026-03-28T15:25:29.94Z</time></trkpt><trkpt lat="44.806011110868674" lon="11.741445914454966"><ele>3.666666666666667</ele><time>2026-03-28T15:25:30.94Z</time></trkpt><trkpt lat="44.80598897997899" lon="11.741187114740898"><ele>4.333333333333334</ele><time>2026-03-28T15:25:31.94Z</time></trkpt><trkpt lat="44.805971481843194" lon="11.740926291352894"><ele>5.0</ele><time>2026-03-28T15:25:32.94Z</time></trkpt><trkpt lat="44.80590602427429" lon="11.740685529515723"><ele>5.666666666666667</ele><time>2026-03-28T15:25:33.94Z</time></trkpt><trkpt lat="44.805850637968355" lon="11.740445262120247"><ele>6.333333333333334</ele><time>2026-03-28T15:25:34.939Z</time></trkpt><trkpt lat="44.80576046236568" lon="11.740229938566639"><ele>7.0</ele><time>2026-03-28T15:25:35.939Z</time></trkpt><trkpt lat="44.8056681341059" lon="11.740002622474284"><ele>7.0</ele><time>2026-03-28T15:25:36.939Z</time></trkpt><trkpt lat="44.80558744411495" lon="11.739800347687662"><ele>7.0</ele><time>2026-03-28T15:25:37.939Z</time></trkpt><trkpt lat="44.80553265012209" lon="11.739616737965946"><ele>7.0</ele><time>2026-03-28T15:25:38.939Z</time></trkpt><trkpt lat="44.805505194322386" lon="11.739439249945356"><ele>7.0</ele><time>2026-03-28T15:25:39.939Z</time></trkpt><trkpt lat="44.80548857188672" lon="11.739242021792142"><ele>6.5</ele><time>2026-03-28T15:25:40.939Z</time></trkpt><trkpt lat="44.80548464273907" lon="11.739029985376748"><ele>6.0</ele><time>2026-03-28T15:25:41.939Z</time></trkpt><trkpt lat="44.80551898552195" lon="11.738850218330551"><ele>5.5</ele><time>2026-03-28T15:25:42.939Z</time></trkpt><trkpt lat="44.805537768584315" lon="11.738687792266107"><ele>5.0</ele><time>2026-03-28T15:25:43.939Z</time></trkpt><trkpt lat="44.805578318623354" lon="11.738548665761737"><ele>5.0</ele><time>2026-03-28T15:25:44.939Z</time></trkpt><trkpt lat="44.80562042510753" lon="11.738422046303137"><ele>5.0</ele><time>2026-03-28T15:25:45.939Z</time></trkpt><trkpt lat="44.8056531592399" lon="11.738261366456339"><ele>5.0</ele><time>2026-03-28T15:25:46.939Z</time></trkpt><trkpt lat="44.80569980329829" lon="11.738081716942565"><ele>5.0</ele><time>2026-03-28T15:25:47.939Z</time></trkpt><trkpt lat="44.80577024040691" lon="11.73789586924238"><ele>5.0</ele><time>2026-03-28T15:25:48.939Z</time></trkpt><trkpt lat="44.80585837040052" lon="11.737697687703164"><ele>5.0</ele><time>2026-03-28T15:25:49.939Z</time></trkpt><trkpt lat="44.805952397710705" lon="11.737501488792539"><ele>5.0</ele><time>2026-03-28T15:25:50.939Z</time></trkpt><trkpt lat="44.806033173470084" lon="11.737336824295728"><ele>5.0</ele><time>2026-03-28T15:25:51.939Z</time></trkpt><trkpt lat="44.80610126023893" lon="11.737182095778872"><ele>5.0</ele><time>2026-03-28T15:25:52.939Z</time></trkpt><trkpt lat="44.806168310811955" lon="11.737013773695853"><ele>5.0</ele><time>2026-03-28T15:25:53.939Z</time></trkpt><trkpt lat="44.80623516549259" lon="11.73683050584453"><ele>5.0</ele><time>2026-03-28T15:25:54.941Z</time></trkpt><trkpt lat="44.80631831440137" lon="11.736621222895218"><ele>6.0</ele><time>2026-03-28T15:25:55.94Z</time></trkpt><trkpt lat="44.80641597365076" lon="11.736390035156528"><ele>7.0</ele><time>2026-03-28T15:25:56.94Z</time></trkpt><trkpt lat="44.80650768204318" lon="11.736141545245344"><ele>8.0</ele><time>2026-03-28T15:25:57.94Z</time></trkpt><trkpt lat="44.806615732908746" lon="11.735918144357933"><ele>8.0</ele><time>2026-03-28T15:25:58.941Z</time></trkpt><trkpt lat="44.806700673283544" lon="11.73567452102766"><ele>8.0</ele><time>2026-03-28T15:25:59.941Z</time></trkpt><trkpt lat="44.80679742927739" lon="11.735440263432084"><ele>8.0</ele><time>2026-03-28T15:26:00.94Z</time></trkpt><trkpt lat="44.80689954540663" lon="11.735221197457083"><ele>8.0</ele><time>2026-03-28T15:26:01.941Z</time></trkpt><trkpt lat="44.80697644493039" lon="11.734996729417395"><ele>8.0</ele><time>2026-03-28T15:26:02.941Z</time></trkpt><trkpt lat="44.807014108892254" lon="11.734748949225969"><ele>8.0</ele><time>2026-03-28T15:26:03.94Z</time></trkpt><trkpt lat="44.807010303412326" lon="11.734486280285156"><ele>8.333333333333332</ele><time>2026-03-28T15:26:04.941Z</time></trkpt><trkpt lat="44.806983081120066" lon="11.734198085013942"><ele>8.666666666666666</ele><time>2026-03-28T15:26:05.941Z</time></trkpt><trkpt lat="44.80693529948569" lon="11.733879827294462"><ele>9.0</ele><time>2026-03-28T15:26:06.941Z</time></trkpt><trkpt lat="44.80688377525406" lon="11.733543580766469"><ele>8.0</ele><time>2026-03-28T15:26:07.94Z</time></trkpt><trkpt lat="44.80683695422597" lon="11.733233526628627"><ele>7.0</ele><time>2026-03-28T15:26:08.94Z</time></trkpt><trkpt lat="44.806791962737755" lon="11.73293141554148"><ele>6.0</ele><time>2026-03-28T15:26:09.94Z</time></trkpt><trkpt lat="44.806750728465516" lon="11.732660574083091"><ele>6.0</ele><time>2026-03-28T15:26:10.94Z</time></trkpt><trkpt lat="44.80669864455336" lon="11.73242051027599"><ele>6.0</ele><time>2026-03-28T15:26:11.94Z</time></trkpt><trkpt lat="44.806662540789524" lon="11.732186814134456"><ele>6.0</ele><time>2026-03-28T15:26:12.94Z</time></trkpt><trkpt lat="44.80663604470986" lon="11.73195216734798"><ele>6.0</ele><time>2026-03-28T15:26:13.94Z</time></trkpt><trkpt lat="44.806603332126194" lon="11.731715264003885"><ele>6.0</ele><time>2026-03-28T15:26:14.94Z</time></trkpt><trkpt lat="44.80656494016179" lon="11.731469102998341"><ele>6.0</ele><time>2026-03-28T15:26:15.94Z</time></trkpt><trkpt lat="44.8065293045903" lon="11.731204479768543"><ele>6.0</ele><time>2026-03-28T15:26:16.94Z</time></trkpt><trkpt lat="44.806474574766575" lon="11.730896111916133"><ele>6.0</ele><time>2026-03-28T15:26:17.94Z</time></trkpt><trkpt lat="44.80643162874512" lon="11.730559486041791"><ele>6.0</ele><time>2026-03-28T15:26:18.94Z</time></trkpt><trkpt lat="44.80637094469795" lon="11.730225792616274"><ele>6.0</ele><time>2026-03-28T15:26:19.94Z</time></trkpt><trkpt lat="44.806327350134865" lon="11.729881270333912"><ele>5.5</ele><time>2026-03-28T15:26:20.94Z</time></trkpt><trkpt lat="44.806281162355425" lon="11.72953412246392"><ele>5.0</ele><time>2026-03-28T15:26:21.94Z</time></trkpt><trkpt lat="44.80623603115357" lon="11.729183083230348"><ele>5.0</ele><time>2026-03-28T15:26:22.94Z</time></trkpt><trkpt lat="44.80620135238485" lon="11.728824681835727"><ele>5.0</ele><time>2026-03-28T15:26:23.94Z</time></trkpt><trkpt lat="44.80617872314339" lon="11.728455004278853"><ele>5.0</ele><time>2026-03-28T15:26:24.94Z</time></trkpt><trkpt lat="44.80617074150639" lon="11.72808036344394"><ele>5.0</ele><time>2026-03-28T15:26:25.94Z</time></trkpt><trkpt lat="44.80617640494257" lon="11.727708055289861"><ele>4.5</ele><time>2026-03-28T15:26:26.94Z</time></trkpt><trkpt lat="44.80618159513426" lon="11.727343281921526"><ele>4.0</ele><time>2026-03-28T15:26:27.94Z</time></trkpt><trkpt lat="44.80618579856743" lon="11.726999240533319"><ele>4.0</ele><time>2026-03-28T15:26:28.94Z</time></trkpt><trkpt lat="44.8061922069431" lon="11.726673476733218"><ele>4.0</ele><time>2026-03-28T15:26:29.94Z</time></trkpt><trkpt lat="44.80620457041237" lon="11.726355303364306"><ele>4.0</ele><time>2026-03-28T15:26:30.94Z</time></trkpt><trkpt lat="44.8062357066977" lon="11.726049345770969"><ele>4.0</ele><time>2026-03-28T15:26:31.94Z</time></trkpt><trkpt lat="44.806279187971185" lon="11.725744179060902"><ele>4.0</ele><time>2026-03-28T15:26:32.94Z</time></trkpt><trkpt lat="44.80632235934708" lon="11.725429844835704"><ele>4.0</ele><time>2026-03-28T15:26:33.94Z</time></trkpt><trkpt lat="44.80635963275725" lon="11.72511250732945"><ele>4.0</ele><time>2026-03-28T15:26:34.94Z</time></trkpt><trkpt lat="44.80640066795231" lon="11.724801473710361"><ele>4.0</ele><time>2026-03-28T15:26:35.94Z</time></trkpt><trkpt lat="44.80640573226248" lon="11.72448979680503"><ele>4.0</ele><time>2026-03-28T15:26:36.939Z</time></trkpt><trkpt lat="44.8063870632594" lon="11.724175853716849"><ele>4.0</ele><time>2026-03-28T15:26:37.939Z</time></trkpt><trkpt lat="44.80634648052659" lon="11.723868781884148"><ele>4.0</ele><time>2026-03-28T15:26:38.939Z</time></trkpt><trkpt lat="44.80633152677007" lon="11.723578488984465"><ele>4.0</ele><time>2026-03-28T15:26:39.939Z</time></trkpt><trkpt lat="44.80627329517416" lon="11.723325379808166"><ele>4.0</ele><time>2026-03-28T15:26:40.939Z</time></trkpt><trkpt lat="44.806210078409755" lon="11.723081965199988"><ele>4.0</ele><time>2026-03-28T15:26:41.939Z</time></trkpt><trkpt lat="44.80614392824334" lon="11.722862489330456"><ele>4.0</ele><time>2026-03-28T15:26:42.939Z</time></trkpt><trkpt lat="44.80610831591936" lon="11.722606497856113"><ele>4.0</ele><time>2026-03-28T15:26:43.939Z</time></trkpt><trkpt lat="44.8059624402718" lon="11.72237716925498"><ele>4.333333333333333</ele><time>2026-03-28T15:26:44.939Z</time></trkpt><trkpt lat="44.80582976676666" lon="11.722134789829816"><ele>4.666666666666667</ele><time>2026-03-28T15:26:45.939Z</time></trkpt><trkpt lat="44.80571630142787" lon="11.72186944061115"><ele>5.0</ele><time>2026-03-28T15:26:46.939Z</time></trkpt><trkpt lat="44.805592896052964" lon="11.721616328441325"><ele>5.0</ele><time>2026-03-28T15:26:47.939Z</time></trkpt><trkpt lat="44.805479403378925" lon="11.721387751412035"><ele>5.0</ele><time>2026-03-28T15:26:48.939Z</time></trkpt><trkpt lat="44.805387090070205" lon="11.7211792852554"><ele>5.0</ele><time>2026-03-28T15:26:49.939Z</time></trkpt><trkpt lat="44.80531317787223" lon="11.721001842798259"><ele>4.8</ele><time>2026-03-28T15:26:50.939Z</time></trkpt><trkpt lat="44.80526468144541" lon="11.720834827268682"><ele>4.6</ele><time>2026-03-28T15:26:51.939Z</time></trkpt><trkpt lat="44.80524172550575" lon="11.720686365980535"><ele>4.4</ele><time>2026-03-28T15:26:52.939Z</time></trkpt><trkpt lat="44.80524158162303" lon="11.720547907985026"><ele>4.2</ele><time>2026-03-28T15:26:53.939Z</time></trkpt><trkpt lat="44.80526074375105" lon="11.720449111761416"><ele>4.0</ele><time>2026-03-28T15:26:54.939Z</time></trkpt><trkpt lat="44.805311126700914" lon="11.720294867520117"><ele>4.0</ele><time>2026-03-28T15:26:56.939Z</time></trkpt><trkpt lat="44.80539031780564" lon="11.720178901606747"><ele>4.0</ele><time>2026-03-28T15:26:58.939Z</time></trkpt><trkpt lat="44.80544938875833" lon="11.720101720648934"><ele>4.0</ele><time>2026-03-28T15:26:59.939Z</time></trkpt><trkpt lat="44.80553587308525" lon="11.720010729684901"><ele>4.0</ele><time>2026-03-28T15:27:00.939Z</time></trkpt><trkpt lat="44.80563616162734" lon="11.719900578280054"><ele>4.0</ele><time>2026-03-28T15:27:01.939Z</time></trkpt><trkpt lat="44.80575577229604" lon="11.719783395989957"><ele>4.0</ele><time>2026-03-28T15:27:02.939Z</time></trkpt><trkpt lat="44.80588922009071" lon="11.719667938114231"><ele>4.0</ele><time>2026-03-28T15:27:03.939Z</time></trkpt><trkpt lat="44.80604474038536" lon="11.719554848768544"><ele>4.0</ele><time>2026-03-28T15:27:04.939Z</time></trkpt><trkpt lat="44.80621381330778" lon="11.719457281977357"><ele>3.6666666666666665</ele><time>2026-03-28T15:27:05.939Z</time></trkpt><trkpt lat="44.806386471724466" lon="11.719371667020251"><ele>3.333333333333333</ele><time>2026-03-28T15:27:06.939Z</time></trkpt><trkpt lat="44.806554109762345" lon="11.719310048046008"><ele>3.0</ele><time>2026-03-28T15:27:07.939Z</time></trkpt><trkpt lat="44.806716586174915" lon="11.719235421216263"><ele>2.3333333333333335</ele><time>2026-03-28T15:27:08.939Z</time></trkpt><trkpt lat="44.80688749964297" lon="11.7191664857673"><ele>1.6666666666666665</ele><time>2026-03-28T15:27:09.939Z</time></trkpt><trkpt lat="44.807049610129646" lon="11.719085752612363"><ele>1.0</ele><time>2026-03-28T15:27:10.939Z</time></trkpt><trkpt lat="44.80721428550917" lon="11.71901032895249"><ele>1.0</ele><time>2026-03-28T15:27:11.939Z</time></trkpt><trkpt lat="44.807381552947284" lon="11.718939925476441"><ele>1.0</ele><time>2026-03-28T15:27:12.939Z</time></trkpt><trkpt lat="44.80754581075521" lon="11.7188740287907"><ele>1.0</ele><time>2026-03-28T15:27:13.939Z</time></trkpt><trkpt lat="44.80771485809155" lon="11.71880756147539"><ele>1.3333333333333333</ele><time>2026-03-28T15:27:14.939Z</time></trkpt><trkpt lat="44.80788096763542" lon="11.718737585800595"><ele>1.6666666666666665</ele><time>2026-03-28T15:27:15.939Z</time></trkpt><trkpt lat="44.80805236957185" lon="11.718656260813914"><ele>2.0</ele><time>2026-03-28T15:27:16.939Z</time></trkpt><trkpt lat="44.80823329418319" lon="11.71856965632414"><ele>2.0</ele><time>2026-03-28T15:27:17.939Z</time></trkpt><trkpt lat="44.80840613998184" lon="11.718493221351808"><ele>2.0</ele><time>2026-03-28T15:27:18.939Z</time></trkpt><trkpt lat="44.808583531250584" lon="11.718402733808771"><ele>2.0</ele><time>2026-03-28T15:27:19.938Z</time></trkpt><trkpt lat="44.80875344430286" lon="11.718304817311783"><ele>2.0</ele><time>2026-03-28T15:27:20.938Z</time></trkpt><trkpt lat="44.808917799972534" lon="11.718195280986134"><ele>2.0</ele><time>2026-03-28T15:27:21.938Z</time></trkpt><trkpt lat="44.80907856913467" lon="11.718079797451876"><ele>2.0</ele><time>2026-03-28T15:27:22.938Z</time></trkpt><trkpt lat="44.80923137959679" lon="11.717956781625462"><ele>2.0</ele><time>2026-03-28T15:27:23.938Z</time></trkpt><trkpt lat="44.80937838386482" lon="11.717828334274952"><ele>2.0</ele><time>2026-03-28T15:27:24.938Z</time></trkpt><trkpt lat="44.80951556602124" lon="11.71769421241815"><ele>2.0</ele><time>2026-03-28T15:27:25.938Z</time></trkpt><trkpt lat="44.80964522516882" lon="11.71754663816871"><ele>2.0</ele><time>2026-03-28T15:27:26.938Z</time></trkpt><trkpt lat="44.80977424611894" lon="11.717383024426226"><ele>2.0</ele><time>2026-03-28T15:27:27.938Z</time></trkpt><trkpt lat="44.80990238898513" lon="11.717203811423447"><ele>2.0</ele><time>2026-03-28T15:27:28.938Z</time></trkpt><trkpt lat="44.8100325730033" lon="11.717019367037194"><ele>2.333333333333333</ele><time>2026-03-28T15:27:29.938Z</time></trkpt><trkpt lat="44.81015526089692" lon="11.716814639711432"><ele>2.6666666666666665</ele><time>2026-03-28T15:27:30.938Z</time></trkpt><trkpt lat="44.81028797732192" lon="11.716568042131623"><ele>3.0</ele><time>2026-03-28T15:27:31.938Z</time></trkpt><trkpt lat="44.81043369818197" lon="11.716270792872706"><ele>3.5</ele><time>2026-03-28T15:27:32.938Z</time></trkpt><trkpt lat="44.81059739509517" lon="11.715953712037713"><ele>4.0</ele><time>2026-03-28T15:27:33.938Z</time></trkpt><trkpt lat="44.810773281160806" lon="11.715623691924291"><ele>4.0</ele><time>2026-03-28T15:27:34.938Z</time></trkpt><trkpt lat="44.810957758558274" lon="11.715291339095861"><ele>4.0</ele><time>2026-03-28T15:27:35.938Z</time></trkpt><trkpt lat="44.81113858317753" lon="11.71496342835527"><ele>4.0</ele><time>2026-03-28T15:27:36.938Z</time></trkpt><trkpt lat="44.81131211914642" lon="11.714633793836734"><ele>4.0</ele><time>2026-03-28T15:27:37.938Z</time></trkpt><trkpt lat="44.81148237076853" lon="11.714322874120302"><ele>3.5</ele><time>2026-03-28T15:27:38.938Z</time></trkpt><trkpt lat="44.81164516386316" lon="11.71401651898965"><ele>3.0</ele><time>2026-03-28T15:27:39.938Z</time></trkpt><trkpt lat="44.81179584524784" lon="11.713727113142447"><ele>5.0</ele><time>2026-03-28T15:27:40.938Z</time></trkpt><trkpt lat="44.81194012128651" lon="11.713446751117555"><ele>7.0</ele><time>2026-03-28T15:27:41.938Z</time></trkpt><trkpt lat="44.81207770623708" lon="11.713173679924811"><ele>7.0</ele><time>2026-03-28T15:27:42.938Z</time></trkpt><trkpt lat="44.812210982326576" lon="11.712912194093992"><ele>7.0</ele><time>2026-03-28T15:27:43.938Z</time></trkpt><trkpt lat="44.81234191872633" lon="11.712672001177603"><ele>7.0</ele><time>2026-03-28T15:27:44.938Z</time></trkpt><trkpt lat="44.81246248278072" lon="11.712420440400804"><ele>6.666666666666667</ele><time>2026-03-28T15:27:45.938Z</time></trkpt><trkpt lat="44.812592551548576" lon="11.712187042315833"><ele>6.333333333333334</ele><time>2026-03-28T15:27:46.938Z</time></trkpt><trkpt lat="44.81271502541931" lon="11.711964109700142"><ele>6.0</ele><time>2026-03-28T15:27:47.938Z</time></trkpt><trkpt lat="44.81284384078851" lon="11.711741661229036"><ele>6.0</ele><time>2026-03-28T15:27:48.938Z</time></trkpt><trkpt lat="44.81299533583616" lon="11.711533915811941"><ele>6.0</ele><time>2026-03-28T15:27:49.938Z</time></trkpt><trkpt lat="44.81316679016831" lon="11.711345003640744"><ele>6.0</ele><time>2026-03-28T15:27:50.938Z</time></trkpt><trkpt lat="44.81335774222287" lon="11.711168950874299"><ele>5.5</ele><time>2026-03-28T15:27:51.938Z</time></trkpt><trkpt lat="44.813559220524056" lon="11.71102766780692"><ele>5.0</ele><time>2026-03-28T15:27:52.938Z</time></trkpt><trkpt lat="44.81377226823151" lon="11.710904934171948"><ele>5.0</ele><time>2026-03-28T15:27:53.938Z</time></trkpt><trkpt lat="44.8140024305845" lon="11.71081110433564"><ele>5.0</ele><time>2026-03-28T15:27:54.938Z</time></trkpt><trkpt lat="44.81424270602949" lon="11.710766078130739"><ele>5.0</ele><time>2026-03-28T15:27:55.938Z</time></trkpt><trkpt lat="44.81448145095833" lon="11.710744754813922"><ele>5.0</ele><time>2026-03-28T15:27:56.938Z</time></trkpt><trkpt lat="44.814727044075354" lon="11.710751989534758"><ele>5.0</ele><time>2026-03-28T15:27:57.938Z</time></trkpt><trkpt lat="44.81497962764407" lon="11.71079250754051"><ele>5.0</ele><time>2026-03-28T15:27:58.938Z</time></trkpt><trkpt lat="44.81523835943467" lon="11.71084263934701"><ele>4.0</ele><time>2026-03-28T15:27:59.938Z</time></trkpt><trkpt lat="44.81550196649435" lon="11.710897127162395"><ele>3.0</ele><time>2026-03-28T15:28:00.939Z</time></trkpt><trkpt lat="44.81576458219896" lon="11.710953015849094"><ele>3.5</ele><time>2026-03-28T15:28:01.939Z</time></trkpt><trkpt lat="44.81602592723309" lon="11.7109890511351"><ele>4.0</ele><time>2026-03-28T15:28:02.939Z</time></trkpt><trkpt lat="44.81627988593782" lon="11.711063633000315"><ele>4.0</ele><time>2026-03-28T15:28:03.939Z</time></trkpt><trkpt lat="44.816529475805375" lon="11.711118227604603"><ele>4.0</ele><time>2026-03-28T15:28:04.939Z</time></trkpt><trkpt lat="44.816781588908" lon="11.71117379078798"><ele>4.0</ele><time>2026-03-28T15:28:05.939Z</time></trkpt><trkpt lat="44.817033164983236" lon="11.711218510166816"><ele>4.0</ele><time>2026-03-28T15:28:06.94Z</time></trkpt><trkpt lat="44.81729050338562" lon="11.711244488478306"><ele>4.0</ele><time>2026-03-28T15:28:07.939Z</time></trkpt><trkpt lat="44.81754787255485" lon="11.711258067183232"><ele>4.0</ele><time>2026-03-28T15:28:08.939Z</time></trkpt><trkpt lat="44.817811677746754" lon="11.711258104463061"><ele>4.0</ele><time>2026-03-28T15:28:09.939Z</time></trkpt><trkpt lat="44.81808281319033" lon="11.71124336940659"><ele>4.0</ele><time>2026-03-28T15:28:10.939Z</time></trkpt><trkpt lat="44.8183657234643" lon="11.711217684810695"><ele>4.0</ele><time>2026-03-28T15:28:11.939Z</time></trkpt><trkpt lat="44.81865381136132" lon="11.711190481327566"><ele>4.0</ele><time>2026-03-28T15:28:12.939Z</time></trkpt><trkpt lat="44.818947944902895" lon="11.711162706759144"><ele>4.0</ele><time>2026-03-28T15:28:13.939Z</time></trkpt><trkpt lat="44.81922915466004" lon="11.711135995388902"><ele>4.0</ele><time>2026-03-28T15:28:14.939Z</time></trkpt><trkpt lat="44.81951275241173" lon="11.711109020922615"><ele>4.0</ele><time>2026-03-28T15:28:15.939Z</time></trkpt><trkpt lat="44.819793485966294" lon="11.711084237327935"><ele>4.0</ele><time>2026-03-28T15:28:16.939Z</time></trkpt><trkpt lat="44.820074741664875" lon="11.711058799626144"><ele>4.0</ele><time>2026-03-28T15:28:17.939Z</time></trkpt><trkpt lat="44.820353476773036" lon="11.711031325141844"><ele>4.0</ele><time>2026-03-28T15:28:18.939Z</time></trkpt><trkpt lat="44.820631711134446" lon="11.71100647558934"><ele>4.0</ele><time>2026-03-28T15:28:19.939Z</time></trkpt><trkpt lat="44.820914546863484" lon="11.710982428409114"><ele>4.0</ele><time>2026-03-28T15:28:20.939Z</time></trkpt><trkpt lat="44.82118734774351" lon="11.710956928784482"><ele>4.5</ele><time>2026-03-28T15:28:21.939Z</time></trkpt><trkpt lat="44.82145695871213" lon="11.710931637276213"><ele>5.0</ele><time>2026-03-28T15:28:22.939Z</time></trkpt><trkpt lat="44.82172213655255" lon="11.710918024547233"><ele>5.5</ele><time>2026-03-28T15:28:23.939Z</time></trkpt><trkpt lat="44.8219887512116" lon="11.710916693540655"><ele>6.0</ele><time>2026-03-28T15:28:24.939Z</time></trkpt><trkpt lat="44.822260904148905" lon="11.710929619774019"><ele>6.0</ele><time>2026-03-28T15:28:25.939Z</time></trkpt><trkpt lat="44.82253447838208" lon="11.710948742929714"><ele>6.0</ele><time>2026-03-28T15:28:26.939Z</time></trkpt><trkpt lat="44.82280671723482" lon="11.71096575785919"><ele>6.0</ele><time>2026-03-28T15:28:27.939Z</time></trkpt><trkpt lat="44.82307567772363" lon="11.710982567883034"><ele>6.0</ele><time>2026-03-28T15:28:28.938Z</time></trkpt><trkpt lat="44.82334691763259" lon="11.710999520376921"><ele>5.0</ele><time>2026-03-28T15:28:29.938Z</time></trkpt><trkpt lat="44.82361385448499" lon="11.711016203926919"><ele>4.0</ele><time>2026-03-28T15:28:30.938Z</time></trkpt><trkpt lat="44.823882309243764" lon="11.711032982359551"><ele>4.0</ele><time>2026-03-28T15:28:31.938Z</time></trkpt><trkpt lat="44.82414289405351" lon="11.711049268763578"><ele>4.0</ele><time>2026-03-28T15:28:32.938Z</time></trkpt><trkpt lat="44.824393990205735" lon="11.7110757193357"><ele>4.0</ele><time>2026-03-28T15:28:33.938Z</time></trkpt><trkpt lat="44.8246285597625" lon="11.711102955099634"><ele>4.0</ele><time>2026-03-28T15:28:34.938Z</time></trkpt><trkpt lat="44.8248532850503" lon="11.711126134384386"><ele>4.0</ele><time>2026-03-28T15:28:35.938Z</time></trkpt><trkpt lat="44.82507390552272" lon="11.711142135361737"><ele>4.0</ele><time>2026-03-28T15:28:36.938Z</time></trkpt><trkpt lat="44.825277592367115" lon="11.711153752259023"><ele>4.0</ele><time>2026-03-28T15:28:37.938Z</time></trkpt><trkpt lat="44.82546775182456" lon="11.71116206007944"><ele>4.333333333333333</ele><time>2026-03-28T15:28:38.938Z</time></trkpt><trkpt lat="44.82564465395603" lon="11.711169926238025"><ele>4.666666666666667</ele><time>2026-03-28T15:28:39.938Z</time></trkpt><trkpt lat="44.8258102815837" lon="11.711180437481554"><ele>5.0</ele><time>2026-03-28T15:28:40.938Z</time></trkpt><trkpt lat="44.8259635532109" lon="11.71119313676583"><ele>6.0</ele><time>2026-03-28T15:28:41.938Z</time></trkpt><trkpt lat="44.8261076479244" lon="11.711215576407303"><ele>7.0</ele><time>2026-03-28T15:28:42.938Z</time></trkpt><trkpt lat="44.82623601513615" lon="11.711246556972364"><ele>8.0</ele><time>2026-03-28T15:28:43.938Z</time></trkpt><trkpt lat="44.82635128779177" lon="11.711263309620593"><ele>9.0</ele><time>2026-03-28T15:28:44.938Z</time></trkpt><trkpt lat="44.826454603414625" lon="11.71127373232436"><ele>9.0</ele><time>2026-03-28T15:28:45.938Z</time></trkpt><trkpt lat="44.82655130512569" lon="11.71128296597894"><ele>9.0</ele><time>2026-03-28T15:28:46.938Z</time></trkpt><trkpt lat="44.82664280425394" lon="11.711292024134266"><ele>9.0</ele><time>2026-03-28T15:28:47.938Z</time></trkpt><trkpt lat="44.82673684832473" lon="11.711331684757305"><ele>9.0</ele><time>2026-03-28T15:28:48.938Z</time></trkpt><trkpt lat="44.82683603462805" lon="11.71139677777579"><ele>9.0</ele><time>2026-03-28T15:28:49.938Z</time></trkpt><trkpt lat="44.82693698894576" lon="11.711464682329192"><ele>7.666666666666667</ele><time>2026-03-28T15:28:50.938Z</time></trkpt><trkpt lat="44.82706545612578" lon="11.711527432812339"><ele>6.333333333333334</ele><time>2026-03-28T15:28:51.938Z</time></trkpt><trkpt lat="44.827212414793514" lon="11.711558555250088"><ele>5.0</ele><time>2026-03-28T15:28:52.938Z</time></trkpt><trkpt lat="44.82738163028473" lon="11.711551674776805"><ele>5.0</ele><time>2026-03-28T15:28:53.938Z</time></trkpt><trkpt lat="44.82757120231288" lon="11.711535370550148"><ele>5.0</ele><time>2026-03-28T15:28:54.938Z</time></trkpt><trkpt lat="44.82776772202781" lon="11.7115030118127"><ele>5.0</ele><time>2026-03-28T15:28:55.938Z</time></trkpt><trkpt lat="44.827976632311916" lon="11.711493479154395"><ele>5.0</ele><time>2026-03-28T15:28:56.938Z</time></trkpt><trkpt lat="44.82819425169024" lon="11.711507149960674"><ele>5.0</ele><time>2026-03-28T15:28:57.938Z</time></trkpt><trkpt lat="44.828423947037216" lon="11.711548100840236"><ele>5.0</ele><time>2026-03-28T15:28:58.938Z</time></trkpt><trkpt lat="44.82866362004621" lon="11.711615266658939"><ele>5.0</ele><time>2026-03-28T15:28:59.938Z</time></trkpt><trkpt lat="44.828902160394925" lon="11.711664457723169"><ele>5.0</ele><time>2026-03-28T15:29:00.938Z</time></trkpt><trkpt lat="44.82915253628726" lon="11.711725485056329"><ele>4.5</ele><time>2026-03-28T15:29:01.938Z</time></trkpt><trkpt lat="44.829398001161685" lon="11.71177661400746"><ele>4.0</ele><time>2026-03-28T15:29:02.938Z</time></trkpt><trkpt lat="44.82963747248945" lon="11.711824718723584"><ele>4.0</ele><time>2026-03-28T15:29:03.938Z</time></trkpt><trkpt lat="44.82987315169003" lon="11.7118799291048"><ele>4.0</ele><time>2026-03-28T15:29:04.938Z</time></trkpt><trkpt lat="44.830112909688665" lon="11.711938440995354"><ele>4.5</ele><time>2026-03-28T15:29:05.938Z</time></trkpt><trkpt lat="44.83036020250078" lon="11.711986922458411"><ele>5.0</ele><time>2026-03-28T15:29:06.938Z</time></trkpt><trkpt lat="44.83061459498631" lon="11.712027903200422"><ele>5.0</ele><time>2026-03-28T15:29:07.938Z</time></trkpt><trkpt lat="44.83087584303821" lon="11.712079848765166"><ele>5.0</ele><time>2026-03-28T15:29:08.938Z</time></trkpt><trkpt lat="44.831136763626084" lon="11.712123558485906"><ele>5.0</ele><time>2026-03-28T15:29:09.938Z</time></trkpt><trkpt lat="44.83140113464387" lon="11.712150385168352"><ele>5.0</ele><time>2026-03-28T15:29:10.938Z</time></trkpt><trkpt lat="44.8316729644987" lon="11.71214023956435"><ele>5.0</ele><time>2026-03-28T15:29:11.937Z</time></trkpt><trkpt lat="44.831952862378216" lon="11.71211456565059"><ele>5.0</ele><time>2026-03-28T15:29:12.937Z</time></trkpt><trkpt lat="44.83223212745768" lon="11.712078188099884"><ele>5.0</ele><time>2026-03-28T15:29:13.937Z</time></trkpt><trkpt lat="44.83251026398347" lon="11.712040766368569"><ele>5.0</ele><time>2026-03-28T15:29:14.937Z</time></trkpt><trkpt lat="44.83279270917409" lon="11.712001947316846"><ele>5.0</ele><time>2026-03-28T15:29:15.937Z</time></trkpt><trkpt lat="44.83308479663326" lon="11.711975021082067"><ele>5.0</ele><time>2026-03-28T15:29:16.937Z</time></trkpt><trkpt lat="44.83337065587636" lon="11.711938448334974"><ele>3.5</ele><time>2026-03-28T15:29:17.937Z</time></trkpt><trkpt lat="44.8336601219703" lon="11.711891259044476"><ele>2.0</ele><time>2026-03-28T15:29:18.937Z</time></trkpt><trkpt lat="44.833952312410055" lon="11.711854829089429"><ele>2.0</ele><time>2026-03-28T15:29:19.937Z</time></trkpt><trkpt lat="44.834239010552814" lon="11.711816682770696"><ele>2.0</ele><time>2026-03-28T15:29:20.937Z</time></trkpt><trkpt lat="44.834517478190435" lon="11.711778304785566"><ele>2.5</ele><time>2026-03-28T15:29:21.937Z</time></trkpt><trkpt lat="44.83478916260463" lon="11.711739563942798"><ele>3.0</ele><time>2026-03-28T15:29:22.937Z</time></trkpt><trkpt lat="44.83505135637717" lon="11.711702835592025"><ele>3.0</ele><time>2026-03-28T15:29:23.937Z</time></trkpt><trkpt lat="44.835302057483645" lon="11.7116698933424"><ele>3.0</ele><time>2026-03-28T15:29:24.937Z</time></trkpt><trkpt lat="44.83555735511492" lon="11.711645785876382"><ele>3.0</ele><time>2026-03-28T15:29:25.937Z</time></trkpt><trkpt lat="44.83581610991995" lon="11.711642799666434"><ele>3.0</ele><time>2026-03-28T15:29:26.937Z</time></trkpt><trkpt lat="44.83608105148151" lon="11.711684617592962"><ele>3.5</ele><time>2026-03-28T15:29:27.937Z</time></trkpt><trkpt lat="44.836346529010086" lon="11.711740980995568"><ele>4.0</ele><time>2026-03-28T15:29:28.937Z</time></trkpt><trkpt lat="44.836613848322784" lon="11.711824953486072"><ele>4.5</ele><time>2026-03-28T15:29:29.937Z</time></trkpt><trkpt lat="44.83688659202564" lon="11.711937624484467"><ele>5.0</ele><time>2026-03-28T15:29:30.937Z</time></trkpt><trkpt lat="44.837162880189254" lon="11.71206805613644"><ele>5.0</ele><time>2026-03-28T15:29:31.937Z</time></trkpt><trkpt lat="44.83743487983906" lon="11.712211450375444"><ele>5.0</ele><time>2026-03-28T15:29:32.937Z</time></trkpt><trkpt lat="44.8377037097282" lon="11.712361788569314"><ele>4.5</ele><time>2026-03-28T15:29:33.937Z</time></trkpt><trkpt lat="44.837966145030286" lon="11.712512332191894"><ele>4.0</ele><time>2026-03-28T15:29:34.937Z</time></trkpt><trkpt lat="44.83822588357215" lon="11.712654657603466"><ele>4.5</ele><time>2026-03-28T15:29:35.937Z</time></trkpt><trkpt lat="44.838476144446894" lon="11.712797653031513"><ele>5.0</ele><time>2026-03-28T15:29:36.937Z</time></trkpt><trkpt lat="44.838724733601246" lon="11.71294915947065"><ele>5.0</ele><time>2026-03-28T15:29:37.937Z</time></trkpt><trkpt lat="44.83896681286778" lon="11.713091863126223"><ele>5.0</ele><time>2026-03-28T15:29:38.937Z</time></trkpt><trkpt lat="44.839208921591315" lon="11.713228620652881"><ele>4.5</ele><time>2026-03-28T15:29:39.937Z</time></trkpt><trkpt lat="44.839439572760966" lon="11.71338967781277"><ele>4.0</ele><time>2026-03-28T15:29:40.937Z</time></trkpt><trkpt lat="44.839671632313696" lon="11.713520737980414"><ele>5.0</ele><time>2026-03-28T15:29:41.937Z</time></trkpt><trkpt lat="44.839903375868545" lon="11.713652326049758"><ele>6.0</ele><time>2026-03-28T15:29:42.937Z</time></trkpt><trkpt lat="44.84013455982499" lon="11.713781949794644"><ele>6.0</ele><time>2026-03-28T15:29:43.937Z</time></trkpt><trkpt lat="44.840366809068385" lon="11.713913658581596"><ele>6.0</ele><time>2026-03-28T15:29:44.937Z</time></trkpt><trkpt lat="44.840601620699104" lon="11.714045384204049"><ele>6.0</ele><time>2026-03-28T15:29:45.937Z</time></trkpt><trkpt lat="44.84083460711912" lon="11.714175118743317"><ele>6.0</ele><time>2026-03-28T15:29:46.937Z</time></trkpt><trkpt lat="44.84105784833017" lon="11.714301093213585"><ele>5.333333333333333</ele><time>2026-03-28T15:29:47.937Z</time></trkpt><trkpt lat="44.84127208540939" lon="11.714422057488653"><ele>4.666666666666666</ele><time>2026-03-28T15:29:48.937Z</time></trkpt><trkpt lat="44.84147449803488" lon="11.714536345325273"><ele>4.0</ele><time>2026-03-28T15:29:49.937Z</time></trkpt><trkpt lat="44.841668090693034" lon="11.714643756826547"><ele>4.0</ele><time>2026-03-28T15:29:50.937Z</time></trkpt><trkpt lat="44.84185475687364" lon="11.714747300027902"><ele>4.0</ele><time>2026-03-28T15:29:51.937Z</time></trkpt><trkpt lat="44.84203681280252" lon="11.714848285894922"><ele>4.0</ele><time>2026-03-28T15:29:52.937Z</time></trkpt><trkpt lat="44.842215208723395" lon="11.714947827696228"><ele>4.0</ele><time>2026-03-28T15:29:53.937Z</time></trkpt><trkpt lat="44.84238475727711" lon="11.715043115528205"><ele>4.0</ele><time>2026-03-28T15:29:54.936Z</time></trkpt><trkpt lat="44.84255566626247" lon="11.71512473383225"><ele>4.0</ele><time>2026-03-28T15:29:55.936Z</time></trkpt><trkpt lat="44.84271286159748" lon="11.715223736068657"><ele>4.333333333333333</ele><time>2026-03-28T15:29:56.936Z</time></trkpt><trkpt lat="44.842868084068435" lon="11.71532552722525"><ele>4.666666666666667</ele><time>2026-03-28T15:29:57.936Z</time></trkpt><trkpt lat="44.84302012862107" lon="11.715435344288558"><ele>5.0</ele><time>2026-03-28T15:29:58.936Z</time></trkpt><trkpt lat="44.843159755979656" lon="11.715571831362707"><ele>5.0</ele><time>2026-03-28T15:29:59.936Z</time></trkpt><trkpt lat="44.8432862312182" lon="11.715705179627173"><ele>5.0</ele><time>2026-03-28T15:30:00.936Z</time></trkpt><trkpt lat="44.84338695882067" lon="11.715837330554129"><ele>5.0</ele><time>2026-03-28T15:30:01.936Z</time></trkpt><trkpt lat="44.84346343664908" lon="11.715968235089345"><ele>5.0</ele><time>2026-03-28T15:30:02.936Z</time></trkpt><trkpt lat="44.84351029502458" lon="11.716078783876135"><ele>5.2</ele><time>2026-03-28T15:30:03.936Z</time></trkpt><trkpt lat="44.84354182456857" lon="11.716176794361548"><ele>5.4</ele><time>2026-03-28T15:30:04.936Z</time></trkpt><trkpt lat="44.84355546748682" lon="11.716302003898397"><ele>5.6</ele><time>2026-03-28T15:30:05.936Z</time></trkpt><trkpt lat="44.84354218664042" lon="11.716470058536549"><ele>5.8</ele><time>2026-03-28T15:30:06.937Z</time></trkpt><trkpt lat="44.843507253921764" lon="11.71665231808102"><ele>6.0</ele><time>2026-03-28T15:30:07.938Z</time></trkpt><trkpt lat="44.843439975594634" lon="11.716866128850699"><ele>6.0</ele><time>2026-03-28T15:30:08.938Z</time></trkpt><trkpt lat="44.843311265947" lon="11.71707229309175"><ele>6.0</ele><time>2026-03-28T15:30:09.938Z</time></trkpt><trkpt lat="44.84324121919844" lon="11.717321598264098"><ele>6.0</ele><time>2026-03-28T15:30:10.938Z</time></trkpt><trkpt lat="44.84317349488914" lon="11.717565416575193"><ele>5.333333333333333</ele><time>2026-03-28T15:30:11.938Z</time></trkpt><trkpt lat="44.84310504102774" lon="11.717811861375848"><ele>4.666666666666666</ele><time>2026-03-28T15:30:12.938Z</time></trkpt><trkpt lat="44.84303556481846" lon="11.718061986780683"><ele>4.0</ele><time>2026-03-28T15:30:13.937Z</time></trkpt><trkpt lat="44.84296341477502" lon="11.718310254064054"><ele>4.0</ele><time>2026-03-28T15:30:14.937Z</time></trkpt><trkpt lat="44.84288586003047" lon="11.718542131781057"><ele>4.0</ele><time>2026-03-28T15:30:15.938Z</time></trkpt><trkpt lat="44.84279923888155" lon="11.718777033578023"><ele>4.0</ele><time>2026-03-28T15:30:16.937Z</time></trkpt><trkpt lat="44.84270356668475" lon="11.719035960247274"><ele>4.333333333333333</ele><time>2026-03-28T15:30:17.937Z</time></trkpt><trkpt lat="44.84263353272234" lon="11.719273206424091"><ele>4.666666666666667</ele><time>2026-03-28T15:30:18.937Z</time></trkpt><trkpt lat="44.842542941450695" lon="11.719474135635785"><ele>5.0</ele><time>2026-03-28T15:30:19.938Z</time></trkpt><trkpt lat="44.842476013908374" lon="11.71967613066862"><ele>5.333333333333334</ele><time>2026-03-28T15:30:20.938Z</time></trkpt><trkpt lat="44.842424598923266" lon="11.719893979722023"><ele>5.666666666666667</ele><time>2026-03-28T15:30:21.938Z</time></trkpt><trkpt lat="44.842395389252154" lon="11.720112603225703"><ele>6.0</ele><time>2026-03-28T15:30:22.938Z</time></trkpt><trkpt lat="44.84236310412" lon="11.720331209332844"><ele>6.0</ele><time>2026-03-28T15:30:23.938Z</time></trkpt><trkpt lat="44.84233460704294" lon="11.720566169351018"><ele>6.0</ele><time>2026-03-28T15:30:24.938Z</time></trkpt><trkpt lat="44.84230131681059" lon="11.720793766239911"><ele>6.0</ele><time>2026-03-28T15:30:25.938Z</time></trkpt><trkpt lat="44.84227931376829" lon="11.721019908696274"><ele>5.666666666666667</ele><time>2026-03-28T15:30:26.938Z</time></trkpt><trkpt lat="44.84225364570792" lon="11.72123175721479"><ele>5.333333333333334</ele><time>2026-03-28T15:30:27.938Z</time></trkpt><trkpt lat="44.84224000384116" lon="11.721452105370851"><ele>5.0</ele><time>2026-03-28T15:30:28.938Z</time></trkpt><trkpt lat="44.842226400549734" lon="11.721670275475224"><ele>5.0</ele><time>2026-03-28T15:30:29.938Z</time></trkpt><trkpt lat="44.84222318374022" lon="11.721882477374352"><ele>5.0</ele><time>2026-03-28T15:30:30.938Z</time></trkpt><trkpt lat="44.84222636074286" lon="11.72207977673894"><ele>5.0</ele><time>2026-03-28T15:30:31.938Z</time></trkpt><trkpt lat="44.842216084083894" lon="11.722270152025581"><ele>5.0</ele><time>2026-03-28T15:30:32.938Z</time></trkpt><trkpt lat="44.84221353037083" lon="11.722460133185976"><ele>5.0</ele><time>2026-03-28T15:30:33.938Z</time></trkpt><trkpt lat="44.8422058137855" lon="11.722642619190037"><ele>5.0</ele><time>2026-03-28T15:30:34.938Z</time></trkpt><trkpt lat="44.842198194443114" lon="11.722832194728673"><ele>5.0</ele><time>2026-03-28T15:30:35.938Z</time></trkpt><trkpt lat="44.842196294969945" lon="11.723027615312727"><ele>5.0</ele><time>2026-03-28T15:30:36.938Z</time></trkpt><trkpt lat="44.84218894284618" lon="11.72321999588317"><ele>4.666666666666667</ele><time>2026-03-28T15:30:37.937Z</time></trkpt><trkpt lat="44.84218719364056" lon="11.723425173474556"><ele>4.333333333333333</ele><time>2026-03-28T15:30:38.937Z</time></trkpt><trkpt lat="44.84219672676367" lon="11.723639345514364"><ele>4.0</ele><time>2026-03-28T15:30:39.937Z</time></trkpt><trkpt lat="44.84220543401628" lon="11.72386525555707"><ele>3.6666666666666665</ele><time>2026-03-28T15:30:40.937Z</time></trkpt><trkpt lat="44.84216685130124" lon="11.72409605806882"><ele>3.333333333333333</ele><time>2026-03-28T15:30:41.937Z</time></trkpt><trkpt lat="44.84216953287208" lon="11.724343218620472"><ele>3.0</ele><time>2026-03-28T15:30:42.937Z</time></trkpt><trkpt lat="44.842170863596714" lon="11.724600947354569"><ele>3.0</ele><time>2026-03-28T15:30:43.937Z</time></trkpt><trkpt lat="44.84217252263356" lon="11.72489606631058"><ele>3.0</ele><time>2026-03-28T15:30:44.937Z</time></trkpt><trkpt lat="44.842191863764185" lon="11.725217078479245"><ele>3.0</ele><time>2026-03-28T15:30:45.937Z</time></trkpt><trkpt lat="44.842193133438386" lon="11.725544945412482"><ele>3.5</ele><time>2026-03-28T15:30:46.937Z</time></trkpt><trkpt lat="44.84218315057394" lon="11.725880027906706"><ele>4.0</ele><time>2026-03-28T15:30:47.937Z</time></trkpt><trkpt lat="44.84218799806602" lon="11.726211906862094"><ele>4.0</ele><time>2026-03-28T15:30:48.937Z</time></trkpt><trkpt lat="44.84219277225557" lon="11.726538767324792"><ele>4.0</ele><time>2026-03-28T15:30:49.937Z</time></trkpt><trkpt lat="44.84219725021677" lon="11.726844375003113"><ele>4.0</ele><time>2026-03-28T15:30:50.937Z</time></trkpt><trkpt lat="44.84221540417173" lon="11.727152225278921"><ele>4.333333333333333</ele><time>2026-03-28T15:30:51.937Z</time></trkpt><trkpt lat="44.842201805553564" lon="11.727470076825105"><ele>4.666666666666667</ele><time>2026-03-28T15:30:52.937Z</time></trkpt><trkpt lat="44.84220357873059" lon="11.727783042695798"><ele>5.0</ele><time>2026-03-28T15:30:53.937Z</time></trkpt><trkpt lat="44.84223822059546" lon="11.728095641314148"><ele>5.0</ele><time>2026-03-28T15:30:54.937Z</time></trkpt><trkpt lat="44.84223843443774" lon="11.728404198120387"><ele>5.0</ele><time>2026-03-28T15:30:55.937Z</time></trkpt><trkpt lat="44.8422380598227" lon="11.728729297031197"><ele>5.0</ele><time>2026-03-28T15:30:56.937Z</time></trkpt><trkpt lat="44.84222821751988" lon="11.729038212193137"><ele>4.666666666666667</ele><time>2026-03-28T15:30:57.937Z</time></trkpt><trkpt lat="44.84223287645559" lon="11.729360013919418"><ele>4.333333333333333</ele><time>2026-03-28T15:30:58.937Z</time></trkpt><trkpt lat="44.842220536560994" lon="11.729666569547822"><ele>4.0</ele><time>2026-03-28T15:30:59.937Z</time></trkpt><trkpt lat="44.84220243783603" lon="11.729968495430214"><ele>3.6666666666666665</ele><time>2026-03-28T15:31:00.937Z</time></trkpt><trkpt lat="44.84218128568969" lon="11.730277096947944"><ele>3.333333333333333</ele><time>2026-03-28T15:31:01.937Z</time></trkpt><trkpt lat="44.84216707441987" lon="11.730585643620177"><ele>3.0</ele><time>2026-03-28T15:31:02.937Z</time></trkpt><trkpt lat="44.842144478893744" lon="11.730877605276495"><ele>2.6666666666666665</ele><time>2026-03-28T15:31:03.937Z</time></trkpt><trkpt lat="44.84213094472932" lon="11.731159894404517"><ele>2.333333333333333</ele><time>2026-03-28T15:31:04.937Z</time></trkpt><trkpt lat="44.84211707116577" lon="11.731430005622277"><ele>2.0</ele><time>2026-03-28T15:31:05.937Z</time></trkpt><trkpt lat="44.842065719437" lon="11.731704503812681"><ele>2.0</ele><time>2026-03-28T15:31:06.937Z</time></trkpt><trkpt lat="44.8419957351563" lon="11.73198094108795"><ele>2.0</ele><time>2026-03-28T15:31:07.937Z</time></trkpt><trkpt lat="44.8418964097424" lon="11.732245182749313"><ele>2.0</ele><time>2026-03-28T15:31:08.937Z</time></trkpt><trkpt lat="44.84180000806077" lon="11.732488742886224"><ele>2.333333333333333</ele><time>2026-03-28T15:31:09.937Z</time></trkpt><trkpt lat="44.841704985805336" lon="11.73268828615807"><ele>2.6666666666666665</ele><time>2026-03-28T15:31:10.937Z</time></trkpt><trkpt lat="44.841640777213705" lon="11.732885821495778"><ele>3.0</ele><time>2026-03-28T15:31:11.937Z</time></trkpt><trkpt lat="44.84159123731459" lon="11.73305699427905"><ele>3.2</ele><time>2026-03-28T15:31:12.937Z</time></trkpt><trkpt lat="44.841568670555894" lon="11.733201913693424"><ele>3.4</ele><time>2026-03-28T15:31:13.937Z</time></trkpt><trkpt lat="44.841569032945955" lon="11.733346379839949"><ele>3.6000000000000005</ele><time>2026-03-28T15:31:14.937Z</time></trkpt><trkpt lat="44.84162129292735" lon="11.733477515735625"><ele>3.8000000000000003</ele><time>2026-03-28T15:31:15.937Z</time></trkpt><trkpt lat="44.84166486708422" lon="11.73363251711476"><ele>4.0</ele><time>2026-03-28T15:31:16.937Z</time></trkpt><trkpt lat="44.84173079094922" lon="11.733819548288318"><ele>3.333333333333333</ele><time>2026-03-28T15:31:17.937Z</time></trkpt><trkpt lat="44.84184078132938" lon="11.73407688730775"><ele>2.6666666666666665</ele><time>2026-03-28T15:31:18.937Z</time></trkpt><trkpt lat="44.841931244335896" lon="11.734332194895686"><ele>2.0</ele><time>2026-03-28T15:31:19.937Z</time></trkpt><trkpt lat="44.84204302649621" lon="11.734601680188586"><ele>2.0</ele><time>2026-03-28T15:31:20.936Z</time></trkpt><trkpt lat="44.84213029718334" lon="11.73488626563213"><ele>2.0</ele><time>2026-03-28T15:31:21.936Z</time></trkpt><trkpt lat="44.842222026874296" lon="11.735175484356892"><ele>2.0</ele><time>2026-03-28T15:31:22.936Z</time></trkpt><trkpt lat="44.84231159955891" lon="11.735480842612885"><ele>2.0</ele><time>2026-03-28T15:31:23.936Z</time></trkpt><trkpt lat="44.842399770422155" lon="11.735791482378966"><ele>2.0</ele><time>2026-03-28T15:31:24.936Z</time></trkpt><trkpt lat="44.842482446965285" lon="11.736099815670055"><ele>2.0</ele><time>2026-03-28T15:31:25.936Z</time></trkpt><trkpt lat="44.84256470627787" lon="11.736409058548006"><ele>2.0</ele><time>2026-03-28T15:31:26.936Z</time></trkpt><trkpt lat="44.842643439208764" lon="11.736709322844685"><ele>2.0</ele><time>2026-03-28T15:31:27.936Z</time></trkpt><trkpt lat="44.84272093237967" lon="11.73700345468124"><ele>2.0</ele><time>2026-03-28T15:31:28.936Z</time></trkpt><trkpt lat="44.84280630690451" lon="11.737289528548908"><ele>2.0</ele><time>2026-03-28T15:31:29.936Z</time></trkpt><trkpt lat="44.84290111065477" lon="11.737553281228108"><ele>2.0</ele><time>2026-03-28T15:31:30.936Z</time></trkpt><trkpt lat="44.84300149338759" lon="11.737811671257303"><ele>2.0</ele><time>2026-03-28T15:31:31.936Z</time></trkpt><trkpt lat="44.843098642234445" lon="11.73804913258426"><ele>2.0</ele><time>2026-03-28T15:31:32.936Z</time></trkpt><trkpt lat="44.843196464658014" lon="11.73828352239901"><ele>2.0</ele><time>2026-03-28T15:31:33.936Z</time></trkpt><trkpt lat="44.84328947700818" lon="11.73851059994969"><ele>2.0</ele><time>2026-03-28T15:31:34.936Z</time></trkpt><trkpt lat="44.84337746196131" lon="11.738733524771183"><ele>2.0</ele><time>2026-03-28T15:31:35.936Z</time></trkpt><trkpt lat="44.84346404909942" lon="11.738971346930656"><ele>2.6666666666666665</ele><time>2026-03-28T15:31:36.936Z</time></trkpt><trkpt lat="44.843530248542976" lon="11.739218943840285"><ele>3.333333333333333</ele><time>2026-03-28T15:31:37.936Z</time></trkpt><trkpt lat="44.84357929735343" lon="11.739490255082169"><ele>4.0</ele><time>2026-03-28T15:31:38.936Z</time></trkpt><trkpt lat="44.843629559971234" lon="11.739798600742935"><ele>4.0</ele><time>2026-03-28T15:31:39.936Z</time></trkpt><trkpt lat="44.84371161307774" lon="11.740123525062586"><ele>4.0</ele><time>2026-03-28T15:31:40.936Z</time></trkpt><trkpt lat="44.84377824235485" lon="11.740461404746029"><ele>4.0</ele><time>2026-03-28T15:31:41.936Z</time></trkpt><trkpt lat="44.84383702238102" lon="11.740820316684507"><ele>4.0</ele><time>2026-03-28T15:31:42.936Z</time></trkpt><trkpt lat="44.843897141440365" lon="11.741185257545661"><ele>4.0</ele><time>2026-03-28T15:31:43.936Z</time></trkpt><trkpt lat="44.843959678378916" lon="11.741530625218527"><ele>4.0</ele><time>2026-03-28T15:31:44.936Z</time></trkpt><trkpt lat="44.8440209557074" lon="11.741891552942635"><ele>4.5</ele><time>2026-03-28T15:31:45.936Z</time></trkpt><trkpt lat="44.844076502346695" lon="11.742233914456687"><ele>5.0</ele><time>2026-03-28T15:31:46.936Z</time></trkpt><trkpt lat="44.84412789227624" lon="11.742561032421591"><ele>4.666666666666667</ele><time>2026-03-28T15:31:47.936Z</time></trkpt><trkpt lat="44.844187512277834" lon="11.74287029762848"><ele>4.333333333333333</ele><time>2026-03-28T15:31:48.936Z</time></trkpt><trkpt lat="44.84425194939072" lon="11.743167658839097"><ele>4.0</ele><time>2026-03-28T15:31:49.936Z</time></trkpt><trkpt lat="44.844320879618216" lon="11.743486968455771"><ele>4.0</ele><time>2026-03-28T15:31:50.936Z</time></trkpt><trkpt lat="44.84440061224797" lon="11.743802732685083"><ele>4.0</ele><time>2026-03-28T15:31:51.936Z</time></trkpt><trkpt lat="44.844472026006784" lon="11.744144095033418"><ele>4.5</ele><time>2026-03-28T15:31:52.936Z</time></trkpt><trkpt lat="44.844532427487614" lon="11.744490313018963"><ele>5.0</ele><time>2026-03-28T15:31:53.936Z</time></trkpt><trkpt lat="44.84452392478814" lon="11.744863388110566"><ele>5.0</ele><time>2026-03-28T15:31:54.936Z</time></trkpt><trkpt lat="44.84459141944934" lon="11.745207475992654"><ele>5.0</ele><time>2026-03-28T15:31:55.936Z</time></trkpt><trkpt lat="44.84466215577789" lon="11.745537861992272"><ele>5.0</ele><time>2026-03-28T15:31:56.936Z</time></trkpt><trkpt lat="44.844730977192484" lon="11.745830725773358"><ele>5.0</ele><time>2026-03-28T15:31:57.936Z</time></trkpt><trkpt lat="44.8448123394482" lon="11.74609239506768"><ele>5.0</ele><time>2026-03-28T15:31:58.936Z</time></trkpt><trkpt lat="44.844917220588506" lon="11.74636006690799"><ele>5.0</ele><time>2026-03-28T15:31:59.936Z</time></trkpt><trkpt lat="44.84505362691883" lon="11.74661336299782"><ele>5.0</ele><time>2026-03-28T15:32:00.936Z</time></trkpt><trkpt lat="44.84518256739079" lon="11.74681994205807"><ele>5.0</ele><time>2026-03-28T15:32:01.936Z</time></trkpt><trkpt lat="44.845303079889796" lon="11.747008819693454"><ele>5.333333333333334</ele><time>2026-03-28T15:32:02.936Z</time></trkpt><trkpt lat="44.84540486274457" lon="11.747141296150497"><ele>5.666666666666667</ele><time>2026-03-28T15:32:03.935Z</time></trkpt><trkpt lat="44.84548603230132" lon="11.747329662082592"><ele>6.0</ele><time>2026-03-28T15:32:04.935Z</time></trkpt><trkpt lat="44.845579724313154" lon="11.747536907314657"><ele>5.333333333333333</ele><time>2026-03-28T15:32:05.935Z</time></trkpt><trkpt lat="44.84562710618153" lon="11.747750317569967"><ele>4.666666666666666</ele><time>2026-03-28T15:32:06.935Z</time></trkpt><trkpt lat="44.84566894832769" lon="11.747998037623931"><ele>4.0</ele><time>2026-03-28T15:32:07.935Z</time></trkpt><trkpt lat="44.84569469462178" lon="11.748297586172903"><ele>4.0</ele><time>2026-03-28T15:32:08.935Z</time></trkpt><trkpt lat="44.84572164184059" lon="11.748642759611524"><ele>4.0</ele><time>2026-03-28T15:32:09.935Z</time></trkpt><trkpt lat="44.845750856402695" lon="11.749023826875627"><ele>3.5</ele><time>2026-03-28T15:32:10.935Z</time></trkpt><trkpt lat="44.8457807283598" lon="11.749421825267229"><ele>3.0</ele><time>2026-03-28T15:32:11.935Z</time></trkpt><trkpt lat="44.84581047909148" lon="11.749832453616593"><ele>3.5</ele><time>2026-03-28T15:32:12.937Z</time></trkpt><trkpt lat="44.84584023951128" lon="11.75025299919234"><ele>4.0</ele><time>2026-03-28T15:32:13.937Z</time></trkpt><trkpt lat="44.84586998978411" lon="11.750678050060497"><ele>3.5</ele><time>2026-03-28T15:32:14.937Z</time></trkpt><trkpt lat="44.845901486081424" lon="11.751108269370931"><ele>3.0</ele><time>2026-03-28T15:32:15.936Z</time></trkpt><trkpt lat="44.84593400970704" lon="11.751551415524304"><ele>3.0</ele><time>2026-03-28T15:32:16.936Z</time></trkpt><trkpt lat="44.84596566502734" lon="11.751986935417168"><ele>3.0</ele><time>2026-03-28T15:32:17.936Z</time></trkpt><trkpt lat="44.845996890313025" lon="11.752426006828228"><ele>3.0</ele><time>2026-03-28T15:32:18.936Z</time></trkpt><trkpt lat="44.846027709362275" lon="11.752870082245611"><ele>3.0</ele><time>2026-03-28T15:32:19.937Z</time></trkpt><trkpt lat="44.846058639596045" lon="11.753305923195397"><ele>2.5</ele><time>2026-03-28T15:32:20.937Z</time></trkpt><trkpt lat="44.84608963107396" lon="11.75373066783204"><ele>2.0</ele><time>2026-03-28T15:32:21.937Z</time></trkpt><trkpt lat="44.84612027744201" lon="11.754147781444079"><ele>2.0</ele><time>2026-03-28T15:32:22.937Z</time></trkpt><trkpt lat="44.84615074488839" lon="11.754562549967194"><ele>2.0</ele><time>2026-03-28T15:32:23.937Z</time></trkpt><trkpt lat="44.846231846257595" lon="11.754969781938577"><ele>2.0</ele><time>2026-03-28T15:32:24.936Z</time></trkpt><trkpt lat="44.84626021098028" lon="11.75538487295428"><ele>2.0</ele><time>2026-03-28T15:32:25.936Z</time></trkpt><trkpt lat="44.84628709267011" lon="11.755790709998587"><ele>2.5</ele><time>2026-03-28T15:32:26.936Z</time></trkpt><trkpt lat="44.84631330431991" lon="11.756203062858843"><ele>3.0</ele><time>2026-03-28T15:32:27.936Z</time></trkpt><trkpt lat="44.846338373739925" lon="11.756608209958086"><ele>2.5</ele><time>2026-03-28T15:32:28.936Z</time></trkpt><trkpt lat="44.846364772482815" lon="11.757011310495448"><ele>2.0</ele><time>2026-03-28T15:32:29.936Z</time></trkpt><trkpt lat="44.84640274420092" lon="11.757422126521398"><ele>2.0</ele><time>2026-03-28T15:32:30.936Z</time></trkpt><trkpt lat="44.84644385335425" lon="11.757851750794266"><ele>2.0</ele><time>2026-03-28T15:32:31.936Z</time></trkpt><trkpt lat="44.84648682849353" lon="11.758282130756012"><ele>2.0</ele><time>2026-03-28T15:32:32.936Z</time></trkpt><trkpt lat="44.84652386482601" lon="11.758717727752083"><ele>2.0</ele><time>2026-03-28T15:32:33.936Z</time></trkpt><trkpt lat="44.84648257546686" lon="11.75916521105826"><ele>2.5</ele><time>2026-03-28T15:32:34.936Z</time></trkpt><trkpt lat="44.846512903998125" lon="11.759595528399824"><ele>3.0</ele><time>2026-03-28T15:32:35.936Z</time></trkpt><trkpt lat="44.8465439268274" lon="11.76003443383962"><ele>2.0</ele><time>2026-03-28T15:32:36.936Z</time></trkpt><trkpt lat="44.84657637213226" lon="11.760477318632786"><ele>1.0</ele><time>2026-03-28T15:32:37.936Z</time></trkpt><trkpt lat="44.8466079729784" lon="11.760908676467965"><ele>0.0</ele><time>2026-03-28T15:32:38.936Z</time></trkpt><trkpt lat="44.8466378849952" lon="11.761314681953602"><ele>-1.0</ele><time>2026-03-28T15:32:39.936Z</time></trkpt><trkpt lat="44.846665468637084" lon="11.761692163796939"><ele>0.5</ele><time>2026-03-28T15:32:40.936Z</time></trkpt><trkpt lat="44.8466913857009" lon="11.762052113986837"><ele>2.0</ele><time>2026-03-28T15:32:41.936Z</time></trkpt><trkpt lat="44.84671462124719" lon="11.762374350309718"><ele>2.0</ele><time>2026-03-28T15:32:42.936Z</time></trkpt><trkpt lat="44.84673702776685" lon="11.762685122469465"><ele>2.0</ele><time>2026-03-28T15:32:43.936Z</time></trkpt><trkpt lat="44.84675956988942" lon="11.762986975155167"><ele>2.0</ele><time>2026-03-28T15:32:44.936Z</time></trkpt><trkpt lat="44.84678171697172" lon="11.76328000567445"><ele>2.333333333333333</ele><time>2026-03-28T15:32:45.936Z</time></trkpt><trkpt lat="44.846802877408656" lon="11.763565669703713"><ele>2.6666666666666665</ele><time>2026-03-28T15:32:46.936Z</time></trkpt><trkpt lat="44.84685408782611" lon="11.763845150700176"><ele>3.0</ele><time>2026-03-28T15:32:47.936Z</time></trkpt><trkpt lat="44.846873160077664" lon="11.76410460137843"><ele>3.0</ele><time>2026-03-28T15:32:48.936Z</time></trkpt><trkpt lat="44.84688252758573" lon="11.764331204320287"><ele>3.0</ele><time>2026-03-28T15:32:49.936Z</time></trkpt><trkpt lat="44.8468934625798" lon="11.764529186216352"><ele>3.0</ele><time>2026-03-28T15:32:50.936Z</time></trkpt><trkpt lat="44.846899587901255" lon="11.76470124687979"><ele>3.0</ele><time>2026-03-28T15:32:51.936Z</time></trkpt><trkpt lat="44.84688573047562" lon="11.764832231363519"><ele>3.1666666666666665</ele><time>2026-03-28T15:32:52.935Z</time></trkpt><trkpt lat="44.84686965175696" lon="11.764946314030718"><ele>3.333333333333333</ele><time>2026-03-28T15:32:53.935Z</time></trkpt><trkpt lat="44.84684378645386" lon="11.765083251197103"><ele>3.5</ele><time>2026-03-28T15:32:55.935Z</time></trkpt><trkpt lat="44.846856369650965" lon="11.765176312105481"><ele>3.6666666666666665</ele><time>2026-03-28T15:32:57.935Z</time></trkpt><trkpt lat="44.846965731558555" lon="11.765200109012085"><ele>3.833333333333333</ele><time>2026-03-28T15:32:59.935Z</time></trkpt><trkpt lat="44.847043297539905" lon="11.765182266326278"><ele>4.0</ele><time>2026-03-28T15:33:00.935Z</time></trkpt><trkpt lat="44.847121723481" lon="11.765181183710842"><ele>4.0</ele><time>2026-03-28T15:33:01.935Z</time></trkpt><trkpt lat="44.84720906933781" lon="11.765205826864669"><ele>4.0</ele><time>2026-03-28T15:33:02.935Z</time></trkpt><trkpt lat="44.84729184316019" lon="11.765221394274956"><ele>4.0</ele><time>2026-03-28T15:33:03.935Z</time></trkpt><trkpt lat="44.84738337416171" lon="11.765231461114452"><ele>4.0</ele><time>2026-03-28T15:33:04.935Z</time></trkpt><trkpt lat="44.84749066283073" lon="11.76524663117052"><ele>4.0</ele><time>2026-03-28T15:33:05.935Z</time></trkpt><trkpt lat="44.84761474394748" lon="11.765206308087413"><ele>4.25</ele><time>2026-03-28T15:33:06.935Z</time></trkpt><trkpt lat="44.847734434983956" lon="11.765139730081337"><ele>4.5</ele><time>2026-03-28T15:33:07.935Z</time></trkpt><trkpt lat="44.84786226388578" lon="11.765054143917332"><ele>4.75</ele><time>2026-03-28T15:33:08.935Z</time></trkpt><trkpt lat="44.84799150054686" lon="11.76494753115927"><ele>5.0</ele><time>2026-03-28T15:33:09.935Z</time></trkpt><trkpt lat="44.84813252837692" lon="11.764856997280392"><ele>5.0</ele><time>2026-03-28T15:33:10.935Z</time></trkpt><trkpt lat="44.84827339600771" lon="11.76476637899744"><ele>5.0</ele><time>2026-03-28T15:33:11.935Z</time></trkpt><trkpt lat="44.84840052922473" lon="11.764675491737536"><ele>5.0</ele><time>2026-03-28T15:33:12.935Z</time></trkpt><trkpt lat="44.84852319898927" lon="11.764589794276246"><ele>5.0</ele><time>2026-03-28T15:33:13.935Z</time></trkpt><trkpt lat="44.848635575076955" lon="11.764499354491239"><ele>4.8</ele><time>2026-03-28T15:33:14.935Z</time></trkpt><trkpt lat="44.848735485971154" lon="11.764426670431883"><ele>4.6</ele><time>2026-03-28T15:33:15.935Z</time></trkpt><trkpt lat="44.848835093548466" lon="11.764360677877697"><ele>4.4</ele><time>2026-03-28T15:33:16.935Z</time></trkpt><trkpt lat="44.84893001946336" lon="11.764299943923733"><ele>4.2</ele><time>2026-03-28T15:33:17.935Z</time></trkpt><trkpt lat="44.84902421624621" lon="11.764263483224813"><ele>4.0</ele><time>2026-03-28T15:33:18.935Z</time></trkpt><trkpt lat="44.84912046821658" lon="11.764308088471255"><ele>4.0</ele><time>2026-03-28T15:33:19.935Z</time></trkpt><trkpt lat="44.849220030305574" lon="11.764369485834294"><ele>4.0</ele><time>2026-03-28T15:33:20.935Z</time></trkpt><trkpt lat="44.849294917846855" lon="11.764475713862966"><ele>4.0</ele><time>2026-03-28T15:33:21.935Z</time></trkpt><trkpt lat="44.849368829299145" lon="11.764598394152328"><ele>4.0</ele><time>2026-03-28T15:33:22.935Z</time></trkpt><trkpt lat="44.84945286716636" lon="11.764745002911777"><ele>4.0</ele><time>2026-03-28T15:33:23.935Z</time></trkpt><trkpt lat="44.84955015889794" lon="11.764913841610111"><ele>4.0</ele><time>2026-03-28T15:33:24.935Z</time></trkpt><trkpt lat="44.84964791891963" lon="11.765064683954458"><ele>4.0</ele><time>2026-03-28T15:33:25.935Z</time></trkpt><trkpt lat="44.849752373369746" lon="11.765183245048977"><ele>4.0</ele><time>2026-03-28T15:33:26.935Z</time></trkpt><trkpt lat="44.84983497883792" lon="11.765337962065187"><ele>4.25</ele><time>2026-03-28T15:33:27.935Z</time></trkpt><trkpt lat="44.84992573228072" lon="11.765473050759175"><ele>4.5</ele><time>2026-03-28T15:33:28.935Z</time></trkpt><trkpt lat="44.85001325841771" lon="11.765603335507889"><ele>4.75</ele><time>2026-03-28T15:33:29.935Z</time></trkpt><trkpt lat="44.85011526392757" lon="11.765722207426284"><ele>5.0</ele><time>2026-03-28T15:33:30.935Z</time></trkpt><trkpt lat="44.850183432794466" lon="11.765847367339946"><ele>5.0</ele><time>2026-03-28T15:33:31.935Z</time></trkpt><trkpt lat="44.85025852825302" lon="11.76596805357802"><ele>5.0</ele><time>2026-03-28T15:33:32.935Z</time></trkpt><trkpt lat="44.850319276914504" lon="11.766064287001303"><ele>5.0</ele><time>2026-03-28T15:33:33.935Z</time></trkpt><trkpt lat="44.85037041380286" lon="11.766148310824434"><ele>5.0</ele><time>2026-03-28T15:33:34.935Z</time></trkpt><trkpt lat="44.85042092469411" lon="11.766265640471522"><ele>5.0</ele><time>2026-03-28T15:33:36.934Z</time></trkpt><trkpt lat="44.850344003376435" lon="11.766427888125415"><ele>5.0</ele><time>2026-03-28T15:33:39.934Z</time></trkpt><trkpt lat="44.85027667712212" lon="11.7665140875821"><ele>5.0</ele><time>2026-03-28T15:33:40.934Z</time></trkpt><trkpt lat="44.85019045852066" lon="11.76664242421389"><ele>5.0</ele><time>2026-03-28T15:33:41.934Z</time></trkpt><trkpt lat="44.850097283562455" lon="11.766794708673501"><ele>5.0</ele><time>2026-03-28T15:33:42.934Z</time></trkpt><trkpt lat="44.850004498119716" lon="11.766953783081464"><ele>5.666666666666667</ele><time>2026-03-28T15:33:43.934Z</time></trkpt><trkpt lat="44.84989820605764" lon="11.767133696058119"><ele>6.333333333333334</ele><time>2026-03-28T15:33:44.934Z</time></trkpt><trkpt lat="44.84978637342192" lon="11.767335136014518"><ele>7.0</ele><time>2026-03-28T15:33:45.934Z</time></trkpt><trkpt lat="44.849666099022166" lon="11.767549444531312"><ele>6.333333333333334</ele><time>2026-03-28T15:33:46.934Z</time></trkpt><trkpt lat="44.84954634305173" lon="11.767787929585808"><ele>5.666666666666667</ele><time>2026-03-28T15:33:47.934Z</time></trkpt><trkpt lat="44.84942091541817" lon="11.768010489997367"><ele>5.0</ele><time>2026-03-28T15:33:48.934Z</time></trkpt><trkpt lat="44.84928918892726" lon="11.768241365948253"><ele>5.0</ele><time>2026-03-28T15:33:49.934Z</time></trkpt><trkpt lat="44.84914366644195" lon="11.768471584490175"><ele>5.0</ele><time>2026-03-28T15:33:50.934Z</time></trkpt><trkpt lat="44.84899985206253" lon="11.7687190321049"><ele>5.0</ele><time>2026-03-28T15:33:51.934Z</time></trkpt><trkpt lat="44.84885568593739" lon="11.768975564479383"><ele>4.5</ele><time>2026-03-28T15:33:52.934Z</time></trkpt><trkpt lat="44.84871275795212" lon="11.769233154001055"><ele>4.0</ele><time>2026-03-28T15:33:53.934Z</time></trkpt><trkpt lat="44.84856805402335" lon="11.769492472011718"><ele>4.0</ele><time>2026-03-28T15:33:54.934Z</time></trkpt><trkpt lat="44.84842792848733" lon="11.769750015328233"><ele>4.0</ele><time>2026-03-28T15:33:55.934Z</time></trkpt><trkpt lat="44.84828469117887" lon="11.769987344114522"><ele>3.5</ele><time>2026-03-28T15:33:56.934Z</time></trkpt><trkpt lat="44.84815527998679" lon="11.770257444342102"><ele>3.0</ele><time>2026-03-28T15:33:57.934Z</time></trkpt><trkpt lat="44.848036668516855" lon="11.770532226378926"><ele>3.0</ele><time>2026-03-28T15:33:58.934Z</time></trkpt><trkpt lat="44.84792335293505" lon="11.770833466508492"><ele>3.0</ele><time>2026-03-28T15:33:59.934Z</time></trkpt><trkpt lat="44.84784416201865" lon="11.771150467668274"><ele>3.0</ele><time>2026-03-28T15:34:00.934Z</time></trkpt><trkpt lat="44.847754403356625" lon="11.771458784271434"><ele>3.0</ele><time>2026-03-28T15:34:01.934Z</time></trkpt><trkpt lat="44.84765255235409" lon="11.771765652721909"><ele>3.5</ele><time>2026-03-28T15:34:02.934Z</time></trkpt><trkpt lat="44.847545696334194" lon="11.772081444593054"><ele>4.0</ele><time>2026-03-28T15:34:03.934Z</time></trkpt><trkpt lat="44.84740045401266" lon="11.772390958274872"><ele>4.0</ele><time>2026-03-28T15:34:04.934Z</time></trkpt><trkpt lat="44.8472620740124" lon="11.77271896912324"><ele>4.0</ele><time>2026-03-28T15:34:05.934Z</time></trkpt><trkpt lat="44.84712172578476" lon="11.773051759624355"><ele>4.0</ele><time>2026-03-28T15:34:06.934Z</time></trkpt><trkpt lat="44.84698424982766" lon="11.773377939038415"><ele>4.0</ele><time>2026-03-28T15:34:07.934Z</time></trkpt><trkpt lat="44.846839627684275" lon="11.773707423595226"><ele>4.5</ele><time>2026-03-28T15:34:08.934Z</time></trkpt><trkpt lat="44.84669577464581" lon="11.774035527521827"><ele>5.0</ele><time>2026-03-28T15:34:09.934Z</time></trkpt><trkpt lat="44.84655253106535" lon="11.77436082310463"><ele>4.0</ele><time>2026-03-28T15:34:10.934Z</time></trkpt><trkpt lat="44.84640309248626" lon="11.774669438841244"><ele>3.0</ele><time>2026-03-28T15:34:11.934Z</time></trkpt><trkpt lat="44.84625295584824" lon="11.774965268537512"><ele>2.5</ele><time>2026-03-28T15:34:12.934Z</time></trkpt><trkpt lat="44.84610946533563" lon="11.775259481517516"><ele>2.0</ele><time>2026-03-28T15:34:13.934Z</time></trkpt><trkpt lat="44.84596378733701" lon="11.775551459938532"><ele>2.5</ele><time>2026-03-28T15:34:14.934Z</time></trkpt><trkpt lat="44.84583998028608" lon="11.775871001228333"><ele>3.0</ele><time>2026-03-28T15:34:15.934Z</time></trkpt><trkpt lat="44.84571711284217" lon="11.77617795741574"><ele>3.0</ele><time>2026-03-28T15:34:16.934Z</time></trkpt><trkpt lat="44.84560458232505" lon="11.776490011543697"><ele>3.0</ele><time>2026-03-28T15:34:17.934Z</time></trkpt><trkpt lat="44.84550179727669" lon="11.776805689271013"><ele>3.0</ele><time>2026-03-28T15:34:18.936Z</time></trkpt><trkpt lat="44.845412069185464" lon="11.777111482208035"><ele>3.0</ele><time>2026-03-28T15:34:19.935Z</time></trkpt><trkpt lat="44.84533253602885" lon="11.77740987285749"><ele>3.5</ele><time>2026-03-28T15:34:20.935Z</time></trkpt><trkpt lat="44.845251484873245" lon="11.77770817253589"><ele>4.0</ele><time>2026-03-28T15:34:21.935Z</time></trkpt><trkpt lat="44.845179942677845" lon="11.778010863840636"><ele>4.0</ele><time>2026-03-28T15:34:22.935Z</time></trkpt><trkpt lat="44.84512855349448" lon="11.77830106018646"><ele>4.0</ele><time>2026-03-28T15:34:23.935Z</time></trkpt><trkpt lat="44.84509205739271" lon="11.778587304353378"><ele>4.0</ele><time>2026-03-28T15:34:24.935Z</time></trkpt><trkpt lat="44.845057953607096" lon="11.778867972000757"><ele>4.0</ele><time>2026-03-28T15:34:25.935Z</time></trkpt><trkpt lat="44.845022981383" lon="11.779141938404015"><ele>4.0</ele><time>2026-03-28T15:34:26.935Z</time></trkpt><trkpt lat="44.844956733946965" lon="11.779412898732938"><ele>4.0</ele><time>2026-03-28T15:34:27.935Z</time></trkpt><trkpt lat="44.8448769317034" lon="11.779680025346577"><ele>3.6666666666666665</ele><time>2026-03-28T15:34:28.935Z</time></trkpt><trkpt lat="44.844790091573095" lon="11.77994182855706"><ele>3.333333333333333</ele><time>2026-03-28T15:34:29.935Z</time></trkpt><trkpt lat="44.84470332526192" lon="11.780209260391976"><ele>3.0</ele><time>2026-03-28T15:34:30.935Z</time></trkpt><trkpt lat="44.844619545015576" lon="11.78047143614005"><ele>3.0</ele><time>2026-03-28T15:34:31.935Z</time></trkpt><trkpt lat="44.84454252419505" lon="11.780730514615849"><ele>3.0</ele><time>2026-03-28T15:34:32.935Z</time></trkpt><trkpt lat="44.84447440056453" lon="11.780979360521906"><ele>3.0</ele><time>2026-03-28T15:34:33.935Z</time></trkpt><trkpt lat="44.844409756485526" lon="11.781217261738636"><ele>2.6666666666666665</ele><time>2026-03-28T15:34:34.935Z</time></trkpt><trkpt lat="44.84434661628803" lon="11.781462901008132"><ele>2.333333333333333</ele><time>2026-03-28T15:34:35.935Z</time></trkpt><trkpt lat="44.84428661968609" lon="11.78171873148209"><ele>2.0</ele><time>2026-03-28T15:34:36.935Z</time></trkpt><trkpt lat="44.844233312083894" lon="11.781988019785206"><ele>2.333333333333333</ele><time>2026-03-28T15:34:37.935Z</time></trkpt><trkpt lat="44.84418990085451" lon="11.782268522181145"><ele>2.6666666666666665</ele><time>2026-03-28T15:34:38.934Z</time></trkpt><trkpt lat="44.844154283532845" lon="11.782602423377693"><ele>3.0</ele><time>2026-03-28T15:34:39.934Z</time></trkpt><trkpt lat="44.84412655012846" lon="11.782971658256498"><ele>3.0</ele><time>2026-03-28T15:34:40.934Z</time></trkpt><trkpt lat="44.8440983469292" lon="11.783377405598074"><ele>3.0</ele><time>2026-03-28T15:34:41.934Z</time></trkpt><trkpt lat="44.84406991778798" lon="11.783800920674528"><ele>3.0</ele><time>2026-03-28T15:34:42.934Z</time></trkpt><trkpt lat="44.84404215844129" lon="11.78423329481709"><ele>3.0</ele><time>2026-03-28T15:34:43.934Z</time></trkpt><trkpt lat="44.84401536001917" lon="11.784667537588508"><ele>3.5</ele><time>2026-03-28T15:34:44.934Z</time></trkpt><trkpt lat="44.843992050915055" lon="11.785118559365593"><ele>4.0</ele><time>2026-03-28T15:34:45.934Z</time></trkpt><trkpt lat="44.84397249094272" lon="11.785565077638786"><ele>3.0</ele><time>2026-03-28T15:34:46.934Z</time></trkpt><trkpt lat="44.84395601398394" lon="11.786011675056688"><ele>2.0</ele><time>2026-03-28T15:34:47.934Z</time></trkpt><trkpt lat="44.843941282499166" lon="11.786453264565676"><ele>2.0</ele><time>2026-03-28T15:34:48.934Z</time></trkpt><trkpt lat="44.8439275612218" lon="11.786875398854153"><ele>2.0</ele><time>2026-03-28T15:34:49.934Z</time></trkpt><trkpt lat="44.843915295198556" lon="11.787269079552486"><ele>2.0</ele><time>2026-03-28T15:34:50.934Z</time></trkpt><trkpt lat="44.8439033937392" lon="11.787651059613568"><ele>2.0</ele><time>2026-03-28T15:34:51.934Z</time></trkpt><trkpt lat="44.84389192294762" lon="11.788019217433247"><ele>2.5</ele><time>2026-03-28T15:34:52.934Z</time></trkpt><trkpt lat="44.843879673185576" lon="11.788391340772346"><ele>3.0</ele><time>2026-03-28T15:34:53.934Z</time></trkpt><trkpt lat="44.84386305861823" lon="11.788755780691549"><ele>3.0</ele><time>2026-03-28T15:34:54.934Z</time></trkpt><trkpt lat="44.84382602346334" lon="11.789121026617618"><ele>3.0</ele><time>2026-03-28T15:34:55.934Z</time></trkpt><trkpt lat="44.843764274204325" lon="11.789479939962655"><ele>3.0</ele><time>2026-03-28T15:34:56.934Z</time></trkpt><trkpt lat="44.843696987355365" lon="11.789845871264276"><ele>3.0</ele><time>2026-03-28T15:34:57.934Z</time></trkpt><trkpt lat="44.84363039685121" lon="11.790208015574079"><ele>2.5</ele><time>2026-03-28T15:34:58.934Z</time></trkpt><trkpt lat="44.843565632380795" lon="11.79056022923752"><ele>2.0</ele><time>2026-03-28T15:34:59.934Z</time></trkpt><trkpt lat="44.843508116081395" lon="11.79087743162948"><ele>3.0</ele><time>2026-03-28T15:35:00.934Z</time></trkpt><trkpt lat="44.84345365490299" lon="11.791180089220228"><ele>4.0</ele><time>2026-03-28T15:35:01.934Z</time></trkpt><trkpt lat="44.84339424858776" lon="11.791492382008808"><ele>4.0</ele><time>2026-03-28T15:35:02.934Z</time></trkpt><trkpt lat="44.84332049970673" lon="11.791812189486565"><ele>4.0</ele><time>2026-03-28T15:35:03.934Z</time></trkpt><trkpt lat="44.84322078665424" lon="11.792139360377302"><ele>4.0</ele><time>2026-03-28T15:35:04.934Z</time></trkpt><trkpt lat="44.843110421379116" lon="11.792477542838164"><ele>4.0</ele><time>2026-03-28T15:35:05.934Z</time></trkpt><trkpt lat="44.842999506840464" lon="11.792828277199806"><ele>3.5</ele><time>2026-03-28T15:35:06.934Z</time></trkpt><trkpt lat="44.842882445581736" lon="11.793174245243154"><ele>3.0</ele><time>2026-03-28T15:35:07.934Z</time></trkpt><trkpt lat="44.84275904729874" lon="11.793513493706968"><ele>3.0</ele><time>2026-03-28T15:35:08.934Z</time></trkpt><trkpt lat="44.84263444447282" lon="11.793841880162045"><ele>3.0</ele><time>2026-03-28T15:35:09.934Z</time></trkpt><trkpt lat="44.842511128975" lon="11.794178891531184"><ele>3.5</ele><time>2026-03-28T15:35:10.934Z</time></trkpt><trkpt lat="44.84237579956216" lon="11.794520261420725"><ele>4.0</ele><time>2026-03-28T15:35:11.934Z</time></trkpt><trkpt lat="44.84223414774246" lon="11.794872213803734"><ele>3.5</ele><time>2026-03-28T15:35:12.934Z</time></trkpt><trkpt lat="44.842091698439106" lon="11.795243914276098"><ele>3.0</ele><time>2026-03-28T15:35:13.934Z</time></trkpt><trkpt lat="44.84194427414338" lon="11.795624468690654"><ele>3.0</ele><time>2026-03-28T15:35:14.934Z</time></trkpt><trkpt lat="44.84178856480723" lon="11.796000128565934"><ele>3.0</ele><time>2026-03-28T15:35:15.934Z</time></trkpt><trkpt lat="44.841649926808685" lon="11.796378477441806"><ele>3.0</ele><time>2026-03-28T15:35:16.934Z</time></trkpt><trkpt lat="44.841507693245696" lon="11.796755990275154"><ele>3.0</ele><time>2026-03-28T15:35:17.934Z</time></trkpt><trkpt lat="44.841352911825616" lon="11.79713006290636"><ele>3.0</ele><time>2026-03-28T15:35:18.934Z</time></trkpt><trkpt lat="44.84121274017092" lon="11.797510296380361"><ele>3.0</ele><time>2026-03-28T15:35:19.934Z</time></trkpt><trkpt lat="44.84105747188676" lon="11.797866296004507"><ele>3.5</ele><time>2026-03-28T15:35:20.934Z</time></trkpt><trkpt lat="44.84091630656618" lon="11.798226630657421"><ele>4.0</ele><time>2026-03-28T15:35:21.933Z</time></trkpt><trkpt lat="44.840778936495255" lon="11.798577277707395"><ele>4.0</ele><time>2026-03-28T15:35:22.933Z</time></trkpt><trkpt lat="44.84064439178281" lon="11.79892249850405"><ele>4.0</ele><time>2026-03-28T15:35:23.933Z</time></trkpt><trkpt lat="44.84051377750644" lon="11.79925863489817"><ele>3.0</ele><time>2026-03-28T15:35:24.933Z</time></trkpt><trkpt lat="44.84038716710207" lon="11.799584464882527"><ele>2.0</ele><time>2026-03-28T15:35:25.933Z</time></trkpt><trkpt lat="44.840266126981874" lon="11.799899096671723"><ele>2.5</ele><time>2026-03-28T15:35:26.933Z</time></trkpt><trkpt lat="44.8401683395869" lon="11.800218307489162"><ele>3.0</ele><time>2026-03-28T15:35:27.933Z</time></trkpt><trkpt lat="44.84004429998655" lon="11.800503049800847"><ele>3.0</ele><time>2026-03-28T15:35:28.933Z</time></trkpt><trkpt lat="44.83993822437406" lon="11.800784596847723"><ele>3.0</ele><time>2026-03-28T15:35:29.933Z</time></trkpt><trkpt lat="44.83982398147997" lon="11.801037271417115"><ele>3.0</ele><time>2026-03-28T15:35:30.933Z</time></trkpt><trkpt lat="44.8397323936299" lon="11.801317919688522"><ele>3.0</ele><time>2026-03-28T15:35:31.933Z</time></trkpt><trkpt lat="44.83964730263472" lon="11.801612887919674"><ele>3.0</ele><time>2026-03-28T15:35:32.933Z</time></trkpt><trkpt lat="44.839580537229985" lon="11.801889660767033"><ele>3.0</ele><time>2026-03-28T15:35:33.933Z</time></trkpt><trkpt lat="44.83952160327019" lon="11.80216346214694"><ele>3.0</ele><time>2026-03-28T15:35:34.933Z</time></trkpt><trkpt lat="44.83950982231424" lon="11.802436807719225"><ele>3.0</ele><time>2026-03-28T15:35:35.933Z</time></trkpt><trkpt lat="44.839522582874814" lon="11.802726894028739"><ele>3.0</ele><time>2026-03-28T15:35:36.933Z</time></trkpt><trkpt lat="44.83954666297038" lon="11.803026159398415"><ele>3.0</ele><time>2026-03-28T15:35:37.933Z</time></trkpt><trkpt lat="44.839559914398215" lon="11.80333723501283"><ele>3.0</ele><time>2026-03-28T15:35:38.933Z</time></trkpt><trkpt lat="44.839585158480425" lon="11.803647939670826"><ele>3.0</ele><time>2026-03-28T15:35:39.933Z</time></trkpt><trkpt lat="44.8395755134854" lon="11.803956002326911"><ele>3.0</ele><time>2026-03-28T15:35:40.933Z</time></trkpt><trkpt lat="44.839554670538796" lon="11.804292821523116"><ele>3.0</ele><time>2026-03-28T15:35:41.933Z</time></trkpt><trkpt lat="44.839533596506286" lon="11.804630245575988"><ele>3.0</ele><time>2026-03-28T15:35:42.933Z</time></trkpt><trkpt lat="44.83949759109833" lon="11.804985745420304"><ele>3.0</ele><time>2026-03-28T15:35:43.933Z</time></trkpt><trkpt lat="44.83945803213163" lon="11.805348585693507"><ele>3.0</ele><time>2026-03-28T15:35:44.933Z</time></trkpt><trkpt lat="44.839405032433795" lon="11.805707496809115"><ele>3.0</ele><time>2026-03-28T15:35:45.933Z</time></trkpt><trkpt lat="44.83932789140456" lon="11.806071886796456"><ele>4.0</ele><time>2026-03-28T15:35:46.933Z</time></trkpt><trkpt lat="44.83924733120099" lon="11.806446099857688"><ele>5.0</ele><time>2026-03-28T15:35:47.933Z</time></trkpt><trkpt lat="44.83917598471505" lon="11.806817856569621"><ele>5.0</ele><time>2026-03-28T15:35:48.933Z</time></trkpt><trkpt lat="44.83910146171921" lon="11.807181171098158"><ele>5.0</ele><time>2026-03-28T15:35:49.933Z</time></trkpt><trkpt lat="44.839035495944586" lon="11.807528734142926"><ele>4.0</ele><time>2026-03-28T15:35:50.933Z</time></trkpt><trkpt lat="44.838985353794534" lon="11.807844523094587"><ele>3.0</ele><time>2026-03-28T15:35:51.933Z</time></trkpt><trkpt lat="44.83893066039401" lon="11.808117067320735"><ele>2.0</ele><time>2026-03-28T15:35:52.933Z</time></trkpt><trkpt lat="44.83888139821745" lon="11.808357142599409"><ele>2.0</ele><time>2026-03-28T15:35:53.933Z</time></trkpt><trkpt lat="44.83884231313709" lon="11.808567502509074"><ele>2.0</ele><time>2026-03-28T15:35:54.933Z</time></trkpt><trkpt lat="44.83880667388488" lon="11.808725401874339"><ele>2.0</ele><time>2026-03-28T15:35:55.933Z</time></trkpt><trkpt lat="44.838781822640854" lon="11.808842359901158"><ele>2.0</ele><time>2026-03-28T15:35:56.933Z</time></trkpt><trkpt lat="44.83876120629059" lon="11.808947415589477"><ele>2.0</ele><time>2026-03-28T15:35:57.933Z</time></trkpt><trkpt lat="44.83874276839435" lon="11.80906161642612"><ele>2.0</ele><time>2026-03-28T15:35:58.933Z</time></trkpt><trkpt lat="44.8387183607078" lon="11.809205284539459"><ele>2.0</ele><time>2026-03-28T15:35:59.933Z</time></trkpt><trkpt lat="44.83869338639078" lon="11.80934158714586"><ele>2.0</ele><time>2026-03-28T15:36:00.933Z</time></trkpt><trkpt lat="44.83867544280265" lon="11.809461322930757"><ele>2.0</ele><time>2026-03-28T15:36:01.933Z</time></trkpt><trkpt lat="44.83866344052612" lon="11.809558825174602"><ele>2.0</ele><time>2026-03-28T15:36:02.933Z</time></trkpt><trkpt lat="44.8386378981166" lon="11.809718095510076"><ele>2.4000000000000004</ele><time>2026-03-28T15:36:04.932Z</time></trkpt><trkpt lat="44.838613999601606" lon="11.809881468328673"><ele>2.8000000000000003</ele><time>2026-03-28T15:36:06.932Z</time></trkpt><trkpt lat="44.838606456858756" lon="11.809978747418487"><ele>3.2</ele><time>2026-03-28T15:36:07.932Z</time></trkpt><trkpt lat="44.83860401989799" lon="11.810128256899336"><ele>3.6</ele><time>2026-03-28T15:36:08.932Z</time></trkpt><trkpt lat="44.838588559677085" lon="11.81032808479309"><ele>4.0</ele><time>2026-03-28T15:36:09.932Z</time></trkpt><trkpt lat="44.838551387606636" lon="11.81056928684468"><ele>4.0</ele><time>2026-03-28T15:36:10.932Z</time></trkpt><trkpt lat="44.83851849571341" lon="11.810822114947946"><ele>4.0</ele><time>2026-03-28T15:36:11.932Z</time></trkpt><trkpt lat="44.838496098810616" lon="11.811092086840102"><ele>4.0</ele><time>2026-03-28T15:36:12.932Z</time></trkpt><trkpt lat="44.83847637093033" lon="11.81135888085624"><ele>3.6666666666666665</ele><time>2026-03-28T15:36:13.932Z</time></trkpt><trkpt lat="44.83845537402129" lon="11.811620863567251"><ele>3.333333333333333</ele><time>2026-03-28T15:36:14.932Z</time></trkpt><trkpt lat="44.838433525069206" lon="11.811872486552613"><ele>3.0</ele><time>2026-03-28T15:36:15.932Z</time></trkpt><trkpt lat="44.83841388632171" lon="11.812128345698616"><ele>3.0</ele><time>2026-03-28T15:36:16.932Z</time></trkpt><trkpt lat="44.83838509204213" lon="11.812384805936949"><ele>3.0</ele><time>2026-03-28T15:36:17.932Z</time></trkpt><trkpt lat="44.83835617209672" lon="11.812638480692234"><ele>3.0</ele><time>2026-03-28T15:36:18.932Z</time></trkpt><trkpt lat="44.838325423626884" lon="11.812895710337294"><ele>3.333333333333333</ele><time>2026-03-28T15:36:19.932Z</time></trkpt><trkpt lat="44.83828023731436" lon="11.813160477444962"><ele>3.6666666666666665</ele><time>2026-03-28T15:36:20.932Z</time></trkpt><trkpt lat="44.838208891403305" lon="11.813431881928116"><ele>4.0</ele><time>2026-03-28T15:36:21.932Z</time></trkpt><trkpt lat="44.83811660352776" lon="11.813701825618114"><ele>4.0</ele><time>2026-03-28T15:36:22.932Z</time></trkpt><trkpt lat="44.83802310177727" lon="11.813978978205206"><ele>4.0</ele><time>2026-03-28T15:36:23.932Z</time></trkpt><trkpt lat="44.83792385082969" lon="11.814261344320132"><ele>4.0</ele><time>2026-03-28T15:36:24.934Z</time></trkpt><trkpt lat="44.8378229460446" lon="11.814538818464504"><ele>4.0</ele><time>2026-03-28T15:36:25.934Z</time></trkpt><trkpt lat="44.837717867896465" lon="11.814795778367026"><ele>4.0</ele><time>2026-03-28T15:36:26.934Z</time></trkpt><trkpt lat="44.837606638849266" lon="11.815055609552209"><ele>4.0</ele><time>2026-03-28T15:36:27.934Z</time></trkpt><trkpt lat="44.8374884974783" lon="11.815308887006385"><ele>4.333333333333333</ele><time>2026-03-28T15:36:28.934Z</time></trkpt><trkpt lat="44.83737749043458" lon="11.815555167359328"><ele>4.666666666666667</ele><time>2026-03-28T15:36:29.934Z</time></trkpt><trkpt lat="44.83727040058409" lon="11.815790313202143"><ele>5.0</ele><time>2026-03-28T15:36:30.933Z</time></trkpt><trkpt lat="44.8371737574025" lon="11.816019633075781"><ele>5.0</ele><time>2026-03-28T15:36:31.934Z</time></trkpt><trkpt lat="44.83709771266222" lon="11.816245380123496"><ele>5.0</ele><time>2026-03-28T15:36:32.934Z</time></trkpt><trkpt lat="44.837055697078505" lon="11.816489342759779"><ele>5.0</ele><time>2026-03-28T15:36:33.934Z</time></trkpt><trkpt lat="44.83704586240161" lon="11.816755750021155"><ele>4.666666666666667</ele><time>2026-03-28T15:36:34.933Z</time></trkpt><trkpt lat="44.837072428745074" lon="11.817051758625848"><ele>4.333333333333333</ele><time>2026-03-28T15:36:35.933Z</time></trkpt><trkpt lat="44.83711609417229" lon="11.817361331710865"><ele>4.0</ele><time>2026-03-28T15:36:36.934Z</time></trkpt><trkpt lat="44.837110877152405" lon="11.817722473381549"><ele>3.0</ele><time>2026-03-28T15:36:37.933Z</time></trkpt><trkpt lat="44.837177578102185" lon="11.818071618662488"><ele>2.0</ele><time>2026-03-28T15:36:38.933Z</time></trkpt><trkpt lat="44.83724265830334" lon="11.818410926659503"><ele>2.0</ele><time>2026-03-28T15:36:39.933Z</time></trkpt><trkpt lat="44.83730284493642" lon="11.818734641209144"><ele>2.0</ele><time>2026-03-28T15:36:40.933Z</time></trkpt><trkpt lat="44.837360550665096" lon="11.819052184318675"><ele>2.5</ele><time>2026-03-28T15:36:41.933Z</time></trkpt><trkpt lat="44.8374158851068" lon="11.819370669509073"><ele>3.0</ele><time>2026-03-28T15:36:42.933Z</time></trkpt><trkpt lat="44.83746951470925" lon="11.81967934221415"><ele>3.0</ele><time>2026-03-28T15:36:43.933Z</time></trkpt><trkpt lat="44.837521959267654" lon="11.819981194242288"><ele>3.0</ele><time>2026-03-28T15:36:44.933Z</time></trkpt><trkpt lat="44.83757143938216" lon="11.820265984018947"><ele>3.0</ele><time>2026-03-28T15:36:45.933Z</time></trkpt><trkpt lat="44.837620456745185" lon="11.820555034953745"><ele>3.0</ele><time>2026-03-28T15:36:46.933Z</time></trkpt><trkpt lat="44.837665351795856" lon="11.820831665193051"><ele>3.0</ele><time>2026-03-28T15:36:47.933Z</time></trkpt><trkpt lat="44.83772133409251" lon="11.821105038954183"><ele>3.0</ele><time>2026-03-28T15:36:48.933Z</time></trkpt><trkpt lat="44.83775387772095" lon="11.821373694974573"><ele>3.0</ele><time>2026-03-28T15:36:49.933Z</time></trkpt><trkpt lat="44.837776860692365" lon="11.821654161365961"><ele>3.0</ele><time>2026-03-28T15:36:50.933Z</time></trkpt><trkpt lat="44.83780132490948" lon="11.821931460978732"><ele>3.0</ele><time>2026-03-28T15:36:51.933Z</time></trkpt><trkpt lat="44.83782411434005" lon="11.822202466516089"><ele>3.0</ele><time>2026-03-28T15:36:52.933Z</time></trkpt><trkpt lat="44.83784126885424" lon="11.822482168100462"><ele>3.0</ele><time>2026-03-28T15:36:53.933Z</time></trkpt><trkpt lat="44.837862231865735" lon="11.822747574314988"><ele>3.0</ele><time>2026-03-28T15:36:54.933Z</time></trkpt><trkpt lat="44.83788880950369" lon="11.82301397954777"><ele>3.333333333333333</ele><time>2026-03-28T15:36:55.933Z</time></trkpt><trkpt lat="44.83791881980767" lon="11.823271746545435"><ele>3.6666666666666665</ele><time>2026-03-28T15:36:56.933Z</time></trkpt><trkpt lat="44.837946916917566" lon="11.823514826562148"><ele>4.0</ele><time>2026-03-28T15:36:57.933Z</time></trkpt><trkpt lat="44.83797631764044" lon="11.823747078789426"><ele>4.0</ele><time>2026-03-28T15:36:58.933Z</time></trkpt><trkpt lat="44.837996813251976" lon="11.82396916974011"><ele>4.0</ele><time>2026-03-28T15:36:59.933Z</time></trkpt><trkpt lat="44.838023120763026" lon="11.8241685955343"><ele>4.0</ele><time>2026-03-28T15:37:00.933Z</time></trkpt><trkpt lat="44.83804102865999" lon="11.824355342173355"><ele>4.0</ele><time>2026-03-28T15:37:01.933Z</time></trkpt><trkpt lat="44.83805896417561" lon="11.824527817426688"><ele>4.4</ele><time>2026-03-28T15:37:02.933Z</time></trkpt><trkpt lat="44.83807145119082" lon="11.82468922791355"><ele>4.800000000000001</ele><time>2026-03-28T15:37:03.933Z</time></trkpt><trkpt lat="44.83808329150111" lon="11.824846268518789"><ele>5.199999999999999</ele><time>2026-03-28T15:37:04.933Z</time></trkpt><trkpt lat="44.8381008053013" lon="11.825003067552734"><ele>5.6</ele><time>2026-03-28T15:37:05.933Z</time></trkpt><trkpt lat="44.83811475870741" lon="11.825145663296938"><ele>6.0</ele><time>2026-03-28T15:37:06.933Z</time></trkpt><trkpt lat="44.838126009206505" lon="11.82526610416414"><ele>6.166666666666667</ele><time>2026-03-28T15:37:07.933Z</time></trkpt><trkpt lat="44.83813275027438" lon="11.825379178652605"><ele>6.333333333333334</ele><time>2026-03-28T15:37:08.932Z</time></trkpt><trkpt lat="44.83813595156911" lon="11.82546909810526"><ele>6.5</ele><time>2026-03-28T15:37:09.932Z</time></trkpt><trkpt lat="44.838131255110795" lon="11.825586843457975"><ele>6.666666666666667</ele><time>2026-03-28T15:37:11.932Z</time></trkpt><trkpt lat="44.83814512988767" lon="11.825682167366065"><ele>6.833333333333334</ele><time>2026-03-28T15:37:30.932Z</time></trkpt><trkpt lat="44.83826031039225" lon="11.82571652282592"><ele>7.0</ele><time>2026-03-28T15:37:31.932Z</time></trkpt><trkpt lat="44.838350342572454" lon="11.825713512197606"><ele>7.0</ele><time>2026-03-28T15:37:32.932Z</time></trkpt><trkpt lat="44.83845777151605" lon="11.825717232392742"><ele>6.999999999999999</ele><time>2026-03-28T15:37:33.932Z</time></trkpt><trkpt lat="44.83855551514585" lon="11.825701313353056"><ele>6.999999999999999</ele><time>2026-03-28T15:37:34.932Z</time></trkpt><trkpt lat="44.83863641657287" lon="11.825697620544233"><ele>7.0</ele><time>2026-03-28T15:37:35.932Z</time></trkpt><trkpt lat="44.83871092371513" lon="11.825716608423"><ele>7.0</ele><time>2026-03-28T15:37:36.932Z</time></trkpt><trkpt lat="44.83880107710874" lon="11.825835674172394"><ele>6.75</ele><time>2026-03-28T15:37:38.932Z</time></trkpt><trkpt lat="44.83883906197116" lon="11.825971185386745"><ele>6.5</ele><time>2026-03-28T15:37:39.932Z</time></trkpt><trkpt lat="44.83888293575445" lon="11.826165342473486"><ele>6.25</ele><time>2026-03-28T15:37:40.932Z</time></trkpt><trkpt lat="44.838924194329365" lon="11.826357865602958"><ele>6.0</ele><time>2026-03-28T15:37:41.932Z</time></trkpt><trkpt lat="44.83896643076727" lon="11.826551591778852"><ele>6.0</ele><time>2026-03-28T15:37:42.932Z</time></trkpt><trkpt lat="44.83902165362466" lon="11.826726495122921"><ele>6.0</ele><time>2026-03-28T15:37:43.932Z</time></trkpt><trkpt lat="44.839055151618005" lon="11.826933721284666"><ele>6.0</ele><time>2026-03-28T15:37:44.932Z</time></trkpt><trkpt lat="44.839073228523" lon="11.827147695120123"><ele>6.0</ele><time>2026-03-28T15:37:45.932Z</time></trkpt><trkpt lat="44.83907624907027" lon="11.82736417938803"><ele>6.0</ele><time>2026-03-28T15:37:46.932Z</time></trkpt><trkpt lat="44.839067176558196" lon="11.827591770537833"><ele>6.0</ele><time>2026-03-28T15:37:47.932Z</time></trkpt><trkpt lat="44.839045603766635" lon="11.827827861257397"><ele>6.0</ele><time>2026-03-28T15:37:48.932Z</time></trkpt><trkpt lat="44.83900132408852" lon="11.828067056532182"><ele>5.0</ele><time>2026-03-28T15:37:49.932Z</time></trkpt><trkpt lat="44.83897147562503" lon="11.828316728674935"><ele>4.0</ele><time>2026-03-28T15:37:50.932Z</time></trkpt><trkpt lat="44.83894233018232" lon="11.82857071872905"><ele>3.0</ele><time>2026-03-28T15:37:51.931Z</time></trkpt><trkpt lat="44.83891337591783" lon="11.828822893567834"><ele>2.6666666666666665</ele><time>2026-03-28T15:37:52.931Z</time></trkpt><trkpt lat="44.838884940251816" lon="11.82907055168151"><ele>2.333333333333333</ele><time>2026-03-28T15:37:53.931Z</time></trkpt><trkpt lat="44.838854496432695" lon="11.829313105187122"><ele>2.0</ele><time>2026-03-28T15:37:54.931Z</time></trkpt><trkpt lat="44.83883423067076" lon="11.82955394568841"><ele>2.0</ele><time>2026-03-28T15:37:55.931Z</time></trkpt><trkpt lat="44.838777466370985" lon="11.82977496488253"><ele>2.0</ele><time>2026-03-28T15:37:56.931Z</time></trkpt><trkpt lat="44.83870302338715" lon="11.829989330815891"><ele>2.0</ele><time>2026-03-28T15:37:57.931Z</time></trkpt><trkpt lat="44.83860259759689" lon="11.830194915095436"><ele>1.6666666666666665</ele><time>2026-03-28T15:37:58.931Z</time></trkpt><trkpt lat="44.838520042384594" lon="11.830414194059657"><ele>1.3333333333333333</ele><time>2026-03-28T15:37:59.931Z</time></trkpt><trkpt lat="44.83845849569017" lon="11.830644573182333"><ele>1.0</ele><time>2026-03-28T15:38:00.931Z</time></trkpt><trkpt lat="44.83841941869296" lon="11.830879310930818"><ele>2.0</ele><time>2026-03-28T15:38:01.931Z</time></trkpt><trkpt lat="44.83835577022641" lon="11.83111356152167"><ele>3.0</ele><time>2026-03-28T15:38:02.931Z</time></trkpt><trkpt lat="44.83831616857641" lon="11.831367287495778"><ele>4.0</ele><time>2026-03-28T15:38:03.931Z</time></trkpt><trkpt lat="44.83823019685831" lon="11.831609723912413"><ele>3.333333333333333</ele><time>2026-03-28T15:38:04.931Z</time></trkpt><trkpt lat="44.83814309153687" lon="11.831864635706884"><ele>2.6666666666666665</ele><time>2026-03-28T15:38:05.931Z</time></trkpt><trkpt lat="44.83804660887577" lon="11.832130661154556"><ele>2.0</ele><time>2026-03-28T15:38:06.931Z</time></trkpt><trkpt lat="44.83795085315179" lon="11.832393813139513"><ele>1.6666666666666665</ele><time>2026-03-28T15:38:07.931Z</time></trkpt><trkpt lat="44.83785896166797" lon="11.832645484949076"><ele>1.3333333333333333</ele><time>2026-03-28T15:38:08.931Z</time></trkpt><trkpt lat="44.83777124576354" lon="11.83287417632358"><ele>1.0</ele><time>2026-03-28T15:38:09.931Z</time></trkpt><trkpt lat="44.83767022489778" lon="11.83307870510213"><ele>1.0</ele><time>2026-03-28T15:38:10.931Z</time></trkpt><trkpt lat="44.8375413519493" lon="11.833270625478056"><ele>1.0</ele><time>2026-03-28T15:38:11.931Z</time></trkpt><trkpt lat="44.8373886703888" lon="11.833449345894884"><ele>1.0</ele><time>2026-03-28T15:38:12.931Z</time></trkpt><trkpt lat="44.83722073939425" lon="11.833631695366227"><ele>1.0</ele><time>2026-03-28T15:38:13.931Z</time></trkpt><trkpt lat="44.837045022388644" lon="11.833815298749778"><ele>1.0</ele><time>2026-03-28T15:38:14.931Z</time></trkpt><trkpt lat="44.83687243089168" lon="11.833980355030969"><ele>1.0</ele><time>2026-03-28T15:38:15.931Z</time></trkpt><trkpt lat="44.83671417786106" lon="11.834126759841507"><ele>1.3333333333333333</ele><time>2026-03-28T15:38:16.931Z</time></trkpt><trkpt lat="44.83656063937531" lon="11.83426925239542"><ele>1.6666666666666665</ele><time>2026-03-28T15:38:17.931Z</time></trkpt><trkpt lat="44.836427810862034" lon="11.834392524899322"><ele>2.0</ele><time>2026-03-28T15:38:18.931Z</time></trkpt><trkpt lat="44.83631316364524" lon="11.834502084853506"><ele>2.0</ele><time>2026-03-28T15:38:19.931Z</time></trkpt><trkpt lat="44.836213689232764" lon="11.834606687733714"><ele>2.0</ele><time>2026-03-28T15:38:20.931Z</time></trkpt><trkpt lat="44.836118566427515" lon="11.834747711199322"><ele>2.0</ele><time>2026-03-28T15:38:21.931Z</time></trkpt><trkpt lat="44.83605327124779" lon="11.834932089391259"><ele>2.0</ele><time>2026-03-28T15:38:22.931Z</time></trkpt><trkpt lat="44.835995924631526" lon="11.835139138648632"><ele>1.6666666666666665</ele><time>2026-03-28T15:38:23.931Z</time></trkpt><trkpt lat="44.8359294117745" lon="11.835385115730315"><ele>1.3333333333333333</ele><time>2026-03-28T15:38:24.931Z</time></trkpt><trkpt lat="44.83586814280759" lon="11.835664996149116"><ele>1.0</ele><time>2026-03-28T15:38:25.931Z</time></trkpt><trkpt lat="44.8357845702197" lon="11.835954080828257"><ele>0.5</ele><time>2026-03-28T15:38:26.931Z</time></trkpt><trkpt lat="44.83570498893754" lon="11.836259464403957"><ele>0.0</ele><time>2026-03-28T15:38:27.931Z</time></trkpt><trkpt lat="44.835623450422844" lon="11.836572955189448"><ele>0.5</ele><time>2026-03-28T15:38:28.931Z</time></trkpt><trkpt lat="44.83552229624697" lon="11.83688654076207"><ele>1.0</ele><time>2026-03-28T15:38:29.931Z</time></trkpt><trkpt lat="44.83544741201924" lon="11.837223813261508"><ele>1.0</ele><time>2026-03-28T15:38:30.932Z</time></trkpt><trkpt lat="44.835337519342126" lon="11.837551226579706"><ele>1.0</ele><time>2026-03-28T15:38:31.932Z</time></trkpt><trkpt lat="44.835241655708444" lon="11.837889466420823"><ele>1.0</ele><time>2026-03-28T15:38:32.932Z</time></trkpt><trkpt lat="44.83515120104855" lon="11.838217507296918"><ele>1.0</ele><time>2026-03-28T15:38:33.932Z</time></trkpt><trkpt lat="44.83506385037274" lon="11.838527814882909"><ele>1.0</ele><time>2026-03-28T15:38:34.933Z</time></trkpt><trkpt lat="44.834983956007925" lon="11.83881881803206"><ele>1.0</ele><time>2026-03-28T15:38:35.933Z</time></trkpt><trkpt lat="44.83491558440616" lon="11.83908662516428"><ele>1.0</ele><time>2026-03-28T15:38:36.932Z</time></trkpt><trkpt lat="44.834852428772344" lon="11.839336682144893"><ele>1.0</ele><time>2026-03-28T15:38:37.932Z</time></trkpt><trkpt lat="44.83480484087769" lon="11.839596290114196"><ele>1.0</ele><time>2026-03-28T15:38:38.932Z</time></trkpt><trkpt lat="44.83477549199605" lon="11.839871387812883"><ele>1.0</ele><time>2026-03-28T15:38:39.932Z</time></trkpt><trkpt lat="44.83476245909723" lon="11.840148355548786"><ele>0.6666666666666666</ele><time>2026-03-28T15:38:40.932Z</time></trkpt><trkpt lat="44.83476862996371" lon="11.840407319152634"><ele>0.3333333333333333</ele><time>2026-03-28T15:38:41.932Z</time></trkpt><trkpt lat="44.834798527081766" lon="11.840650548289604"><ele>0.0</ele><time>2026-03-28T15:38:42.932Z</time></trkpt><trkpt lat="44.83487153613871" lon="11.840878176509317"><ele>0.3333333333333333</ele><time>2026-03-28T15:38:43.932Z</time></trkpt><trkpt lat="44.8349793789053" lon="11.841097862106341"><ele>0.6666666666666666</ele><time>2026-03-28T15:38:44.932Z</time></trkpt><trkpt lat="44.835106177191925" lon="11.841337078329778"><ele>1.0</ele><time>2026-03-28T15:38:45.932Z</time></trkpt><trkpt lat="44.83524619477248" lon="11.841585942692209"><ele>1.0</ele><time>2026-03-28T15:38:46.932Z</time></trkpt><trkpt lat="44.83539469084962" lon="11.841848769331783"><ele>1.0</ele><time>2026-03-28T15:38:47.932Z</time></trkpt><trkpt lat="44.8355357674854" lon="11.842106679493607"><ele>1.0</ele><time>2026-03-28T15:38:48.932Z</time></trkpt><trkpt lat="44.83567870667535" lon="11.842361400126725"><ele>1.0</ele><time>2026-03-28T15:38:49.932Z</time></trkpt><trkpt lat="44.83581480764371" lon="11.842603579751628"><ele>1.0</ele><time>2026-03-28T15:38:50.932Z</time></trkpt><trkpt lat="44.835944128261964" lon="11.842833338618913"><ele>1.0</ele><time>2026-03-28T15:38:51.932Z</time></trkpt><trkpt lat="44.83607010227833" lon="11.843051644086788"><ele>1.0</ele><time>2026-03-28T15:38:52.932Z</time></trkpt><trkpt lat="44.83621114985418" lon="11.843261056389531"><ele>1.0</ele><time>2026-03-28T15:38:53.932Z</time></trkpt><trkpt lat="44.83637343229558" lon="11.843450725376853"><ele>1.0</ele><time>2026-03-28T15:38:54.932Z</time></trkpt><trkpt lat="44.83656219635362" lon="11.843636279338076"><ele>1.0</ele><time>2026-03-28T15:38:55.932Z</time></trkpt><trkpt lat="44.836766616562116" lon="11.84382194394881"><ele>1.0</ele><time>2026-03-28T15:38:56.932Z</time></trkpt><trkpt lat="44.836975904925225" lon="11.84401956827971"><ele>1.0</ele><time>2026-03-28T15:38:57.932Z</time></trkpt><trkpt lat="44.8371888124584" lon="11.844218289576643"><ele>0.5</ele><time>2026-03-28T15:38:58.932Z</time></trkpt><trkpt lat="44.83740316322993" lon="11.844430221077864"><ele>0.0</ele><time>2026-03-28T15:38:59.932Z</time></trkpt><trkpt lat="44.837618741898" lon="11.844633500596323"><ele>0.5</ele><time>2026-03-28T15:39:00.932Z</time></trkpt><trkpt lat="44.83782945018716" lon="11.844861987955714"><ele>1.0</ele><time>2026-03-28T15:39:01.932Z</time></trkpt><trkpt lat="44.838047116611" lon="11.84507462937394"><ele>1.0</ele><time>2026-03-28T15:39:02.932Z</time></trkpt><trkpt lat="44.83827833301419" lon="11.845271385157423"><ele>1.0</ele><time>2026-03-28T15:39:03.932Z</time></trkpt><trkpt lat="44.83849574397329" lon="11.845485276136454"><ele>1.0</ele><time>2026-03-28T15:39:04.932Z</time></trkpt><trkpt lat="44.83870656467786" lon="11.845687642334703"><ele>1.0</ele><time>2026-03-28T15:39:05.932Z</time></trkpt><trkpt lat="44.838917065522665" lon="11.845893268109656"><ele>0.0</ele><time>2026-03-28T15:39:06.932Z</time></trkpt><trkpt lat="44.83912573950573" lon="11.846093018712429"><ele>-1.0</ele><time>2026-03-28T15:39:07.932Z</time></trkpt><trkpt lat="44.83932146574311" lon="11.84630781803208"><ele>-1.0</ele><time>2026-03-28T15:39:08.932Z</time></trkpt><trkpt lat="44.83952169075123" lon="11.84650441749167"><ele>-1.0</ele><time>2026-03-28T15:39:09.932Z</time></trkpt><trkpt lat="44.83973234041288" lon="11.84671139995382"><ele>0.0</ele><time>2026-03-28T15:39:10.932Z</time></trkpt><trkpt lat="44.839938851419326" lon="11.846891431287085"><ele>1.0</ele><time>2026-03-28T15:39:11.931Z</time></trkpt><trkpt lat="44.84013193267841" lon="11.847087041409765"><ele>1.0</ele><time>2026-03-28T15:39:12.931Z</time></trkpt><trkpt lat="44.840318238809665" lon="11.847279592820884"><ele>1.0</ele><time>2026-03-28T15:39:13.931Z</time></trkpt><trkpt lat="44.84048939879599" lon="11.847453205497779"><ele>1.0</ele><time>2026-03-28T15:39:14.931Z</time></trkpt><trkpt lat="44.840649947506016" lon="11.847613481518154"><ele>0.6666666666666666</ele><time>2026-03-28T15:39:15.931Z</time></trkpt><trkpt lat="44.84079370419055" lon="11.847752840785938"><ele>0.3333333333333333</ele><time>2026-03-28T15:39:16.931Z</time></trkpt><trkpt lat="44.84094054691126" lon="11.847882219935926"><ele>0.0</ele><time>2026-03-28T15:39:17.931Z</time></trkpt><trkpt lat="44.84106924369344" lon="11.84801276950317"><ele>0.25</ele><time>2026-03-28T15:39:18.931Z</time></trkpt><trkpt lat="44.8411798181401" lon="11.848121530150765"><ele>0.5</ele><time>2026-03-28T15:39:19.931Z</time></trkpt><trkpt lat="44.84129769738594" lon="11.84823124942194"><ele>0.75</ele><time>2026-03-28T15:39:20.931Z</time></trkpt><trkpt lat="44.84140540716328" lon="11.84835659723926"><ele>1.0</ele><time>2026-03-28T15:39:21.931Z</time></trkpt><trkpt lat="44.84150872993878" lon="11.848494367437478"><ele>1.0</ele><time>2026-03-28T15:39:22.931Z</time></trkpt><trkpt lat="44.84159682185501" lon="11.848656883504871"><ele>1.0</ele><time>2026-03-28T15:39:23.932Z</time></trkpt><trkpt lat="44.841679808425916" lon="11.848818249490433"><ele>1.0</ele><time>2026-03-28T15:39:24.932Z</time></trkpt><trkpt lat="44.84176282629053" lon="11.848972712526677"><ele>1.0</ele><time>2026-03-28T15:39:25.933Z</time></trkpt><trkpt lat="44.84182279536954" lon="11.849120404001482"><ele>0.9999999999999999</ele><time>2026-03-28T15:39:26.934Z</time></trkpt><trkpt lat="44.84190054287277" lon="11.849220383182436"><ele>1.0</ele><time>2026-03-28T15:39:27.934Z</time></trkpt><trkpt lat="44.84194754784742" lon="11.849304030575045"><ele>1.0</ele><time>2026-03-28T15:39:28.935Z</time></trkpt><trkpt lat="44.84199465767648" lon="11.849384541639958"><ele>1.0</ele><time>2026-03-28T15:39:29.936Z</time></trkpt><trkpt lat="44.84203009087236" lon="11.849487568812785"><ele>0.9999999999999999</ele><time>2026-03-28T15:39:30.936Z</time></trkpt><trkpt lat="44.84206402750913" lon="11.849603679462176"><ele>1.0</ele><time>2026-03-28T15:39:31.937Z</time></trkpt><trkpt lat="44.84210665094663" lon="11.849714591592667"><ele>0.8333333333333333</ele><time>2026-03-28T15:39:32.937Z</time></trkpt><trkpt lat="44.842171885489186" lon="11.84978887058398"><ele>0.6666666666666666</ele><time>2026-03-28T15:39:33.937Z</time></trkpt><trkpt lat="44.84226071421123" lon="11.849820677635876"><ele>0.5</ele><time>2026-03-28T15:39:34.938Z</time></trkpt><trkpt lat="44.84235487337547" lon="11.849801488486957"><ele>0.3333333333333333</ele><time>2026-03-28T15:39:35.938Z</time></trkpt><trkpt lat="44.842423465038685" lon="11.849735081245905"><ele>0.16666666666666666</ele><time>2026-03-28T15:39:36.938Z</time></trkpt><trkpt lat="44.84246611381338" lon="11.849632571437581"><ele>0.0</ele><time>2026-03-28T15:39:37.939Z</time></trkpt><trkpt lat="44.84247947807366" lon="11.849499001929075"><ele>0.0</ele><time>2026-03-28T15:39:38.939Z</time></trkpt><trkpt lat="44.842459808964826" lon="11.849339497389897"><ele>0.0</ele><time>2026-03-28T15:39:39.939Z</time></trkpt><trkpt lat="44.84238612598254" lon="11.849165480048176"><ele>0.0</ele><time>2026-03-28T15:39:40.94Z</time></trkpt><trkpt lat="44.84240141233256" lon="11.848899514802216"><ele>0.0</ele><time>2026-03-28T15:39:41.94Z</time></trkpt><trkpt lat="44.84238449479348" lon="11.848647897101534"><ele>1.3333333333333333</ele><time>2026-03-28T15:39:42.94Z</time></trkpt><trkpt lat="44.842366537251614" lon="11.848386451584368"><ele>2.6666666666666665</ele><time>2026-03-28T15:39:43.94Z</time></trkpt><trkpt lat="44.8423491577132" lon="11.848118271475565"><ele>4.0</ele><time>2026-03-28T15:39:44.94Z</time></trkpt><trkpt lat="44.84233259168846" lon="11.847846145579915"><ele>3.6666666666666665</ele><time>2026-03-28T15:39:45.941Z</time></trkpt><trkpt lat="44.84232962933834" lon="11.847573806549194"><ele>3.333333333333333</ele><time>2026-03-28T15:39:46.941Z</time></trkpt><trkpt lat="44.84235810217209" lon="11.84731157170753"><ele>3.0</ele><time>2026-03-28T15:39:47.941Z</time></trkpt><trkpt lat="44.84241101446265" lon="11.847055513642461"><ele>3.0</ele><time>2026-03-28T15:39:48.941Z</time></trkpt><trkpt lat="44.842485281785414" lon="11.846803384412405"><ele>3.0</ele><time>2026-03-28T15:39:49.941Z</time></trkpt><trkpt lat="44.84258595380369" lon="11.846570902525587"><ele>3.0</ele><time>2026-03-28T15:39:50.941Z</time></trkpt><trkpt lat="44.84270752362627" lon="11.846347710999066"><ele>3.0</ele><time>2026-03-28T15:39:51.941Z</time></trkpt><trkpt lat="44.842848991992774" lon="11.846140781439326"><ele>3.0</ele><time>2026-03-28T15:39:52.942Z</time></trkpt><trkpt lat="44.843019306056185" lon="11.845938456951874"><ele>3.0</ele><time>2026-03-28T15:39:53.942Z</time></trkpt><trkpt lat="44.84319663080477" lon="11.845733504237087"><ele>3.0</ele><time>2026-03-28T15:39:54.942Z</time></trkpt><trkpt lat="44.84339407569563" lon="11.845521675605339"><ele>3.0</ele><time>2026-03-28T15:39:55.942Z</time></trkpt><trkpt lat="44.8435964743412" lon="11.845298526693423"><ele>4.5</ele><time>2026-03-28T15:39:56.942Z</time></trkpt><trkpt lat="44.84380498034127" lon="11.845061148247906"><ele>6.0</ele><time>2026-03-28T15:39:57.942Z</time></trkpt><trkpt lat="44.84402404718492" lon="11.844811547514713"><ele>6.0</ele><time>2026-03-28T15:39:58.942Z</time></trkpt><trkpt lat="44.84424643500193" lon="11.844555517027485"><ele>6.0</ele><time>2026-03-28T15:39:59.942Z</time></trkpt><trkpt lat="44.84446958577278" lon="11.844297903443444"><ele>4.5</ele><time>2026-03-28T15:40:00.942Z</time></trkpt><trkpt lat="44.84469345119494" lon="11.844043396033534"><ele>3.0</ele><time>2026-03-28T15:40:01.942Z</time></trkpt><trkpt lat="44.84490638512607" lon="11.843797752450536"><ele>3.0</ele><time>2026-03-28T15:40:02.942Z</time></trkpt><trkpt lat="44.845107639826374" lon="11.843574809731402"><ele>3.0</ele><time>2026-03-28T15:40:03.942Z</time></trkpt><trkpt lat="44.84529209997368" lon="11.843368382990073"><ele>1.0</ele><time>2026-03-28T15:40:04.942Z</time></trkpt><trkpt lat="44.84546311776212" lon="11.843176678129689"><ele>-1.0</ele><time>2026-03-28T15:40:05.942Z</time></trkpt><trkpt lat="44.845630615215896" lon="11.842988639335584"><ele>-3.0</ele><time>2026-03-28T15:40:06.942Z</time></trkpt><trkpt lat="44.84579674225982" lon="11.842804571596849"><ele>-3.0</ele><time>2026-03-28T15:40:07.942Z</time></trkpt><trkpt lat="44.84595542527755" lon="11.842616358274011"><ele>-3.0</ele><time>2026-03-28T15:40:08.942Z</time></trkpt><trkpt lat="44.84609546495507" lon="11.842422872644208"><ele>-3.0</ele><time>2026-03-28T15:40:09.942Z</time></trkpt><trkpt lat="44.84629519068082" lon="11.841938000718336"><ele>-3.0</ele><time>2026-03-28T15:40:11.943Z</time></trkpt><trkpt lat="44.84634364008497" lon="11.84163905795644"><ele>-3.0</ele><time>2026-03-28T15:40:12.943Z</time></trkpt><trkpt lat="44.84636984076412" lon="11.841311713247453"><ele>-1.5</ele><time>2026-03-28T15:40:13.943Z</time></trkpt><trkpt lat="44.84638132417654" lon="11.840954932507218"><ele>0.0</ele><time>2026-03-28T15:40:14.943Z</time></trkpt><trkpt lat="44.84639549141378" lon="11.840588658523982"><ele>0.0</ele><time>2026-03-28T15:40:15.943Z</time></trkpt><trkpt lat="44.846414518150546" lon="11.840217350321373"><ele>0.0</ele><time>2026-03-28T15:40:16.943Z</time></trkpt><trkpt lat="44.84643714982918" lon="11.839850576416703"><ele>0.5</ele><time>2026-03-28T15:40:17.943Z</time></trkpt><trkpt lat="44.84645972536049" lon="11.83947710254365"><ele>1.0</ele><time>2026-03-28T15:40:18.943Z</time></trkpt><trkpt lat="44.84648318107852" lon="11.83910467496478"><ele>1.0</ele><time>2026-03-28T15:40:19.943Z</time></trkpt><trkpt lat="44.846507042112854" lon="11.83872962565279"><ele>1.0</ele><time>2026-03-28T15:40:20.943Z</time></trkpt><trkpt lat="44.8465267092314" lon="11.838359339194538"><ele>1.5</ele><time>2026-03-28T15:40:21.943Z</time></trkpt><trkpt lat="44.84654782916136" lon="11.837989370458336"><ele>2.0</ele><time>2026-03-28T15:40:22.943Z</time></trkpt><trkpt lat="44.84656301996" lon="11.837623931493194"><ele>2.0</ele><time>2026-03-28T15:40:23.943Z</time></trkpt><trkpt lat="44.84657347796203" lon="11.837256318997332"><ele>2.0</ele><time>2026-03-28T15:40:24.943Z</time></trkpt><trkpt lat="44.84656145950348" lon="11.836889757228178"><ele>1.0</ele><time>2026-03-28T15:40:25.943Z</time></trkpt><trkpt lat="44.84654796347051" lon="11.83654054282839"><ele>0.0</ele><time>2026-03-28T15:40:26.943Z</time></trkpt><trkpt lat="44.84653468837097" lon="11.836201258397736"><ele>-0.5</ele><time>2026-03-28T15:40:27.943Z</time></trkpt><trkpt lat="44.84652151858555" lon="11.83586466575163"><ele>-1.0</ele><time>2026-03-28T15:40:28.943Z</time></trkpt><trkpt lat="44.84650947295051" lon="11.835530912881726"><ele>-1.0</ele><time>2026-03-28T15:40:29.943Z</time></trkpt><trkpt lat="44.84649867257947" lon="11.835207938890004"><ele>-1.0</ele><time>2026-03-28T15:40:30.943Z</time></trkpt><trkpt lat="44.84649747072163" lon="11.834895727870482"><ele>-0.3333333333333333</ele><time>2026-03-28T15:40:31.943Z</time></trkpt><trkpt lat="44.84651404931499" lon="11.834583247071647"><ele>0.3333333333333333</ele><time>2026-03-28T15:40:32.942Z</time></trkpt><trkpt lat="44.84655245334724" lon="11.834274212117997"><ele>1.0</ele><time>2026-03-28T15:40:33.942Z</time></trkpt><trkpt lat="44.846608204096576" lon="11.833966933765598"><ele>1.3333333333333333</ele><time>2026-03-28T15:40:34.942Z</time></trkpt><trkpt lat="44.84667210466887" lon="11.833668734211582"><ele>1.6666666666666665</ele><time>2026-03-28T15:40:35.942Z</time></trkpt><trkpt lat="44.84674312543568" lon="11.83338990016139"><ele>2.0</ele><time>2026-03-28T15:40:36.944Z</time></trkpt><trkpt lat="44.84682696661555" lon="11.833146976761567"><ele>2.0</ele><time>2026-03-28T15:40:37.944Z</time></trkpt><trkpt lat="44.846937081564526" lon="11.83292335200836"><ele>2.0</ele><time>2026-03-28T15:40:38.944Z</time></trkpt><trkpt lat="44.84708314821509" lon="11.832702782204501"><ele>2.0</ele><time>2026-03-28T15:40:39.944Z</time></trkpt><trkpt lat="44.847256111787374" lon="11.83249488002127"><ele>2.0</ele><time>2026-03-28T15:40:40.944Z</time></trkpt><trkpt lat="44.847448403463076" lon="11.832287756012906"><ele>2.0</ele><time>2026-03-28T15:40:41.944Z</time></trkpt><trkpt lat="44.84765076944" lon="11.832089511414617"><ele>1.5</ele><time>2026-03-28T15:40:42.944Z</time></trkpt><trkpt lat="44.847859803758496" lon="11.831898138147803"><ele>1.0</ele><time>2026-03-28T15:40:43.944Z</time></trkpt><trkpt lat="44.84808653701115" lon="11.83172762965023"><ele>1.0</ele><time>2026-03-28T15:40:44.944Z</time></trkpt><trkpt lat="44.848333779422845" lon="11.831578884937922"><ele>1.0</ele><time>2026-03-28T15:40:45.944Z</time></trkpt><trkpt lat="44.84858721771863" lon="11.831450343036778"><ele>1.0</ele><time>2026-03-28T15:40:46.944Z</time></trkpt><trkpt lat="44.84883857051945" lon="11.83132807058978"><ele>1.0</ele><time>2026-03-28T15:40:47.944Z</time></trkpt><trkpt lat="44.84908528281805" lon="11.831219802103533"><ele>1.0</ele><time>2026-03-28T15:40:48.944Z</time></trkpt><trkpt lat="44.84932374890615" lon="11.831116771540112"><ele>1.0</ele><time>2026-03-28T15:40:49.944Z</time></trkpt><trkpt lat="44.8495573598926" lon="11.831022483883515"><ele>1.0</ele><time>2026-03-28T15:40:50.944Z</time></trkpt><trkpt lat="44.849781782815285" lon="11.830929253074917"><ele>1.0</ele><time>2026-03-28T15:40:51.944Z</time></trkpt><trkpt lat="44.84999273088337" lon="11.830835000420954"><ele>1.0</ele><time>2026-03-28T15:40:52.944Z</time></trkpt><trkpt lat="44.850200175340206" lon="11.830778786131015"><ele>1.0</ele><time>2026-03-28T15:40:53.944Z</time></trkpt><trkpt lat="44.850404951613314" lon="11.830758991752074"><ele>1.0</ele><time>2026-03-28T15:40:54.944Z</time></trkpt><trkpt lat="44.850612251213576" lon="11.830757277181856"><ele>1.0</ele><time>2026-03-28T15:40:55.944Z</time></trkpt><trkpt lat="44.85081787954316" lon="11.830786034875766"><ele>1.0</ele><time>2026-03-28T15:40:56.944Z</time></trkpt><trkpt lat="44.851026156444256" lon="11.83085982723479"><ele>1.0</ele><time>2026-03-28T15:40:57.944Z</time></trkpt><trkpt lat="44.851229728714884" lon="11.830989415032281"><ele>1.0</ele><time>2026-03-28T15:40:58.944Z</time></trkpt><trkpt lat="44.85143663726323" lon="11.831138259244291"><ele>1.0</ele><time>2026-03-28T15:40:59.944Z</time></trkpt><trkpt lat="44.85165257794582" lon="11.831313167031945"><ele>1.0</ele><time>2026-03-28T15:41:00.944Z</time></trkpt><trkpt lat="44.85187025714515" lon="11.831492317911746"><ele>1.0</ele><time>2026-03-28T15:41:01.944Z</time></trkpt><trkpt lat="44.85210099007743" lon="11.831682212054167"><ele>1.0</ele><time>2026-03-28T15:41:02.944Z</time></trkpt><trkpt lat="44.8523426182446" lon="11.831881073049955"><ele>1.0</ele><time>2026-03-28T15:41:03.944Z</time></trkpt><trkpt lat="44.852585257863254" lon="11.832080766472153"><ele>1.0</ele><time>2026-03-28T15:41:04.944Z</time></trkpt><trkpt lat="44.852826452927545" lon="11.832279270972839"><ele>1.0</ele><time>2026-03-28T15:41:05.944Z</time></trkpt><trkpt lat="44.853072753086224" lon="11.832480611714756"><ele>1.0</ele><time>2026-03-28T15:41:06.944Z</time></trkpt><trkpt lat="44.85331344570983" lon="11.832677937208523"><ele>1.0</ele><time>2026-03-28T15:41:07.944Z</time></trkpt><trkpt lat="44.853550521391675" lon="11.832873579692098"><ele>1.5</ele><time>2026-03-28T15:41:08.944Z</time></trkpt><trkpt lat="44.853785671067165" lon="11.833067632794469"><ele>2.0</ele><time>2026-03-28T15:41:09.944Z</time></trkpt><trkpt lat="44.85401880704588" lon="11.8332600241256"><ele>2.0</ele><time>2026-03-28T15:41:10.944Z</time></trkpt><trkpt lat="44.854254162851994" lon="11.833454247317725"><ele>2.0</ele><time>2026-03-28T15:41:11.944Z</time></trkpt><trkpt lat="44.854480690792215" lon="11.833641185505037"><ele>1.5</ele><time>2026-03-28T15:41:12.944Z</time></trkpt><trkpt lat="44.85470550502078" lon="11.833826709422528"><ele>1.0</ele><time>2026-03-28T15:41:13.944Z</time></trkpt><trkpt lat="44.85492279320969" lon="11.834007521355534"><ele>1.0</ele><time>2026-03-28T15:41:14.944Z</time></trkpt><trkpt lat="44.855140250177634" lon="11.834182882657558"><ele>1.0</ele><time>2026-03-28T15:41:15.944Z</time></trkpt><trkpt lat="44.85534417857218" lon="11.834351147443007"><ele>0.5</ele><time>2026-03-28T15:41:16.944Z</time></trkpt><trkpt lat="44.85554226058711" lon="11.834512532994463"><ele>0.0</ele><time>2026-03-28T15:41:17.944Z</time></trkpt><trkpt lat="44.85575088541739" lon="11.834682423707603"><ele>0.0</ele><time>2026-03-28T15:41:18.944Z</time></trkpt><trkpt lat="44.85595445085291" lon="11.834842107132728"><ele>0.0</ele><time>2026-03-28T15:41:19.944Z</time></trkpt><trkpt lat="44.85616421231021" lon="11.834991347114558"><ele>0.0</ele><time>2026-03-28T15:41:20.944Z</time></trkpt><trkpt lat="44.85637484716531" lon="11.83511479219232"><ele>0.0</ele><time>2026-03-28T15:41:21.944Z</time></trkpt><trkpt lat="44.85660060905791" lon="11.835183972811496"><ele>1.5</ele><time>2026-03-28T15:41:22.944Z</time></trkpt><trkpt lat="44.856824155201494" lon="11.835265427619046"><ele>3.0</ele><time>2026-03-28T15:41:23.944Z</time></trkpt><trkpt lat="44.8570574144392" lon="11.835319925569857"><ele>3.0</ele><time>2026-03-28T15:41:24.944Z</time></trkpt><trkpt lat="44.8572804945001" lon="11.83533145748558"><ele>3.0</ele><time>2026-03-28T15:41:25.944Z</time></trkpt><trkpt lat="44.857508732382655" lon="11.835315167839449"><ele>2.3333333333333335</ele><time>2026-03-28T15:41:26.944Z</time></trkpt><trkpt lat="44.857719236497694" lon="11.83526582672455"><ele>1.6666666666666665</ele><time>2026-03-28T15:41:27.944Z</time></trkpt><trkpt lat="44.857910440461104" lon="11.835210392703138"><ele>1.0</ele><time>2026-03-28T15:41:28.944Z</time></trkpt><trkpt lat="44.85809509466737" lon="11.83514043263514"><ele>1.0</ele><time>2026-03-28T15:41:29.943Z</time></trkpt><trkpt lat="44.85827072076236" lon="11.835051932201155"><ele>1.0</ele><time>2026-03-28T15:41:30.943Z</time></trkpt><trkpt lat="44.85845055987499" lon="11.834919162965514"><ele>1.0</ele><time>2026-03-28T15:41:31.943Z</time></trkpt><trkpt lat="44.858638962747435" lon="11.83474840949411"><ele>1.0</ele><time>2026-03-28T15:41:32.943Z</time></trkpt><trkpt lat="44.858850204374036" lon="11.834553715149704"><ele>1.0</ele><time>2026-03-28T15:41:33.943Z</time></trkpt><trkpt lat="44.859077255429774" lon="11.83436808825372"><ele>1.0</ele><time>2026-03-28T15:41:34.943Z</time></trkpt><trkpt lat="44.85930667287969" lon="11.834186150627824"><ele>1.0</ele><time>2026-03-28T15:41:35.943Z</time></trkpt><trkpt lat="44.859529706482526" lon="11.833985963560146"><ele>1.0</ele><time>2026-03-28T15:41:36.943Z</time></trkpt><trkpt lat="44.85974988615744" lon="11.833770887894696"><ele>1.0</ele><time>2026-03-28T15:41:37.943Z</time></trkpt><trkpt lat="44.85995882097996" lon="11.833525465500832"><ele>0.5</ele><time>2026-03-28T15:41:38.943Z</time></trkpt><trkpt lat="44.86016188586547" lon="11.833249729769474"><ele>0.0</ele><time>2026-03-28T15:41:39.943Z</time></trkpt><trkpt lat="44.860362970290566" lon="11.832966713675429"><ele>0.0</ele><time>2026-03-28T15:41:40.943Z</time></trkpt><trkpt lat="44.860565407483286" lon="11.832684531543716"><ele>0.0</ele><time>2026-03-28T15:41:41.943Z</time></trkpt><trkpt lat="44.860761561793396" lon="11.832419160606182"><ele>0.0</ele><time>2026-03-28T15:41:42.943Z</time></trkpt><trkpt lat="44.860952383033265" lon="11.832167721950896"><ele>0.0</ele><time>2026-03-28T15:41:43.943Z</time></trkpt><trkpt lat="44.86113764663666" lon="11.831941470276472"><ele>-0.3333333333333333</ele><time>2026-03-28T15:41:44.943Z</time></trkpt><trkpt lat="44.86131388764237" lon="11.83175784430164"><ele>-0.6666666666666666</ele><time>2026-03-28T15:41:45.943Z</time></trkpt><trkpt lat="44.86149683455423" lon="11.831622103814574"><ele>-1.0</ele><time>2026-03-28T15:41:46.943Z</time></trkpt><trkpt lat="44.86170031150595" lon="11.831504823138674"><ele>-0.5</ele><time>2026-03-28T15:41:47.943Z</time></trkpt><trkpt lat="44.86192313415145" lon="11.831428400843901"><ele>0.0</ele><time>2026-03-28T15:41:48.943Z</time></trkpt><trkpt lat="44.86214449736491" lon="11.831372931348518"><ele>0.0</ele><time>2026-03-28T15:41:49.943Z</time></trkpt><trkpt lat="44.86237706639023" lon="11.831350743206121"><ele>0.0</ele><time>2026-03-28T15:41:50.943Z</time></trkpt><trkpt lat="44.86260349690099" lon="11.831339468499527"><ele>0.0</ele><time>2026-03-28T15:41:51.943Z</time></trkpt><trkpt lat="44.86282858244281" lon="11.831326441891092"><ele>0.0</ele><time>2026-03-28T15:41:52.943Z</time></trkpt><trkpt lat="44.86305371838752" lon="11.831319763638396"><ele>0.0</ele><time>2026-03-28T15:41:53.943Z</time></trkpt><trkpt lat="44.86327794609065" lon="11.831306331854377"><ele>0.0</ele><time>2026-03-28T15:41:54.943Z</time></trkpt><trkpt lat="44.86349348225604" lon="11.831301856410711"><ele>0.0</ele><time>2026-03-28T15:41:55.943Z</time></trkpt><trkpt lat="44.863696511604154" lon="11.831296082931496"><ele>0.3333333333333333</ele><time>2026-03-28T15:41:56.943Z</time></trkpt><trkpt lat="44.863892220225594" lon="11.831278334395433"><ele>0.6666666666666666</ele><time>2026-03-28T15:41:57.943Z</time></trkpt><trkpt lat="44.86408757089059" lon="11.831288094012024"><ele>1.0</ele><time>2026-03-28T15:41:58.943Z</time></trkpt><trkpt lat="44.86428026404118" lon="11.831291479951267"><ele>1.0</ele><time>2026-03-28T15:41:59.943Z</time></trkpt><trkpt lat="44.864470553440874" lon="11.831287569134505"><ele>1.0</ele><time>2026-03-28T15:42:00.943Z</time></trkpt><trkpt lat="44.86465427990834" lon="11.831301492840444"><ele>1.0</ele><time>2026-03-28T15:42:01.943Z</time></trkpt><trkpt lat="44.86484400328836" lon="11.831318290163193"><ele>1.0</ele><time>2026-03-28T15:42:02.943Z</time></trkpt><trkpt lat="44.86502768114586" lon="11.831322447833056"><ele>1.0</ele><time>2026-03-28T15:42:03.943Z</time></trkpt><trkpt lat="44.86521327311017" lon="11.831310190635323"><ele>1.0</ele><time>2026-03-28T15:42:04.943Z</time></trkpt><trkpt lat="44.86539190095295" lon="11.83127169935774"><ele>0.6666666666666666</ele><time>2026-03-28T15:42:05.943Z</time></trkpt><trkpt lat="44.865565921440414" lon="11.83120181924408"><ele>0.3333333333333333</ele><time>2026-03-28T15:42:06.943Z</time></trkpt><trkpt lat="44.865751540611" lon="11.831121279408856"><ele>0.0</ele><time>2026-03-28T15:42:07.943Z</time></trkpt><trkpt lat="44.86593501576729" lon="11.831024909778646"><ele>0.3333333333333333</ele><time>2026-03-28T15:42:08.943Z</time></trkpt><trkpt lat="44.866120543288744" lon="11.830918317551793"><ele>0.6666666666666666</ele><time>2026-03-28T15:42:09.943Z</time></trkpt><trkpt lat="44.86630891434494" lon="11.830820223254598"><ele>1.0</ele><time>2026-03-28T15:42:10.943Z</time></trkpt><trkpt lat="44.86649614155538" lon="11.830738648814405"><ele>1.0</ele><time>2026-03-28T15:42:11.943Z</time></trkpt><trkpt lat="44.86668156877463" lon="11.83067344352293"><ele>1.0</ele><time>2026-03-28T15:42:12.943Z</time></trkpt><trkpt lat="44.866865544976086" lon="11.830619398937252"><ele>1.0</ele><time>2026-03-28T15:42:13.943Z</time></trkpt><trkpt lat="44.8670479320588" lon="11.830578200754964"><ele>1.3333333333333333</ele><time>2026-03-28T15:42:14.943Z</time></trkpt><trkpt lat="44.86722433513881" lon="11.830562258284054"><ele>1.6666666666666665</ele><time>2026-03-28T15:42:15.943Z</time></trkpt><trkpt lat="44.86739021429611" lon="11.830586401847924"><ele>2.0</ele><time>2026-03-28T15:42:16.943Z</time></trkpt><trkpt lat="44.86755180311455" lon="11.830682354195904"><ele>2.0</ele><time>2026-03-28T15:42:17.943Z</time></trkpt><trkpt lat="44.86770828486973" lon="11.83079358657362"><ele>2.0</ele><time>2026-03-28T15:42:18.942Z</time></trkpt><trkpt lat="44.86785853467044" lon="11.830947082605869"><ele>2.0</ele><time>2026-03-28T15:42:19.942Z</time></trkpt><trkpt lat="44.8679984981232" lon="11.831112821999746"><ele>2.0</ele><time>2026-03-28T15:42:20.942Z</time></trkpt><trkpt lat="44.8681391856052" lon="11.831283922815892"><ele>2.0</ele><time>2026-03-28T15:42:21.942Z</time></trkpt><trkpt lat="44.86828526490606" lon="11.831461581224522"><ele>2.0</ele><time>2026-03-28T15:42:22.942Z</time></trkpt><trkpt lat="44.868429106157855" lon="11.831636517618929"><ele>2.0</ele><time>2026-03-28T15:42:23.942Z</time></trkpt><trkpt lat="44.86857049610175" lon="11.831807670359344"><ele>2.0</ele><time>2026-03-28T15:42:24.942Z</time></trkpt><trkpt lat="44.86870951377302" lon="11.831974742889093"><ele>2.0</ele><time>2026-03-28T15:42:25.942Z</time></trkpt><trkpt lat="44.86885762511897" lon="11.832119276896183"><ele>2.0</ele><time>2026-03-28T15:42:26.942Z</time></trkpt><trkpt lat="44.868998192212075" lon="11.832276467366627"><ele>2.0</ele><time>2026-03-28T15:42:27.942Z</time></trkpt><trkpt lat="44.8691475005033" lon="11.832422952006189"><ele>2.0</ele><time>2026-03-28T15:42:28.942Z</time></trkpt><trkpt lat="44.86930214159297" lon="11.832562152407338"><ele>2.333333333333333</ele><time>2026-03-28T15:42:29.942Z</time></trkpt><trkpt lat="44.86946142994746" lon="11.83269698429077"><ele>2.6666666666666665</ele><time>2026-03-28T15:42:30.942Z</time></trkpt><trkpt lat="44.869618821800834" lon="11.832826077580597"><ele>3.0</ele><time>2026-03-28T15:42:31.942Z</time></trkpt><trkpt lat="44.86976265303414" lon="11.832946728617346"><ele>3.0</ele><time>2026-03-28T15:42:32.942Z</time></trkpt><trkpt lat="44.86989311626101" lon="11.833059172603003"><ele>3.0</ele><time>2026-03-28T15:42:33.942Z</time></trkpt><trkpt lat="44.87001645567316" lon="11.833159727228757"><ele>3.0</ele><time>2026-03-28T15:42:34.942Z</time></trkpt><trkpt lat="44.87014088101374" lon="11.833259038890972"><ele>3.0</ele><time>2026-03-28T15:42:35.942Z</time></trkpt><trkpt lat="44.87025126667762" lon="11.83335508666882"><ele>3.0</ele><time>2026-03-28T15:42:36.942Z</time></trkpt><trkpt lat="44.8703618357446" lon="11.833453753003052"><ele>3.0</ele><time>2026-03-28T15:42:37.942Z</time></trkpt><trkpt lat="44.87046695142488" lon="11.833552914723949"><ele>3.0</ele><time>2026-03-28T15:42:38.942Z</time></trkpt><trkpt lat="44.87056847588597" lon="11.83364104312869"><ele>3.0</ele><time>2026-03-28T15:42:39.942Z</time></trkpt><trkpt lat="44.870673939411354" lon="11.8337377803363"><ele>3.0</ele><time>2026-03-28T15:42:40.942Z</time></trkpt><trkpt lat="44.87078959585377" lon="11.833840728249239"><ele>3.0</ele><time>2026-03-28T15:42:41.942Z</time></trkpt><trkpt lat="44.87090064148569" lon="11.833978664077254"><ele>3.0</ele><time>2026-03-28T15:42:42.943Z</time></trkpt><trkpt lat="44.87104967665783" lon="11.834076574596716"><ele>3.0</ele><time>2026-03-28T15:42:43.943Z</time></trkpt><trkpt lat="44.87121876654593" lon="11.834174204921306"><ele>2.6666666666666665</ele><time>2026-03-28T15:42:44.943Z</time></trkpt><trkpt lat="44.871402361250276" lon="11.834279187066855"><ele>2.333333333333333</ele><time>2026-03-28T15:42:45.943Z</time></trkpt><trkpt lat="44.87159865272937" lon="11.834377859019664"><ele>2.0</ele><time>2026-03-28T15:42:46.943Z</time></trkpt><trkpt lat="44.87179000763076" lon="11.834497138653585"><ele>1.3333333333333333</ele><time>2026-03-28T15:42:47.943Z</time></trkpt><trkpt lat="44.871980521840534" lon="11.834642622684274"><ele>0.6666666666666666</ele><time>2026-03-28T15:42:48.943Z</time></trkpt><trkpt lat="44.87216317582485" lon="11.834828678738265"><ele>0.0</ele><time>2026-03-28T15:42:49.943Z</time></trkpt><trkpt lat="44.87235028145181" lon="11.835020507188993"><ele>0.0</ele><time>2026-03-28T15:42:50.943Z</time></trkpt><trkpt lat="44.87254315487403" lon="11.835219988128117"><ele>0.0</ele><time>2026-03-28T15:42:51.943Z</time></trkpt><trkpt lat="44.87274389816587" lon="11.835427270481121"><ele>0.0</ele><time>2026-03-28T15:42:52.943Z</time></trkpt><trkpt lat="44.872952986059424" lon="11.835635737115545"><ele>0.0</ele><time>2026-03-28T15:42:53.943Z</time></trkpt><trkpt lat="44.873165760357786" lon="11.835852682234478"><ele>0.5</ele><time>2026-03-28T15:42:54.943Z</time></trkpt><trkpt lat="44.8733779358162" lon="11.83607170725117"><ele>1.0</ele><time>2026-03-28T15:42:55.942Z</time></trkpt><trkpt lat="44.87358465014014" lon="11.836283782415844"><ele>1.0</ele><time>2026-03-28T15:42:56.942Z</time></trkpt><trkpt lat="44.87378744643142" lon="11.836498292863993"><ele>1.0</ele><time>2026-03-28T15:42:57.942Z</time></trkpt><trkpt lat="44.87398080496437" lon="11.836701014904177"><ele>0.5</ele><time>2026-03-28T15:42:58.942Z</time></trkpt><trkpt lat="44.87416776665257" lon="11.836888538075362"><ele>0.0</ele><time>2026-03-28T15:42:59.942Z</time></trkpt><trkpt lat="44.87435109245577" lon="11.837075597272376"><ele>1.0</ele><time>2026-03-28T15:43:00.942Z</time></trkpt><trkpt lat="44.87453518816336" lon="11.837261149152342"><ele>2.0</ele><time>2026-03-28T15:43:01.942Z</time></trkpt><trkpt lat="44.87469023770747" lon="11.83744388427122"><ele>3.0</ele><time>2026-03-28T15:43:02.942Z</time></trkpt><trkpt lat="44.87484104320232" lon="11.83760306410846"><ele>2.6666666666666665</ele><time>2026-03-28T15:43:03.942Z</time></trkpt><trkpt lat="44.87499437366069" lon="11.8377450762508"><ele>2.333333333333333</ele><time>2026-03-28T15:43:04.942Z</time></trkpt><trkpt lat="44.87511436887266" lon="11.83795087855131"><ele>2.0</ele><time>2026-03-28T15:43:05.942Z</time></trkpt><trkpt lat="44.87524530735688" lon="11.838149532599449"><ele>1.6666666666666665</ele><time>2026-03-28T15:43:06.942Z</time></trkpt><trkpt lat="44.87537061622508" lon="11.838343668155575"><ele>1.3333333333333333</ele><time>2026-03-28T15:43:07.942Z</time></trkpt><trkpt lat="44.87549595188493" lon="11.838521589297505"><ele>1.0</ele><time>2026-03-28T15:43:08.942Z</time></trkpt><trkpt lat="44.87563375527096" lon="11.838677725484578"><ele>0.6666666666666666</ele><time>2026-03-28T15:43:09.942Z</time></trkpt><trkpt lat="44.87579441320232" lon="11.838801600295463"><ele>0.3333333333333333</ele><time>2026-03-28T15:43:10.942Z</time></trkpt><trkpt lat="44.87598565523043" lon="11.838916116110791"><ele>0.0</ele><time>2026-03-28T15:43:11.942Z</time></trkpt><trkpt lat="44.87618209368897" lon="11.839019214221377"><ele>0.6666666666666666</ele><time>2026-03-28T15:43:12.942Z</time></trkpt><trkpt lat="44.87638775073576" lon="11.839101412992827"><ele>1.3333333333333333</ele><time>2026-03-28T15:43:13.942Z</time></trkpt><trkpt lat="44.876616580561766" lon="11.839174295242055"><ele>2.0</ele><time>2026-03-28T15:43:14.942Z</time></trkpt><trkpt lat="44.87686445180667" lon="11.839289011976007"><ele>2.0</ele><time>2026-03-28T15:43:15.942Z</time></trkpt><trkpt lat="44.87711002915285" lon="11.839377662365475"><ele>2.0</ele><time>2026-03-28T15:43:16.942Z</time></trkpt><trkpt lat="44.877340029698125" lon="11.839493560469727"><ele>2.0</ele><time>2026-03-28T15:43:17.942Z</time></trkpt><trkpt lat="44.877562549632465" lon="11.839627457494593"><ele>2.0</ele><time>2026-03-28T15:43:18.942Z</time></trkpt><trkpt lat="44.877777016144066" lon="11.83976138095324"><ele>1.6666666666666665</ele><time>2026-03-28T15:43:19.942Z</time></trkpt><trkpt lat="44.877986776907655" lon="11.83988387860186"><ele>1.3333333333333333</ele><time>2026-03-28T15:43:20.942Z</time></trkpt><trkpt lat="44.878186966837234" lon="11.839991807424749"><ele>1.0</ele><time>2026-03-28T15:43:21.942Z</time></trkpt><trkpt lat="44.87840683487431" lon="11.840070973226744"><ele>0.0</ele><time>2026-03-28T15:43:22.942Z</time></trkpt><trkpt lat="44.878631089147994" lon="11.840111831088903"><ele>-1.0</ele><time>2026-03-28T15:43:23.942Z</time></trkpt><trkpt lat="44.87886500392645" lon="11.840115015468735"><ele>-1.0</ele><time>2026-03-28T15:43:24.942Z</time></trkpt><trkpt lat="44.87911084796023" lon="11.840065996637199"><ele>-1.0</ele><time>2026-03-28T15:43:25.942Z</time></trkpt><trkpt lat="44.87935650989557" lon="11.839976623437906"><ele>-0.5</ele><time>2026-03-28T15:43:26.942Z</time></trkpt><trkpt lat="44.8796063340212" lon="11.839883068111089"><ele>0.0</ele><time>2026-03-28T15:43:27.942Z</time></trkpt><trkpt lat="44.879855058159976" lon="11.839777858882814"><ele>0.0</ele><time>2026-03-28T15:43:28.942Z</time></trkpt><trkpt lat="44.880099972138225" lon="11.839663042584016"><ele>0.0</ele><time>2026-03-28T15:43:29.942Z</time></trkpt><trkpt lat="44.88035019428799" lon="11.839534939086075"><ele>0.5</ele><time>2026-03-28T15:43:30.942Z</time></trkpt><trkpt lat="44.88060420741892" lon="11.839405145860352"><ele>1.0</ele><time>2026-03-28T15:43:31.942Z</time></trkpt><trkpt lat="44.88086577221431" lon="11.839271269551766"><ele>1.5</ele><time>2026-03-28T15:43:32.942Z</time></trkpt><trkpt lat="44.88113745909901" lon="11.83912978355826"><ele>2.0</ele><time>2026-03-28T15:43:33.942Z</time></trkpt><trkpt lat="44.881413074440175" lon="11.838988304570355"><ele>2.0</ele><time>2026-03-28T15:43:34.942Z</time></trkpt><trkpt lat="44.881695368662236" lon="11.838844369264974"><ele>2.0</ele><time>2026-03-28T15:43:35.942Z</time></trkpt><trkpt lat="44.88198115959105" lon="11.838693782359265"><ele>1.5</ele><time>2026-03-28T15:43:36.942Z</time></trkpt><trkpt lat="44.88226088597824" lon="11.838546225872548"><ele>1.0</ele><time>2026-03-28T15:43:37.942Z</time></trkpt><trkpt lat="44.882528048942234" lon="11.838409832731239"><ele>1.5</ele><time>2026-03-28T15:43:38.942Z</time></trkpt><trkpt lat="44.882778277055735" lon="11.838285920389747"><ele>2.0</ele><time>2026-03-28T15:43:39.942Z</time></trkpt><trkpt lat="44.88301395712908" lon="11.83816333595609"><ele>2.0</ele><time>2026-03-28T15:43:40.942Z</time></trkpt><trkpt lat="44.883254799029686" lon="11.838049767588316"><ele>2.0</ele><time>2026-03-28T15:43:41.941Z</time></trkpt><trkpt lat="44.88350505769492" lon="11.837944171676641"><ele>2.0</ele><time>2026-03-28T15:43:42.941Z</time></trkpt><trkpt lat="44.883763419874505" lon="11.837870388391055"><ele>2.0</ele><time>2026-03-28T15:43:43.941Z</time></trkpt><trkpt lat="44.884026824556365" lon="11.83780658824338"><ele>2.0</ele><time>2026-03-28T15:43:44.941Z</time></trkpt><trkpt lat="44.884285204296894" lon="11.837751166297716"><ele>2.0</ele><time>2026-03-28T15:43:45.941Z</time></trkpt><trkpt lat="44.884537129994364" lon="11.837697823144989"><ele>2.0</ele><time>2026-03-28T15:43:46.941Z</time></trkpt><trkpt lat="44.884778851921986" lon="11.837646567669585"><ele>2.0</ele><time>2026-03-28T15:43:47.941Z</time></trkpt><trkpt lat="44.88500652063206" lon="11.83759788125651"><ele>1.3333333333333333</ele><time>2026-03-28T15:43:48.941Z</time></trkpt><trkpt lat="44.8852225405269" lon="11.8375488110895"><ele>0.6666666666666666</ele><time>2026-03-28T15:43:49.941Z</time></trkpt><trkpt lat="44.88543031020623" lon="11.837510011818809"><ele>0.0</ele><time>2026-03-28T15:43:50.941Z</time></trkpt><trkpt lat="44.88562842042419" lon="11.837463892743436"><ele>0.0</ele><time>2026-03-28T15:43:51.941Z</time></trkpt><trkpt lat="44.8858273751016" lon="11.837421622564095"><ele>0.0</ele><time>2026-03-28T15:43:52.941Z</time></trkpt><trkpt lat="44.88602035394032" lon="11.83737904846607"><ele>0.0</ele><time>2026-03-28T15:43:53.941Z</time></trkpt><trkpt lat="44.88619731820513" lon="11.837334438742364"><ele>-0.25</ele><time>2026-03-28T15:43:54.941Z</time></trkpt><trkpt lat="44.88636137609436" lon="11.837293154679315"><ele>-0.5</ele><time>2026-03-28T15:43:55.941Z</time></trkpt><trkpt lat="44.886495865470856" lon="11.837263156809495"><ele>-0.75</ele><time>2026-03-28T15:43:56.941Z</time></trkpt><trkpt lat="44.88662159104509" lon="11.837230375216091"><ele>-1.0</ele><time>2026-03-28T15:43:57.941Z</time></trkpt><trkpt lat="44.88674412650295" lon="11.837204185734345"><ele>-0.8</ele><time>2026-03-28T15:43:58.941Z</time></trkpt><trkpt lat="44.886839510971775" lon="11.837193192797994"><ele>-0.6000000000000001</ele><time>2026-03-28T15:43:59.941Z</time></trkpt><trkpt lat="44.886939695553174" lon="11.837177517412485"><ele>-0.4</ele><time>2026-03-28T15:44:00.941Z</time></trkpt><trkpt lat="44.88703730281496" lon="11.837178694839839"><ele>-0.2</ele><time>2026-03-28T15:44:01.941Z</time></trkpt><trkpt lat="44.887126931705296" lon="11.837183214516788"><ele>0.0</ele><time>2026-03-28T15:44:02.941Z</time></trkpt><trkpt lat="44.887223289827766" lon="11.837193462008605"><ele>0.0</ele><time>2026-03-28T15:44:03.941Z</time></trkpt><trkpt lat="44.887322670972544" lon="11.837203809880673"><ele>0.0</ele><time>2026-03-28T15:44:04.941Z</time></trkpt><trkpt lat="44.88740329999253" lon="11.837199561650595"><ele>0.0</ele><time>2026-03-28T15:44:05.941Z</time></trkpt><trkpt lat="44.88746831300229" lon="11.837156140851821"><ele>0.0</ele><time>2026-03-28T15:44:06.941Z</time></trkpt><trkpt lat="44.88750731452243" lon="11.837082284118843"><ele>0.0</ele><time>2026-03-28T15:44:07.941Z</time></trkpt><trkpt lat="44.887514202004326" lon="11.836983100136358"><ele>0.0</ele><time>2026-03-28T15:44:08.941Z</time></trkpt><trkpt lat="44.88747638287471" lon="11.836863282628011"><ele>0.25</ele><time>2026-03-28T15:44:09.941Z</time></trkpt><trkpt lat="44.88739738718574" lon="11.836754699402489"><ele>0.5</ele><time>2026-03-28T15:44:10.941Z</time></trkpt><trkpt lat="44.88729984878493" lon="11.836643206211615"><ele>0.75</ele><time>2026-03-28T15:44:11.941Z</time></trkpt><trkpt lat="44.88720751295697" lon="11.836474683104196"><ele>1.0</ele><time>2026-03-28T15:44:12.941Z</time></trkpt><trkpt lat="44.887125996742874" lon="11.836252251537736"><ele>1.0</ele><time>2026-03-28T15:44:13.941Z</time></trkpt><trkpt lat="44.88704994349249" lon="11.835985279814697"><ele>1.0</ele><time>2026-03-28T15:44:14.941Z</time></trkpt><trkpt lat="44.88697107759911" lon="11.835706392014647"><ele>1.0</ele><time>2026-03-28T15:44:15.941Z</time></trkpt><trkpt lat="44.886878438506365" lon="11.835394813993261"><ele>1.0</ele><time>2026-03-28T15:44:16.941Z</time></trkpt><trkpt lat="44.886777718629666" lon="11.835065107145818"><ele>1.0</ele><time>2026-03-28T15:44:17.941Z</time></trkpt><trkpt lat="44.886676814631656" lon="11.834714958663623"><ele>1.0</ele><time>2026-03-28T15:44:18.941Z</time></trkpt><trkpt lat="44.88656976636847" lon="11.834346606505376"><ele>1.0</ele><time>2026-03-28T15:44:19.941Z</time></trkpt><trkpt lat="44.88645988353006" lon="11.833960904055417"><ele>1.0</ele><time>2026-03-28T15:44:20.941Z</time></trkpt><trkpt lat="44.8863460354817" lon="11.83356403267408"><ele>1.0</ele><time>2026-03-28T15:44:21.941Z</time></trkpt><trkpt lat="44.88623085311547" lon="11.833157035467705"><ele>0.5</ele><time>2026-03-28T15:44:22.941Z</time></trkpt><trkpt lat="44.88611270941587" lon="11.832748519457146"><ele>0.0</ele><time>2026-03-28T15:44:23.941Z</time></trkpt><trkpt lat="44.88599145756201" lon="11.832344341019109"><ele>0.5</ele><time>2026-03-28T15:44:24.941Z</time></trkpt><trkpt lat="44.885872849939595" lon="11.831952462566399"><ele>1.0</ele><time>2026-03-28T15:44:25.941Z</time></trkpt><trkpt lat="44.885757710726594" lon="11.831568067304016"><ele>1.5</ele><time>2026-03-28T15:44:26.941Z</time></trkpt><trkpt lat="44.88564542311197" lon="11.831191804462945"><ele>2.0</ele><time>2026-03-28T15:44:27.941Z</time></trkpt><trkpt lat="44.88553830702431" lon="11.830824815899947"><ele>2.0</ele><time>2026-03-28T15:44:28.941Z</time></trkpt><trkpt lat="44.88543718740662" lon="11.830479556063628"><ele>2.0</ele><time>2026-03-28T15:44:29.941Z</time></trkpt><trkpt lat="44.88534348915529" lon="11.83016442213962"><ele>2.0</ele><time>2026-03-28T15:44:30.94Z</time></trkpt><trkpt lat="44.88525770779127" lon="11.829870876070213"><ele>2.0</ele><time>2026-03-28T15:44:31.94Z</time></trkpt><trkpt lat="44.8851703915091" lon="11.82956429550998"><ele>1.5</ele><time>2026-03-28T15:44:32.94Z</time></trkpt><trkpt lat="44.88507652848011" lon="11.829251162421855"><ele>1.0</ele><time>2026-03-28T15:44:33.94Z</time></trkpt><trkpt lat="44.88498150524918" lon="11.828926597027909"><ele>1.0</ele><time>2026-03-28T15:44:34.94Z</time></trkpt><trkpt lat="44.88488776039882" lon="11.82857918232537"><ele>1.0</ele><time>2026-03-28T15:44:35.94Z</time></trkpt><trkpt lat="44.88481029959358" lon="11.828209659240141"><ele>1.0</ele><time>2026-03-28T15:44:36.94Z</time></trkpt><trkpt lat="44.88475377916944" lon="11.827819620332624"><ele>1.0</ele><time>2026-03-28T15:44:37.94Z</time></trkpt><trkpt lat="44.884703113881216" lon="11.827421958841747"><ele>0.5</ele><time>2026-03-28T15:44:38.94Z</time></trkpt><trkpt lat="44.884672066577856" lon="11.827011231229392"><ele>0.0</ele><time>2026-03-28T15:44:39.94Z</time></trkpt><trkpt lat="44.88464865158365" lon="11.826589184229112"><ele>1.0</ele><time>2026-03-28T15:44:40.94Z</time></trkpt><trkpt lat="44.88462561173257" lon="11.826167334873592"><ele>2.0</ele><time>2026-03-28T15:44:41.94Z</time></trkpt><trkpt lat="44.88460902550672" lon="11.825753700283595"><ele>2.5</ele><time>2026-03-28T15:44:42.94Z</time></trkpt><trkpt lat="44.88459195678846" lon="11.825359632015312"><ele>3.0</ele><time>2026-03-28T15:44:43.94Z</time></trkpt><trkpt lat="44.884571635662" lon="11.824988496104767"><ele>3.5</ele><time>2026-03-28T15:44:44.94Z</time></trkpt><trkpt lat="44.88455646661301" lon="11.824623796193611"><ele>4.0</ele><time>2026-03-28T15:44:45.94Z</time></trkpt><trkpt lat="44.88453940950701" lon="11.824260987546362"><ele>3.0</ele><time>2026-03-28T15:44:46.94Z</time></trkpt><trkpt lat="44.884522002686744" lon="11.823909436316884"><ele>2.0</ele><time>2026-03-28T15:44:47.94Z</time></trkpt><trkpt lat="44.8845066664948" lon="11.823576743469076"><ele>2.6666666666666665</ele><time>2026-03-28T15:44:48.942Z</time></trkpt><trkpt lat="44.88449174783954" lon="11.82325825071994"><ele>3.333333333333333</ele><time>2026-03-28T15:44:49.942Z</time></trkpt><trkpt lat="44.88447811153164" lon="11.822959477872958"><ele>4.0</ele><time>2026-03-28T15:44:50.942Z</time></trkpt><trkpt lat="44.88446461674994" lon="11.822668826711864"><ele>4.0</ele><time>2026-03-28T15:44:51.942Z</time></trkpt><trkpt lat="44.8844512080416" lon="11.822392334757826"><ele>4.0</ele><time>2026-03-28T15:44:52.942Z</time></trkpt><trkpt lat="44.884432714872695" lon="11.822134496276929"><ele>4.0</ele><time>2026-03-28T15:44:53.942Z</time></trkpt><trkpt lat="44.88442141101416" lon="11.821886881075246"><ele>3.6666666666666665</ele><time>2026-03-28T15:44:54.942Z</time></trkpt><trkpt lat="44.88440859056105" lon="11.821645977464778"><ele>3.333333333333333</ele><time>2026-03-28T15:44:55.942Z</time></trkpt><trkpt lat="44.88439561169757" lon="11.821397514141339"><ele>3.0</ele><time>2026-03-28T15:44:56.942Z</time></trkpt><trkpt lat="44.88438332600175" lon="11.82115994345205"><ele>3.0</ele><time>2026-03-28T15:44:57.942Z</time></trkpt><trkpt lat="44.884371110702624" lon="11.82093021857659"><ele>3.0</ele><time>2026-03-28T15:44:58.942Z</time></trkpt><trkpt lat="44.88435855333262" lon="11.82069406068979"><ele>3.0</ele><time>2026-03-28T15:44:59.942Z</time></trkpt><trkpt lat="44.88434598965589" lon="11.820457784212492"><ele>3.0</ele><time>2026-03-28T15:45:00.942Z</time></trkpt><trkpt lat="44.8843327030539" lon="11.820210539055283"><ele>3.0</ele><time>2026-03-28T15:45:01.942Z</time></trkpt><trkpt lat="44.88431862371517" lon="11.819949495413297"><ele>3.0</ele><time>2026-03-28T15:45:02.942Z</time></trkpt><trkpt lat="44.88428825933282" lon="11.819687397777297"><ele>3.333333333333333</ele><time>2026-03-28T15:45:03.942Z</time></trkpt><trkpt lat="44.88427698571856" lon="11.81941574674146"><ele>3.6666666666666665</ele><time>2026-03-28T15:45:04.942Z</time></trkpt><trkpt lat="44.88426130772515" lon="11.819146537819277"><ele>4.0</ele><time>2026-03-28T15:45:05.942Z</time></trkpt><trkpt lat="44.884245822435446" lon="11.818874565354125"><ele>4.0</ele><time>2026-03-28T15:45:06.942Z</time></trkpt><trkpt lat="44.884245800121015" lon="11.818591523104178"><ele>4.0</ele><time>2026-03-28T15:45:07.942Z</time></trkpt><trkpt lat="44.88423100439479" lon="11.818307029844599"><ele>4.0</ele><time>2026-03-28T15:45:08.942Z</time></trkpt><trkpt lat="44.88421561188514" lon="11.818022351540428"><ele>4.0</ele><time>2026-03-28T15:45:09.942Z</time></trkpt><trkpt lat="44.884200419673" lon="11.817747236521678"><ele>4.0</ele><time>2026-03-28T15:45:10.942Z</time></trkpt><trkpt lat="44.88418578427816" lon="11.817490858814862"><ele>4.0</ele><time>2026-03-28T15:45:11.942Z</time></trkpt><trkpt lat="44.8841714165921" lon="11.81723942428116"><ele>3.6666666666666665</ele><time>2026-03-28T15:45:12.942Z</time></trkpt><trkpt lat="44.88415781818146" lon="11.817001452059955"><ele>3.333333333333333</ele><time>2026-03-28T15:45:13.942Z</time></trkpt><trkpt lat="44.88414660516315" lon="11.816773014078775"><ele>3.0</ele><time>2026-03-28T15:45:14.942Z</time></trkpt><trkpt lat="44.88414452059744" lon="11.816527947047465"><ele>3.0</ele><time>2026-03-28T15:45:15.942Z</time></trkpt><trkpt lat="44.884162094778" lon="11.816302427320691"><ele>3.0</ele><time>2026-03-28T15:45:16.942Z</time></trkpt><trkpt lat="44.88420129587306" lon="11.816067939666596"><ele>3.0</ele><time>2026-03-28T15:45:17.942Z</time></trkpt><trkpt lat="44.88426115082213" lon="11.81583492715355"><ele>3.0</ele><time>2026-03-28T15:45:18.942Z</time></trkpt><trkpt lat="44.88433753260466" lon="11.815597773583393"><ele>3.0</ele><time>2026-03-28T15:45:19.942Z</time></trkpt><trkpt lat="44.88445029108424" lon="11.815388763700394"><ele>3.0</ele><time>2026-03-28T15:45:20.942Z</time></trkpt><trkpt lat="44.88458449767494" lon="11.815185989345311"><ele>2.3333333333333335</ele><time>2026-03-28T15:45:21.942Z</time></trkpt><trkpt lat="44.88474089989689" lon="11.81500749372917"><ele>1.6666666666666665</ele><time>2026-03-28T15:45:22.942Z</time></trkpt><trkpt lat="44.884899846769805" lon="11.814858195021316"><ele>1.0</ele><time>2026-03-28T15:45:23.942Z</time></trkpt><trkpt lat="44.885051883503536" lon="11.814732237335"><ele>1.0</ele><time>2026-03-28T15:45:24.942Z</time></trkpt><trkpt lat="44.885193285579646" lon="11.814605878184597"><ele>1.0</ele><time>2026-03-28T15:45:25.942Z</time></trkpt><trkpt lat="44.88532976253796" lon="11.814468710548232"><ele>1.0</ele><time>2026-03-28T15:45:26.942Z</time></trkpt><trkpt lat="44.88546806386873" lon="11.814339159808847"><ele>0.6666666666666666</ele><time>2026-03-28T15:45:27.942Z</time></trkpt><trkpt lat="44.88561153194633" lon="11.814209908582745"><ele>0.3333333333333333</ele><time>2026-03-28T15:45:28.942Z</time></trkpt><trkpt lat="44.88574829283431" lon="11.81406624494648"><ele>0.0</ele><time>2026-03-28T15:45:29.942Z</time></trkpt><trkpt lat="44.885881839475" lon="11.813953257316072"><ele>0.0</ele><time>2026-03-28T15:45:30.942Z</time></trkpt><trkpt lat="44.88601825068419" lon="11.813819637523492"><ele>0.0</ele><time>2026-03-28T15:45:31.942Z</time></trkpt><trkpt lat="44.88615591237893" lon="11.813684075641138"><ele>0.0</ele><time>2026-03-28T15:45:32.941Z</time></trkpt><trkpt lat="44.88629676417755" lon="11.813552975084892"><ele>0.3333333333333333</ele><time>2026-03-28T15:45:33.941Z</time></trkpt><trkpt lat="44.886434916894544" lon="11.813420732238283"><ele>0.6666666666666666</ele><time>2026-03-28T15:45:34.941Z</time></trkpt><trkpt lat="44.886570434797534" lon="11.813299002927176"><ele>1.0</ele><time>2026-03-28T15:45:35.941Z</time></trkpt><trkpt lat="44.8867043100565" lon="11.81318231131127"><ele>1.3333333333333333</ele><time>2026-03-28T15:45:36.941Z</time></trkpt><trkpt lat="44.88683774071314" lon="11.813061794094631"><ele>1.6666666666666665</ele><time>2026-03-28T15:45:37.941Z</time></trkpt><trkpt lat="44.88697120490245" lon="11.812932698639374"><ele>2.0</ele><time>2026-03-28T15:45:38.941Z</time></trkpt><trkpt lat="44.887104794022214" lon="11.812794011575152"><ele>2.0</ele><time>2026-03-28T15:45:39.941Z</time></trkpt><trkpt lat="44.88724238642201" lon="11.81267407985186"><ele>2.0</ele><time>2026-03-28T15:45:40.941Z</time></trkpt><trkpt lat="44.88737817968896" lon="11.812558240185409"><ele>2.0</ele><time>2026-03-28T15:45:41.941Z</time></trkpt><trkpt lat="44.88751094817365" lon="11.81243278323169"><ele>2.0</ele><time>2026-03-28T15:45:42.941Z</time></trkpt><trkpt lat="44.88764277256234" lon="11.812317004680114"><ele>2.0</ele><time>2026-03-28T15:45:43.941Z</time></trkpt><trkpt lat="44.88777118813867" lon="11.81221054057502"><ele>2.0</ele><time>2026-03-28T15:45:44.941Z</time></trkpt><trkpt lat="44.88789683449061" lon="11.81211520732024"><ele>2.0</ele><time>2026-03-28T15:45:45.941Z</time></trkpt><trkpt lat="44.88803127950263" lon="11.81203445823481"><ele>2.0</ele><time>2026-03-28T15:45:46.941Z</time></trkpt><trkpt lat="44.88817090379324" lon="11.811959505385472"><ele>2.0</ele><time>2026-03-28T15:45:47.941Z</time></trkpt><trkpt lat="44.88831076717658" lon="11.811891663801967"><ele>2.0</ele><time>2026-03-28T15:45:48.941Z</time></trkpt><trkpt lat="44.8884408348255" lon="11.811839575755485"><ele>2.0</ele><time>2026-03-28T15:45:49.941Z</time></trkpt><trkpt lat="44.888560970259874" lon="11.811794790388856"><ele>2.0</ele><time>2026-03-28T15:45:50.941Z</time></trkpt><trkpt lat="44.88866184809808" lon="11.811766617009944"><ele>2.0</ele><time>2026-03-28T15:45:51.941Z</time></trkpt><trkpt lat="44.888766558253565" lon="11.811761778574686"><ele>2.0</ele><time>2026-03-28T15:45:53.941Z</time></trkpt><trkpt lat="44.888864143181365" lon="11.811736388961425"><ele>2.0</ele><time>2026-03-28T15:45:55.941Z</time></trkpt><trkpt lat="44.88894583135178" lon="11.811808933906699"><ele>2.0</ele><time>2026-03-28T15:45:56.941Z</time></trkpt><trkpt lat="44.88902570826682" lon="11.81186993012581"><ele>1.9999999999999998</ele><time>2026-03-28T15:45:57.941Z</time></trkpt><trkpt lat="44.88910517195144" lon="11.81192570601734"><ele>2.0</ele><time>2026-03-28T15:45:58.941Z</time></trkpt><trkpt lat="44.889187627123356" lon="11.811931817016577"><ele>2.0</ele><time>2026-03-28T15:45:59.941Z</time></trkpt><trkpt lat="44.889265677925515" lon="11.811908611510143"><ele>2.0</ele><time>2026-03-28T15:46:00.941Z</time></trkpt><trkpt lat="44.88932880800665" lon="11.811824604915076"><ele>1.9999999999999998</ele><time>2026-03-28T15:46:01.941Z</time></trkpt><trkpt lat="44.88938404617017" lon="11.811710262199357"><ele>2.0</ele><time>2026-03-28T15:46:02.941Z</time></trkpt><trkpt lat="44.889455159657764" lon="11.8115745599984"><ele>2.333333333333333</ele><time>2026-03-28T15:46:03.941Z</time></trkpt><trkpt lat="44.889630249760266" lon="11.81157231790585"><ele>2.6666666666666665</ele><time>2026-03-28T15:46:04.941Z</time></trkpt><trkpt lat="44.88976554974017" lon="11.811564087214874"><ele>3.0</ele><time>2026-03-28T15:46:05.941Z</time></trkpt><trkpt lat="44.88990530360475" lon="11.811561135380497"><ele>3.0</ele><time>2026-03-28T15:46:06.941Z</time></trkpt><trkpt lat="44.89004936971924" lon="11.811551526192432"><ele>3.0</ele><time>2026-03-28T15:46:07.941Z</time></trkpt><trkpt lat="44.890194100997725" lon="11.811534969455755"><ele>3.0</ele><time>2026-03-28T15:46:08.941Z</time></trkpt><trkpt lat="44.89034326732368" lon="11.811524271850217"><ele>3.0</ele><time>2026-03-28T15:46:09.941Z</time></trkpt><trkpt lat="44.89049074031938" lon="11.811511694750067"><ele>3.0</ele><time>2026-03-28T15:46:10.941Z</time></trkpt><trkpt lat="44.890646732405685" lon="11.811496843370172"><ele>3.0</ele><time>2026-03-28T15:46:11.941Z</time></trkpt><trkpt lat="44.89080351822636" lon="11.811482626037156"><ele>3.0</ele><time>2026-03-28T15:46:12.941Z</time></trkpt><trkpt lat="44.890965562211406" lon="11.81146413383232"><ele>2.3333333333333335</ele><time>2026-03-28T15:46:13.941Z</time></trkpt><trkpt lat="44.89112464893111" lon="11.811443851117549"><ele>1.6666666666666665</ele><time>2026-03-28T15:46:14.941Z</time></trkpt><trkpt lat="44.89128509901067" lon="11.811429064256274"><ele>1.0</ele><time>2026-03-28T15:46:15.941Z</time></trkpt><trkpt lat="44.891453186777824" lon="11.81140930591346"><ele>1.0</ele><time>2026-03-28T15:46:16.941Z</time></trkpt><trkpt lat="44.89161682336385" lon="11.811400845824819"><ele>1.0</ele><time>2026-03-28T15:46:17.941Z</time></trkpt><trkpt lat="44.89178303826512" lon="11.811385863470742"><ele>1.0</ele><time>2026-03-28T15:46:18.941Z</time></trkpt><trkpt lat="44.891961331934006" lon="11.811361712891385"><ele>1.0</ele><time>2026-03-28T15:46:19.941Z</time></trkpt><trkpt lat="44.8921469509258" lon="11.81133406508021"><ele>1.0</ele><time>2026-03-28T15:46:20.94Z</time></trkpt><trkpt lat="44.89233498649435" lon="11.81131288113799"><ele>1.0</ele><time>2026-03-28T15:46:21.94Z</time></trkpt><trkpt lat="44.89252764959836" lon="11.811289946172002"><ele>0.6666666666666666</ele><time>2026-03-28T15:46:22.94Z</time></trkpt><trkpt lat="44.892722893698576" lon="11.811254688338906"><ele>0.3333333333333333</ele><time>2026-03-28T15:46:23.94Z</time></trkpt><trkpt lat="44.89292097136878" lon="11.8112185254851"><ele>0.0</ele><time>2026-03-28T15:46:24.94Z</time></trkpt><trkpt lat="44.893133077705464" lon="11.811156905702267"><ele>0.0</ele><time>2026-03-28T15:46:25.94Z</time></trkpt><trkpt lat="44.89334149357056" lon="11.81109277442165"><ele>0.0</ele><time>2026-03-28T15:46:26.94Z</time></trkpt><trkpt lat="44.89355501833113" lon="11.811021151587772"><ele>0.0</ele><time>2026-03-28T15:46:27.94Z</time></trkpt><trkpt lat="44.893772436182545" lon="11.810954273007644"><ele>0.5</ele><time>2026-03-28T15:46:28.94Z</time></trkpt><trkpt lat="44.893997088237" lon="11.810877530049297"><ele>1.0</ele><time>2026-03-28T15:46:29.94Z</time></trkpt><trkpt lat="44.89422979624769" lon="11.810795744835817"><ele>1.5</ele><time>2026-03-28T15:46:30.94Z</time></trkpt><trkpt lat="44.89447346422831" lon="11.810723418994554"><ele>2.0</ele><time>2026-03-28T15:46:31.94Z</time></trkpt><trkpt lat="44.89472490292539" lon="11.810648302992053"><ele>2.0</ele><time>2026-03-28T15:46:32.94Z</time></trkpt><trkpt lat="44.894981932235694" lon="11.810565353770821"><ele>2.0</ele><time>2026-03-28T15:46:33.94Z</time></trkpt><trkpt lat="44.89524536407141" lon="11.8104786673236"><ele>1.5</ele><time>2026-03-28T15:46:34.94Z</time></trkpt><trkpt lat="44.89551214895294" lon="11.810396153424016"><ele>1.0</ele><time>2026-03-28T15:46:35.94Z</time></trkpt><trkpt lat="44.895779585067515" lon="11.810307170854966"><ele>1.0</ele><time>2026-03-28T15:46:36.94Z</time></trkpt><trkpt lat="44.896045591394454" lon="11.810223440855475"><ele>1.0</ele><time>2026-03-28T15:46:37.94Z</time></trkpt><trkpt lat="44.896314207076934" lon="11.81014564124244"><ele>1.0</ele><time>2026-03-28T15:46:38.94Z</time></trkpt><trkpt lat="44.89658760418765" lon="11.810084884975469"><ele>1.0</ele><time>2026-03-28T15:46:39.94Z</time></trkpt><trkpt lat="44.896865560754335" lon="11.810048888919642"><ele>1.0</ele><time>2026-03-28T15:46:40.94Z</time></trkpt><trkpt lat="44.897144823297616" lon="11.81002534909697"><ele>1.0</ele><time>2026-03-28T15:46:41.94Z</time></trkpt><trkpt lat="44.897431292056496" lon="11.810006047785805"><ele>1.0</ele><time>2026-03-28T15:46:42.94Z</time></trkpt><trkpt lat="44.89772013241836" lon="11.809993364909788"><ele>1.0</ele><time>2026-03-28T15:46:43.94Z</time></trkpt><trkpt lat="44.8980144016567" lon="11.810004161335874"><ele>1.0</ele><time>2026-03-28T15:46:44.94Z</time></trkpt><trkpt lat="44.89830921774483" lon="11.809993997804506"><ele>1.0</ele><time>2026-03-28T15:46:45.94Z</time></trkpt><trkpt lat="44.89860363285734" lon="11.809964543906283"><ele>1.0</ele><time>2026-03-28T15:46:46.94Z</time></trkpt><trkpt lat="44.89889942773378" lon="11.80995305768181"><ele>1.0</ele><time>2026-03-28T15:46:47.94Z</time></trkpt><trkpt lat="44.89919214146152" lon="11.809954536117482"><ele>0.5</ele><time>2026-03-28T15:46:48.94Z</time></trkpt><trkpt lat="44.89948606650847" lon="11.80994628186231"><ele>0.0</ele><time>2026-03-28T15:46:49.94Z</time></trkpt><trkpt lat="44.89978087020554" lon="11.809934293276536"><ele>0.0</ele><time>2026-03-28T15:46:50.94Z</time></trkpt><trkpt lat="44.90007382297455" lon="11.80991967991374"><ele>0.0</ele><time>2026-03-28T15:46:51.94Z</time></trkpt><trkpt lat="44.900361312256365" lon="11.809909296907696"><ele>0.5</ele><time>2026-03-28T15:46:52.94Z</time></trkpt><trkpt lat="44.90064460732014" lon="11.809900307262183"><ele>1.0</ele><time>2026-03-28T15:46:53.94Z</time></trkpt><trkpt lat="44.90091180057174" lon="11.809895944134764"><ele>1.0</ele><time>2026-03-28T15:46:54.941Z</time></trkpt><trkpt lat="44.901172613269125" lon="11.80989234168503"><ele>1.0</ele><time>2026-03-28T15:46:55.941Z</time></trkpt><trkpt lat="44.90142991062221" lon="11.809888263846686"><ele>1.0</ele><time>2026-03-28T15:46:56.941Z</time></trkpt><trkpt lat="44.90168393130237" lon="11.809886751265244"><ele>1.0</ele><time>2026-03-28T15:46:57.941Z</time></trkpt><trkpt lat="44.901928523528916" lon="11.80991088446062"><ele>0.5</ele><time>2026-03-28T15:46:58.941Z</time></trkpt><trkpt lat="44.90217676938205" lon="11.809955196014826"><ele>0.0</ele><time>2026-03-28T15:46:59.941Z</time></trkpt><trkpt lat="44.90241849587932" lon="11.810025301355196"><ele>0.3333333333333333</ele><time>2026-03-28T15:47:00.941Z</time></trkpt><trkpt lat="44.9026356872167" lon="11.810109581840353"><ele>0.6666666666666666</ele><time>2026-03-28T15:47:01.941Z</time></trkpt><trkpt lat="44.90282972317232" lon="11.810189880833153"><ele>1.0</ele><time>2026-03-28T15:47:02.941Z</time></trkpt><trkpt lat="44.90299844984978" lon="11.810271504004083"><ele>1.0</ele><time>2026-03-28T15:47:03.941Z</time></trkpt><trkpt lat="44.90314745391654" lon="11.810370582042953"><ele>1.0</ele><time>2026-03-28T15:47:04.941Z</time></trkpt><trkpt lat="44.90328273194778" lon="11.810449097828833"><ele>1.0</ele><time>2026-03-28T15:47:05.941Z</time></trkpt><trkpt lat="44.90337857555805" lon="11.810526730901529"><ele>1.0</ele><time>2026-03-28T15:47:06.941Z</time></trkpt><trkpt lat="44.90345832664668" lon="11.810609135595628"><ele>0.9999999999999999</ele><time>2026-03-28T15:47:07.94Z</time></trkpt><trkpt lat="44.90351636433929" lon="11.810682087322038"><ele>1.0</ele><time>2026-03-28T15:47:08.94Z</time></trkpt><trkpt lat="44.90356233422726" lon="11.810781684419782"><ele>1.0</ele><time>2026-03-28T15:47:09.94Z</time></trkpt><trkpt lat="44.903620970836535" lon="11.810870156099847"><ele>1.0</ele><time>2026-03-28T15:47:10.94Z</time></trkpt><trkpt lat="44.90368476316706" lon="11.810940131638505"><ele>0.9999999999999999</ele><time>2026-03-28T15:47:11.94Z</time></trkpt><trkpt lat="44.90374708789939" lon="11.810971136234564"><ele>1.0</ele><time>2026-03-28T15:47:12.94Z</time></trkpt><trkpt lat="44.903826254302075" lon="11.810968250077876"><ele>1.0</ele><time>2026-03-28T15:47:13.94Z</time></trkpt><trkpt lat="44.90391604821779" lon="11.810932735659481"><ele>1.0</ele><time>2026-03-28T15:47:14.94Z</time></trkpt><trkpt lat="44.90400483823336" lon="11.81090253608862"><ele>1.0</ele><time>2026-03-28T15:47:15.94Z</time></trkpt><trkpt lat="44.90411061287837" lon="11.810900922561029"><ele>1.0</ele><time>2026-03-28T15:47:16.94Z</time></trkpt><trkpt lat="44.90423411844561" lon="11.810924215630406"><ele>1.0</ele><time>2026-03-28T15:47:17.94Z</time></trkpt><trkpt lat="44.90438449059281" lon="11.810976817142828"><ele>1.0</ele><time>2026-03-28T15:47:18.94Z</time></trkpt><trkpt lat="44.90457251102324" lon="11.811059661156154"><ele>1.0</ele><time>2026-03-28T15:47:19.94Z</time></trkpt><trkpt lat="44.90477401117802" lon="11.811174017820703"><ele>1.0</ele><time>2026-03-28T15:47:20.94Z</time></trkpt><trkpt lat="44.904980316788645" lon="11.811290064423378"><ele>1.5</ele><time>2026-03-28T15:47:21.94Z</time></trkpt><trkpt lat="44.905193389777025" lon="11.811415674630728"><ele>2.0</ele><time>2026-03-28T15:47:22.94Z</time></trkpt><trkpt lat="44.905421351117205" lon="11.811540406452384"><ele>2.0</ele><time>2026-03-28T15:47:23.94Z</time></trkpt><trkpt lat="44.905647330966524" lon="11.81166684651158"><ele>2.0</ele><time>2026-03-28T15:47:24.94Z</time></trkpt><trkpt lat="44.905875410203315" lon="11.811807337657005"><ele>2.0</ele><time>2026-03-28T15:47:25.94Z</time></trkpt><trkpt lat="44.90609670871971" lon="11.811976700644061"><ele>2.0</ele><time>2026-03-28T15:47:26.94Z</time></trkpt><trkpt lat="44.90631135059006" lon="11.812174421948523"><ele>2.0</ele><time>2026-03-28T15:47:27.94Z</time></trkpt><trkpt lat="44.90651450493432" lon="11.812403641812988"><ele>2.0</ele><time>2026-03-28T15:47:28.94Z</time></trkpt><trkpt lat="44.90670786975065" lon="11.812668212908937"><ele>2.0</ele><time>2026-03-28T15:47:29.94Z</time></trkpt><trkpt lat="44.9068886464963" lon="11.81296002562161"><ele>2.0</ele><time>2026-03-28T15:47:30.94Z</time></trkpt><trkpt lat="44.90706265675142" lon="11.813293714687973"><ele>2.5</ele><time>2026-03-28T15:47:31.94Z</time></trkpt><trkpt lat="44.9072412468279" lon="11.81363559029981"><ele>3.0</ele><time>2026-03-28T15:47:32.94Z</time></trkpt><trkpt lat="44.90741260504851" lon="11.8139863860141"><ele>1.5</ele><time>2026-03-28T15:47:33.94Z</time></trkpt><trkpt lat="44.90759174263047" lon="11.814341448587676"><ele>0.0</ele><time>2026-03-28T15:47:34.94Z</time></trkpt><trkpt lat="44.90777532951887" lon="11.814706480936277"><ele>0.0</ele><time>2026-03-28T15:47:35.94Z</time></trkpt><trkpt lat="44.90796207283174" lon="11.815083257788213"><ele>0.0</ele><time>2026-03-28T15:47:36.94Z</time></trkpt><trkpt lat="44.90815841684139" lon="11.815457663812275"><ele>0.0</ele><time>2026-03-28T15:47:37.94Z</time></trkpt><trkpt lat="44.90835741575832" lon="11.81583836802931"><ele>0.0</ele><time>2026-03-28T15:47:38.94Z</time></trkpt><trkpt lat="44.908548956631954" lon="11.816224829474143"><ele>-0.5</ele><time>2026-03-28T15:47:39.94Z</time></trkpt><trkpt lat="44.9087448898133" lon="11.8166102860299"><ele>-1.0</ele><time>2026-03-28T15:47:40.94Z</time></trkpt><trkpt lat="44.908939979306986" lon="11.817000522653151"><ele>-1.0</ele><time>2026-03-28T15:47:41.94Z</time></trkpt><trkpt lat="44.90913917658944" lon="11.81739216054873"><ele>-1.0</ele><time>2026-03-28T15:47:42.94Z</time></trkpt><trkpt lat="44.90933449151361" lon="11.817784733634468"><ele>-1.5</ele><time>2026-03-28T15:47:43.94Z</time></trkpt><trkpt lat="44.909525510798154" lon="11.818178416874925"><ele>-2.0</ele><time>2026-03-28T15:47:44.94Z</time></trkpt><trkpt lat="44.909715134292554" lon="11.818572402155365"><ele>-2.0</ele><time>2026-03-28T15:47:45.94Z</time></trkpt><trkpt lat="44.90990842408445" lon="11.818962212907266"><ele>-2.0</ele><time>2026-03-28T15:47:46.94Z</time></trkpt><trkpt lat="44.91009176529587" lon="11.819360718320173"><ele>-1.0</ele><time>2026-03-28T15:47:47.94Z</time></trkpt><trkpt lat="44.910287011422525" lon="11.819753739044112"><ele>0.0</ele><time>2026-03-28T15:47:48.94Z</time></trkpt><trkpt lat="44.91048343673426" lon="11.820147207107016"><ele>-0.5</ele><time>2026-03-28T15:47:49.94Z</time></trkpt><trkpt lat="44.91067855882369" lon="11.82054248256916"><ele>-1.0</ele><time>2026-03-28T15:47:50.94Z</time></trkpt><trkpt lat="44.910876395427536" lon="11.820935453306468"><ele>-1.0</ele><time>2026-03-28T15:47:51.939Z</time></trkpt><trkpt lat="44.911079461345615" lon="11.82133435852639"><ele>-1.0</ele><time>2026-03-28T15:47:52.939Z</time></trkpt><trkpt lat="44.91127105784087" lon="11.821732747804754"><ele>-0.5</ele><time>2026-03-28T15:47:53.939Z</time></trkpt><trkpt lat="44.91145906842995" lon="11.822123885306679"><ele>0.0</ele><time>2026-03-28T15:47:54.939Z</time></trkpt><trkpt lat="44.91163024701629" lon="11.822491986038889"><ele>-0.5</ele><time>2026-03-28T15:47:55.939Z</time></trkpt><trkpt lat="44.911795093363324" lon="11.822832481067492"><ele>-1.0</ele><time>2026-03-28T15:47:56.939Z</time></trkpt><trkpt lat="44.911936358800745" lon="11.823157315174305"><ele>-1.0</ele><time>2026-03-28T15:47:57.939Z</time></trkpt><trkpt lat="44.91207663500219" lon="11.823466357411213"><ele>-1.0</ele><time>2026-03-28T15:47:58.939Z</time></trkpt><trkpt lat="44.91220621734165" lon="11.82377661240172"><ele>-1.5</ele><time>2026-03-28T15:47:59.939Z</time></trkpt><trkpt lat="44.91232756876036" lon="11.824100364893294"><ele>-2.0</ele><time>2026-03-28T15:48:00.939Z</time></trkpt><trkpt lat="44.91244704362329" lon="11.824435965150922"><ele>-1.5</ele><time>2026-03-28T15:48:01.939Z</time></trkpt><trkpt lat="44.91251488301453" lon="11.824792987173899"><ele>-1.0</ele><time>2026-03-28T15:48:02.939Z</time></trkpt><trkpt lat="44.9125916646977" lon="11.825141669011462"><ele>-0.5</ele><time>2026-03-28T15:48:03.939Z</time></trkpt><trkpt lat="44.91266156241449" lon="11.82548184968985"><ele>0.0</ele><time>2026-03-28T15:48:04.939Z</time></trkpt><trkpt lat="44.912717766900094" lon="11.825811653005008"><ele>0.0</ele><time>2026-03-28T15:48:05.939Z</time></trkpt><trkpt lat="44.912769603266995" lon="11.826121455199385"><ele>0.0</ele><time>2026-03-28T15:48:06.939Z</time></trkpt><trkpt lat="44.91280898127985" lon="11.826416177068344"><ele>0.0</ele><time>2026-03-28T15:48:07.939Z</time></trkpt><trkpt lat="44.912840290770816" lon="11.8267151471491"><ele>0.0</ele><time>2026-03-28T15:48:08.939Z</time></trkpt><trkpt lat="44.91286826649953" lon="11.82701468911325"><ele>0.0</ele><time>2026-03-28T15:48:09.939Z</time></trkpt><trkpt lat="44.91287232945493" lon="11.827296719619225"><ele>0.0</ele><time>2026-03-28T15:48:10.939Z</time></trkpt><trkpt lat="44.91286426565378" lon="11.827547548453275"><ele>0.3333333333333333</ele><time>2026-03-28T15:48:11.939Z</time></trkpt><trkpt lat="44.91288137637608" lon="11.827775451821672"><ele>0.6666666666666666</ele><time>2026-03-28T15:48:12.939Z</time></trkpt><trkpt lat="44.91291299147364" lon="11.827991844396557"><ele>1.0</ele><time>2026-03-28T15:48:13.939Z</time></trkpt><trkpt lat="44.91292252592058" lon="11.82818979576716"><ele>1.0</ele><time>2026-03-28T15:48:14.939Z</time></trkpt><trkpt lat="44.91290331054585" lon="11.828387518500238"><ele>1.0</ele><time>2026-03-28T15:48:15.939Z</time></trkpt><trkpt lat="44.912861204135694" lon="11.828574894054187"><ele>1.0</ele><time>2026-03-28T15:48:16.939Z</time></trkpt><trkpt lat="44.91277103260603" lon="11.828736865513834"><ele>1.0</ele><time>2026-03-28T15:48:17.939Z</time></trkpt><trkpt lat="44.91276762912557" lon="11.828978360533345"><ele>0.6666666666666666</ele><time>2026-03-28T15:48:18.939Z</time></trkpt><trkpt lat="44.91278634737031" lon="11.829214384421856"><ele>0.3333333333333333</ele><time>2026-03-28T15:48:19.939Z</time></trkpt><trkpt lat="44.912823845583375" lon="11.829486999055064"><ele>0.0</ele><time>2026-03-28T15:48:20.939Z</time></trkpt><trkpt lat="44.91287584290426" lon="11.829787105538852"><ele>-0.5</ele><time>2026-03-28T15:48:21.939Z</time></trkpt><trkpt lat="44.91293180811495" lon="11.830126507551736"><ele>-1.0</ele><time>2026-03-28T15:48:22.939Z</time></trkpt><trkpt lat="44.91300921747499" lon="11.830478612160881"><ele>-1.0</ele><time>2026-03-28T15:48:23.939Z</time></trkpt><trkpt lat="44.91298657349918" lon="11.83088419408712"><ele>-1.0</ele><time>2026-03-28T15:48:24.939Z</time></trkpt><trkpt lat="44.912994171734134" lon="11.831273535317727"><ele>-0.5</ele><time>2026-03-28T15:48:25.939Z</time></trkpt><trkpt lat="44.91300114071315" lon="11.83169031166688"><ele>0.0</ele><time>2026-03-28T15:48:26.939Z</time></trkpt><trkpt lat="44.913008816200005" lon="11.832124678813088"><ele>0.0</ele><time>2026-03-28T15:48:27.939Z</time></trkpt><trkpt lat="44.913017005788035" lon="11.832573040793095"><ele>0.0</ele><time>2026-03-28T15:48:28.939Z</time></trkpt><trkpt lat="44.913025238016104" lon="11.833030324012341"><ele>-0.5</ele><time>2026-03-28T15:48:29.939Z</time></trkpt><trkpt lat="44.91303371348376" lon="11.833500811942436"><ele>-1.0</ele><time>2026-03-28T15:48:30.939Z</time></trkpt><trkpt lat="44.91304262303341" lon="11.833978086024649"><ele>-1.0</ele><time>2026-03-28T15:48:31.939Z</time></trkpt><trkpt lat="44.91305158166295" lon="11.83445798924747"><ele>-1.0</ele><time>2026-03-28T15:48:32.939Z</time></trkpt><trkpt lat="44.91306054941403" lon="11.834938381101052"><ele>-1.5</ele><time>2026-03-28T15:48:33.939Z</time></trkpt><trkpt lat="44.913069642506485" lon="11.835425487356598"><ele>-2.0</ele><time>2026-03-28T15:48:34.939Z</time></trkpt><trkpt lat="44.913078825592365" lon="11.835917414538855"><ele>-2.0</ele><time>2026-03-28T15:48:35.939Z</time></trkpt><trkpt lat="44.913087886130015" lon="11.836409544576908"><ele>-2.0</ele><time>2026-03-28T15:48:36.939Z</time></trkpt><trkpt lat="44.91309688587189" lon="11.836904010424476"><ele>-2.0</ele><time>2026-03-28T15:48:37.939Z</time></trkpt><trkpt lat="44.913106064729064" lon="11.837408317509412"><ele>-2.0</ele><time>2026-03-28T15:48:38.939Z</time></trkpt><trkpt lat="44.913115120502866" lon="11.837905861814502"><ele>-2.0</ele><time>2026-03-28T15:48:39.939Z</time></trkpt><trkpt lat="44.913124308091874" lon="11.838410648652593"><ele>-2.0</ele><time>2026-03-28T15:48:40.938Z</time></trkpt><trkpt lat="44.91313343280963" lon="11.838911981018532"><ele>-2.0</ele><time>2026-03-28T15:48:41.938Z</time></trkpt><trkpt lat="44.913142498855755" lon="11.839410089829295"><ele>-2.0</ele><time>2026-03-28T15:48:42.938Z</time></trkpt><trkpt lat="44.91315162558207" lon="11.839911532638604"><ele>-1.5</ele><time>2026-03-28T15:48:43.938Z</time></trkpt><trkpt lat="44.913160728480456" lon="11.840411666230267"><ele>-1.0</ele><time>2026-03-28T15:48:44.938Z</time></trkpt><trkpt lat="44.91316985849243" lon="11.840913294385512"><ele>-1.0</ele><time>2026-03-28T15:48:45.938Z</time></trkpt><trkpt lat="44.9131927225766" lon="11.841409414690444"><ele>-1.0</ele><time>2026-03-28T15:48:46.938Z</time></trkpt><trkpt lat="44.913183501238294" lon="11.841910418250576"><ele>-1.0</ele><time>2026-03-28T15:48:47.938Z</time></trkpt><trkpt lat="44.91318543022631" lon="11.8424099828701"><ele>-1.0</ele><time>2026-03-28T15:48:48.938Z</time></trkpt><trkpt lat="44.9131909239518" lon="11.84291108614269"><ele>-0.5</ele><time>2026-03-28T15:48:49.938Z</time></trkpt><trkpt lat="44.91319782682593" lon="11.843413849588096"><ele>0.0</ele><time>2026-03-28T15:48:50.938Z</time></trkpt><trkpt lat="44.91320834905345" lon="11.84392101026492"><ele>-0.5</ele><time>2026-03-28T15:48:51.938Z</time></trkpt><trkpt lat="44.91321620109329" lon="11.844429024164913"><ele>-1.0</ele><time>2026-03-28T15:48:52.938Z</time></trkpt><trkpt lat="44.91322529495574" lon="11.844915936636136"><ele>-0.5</ele><time>2026-03-28T15:48:53.938Z</time></trkpt><trkpt lat="44.913244165964144" lon="11.845401154781136"><ele>0.0</ele><time>2026-03-28T15:48:54.938Z</time></trkpt><trkpt lat="44.91325218080365" lon="11.845858408719195"><ele>0.5</ele><time>2026-03-28T15:48:55.938Z</time></trkpt><trkpt lat="44.91325688887608" lon="11.846303175609147"><ele>1.0</ele><time>2026-03-28T15:48:56.938Z</time></trkpt><trkpt lat="44.91327598504841" lon="11.846738478110286"><ele>0.5</ele><time>2026-03-28T15:48:57.938Z</time></trkpt><trkpt lat="44.91328215727066" lon="11.847143177067805"><ele>0.0</ele><time>2026-03-28T15:48:58.938Z</time></trkpt><trkpt lat="44.913293559451375" lon="11.847535473938999"><ele>0.0</ele><time>2026-03-28T15:48:59.938Z</time></trkpt><trkpt lat="44.91330107402757" lon="11.847911190618387"><ele>0.0</ele><time>2026-03-28T15:49:00.94Z</time></trkpt><trkpt lat="44.91331578127804" lon="11.848282626680854"><ele>-0.5</ele><time>2026-03-28T15:49:01.94Z</time></trkpt><trkpt lat="44.91332778086258" lon="11.848632877111978"><ele>-1.0</ele><time>2026-03-28T15:49:02.94Z</time></trkpt><trkpt lat="44.91336024380036" lon="11.849000438474677"><ele>-1.0</ele><time>2026-03-28T15:49:03.94Z</time></trkpt><trkpt lat="44.913406290841365" lon="11.849383026756158"><ele>-1.0</ele><time>2026-03-28T15:49:04.94Z</time></trkpt><trkpt lat="44.91347736477192" lon="11.849775984289042"><ele>-0.5</ele><time>2026-03-28T15:49:05.94Z</time></trkpt><trkpt lat="44.91356486282891" lon="11.850185518279034"><ele>0.0</ele><time>2026-03-28T15:49:06.94Z</time></trkpt><trkpt lat="44.9136589746367" lon="11.850597192562331"><ele>-0.5</ele><time>2026-03-28T15:49:07.94Z</time></trkpt><trkpt lat="44.913741394802926" lon="11.851011176831998"><ele>-1.0</ele><time>2026-03-28T15:49:08.94Z</time></trkpt><trkpt lat="44.913819667960205" lon="11.851448629756215"><ele>-1.0</ele><time>2026-03-28T15:49:09.94Z</time></trkpt><trkpt lat="44.91389683932169" lon="11.851853643862276"><ele>-1.0</ele><time>2026-03-28T15:49:10.94Z</time></trkpt><trkpt lat="44.91399529493295" lon="11.852275454762005"><ele>-0.5</ele><time>2026-03-28T15:49:11.94Z</time></trkpt><trkpt lat="44.9140755263659" lon="11.852694814303224"><ele>0.0</ele><time>2026-03-28T15:49:12.94Z</time></trkpt><trkpt lat="44.91418581260538" lon="11.85312882987839"><ele>0.5</ele><time>2026-03-28T15:49:13.94Z</time></trkpt><trkpt lat="44.91427757972242" lon="11.853567162663936"><ele>1.0</ele><time>2026-03-28T15:49:14.94Z</time></trkpt><trkpt lat="44.91437116295985" lon="11.854004363355655"><ele>1.0</ele><time>2026-03-28T15:49:15.94Z</time></trkpt><trkpt lat="44.9144596094609" lon="11.854444591604429"><ele>1.0</ele><time>2026-03-28T15:49:16.939Z</time></trkpt><trkpt lat="44.91454361844171" lon="11.854885082288936"><ele>0.5</ele><time>2026-03-28T15:49:17.939Z</time></trkpt><trkpt lat="44.914638371252416" lon="11.855327601698214"><ele>0.0</ele><time>2026-03-28T15:49:18.939Z</time></trkpt><trkpt lat="44.91472587869588" lon="11.855777360816086"><ele>0.0</ele><time>2026-03-28T15:49:19.939Z</time></trkpt><trkpt lat="44.91482407283018" lon="11.85621840683705"><ele>0.0</ele><time>2026-03-28T15:49:20.939Z</time></trkpt><trkpt lat="44.91491151171938" lon="11.856652808405594"><ele>0.5</ele><time>2026-03-28T15:49:21.939Z</time></trkpt><trkpt lat="44.9149933770662" lon="11.857072836802743"><ele>1.0</ele><time>2026-03-28T15:49:22.939Z</time></trkpt><trkpt lat="44.915063987854026" lon="11.857462774295069"><ele>1.0</ele><time>2026-03-28T15:49:23.939Z</time></trkpt><trkpt lat="44.91513881645916" lon="11.857837278260153"><ele>1.0</ele><time>2026-03-28T15:49:24.939Z</time></trkpt><trkpt lat="44.91521524287246" lon="11.858208902269581"><ele>1.0</ele><time>2026-03-28T15:49:25.939Z</time></trkpt><trkpt lat="44.91528261729746" lon="11.858573110153687"><ele>1.0</ele><time>2026-03-28T15:49:26.939Z</time></trkpt><trkpt lat="44.91534531286181" lon="11.858928819101395"><ele>1.0</ele><time>2026-03-28T15:49:27.939Z</time></trkpt><trkpt lat="44.91541823300981" lon="11.859274886030727"><ele>1.0</ele><time>2026-03-28T15:49:28.939Z</time></trkpt><trkpt lat="44.91548238632878" lon="11.859607090272915"><ele>0.5</ele><time>2026-03-28T15:49:29.939Z</time></trkpt><trkpt lat="44.915543881423886" lon="11.859926801347687"><ele>0.0</ele><time>2026-03-28T15:49:30.939Z</time></trkpt><trkpt lat="44.91560344125963" lon="11.860225864043437"><ele>0.0</ele><time>2026-03-28T15:49:31.939Z</time></trkpt><trkpt lat="44.91566125909104" lon="11.86050297098978"><ele>0.0</ele><time>2026-03-28T15:49:32.939Z</time></trkpt><trkpt lat="44.915732350066286" lon="11.860762802195232"><ele>0.0</ele><time>2026-03-28T15:49:33.939Z</time></trkpt><trkpt lat="44.91579340612888" lon="11.860997359124381"><ele>0.0</ele><time>2026-03-28T15:49:34.939Z</time></trkpt><trkpt lat="44.915870230904915" lon="11.861223632662231"><ele>0.0</ele><time>2026-03-28T15:49:35.939Z</time></trkpt><trkpt lat="44.915953981126236" lon="11.86145270685876"><ele>0.0</ele><time>2026-03-28T15:49:36.939Z</time></trkpt><trkpt lat="44.91602987929102" lon="11.861674429553888"><ele>-0.25</ele><time>2026-03-28T15:49:37.939Z</time></trkpt><trkpt lat="44.91610363546637" lon="11.861874061343418"><ele>-0.5</ele><time>2026-03-28T15:49:38.939Z</time></trkpt><trkpt lat="44.91617119510013" lon="11.862051134338996"><ele>-0.75</ele><time>2026-03-28T15:49:39.939Z</time></trkpt><trkpt lat="44.91622183104164" lon="11.862214144366645"><ele>-1.0</ele><time>2026-03-28T15:49:40.939Z</time></trkpt><trkpt lat="44.916269959852194" lon="11.862357913061071"><ele>-0.9999999999999999</ele><time>2026-03-28T15:49:41.939Z</time></trkpt><trkpt lat="44.91629809687535" lon="11.862484270745453"><ele>-1.0</ele><time>2026-03-28T15:49:42.939Z</time></trkpt><trkpt lat="44.91630692619229" lon="11.862591953857482"><ele>-1.0</ele><time>2026-03-28T15:49:43.939Z</time></trkpt><trkpt lat="44.91630037354187" lon="11.86268305627178"><ele>-1.0</ele><time>2026-03-28T15:49:44.939Z</time></trkpt><trkpt lat="44.916273039190585" lon="11.862778141590933"><ele>-0.9999999999999999</ele><time>2026-03-28T15:49:45.939Z</time></trkpt><trkpt lat="44.91621411322715" lon="11.862876072946788"><ele>-1.0</ele><time>2026-03-28T15:49:46.939Z</time></trkpt><trkpt lat="44.9161271637831" lon="11.86294754759374"><ele>-1.0</ele><time>2026-03-28T15:49:47.939Z</time></trkpt><trkpt lat="44.91602844002077" lon="11.862957443532638"><ele>-1.0</ele><time>2026-03-28T15:49:48.939Z</time></trkpt><trkpt lat="44.9159292405597" lon="11.862908536454897"><ele>-1.0</ele><time>2026-03-28T15:49:49.939Z</time></trkpt><trkpt lat="44.915832735935965" lon="11.862818390670961"><ele>-1.0</ele><time>2026-03-28T15:49:50.939Z</time></trkpt><trkpt lat="44.91573781607606" lon="11.862727888427003"><ele>-1.0</ele><time>2026-03-28T15:49:51.939Z</time></trkpt><trkpt lat="44.91563709437514" lon="11.862599257188783"><ele>-1.0</ele><time>2026-03-28T15:49:52.939Z</time></trkpt><trkpt lat="44.915525432274414" lon="11.862493921367195"><ele>-1.0</ele><time>2026-03-28T15:49:53.939Z</time></trkpt><trkpt lat="44.915399581500736" lon="11.862384201834912"><ele>-1.0</ele><time>2026-03-28T15:49:54.939Z</time></trkpt><trkpt lat="44.915260781495064" lon="11.862255982039912"><ele>-1.0</ele><time>2026-03-28T15:49:55.939Z</time></trkpt><trkpt lat="44.915136191131424" lon="11.862069340365785"><ele>-0.3333333333333333</ele><time>2026-03-28T15:49:56.939Z</time></trkpt><trkpt lat="44.91499238743977" lon="11.861883864943117"><ele>0.3333333333333333</ele><time>2026-03-28T15:49:57.939Z</time></trkpt><trkpt lat="44.914850338417615" lon="11.861666531871636"><ele>1.0</ele><time>2026-03-28T15:49:58.939Z</time></trkpt><trkpt lat="44.914695267517" lon="11.861447362139044"><ele>1.0</ele><time>2026-03-28T15:49:59.939Z</time></trkpt><trkpt lat="44.91452998622926" lon="11.861218267427166"><ele>1.0</ele><time>2026-03-28T15:50:00.939Z</time></trkpt><trkpt lat="44.91436411442607" lon="11.860987971454911"><ele>1.5</ele><time>2026-03-28T15:50:01.939Z</time></trkpt><trkpt lat="44.914193789237544" lon="11.860747710914069"><ele>2.0</ele><time>2026-03-28T15:50:02.939Z</time></trkpt><trkpt lat="44.91401547031373" lon="11.860505596893228"><ele>2.0</ele><time>2026-03-28T15:50:03.939Z</time></trkpt><trkpt lat="44.9138288049527" lon="11.860262965457997"><ele>2.0</ele><time>2026-03-28T15:50:04.939Z</time></trkpt><trkpt lat="44.91364277316166" lon="11.860013763078847"><ele>2.0</ele><time>2026-03-28T15:50:05.938Z</time></trkpt><trkpt lat="44.9134699510929" lon="11.859741708381652"><ele>2.0</ele><time>2026-03-28T15:50:06.938Z</time></trkpt><trkpt lat="44.91328573873508" lon="11.85948143913392"><ele>1.5</ele><time>2026-03-28T15:50:07.938Z</time></trkpt><trkpt lat="44.91310393744606" lon="11.859225108786768"><ele>1.0</ele><time>2026-03-28T15:50:08.938Z</time></trkpt><trkpt lat="44.91292692745147" lon="11.858972609949571"><ele>1.0</ele><time>2026-03-28T15:50:09.938Z</time></trkpt><trkpt lat="44.912754437625864" lon="11.858726558980228"><ele>1.0</ele><time>2026-03-28T15:50:10.938Z</time></trkpt><trkpt lat="44.912586007516936" lon="11.85849066041487"><ele>1.5</ele><time>2026-03-28T15:50:11.938Z</time></trkpt><trkpt lat="44.91242061426454" lon="11.858245162556436"><ele>2.0</ele><time>2026-03-28T15:50:12.938Z</time></trkpt><trkpt lat="44.912263479408956" lon="11.857993897680126"><ele>2.0</ele><time>2026-03-28T15:50:13.938Z</time></trkpt><trkpt lat="44.91211148679878" lon="11.857731004223732"><ele>2.0</ele><time>2026-03-28T15:50:14.938Z</time></trkpt><trkpt lat="44.91196418792953" lon="11.857472491965343"><ele>2.0</ele><time>2026-03-28T15:50:15.938Z</time></trkpt><trkpt lat="44.91182106846094" lon="11.857218155386171"><ele>2.0</ele><time>2026-03-28T15:50:16.938Z</time></trkpt><trkpt lat="44.911687128519645" lon="11.856969140766301"><ele>2.0</ele><time>2026-03-28T15:50:17.938Z</time></trkpt><trkpt lat="44.91155647487613" lon="11.856727190303223"><ele>2.0</ele><time>2026-03-28T15:50:18.938Z</time></trkpt><trkpt lat="44.91146642167987" lon="11.856447846867976"><ele>2.0</ele><time>2026-03-28T15:50:19.938Z</time></trkpt><trkpt lat="44.91137562978377" lon="11.856160433795917"><ele>2.333333333333333</ele><time>2026-03-28T15:50:20.938Z</time></trkpt><trkpt lat="44.91128456392646" lon="11.855877599830313"><ele>2.6666666666666665</ele><time>2026-03-28T15:50:21.938Z</time></trkpt><trkpt lat="44.91122455910357" lon="11.855580122814038"><ele>3.0</ele><time>2026-03-28T15:50:22.938Z</time></trkpt><trkpt lat="44.911149261674765" lon="11.855304808881828"><ele>2.3333333333333335</ele><time>2026-03-28T15:50:23.938Z</time></trkpt><trkpt lat="44.911053949101806" lon="11.855049598495938"><ele>1.6666666666666665</ele><time>2026-03-28T15:50:24.938Z</time></trkpt><trkpt lat="44.91094057044936" lon="11.85481026652673"><ele>1.0</ele><time>2026-03-28T15:50:25.938Z</time></trkpt><trkpt lat="44.91079684485978" lon="11.854592919767187"><ele>1.0</ele><time>2026-03-28T15:50:26.938Z</time></trkpt><trkpt lat="44.910638670332176" lon="11.854372433038515"><ele>1.0</ele><time>2026-03-28T15:50:27.938Z</time></trkpt><trkpt lat="44.91045929013679" lon="11.854163017141557"><ele>1.0</ele><time>2026-03-28T15:50:28.938Z</time></trkpt><trkpt lat="44.91026929324668" lon="11.853955887031992"><ele>1.0</ele><time>2026-03-28T15:50:29.938Z</time></trkpt><trkpt lat="44.91008780075045" lon="11.853750999051405"><ele>1.3333333333333333</ele><time>2026-03-28T15:50:30.938Z</time></trkpt><trkpt lat="44.90991683964878" lon="11.853550839985186"><ele>1.6666666666666665</ele><time>2026-03-28T15:50:31.938Z</time></trkpt><trkpt lat="44.909759226338124" lon="11.853359962845365"><ele>2.0</ele><time>2026-03-28T15:50:32.938Z</time></trkpt><trkpt lat="44.90961289312071" lon="11.85316563338054"><ele>2.0</ele><time>2026-03-28T15:50:33.938Z</time></trkpt><trkpt lat="44.90948239090306" lon="11.852955535534871"><ele>2.0</ele><time>2026-03-28T15:50:34.938Z</time></trkpt><trkpt lat="44.90937683819585" lon="11.852714323386925"><ele>2.0</ele><time>2026-03-28T15:50:35.938Z</time></trkpt><trkpt lat="44.90928851577184" lon="11.852448674807528"><ele>2.333333333333333</ele><time>2026-03-28T15:50:36.938Z</time></trkpt><trkpt lat="44.90921467970052" lon="11.852157330257805"><ele>2.6666666666666665</ele><time>2026-03-28T15:50:37.938Z</time></trkpt><trkpt lat="44.90914715849263" lon="11.8518513742136"><ele>3.0</ele><time>2026-03-28T15:50:38.938Z</time></trkpt><trkpt lat="44.909091358850226" lon="11.851528826855318"><ele>3.0</ele><time>2026-03-28T15:50:39.938Z</time></trkpt><trkpt lat="44.90904097062965" lon="11.851199011032222"><ele>3.0</ele><time>2026-03-28T15:50:40.938Z</time></trkpt><trkpt lat="44.90899742973209" lon="11.850867959312994"><ele>2.5</ele><time>2026-03-28T15:50:41.938Z</time></trkpt><trkpt lat="44.90896029777441" lon="11.850547162380002"><ele>2.0</ele><time>2026-03-28T15:50:42.938Z</time></trkpt><trkpt lat="44.90892867525695" lon="11.850231420906592"><ele>2.0</ele><time>2026-03-28T15:50:43.938Z</time></trkpt><trkpt lat="44.90889581022284" lon="11.849924690062394"><ele>2.0</ele><time>2026-03-28T15:50:44.938Z</time></trkpt><trkpt lat="44.9088550998945" lon="11.849627467022382"><ele>2.0</ele><time>2026-03-28T15:50:45.938Z</time></trkpt><trkpt lat="44.90880874958059" lon="11.849335087132758"><ele>2.0</ele><time>2026-03-28T15:50:46.938Z</time></trkpt><trkpt lat="44.908764146272" lon="11.849050393109781"><ele>2.0</ele><time>2026-03-28T15:50:47.938Z</time></trkpt><trkpt lat="44.90871927685224" lon="11.848771263762792"><ele>2.0</ele><time>2026-03-28T15:50:48.938Z</time></trkpt><trkpt lat="44.90868589108467" lon="11.848489614821029"><ele>1.6666666666666665</ele><time>2026-03-28T15:50:49.938Z</time></trkpt><trkpt lat="44.908632666488906" lon="11.848220670803704"><ele>1.3333333333333333</ele><time>2026-03-28T15:50:50.938Z</time></trkpt><trkpt lat="44.9085636170624" lon="11.847965353285918"><ele>1.0</ele><time>2026-03-28T15:50:51.938Z</time></trkpt><trkpt lat="44.90848468296377" lon="11.847720044469172"><ele>1.6666666666666665</ele><time>2026-03-28T15:50:52.938Z</time></trkpt><trkpt lat="44.90839531701081" lon="11.847472539294431"><ele>2.3333333333333335</ele><time>2026-03-28T15:50:53.938Z</time></trkpt><trkpt lat="44.9083059896328" lon="11.84722462119617"><ele>3.0</ele><time>2026-03-28T15:50:54.937Z</time></trkpt><trkpt lat="44.90822000198508" lon="11.846986187931577"><ele>3.0</ele><time>2026-03-28T15:50:55.937Z</time></trkpt><trkpt lat="44.908132322635474" lon="11.84674774071297"><ele>3.0</ele><time>2026-03-28T15:50:56.937Z</time></trkpt><trkpt lat="44.90804734295625" lon="11.846518951336614"><ele>3.0</ele><time>2026-03-28T15:50:57.937Z</time></trkpt><trkpt lat="44.907969284212896" lon="11.84629723743152"><ele>3.0</ele><time>2026-03-28T15:50:58.937Z</time></trkpt><trkpt lat="44.9079045412464" lon="11.846071096647458"><ele>3.0</ele><time>2026-03-28T15:50:59.937Z</time></trkpt><trkpt lat="44.90785999098597" lon="11.845843499934867"><ele>3.0</ele><time>2026-03-28T15:51:00.937Z</time></trkpt><trkpt lat="44.90781737613638" lon="11.845614315719645"><ele>2.6666666666666665</ele><time>2026-03-28T15:51:01.937Z</time></trkpt><trkpt lat="44.90777967968608" lon="11.845385789625338"><ele>2.333333333333333</ele><time>2026-03-28T15:51:02.937Z</time></trkpt><trkpt lat="44.90775274961315" lon="11.845166536143651"><ele>2.0</ele><time>2026-03-28T15:51:03.937Z</time></trkpt><trkpt lat="44.90773273159589" lon="11.844941869567151"><ele>1.6666666666666665</ele><time>2026-03-28T15:51:04.937Z</time></trkpt><trkpt lat="44.907723092815715" lon="11.844715577921262"><ele>1.3333333333333333</ele><time>2026-03-28T15:51:05.937Z</time></trkpt><trkpt lat="44.90773059588067" lon="11.844504239365815"><ele>1.0</ele><time>2026-03-28T15:51:06.939Z</time></trkpt><trkpt lat="44.90773726311106" lon="11.844299643112711"><ele>1.0</ele><time>2026-03-28T15:51:07.939Z</time></trkpt><trkpt lat="44.90773797755817" lon="11.844104186651329"><ele>1.0</ele><time>2026-03-28T15:51:08.938Z</time></trkpt><trkpt lat="44.90772191113939" lon="11.84390552551691"><ele>1.0</ele><time>2026-03-28T15:51:09.939Z</time></trkpt><trkpt lat="44.907684457341325" lon="11.843712135724642"><ele>1.0</ele><time>2026-03-28T15:51:10.938Z</time></trkpt><trkpt lat="44.907633379810214" lon="11.843530166762088"><ele>0.5</ele><time>2026-03-28T15:51:11.938Z</time></trkpt><trkpt lat="44.90758082349462" lon="11.843352174694143"><ele>0.0</ele><time>2026-03-28T15:51:12.939Z</time></trkpt><trkpt lat="44.90752874706189" lon="11.84316879649997"><ele>-0.5</ele><time>2026-03-28T15:51:13.939Z</time></trkpt><trkpt lat="44.90747947190902" lon="11.842990477888648"><ele>-1.0</ele><time>2026-03-28T15:51:14.939Z</time></trkpt><trkpt lat="44.90743155189359" lon="11.842808383308775"><ele>0.0</ele><time>2026-03-28T15:51:15.939Z</time></trkpt><trkpt lat="44.90738567961588" lon="11.842624864584621"><ele>1.0</ele><time>2026-03-28T15:51:16.939Z</time></trkpt><trkpt lat="44.907328962364275" lon="11.842460119689576"><ele>2.0</ele><time>2026-03-28T15:51:17.939Z</time></trkpt><trkpt lat="44.90728785450634" lon="11.842287269098406"><ele>3.0</ele><time>2026-03-28T15:51:18.939Z</time></trkpt><trkpt lat="44.90723313253272" lon="11.842129643872674"><ele>3.0</ele><time>2026-03-28T15:51:19.939Z</time></trkpt><trkpt lat="44.90716989985734" lon="11.841961507625438"><ele>3.0</ele><time>2026-03-28T15:51:20.939Z</time></trkpt><trkpt lat="44.90710776990073" lon="11.841789471170824"><ele>3.0</ele><time>2026-03-28T15:51:21.939Z</time></trkpt><trkpt lat="44.90704433202067" lon="11.841614059425904"><ele>3.0</ele><time>2026-03-28T15:51:22.939Z</time></trkpt><trkpt lat="44.90697931489333" lon="11.84143601849439"><ele>2.75</ele><time>2026-03-28T15:51:23.939Z</time></trkpt><trkpt lat="44.9069114005736" lon="11.84125874593091"><ele>2.5</ele><time>2026-03-28T15:51:24.939Z</time></trkpt><trkpt lat="44.906832745694956" lon="11.84109334327641"><ele>2.25</ele><time>2026-03-28T15:51:25.939Z</time></trkpt><trkpt lat="44.90674147157383" lon="11.84094247461124"><ele>2.0</ele><time>2026-03-28T15:51:26.939Z</time></trkpt><trkpt lat="44.90664423207816" lon="11.840803369403375"><ele>2.0</ele><time>2026-03-28T15:51:27.939Z</time></trkpt><trkpt lat="44.90653622307293" lon="11.840677792231203"><ele>2.0</ele><time>2026-03-28T15:51:28.939Z</time></trkpt><trkpt lat="44.906427609231876" lon="11.840552210716107"><ele>2.0</ele><time>2026-03-28T15:51:29.938Z</time></trkpt><trkpt lat="44.90630849400485" lon="11.840425266675974"><ele>2.0</ele><time>2026-03-28T15:51:30.938Z</time></trkpt><trkpt lat="44.906182830799764" lon="11.840308138255613"><ele>2.0</ele><time>2026-03-28T15:51:31.938Z</time></trkpt><trkpt lat="44.90604763890615" lon="11.84019176499211"><ele>2.0</ele><time>2026-03-28T15:51:32.938Z</time></trkpt><trkpt lat="44.90591844848842" lon="11.840085112300336"><ele>2.0</ele><time>2026-03-28T15:51:33.938Z</time></trkpt><trkpt lat="44.90579366648233" lon="11.83999164689422"><ele>2.0</ele><time>2026-03-28T15:51:34.938Z</time></trkpt><trkpt lat="44.90567274280581" lon="11.839912477705257"><ele>2.0</ele><time>2026-03-28T15:51:35.938Z</time></trkpt><trkpt lat="44.905552535954364" lon="11.83984187214827"><ele>2.0</ele><time>2026-03-28T15:51:36.938Z</time></trkpt><trkpt lat="44.90543386214903" lon="11.839781142685286"><ele>2.0</ele><time>2026-03-28T15:51:37.938Z</time></trkpt><trkpt lat="44.90530454241347" lon="11.839737406128776"><ele>2.0</ele><time>2026-03-28T15:51:38.938Z</time></trkpt><trkpt lat="44.90516759616429" lon="11.839704190540335"><ele>1.5</ele><time>2026-03-28T15:51:39.938Z</time></trkpt><trkpt lat="44.90502695720712" lon="11.839659766524115"><ele>1.0</ele><time>2026-03-28T15:51:40.938Z</time></trkpt><trkpt lat="44.90487963465716" lon="11.839620572450489"><ele>0.5</ele><time>2026-03-28T15:51:41.938Z</time></trkpt><trkpt lat="44.904733243918265" lon="11.839565169162332"><ele>0.0</ele><time>2026-03-28T15:51:42.938Z</time></trkpt><trkpt lat="44.904591451325125" lon="11.839503989238118"><ele>0.0</ele><time>2026-03-28T15:51:43.938Z</time></trkpt><trkpt lat="44.90445848728184" lon="11.839430569013016"><ele>0.0</ele><time>2026-03-28T15:51:44.938Z</time></trkpt><trkpt lat="44.904330942326645" lon="11.839351245496939"><ele>0.0</ele><time>2026-03-28T15:51:45.938Z</time></trkpt><trkpt lat="44.9042144089821" lon="11.839266175505745"><ele>0.0</ele><time>2026-03-28T15:51:46.938Z</time></trkpt><trkpt lat="44.904097327563754" lon="11.839174502365672"><ele>0.5</ele><time>2026-03-28T15:51:47.938Z</time></trkpt><trkpt lat="44.90398292379829" lon="11.839071868556333"><ele>1.0</ele><time>2026-03-28T15:51:48.938Z</time></trkpt><trkpt lat="44.90385989824149" lon="11.838953205987023"><ele>1.5</ele><time>2026-03-28T15:51:49.938Z</time></trkpt><trkpt lat="44.90374198713092" lon="11.83883074472224"><ele>2.0</ele><time>2026-03-28T15:51:50.938Z</time></trkpt><trkpt lat="44.90363082070663" lon="11.838712716648752"><ele>2.0</ele><time>2026-03-28T15:51:51.938Z</time></trkpt><trkpt lat="44.90352032591725" lon="11.838598393823647"><ele>2.0</ele><time>2026-03-28T15:51:52.938Z</time></trkpt><trkpt lat="44.903416259437705" lon="11.838486336691803"><ele>2.0</ele><time>2026-03-28T15:51:53.938Z</time></trkpt><trkpt lat="44.90331383454197" lon="11.838372321666709"><ele>2.0</ele><time>2026-03-28T15:51:54.938Z</time></trkpt><trkpt lat="44.90320270870765" lon="11.838252124538782"><ele>2.333333333333333</ele><time>2026-03-28T15:51:55.938Z</time></trkpt><trkpt lat="44.90297119295259" lon="11.8380086805804"><ele>2.6666666666666665</ele><time>2026-03-28T15:51:57.938Z</time></trkpt><trkpt lat="44.90286844856389" lon="11.837904703310894"><ele>3.0</ele><time>2026-03-28T15:51:58.938Z</time></trkpt><trkpt lat="44.90276527293212" lon="11.837804790734415"><ele>3.0</ele><time>2026-03-28T15:51:59.938Z</time></trkpt><trkpt lat="44.90266093184373" lon="11.837709452066917"><ele>3.0</ele><time>2026-03-28T15:52:00.938Z</time></trkpt><trkpt lat="44.902562329332056" lon="11.837626108962867"><ele>3.0</ele><time>2026-03-28T15:52:01.938Z</time></trkpt><trkpt lat="44.90247076788941" lon="11.837553178083002"><ele>3.0</ele><time>2026-03-28T15:52:02.938Z</time></trkpt><trkpt lat="44.902381712206555" lon="11.837482409868532"><ele>3.0</ele><time>2026-03-28T15:52:03.938Z</time></trkpt><trkpt lat="44.90228807167473" lon="11.837410381111777"><ele>3.25</ele><time>2026-03-28T15:52:04.938Z</time></trkpt><trkpt lat="44.90218573675676" lon="11.83733486246471"><ele>3.5</ele><time>2026-03-28T15:52:05.938Z</time></trkpt><trkpt lat="44.902077896427066" lon="11.837261886240656"><ele>3.75</ele><time>2026-03-28T15:52:06.938Z</time></trkpt><trkpt lat="44.90198006874854" lon="11.837150296181626"><ele>4.0</ele><time>2026-03-28T15:52:07.938Z</time></trkpt><trkpt lat="44.90186693893877" lon="11.837073880021109"><ele>4.0</ele><time>2026-03-28T15:52:08.938Z</time></trkpt><trkpt lat="44.90174928846276" lon="11.83700211525388"><ele>4.0</ele><time>2026-03-28T15:52:09.938Z</time></trkpt><trkpt lat="44.901638279615945" lon="11.836937464075387"><ele>4.0</ele><time>2026-03-28T15:52:10.938Z</time></trkpt><trkpt lat="44.90153682476876" lon="11.83688646818647"><ele>4.0</ele><time>2026-03-28T15:52:11.938Z</time></trkpt><trkpt lat="44.90143769819001" lon="11.836840979814866"><ele>3.8000000000000003</ele><time>2026-03-28T15:52:12.938Z</time></trkpt><trkpt lat="44.90134007547173" lon="11.836801269746907"><ele>3.6000000000000005</ele><time>2026-03-28T15:52:13.938Z</time></trkpt><trkpt lat="44.90124042090985" lon="11.836757300639675"><ele>3.4</ele><time>2026-03-28T15:52:14.938Z</time></trkpt><trkpt lat="44.901134962167355" lon="11.836712118253779"><ele>3.2</ele><time>2026-03-28T15:52:15.938Z</time></trkpt><trkpt lat="44.901026092136895" lon="11.836664151109364"><ele>3.0</ele><time>2026-03-28T15:52:16.938Z</time></trkpt><trkpt lat="44.90091423051565" lon="11.836608652619425"><ele>2.75</ele><time>2026-03-28T15:52:17.938Z</time></trkpt><trkpt lat="44.90079824260617" lon="11.836549738108669"><ele>2.5</ele><time>2026-03-28T15:52:18.937Z</time></trkpt><trkpt lat="44.90068016044644" lon="11.836487248661557"><ele>2.25</ele><time>2026-03-28T15:52:19.937Z</time></trkpt><trkpt lat="44.90056526499636" lon="11.836419106226717"><ele>2.0</ele><time>2026-03-28T15:52:20.937Z</time></trkpt><trkpt lat="44.900455738645974" lon="11.836352811489114"><ele>2.0</ele><time>2026-03-28T15:52:21.937Z</time></trkpt><trkpt lat="44.9003534110669" lon="11.836287933264973"><ele>2.0</ele><time>2026-03-28T15:52:22.937Z</time></trkpt><trkpt lat="44.90025444473484" lon="11.83622437932758"><ele>2.0</ele><time>2026-03-28T15:52:23.937Z</time></trkpt><trkpt lat="44.900160169234674" lon="11.836156815398292"><ele>2.0</ele><time>2026-03-28T15:52:24.937Z</time></trkpt><trkpt lat="44.90006535465607" lon="11.836089905875586"><ele>2.0</ele><time>2026-03-28T15:52:25.937Z</time></trkpt><trkpt lat="44.899963975401235" lon="11.836020185479324"><ele>2.0</ele><time>2026-03-28T15:52:26.937Z</time></trkpt><trkpt lat="44.899860611288354" lon="11.835952984247582"><ele>2.0</ele><time>2026-03-28T15:52:27.937Z</time></trkpt><trkpt lat="44.89976262118907" lon="11.835890680898524"><ele>2.0</ele><time>2026-03-28T15:52:28.937Z</time></trkpt><trkpt lat="44.89966749803833" lon="11.83583008904856"><ele>2.0</ele><time>2026-03-28T15:52:29.937Z</time></trkpt><trkpt lat="44.89957447321142" lon="11.835766057327923"><ele>2.0</ele><time>2026-03-28T15:52:30.937Z</time></trkpt><trkpt lat="44.899479790160896" lon="11.835714313527351"><ele>2.0</ele><time>2026-03-28T15:52:31.937Z</time></trkpt><trkpt lat="44.899387664166504" lon="11.835659670058389"><ele>2.0</ele><time>2026-03-28T15:52:32.937Z</time></trkpt><trkpt lat="44.89929505929822" lon="11.83561090197571"><ele>2.0</ele><time>2026-03-28T15:52:33.937Z</time></trkpt><trkpt lat="44.89920134992032" lon="11.835572357137302"><ele>2.0</ele><time>2026-03-28T15:52:34.937Z</time></trkpt><trkpt lat="44.89910684360959" lon="11.835526830867751"><ele>2.0</ele><time>2026-03-28T15:52:35.937Z</time></trkpt><trkpt lat="44.89901503997523" lon="11.83550614962163"><ele>2.2</ele><time>2026-03-28T15:52:36.937Z</time></trkpt><trkpt lat="44.89892964820226" lon="11.835483279736975"><ele>2.4000000000000004</ele><time>2026-03-28T15:52:37.937Z</time></trkpt><trkpt lat="44.8988339730716" lon="11.835448867691147"><ele>2.5999999999999996</ele><time>2026-03-28T15:52:38.937Z</time></trkpt><trkpt lat="44.898729228895895" lon="11.835432009333788"><ele>2.8</ele><time>2026-03-28T15:52:39.937Z</time></trkpt><trkpt lat="44.898620886586215" lon="11.835412436550152"><ele>3.0</ele><time>2026-03-28T15:52:40.937Z</time></trkpt><trkpt lat="44.89851811386899" lon="11.835395476499034"><ele>3.0</ele><time>2026-03-28T15:52:41.937Z</time></trkpt><trkpt lat="44.8984275798845" lon="11.835374545532854"><ele>3.0</ele><time>2026-03-28T15:52:42.937Z</time></trkpt><trkpt lat="44.898345012763514" lon="11.835368207787997"><ele>3.0</ele><time>2026-03-28T15:52:43.937Z</time></trkpt><trkpt lat="44.89826692626655" lon="11.835353265203143"><ele>3.0</ele><time>2026-03-28T15:52:44.937Z</time></trkpt><trkpt lat="44.89819486842986" lon="11.835344870635412"><ele>3.0</ele><time>2026-03-28T15:52:45.937Z</time></trkpt><trkpt lat="44.898125002033034" lon="11.835329969107926"><ele>3.0</ele><time>2026-03-28T15:52:46.937Z</time></trkpt><trkpt lat="44.898057628726825" lon="11.83531184411252"><ele>3.0</ele><time>2026-03-28T15:52:47.937Z</time></trkpt><trkpt lat="44.89799619936394" lon="11.835262500617715"><ele>3.0</ele><time>2026-03-28T15:52:48.937Z</time></trkpt><trkpt lat="44.897894319681384" lon="11.835061644664918"><ele>3.0</ele><time>2026-03-28T15:52:50.937Z</time></trkpt><trkpt lat="44.897856590435374" lon="11.834890178187239"><ele>3.0</ele><time>2026-03-28T15:52:51.937Z</time></trkpt><trkpt lat="44.89783993900343" lon="11.834691342095033"><ele>3.0</ele><time>2026-03-28T15:52:52.937Z</time></trkpt><trkpt lat="44.89779294483182" lon="11.834482353356709"><ele>3.0</ele><time>2026-03-28T15:52:53.937Z</time></trkpt><trkpt lat="44.89776125025891" lon="11.834248182423236"><ele>3.0</ele><time>2026-03-28T15:52:54.937Z</time></trkpt><trkpt lat="44.897721309892894" lon="11.834022182307855"><ele>3.333333333333333</ele><time>2026-03-28T15:52:55.937Z</time></trkpt><trkpt lat="44.89768602926304" lon="11.833796405021115"><ele>3.6666666666666665</ele><time>2026-03-28T15:52:56.937Z</time></trkpt><trkpt lat="44.89766280642155" lon="11.833575615913235"><ele>4.0</ele><time>2026-03-28T15:52:57.937Z</time></trkpt><trkpt lat="44.89763104581213" lon="11.833377512277114"><ele>4.0</ele><time>2026-03-28T15:52:58.937Z</time></trkpt><trkpt lat="44.897593237885715" lon="11.833195457719096"><ele>4.0</ele><time>2026-03-28T15:52:59.937Z</time></trkpt><trkpt lat="44.89758469625646" lon="11.833007065145127"><ele>4.0</ele><time>2026-03-28T15:53:00.937Z</time></trkpt><trkpt lat="44.897555896960945" lon="11.832836631079163"><ele>4.0</ele><time>2026-03-28T15:53:01.937Z</time></trkpt><trkpt lat="44.897525338181616" lon="11.832678877835562"><ele>3.8000000000000003</ele><time>2026-03-28T15:53:02.937Z</time></trkpt><trkpt lat="44.89749708276454" lon="11.832529168809314"><ele>3.6000000000000005</ele><time>2026-03-28T15:53:03.937Z</time></trkpt><trkpt lat="44.897468233569185" lon="11.832392889471524"><ele>3.4</ele><time>2026-03-28T15:53:04.937Z</time></trkpt><trkpt lat="44.89744404489383" lon="11.832265715639966"><ele>3.2</ele><time>2026-03-28T15:53:05.937Z</time></trkpt><trkpt lat="44.89741752826957" lon="11.832164892565725"><ele>3.0</ele><time>2026-03-28T15:53:06.937Z</time></trkpt><trkpt lat="44.89741222836575" lon="11.83205045697642"><ele>3.0</ele><time>2026-03-28T15:53:08.936Z</time></trkpt><trkpt lat="44.897394257867475" lon="11.831941981867717"><ele>3.0</ele><time>2026-03-28T15:53:17.938Z</time></trkpt><trkpt lat="44.8972220144909" lon="11.831983776387467"><ele>3.0</ele><time>2026-03-28T15:53:19.938Z</time></trkpt><trkpt lat="44.89715696976306" lon="11.83198863406492"><ele>3.0</ele><time>2026-03-28T15:53:20.938Z</time></trkpt><trkpt lat="44.89708200761531" lon="11.832027489620845"><ele>3.0</ele><time>2026-03-28T15:53:22Z</time></trkpt><trkpt lat="44.897008647407" lon="11.832049997464553"><ele>3.0</ele><time>2026-03-28T15:53:23Z</time></trkpt><trkpt lat="44.89693845874685" lon="11.832073646271626"><ele>3.0</ele><time>2026-03-28T15:53:24.001Z</time></trkpt><trkpt lat="44.896872837115374" lon="11.832094174518012"><ele>3.0</ele><time>2026-03-28T15:53:25Z</time></trkpt><trkpt lat="44.89676162288049" lon="11.832160588925388"><ele>3.0</ele><time>2026-03-28T15:53:27Z</time></trkpt><trkpt lat="44.89666424158984" lon="11.832231461250158"><ele>3.0</ele><time>2026-03-28T15:53:29Z</time></trkpt><trkpt lat="44.89659641284962" lon="11.832295191554094"><ele>4.0</ele><time>2026-03-28T15:53:31Z</time></trkpt><trkpt lat="44.896531823407706" lon="11.832299919424827"><ele>4.0</ele><time>2026-03-28T15:53:34Z</time></trkpt><trkpt lat="44.89649162510436" lon="11.832204606087187"><ele>4.0</ele><time>2026-03-28T15:54:59.999Z</time></trkpt></trkseg></trk></gpx>